<?xml version='1.0' encoding='UTF-8'?><gpx version="1.1" creator="JPX - https://github.com/jenetics/jpx" xmlns="http://www.topografix.com/GPX/1/1"><trk><trkseg><trkpt lat="42.3348728" lon="13.4658823"><ele>594.0</ele><time>2026-04-11T08:34:48.951Z</time></trkpt><trkpt lat="42.3349472" lon="13.4659319"><ele>594.0</ele><time>2026-04-11T08:34:58.951Z</time></trkpt><trkpt lat="42.3350333" lon="13.4659801"><ele>594.0</ele><time>2026-04-11T08:35:01.951Z</time></trkpt><trkpt lat="42.3350973" lon="13.4659898"><ele>594.0</ele><time>2026-04-11T08:35:03.951Z</time></trkpt><trkpt lat="42.3351486" lon="13.4658729"><ele>594.0</ele><time>2026-04-11T08:35:05.95Z</time></trkpt><trkpt lat="42.3351741" lon="13.465784"><ele>594.0</ele><time>2026-04-11T08:35:06.951Z</time></trkpt><trkpt lat="42.3351966" lon="13.4657001"><ele>594.0</ele><time>2026-04-11T08:35:07.95Z</time></trkpt><trkpt lat="42.3352085" lon="13.46558"><ele>594.0</ele><time>2026-04-11T08:35:09.951Z</time></trkpt><trkpt lat="42.3351852" lon="13.4654807"><ele>594.0</ele><time>2026-04-11T08:35:11.951Z</time></trkpt><trkpt lat="42.3350828" lon="13.4653751"><ele>594.0</ele><time>2026-04-11T08:35:13.951Z</time></trkpt><trkpt lat="42.3350183" lon="13.4653192"><ele>594.0</ele><time>2026-04-11T08:35:14.95Z</time></trkpt><trkpt lat="42.3349575" lon="13.4652709"><ele>594.0</ele><time>2026-04-11T08:35:16.95Z</time></trkpt><trkpt lat="42.3348809" lon="13.4652996"><ele>594.0</ele><time>2026-04-11T08:35:30.95Z</time></trkpt><trkpt lat="42.3348388" lon="13.4653853"><ele>594.0</ele><time>2026-04-11T08:35:32.951Z</time></trkpt><trkpt lat="42.3347833" lon="13.4655565"><ele>594.0</ele><time>2026-04-11T08:35:34.95Z</time></trkpt><trkpt lat="42.3347495" lon="13.4656678"><ele>594.0</ele><time>2026-04-11T08:35:35.95Z</time></trkpt><trkpt lat="42.3347168" lon="13.4657806"><ele>594.0</ele><time>2026-04-11T08:35:36.951Z</time></trkpt><trkpt lat="42.334683" lon="13.4658975"><ele>593.6</ele><time>2026-04-11T08:35:37.951Z</time></trkpt><trkpt lat="42.3346472" lon="13.4660168"><ele>593.2</ele><time>2026-04-11T08:35:38.951Z</time></trkpt><trkpt lat="42.3346175" lon="13.4661405"><ele>592.8000000000001</ele><time>2026-04-11T08:35:39.951Z</time></trkpt><trkpt lat="42.3345864" lon="13.4662576"><ele>592.4</ele><time>2026-04-11T08:35:40.951Z</time></trkpt><trkpt lat="42.334551" lon="13.466373"><ele>592.0</ele><time>2026-04-11T08:35:41.951Z</time></trkpt><trkpt lat="42.3345184" lon="13.4664914"><ele>592.0</ele><time>2026-04-11T08:35:42.951Z</time></trkpt><trkpt lat="42.3344869" lon="13.4666097"><ele>592.0</ele><time>2026-04-11T08:35:43.951Z</time></trkpt><trkpt lat="42.3344519" lon="13.4667331"><ele>592.0</ele><time>2026-04-11T08:35:44.951Z</time></trkpt><trkpt lat="42.3344162" lon="13.4668697"><ele>592.0</ele><time>2026-04-11T08:35:45.951Z</time></trkpt><trkpt lat="42.3343768" lon="13.4670092"><ele>592.0</ele><time>2026-04-11T08:35:46.951Z</time></trkpt><trkpt lat="42.3343381" lon="13.4671488"><ele>591.75</ele><time>2026-04-11T08:35:47.951Z</time></trkpt><trkpt lat="42.3342985" lon="13.4672921"><ele>591.5</ele><time>2026-04-11T08:35:48.951Z</time></trkpt><trkpt lat="42.3342586" lon="13.4674416"><ele>591.25</ele><time>2026-04-11T08:35:49.951Z</time></trkpt><trkpt lat="42.3342178" lon="13.4675918"><ele>591.0</ele><time>2026-04-11T08:35:50.951Z</time></trkpt><trkpt lat="42.3341741" lon="13.4677538"><ele>591.0</ele><time>2026-04-11T08:35:51.951Z</time></trkpt><trkpt lat="42.3341327" lon="13.4679037"><ele>591.0</ele><time>2026-04-11T08:35:52.951Z</time></trkpt><trkpt lat="42.3340937" lon="13.4680531"><ele>591.0</ele><time>2026-04-11T08:35:53.951Z</time></trkpt><trkpt lat="42.3340523" lon="13.4682023"><ele>591.0</ele><time>2026-04-11T08:35:54.95Z</time></trkpt><trkpt lat="42.3340133" lon="13.4683465"><ele>591.0</ele><time>2026-04-11T08:35:55.951Z</time></trkpt><trkpt lat="42.3339736" lon="13.4684904"><ele>591.0</ele><time>2026-04-11T08:35:56.951Z</time></trkpt><trkpt lat="42.3339356" lon="13.4686297"><ele>591.0</ele><time>2026-04-11T08:35:57.951Z</time></trkpt><trkpt lat="42.3338954" lon="13.4687691"><ele>591.0</ele><time>2026-04-11T08:35:58.951Z</time></trkpt><trkpt lat="42.3338542" lon="13.4689121"><ele>591.0</ele><time>2026-04-11T08:35:59.951Z</time></trkpt><trkpt lat="42.3338144" lon="13.4690619"><ele>591.0</ele><time>2026-04-11T08:36:00.95Z</time></trkpt><trkpt lat="42.3337724" lon="13.4692149"><ele>591.0</ele><time>2026-04-11T08:36:01.95Z</time></trkpt><trkpt lat="42.3337298" lon="13.4693677"><ele>591.0</ele><time>2026-04-11T08:36:02.951Z</time></trkpt><trkpt lat="42.3336889" lon="13.4695194"><ele>591.0</ele><time>2026-04-11T08:36:03.951Z</time></trkpt><trkpt lat="42.3336482" lon="13.4696607"><ele>591.0</ele><time>2026-04-11T08:36:04.951Z</time></trkpt><trkpt lat="42.3336133" lon="13.4697884"><ele>591.0</ele><time>2026-04-11T08:36:05.95Z</time></trkpt><trkpt lat="42.3335778" lon="13.4699156"><ele>591.0</ele><time>2026-04-11T08:36:06.951Z</time></trkpt><trkpt lat="42.3335488" lon="13.4700461"><ele>591.0</ele><time>2026-04-11T08:36:07.95Z</time></trkpt><trkpt lat="42.3335216" lon="13.4701747"><ele>591.0</ele><time>2026-04-11T08:36:08.95Z</time></trkpt><trkpt lat="42.333503" lon="13.4703006"><ele>591.0</ele><time>2026-04-11T08:36:09.951Z</time></trkpt><trkpt lat="42.333486" lon="13.4704169"><ele>591.0</ele><time>2026-04-11T08:36:10.951Z</time></trkpt><trkpt lat="42.333474" lon="13.4705265"><ele>591.0</ele><time>2026-04-11T08:36:11.951Z</time></trkpt><trkpt lat="42.3334622" lon="13.4706325"><ele>591.0</ele><time>2026-04-11T08:36:12.951Z</time></trkpt><trkpt lat="42.3334378" lon="13.4707422"><ele>591.0</ele><time>2026-04-11T08:36:13.951Z</time></trkpt><trkpt lat="42.3334065" lon="13.4708558"><ele>591.0</ele><time>2026-04-11T08:36:14.951Z</time></trkpt><trkpt lat="42.3333724" lon="13.4709762"><ele>591.2</ele><time>2026-04-11T08:36:15.951Z</time></trkpt><trkpt lat="42.333344" lon="13.4710972"><ele>591.4000000000001</ele><time>2026-04-11T08:36:16.951Z</time></trkpt><trkpt lat="42.3333113" lon="13.4712319"><ele>591.6</ele><time>2026-04-11T08:36:17.951Z</time></trkpt><trkpt lat="42.3332673" lon="13.4713621"><ele>591.8000000000001</ele><time>2026-04-11T08:36:18.95Z</time></trkpt><trkpt lat="42.3332207" lon="13.4714919"><ele>592.0</ele><time>2026-04-11T08:36:19.951Z</time></trkpt><trkpt lat="42.3331739" lon="13.4716179"><ele>591.8000000000001</ele><time>2026-04-11T08:36:20.95Z</time></trkpt><trkpt lat="42.3331246" lon="13.4717443"><ele>591.6</ele><time>2026-04-11T08:36:21.951Z</time></trkpt><trkpt lat="42.3330816" lon="13.4718725"><ele>591.4000000000001</ele><time>2026-04-11T08:36:22.95Z</time></trkpt><trkpt lat="42.3330455" lon="13.4720061"><ele>591.2</ele><time>2026-04-11T08:36:23.95Z</time></trkpt><trkpt lat="42.3330085" lon="13.4721567"><ele>591.0</ele><time>2026-04-11T08:36:24.951Z</time></trkpt><trkpt lat="42.3329716" lon="13.4723084"><ele>591.0</ele><time>2026-04-11T08:36:25.95Z</time></trkpt><trkpt lat="42.3329313" lon="13.4724564"><ele>591.0</ele><time>2026-04-11T08:36:26.951Z</time></trkpt><trkpt lat="42.3328905" lon="13.4726116"><ele>591.0</ele><time>2026-04-11T08:36:27.951Z</time></trkpt><trkpt lat="42.3328501" lon="13.4727651"><ele>591.0</ele><time>2026-04-11T08:36:28.95Z</time></trkpt><trkpt lat="42.3328131" lon="13.4729244"><ele>591.5</ele><time>2026-04-11T08:36:29.951Z</time></trkpt><trkpt lat="42.3327689" lon="13.4730909"><ele>592.0</ele><time>2026-04-11T08:36:30.95Z</time></trkpt><trkpt lat="42.3327203" lon="13.4732632"><ele>592.5</ele><time>2026-04-11T08:36:31.951Z</time></trkpt><trkpt lat="42.3326766" lon="13.4734368"><ele>593.0</ele><time>2026-04-11T08:36:32.95Z</time></trkpt><trkpt lat="42.3326335" lon="13.4736035"><ele>593.25</ele><time>2026-04-11T08:36:33.95Z</time></trkpt><trkpt lat="42.3325867" lon="13.4737722"><ele>593.5</ele><time>2026-04-11T08:36:34.951Z</time></trkpt><trkpt lat="42.33254" lon="13.4739513"><ele>593.75</ele><time>2026-04-11T08:36:35.951Z</time></trkpt><trkpt lat="42.3324917" lon="13.4741323"><ele>594.0</ele><time>2026-04-11T08:36:36.951Z</time></trkpt><trkpt lat="42.3324438" lon="13.4743163"><ele>594.0</ele><time>2026-04-11T08:36:37.951Z</time></trkpt><trkpt lat="42.3323942" lon="13.4744998"><ele>594.0</ele><time>2026-04-11T08:36:38.95Z</time></trkpt><trkpt lat="42.3323447" lon="13.4746871"><ele>594.0</ele><time>2026-04-11T08:36:39.951Z</time></trkpt><trkpt lat="42.3322966" lon="13.4748701"><ele>594.0</ele><time>2026-04-11T08:36:40.951Z</time></trkpt><trkpt lat="42.3322506" lon="13.4750533"><ele>593.5</ele><time>2026-04-11T08:36:41.951Z</time></trkpt><trkpt lat="42.3322065" lon="13.4752338"><ele>593.0</ele><time>2026-04-11T08:36:42.951Z</time></trkpt><trkpt lat="42.3321615" lon="13.4754167"><ele>592.5</ele><time>2026-04-11T08:36:43.951Z</time></trkpt><trkpt lat="42.3321171" lon="13.4755881"><ele>592.0</ele><time>2026-04-11T08:36:44.95Z</time></trkpt><trkpt lat="42.3320723" lon="13.4757489"><ele>592.0</ele><time>2026-04-11T08:36:45.95Z</time></trkpt><trkpt lat="42.3320258" lon="13.4759166"><ele>592.0</ele><time>2026-04-11T08:36:46.95Z</time></trkpt><trkpt lat="42.3319819" lon="13.4760832"><ele>592.0</ele><time>2026-04-11T08:36:47.951Z</time></trkpt><trkpt lat="42.3319355" lon="13.4762561"><ele>592.0</ele><time>2026-04-11T08:36:48.951Z</time></trkpt><trkpt lat="42.3318907" lon="13.4764266"><ele>592.0</ele><time>2026-04-11T08:36:49.951Z</time></trkpt><trkpt lat="42.3318408" lon="13.4765934"><ele>592.0</ele><time>2026-04-11T08:36:50.951Z</time></trkpt><trkpt lat="42.3317976" lon="13.4767536"><ele>592.0</ele><time>2026-04-11T08:36:51.951Z</time></trkpt><trkpt lat="42.3317543" lon="13.4769044"><ele>592.0</ele><time>2026-04-11T08:36:52.951Z</time></trkpt><trkpt lat="42.3317129" lon="13.4770448"><ele>592.0</ele><time>2026-04-11T08:36:53.95Z</time></trkpt><trkpt lat="42.3316748" lon="13.4771734"><ele>592.0</ele><time>2026-04-11T08:36:54.951Z</time></trkpt><trkpt lat="42.3316407" lon="13.4772988"><ele>592.0</ele><time>2026-04-11T08:36:55.951Z</time></trkpt><trkpt lat="42.3316071" lon="13.4774147"><ele>592.0</ele><time>2026-04-11T08:36:56.951Z</time></trkpt><trkpt lat="42.3315722" lon="13.4775231"><ele>592.0</ele><time>2026-04-11T08:36:57.951Z</time></trkpt><trkpt lat="42.3315405" lon="13.4776269"><ele>592.0</ele><time>2026-04-11T08:36:58.95Z</time></trkpt><trkpt lat="42.3315159" lon="13.4777092"><ele>592.0</ele><time>2026-04-11T08:36:59.95Z</time></trkpt><trkpt lat="42.3314833" lon="13.4778262"><ele>592.0</ele><time>2026-04-11T08:37:01.951Z</time></trkpt><trkpt lat="42.3314439" lon="13.4779386"><ele>592.0</ele><time>2026-04-11T08:37:04.951Z</time></trkpt><trkpt lat="42.3314143" lon="13.4780493"><ele>592.0</ele><time>2026-04-11T08:37:07.951Z</time></trkpt><trkpt lat="42.3313851" lon="13.4781279"><ele>592.0</ele><time>2026-04-11T08:37:09.951Z</time></trkpt><trkpt lat="42.3313448" lon="13.4782566"><ele>591.5</ele><time>2026-04-11T08:37:11.951Z</time></trkpt><trkpt lat="42.3313223" lon="13.4783365"><ele>591.0</ele><time>2026-04-11T08:37:12.951Z</time></trkpt><trkpt lat="42.33128" lon="13.4784912"><ele>590.5</ele><time>2026-04-11T08:37:14.951Z</time></trkpt><trkpt lat="42.331254" lon="13.4785754"><ele>590.0</ele><time>2026-04-11T08:37:15.95Z</time></trkpt><trkpt lat="42.3312248" lon="13.4786569"><ele>589.5</ele><time>2026-04-11T08:37:16.95Z</time></trkpt><trkpt lat="42.3311753" lon="13.4787174"><ele>589.0</ele><time>2026-04-11T08:37:17.951Z</time></trkpt><trkpt lat="42.3310883" lon="13.4788278"><ele>589.0</ele><time>2026-04-11T08:37:19.951Z</time></trkpt><trkpt lat="42.3310741" lon="13.4789157"><ele>589.0</ele><time>2026-04-11T08:37:20.951Z</time></trkpt><trkpt lat="42.3310739" lon="13.4790061"><ele>589.0</ele><time>2026-04-11T08:37:21.951Z</time></trkpt><trkpt lat="42.3310773" lon="13.4791121"><ele>589.0</ele><time>2026-04-11T08:37:22.951Z</time></trkpt><trkpt lat="42.3310655" lon="13.4792191"><ele>589.0</ele><time>2026-04-11T08:37:23.951Z</time></trkpt><trkpt lat="42.3310422" lon="13.4793344"><ele>589.0</ele><time>2026-04-11T08:37:24.95Z</time></trkpt><trkpt lat="42.3310079" lon="13.4794495"><ele>589.0</ele><time>2026-04-11T08:37:25.951Z</time></trkpt><trkpt lat="42.3309709" lon="13.4795725"><ele>589.0</ele><time>2026-04-11T08:37:26.951Z</time></trkpt><trkpt lat="42.3309316" lon="13.479704"><ele>589.0</ele><time>2026-04-11T08:37:27.951Z</time></trkpt><trkpt lat="42.3308894" lon="13.4798382"><ele>589.0</ele><time>2026-04-11T08:37:28.95Z</time></trkpt><trkpt lat="42.3308464" lon="13.4799793"><ele>589.0</ele><time>2026-04-11T08:37:29.951Z</time></trkpt><trkpt lat="42.3307981" lon="13.4801231"><ele>588.8</ele><time>2026-04-11T08:37:30.95Z</time></trkpt><trkpt lat="42.3307548" lon="13.4802676"><ele>588.5999999999999</ele><time>2026-04-11T08:37:31.951Z</time></trkpt><trkpt lat="42.3307119" lon="13.4804008"><ele>588.4</ele><time>2026-04-11T08:37:32.951Z</time></trkpt><trkpt lat="42.3306735" lon="13.4805394"><ele>588.1999999999999</ele><time>2026-04-11T08:37:33.951Z</time></trkpt><trkpt lat="42.3306312" lon="13.4806814"><ele>588.0</ele><time>2026-04-11T08:37:34.951Z</time></trkpt><trkpt lat="42.3305879" lon="13.4808252"><ele>587.25</ele><time>2026-04-11T08:37:35.951Z</time></trkpt><trkpt lat="42.3305379" lon="13.4809838"><ele>586.5</ele><time>2026-04-11T08:37:36.951Z</time></trkpt><trkpt lat="42.33049" lon="13.48115"><ele>585.75</ele><time>2026-04-11T08:37:37.951Z</time></trkpt><trkpt lat="42.3304402" lon="13.4813188"><ele>585.0</ele><time>2026-04-11T08:37:38.95Z</time></trkpt><trkpt lat="42.3303885" lon="13.481493"><ele>584.5</ele><time>2026-04-11T08:37:39.951Z</time></trkpt><trkpt lat="42.3303366" lon="13.4816738"><ele>584.0</ele><time>2026-04-11T08:37:40.951Z</time></trkpt><trkpt lat="42.330281" lon="13.4818589"><ele>583.5</ele><time>2026-04-11T08:37:41.95Z</time></trkpt><trkpt lat="42.3302277" lon="13.4820348"><ele>583.0</ele><time>2026-04-11T08:37:42.951Z</time></trkpt><trkpt lat="42.3301757" lon="13.4822055"><ele>583.0</ele><time>2026-04-11T08:37:43.951Z</time></trkpt><trkpt lat="42.3301231" lon="13.4823796"><ele>583.0</ele><time>2026-04-11T08:37:44.951Z</time></trkpt><trkpt lat="42.3300752" lon="13.4825562"><ele>583.0</ele><time>2026-04-11T08:37:45.951Z</time></trkpt><trkpt lat="42.3300243" lon="13.482728"><ele>583.0</ele><time>2026-04-11T08:37:46.951Z</time></trkpt><trkpt lat="42.3299673" lon="13.4829029"><ele>583.0</ele><time>2026-04-11T08:37:47.951Z</time></trkpt><trkpt lat="42.329915" lon="13.4830804"><ele>583.0</ele><time>2026-04-11T08:37:48.95Z</time></trkpt><trkpt lat="42.3298627" lon="13.483259"><ele>583.0</ele><time>2026-04-11T08:37:49.951Z</time></trkpt><trkpt lat="42.32981" lon="13.4834337"><ele>583.0</ele><time>2026-04-11T08:37:50.951Z</time></trkpt><trkpt lat="42.3297563" lon="13.4836154"><ele>582.5</ele><time>2026-04-11T08:37:51.951Z</time></trkpt><trkpt lat="42.3297033" lon="13.4837958"><ele>582.0</ele><time>2026-04-11T08:37:52.951Z</time></trkpt><trkpt lat="42.3296513" lon="13.483986"><ele>581.5</ele><time>2026-04-11T08:37:53.95Z</time></trkpt><trkpt lat="42.3295966" lon="13.4841762"><ele>581.0</ele><time>2026-04-11T08:37:54.951Z</time></trkpt><trkpt lat="42.3295402" lon="13.4843709"><ele>581.0</ele><time>2026-04-11T08:37:55.951Z</time></trkpt><trkpt lat="42.3294786" lon="13.4845681"><ele>581.0</ele><time>2026-04-11T08:37:56.951Z</time></trkpt><trkpt lat="42.3294177" lon="13.4847695"><ele>581.0</ele><time>2026-04-11T08:37:57.951Z</time></trkpt><trkpt lat="42.3293594" lon="13.4849725"><ele>581.0</ele><time>2026-04-11T08:37:58.951Z</time></trkpt><trkpt lat="42.3293002" lon="13.4851759"><ele>581.0</ele><time>2026-04-11T08:37:59.951Z</time></trkpt><trkpt lat="42.3292362" lon="13.4853791"><ele>581.0</ele><time>2026-04-11T08:38:00.951Z</time></trkpt><trkpt lat="42.3291741" lon="13.4855839"><ele>581.0</ele><time>2026-04-11T08:38:01.951Z</time></trkpt><trkpt lat="42.3291144" lon="13.485789"><ele>581.0</ele><time>2026-04-11T08:38:02.95Z</time></trkpt><trkpt lat="42.3290562" lon="13.4859971"><ele>581.0</ele><time>2026-04-11T08:38:03.951Z</time></trkpt><trkpt lat="42.3289909" lon="13.4861979"><ele>580.3333333333333</ele><time>2026-04-11T08:38:04.951Z</time></trkpt><trkpt lat="42.3289305" lon="13.4863963"><ele>579.6666666666666</ele><time>2026-04-11T08:38:05.951Z</time></trkpt><trkpt lat="42.3288717" lon="13.4865878"><ele>579.0</ele><time>2026-04-11T08:38:06.951Z</time></trkpt><trkpt lat="42.3288151" lon="13.4867831"><ele>579.0</ele><time>2026-04-11T08:38:07.951Z</time></trkpt><trkpt lat="42.3287588" lon="13.486972"><ele>579.0</ele><time>2026-04-11T08:38:08.95Z</time></trkpt><trkpt lat="42.3287011" lon="13.4871635"><ele>579.0</ele><time>2026-04-11T08:38:09.951Z</time></trkpt><trkpt lat="42.3286405" lon="13.4873513"><ele>578.6666666666666</ele><time>2026-04-11T08:38:10.951Z</time></trkpt><trkpt lat="42.3285828" lon="13.4875404"><ele>578.3333333333333</ele><time>2026-04-11T08:38:11.951Z</time></trkpt><trkpt lat="42.3285311" lon="13.4877322"><ele>578.0</ele><time>2026-04-11T08:38:12.95Z</time></trkpt><trkpt lat="42.3284782" lon="13.4879183"><ele>578.0</ele><time>2026-04-11T08:38:13.95Z</time></trkpt><trkpt lat="42.3284197" lon="13.488107"><ele>578.0</ele><time>2026-04-11T08:38:14.95Z</time></trkpt><trkpt lat="42.3283575" lon="13.4883013"><ele>578.0</ele><time>2026-04-11T08:38:15.951Z</time></trkpt><trkpt lat="42.3282974" lon="13.4884951"><ele>578.0</ele><time>2026-04-11T08:38:16.951Z</time></trkpt><trkpt lat="42.3282389" lon="13.4886976"><ele>578.0</ele><time>2026-04-11T08:38:17.95Z</time></trkpt><trkpt lat="42.3281766" lon="13.4889011"><ele>578.0</ele><time>2026-04-11T08:38:18.951Z</time></trkpt><trkpt lat="42.3281136" lon="13.4891086"><ele>577.3333333333333</ele><time>2026-04-11T08:38:19.951Z</time></trkpt><trkpt lat="42.3280508" lon="13.4893151"><ele>576.6666666666666</ele><time>2026-04-11T08:38:20.951Z</time></trkpt><trkpt lat="42.3279886" lon="13.4895212"><ele>576.0</ele><time>2026-04-11T08:38:21.951Z</time></trkpt><trkpt lat="42.3279256" lon="13.4897196"><ele>576.0</ele><time>2026-04-11T08:38:22.951Z</time></trkpt><trkpt lat="42.3278738" lon="13.4899148"><ele>576.0</ele><time>2026-04-11T08:38:23.951Z</time></trkpt><trkpt lat="42.3278182" lon="13.4900968"><ele>576.0</ele><time>2026-04-11T08:38:24.95Z</time></trkpt><trkpt lat="42.3277647" lon="13.4902767"><ele>576.0</ele><time>2026-04-11T08:38:25.95Z</time></trkpt><trkpt lat="42.3277091" lon="13.4904615"><ele>576.25</ele><time>2026-04-11T08:38:26.951Z</time></trkpt><trkpt lat="42.3276533" lon="13.4906506"><ele>576.5</ele><time>2026-04-11T08:38:27.951Z</time></trkpt><trkpt lat="42.3275927" lon="13.4908398"><ele>576.75</ele><time>2026-04-11T08:38:28.951Z</time></trkpt><trkpt lat="42.327539" lon="13.4910239"><ele>577.0</ele><time>2026-04-11T08:38:29.95Z</time></trkpt><trkpt lat="42.3274877" lon="13.4911979"><ele>577.0</ele><time>2026-04-11T08:38:30.951Z</time></trkpt><trkpt lat="42.3274351" lon="13.4913641"><ele>577.0</ele><time>2026-04-11T08:38:31.951Z</time></trkpt><trkpt lat="42.3273867" lon="13.4915257"><ele>577.0</ele><time>2026-04-11T08:38:32.95Z</time></trkpt><trkpt lat="42.327344" lon="13.4916942"><ele>577.0</ele><time>2026-04-11T08:38:33.951Z</time></trkpt><trkpt lat="42.3272921" lon="13.4918682"><ele>577.0</ele><time>2026-04-11T08:38:34.95Z</time></trkpt><trkpt lat="42.3272347" lon="13.4920454"><ele>577.0</ele><time>2026-04-11T08:38:35.951Z</time></trkpt><trkpt lat="42.327176" lon="13.4922374"><ele>577.0</ele><time>2026-04-11T08:38:36.951Z</time></trkpt><trkpt lat="42.3271224" lon="13.4924275"><ele>577.0</ele><time>2026-04-11T08:38:37.951Z</time></trkpt><trkpt lat="42.327068" lon="13.4926094"><ele>576.75</ele><time>2026-04-11T08:38:38.95Z</time></trkpt><trkpt lat="42.3270126" lon="13.4927817"><ele>576.5</ele><time>2026-04-11T08:38:39.951Z</time></trkpt><trkpt lat="42.3269624" lon="13.4929533"><ele>576.25</ele><time>2026-04-11T08:38:40.951Z</time></trkpt><trkpt lat="42.3269155" lon="13.4931278"><ele>576.0</ele><time>2026-04-11T08:38:41.951Z</time></trkpt><trkpt lat="42.3268641" lon="13.4932991"><ele>575.75</ele><time>2026-04-11T08:38:42.951Z</time></trkpt><trkpt lat="42.3268155" lon="13.4934693"><ele>575.5</ele><time>2026-04-11T08:38:43.951Z</time></trkpt><trkpt lat="42.3267647" lon="13.4936415"><ele>575.25</ele><time>2026-04-11T08:38:44.951Z</time></trkpt><trkpt lat="42.3267118" lon="13.4938094"><ele>575.0</ele><time>2026-04-11T08:38:45.951Z</time></trkpt><trkpt lat="42.3266597" lon="13.4939732"><ele>575.5</ele><time>2026-04-11T08:38:46.951Z</time></trkpt><trkpt lat="42.3266139" lon="13.4941263"><ele>576.0</ele><time>2026-04-11T08:38:47.95Z</time></trkpt><trkpt lat="42.3265684" lon="13.4942858"><ele>576.5</ele><time>2026-04-11T08:38:48.951Z</time></trkpt><trkpt lat="42.3265199" lon="13.4944439"><ele>577.0</ele><time>2026-04-11T08:38:49.951Z</time></trkpt><trkpt lat="42.3264729" lon="13.4946122"><ele>576.5</ele><time>2026-04-11T08:38:50.951Z</time></trkpt><trkpt lat="42.3264186" lon="13.4947798"><ele>576.0</ele><time>2026-04-11T08:38:51.95Z</time></trkpt><trkpt lat="42.3263674" lon="13.4949403"><ele>575.5</ele><time>2026-04-11T08:38:52.951Z</time></trkpt><trkpt lat="42.3263239" lon="13.4950929"><ele>575.0</ele><time>2026-04-11T08:38:53.95Z</time></trkpt><trkpt lat="42.3262806" lon="13.4952391"><ele>575.0</ele><time>2026-04-11T08:38:54.951Z</time></trkpt><trkpt lat="42.3262362" lon="13.4953875"><ele>575.0</ele><time>2026-04-11T08:38:55.95Z</time></trkpt><trkpt lat="42.3261953" lon="13.4955273"><ele>575.0</ele><time>2026-04-11T08:38:56.95Z</time></trkpt><trkpt lat="42.3261526" lon="13.4956685"><ele>575.0</ele><time>2026-04-11T08:38:57.95Z</time></trkpt><trkpt lat="42.3261124" lon="13.4958076"><ele>575.6</ele><time>2026-04-11T08:38:58.951Z</time></trkpt><trkpt lat="42.326075" lon="13.4959508"><ele>576.2</ele><time>2026-04-11T08:38:59.95Z</time></trkpt><trkpt lat="42.3260431" lon="13.4960935"><ele>576.8</ele><time>2026-04-11T08:39:00.951Z</time></trkpt><trkpt lat="42.3260111" lon="13.496227"><ele>577.4</ele><time>2026-04-11T08:39:01.951Z</time></trkpt><trkpt lat="42.325983" lon="13.4963559"><ele>578.0</ele><time>2026-04-11T08:39:02.951Z</time></trkpt><trkpt lat="42.3259581" lon="13.4964897"><ele>578.4</ele><time>2026-04-11T08:39:03.951Z</time></trkpt><trkpt lat="42.3259294" lon="13.4966256"><ele>578.8</ele><time>2026-04-11T08:39:04.951Z</time></trkpt><trkpt lat="42.3259005" lon="13.4967543"><ele>579.2</ele><time>2026-04-11T08:39:05.95Z</time></trkpt><trkpt lat="42.3258742" lon="13.4968781"><ele>579.6</ele><time>2026-04-11T08:39:06.951Z</time></trkpt><trkpt lat="42.3258372" lon="13.496982"><ele>580.0</ele><time>2026-04-11T08:39:07.95Z</time></trkpt><trkpt lat="42.3257979" lon="13.4970682"><ele>581.2</ele><time>2026-04-11T08:39:08.95Z</time></trkpt><trkpt lat="42.3257512" lon="13.4971633"><ele>582.4</ele><time>2026-04-11T08:39:09.951Z</time></trkpt><trkpt lat="42.3257119" lon="13.4972691"><ele>583.6</ele><time>2026-04-11T08:39:10.95Z</time></trkpt><trkpt lat="42.3256645" lon="13.4973759"><ele>584.8</ele><time>2026-04-11T08:39:11.951Z</time></trkpt><trkpt lat="42.3256212" lon="13.4974952"><ele>586.0</ele><time>2026-04-11T08:39:12.951Z</time></trkpt><trkpt lat="42.3255663" lon="13.4976196"><ele>585.25</ele><time>2026-04-11T08:39:13.951Z</time></trkpt><trkpt lat="42.3255085" lon="13.4977518"><ele>584.5</ele><time>2026-04-11T08:39:14.951Z</time></trkpt><trkpt lat="42.3254396" lon="13.4978913"><ele>583.75</ele><time>2026-04-11T08:39:15.951Z</time></trkpt><trkpt lat="42.3253569" lon="13.4980312"><ele>583.0</ele><time>2026-04-11T08:39:16.951Z</time></trkpt><trkpt lat="42.3252678" lon="13.4981588"><ele>583.0</ele><time>2026-04-11T08:39:17.951Z</time></trkpt><trkpt lat="42.325169" lon="13.4982893"><ele>583.0</ele><time>2026-04-11T08:39:18.951Z</time></trkpt><trkpt lat="42.325068" lon="13.4984184"><ele>583.0</ele><time>2026-04-11T08:39:19.951Z</time></trkpt><trkpt lat="42.3249596" lon="13.4985545"><ele>583.0</ele><time>2026-04-11T08:39:20.95Z</time></trkpt><trkpt lat="42.3248488" lon="13.4986841"><ele>583.25</ele><time>2026-04-11T08:39:21.951Z</time></trkpt><trkpt lat="42.3247506" lon="13.4988064"><ele>583.5</ele><time>2026-04-11T08:39:22.95Z</time></trkpt><trkpt lat="42.3246542" lon="13.4989186"><ele>583.75</ele><time>2026-04-11T08:39:23.951Z</time></trkpt><trkpt lat="42.3245652" lon="13.4990248"><ele>584.0</ele><time>2026-04-11T08:39:24.95Z</time></trkpt><trkpt lat="42.3244741" lon="13.4991319"><ele>584.0</ele><time>2026-04-11T08:39:25.951Z</time></trkpt><trkpt lat="42.3243891" lon="13.4992456"><ele>584.0</ele><time>2026-04-11T08:39:26.95Z</time></trkpt><trkpt lat="42.3242993" lon="13.4993612"><ele>584.0</ele><time>2026-04-11T08:39:27.951Z</time></trkpt><trkpt lat="42.3242018" lon="13.4994742"><ele>584.0</ele><time>2026-04-11T08:39:28.951Z</time></trkpt><trkpt lat="42.3241017" lon="13.4995897"><ele>583.75</ele><time>2026-04-11T08:39:29.951Z</time></trkpt><trkpt lat="42.3240013" lon="13.499709"><ele>583.5</ele><time>2026-04-11T08:39:30.951Z</time></trkpt><trkpt lat="42.3238962" lon="13.4998353"><ele>583.25</ele><time>2026-04-11T08:39:31.95Z</time></trkpt><trkpt lat="42.323787" lon="13.4999751"><ele>583.0</ele><time>2026-04-11T08:39:32.951Z</time></trkpt><trkpt lat="42.3236727" lon="13.500128"><ele>583.0</ele><time>2026-04-11T08:39:33.951Z</time></trkpt><trkpt lat="42.3235518" lon="13.5002965"><ele>583.0</ele><time>2026-04-11T08:39:34.95Z</time></trkpt><trkpt lat="42.3234353" lon="13.5004802"><ele>583.0</ele><time>2026-04-11T08:39:35.95Z</time></trkpt><trkpt lat="42.3233199" lon="13.5006736"><ele>583.6666666666667</ele><time>2026-04-11T08:39:36.951Z</time></trkpt><trkpt lat="42.3232097" lon="13.5008806"><ele>584.3333333333334</ele><time>2026-04-11T08:39:37.951Z</time></trkpt><trkpt lat="42.3230828" lon="13.5010916"><ele>585.0</ele><time>2026-04-11T08:39:38.951Z</time></trkpt><trkpt lat="42.3229484" lon="13.5013174"><ele>585.3333333333334</ele><time>2026-04-11T08:39:39.951Z</time></trkpt><trkpt lat="42.3228009" lon="13.5015417"><ele>585.6666666666667</ele><time>2026-04-11T08:39:40.951Z</time></trkpt><trkpt lat="42.3226444" lon="13.5017575"><ele>586.0</ele><time>2026-04-11T08:39:41.951Z</time></trkpt><trkpt lat="42.3224773" lon="13.5019632"><ele>586.3333333333334</ele><time>2026-04-11T08:39:42.951Z</time></trkpt><trkpt lat="42.3223062" lon="13.5021616"><ele>586.6666666666666</ele><time>2026-04-11T08:39:43.951Z</time></trkpt><trkpt lat="42.3221332" lon="13.5023543"><ele>587.0</ele><time>2026-04-11T08:39:44.951Z</time></trkpt><trkpt lat="42.3219578" lon="13.5025399"><ele>587.3333333333333</ele><time>2026-04-11T08:39:45.951Z</time></trkpt><trkpt lat="42.3217955" lon="13.5027129"><ele>587.6666666666666</ele><time>2026-04-11T08:39:46.95Z</time></trkpt><trkpt lat="42.3216353" lon="13.5028863"><ele>588.0</ele><time>2026-04-11T08:39:47.951Z</time></trkpt><trkpt lat="42.3214847" lon="13.5030512"><ele>587.0</ele><time>2026-04-11T08:39:48.951Z</time></trkpt><trkpt lat="42.3213348" lon="13.5032152"><ele>586.0</ele><time>2026-04-11T08:39:49.951Z</time></trkpt><trkpt lat="42.3211827" lon="13.5033781"><ele>585.0</ele><time>2026-04-11T08:39:50.951Z</time></trkpt><trkpt lat="42.3210337" lon="13.5035412"><ele>585.0</ele><time>2026-04-11T08:39:51.951Z</time></trkpt><trkpt lat="42.3208859" lon="13.5037033"><ele>585.0</ele><time>2026-04-11T08:39:52.95Z</time></trkpt><trkpt lat="42.3207419" lon="13.5038599"><ele>585.0</ele><time>2026-04-11T08:39:53.95Z</time></trkpt><trkpt lat="42.3205976" lon="13.5040123"><ele>584.6666666666666</ele><time>2026-04-11T08:39:54.95Z</time></trkpt><trkpt lat="42.3204573" lon="13.5041606"><ele>584.3333333333333</ele><time>2026-04-11T08:39:55.951Z</time></trkpt><trkpt lat="42.3203145" lon="13.5043048"><ele>584.0</ele><time>2026-04-11T08:39:56.95Z</time></trkpt><trkpt lat="42.3201754" lon="13.5044523"><ele>585.6666666666666</ele><time>2026-04-11T08:39:57.951Z</time></trkpt><trkpt lat="42.3200374" lon="13.5046063"><ele>587.3333333333334</ele><time>2026-04-11T08:39:58.95Z</time></trkpt><trkpt lat="42.3199094" lon="13.5047643"><ele>589.0</ele><time>2026-04-11T08:39:59.951Z</time></trkpt><trkpt lat="42.3197809" lon="13.504927"><ele>589.3333333333334</ele><time>2026-04-11T08:40:00.951Z</time></trkpt><trkpt lat="42.3196547" lon="13.5050944"><ele>589.6666666666666</ele><time>2026-04-11T08:40:01.951Z</time></trkpt><trkpt lat="42.3195296" lon="13.5052686"><ele>590.0</ele><time>2026-04-11T08:40:02.951Z</time></trkpt><trkpt lat="42.3194046" lon="13.5054489"><ele>590.0</ele><time>2026-04-11T08:40:03.951Z</time></trkpt><trkpt lat="42.3192927" lon="13.5056422"><ele>590.0</ele><time>2026-04-11T08:40:04.951Z</time></trkpt><trkpt lat="42.3191781" lon="13.5058353"><ele>590.0</ele><time>2026-04-11T08:40:05.951Z</time></trkpt><trkpt lat="42.3190678" lon="13.5060329"><ele>590.0</ele><time>2026-04-11T08:40:06.951Z</time></trkpt><trkpt lat="42.3189621" lon="13.5062432"><ele>590.0</ele><time>2026-04-11T08:40:07.951Z</time></trkpt><trkpt lat="42.318853" lon="13.5064459"><ele>590.0</ele><time>2026-04-11T08:40:08.951Z</time></trkpt><trkpt lat="42.3187402" lon="13.5066455"><ele>589.6666666666666</ele><time>2026-04-11T08:40:09.95Z</time></trkpt><trkpt lat="42.3186365" lon="13.5068452"><ele>589.3333333333334</ele><time>2026-04-11T08:40:10.951Z</time></trkpt><trkpt lat="42.3185358" lon="13.5070357"><ele>589.0</ele><time>2026-04-11T08:40:11.951Z</time></trkpt><trkpt lat="42.3184329" lon="13.5072291"><ele>590.3333333333334</ele><time>2026-04-11T08:40:12.951Z</time></trkpt><trkpt lat="42.318331" lon="13.5074235"><ele>591.6666666666666</ele><time>2026-04-11T08:40:13.951Z</time></trkpt><trkpt lat="42.3182303" lon="13.5076151"><ele>593.0</ele><time>2026-04-11T08:40:14.951Z</time></trkpt><trkpt lat="42.3181318" lon="13.507807"><ele>593.3333333333333</ele><time>2026-04-11T08:40:15.951Z</time></trkpt><trkpt lat="42.318038" lon="13.507992"><ele>593.6666666666666</ele><time>2026-04-11T08:40:16.951Z</time></trkpt><trkpt lat="42.3179398" lon="13.5081789"><ele>594.0</ele><time>2026-04-11T08:40:17.951Z</time></trkpt><trkpt lat="42.3178402" lon="13.5083642"><ele>594.0</ele><time>2026-04-11T08:40:18.951Z</time></trkpt><trkpt lat="42.317739" lon="13.5085493"><ele>594.0</ele><time>2026-04-11T08:40:19.95Z</time></trkpt><trkpt lat="42.3176321" lon="13.508738"><ele>594.0</ele><time>2026-04-11T08:40:20.95Z</time></trkpt><trkpt lat="42.3175262" lon="13.5089296"><ele>594.3333333333334</ele><time>2026-04-11T08:40:21.951Z</time></trkpt><trkpt lat="42.317411" lon="13.509123"><ele>594.6666666666667</ele><time>2026-04-11T08:40:22.951Z</time></trkpt><trkpt lat="42.3172747" lon="13.5093265"><ele>595.0</ele><time>2026-04-11T08:40:23.95Z</time></trkpt><trkpt lat="42.3171219" lon="13.509542"><ele>594.0</ele><time>2026-04-11T08:40:24.951Z</time></trkpt><trkpt lat="42.3169602" lon="13.5097652"><ele>593.0</ele><time>2026-04-11T08:40:25.951Z</time></trkpt><trkpt lat="42.316795" lon="13.5100055"><ele>593.0</ele><time>2026-04-11T08:40:26.951Z</time></trkpt><trkpt lat="42.3166238" lon="13.5102559"><ele>593.0</ele><time>2026-04-11T08:40:27.951Z</time></trkpt><trkpt lat="42.3164414" lon="13.5105212"><ele>593.0</ele><time>2026-04-11T08:40:28.95Z</time></trkpt><trkpt lat="42.3162589" lon="13.5107742"><ele>593.0</ele><time>2026-04-11T08:40:29.95Z</time></trkpt><trkpt lat="42.3160842" lon="13.5110141"><ele>593.0</ele><time>2026-04-11T08:40:30.951Z</time></trkpt><trkpt lat="42.3159159" lon="13.511239"><ele>593.0</ele><time>2026-04-11T08:40:31.951Z</time></trkpt><trkpt lat="42.315751" lon="13.5114573"><ele>593.3333333333333</ele><time>2026-04-11T08:40:32.951Z</time></trkpt><trkpt lat="42.3155934" lon="13.5116682"><ele>593.6666666666666</ele><time>2026-04-11T08:40:33.951Z</time></trkpt><trkpt lat="42.3154501" lon="13.5118746"><ele>594.0</ele><time>2026-04-11T08:40:34.951Z</time></trkpt><trkpt lat="42.3153111" lon="13.5120644"><ele>595.0</ele><time>2026-04-11T08:40:35.95Z</time></trkpt><trkpt lat="42.3151845" lon="13.5122308"><ele>596.0</ele><time>2026-04-11T08:40:36.951Z</time></trkpt><trkpt lat="42.3150663" lon="13.5123879"><ele>597.0</ele><time>2026-04-11T08:40:37.951Z</time></trkpt><trkpt lat="42.3149492" lon="13.5125307"><ele>597.0</ele><time>2026-04-11T08:40:38.951Z</time></trkpt><trkpt lat="42.3148346" lon="13.5126609"><ele>597.0</ele><time>2026-04-11T08:40:39.95Z</time></trkpt><trkpt lat="42.3147208" lon="13.5128032"><ele>597.0</ele><time>2026-04-11T08:40:40.951Z</time></trkpt><trkpt lat="42.3146015" lon="13.5129485"><ele>598.0</ele><time>2026-04-11T08:40:41.951Z</time></trkpt><trkpt lat="42.3144771" lon="13.5130933"><ele>599.0</ele><time>2026-04-11T08:40:42.951Z</time></trkpt><trkpt lat="42.314349" lon="13.5132425"><ele>600.0</ele><time>2026-04-11T08:40:43.951Z</time></trkpt><trkpt lat="42.31423" lon="13.5133887"><ele>600.0</ele><time>2026-04-11T08:40:44.951Z</time></trkpt><trkpt lat="42.3141105" lon="13.5135332"><ele>600.0</ele><time>2026-04-11T08:40:45.95Z</time></trkpt><trkpt lat="42.313994" lon="13.5136849"><ele>600.0</ele><time>2026-04-11T08:40:46.951Z</time></trkpt><trkpt lat="42.3138692" lon="13.5138339"><ele>600.6666666666666</ele><time>2026-04-11T08:40:47.95Z</time></trkpt><trkpt lat="42.3137462" lon="13.5139841"><ele>601.3333333333333</ele><time>2026-04-11T08:40:48.951Z</time></trkpt><trkpt lat="42.3136231" lon="13.514134"><ele>602.0</ele><time>2026-04-11T08:40:49.951Z</time></trkpt><trkpt lat="42.3134963" lon="13.5142812"><ele>602.0</ele><time>2026-04-11T08:40:50.951Z</time></trkpt><trkpt lat="42.313377" lon="13.5144255"><ele>602.0</ele><time>2026-04-11T08:40:51.951Z</time></trkpt><trkpt lat="42.3132535" lon="13.5145662"><ele>602.0</ele><time>2026-04-11T08:40:52.951Z</time></trkpt><trkpt lat="42.3131323" lon="13.514711"><ele>602.75</ele><time>2026-04-11T08:40:53.95Z</time></trkpt><trkpt lat="42.3130241" lon="13.5148527"><ele>603.5</ele><time>2026-04-11T08:40:54.951Z</time></trkpt><trkpt lat="42.3129207" lon="13.5149912"><ele>604.25</ele><time>2026-04-11T08:40:55.951Z</time></trkpt><trkpt lat="42.3128145" lon="13.5151303"><ele>605.0</ele><time>2026-04-11T08:40:56.95Z</time></trkpt><trkpt lat="42.3127049" lon="13.5152657"><ele>605.0</ele><time>2026-04-11T08:40:57.951Z</time></trkpt><trkpt lat="42.3125933" lon="13.515402"><ele>605.0</ele><time>2026-04-11T08:40:58.951Z</time></trkpt><trkpt lat="42.3124748" lon="13.5155321"><ele>605.0</ele><time>2026-04-11T08:40:59.951Z</time></trkpt><trkpt lat="42.3123527" lon="13.5156627"><ele>602.0</ele><time>2026-04-11T08:41:00.951Z</time></trkpt><trkpt lat="42.3122196" lon="13.5157842"><ele>599.0</ele><time>2026-04-11T08:41:01.951Z</time></trkpt><trkpt lat="42.3120718" lon="13.5158931"><ele>596.0</ele><time>2026-04-11T08:41:02.951Z</time></trkpt><trkpt lat="42.3119197" lon="13.5159809"><ele>596.0</ele><time>2026-04-11T08:41:03.951Z</time></trkpt><trkpt lat="42.3117658" lon="13.5160591"><ele>596.0</ele><time>2026-04-11T08:41:04.951Z</time></trkpt><trkpt lat="42.3116096" lon="13.5161402"><ele>596.0</ele><time>2026-04-11T08:41:05.951Z</time></trkpt><trkpt lat="42.3114484" lon="13.516219"><ele>595.6666666666666</ele><time>2026-04-11T08:41:06.951Z</time></trkpt><trkpt lat="42.3112839" lon="13.516301"><ele>595.3333333333334</ele><time>2026-04-11T08:41:07.95Z</time></trkpt><trkpt lat="42.3111224" lon="13.5163822"><ele>595.0</ele><time>2026-04-11T08:41:08.951Z</time></trkpt><trkpt lat="42.3109583" lon="13.5164615"><ele>595.0</ele><time>2026-04-11T08:41:09.951Z</time></trkpt><trkpt lat="42.3107898" lon="13.5165434"><ele>595.0</ele><time>2026-04-11T08:41:10.95Z</time></trkpt><trkpt lat="42.31061" lon="13.5166277"><ele>595.0</ele><time>2026-04-11T08:41:11.951Z</time></trkpt><trkpt lat="42.3104334" lon="13.516712"><ele>595.6666666666667</ele><time>2026-04-11T08:41:12.95Z</time></trkpt><trkpt lat="42.3102527" lon="13.5167975"><ele>596.3333333333334</ele><time>2026-04-11T08:41:13.951Z</time></trkpt><trkpt lat="42.3100706" lon="13.5168811"><ele>597.0</ele><time>2026-04-11T08:41:14.951Z</time></trkpt><trkpt lat="42.3098888" lon="13.516962"><ele>596.0</ele><time>2026-04-11T08:41:15.951Z</time></trkpt><trkpt lat="42.3097068" lon="13.5170532"><ele>595.0</ele><time>2026-04-11T08:41:16.951Z</time></trkpt><trkpt lat="42.3095207" lon="13.5171369"><ele>594.0</ele><time>2026-04-11T08:41:17.95Z</time></trkpt><trkpt lat="42.309336" lon="13.5172269"><ele>594.0</ele><time>2026-04-11T08:41:18.951Z</time></trkpt><trkpt lat="42.3091421" lon="13.517316"><ele>594.0</ele><time>2026-04-11T08:41:19.95Z</time></trkpt><trkpt lat="42.3089466" lon="13.5174068"><ele>594.0</ele><time>2026-04-11T08:41:20.951Z</time></trkpt><trkpt lat="42.3087472" lon="13.5174965"><ele>592.6666666666666</ele><time>2026-04-11T08:41:21.951Z</time></trkpt><trkpt lat="42.3085481" lon="13.5175853"><ele>591.3333333333333</ele><time>2026-04-11T08:41:22.95Z</time></trkpt><trkpt lat="42.3083445" lon="13.5176752"><ele>590.0</ele><time>2026-04-11T08:41:23.95Z</time></trkpt><trkpt lat="42.3081409" lon="13.5177712"><ele>588.6666666666666</ele><time>2026-04-11T08:41:24.951Z</time></trkpt><trkpt lat="42.3079398" lon="13.5178695"><ele>587.3333333333334</ele><time>2026-04-11T08:41:25.95Z</time></trkpt><trkpt lat="42.3077433" lon="13.5179889"><ele>586.0</ele><time>2026-04-11T08:41:26.951Z</time></trkpt><trkpt lat="42.3075582" lon="13.5181448"><ele>585.6666666666667</ele><time>2026-04-11T08:41:27.951Z</time></trkpt><trkpt lat="42.3073749" lon="13.5183158"><ele>585.3333333333334</ele><time>2026-04-11T08:41:28.951Z</time></trkpt><trkpt lat="42.3071919" lon="13.5184807"><ele>585.0</ele><time>2026-04-11T08:41:29.951Z</time></trkpt><trkpt lat="42.3070127" lon="13.5186495"><ele>584.3333333333334</ele><time>2026-04-11T08:41:30.951Z</time></trkpt><trkpt lat="42.3068324" lon="13.5188197"><ele>583.6666666666667</ele><time>2026-04-11T08:41:31.951Z</time></trkpt><trkpt lat="42.3066597" lon="13.5189803"><ele>583.0</ele><time>2026-04-11T08:41:32.95Z</time></trkpt><trkpt lat="42.3064955" lon="13.5191342"><ele>582.6666666666667</ele><time>2026-04-11T08:41:33.951Z</time></trkpt><trkpt lat="42.3063365" lon="13.5192879"><ele>582.3333333333334</ele><time>2026-04-11T08:41:34.95Z</time></trkpt><trkpt lat="42.3061723" lon="13.519436"><ele>582.0</ele><time>2026-04-11T08:41:35.95Z</time></trkpt><trkpt lat="42.3060135" lon="13.5195891"><ele>581.6666666666666</ele><time>2026-04-11T08:41:36.951Z</time></trkpt><trkpt lat="42.3058498" lon="13.5197394"><ele>581.3333333333333</ele><time>2026-04-11T08:41:37.951Z</time></trkpt><trkpt lat="42.3056869" lon="13.5198977"><ele>581.0</ele><time>2026-04-11T08:41:38.951Z</time></trkpt><trkpt lat="42.3055204" lon="13.520056"><ele>579.6666666666666</ele><time>2026-04-11T08:41:39.951Z</time></trkpt><trkpt lat="42.3053552" lon="13.5202126"><ele>578.3333333333334</ele><time>2026-04-11T08:41:40.951Z</time></trkpt><trkpt lat="42.305188" lon="13.5203689"><ele>577.0</ele><time>2026-04-11T08:41:41.951Z</time></trkpt><trkpt lat="42.3050255" lon="13.5205261"><ele>577.0</ele><time>2026-04-11T08:41:42.95Z</time></trkpt><trkpt lat="42.3048585" lon="13.520684"><ele>577.0</ele><time>2026-04-11T08:41:43.95Z</time></trkpt><trkpt lat="42.3046876" lon="13.5208447"><ele>577.0</ele><time>2026-04-11T08:41:44.951Z</time></trkpt><trkpt lat="42.3045016" lon="13.521031"><ele>576.0</ele><time>2026-04-11T08:41:45.951Z</time></trkpt><trkpt lat="42.3043056" lon="13.5212161"><ele>575.0</ele><time>2026-04-11T08:41:46.951Z</time></trkpt><trkpt lat="42.3041042" lon="13.5214219"><ele>574.0</ele><time>2026-04-11T08:41:47.951Z</time></trkpt><trkpt lat="42.3038857" lon="13.5216416"><ele>573.0</ele><time>2026-04-11T08:41:48.95Z</time></trkpt><trkpt lat="42.3036479" lon="13.5218464"><ele>573.0</ele><time>2026-04-11T08:41:49.95Z</time></trkpt><trkpt lat="42.303425" lon="13.5220539"><ele>573.0</ele><time>2026-04-11T08:41:50.951Z</time></trkpt><trkpt lat="42.3032091" lon="13.5222599"><ele>571.0</ele><time>2026-04-11T08:41:51.95Z</time></trkpt><trkpt lat="42.3029903" lon="13.5224594"><ele>569.0</ele><time>2026-04-11T08:41:52.951Z</time></trkpt><trkpt lat="42.3027687" lon="13.5226689"><ele>569.0</ele><time>2026-04-11T08:41:53.951Z</time></trkpt><trkpt lat="42.3025437" lon="13.5228823"><ele>569.0</ele><time>2026-04-11T08:41:54.951Z</time></trkpt><trkpt lat="42.3023208" lon="13.5230907"><ele>569.0</ele><time>2026-04-11T08:41:55.951Z</time></trkpt><trkpt lat="42.3021031" lon="13.5233024"><ele>569.0</ele><time>2026-04-11T08:41:56.951Z</time></trkpt><trkpt lat="42.3018925" lon="13.5235122"><ele>568.0</ele><time>2026-04-11T08:41:57.95Z</time></trkpt><trkpt lat="42.3016855" lon="13.523736"><ele>567.0</ele><time>2026-04-11T08:41:58.95Z</time></trkpt><trkpt lat="42.3014983" lon="13.5239825"><ele>566.0</ele><time>2026-04-11T08:41:59.951Z</time></trkpt><trkpt lat="42.3013248" lon="13.5242785"><ele>565.0</ele><time>2026-04-11T08:42:00.95Z</time></trkpt><trkpt lat="42.3011555" lon="13.5245819"><ele>565.0</ele><time>2026-04-11T08:42:01.951Z</time></trkpt><trkpt lat="42.3009944" lon="13.5248807"><ele>565.0</ele><time>2026-04-11T08:42:02.951Z</time></trkpt><trkpt lat="42.300838" lon="13.5251771"><ele>564.5</ele><time>2026-04-11T08:42:03.951Z</time></trkpt><trkpt lat="42.3006882" lon="13.525466"><ele>564.0</ele><time>2026-04-11T08:42:04.951Z</time></trkpt><trkpt lat="42.3005399" lon="13.5257509"><ele>564.0</ele><time>2026-04-11T08:42:05.95Z</time></trkpt><trkpt lat="42.3003936" lon="13.5260255"><ele>564.0</ele><time>2026-04-11T08:42:06.95Z</time></trkpt><trkpt lat="42.3002477" lon="13.526291"><ele>564.5</ele><time>2026-04-11T08:42:07.951Z</time></trkpt><trkpt lat="42.3001076" lon="13.5265549"><ele>565.0</ele><time>2026-04-11T08:42:08.951Z</time></trkpt><trkpt lat="42.2999723" lon="13.5268244"><ele>565.5</ele><time>2026-04-11T08:42:09.951Z</time></trkpt><trkpt lat="42.2998283" lon="13.5270872"><ele>566.0</ele><time>2026-04-11T08:42:10.951Z</time></trkpt><trkpt lat="42.2996857" lon="13.5273491"><ele>566.0</ele><time>2026-04-11T08:42:11.95Z</time></trkpt><trkpt lat="42.2995395" lon="13.5276252"><ele>566.0</ele><time>2026-04-11T08:42:12.951Z</time></trkpt><trkpt lat="42.2993907" lon="13.5279005"><ele>566.0</ele><time>2026-04-11T08:42:13.951Z</time></trkpt><trkpt lat="42.29924" lon="13.5281844"><ele>566.0</ele><time>2026-04-11T08:42:14.95Z</time></trkpt><trkpt lat="42.2990886" lon="13.5284745"><ele>566.5</ele><time>2026-04-11T08:42:15.95Z</time></trkpt><trkpt lat="42.2989344" lon="13.5287617"><ele>567.0</ele><time>2026-04-11T08:42:16.95Z</time></trkpt><trkpt lat="42.2987841" lon="13.5290492"><ele>567.0</ele><time>2026-04-11T08:42:17.951Z</time></trkpt><trkpt lat="42.2986352" lon="13.5293319"><ele>567.0</ele><time>2026-04-11T08:42:18.951Z</time></trkpt><trkpt lat="42.2984865" lon="13.5296128"><ele>566.0</ele><time>2026-04-11T08:42:19.951Z</time></trkpt><trkpt lat="42.2983397" lon="13.5298936"><ele>565.0</ele><time>2026-04-11T08:42:20.951Z</time></trkpt><trkpt lat="42.2981932" lon="13.5301729"><ele>565.5</ele><time>2026-04-11T08:42:21.951Z</time></trkpt><trkpt lat="42.2980473" lon="13.5304537"><ele>566.0</ele><time>2026-04-11T08:42:22.951Z</time></trkpt><trkpt lat="42.2979023" lon="13.530736"><ele>566.0</ele><time>2026-04-11T08:42:23.951Z</time></trkpt><trkpt lat="42.2977581" lon="13.5310066"><ele>566.0</ele><time>2026-04-11T08:42:24.951Z</time></trkpt><trkpt lat="42.297616" lon="13.531271"><ele>566.0</ele><time>2026-04-11T08:42:25.951Z</time></trkpt><trkpt lat="42.2974773" lon="13.5315334"><ele>566.0</ele><time>2026-04-11T08:42:26.951Z</time></trkpt><trkpt lat="42.2973388" lon="13.5317937"><ele>568.5</ele><time>2026-04-11T08:42:27.951Z</time></trkpt><trkpt lat="42.2972011" lon="13.5320518"><ele>571.0</ele><time>2026-04-11T08:42:28.951Z</time></trkpt><trkpt lat="42.2970675" lon="13.5323039"><ele>571.5</ele><time>2026-04-11T08:42:29.95Z</time></trkpt><trkpt lat="42.2969298" lon="13.5325613"><ele>572.0</ele><time>2026-04-11T08:42:30.951Z</time></trkpt><trkpt lat="42.296794" lon="13.5328175"><ele>571.5</ele><time>2026-04-11T08:42:31.951Z</time></trkpt><trkpt lat="42.296657" lon="13.5330792"><ele>571.0</ele><time>2026-04-11T08:42:32.951Z</time></trkpt><trkpt lat="42.2965234" lon="13.5333359"><ele>571.5</ele><time>2026-04-11T08:42:33.95Z</time></trkpt><trkpt lat="42.2963932" lon="13.5335959"><ele>572.0</ele><time>2026-04-11T08:42:34.951Z</time></trkpt><trkpt lat="42.2962726" lon="13.5338555"><ele>572.0</ele><time>2026-04-11T08:42:35.951Z</time></trkpt><trkpt lat="42.2961595" lon="13.5341133"><ele>572.0</ele><time>2026-04-11T08:42:36.951Z</time></trkpt><trkpt lat="42.2960547" lon="13.534368"><ele>572.0</ele><time>2026-04-11T08:42:37.951Z</time></trkpt><trkpt lat="42.2959497" lon="13.5346096"><ele>572.3333333333333</ele><time>2026-04-11T08:42:38.951Z</time></trkpt><trkpt lat="42.2958473" lon="13.5348505"><ele>572.6666666666666</ele><time>2026-04-11T08:42:39.95Z</time></trkpt><trkpt lat="42.2957407" lon="13.5350926"><ele>573.0</ele><time>2026-04-11T08:42:40.951Z</time></trkpt><trkpt lat="42.2956344" lon="13.5353402"><ele>573.0</ele><time>2026-04-11T08:42:41.95Z</time></trkpt><trkpt lat="42.2955291" lon="13.535589"><ele>573.0</ele><time>2026-04-11T08:42:42.951Z</time></trkpt><trkpt lat="42.2954268" lon="13.5358369"><ele>573.0</ele><time>2026-04-11T08:42:43.951Z</time></trkpt><trkpt lat="42.2953276" lon="13.5360692"><ele>574.0</ele><time>2026-04-11T08:42:44.951Z</time></trkpt><trkpt lat="42.2952315" lon="13.5362869"><ele>575.0</ele><time>2026-04-11T08:42:45.95Z</time></trkpt><trkpt lat="42.2951436" lon="13.5364971"><ele>576.0</ele><time>2026-04-11T08:42:46.951Z</time></trkpt><trkpt lat="42.2950597" lon="13.5366919"><ele>576.0</ele><time>2026-04-11T08:42:47.951Z</time></trkpt><trkpt lat="42.2949829" lon="13.5368763"><ele>576.0</ele><time>2026-04-11T08:42:48.95Z</time></trkpt><trkpt lat="42.2949076" lon="13.5370538"><ele>576.0</ele><time>2026-04-11T08:42:49.951Z</time></trkpt><trkpt lat="42.2948341" lon="13.5372313"><ele>576.3333333333334</ele><time>2026-04-11T08:42:50.951Z</time></trkpt><trkpt lat="42.2947599" lon="13.5374118"><ele>576.6666666666667</ele><time>2026-04-11T08:42:51.951Z</time></trkpt><trkpt lat="42.2946853" lon="13.5375949"><ele>577.0</ele><time>2026-04-11T08:42:52.951Z</time></trkpt><trkpt lat="42.2946154" lon="13.5377763"><ele>577.3333333333334</ele><time>2026-04-11T08:42:53.951Z</time></trkpt><trkpt lat="42.2945375" lon="13.5379566"><ele>577.6666666666666</ele><time>2026-04-11T08:42:54.95Z</time></trkpt><trkpt lat="42.2944423" lon="13.5381323"><ele>578.0</ele><time>2026-04-11T08:42:55.951Z</time></trkpt><trkpt lat="42.2943588" lon="13.5383341"><ele>578.0</ele><time>2026-04-11T08:42:56.95Z</time></trkpt><trkpt lat="42.2942656" lon="13.5385536"><ele>578.0</ele><time>2026-04-11T08:42:57.951Z</time></trkpt><trkpt lat="42.2941664" lon="13.5387795"><ele>578.0</ele><time>2026-04-11T08:42:58.951Z</time></trkpt><trkpt lat="42.2940634" lon="13.5390221"><ele>578.0</ele><time>2026-04-11T08:42:59.95Z</time></trkpt><trkpt lat="42.2939548" lon="13.5392732"><ele>578.0</ele><time>2026-04-11T08:43:00.95Z</time></trkpt><trkpt lat="42.2938411" lon="13.5395419"><ele>578.0</ele><time>2026-04-11T08:43:01.95Z</time></trkpt><trkpt lat="42.293725" lon="13.5398105"><ele>580.0</ele><time>2026-04-11T08:43:02.951Z</time></trkpt><trkpt lat="42.2936084" lon="13.5400763"><ele>582.0</ele><time>2026-04-11T08:43:03.951Z</time></trkpt><trkpt lat="42.2934909" lon="13.5403421"><ele>583.3333333333334</ele><time>2026-04-11T08:43:04.951Z</time></trkpt><trkpt lat="42.2933737" lon="13.5405999"><ele>584.6666666666667</ele><time>2026-04-11T08:43:05.951Z</time></trkpt><trkpt lat="42.2932617" lon="13.5408628"><ele>586.0</ele><time>2026-04-11T08:43:06.951Z</time></trkpt><trkpt lat="42.293155" lon="13.5411213"><ele>585.5</ele><time>2026-04-11T08:43:07.95Z</time></trkpt><trkpt lat="42.2930455" lon="13.5413853"><ele>585.0</ele><time>2026-04-11T08:43:08.951Z</time></trkpt><trkpt lat="42.2929306" lon="13.5416491"><ele>585.0</ele><time>2026-04-11T08:43:09.951Z</time></trkpt><trkpt lat="42.2928188" lon="13.5419171"><ele>585.0</ele><time>2026-04-11T08:43:10.951Z</time></trkpt><trkpt lat="42.2927052" lon="13.5421906"><ele>586.5</ele><time>2026-04-11T08:43:11.951Z</time></trkpt><trkpt lat="42.2925925" lon="13.5424615"><ele>588.0</ele><time>2026-04-11T08:43:12.951Z</time></trkpt><trkpt lat="42.2924787" lon="13.5427366"><ele>589.0</ele><time>2026-04-11T08:43:13.95Z</time></trkpt><trkpt lat="42.2923623" lon="13.5430123"><ele>590.0</ele><time>2026-04-11T08:43:14.95Z</time></trkpt><trkpt lat="42.2922449" lon="13.5432895"><ele>588.5</ele><time>2026-04-11T08:43:15.951Z</time></trkpt><trkpt lat="42.2921271" lon="13.5435786"><ele>587.0</ele><time>2026-04-11T08:43:16.95Z</time></trkpt><trkpt lat="42.2920003" lon="13.54388"><ele>587.0</ele><time>2026-04-11T08:43:17.95Z</time></trkpt><trkpt lat="42.2918654" lon="13.544189"><ele>587.0</ele><time>2026-04-11T08:43:18.95Z</time></trkpt><trkpt lat="42.2917281" lon="13.5445019"><ele>588.0</ele><time>2026-04-11T08:43:19.95Z</time></trkpt><trkpt lat="42.2915932" lon="13.5448206"><ele>589.0</ele><time>2026-04-11T08:43:20.951Z</time></trkpt><trkpt lat="42.2914615" lon="13.5451328"><ele>591.5</ele><time>2026-04-11T08:43:21.95Z</time></trkpt><trkpt lat="42.2913296" lon="13.5454416"><ele>594.0</ele><time>2026-04-11T08:43:22.951Z</time></trkpt><trkpt lat="42.2911987" lon="13.5457411"><ele>594.0</ele><time>2026-04-11T08:43:23.951Z</time></trkpt><trkpt lat="42.2910688" lon="13.546039"><ele>594.0</ele><time>2026-04-11T08:43:24.95Z</time></trkpt><trkpt lat="42.2909434" lon="13.5463233"><ele>594.6666666666666</ele><time>2026-04-11T08:43:25.951Z</time></trkpt><trkpt lat="42.2908256" lon="13.5465889"><ele>595.3333333333333</ele><time>2026-04-11T08:43:26.951Z</time></trkpt><trkpt lat="42.2907143" lon="13.5468454"><ele>596.0</ele><time>2026-04-11T08:43:27.951Z</time></trkpt><trkpt lat="42.2906058" lon="13.547103"><ele>596.3333333333333</ele><time>2026-04-11T08:43:28.95Z</time></trkpt><trkpt lat="42.2904962" lon="13.5473605"><ele>596.6666666666666</ele><time>2026-04-11T08:43:29.95Z</time></trkpt><trkpt lat="42.2903849" lon="13.5476146"><ele>597.0</ele><time>2026-04-11T08:43:30.95Z</time></trkpt><trkpt lat="42.2902737" lon="13.5478778"><ele>599.0</ele><time>2026-04-11T08:43:31.951Z</time></trkpt><trkpt lat="42.2901565" lon="13.5481491"><ele>601.0</ele><time>2026-04-11T08:43:32.951Z</time></trkpt><trkpt lat="42.2900366" lon="13.5484311"><ele>602.5</ele><time>2026-04-11T08:43:33.951Z</time></trkpt><trkpt lat="42.2899126" lon="13.5487227"><ele>604.0</ele><time>2026-04-11T08:43:34.95Z</time></trkpt><trkpt lat="42.2897838" lon="13.5490239"><ele>603.5</ele><time>2026-04-11T08:43:35.95Z</time></trkpt><trkpt lat="42.2896538" lon="13.5493255"><ele>603.0</ele><time>2026-04-11T08:43:36.951Z</time></trkpt><trkpt lat="42.2895209" lon="13.5496208"><ele>604.5</ele><time>2026-04-11T08:43:37.95Z</time></trkpt><trkpt lat="42.2893944" lon="13.5499161"><ele>606.0</ele><time>2026-04-11T08:43:38.951Z</time></trkpt><trkpt lat="42.2892729" lon="13.5502091"><ele>608.0</ele><time>2026-04-11T08:43:39.951Z</time></trkpt><trkpt lat="42.2891539" lon="13.550492"><ele>610.0</ele><time>2026-04-11T08:43:40.951Z</time></trkpt><trkpt lat="42.2890391" lon="13.550763"><ele>610.0</ele><time>2026-04-11T08:43:41.95Z</time></trkpt><trkpt lat="42.288933" lon="13.5510206"><ele>610.0</ele><time>2026-04-11T08:43:42.95Z</time></trkpt><trkpt lat="42.2888245" lon="13.5512612"><ele>610.0</ele><time>2026-04-11T08:43:43.951Z</time></trkpt><trkpt lat="42.2887095" lon="13.5514756"><ele>611.3333333333334</ele><time>2026-04-11T08:43:44.951Z</time></trkpt><trkpt lat="42.2885918" lon="13.5516674"><ele>612.6666666666666</ele><time>2026-04-11T08:43:45.95Z</time></trkpt><trkpt lat="42.2884672" lon="13.5518382"><ele>614.0</ele><time>2026-04-11T08:43:46.95Z</time></trkpt><trkpt lat="42.2883511" lon="13.5520107"><ele>614.6666666666666</ele><time>2026-04-11T08:43:47.951Z</time></trkpt><trkpt lat="42.2882401" lon="13.5521776"><ele>615.3333333333334</ele><time>2026-04-11T08:43:48.95Z</time></trkpt><trkpt lat="42.2881223" lon="13.5523393"><ele>616.0</ele><time>2026-04-11T08:43:49.951Z</time></trkpt><trkpt lat="42.2880063" lon="13.5525058"><ele>616.0</ele><time>2026-04-11T08:43:50.951Z</time></trkpt><trkpt lat="42.2878901" lon="13.5526804"><ele>616.0</ele><time>2026-04-11T08:43:51.951Z</time></trkpt><trkpt lat="42.2877726" lon="13.5528473"><ele>616.0</ele><time>2026-04-11T08:43:52.951Z</time></trkpt><trkpt lat="42.2876535" lon="13.5530246"><ele>616.6666666666667</ele><time>2026-04-11T08:43:53.951Z</time></trkpt><trkpt lat="42.287529" lon="13.5532045"><ele>617.3333333333334</ele><time>2026-04-11T08:43:54.951Z</time></trkpt><trkpt lat="42.2874002" lon="13.5533961"><ele>618.0</ele><time>2026-04-11T08:43:55.951Z</time></trkpt><trkpt lat="42.2872682" lon="13.553591"><ele>617.3333333333334</ele><time>2026-04-11T08:43:56.951Z</time></trkpt><trkpt lat="42.2871372" lon="13.5537809"><ele>616.6666666666667</ele><time>2026-04-11T08:43:57.951Z</time></trkpt><trkpt lat="42.2870072" lon="13.5539701"><ele>616.0</ele><time>2026-04-11T08:43:58.951Z</time></trkpt><trkpt lat="42.2868838" lon="13.5541553"><ele>616.0</ele><time>2026-04-11T08:43:59.951Z</time></trkpt><trkpt lat="42.2867603" lon="13.5543371"><ele>616.0</ele><time>2026-04-11T08:44:00.951Z</time></trkpt><trkpt lat="42.2866332" lon="13.5544986"><ele>616.0</ele><time>2026-04-11T08:44:01.951Z</time></trkpt><trkpt lat="42.2864892" lon="13.5546447"><ele>616.6666666666667</ele><time>2026-04-11T08:44:02.951Z</time></trkpt><trkpt lat="42.2863194" lon="13.5547675"><ele>617.3333333333334</ele><time>2026-04-11T08:44:03.951Z</time></trkpt><trkpt lat="42.286132" lon="13.5548626"><ele>618.0</ele><time>2026-04-11T08:44:04.951Z</time></trkpt><trkpt lat="42.285936" lon="13.554938"><ele>618.0</ele><time>2026-04-11T08:44:05.95Z</time></trkpt><trkpt lat="42.2857337" lon="13.5550037"><ele>618.0</ele><time>2026-04-11T08:44:06.951Z</time></trkpt><trkpt lat="42.2855246" lon="13.5550621"><ele>618.0</ele><time>2026-04-11T08:44:07.951Z</time></trkpt><trkpt lat="42.2853183" lon="13.5551173"><ele>617.0</ele><time>2026-04-11T08:44:08.951Z</time></trkpt><trkpt lat="42.2851178" lon="13.5551784"><ele>616.0</ele><time>2026-04-11T08:44:09.95Z</time></trkpt><trkpt lat="42.2849191" lon="13.5552417"><ele>615.0</ele><time>2026-04-11T08:44:10.951Z</time></trkpt><trkpt lat="42.2847247" lon="13.5552996"><ele>614.3333333333334</ele><time>2026-04-11T08:44:11.951Z</time></trkpt><trkpt lat="42.284522" lon="13.5553597"><ele>613.6666666666667</ele><time>2026-04-11T08:44:12.95Z</time></trkpt><trkpt lat="42.284332" lon="13.5553968"><ele>613.0</ele><time>2026-04-11T08:44:13.95Z</time></trkpt><trkpt lat="42.2841411" lon="13.5554201"><ele>613.6666666666667</ele><time>2026-04-11T08:44:14.951Z</time></trkpt><trkpt lat="42.2839339" lon="13.5554169"><ele>614.3333333333334</ele><time>2026-04-11T08:44:15.951Z</time></trkpt><trkpt lat="42.2837254" lon="13.5554056"><ele>615.0</ele><time>2026-04-11T08:44:16.951Z</time></trkpt><trkpt lat="42.2835158" lon="13.5553647"><ele>615.0</ele><time>2026-04-11T08:44:17.951Z</time></trkpt><trkpt lat="42.283307" lon="13.5553209"><ele>615.0</ele><time>2026-04-11T08:44:18.95Z</time></trkpt><trkpt lat="42.2831046" lon="13.5552794"><ele>615.0</ele><time>2026-04-11T08:44:19.95Z</time></trkpt><trkpt lat="42.2829013" lon="13.5552504"><ele>614.6666666666666</ele><time>2026-04-11T08:44:20.951Z</time></trkpt><trkpt lat="42.2826969" lon="13.5552233"><ele>614.3333333333333</ele><time>2026-04-11T08:44:21.951Z</time></trkpt><trkpt lat="42.2825049" lon="13.5552164"><ele>614.0</ele><time>2026-04-11T08:44:22.951Z</time></trkpt><trkpt lat="42.2823106" lon="13.5552524"><ele>614.3333333333333</ele><time>2026-04-11T08:44:23.95Z</time></trkpt><trkpt lat="42.2821212" lon="13.5553271"><ele>614.6666666666666</ele><time>2026-04-11T08:44:24.951Z</time></trkpt><trkpt lat="42.281938" lon="13.5554444"><ele>615.0</ele><time>2026-04-11T08:44:25.95Z</time></trkpt><trkpt lat="42.2817662" lon="13.5555925"><ele>615.0</ele><time>2026-04-11T08:44:26.951Z</time></trkpt><trkpt lat="42.2816066" lon="13.5557631"><ele>615.0</ele><time>2026-04-11T08:44:27.951Z</time></trkpt><trkpt lat="42.28146" lon="13.5559647"><ele>615.0</ele><time>2026-04-11T08:44:28.951Z</time></trkpt><trkpt lat="42.2813355" lon="13.5562037"><ele>612.0</ele><time>2026-04-11T08:44:29.951Z</time></trkpt><trkpt lat="42.2812351" lon="13.5564829"><ele>609.0</ele><time>2026-04-11T08:44:30.95Z</time></trkpt><trkpt lat="42.281166" lon="13.5568021"><ele>609.6666666666666</ele><time>2026-04-11T08:44:31.951Z</time></trkpt><trkpt lat="42.2811074" lon="13.5571072"><ele>610.3333333333333</ele><time>2026-04-11T08:44:32.951Z</time></trkpt><trkpt lat="42.2810566" lon="13.5573894"><ele>611.0</ele><time>2026-04-11T08:44:33.951Z</time></trkpt><trkpt lat="42.2810083" lon="13.5576332"><ele>611.0</ele><time>2026-04-11T08:44:34.951Z</time></trkpt><trkpt lat="42.2809613" lon="13.5578547"><ele>611.0</ele><time>2026-04-11T08:44:35.951Z</time></trkpt><trkpt lat="42.280922" lon="13.5580625"><ele>611.0</ele><time>2026-04-11T08:44:36.951Z</time></trkpt><trkpt lat="42.2808802" lon="13.5582563"><ele>610.75</ele><time>2026-04-11T08:44:37.95Z</time></trkpt><trkpt lat="42.2808155" lon="13.5584264"><ele>610.5</ele><time>2026-04-11T08:44:38.95Z</time></trkpt><trkpt lat="42.2807207" lon="13.5585638"><ele>610.25</ele><time>2026-04-11T08:44:39.951Z</time></trkpt><trkpt lat="42.2805883" lon="13.5586573"><ele>610.0</ele><time>2026-04-11T08:44:40.95Z</time></trkpt><trkpt lat="42.2804382" lon="13.5587121"><ele>610.0</ele><time>2026-04-11T08:44:41.951Z</time></trkpt><trkpt lat="42.2802799" lon="13.5587549"><ele>610.0</ele><time>2026-04-11T08:44:42.95Z</time></trkpt><trkpt lat="42.2801198" lon="13.5587657"><ele>610.0</ele><time>2026-04-11T08:44:43.951Z</time></trkpt><trkpt lat="42.2799554" lon="13.5587842"><ele>610.0</ele><time>2026-04-11T08:44:44.95Z</time></trkpt><trkpt lat="42.279792" lon="13.5588033"><ele>610.0</ele><time>2026-04-11T08:44:45.951Z</time></trkpt><trkpt lat="42.2796274" lon="13.5588201"><ele>610.0</ele><time>2026-04-11T08:44:46.951Z</time></trkpt><trkpt lat="42.2794605" lon="13.5588355"><ele>611.0</ele><time>2026-04-11T08:44:47.951Z</time></trkpt><trkpt lat="42.2792829" lon="13.5588496"><ele>612.0</ele><time>2026-04-11T08:44:48.951Z</time></trkpt><trkpt lat="42.2790992" lon="13.5588525"><ele>613.0</ele><time>2026-04-11T08:44:49.951Z</time></trkpt><trkpt lat="42.2789122" lon="13.5588537"><ele>613.0</ele><time>2026-04-11T08:44:50.951Z</time></trkpt><trkpt lat="42.2787277" lon="13.5588576"><ele>613.0</ele><time>2026-04-11T08:44:51.95Z</time></trkpt><trkpt lat="42.278543" lon="13.5588553"><ele>613.0</ele><time>2026-04-11T08:44:52.951Z</time></trkpt><trkpt lat="42.2783564" lon="13.5588429"><ele>613.0</ele><time>2026-04-11T08:44:53.951Z</time></trkpt><trkpt lat="42.2781718" lon="13.558825"><ele>613.0</ele><time>2026-04-11T08:44:54.951Z</time></trkpt><trkpt lat="42.2779905" lon="13.5588026"><ele>613.0</ele><time>2026-04-11T08:44:55.951Z</time></trkpt><trkpt lat="42.2778093" lon="13.5587823"><ele>612.0</ele><time>2026-04-11T08:44:56.951Z</time></trkpt><trkpt lat="42.2776309" lon="13.5587695"><ele>611.0</ele><time>2026-04-11T08:44:57.951Z</time></trkpt><trkpt lat="42.2774556" lon="13.5587511"><ele>610.0</ele><time>2026-04-11T08:44:58.951Z</time></trkpt><trkpt lat="42.277278" lon="13.5587297"><ele>610.3333333333334</ele><time>2026-04-11T08:44:59.95Z</time></trkpt><trkpt lat="42.2771085" lon="13.5587155"><ele>610.6666666666666</ele><time>2026-04-11T08:45:00.951Z</time></trkpt><trkpt lat="42.2769475" lon="13.5586995"><ele>611.0</ele><time>2026-04-11T08:45:01.95Z</time></trkpt><trkpt lat="42.2767947" lon="13.5586806"><ele>611.75</ele><time>2026-04-11T08:45:02.951Z</time></trkpt><trkpt lat="42.2766527" lon="13.5586629"><ele>612.5</ele><time>2026-04-11T08:45:03.95Z</time></trkpt><trkpt lat="42.2765205" lon="13.5586475"><ele>613.25</ele><time>2026-04-11T08:45:04.951Z</time></trkpt><trkpt lat="42.2763896" lon="13.5586137"><ele>614.0</ele><time>2026-04-11T08:45:05.95Z</time></trkpt><trkpt lat="42.2762678" lon="13.5585424"><ele>614.0</ele><time>2026-04-11T08:45:06.951Z</time></trkpt><trkpt lat="42.2761529" lon="13.5584294"><ele>614.0</ele><time>2026-04-11T08:45:07.951Z</time></trkpt><trkpt lat="42.2760477" lon="13.5582899"><ele>614.0</ele><time>2026-04-11T08:45:08.95Z</time></trkpt><trkpt lat="42.275953" lon="13.5581372"><ele>614.0</ele><time>2026-04-11T08:45:09.951Z</time></trkpt><trkpt lat="42.275863" lon="13.5579839"><ele>614.5</ele><time>2026-04-11T08:45:10.951Z</time></trkpt><trkpt lat="42.2757772" lon="13.5578368"><ele>615.0</ele><time>2026-04-11T08:45:11.95Z</time></trkpt><trkpt lat="42.2756943" lon="13.5576969"><ele>615.5</ele><time>2026-04-11T08:45:12.95Z</time></trkpt><trkpt lat="42.2756115" lon="13.5575687"><ele>616.0</ele><time>2026-04-11T08:45:13.95Z</time></trkpt><trkpt lat="42.2755229" lon="13.5574617"><ele>614.25</ele><time>2026-04-11T08:45:14.951Z</time></trkpt><trkpt lat="42.275419" lon="13.5574014"><ele>612.5</ele><time>2026-04-11T08:45:15.951Z</time></trkpt><trkpt lat="42.2753044" lon="13.5574097"><ele>610.75</ele><time>2026-04-11T08:45:16.951Z</time></trkpt><trkpt lat="42.2752019" lon="13.5574795"><ele>609.0</ele><time>2026-04-11T08:45:17.95Z</time></trkpt><trkpt lat="42.275101" lon="13.5576184"><ele>609.0</ele><time>2026-04-11T08:45:18.951Z</time></trkpt><trkpt lat="42.2749922" lon="13.5577973"><ele>609.0</ele><time>2026-04-11T08:45:19.95Z</time></trkpt><trkpt lat="42.2748687" lon="13.5580152"><ele>609.0</ele><time>2026-04-11T08:45:20.951Z</time></trkpt><trkpt lat="42.27475" lon="13.5582376"><ele>607.6666666666666</ele><time>2026-04-11T08:45:21.951Z</time></trkpt><trkpt lat="42.2746178" lon="13.5584704"><ele>606.3333333333333</ele><time>2026-04-11T08:45:22.95Z</time></trkpt><trkpt lat="42.2744743" lon="13.5586943"><ele>605.0</ele><time>2026-04-11T08:45:23.951Z</time></trkpt><trkpt lat="42.2743097" lon="13.5588784"><ele>606.0</ele><time>2026-04-11T08:45:24.951Z</time></trkpt><trkpt lat="42.2741385" lon="13.5590363"><ele>607.0</ele><time>2026-04-11T08:45:25.95Z</time></trkpt><trkpt lat="42.2739732" lon="13.5591834"><ele>608.0</ele><time>2026-04-11T08:45:26.951Z</time></trkpt><trkpt lat="42.2738117" lon="13.5593249"><ele>608.0</ele><time>2026-04-11T08:45:27.951Z</time></trkpt><trkpt lat="42.2736549" lon="13.5594643"><ele>608.0</ele><time>2026-04-11T08:45:28.951Z</time></trkpt><trkpt lat="42.2735126" lon="13.5595946"><ele>608.0</ele><time>2026-04-11T08:45:29.951Z</time></trkpt><trkpt lat="42.2733704" lon="13.5597182"><ele>612.3333333333333</ele><time>2026-04-11T08:45:30.951Z</time></trkpt><trkpt lat="42.2732192" lon="13.5598171"><ele>616.6666666666666</ele><time>2026-04-11T08:45:31.951Z</time></trkpt><trkpt lat="42.273059" lon="13.5598566"><ele>621.0</ele><time>2026-04-11T08:45:32.951Z</time></trkpt><trkpt lat="42.2728962" lon="13.5598447"><ele>621.0</ele><time>2026-04-11T08:45:33.951Z</time></trkpt><trkpt lat="42.27274" lon="13.5598038"><ele>621.0</ele><time>2026-04-11T08:45:34.95Z</time></trkpt><trkpt lat="42.2725869" lon="13.5597572"><ele>621.0</ele><time>2026-04-11T08:45:35.951Z</time></trkpt><trkpt lat="42.2724351" lon="13.5596995"><ele>621.0</ele><time>2026-04-11T08:45:36.951Z</time></trkpt><trkpt lat="42.2722845" lon="13.5596422"><ele>621.0</ele><time>2026-04-11T08:45:37.951Z</time></trkpt><trkpt lat="42.27213" lon="13.5595915"><ele>621.0</ele><time>2026-04-11T08:45:38.951Z</time></trkpt><trkpt lat="42.2719701" lon="13.5595417"><ele>619.0</ele><time>2026-04-11T08:45:39.951Z</time></trkpt><trkpt lat="42.2718119" lon="13.5594964"><ele>617.0</ele><time>2026-04-11T08:45:40.951Z</time></trkpt><trkpt lat="42.2716545" lon="13.5594694"><ele>615.0</ele><time>2026-04-11T08:45:41.951Z</time></trkpt><trkpt lat="42.2714994" lon="13.5594652"><ele>616.5</ele><time>2026-04-11T08:45:42.951Z</time></trkpt><trkpt lat="42.2713482" lon="13.559477"><ele>618.0</ele><time>2026-04-11T08:45:43.95Z</time></trkpt><trkpt lat="42.2712081" lon="13.559494"><ele>619.5</ele><time>2026-04-11T08:45:44.951Z</time></trkpt><trkpt lat="42.2710835" lon="13.5595111"><ele>621.0</ele><time>2026-04-11T08:45:45.951Z</time></trkpt><trkpt lat="42.2709695" lon="13.5595227"><ele>621.4</ele><time>2026-04-11T08:45:46.951Z</time></trkpt><trkpt lat="42.2708705" lon="13.5595713"><ele>621.8</ele><time>2026-04-11T08:45:47.951Z</time></trkpt><trkpt lat="42.2707967" lon="13.5596686"><ele>622.1999999999999</ele><time>2026-04-11T08:45:48.951Z</time></trkpt><trkpt lat="42.2707541" lon="13.5597861"><ele>622.6</ele><time>2026-04-11T08:45:49.951Z</time></trkpt><trkpt lat="42.2707512" lon="13.5599352"><ele>623.0</ele><time>2026-04-11T08:45:50.951Z</time></trkpt><trkpt lat="42.2707807" lon="13.560096"><ele>623.0</ele><time>2026-04-11T08:45:51.951Z</time></trkpt><trkpt lat="42.270826" lon="13.5602614"><ele>623.0</ele><time>2026-04-11T08:45:52.951Z</time></trkpt><trkpt lat="42.270893" lon="13.5604595"><ele>623.0</ele><time>2026-04-11T08:45:53.951Z</time></trkpt><trkpt lat="42.2709757" lon="13.5606977"><ele>621.5</ele><time>2026-04-11T08:45:54.951Z</time></trkpt><trkpt lat="42.2710683" lon="13.5609831"><ele>620.0</ele><time>2026-04-11T08:45:55.95Z</time></trkpt><trkpt lat="42.2711334" lon="13.5612951"><ele>619.3333333333333</ele><time>2026-04-11T08:45:56.951Z</time></trkpt><trkpt lat="42.2711807" lon="13.5615728"><ele>618.6666666666666</ele><time>2026-04-11T08:45:57.951Z</time></trkpt><trkpt lat="42.2712027" lon="13.5618168"><ele>618.0</ele><time>2026-04-11T08:45:58.951Z</time></trkpt><trkpt lat="42.2711848" lon="13.5620395"><ele>618.0</ele><time>2026-04-11T08:45:59.95Z</time></trkpt><trkpt lat="42.2711158" lon="13.5622284"><ele>618.0</ele><time>2026-04-11T08:46:00.951Z</time></trkpt><trkpt lat="42.2710184" lon="13.5623977"><ele>618.0</ele><time>2026-04-11T08:46:01.951Z</time></trkpt><trkpt lat="42.2709182" lon="13.5625606"><ele>618.0</ele><time>2026-04-11T08:46:02.951Z</time></trkpt><trkpt lat="42.2708062" lon="13.5627388"><ele>618.0</ele><time>2026-04-11T08:46:03.95Z</time></trkpt><trkpt lat="42.2706967" lon="13.5629404"><ele>618.0</ele><time>2026-04-11T08:46:04.951Z</time></trkpt><trkpt lat="42.27061" lon="13.5631548"><ele>614.3333333333334</ele><time>2026-04-11T08:46:05.95Z</time></trkpt><trkpt lat="42.2705472" lon="13.5633655"><ele>610.6666666666667</ele><time>2026-04-11T08:46:06.951Z</time></trkpt><trkpt lat="42.2705086" lon="13.5635703"><ele>607.0</ele><time>2026-04-11T08:46:07.95Z</time></trkpt><trkpt lat="42.2705056" lon="13.563788"><ele>607.0</ele><time>2026-04-11T08:46:08.95Z</time></trkpt><trkpt lat="42.2705432" lon="13.5640064"><ele>607.0</ele><time>2026-04-11T08:46:09.951Z</time></trkpt><trkpt lat="42.2706066" lon="13.5642112"><ele>607.0</ele><time>2026-04-11T08:46:10.95Z</time></trkpt><trkpt lat="42.2706774" lon="13.5644149"><ele>610.0</ele><time>2026-04-11T08:46:11.951Z</time></trkpt><trkpt lat="42.270753" lon="13.5646218"><ele>613.0</ele><time>2026-04-11T08:46:12.951Z</time></trkpt><trkpt lat="42.2708295" lon="13.5648352"><ele>616.0</ele><time>2026-04-11T08:46:13.951Z</time></trkpt><trkpt lat="42.2709064" lon="13.5650577"><ele>616.0</ele><time>2026-04-11T08:46:14.951Z</time></trkpt><trkpt lat="42.2709932" lon="13.5652786"><ele>616.0</ele><time>2026-04-11T08:46:15.951Z</time></trkpt><trkpt lat="42.2711037" lon="13.5655062"><ele>616.0</ele><time>2026-04-11T08:46:16.951Z</time></trkpt><trkpt lat="42.271221" lon="13.5657479"><ele>615.6666666666667</ele><time>2026-04-11T08:46:17.951Z</time></trkpt><trkpt lat="42.2713273" lon="13.5659857"><ele>615.3333333333334</ele><time>2026-04-11T08:46:18.951Z</time></trkpt><trkpt lat="42.271417" lon="13.5662025"><ele>615.0</ele><time>2026-04-11T08:46:19.95Z</time></trkpt><trkpt lat="42.2715006" lon="13.5663956"><ele>615.0</ele><time>2026-04-11T08:46:20.95Z</time></trkpt><trkpt lat="42.2715408" lon="13.5666006"><ele>615.0</ele><time>2026-04-11T08:46:21.951Z</time></trkpt><trkpt lat="42.2715364" lon="13.56679"><ele>615.0</ele><time>2026-04-11T08:46:22.951Z</time></trkpt><trkpt lat="42.2714883" lon="13.5669635"><ele>615.0</ele><time>2026-04-11T08:46:23.951Z</time></trkpt><trkpt lat="42.2713982" lon="13.5671035"><ele>614.3333333333334</ele><time>2026-04-11T08:46:24.951Z</time></trkpt><trkpt lat="42.2712472" lon="13.5672008"><ele>613.6666666666667</ele><time>2026-04-11T08:46:25.951Z</time></trkpt><trkpt lat="42.2710694" lon="13.5672799"><ele>613.0</ele><time>2026-04-11T08:46:26.951Z</time></trkpt><trkpt lat="42.270895" lon="13.5673533"><ele>613.0</ele><time>2026-04-11T08:46:27.951Z</time></trkpt><trkpt lat="42.2707242" lon="13.5674256"><ele>613.0</ele><time>2026-04-11T08:46:28.95Z</time></trkpt><trkpt lat="42.2705554" lon="13.5674882"><ele>613.0</ele><time>2026-04-11T08:46:29.95Z</time></trkpt><trkpt lat="42.2703912" lon="13.5675515"><ele>611.3333333333334</ele><time>2026-04-11T08:46:30.951Z</time></trkpt><trkpt lat="42.2702292" lon="13.5676149"><ele>609.6666666666666</ele><time>2026-04-11T08:46:31.95Z</time></trkpt><trkpt lat="42.2700663" lon="13.5676764"><ele>608.0</ele><time>2026-04-11T08:46:32.951Z</time></trkpt><trkpt lat="42.2699068" lon="13.5677289"><ele>608.3333333333333</ele><time>2026-04-11T08:46:33.951Z</time></trkpt><trkpt lat="42.2697515" lon="13.5677771"><ele>608.6666666666666</ele><time>2026-04-11T08:46:34.951Z</time></trkpt><trkpt lat="42.2696029" lon="13.5678536"><ele>609.0</ele><time>2026-04-11T08:46:35.951Z</time></trkpt><trkpt lat="42.2694656" lon="13.5680102"><ele>609.0</ele><time>2026-04-11T08:46:36.951Z</time></trkpt><trkpt lat="42.2693416" lon="13.5682153"><ele>609.0</ele><time>2026-04-11T08:46:37.95Z</time></trkpt><trkpt lat="42.2692275" lon="13.5684307"><ele>609.0</ele><time>2026-04-11T08:46:38.951Z</time></trkpt><trkpt lat="42.2691192" lon="13.5686515"><ele>607.3333333333334</ele><time>2026-04-11T08:46:39.951Z</time></trkpt><trkpt lat="42.2690064" lon="13.5688751"><ele>605.6666666666667</ele><time>2026-04-11T08:46:40.951Z</time></trkpt><trkpt lat="42.2688842" lon="13.5690931"><ele>604.0</ele><time>2026-04-11T08:46:41.95Z</time></trkpt><trkpt lat="42.26875" lon="13.5693133"><ele>609.5</ele><time>2026-04-11T08:46:42.951Z</time></trkpt><trkpt lat="42.2685908" lon="13.5695266"><ele>615.0</ele><time>2026-04-11T08:46:43.951Z</time></trkpt><trkpt lat="42.268411" lon="13.5697337"><ele>615.0</ele><time>2026-04-11T08:46:44.951Z</time></trkpt><trkpt lat="42.2682311" lon="13.5699585"><ele>615.0</ele><time>2026-04-11T08:46:45.95Z</time></trkpt><trkpt lat="42.2680684" lon="13.5702137"><ele>612.5</ele><time>2026-04-11T08:46:46.951Z</time></trkpt><trkpt lat="42.2679347" lon="13.5704711"><ele>610.0</ele><time>2026-04-11T08:46:47.951Z</time></trkpt><trkpt lat="42.2678239" lon="13.5707384"><ele>610.0</ele><time>2026-04-11T08:46:48.951Z</time></trkpt><trkpt lat="42.2677373" lon="13.5710197"><ele>610.0</ele><time>2026-04-11T08:46:49.951Z</time></trkpt><trkpt lat="42.2676744" lon="13.5713064"><ele>610.0</ele><time>2026-04-11T08:46:50.951Z</time></trkpt><trkpt lat="42.2676335" lon="13.5715995"><ele>612.3333333333334</ele><time>2026-04-11T08:46:51.951Z</time></trkpt><trkpt lat="42.2676074" lon="13.5718853"><ele>614.6666666666666</ele><time>2026-04-11T08:46:52.951Z</time></trkpt><trkpt lat="42.2675862" lon="13.572154"><ele>617.0</ele><time>2026-04-11T08:46:53.951Z</time></trkpt><trkpt lat="42.2675685" lon="13.5723843"><ele>618.0</ele><time>2026-04-11T08:46:54.95Z</time></trkpt><trkpt lat="42.2675384" lon="13.5725918"><ele>619.0</ele><time>2026-04-11T08:46:55.951Z</time></trkpt><trkpt lat="42.2674733" lon="13.5727688"><ele>620.0</ele><time>2026-04-11T08:46:56.951Z</time></trkpt><trkpt lat="42.2673715" lon="13.5729156"><ele>618.6666666666666</ele><time>2026-04-11T08:46:57.95Z</time></trkpt><trkpt lat="42.2672264" lon="13.5730322"><ele>617.3333333333334</ele><time>2026-04-11T08:46:58.95Z</time></trkpt><trkpt lat="42.2670563" lon="13.573135"><ele>616.0</ele><time>2026-04-11T08:46:59.951Z</time></trkpt><trkpt lat="42.2668849" lon="13.5732406"><ele>616.0</ele><time>2026-04-11T08:47:00.951Z</time></trkpt><trkpt lat="42.2667027" lon="13.5733574"><ele>616.0</ele><time>2026-04-11T08:47:01.951Z</time></trkpt><trkpt lat="42.2665199" lon="13.573468"><ele>616.0</ele><time>2026-04-11T08:47:02.951Z</time></trkpt><trkpt lat="42.2663442" lon="13.573575"><ele>615.3333333333334</ele><time>2026-04-11T08:47:03.95Z</time></trkpt><trkpt lat="42.2661618" lon="13.5736735"><ele>614.6666666666666</ele><time>2026-04-11T08:47:04.951Z</time></trkpt><trkpt lat="42.2659763" lon="13.5737833"><ele>614.0</ele><time>2026-04-11T08:47:05.95Z</time></trkpt><trkpt lat="42.265791" lon="13.5738897"><ele>616.3333333333333</ele><time>2026-04-11T08:47:06.951Z</time></trkpt><trkpt lat="42.2655985" lon="13.5740041"><ele>618.6666666666666</ele><time>2026-04-11T08:47:07.951Z</time></trkpt><trkpt lat="42.2653971" lon="13.5741204"><ele>621.0</ele><time>2026-04-11T08:47:08.951Z</time></trkpt><trkpt lat="42.2651963" lon="13.5742647"><ele>621.0</ele><time>2026-04-11T08:47:09.95Z</time></trkpt><trkpt lat="42.2650123" lon="13.5744425"><ele>621.0</ele><time>2026-04-11T08:47:10.95Z</time></trkpt><trkpt lat="42.2691192" lon="13.5686515"><ele>621.3333333333334</ele><time>2026-04-11T08:46:39.951Z</time></trkpt><trkpt lat="42.2690064" lon="13.5688751"><ele>621.6666666666667</ele><time>2026-04-11T08:46:40.951Z</time></trkpt><trkpt lat="42.2688842" lon="13.5690931"><ele>622.0</ele><time>2026-04-11T08:46:41.95Z</time></trkpt><trkpt lat="42.26875" lon="13.5693133"><ele>618.5</ele><time>2026-04-11T08:46:42.951Z</time></trkpt><trkpt lat="42.2685908" lon="13.5695266"><ele>615.0</ele><time>2026-04-11T08:46:43.951Z</time></trkpt><trkpt lat="42.268411" lon="13.5697337"><ele>615.0</ele><time>2026-04-11T08:46:44.951Z</time></trkpt><trkpt lat="42.2682311" lon="13.5699585"><ele>615.0</ele><time>2026-04-11T08:46:45.95Z</time></trkpt><trkpt lat="42.2680684" lon="13.5702137"><ele>612.5</ele><time>2026-04-11T08:46:46.951Z</time></trkpt><trkpt lat="42.2679347" lon="13.5704711"><ele>610.0</ele><time>2026-04-11T08:46:47.951Z</time></trkpt><trkpt lat="42.2678239" lon="13.5707384"><ele>610.0</ele><time>2026-04-11T08:46:48.951Z</time></trkpt><trkpt lat="42.2677373" lon="13.5710197"><ele>610.0</ele><time>2026-04-11T08:46:49.951Z</time></trkpt><trkpt lat="42.2676744" lon="13.5713064"><ele>610.0</ele><time>2026-04-11T08:46:50.951Z</time></trkpt><trkpt lat="42.2676335" lon="13.5715995"><ele>612.3333333333334</ele><time>2026-04-11T08:46:51.951Z</time></trkpt><trkpt lat="42.2676074" lon="13.5718853"><ele>614.6666666666666</ele><time>2026-04-11T08:46:52.951Z</time></trkpt><trkpt lat="42.2675862" lon="13.572154"><ele>617.0</ele><time>2026-04-11T08:46:53.951Z</time></trkpt><trkpt lat="42.2675685" lon="13.5723843"><ele>618.0</ele><time>2026-04-11T08:46:54.95Z</time></trkpt><trkpt lat="42.2675384" lon="13.5725918"><ele>619.0</ele><time>2026-04-11T08:46:55.951Z</time></trkpt><trkpt lat="42.2674733" lon="13.5727688"><ele>620.0</ele><time>2026-04-11T08:46:56.951Z</time></trkpt><trkpt lat="42.2673715" lon="13.5729156"><ele>618.6666666666666</ele><time>2026-04-11T08:46:57.95Z</time></trkpt><trkpt lat="42.2672264" lon="13.5730322"><ele>617.3333333333334</ele><time>2026-04-11T08:46:58.95Z</time></trkpt><trkpt lat="42.2670563" lon="13.573135"><ele>616.0</ele><time>2026-04-11T08:46:59.951Z</time></trkpt><trkpt lat="42.2668849" lon="13.5732406"><ele>616.0</ele><time>2026-04-11T08:47:00.951Z</time></trkpt><trkpt lat="42.2667027" lon="13.5733574"><ele>616.0</ele><time>2026-04-11T08:47:01.951Z</time></trkpt><trkpt lat="42.2665199" lon="13.573468"><ele>616.0</ele><time>2026-04-11T08:47:02.951Z</time></trkpt><trkpt lat="42.2663442" lon="13.573575"><ele>615.3333333333334</ele><time>2026-04-11T08:47:03.95Z</time></trkpt><trkpt lat="42.2661618" lon="13.5736735"><ele>614.6666666666666</ele><time>2026-04-11T08:47:04.951Z</time></trkpt><trkpt lat="42.2659763" lon="13.5737833"><ele>614.0</ele><time>2026-04-11T08:47:05.95Z</time></trkpt><trkpt lat="42.265791" lon="13.5738897"><ele>616.3333333333333</ele><time>2026-04-11T08:47:06.951Z</time></trkpt><trkpt lat="42.2655985" lon="13.5740041"><ele>618.6666666666666</ele><time>2026-04-11T08:47:07.951Z</time></trkpt><trkpt lat="42.2653971" lon="13.5741204"><ele>621.0</ele><time>2026-04-11T08:47:08.951Z</time></trkpt><trkpt lat="42.2651963" lon="13.5742647"><ele>621.0</ele><time>2026-04-11T08:47:09.95Z</time></trkpt><trkpt lat="42.2650123" lon="13.5744425"><ele>621.0</ele><time>2026-04-11T08:47:10.95Z</time></trkpt><trkpt lat="42.2648533" lon="13.5746343"><ele>621.0</ele><time>2026-04-11T08:47:11.951Z</time></trkpt><trkpt lat="42.2646928" lon="13.574816"><ele>623.0</ele><time>2026-04-11T08:47:12.951Z</time></trkpt><trkpt lat="42.2645159" lon="13.574985"><ele>625.0</ele><time>2026-04-11T08:47:13.951Z</time></trkpt><trkpt lat="42.2643286" lon="13.5751221"><ele>627.0</ele><time>2026-04-11T08:47:14.95Z</time></trkpt><trkpt lat="42.2641447" lon="13.5752444"><ele>629.3333333333334</ele><time>2026-04-11T08:47:15.951Z</time></trkpt><trkpt lat="42.2639704" lon="13.5753585"><ele>631.6666666666667</ele><time>2026-04-11T08:47:16.951Z</time></trkpt><trkpt lat="42.2638096" lon="13.5754602"><ele>634.0</ele><time>2026-04-11T08:47:17.95Z</time></trkpt><trkpt lat="42.2636585" lon="13.57554"><ele>635.3333333333334</ele><time>2026-04-11T08:47:18.95Z</time></trkpt><trkpt lat="42.2635047" lon="13.5755804"><ele>636.6666666666666</ele><time>2026-04-11T08:47:19.951Z</time></trkpt><trkpt lat="42.2633515" lon="13.5755668"><ele>638.0</ele><time>2026-04-11T08:47:20.951Z</time></trkpt><trkpt lat="42.2631994" lon="13.5755277"><ele>638.3333333333333</ele><time>2026-04-11T08:47:21.951Z</time></trkpt><trkpt lat="42.2630477" lon="13.5753459"><ele>638.6666666666666</ele><time>2026-04-11T08:47:22.951Z</time></trkpt><trkpt lat="42.2628937" lon="13.575195"><ele>639.0</ele><time>2026-04-11T08:47:23.951Z</time></trkpt><trkpt lat="42.2627443" lon="13.5750379"><ele>639.0</ele><time>2026-04-11T08:47:24.951Z</time></trkpt><trkpt lat="42.2625902" lon="13.5748774"><ele>639.0</ele><time>2026-04-11T08:47:25.951Z</time></trkpt><trkpt lat="42.2624324" lon="13.5747229"><ele>639.0</ele><time>2026-04-11T08:47:26.951Z</time></trkpt><trkpt lat="42.2622707" lon="13.5745893"><ele>639.0</ele><time>2026-04-11T08:47:27.95Z</time></trkpt><trkpt lat="42.2620965" lon="13.5744837"><ele>639.0</ele><time>2026-04-11T08:47:28.951Z</time></trkpt><trkpt lat="42.2619047" lon="13.574409"><ele>639.0</ele><time>2026-04-11T08:47:29.951Z</time></trkpt><trkpt lat="42.2617022" lon="13.5743502"><ele>639.0</ele><time>2026-04-11T08:47:30.951Z</time></trkpt><trkpt lat="42.2614915" lon="13.5742793"><ele>639.0</ele><time>2026-04-11T08:47:31.951Z</time></trkpt><trkpt lat="42.2612845" lon="13.5741793"><ele>639.0</ele><time>2026-04-11T08:47:32.95Z</time></trkpt><trkpt lat="42.2610857" lon="13.5740567"><ele>644.5</ele><time>2026-04-11T08:47:33.951Z</time></trkpt><trkpt lat="42.2608914" lon="13.5739235"><ele>650.0</ele><time>2026-04-11T08:47:34.951Z</time></trkpt><trkpt lat="42.2606923" lon="13.5737439"><ele>648.5</ele><time>2026-04-11T08:47:35.95Z</time></trkpt><trkpt lat="42.2604946" lon="13.5735812"><ele>647.0</ele><time>2026-04-11T08:47:36.951Z</time></trkpt><trkpt lat="42.2602961" lon="13.5734127"><ele>647.0</ele><time>2026-04-11T08:47:37.95Z</time></trkpt><trkpt lat="42.2601035" lon="13.5732461"><ele>647.0</ele><time>2026-04-11T08:47:38.951Z</time></trkpt><trkpt lat="42.2599105" lon="13.5730836"><ele>651.0</ele><time>2026-04-11T08:47:39.951Z</time></trkpt><trkpt lat="42.2597104" lon="13.5729298"><ele>655.0</ele><time>2026-04-11T08:47:40.95Z</time></trkpt><trkpt lat="42.2594822" lon="13.5728165"><ele>655.0</ele><time>2026-04-11T08:47:41.95Z</time></trkpt><trkpt lat="42.2592463" lon="13.5727384"><ele>655.0</ele><time>2026-04-11T08:47:42.951Z</time></trkpt><trkpt lat="42.2590039" lon="13.5726847"><ele>657.0</ele><time>2026-04-11T08:47:43.95Z</time></trkpt><trkpt lat="42.2587647" lon="13.5726468"><ele>659.0</ele><time>2026-04-11T08:47:44.951Z</time></trkpt><trkpt lat="42.2585355" lon="13.5726133"><ele>659.0</ele><time>2026-04-11T08:47:45.951Z</time></trkpt><trkpt lat="42.2583183" lon="13.5725687"><ele>659.0</ele><time>2026-04-11T08:47:46.95Z</time></trkpt><trkpt lat="42.2581124" lon="13.5725036"><ele>659.0</ele><time>2026-04-11T08:47:47.95Z</time></trkpt><trkpt lat="42.2579024" lon="13.5724336"><ele>660.6666666666666</ele><time>2026-04-11T08:47:48.951Z</time></trkpt><trkpt lat="42.257692" lon="13.57237"><ele>662.3333333333334</ele><time>2026-04-11T08:47:49.951Z</time></trkpt><trkpt lat="42.2574753" lon="13.5723224"><ele>664.0</ele><time>2026-04-11T08:47:50.95Z</time></trkpt><trkpt lat="42.2572519" lon="13.5722912"><ele>667.0</ele><time>2026-04-11T08:47:51.951Z</time></trkpt><trkpt lat="42.2570174" lon="13.572275"><ele>670.0</ele><time>2026-04-11T08:47:52.951Z</time></trkpt><trkpt lat="42.2567797" lon="13.5722584"><ele>670.0</ele><time>2026-04-11T08:47:53.951Z</time></trkpt><trkpt lat="42.2565514" lon="13.5722373"><ele>670.0</ele><time>2026-04-11T08:47:54.951Z</time></trkpt><trkpt lat="42.2563255" lon="13.572217"><ele>670.0</ele><time>2026-04-11T08:47:55.951Z</time></trkpt><trkpt lat="42.2560938" lon="13.5721982"><ele>670.0</ele><time>2026-04-11T08:47:56.951Z</time></trkpt><trkpt lat="42.2558586" lon="13.5721804"><ele>670.0</ele><time>2026-04-11T08:47:57.951Z</time></trkpt><trkpt lat="42.2556223" lon="13.5721627"><ele>670.0</ele><time>2026-04-11T08:47:58.95Z</time></trkpt><trkpt lat="42.2553891" lon="13.5721498"><ele>667.0</ele><time>2026-04-11T08:47:59.951Z</time></trkpt><trkpt lat="42.2551489" lon="13.5721446"><ele>664.0</ele><time>2026-04-11T08:48:00.951Z</time></trkpt><trkpt lat="42.2549134" lon="13.5721569"><ele>662.0</ele><time>2026-04-11T08:48:01.95Z</time></trkpt><trkpt lat="42.2546814" lon="13.5721906"><ele>660.0</ele><time>2026-04-11T08:48:02.951Z</time></trkpt><trkpt lat="42.2544571" lon="13.5722774"><ele>660.0</ele><time>2026-04-11T08:48:03.95Z</time></trkpt><trkpt lat="42.2542412" lon="13.5723928"><ele>660.0</ele><time>2026-04-11T08:48:04.951Z</time></trkpt><trkpt lat="42.2540391" lon="13.5725281"><ele>660.3333333333334</ele><time>2026-04-11T08:48:05.951Z</time></trkpt><trkpt lat="42.2538395" lon="13.5726609"><ele>660.6666666666667</ele><time>2026-04-11T08:48:06.951Z</time></trkpt><trkpt lat="42.2536365" lon="13.572793"><ele>661.0</ele><time>2026-04-11T08:48:07.95Z</time></trkpt><trkpt lat="42.2534385" lon="13.5729242"><ele>661.0</ele><time>2026-04-11T08:48:08.951Z</time></trkpt><trkpt lat="42.2532537" lon="13.5730474"><ele>661.0</ele><time>2026-04-11T08:48:09.95Z</time></trkpt><trkpt lat="42.2530881" lon="13.5731872"><ele>661.0</ele><time>2026-04-11T08:48:10.95Z</time></trkpt><trkpt lat="42.2529358" lon="13.5733729"><ele>659.6666666666667</ele><time>2026-04-11T08:48:11.951Z</time></trkpt><trkpt lat="42.2528033" lon="13.5735828"><ele>658.3333333333334</ele><time>2026-04-11T08:48:12.95Z</time></trkpt><trkpt lat="42.2526933" lon="13.5738048"><ele>657.0</ele><time>2026-04-11T08:48:13.951Z</time></trkpt><trkpt lat="42.2526173" lon="13.5740321"><ele>657.0</ele><time>2026-04-11T08:48:14.95Z</time></trkpt><trkpt lat="42.252573" lon="13.574265"><ele>657.0</ele><time>2026-04-11T08:48:15.951Z</time></trkpt><trkpt lat="42.2525717" lon="13.5744942"><ele>657.0</ele><time>2026-04-11T08:48:16.951Z</time></trkpt><trkpt lat="42.2525989" lon="13.5747227"><ele>658.0</ele><time>2026-04-11T08:48:17.951Z</time></trkpt><trkpt lat="42.2526258" lon="13.5749572"><ele>659.0</ele><time>2026-04-11T08:48:18.951Z</time></trkpt><trkpt lat="42.2526296" lon="13.5752028"><ele>660.0</ele><time>2026-04-11T08:48:19.95Z</time></trkpt><trkpt lat="42.252599" lon="13.5754626"><ele>662.0</ele><time>2026-04-11T08:48:20.95Z</time></trkpt><trkpt lat="42.2525361" lon="13.5757352"><ele>664.0</ele><time>2026-04-11T08:48:21.951Z</time></trkpt><trkpt lat="42.2524658" lon="13.5760146"><ele>666.0</ele><time>2026-04-11T08:48:22.951Z</time></trkpt><trkpt lat="42.2523969" lon="13.5763012"><ele>666.5</ele><time>2026-04-11T08:48:23.951Z</time></trkpt><trkpt lat="42.2523295" lon="13.5765925"><ele>667.0</ele><time>2026-04-11T08:48:24.951Z</time></trkpt><trkpt lat="42.2522562" lon="13.5768795"><ele>668.6666666666667</ele><time>2026-04-11T08:48:25.95Z</time></trkpt><trkpt lat="42.2521645" lon="13.5771512"><ele>670.3333333333334</ele><time>2026-04-11T08:48:26.95Z</time></trkpt><trkpt lat="42.2520561" lon="13.5774022"><ele>672.0</ele><time>2026-04-11T08:48:27.951Z</time></trkpt><trkpt lat="42.2519234" lon="13.5776327"><ele>672.0</ele><time>2026-04-11T08:48:28.95Z</time></trkpt><trkpt lat="42.2517843" lon="13.5778382"><ele>672.0</ele><time>2026-04-11T08:48:29.951Z</time></trkpt><trkpt lat="42.2516325" lon="13.5780292"><ele>672.0</ele><time>2026-04-11T08:48:30.95Z</time></trkpt><trkpt lat="42.2514886" lon="13.5782231"><ele>672.3333333333334</ele><time>2026-04-11T08:48:31.951Z</time></trkpt><trkpt lat="42.2513577" lon="13.5784555"><ele>672.6666666666667</ele><time>2026-04-11T08:48:32.95Z</time></trkpt><trkpt lat="42.2512465" lon="13.5787155"><ele>673.0</ele><time>2026-04-11T08:48:33.951Z</time></trkpt><trkpt lat="42.2511465" lon="13.5789915"><ele>673.0</ele><time>2026-04-11T08:48:34.951Z</time></trkpt><trkpt lat="42.2510457" lon="13.5792812"><ele>673.0</ele><time>2026-04-11T08:48:35.951Z</time></trkpt><trkpt lat="42.2509429" lon="13.5795788"><ele>674.5</ele><time>2026-04-11T08:48:36.95Z</time></trkpt><trkpt lat="42.2508458" lon="13.5798772"><ele>676.0</ele><time>2026-04-11T08:48:37.951Z</time></trkpt><trkpt lat="42.2507484" lon="13.5801713"><ele>675.0</ele><time>2026-04-11T08:48:38.95Z</time></trkpt><trkpt lat="42.2506486" lon="13.5804693"><ele>674.0</ele><time>2026-04-11T08:48:39.951Z</time></trkpt><trkpt lat="42.2505545" lon="13.5807625"><ele>674.0</ele><time>2026-04-11T08:48:40.951Z</time></trkpt><trkpt lat="42.2504517" lon="13.581053"><ele>674.0</ele><time>2026-04-11T08:48:41.951Z</time></trkpt><trkpt lat="42.2503481" lon="13.5813461"><ele>675.5</ele><time>2026-04-11T08:48:42.951Z</time></trkpt><trkpt lat="42.25023" lon="13.5816296"><ele>677.0</ele><time>2026-04-11T08:48:43.951Z</time></trkpt><trkpt lat="42.2500879" lon="13.5818901"><ele>679.0</ele><time>2026-04-11T08:48:44.95Z</time></trkpt><trkpt lat="42.2499348" lon="13.5821367"><ele>681.0</ele><time>2026-04-11T08:48:45.95Z</time></trkpt><trkpt lat="42.2497913" lon="13.5824051"><ele>681.0</ele><time>2026-04-11T08:48:46.951Z</time></trkpt><trkpt lat="42.2496502" lon="13.5826716"><ele>681.0</ele><time>2026-04-11T08:48:47.951Z</time></trkpt><trkpt lat="42.2495128" lon="13.5829508"><ele>685.0</ele><time>2026-04-11T08:48:48.951Z</time></trkpt><trkpt lat="42.2493762" lon="13.5832292"><ele>689.0</ele><time>2026-04-11T08:48:49.951Z</time></trkpt><trkpt lat="42.249233" lon="13.5835135"><ele>692.0</ele><time>2026-04-11T08:48:50.951Z</time></trkpt><trkpt lat="42.249099" lon="13.5838033"><ele>695.0</ele><time>2026-04-11T08:48:51.951Z</time></trkpt><trkpt lat="42.2489773" lon="13.5841052"><ele>695.5</ele><time>2026-04-11T08:48:52.951Z</time></trkpt><trkpt lat="42.2488669" lon="13.5844172"><ele>696.0</ele><time>2026-04-11T08:48:53.95Z</time></trkpt><trkpt lat="42.2487589" lon="13.5847218"><ele>696.0</ele><time>2026-04-11T08:48:54.951Z</time></trkpt><trkpt lat="42.248646" lon="13.5850181"><ele>696.0</ele><time>2026-04-11T08:48:55.95Z</time></trkpt><trkpt lat="42.2485219" lon="13.5853094"><ele>698.0</ele><time>2026-04-11T08:48:56.951Z</time></trkpt><trkpt lat="42.2483779" lon="13.5855939"><ele>700.0</ele><time>2026-04-11T08:48:57.951Z</time></trkpt><trkpt lat="42.2482279" lon="13.5858691"><ele>700.5</ele><time>2026-04-11T08:48:58.951Z</time></trkpt><trkpt lat="42.2480681" lon="13.586129"><ele>701.0</ele><time>2026-04-11T08:48:59.951Z</time></trkpt><trkpt lat="42.2478941" lon="13.5863792"><ele>701.0</ele><time>2026-04-11T08:49:00.951Z</time></trkpt><trkpt lat="42.2477131" lon="13.5866254"><ele>701.0</ele><time>2026-04-11T08:49:01.951Z</time></trkpt><trkpt lat="42.2475298" lon="13.5868678"><ele>703.0</ele><time>2026-04-11T08:49:02.951Z</time></trkpt><trkpt lat="42.2473388" lon="13.5871093"><ele>705.0</ele><time>2026-04-11T08:49:03.951Z</time></trkpt><trkpt lat="42.2471394" lon="13.587348"><ele>705.0</ele><time>2026-04-11T08:49:04.951Z</time></trkpt><trkpt lat="42.2469384" lon="13.587588"><ele>705.0</ele><time>2026-04-11T08:49:05.95Z</time></trkpt><trkpt lat="42.2467369" lon="13.5878332"><ele>703.5</ele><time>2026-04-11T08:49:06.951Z</time></trkpt><trkpt lat="42.246543" lon="13.5880703"><ele>702.0</ele><time>2026-04-11T08:49:07.951Z</time></trkpt><trkpt lat="42.2463459" lon="13.5883037"><ele>704.5</ele><time>2026-04-11T08:49:08.95Z</time></trkpt><trkpt lat="42.2461577" lon="13.5885337"><ele>707.0</ele><time>2026-04-11T08:49:09.95Z</time></trkpt><trkpt lat="42.2459827" lon="13.588745"><ele>707.0</ele><time>2026-04-11T08:49:10.951Z</time></trkpt><trkpt lat="42.2458209" lon="13.5889284"><ele>707.0</ele><time>2026-04-11T08:49:11.95Z</time></trkpt><trkpt lat="42.2456548" lon="13.5890732"><ele>707.0</ele><time>2026-04-11T08:49:12.951Z</time></trkpt><trkpt lat="42.2454629" lon="13.5891654"><ele>707.6666666666666</ele><time>2026-04-11T08:49:13.951Z</time></trkpt><trkpt lat="42.2452602" lon="13.5892046"><ele>708.3333333333334</ele><time>2026-04-11T08:49:14.951Z</time></trkpt><trkpt lat="42.2450575" lon="13.5891714"><ele>709.0</ele><time>2026-04-11T08:49:15.951Z</time></trkpt><trkpt lat="42.2448497" lon="13.5890675"><ele>709.0</ele><time>2026-04-11T08:49:16.95Z</time></trkpt><trkpt lat="42.2446401" lon="13.5889261"><ele>709.0</ele><time>2026-04-11T08:49:17.951Z</time></trkpt><trkpt lat="42.2444343" lon="13.588786"><ele>709.0</ele><time>2026-04-11T08:49:18.95Z</time></trkpt><trkpt lat="42.2442642" lon="13.588689"><ele>709.0</ele><time>2026-04-11T08:49:19.951Z</time></trkpt><trkpt lat="42.244078" lon="13.5886481"><ele>709.0</ele><time>2026-04-11T08:49:20.951Z</time></trkpt><trkpt lat="42.2438904" lon="13.588682"><ele>711.6666666666667</ele><time>2026-04-11T08:49:21.951Z</time></trkpt><trkpt lat="42.2437196" lon="13.588795"><ele>714.3333333333334</ele><time>2026-04-11T08:49:22.951Z</time></trkpt><trkpt lat="42.2435793" lon="13.5889732"><ele>717.0</ele><time>2026-04-11T08:49:23.951Z</time></trkpt><trkpt lat="42.2434565" lon="13.5892201"><ele>717.0</ele><time>2026-04-11T08:49:24.95Z</time></trkpt><trkpt lat="42.2433501" lon="13.5895055"><ele>717.0</ele><time>2026-04-11T08:49:25.951Z</time></trkpt><trkpt lat="42.2432561" lon="13.5897729"><ele>715.3333333333334</ele><time>2026-04-11T08:49:26.95Z</time></trkpt><trkpt lat="42.2431691" lon="13.5900241"><ele>713.6666666666667</ele><time>2026-04-11T08:49:27.951Z</time></trkpt><trkpt lat="42.2430963" lon="13.5902652"><ele>712.0</ele><time>2026-04-11T08:49:28.95Z</time></trkpt><trkpt lat="42.2430158" lon="13.5904848"><ele>716.0</ele><time>2026-04-11T08:49:29.951Z</time></trkpt><trkpt lat="42.2429181" lon="13.5906981"><ele>720.0</ele><time>2026-04-11T08:49:30.951Z</time></trkpt><trkpt lat="42.2427928" lon="13.5908883"><ele>724.0</ele><time>2026-04-11T08:49:31.951Z</time></trkpt><trkpt lat="42.2426543" lon="13.5910691"><ele>723.0</ele><time>2026-04-11T08:49:32.95Z</time></trkpt><trkpt lat="42.2425122" lon="13.5912572"><ele>722.0</ele><time>2026-04-11T08:49:33.951Z</time></trkpt><trkpt lat="42.2423746" lon="13.5914493"><ele>721.0</ele><time>2026-04-11T08:49:34.951Z</time></trkpt><trkpt lat="42.2422349" lon="13.5916395"><ele>722.6666666666667</ele><time>2026-04-11T08:49:35.951Z</time></trkpt><trkpt lat="42.2420941" lon="13.591824"><ele>724.3333333333334</ele><time>2026-04-11T08:49:36.951Z</time></trkpt><trkpt lat="42.24196" lon="13.5919951"><ele>726.0</ele><time>2026-04-11T08:49:37.951Z</time></trkpt><trkpt lat="42.2418257" lon="13.5921533"><ele>726.0</ele><time>2026-04-11T08:49:38.951Z</time></trkpt><trkpt lat="42.2416968" lon="13.592296"><ele>726.0</ele><time>2026-04-11T08:49:39.95Z</time></trkpt><trkpt lat="42.2415696" lon="13.5924269"><ele>726.0</ele><time>2026-04-11T08:49:40.951Z</time></trkpt><trkpt lat="42.2414528" lon="13.5925485"><ele>726.25</ele><time>2026-04-11T08:49:41.95Z</time></trkpt><trkpt lat="42.2413468" lon="13.5926596"><ele>726.5</ele><time>2026-04-11T08:49:42.951Z</time></trkpt><trkpt lat="42.241249" lon="13.5927648"><ele>726.75</ele><time>2026-04-11T08:49:43.951Z</time></trkpt><trkpt lat="42.241148" lon="13.5928702"><ele>727.0</ele><time>2026-04-11T08:49:44.951Z</time></trkpt><trkpt lat="42.2410444" lon="13.5929822"><ele>727.0</ele><time>2026-04-11T08:49:45.951Z</time></trkpt><trkpt lat="42.2409508" lon="13.5930779"><ele>727.0</ele><time>2026-04-11T08:49:46.95Z</time></trkpt><trkpt lat="42.2408649" lon="13.593164"><ele>727.0</ele><time>2026-04-11T08:49:47.95Z</time></trkpt><trkpt lat="42.2407785" lon="13.5932493"><ele>727.0</ele><time>2026-04-11T08:49:48.951Z</time></trkpt><trkpt lat="42.2407016" lon="13.5933362"><ele>727.0</ele><time>2026-04-11T08:49:49.95Z</time></trkpt><trkpt lat="42.2406221" lon="13.5934154"><ele>727.0</ele><time>2026-04-11T08:49:50.951Z</time></trkpt><trkpt lat="42.2405481" lon="13.5934895"><ele>727.0</ele><time>2026-04-11T08:49:51.951Z</time></trkpt><trkpt lat="42.2404818" lon="13.5935617"><ele>727.0</ele><time>2026-04-11T08:49:52.951Z</time></trkpt><trkpt lat="42.240419" lon="13.5936338"><ele>727.0</ele><time>2026-04-11T08:49:53.951Z</time></trkpt><trkpt lat="42.2403541" lon="13.5936991"><ele>727.0</ele><time>2026-04-11T08:49:54.95Z</time></trkpt><trkpt lat="42.2402906" lon="13.5937652"><ele>727.0</ele><time>2026-04-11T08:49:55.95Z</time></trkpt><trkpt lat="42.2402234" lon="13.5938362"><ele>726.0</ele><time>2026-04-11T08:49:56.95Z</time></trkpt><trkpt lat="42.2401421" lon="13.5939093"><ele>725.0</ele><time>2026-04-11T08:49:57.951Z</time></trkpt><trkpt lat="42.240062" lon="13.5939952"><ele>724.0</ele><time>2026-04-11T08:49:58.951Z</time></trkpt><trkpt lat="42.2399741" lon="13.59409"><ele>723.0</ele><time>2026-04-11T08:49:59.95Z</time></trkpt><trkpt lat="42.2398839" lon="13.5941868"><ele>722.0</ele><time>2026-04-11T08:50:00.951Z</time></trkpt><trkpt lat="42.2397862" lon="13.5942872"><ele>721.5</ele><time>2026-04-11T08:50:01.95Z</time></trkpt><trkpt lat="42.2396865" lon="13.5944052"><ele>721.0</ele><time>2026-04-11T08:50:02.951Z</time></trkpt><trkpt lat="42.2395719" lon="13.5945298"><ele>720.5</ele><time>2026-04-11T08:50:03.95Z</time></trkpt><trkpt lat="42.2394503" lon="13.5946559"><ele>720.0</ele><time>2026-04-11T08:50:04.951Z</time></trkpt><trkpt lat="42.2393292" lon="13.5947837"><ele>719.6666666666666</ele><time>2026-04-11T08:50:05.951Z</time></trkpt><trkpt lat="42.2391979" lon="13.5949145"><ele>719.3333333333333</ele><time>2026-04-11T08:50:06.951Z</time></trkpt><trkpt lat="42.239056" lon="13.5950321"><ele>719.0</ele><time>2026-04-11T08:50:07.951Z</time></trkpt><trkpt lat="42.2388998" lon="13.5951137"><ele>717.6666666666666</ele><time>2026-04-11T08:50:08.951Z</time></trkpt><trkpt lat="42.2387288" lon="13.5951651"><ele>716.3333333333334</ele><time>2026-04-11T08:50:09.95Z</time></trkpt><trkpt lat="42.2385482" lon="13.5952173"><ele>715.0</ele><time>2026-04-11T08:50:10.95Z</time></trkpt><trkpt lat="42.2383644" lon="13.595298"><ele>714.0</ele><time>2026-04-11T08:50:11.95Z</time></trkpt><trkpt lat="42.238179" lon="13.5954163"><ele>713.0</ele><time>2026-04-11T08:50:12.951Z</time></trkpt><trkpt lat="42.2379895" lon="13.595587"><ele>712.0</ele><time>2026-04-11T08:50:13.951Z</time></trkpt><trkpt lat="42.2378072" lon="13.5957734"><ele>712.0</ele><time>2026-04-11T08:50:14.951Z</time></trkpt><trkpt lat="42.2376292" lon="13.5959571"><ele>712.0</ele><time>2026-04-11T08:50:15.95Z</time></trkpt><trkpt lat="42.2374555" lon="13.5961389"><ele>712.0</ele><time>2026-04-11T08:50:16.95Z</time></trkpt><trkpt lat="42.2372967" lon="13.5963418"><ele>710.0</ele><time>2026-04-11T08:50:17.95Z</time></trkpt><trkpt lat="42.2371505" lon="13.5965752"><ele>708.0</ele><time>2026-04-11T08:50:18.951Z</time></trkpt><trkpt lat="42.2370105" lon="13.596828"><ele>709.5</ele><time>2026-04-11T08:50:19.951Z</time></trkpt><trkpt lat="42.236846" lon="13.5970766"><ele>711.0</ele><time>2026-04-11T08:50:20.951Z</time></trkpt><trkpt lat="42.2366734" lon="13.5973147"><ele>711.0</ele><time>2026-04-11T08:50:21.951Z</time></trkpt><trkpt lat="42.2364967" lon="13.5975508"><ele>711.0</ele><time>2026-04-11T08:50:22.951Z</time></trkpt><trkpt lat="42.2363153" lon="13.5977696"><ele>708.5</ele><time>2026-04-11T08:50:23.951Z</time></trkpt><trkpt lat="42.2361289" lon="13.5979851"><ele>706.0</ele><time>2026-04-11T08:50:24.95Z</time></trkpt><trkpt lat="42.2359418" lon="13.5981984"><ele>706.0</ele><time>2026-04-11T08:50:25.951Z</time></trkpt><trkpt lat="42.2357428" lon="13.5983937"><ele>706.0</ele><time>2026-04-11T08:50:26.951Z</time></trkpt><trkpt lat="42.2355429" lon="13.5985599"><ele>707.0</ele><time>2026-04-11T08:50:27.951Z</time></trkpt><trkpt lat="42.2353324" lon="13.5987159"><ele>708.0</ele><time>2026-04-11T08:50:28.951Z</time></trkpt><trkpt lat="42.2351327" lon="13.5988717"><ele>708.0</ele><time>2026-04-11T08:50:29.951Z</time></trkpt><trkpt lat="42.2349441" lon="13.5990246"><ele>708.0</ele><time>2026-04-11T08:50:30.951Z</time></trkpt><trkpt lat="42.234769" lon="13.5991853"><ele>708.0</ele><time>2026-04-11T08:50:31.951Z</time></trkpt><trkpt lat="42.2346101" lon="13.5993585"><ele>707.0</ele><time>2026-04-11T08:50:32.951Z</time></trkpt><trkpt lat="42.2344545" lon="13.5995344"><ele>706.0</ele><time>2026-04-11T08:50:33.951Z</time></trkpt><trkpt lat="42.2342978" lon="13.5997113"><ele>705.0</ele><time>2026-04-11T08:50:34.951Z</time></trkpt><trkpt lat="42.234146" lon="13.5998852"><ele>705.0</ele><time>2026-04-11T08:50:35.951Z</time></trkpt><trkpt lat="42.2339937" lon="13.6000591"><ele>705.0</ele><time>2026-04-11T08:50:36.95Z</time></trkpt><trkpt lat="42.2338392" lon="13.6002359"><ele>705.0</ele><time>2026-04-11T08:50:37.951Z</time></trkpt><trkpt lat="42.2336936" lon="13.6004094"><ele>703.6666666666666</ele><time>2026-04-11T08:50:38.951Z</time></trkpt><trkpt lat="42.233551" lon="13.6005861"><ele>702.3333333333333</ele><time>2026-04-11T08:50:39.951Z</time></trkpt><trkpt lat="42.2334087" lon="13.6007746"><ele>701.0</ele><time>2026-04-11T08:50:40.951Z</time></trkpt><trkpt lat="42.2332744" lon="13.6009777"><ele>700.3333333333333</ele><time>2026-04-11T08:50:41.951Z</time></trkpt><trkpt lat="42.2331502" lon="13.601192"><ele>699.6666666666666</ele><time>2026-04-11T08:50:42.951Z</time></trkpt><trkpt lat="42.2330429" lon="13.60141"><ele>699.0</ele><time>2026-04-11T08:50:43.951Z</time></trkpt><trkpt lat="42.232951" lon="13.6016351"><ele>698.0</ele><time>2026-04-11T08:50:44.951Z</time></trkpt><trkpt lat="42.2328687" lon="13.6018636"><ele>697.0</ele><time>2026-04-11T08:50:45.951Z</time></trkpt><trkpt lat="42.2327893" lon="13.6020951"><ele>696.0</ele><time>2026-04-11T08:50:46.951Z</time></trkpt><trkpt lat="42.2327084" lon="13.6023239"><ele>696.0</ele><time>2026-04-11T08:50:47.951Z</time></trkpt><trkpt lat="42.232628" lon="13.6025497"><ele>696.0</ele><time>2026-04-11T08:50:48.95Z</time></trkpt><trkpt lat="42.2325511" lon="13.6027772"><ele>696.0</ele><time>2026-04-11T08:50:49.95Z</time></trkpt><trkpt lat="42.2324712" lon="13.6030037"><ele>694.6666666666666</ele><time>2026-04-11T08:50:50.95Z</time></trkpt><trkpt lat="42.2323914" lon="13.6032281"><ele>693.3333333333333</ele><time>2026-04-11T08:50:51.951Z</time></trkpt><trkpt lat="42.2323146" lon="13.6034506"><ele>692.0</ele><time>2026-04-11T08:50:52.951Z</time></trkpt><trkpt lat="42.2322348" lon="13.6036606"><ele>690.6666666666666</ele><time>2026-04-11T08:50:53.951Z</time></trkpt><trkpt lat="42.2321495" lon="13.6038689"><ele>689.3333333333334</ele><time>2026-04-11T08:50:54.951Z</time></trkpt><trkpt lat="42.2320741" lon="13.6040714"><ele>688.0</ele><time>2026-04-11T08:50:55.951Z</time></trkpt><trkpt lat="42.2320054" lon="13.6042693"><ele>688.0</ele><time>2026-04-11T08:50:56.95Z</time></trkpt><trkpt lat="42.2319359" lon="13.60447"><ele>688.0</ele><time>2026-04-11T08:50:57.951Z</time></trkpt><trkpt lat="42.2318683" lon="13.6046698"><ele>688.0</ele><time>2026-04-11T08:50:58.951Z</time></trkpt><trkpt lat="42.2318042" lon="13.6048659"><ele>686.75</ele><time>2026-04-11T08:50:59.951Z</time></trkpt><trkpt lat="42.2317423" lon="13.6050482"><ele>685.5</ele><time>2026-04-11T08:51:00.951Z</time></trkpt><trkpt lat="42.2316773" lon="13.605211"><ele>684.25</ele><time>2026-04-11T08:51:01.951Z</time></trkpt><trkpt lat="42.2315859" lon="13.6053413"><ele>683.0</ele><time>2026-04-11T08:51:02.95Z</time></trkpt><trkpt lat="42.2314696" lon="13.605411"><ele>681.5</ele><time>2026-04-11T08:51:03.951Z</time></trkpt><trkpt lat="42.2313566" lon="13.6054386"><ele>680.0</ele><time>2026-04-11T08:51:04.95Z</time></trkpt><trkpt lat="42.2312485" lon="13.6054696"><ele>678.5</ele><time>2026-04-11T08:51:05.951Z</time></trkpt><trkpt lat="42.2311376" lon="13.6053703"><ele>677.0</ele><time>2026-04-11T08:51:06.95Z</time></trkpt><trkpt lat="42.2310287" lon="13.6053164"><ele>676.4000000000001</ele><time>2026-04-11T08:51:07.951Z</time></trkpt><trkpt lat="42.2309195" lon="13.6052628"><ele>675.8000000000001</ele><time>2026-04-11T08:51:08.95Z</time></trkpt><trkpt lat="42.2308184" lon="13.605207"><ele>675.2</ele><time>2026-04-11T08:51:09.951Z</time></trkpt><trkpt lat="42.2307323" lon="13.6051621"><ele>674.6</ele><time>2026-04-11T08:51:10.95Z</time></trkpt><trkpt lat="42.2306457" lon="13.6051547"><ele>674.0</ele><time>2026-04-11T08:51:11.951Z</time></trkpt><trkpt lat="42.2305675" lon="13.6051846"><ele>672.3333333333333</ele><time>2026-04-11T08:51:12.951Z</time></trkpt><trkpt lat="42.2305099" lon="13.6052608"><ele>670.6666666666666</ele><time>2026-04-11T08:51:13.951Z</time></trkpt><trkpt lat="42.2304838" lon="13.6053626"><ele>669.0</ele><time>2026-04-11T08:51:14.951Z</time></trkpt><trkpt lat="42.2305043" lon="13.605462"><ele>667.3333333333334</ele><time>2026-04-11T08:51:15.951Z</time></trkpt><trkpt lat="42.2305381" lon="13.6055612"><ele>665.6666666666667</ele><time>2026-04-11T08:51:16.951Z</time></trkpt><trkpt lat="42.2305785" lon="13.6056566"><ele>664.0</ele><time>2026-04-11T08:51:17.95Z</time></trkpt><trkpt lat="42.230617" lon="13.6057535"><ele>666.1666666666667</ele><time>2026-04-11T08:51:18.951Z</time></trkpt><trkpt lat="42.2306465" lon="13.6058477"><ele>668.3333333333334</ele><time>2026-04-11T08:51:19.951Z</time></trkpt><trkpt lat="42.2306686" lon="13.6059354"><ele>670.5</ele><time>2026-04-11T08:51:20.95Z</time></trkpt><trkpt lat="42.2306762" lon="13.6060231"><ele>672.6666666666666</ele><time>2026-04-11T08:51:21.951Z</time></trkpt><trkpt lat="42.2306509" lon="13.6061831"><ele>674.8333333333333</ele><time>2026-04-11T08:51:23.951Z</time></trkpt><trkpt lat="42.2306176" lon="13.6062599"><ele>677.0</ele><time>2026-04-11T08:51:24.951Z</time></trkpt><trkpt lat="42.2305217" lon="13.6063474"><ele>677.2</ele><time>2026-04-11T08:51:26.951Z</time></trkpt><trkpt lat="42.2304043" lon="13.6063535"><ele>677.4000000000001</ele><time>2026-04-11T08:51:28.95Z</time></trkpt><trkpt lat="42.2303449" lon="13.6063239"><ele>677.5999999999999</ele><time>2026-04-11T08:51:29.951Z</time></trkpt><trkpt lat="42.2302317" lon="13.6062587"><ele>677.8</ele><time>2026-04-11T08:51:31.951Z</time></trkpt><trkpt lat="42.2301487" lon="13.6062138"><ele>678.0</ele><time>2026-04-11T08:51:33.951Z</time></trkpt><trkpt lat="42.2300807" lon="13.6062231"><ele>678.0</ele><time>2026-04-11T08:52:28.951Z</time></trkpt><trkpt lat="42.2299674" lon="13.6062546"><ele>678.0</ele><time>2026-04-11T08:52:30.951Z</time></trkpt><trkpt lat="42.2298371" lon="13.6062686"><ele>678.0</ele><time>2026-04-11T08:52:32.95Z</time></trkpt><trkpt lat="42.2297641" lon="13.6062436"><ele>678.0</ele><time>2026-04-11T08:52:33.951Z</time></trkpt><trkpt lat="42.2297026" lon="13.6062133"><ele>678.0</ele><time>2026-04-11T08:52:34.95Z</time></trkpt><trkpt lat="42.2295726" lon="13.6062769"><ele>676.0</ele><time>2026-04-11T08:52:36.95Z</time></trkpt><trkpt lat="42.229504" lon="13.6063494"><ele>674.0</ele><time>2026-04-11T08:52:37.951Z</time></trkpt><trkpt lat="42.2294354" lon="13.6064449"><ele>672.0</ele><time>2026-04-11T08:52:38.951Z</time></trkpt><trkpt lat="42.229371" lon="13.6065354"><ele>670.0</ele><time>2026-04-11T08:52:39.951Z</time></trkpt><trkpt lat="42.229323" lon="13.6066239"><ele>668.0</ele><time>2026-04-11T08:52:40.95Z</time></trkpt><trkpt lat="42.2292704" lon="13.6067076"><ele>666.0</ele><time>2026-04-11T08:52:41.951Z</time></trkpt><trkpt lat="42.22921" lon="13.6067827"><ele>666.0</ele><time>2026-04-11T08:52:42.95Z</time></trkpt><trkpt lat="42.2291442" lon="13.6068635"><ele>666.0</ele><time>2026-04-11T08:52:43.95Z</time></trkpt><trkpt lat="42.2290782" lon="13.6069515"><ele>666.0</ele><time>2026-04-11T08:52:44.951Z</time></trkpt><trkpt lat="42.2290096" lon="13.6070182"><ele>666.0</ele><time>2026-04-11T08:52:45.951Z</time></trkpt><trkpt lat="42.2289603" lon="13.6070837"><ele>666.0</ele><time>2026-04-11T08:52:46.951Z</time></trkpt><trkpt lat="42.228899" lon="13.607146"><ele>666.0</ele><time>2026-04-11T08:52:47.951Z</time></trkpt><trkpt lat="42.2288276" lon="13.6072004"><ele>665.0</ele><time>2026-04-11T08:52:48.951Z</time></trkpt><trkpt lat="42.2287584" lon="13.6072657"><ele>664.0</ele><time>2026-04-11T08:52:49.95Z</time></trkpt><trkpt lat="42.228684" lon="13.6073524"><ele>663.0</ele><time>2026-04-11T08:52:50.951Z</time></trkpt><trkpt lat="42.2286058" lon="13.6074577"><ele>662.0</ele><time>2026-04-11T08:52:51.951Z</time></trkpt><trkpt lat="42.2285223" lon="13.6075593"><ele>661.0</ele><time>2026-04-11T08:52:52.951Z</time></trkpt><trkpt lat="42.2284352" lon="13.6076638"><ele>661.0</ele><time>2026-04-11T08:52:53.95Z</time></trkpt><trkpt lat="42.2283524" lon="13.6077879"><ele>661.0</ele><time>2026-04-11T08:52:54.95Z</time></trkpt><trkpt lat="42.2282663" lon="13.6079197"><ele>661.0</ele><time>2026-04-11T08:52:55.951Z</time></trkpt><trkpt lat="42.2281803" lon="13.6080542"><ele>661.0</ele><time>2026-04-11T08:52:56.951Z</time></trkpt><trkpt lat="42.2280913" lon="13.6081852"><ele>660.0</ele><time>2026-04-11T08:52:57.951Z</time></trkpt><trkpt lat="42.2279882" lon="13.6083093"><ele>659.0</ele><time>2026-04-11T08:52:58.951Z</time></trkpt><trkpt lat="42.2278728" lon="13.6084261"><ele>658.0</ele><time>2026-04-11T08:52:59.95Z</time></trkpt><trkpt lat="42.2277478" lon="13.6085399"><ele>657.0</ele><time>2026-04-11T08:53:00.951Z</time></trkpt><trkpt lat="42.2276167" lon="13.6086491"><ele>655.3333333333334</ele><time>2026-04-11T08:53:01.951Z</time></trkpt><trkpt lat="42.2274767" lon="13.6087575"><ele>653.6666666666667</ele><time>2026-04-11T08:53:02.951Z</time></trkpt><trkpt lat="42.2273357" lon="13.608871"><ele>652.0</ele><time>2026-04-11T08:53:03.95Z</time></trkpt><trkpt lat="42.2271971" lon="13.6090173"><ele>652.0</ele><time>2026-04-11T08:53:04.951Z</time></trkpt><trkpt lat="42.2270685" lon="13.6091956"><ele>652.0</ele><time>2026-04-11T08:53:05.951Z</time></trkpt><trkpt lat="42.2269515" lon="13.6094112"><ele>652.0</ele><time>2026-04-11T08:53:06.951Z</time></trkpt><trkpt lat="42.2268316" lon="13.6096571"><ele>657.0</ele><time>2026-04-11T08:53:07.951Z</time></trkpt><trkpt lat="42.2267071" lon="13.6099204"><ele>662.0</ele><time>2026-04-11T08:53:08.95Z</time></trkpt><trkpt lat="42.2265739" lon="13.6101858"><ele>650.0</ele><time>2026-04-11T08:53:09.951Z</time></trkpt><trkpt lat="42.2264367" lon="13.6104492"><ele>638.0</ele><time>2026-04-11T08:53:10.95Z</time></trkpt><trkpt lat="42.2262861" lon="13.6106973"><ele>638.0</ele><time>2026-04-11T08:53:11.95Z</time></trkpt><trkpt lat="42.2261468" lon="13.6109494"><ele>638.0</ele><time>2026-04-11T08:53:12.95Z</time></trkpt><trkpt lat="42.2260267" lon="13.611225"><ele>643.0</ele><time>2026-04-11T08:53:13.951Z</time></trkpt><trkpt lat="42.2259077" lon="13.6114823"><ele>648.0</ele><time>2026-04-11T08:53:14.951Z</time></trkpt><trkpt lat="42.2257898" lon="13.6117336"><ele>653.0</ele><time>2026-04-11T08:53:15.95Z</time></trkpt><trkpt lat="42.2256728" lon="13.6119799"><ele>644.0</ele><time>2026-04-11T08:53:16.951Z</time></trkpt><trkpt lat="42.2255625" lon="13.6122168"><ele>635.0</ele><time>2026-04-11T08:53:17.951Z</time></trkpt><trkpt lat="42.225453" lon="13.6124516"><ele>626.0</ele><time>2026-04-11T08:53:18.951Z</time></trkpt><trkpt lat="42.2253385" lon="13.6126921"><ele>633.0</ele><time>2026-04-11T08:53:19.951Z</time></trkpt><trkpt lat="42.2252261" lon="13.6129398"><ele>640.0</ele><time>2026-04-11T08:53:20.95Z</time></trkpt><trkpt lat="42.2251165" lon="13.6131925"><ele>647.0</ele><time>2026-04-11T08:53:21.951Z</time></trkpt><trkpt lat="42.225024" lon="13.613453"><ele>650.6666666666666</ele><time>2026-04-11T08:53:22.951Z</time></trkpt><trkpt lat="42.2249578" lon="13.6137122"><ele>654.3333333333334</ele><time>2026-04-11T08:53:23.951Z</time></trkpt><trkpt lat="42.2249247" lon="13.6139685"><ele>658.0</ele><time>2026-04-11T08:53:24.951Z</time></trkpt><trkpt lat="42.2248937" lon="13.614208"><ele>658.0</ele><time>2026-04-11T08:53:25.951Z</time></trkpt><trkpt lat="42.2248333" lon="13.6144036"><ele>658.0</ele><time>2026-04-11T08:53:26.951Z</time></trkpt><trkpt lat="42.2247419" lon="13.6145815"><ele>658.0</ele><time>2026-04-11T08:53:27.95Z</time></trkpt><trkpt lat="42.224617" lon="13.614714"><ele>651.6666666666667</ele><time>2026-04-11T08:53:28.951Z</time></trkpt><trkpt lat="42.2245008" lon="13.614856"><ele>645.3333333333334</ele><time>2026-04-11T08:53:29.951Z</time></trkpt><trkpt lat="42.2243933" lon="13.615021"><ele>639.0</ele><time>2026-04-11T08:53:30.951Z</time></trkpt><trkpt lat="42.2242918" lon="13.6152125"><ele>643.0</ele><time>2026-04-11T08:53:31.951Z</time></trkpt><trkpt lat="42.2241929" lon="13.6154453"><ele>647.0</ele><time>2026-04-11T08:53:32.951Z</time></trkpt><trkpt lat="42.2240856" lon="13.6156894"><ele>651.0</ele><time>2026-04-11T08:53:33.951Z</time></trkpt><trkpt lat="42.2239807" lon="13.6159372"><ele>643.0</ele><time>2026-04-11T08:53:34.951Z</time></trkpt><trkpt lat="42.2238884" lon="13.6161983"><ele>635.0</ele><time>2026-04-11T08:53:35.951Z</time></trkpt><trkpt lat="42.2238157" lon="13.6164741"><ele>627.0</ele><time>2026-04-11T08:53:36.95Z</time></trkpt><trkpt lat="42.2237608" lon="13.6167547"><ele>630.3333333333334</ele><time>2026-04-11T08:53:37.95Z</time></trkpt><trkpt lat="42.223711" lon="13.6170305"><ele>633.6666666666667</ele><time>2026-04-11T08:53:38.951Z</time></trkpt><trkpt lat="42.2236626" lon="13.6172953"><ele>637.0</ele><time>2026-04-11T08:53:39.951Z</time></trkpt><trkpt lat="42.2236186" lon="13.6175555"><ele>639.0</ele><time>2026-04-11T08:53:40.951Z</time></trkpt><trkpt lat="42.2235671" lon="13.6178232"><ele>641.0</ele><time>2026-04-11T08:53:41.95Z</time></trkpt><trkpt lat="42.2234977" lon="13.6180957"><ele>643.0</ele><time>2026-04-11T08:53:42.951Z</time></trkpt><trkpt lat="42.223399" lon="13.6183623"><ele>643.0</ele><time>2026-04-11T08:53:43.951Z</time></trkpt><trkpt lat="42.223283" lon="13.6186167"><ele>643.0</ele><time>2026-04-11T08:53:44.951Z</time></trkpt><trkpt lat="42.2231535" lon="13.6188751"><ele>635.0</ele><time>2026-04-11T08:53:45.951Z</time></trkpt><trkpt lat="42.2230283" lon="13.6191448"><ele>627.0</ele><time>2026-04-11T08:53:46.951Z</time></trkpt><trkpt lat="42.2229051" lon="13.6194291"><ele>631.0</ele><time>2026-04-11T08:53:47.951Z</time></trkpt><trkpt lat="42.2227955" lon="13.6197256"><ele>635.0</ele><time>2026-04-11T08:53:48.951Z</time></trkpt><trkpt lat="42.2226924" lon="13.6200377"><ele>639.0</ele><time>2026-04-11T08:53:49.95Z</time></trkpt><trkpt lat="42.2225939" lon="13.6203455"><ele>643.0</ele><time>2026-04-11T08:53:50.951Z</time></trkpt><trkpt lat="42.2224973" lon="13.6206338"><ele>643.0</ele><time>2026-04-11T08:53:51.951Z</time></trkpt><trkpt lat="42.2224082" lon="13.6209026"><ele>643.0</ele><time>2026-04-11T08:53:52.951Z</time></trkpt><trkpt lat="42.2223166" lon="13.6211621"><ele>643.0</ele><time>2026-04-11T08:53:53.951Z</time></trkpt><trkpt lat="42.2222013" lon="13.6213974"><ele>638.3333333333334</ele><time>2026-04-11T08:53:54.951Z</time></trkpt><trkpt lat="42.2220516" lon="13.6216016"><ele>633.6666666666666</ele><time>2026-04-11T08:53:55.951Z</time></trkpt><trkpt lat="42.2218639" lon="13.6217692"><ele>629.0</ele><time>2026-04-11T08:53:56.951Z</time></trkpt><trkpt lat="42.221667" lon="13.6219176"><ele>623.5</ele><time>2026-04-11T08:53:57.95Z</time></trkpt><trkpt lat="42.2214793" lon="13.6221001"><ele>618.0</ele><time>2026-04-11T08:53:58.95Z</time></trkpt><trkpt lat="42.221312" lon="13.6223126"><ele>618.0</ele><time>2026-04-11T08:53:59.951Z</time></trkpt><trkpt lat="42.221156" lon="13.6225496"><ele>618.0</ele><time>2026-04-11T08:54:00.95Z</time></trkpt><trkpt lat="42.22102" lon="13.622791"><ele>613.6666666666666</ele><time>2026-04-11T08:54:01.951Z</time></trkpt><trkpt lat="42.2208967" lon="13.6230337"><ele>609.3333333333333</ele><time>2026-04-11T08:54:02.95Z</time></trkpt><trkpt lat="42.2207581" lon="13.6232757"><ele>605.0</ele><time>2026-04-11T08:54:03.951Z</time></trkpt><trkpt lat="42.2206019" lon="13.6235089"><ele>612.0</ele><time>2026-04-11T08:54:04.95Z</time></trkpt><trkpt lat="42.220443" lon="13.6237484"><ele>619.0</ele><time>2026-04-11T08:54:05.951Z</time></trkpt><trkpt lat="42.2202861" lon="13.6239925"><ele>619.0</ele><time>2026-04-11T08:54:06.951Z</time></trkpt><trkpt lat="42.2201236" lon="13.6242324"><ele>619.0</ele><time>2026-04-11T08:54:07.95Z</time></trkpt><trkpt lat="42.219962" lon="13.6244665"><ele>613.5</ele><time>2026-04-11T08:54:08.951Z</time></trkpt><trkpt lat="42.2197956" lon="13.6246969"><ele>608.0</ele><time>2026-04-11T08:54:09.95Z</time></trkpt><trkpt lat="42.2196184" lon="13.6249234"><ele>608.0</ele><time>2026-04-11T08:54:10.951Z</time></trkpt><trkpt lat="42.2194355" lon="13.6251436"><ele>608.0</ele><time>2026-04-11T08:54:11.95Z</time></trkpt><trkpt lat="42.2192441" lon="13.6253582"><ele>605.5</ele><time>2026-04-11T08:54:12.95Z</time></trkpt><trkpt lat="42.2190488" lon="13.6255724"><ele>603.0</ele><time>2026-04-11T08:54:13.951Z</time></trkpt><trkpt lat="42.2188561" lon="13.6257635"><ele>603.0</ele><time>2026-04-11T08:54:14.95Z</time></trkpt><trkpt lat="42.2186543" lon="13.6259335"><ele>603.0</ele><time>2026-04-11T08:54:15.951Z</time></trkpt><trkpt lat="42.2184457" lon="13.6260853"><ele>602.0</ele><time>2026-04-11T08:54:16.95Z</time></trkpt><trkpt lat="42.2182398" lon="13.6262439"><ele>601.0</ele><time>2026-04-11T08:54:17.951Z</time></trkpt><trkpt lat="42.2180427" lon="13.626438"><ele>601.0</ele><time>2026-04-11T08:54:18.95Z</time></trkpt><trkpt lat="42.2178606" lon="13.6266668"><ele>601.0</ele><time>2026-04-11T08:54:19.951Z</time></trkpt><trkpt lat="42.2176942" lon="13.6269231"><ele>607.0</ele><time>2026-04-11T08:54:20.951Z</time></trkpt><trkpt lat="42.2175486" lon="13.6272098"><ele>613.0</ele><time>2026-04-11T08:54:21.951Z</time></trkpt><trkpt lat="42.2174321" lon="13.6274931"><ele>613.0</ele><time>2026-04-11T08:54:22.95Z</time></trkpt><trkpt lat="42.2173456" lon="13.6277502"><ele>613.0</ele><time>2026-04-11T08:54:23.951Z</time></trkpt><trkpt lat="42.2172616" lon="13.6279947"><ele>613.0</ele><time>2026-04-11T08:54:24.95Z</time></trkpt><trkpt lat="42.2171569" lon="13.6282224"><ele>615.6666666666667</ele><time>2026-04-11T08:54:25.95Z</time></trkpt><trkpt lat="42.2170124" lon="13.6284264"><ele>618.3333333333334</ele><time>2026-04-11T08:54:26.951Z</time></trkpt><trkpt lat="42.2168432" lon="13.6286147"><ele>621.0</ele><time>2026-04-11T08:54:27.951Z</time></trkpt><trkpt lat="42.2166652" lon="13.628796"><ele>608.5</ele><time>2026-04-11T08:54:28.95Z</time></trkpt><trkpt lat="42.216479" lon="13.6289816"><ele>596.0</ele><time>2026-04-11T08:54:29.95Z</time></trkpt><trkpt lat="42.2162939" lon="13.6291706"><ele>596.0</ele><time>2026-04-11T08:54:30.951Z</time></trkpt><trkpt lat="42.2161209" lon="13.629362"><ele>596.0</ele><time>2026-04-11T08:54:31.95Z</time></trkpt><trkpt lat="42.2159607" lon="13.6295552"><ele>596.0</ele><time>2026-04-11T08:54:32.951Z</time></trkpt><trkpt lat="42.2158203" lon="13.6297578"><ele>595.6666666666666</ele><time>2026-04-11T08:54:33.951Z</time></trkpt><trkpt lat="42.2156839" lon="13.6299739"><ele>595.3333333333334</ele><time>2026-04-11T08:54:34.951Z</time></trkpt><trkpt lat="42.2155482" lon="13.6301905"><ele>595.0</ele><time>2026-04-11T08:54:35.951Z</time></trkpt><trkpt lat="42.2154111" lon="13.6304134"><ele>595.0</ele><time>2026-04-11T08:54:36.95Z</time></trkpt><trkpt lat="42.2152729" lon="13.6306379"><ele>595.0</ele><time>2026-04-11T08:54:37.951Z</time></trkpt><trkpt lat="42.2151287" lon="13.6308652"><ele>595.0</ele><time>2026-04-11T08:54:38.951Z</time></trkpt><trkpt lat="42.2149753" lon="13.631095"><ele>589.0</ele><time>2026-04-11T08:54:39.951Z</time></trkpt><trkpt lat="42.2148113" lon="13.631321"><ele>583.0</ele><time>2026-04-11T08:54:40.95Z</time></trkpt><trkpt lat="42.2146326" lon="13.6315305"><ele>583.0</ele><time>2026-04-11T08:54:41.951Z</time></trkpt><trkpt lat="42.2144504" lon="13.6317396"><ele>583.0</ele><time>2026-04-11T08:54:42.951Z</time></trkpt><trkpt lat="42.2142881" lon="13.6319702"><ele>578.0</ele><time>2026-04-11T08:54:43.951Z</time></trkpt><trkpt lat="42.2141559" lon="13.632219"><ele>573.0</ele><time>2026-04-11T08:54:44.951Z</time></trkpt><trkpt lat="42.2140541" lon="13.6324761"><ele>568.0</ele><time>2026-04-11T08:54:45.951Z</time></trkpt><trkpt lat="42.2139628" lon="13.6327209"><ele>575.6666666666667</ele><time>2026-04-11T08:54:46.951Z</time></trkpt><trkpt lat="42.2138457" lon="13.6329324"><ele>583.3333333333334</ele><time>2026-04-11T08:54:47.951Z</time></trkpt><trkpt lat="42.213707" lon="13.6331014"><ele>591.0</ele><time>2026-04-11T08:54:48.95Z</time></trkpt><trkpt lat="42.2135418" lon="13.6332194"><ele>591.0</ele><time>2026-04-11T08:54:49.95Z</time></trkpt><trkpt lat="42.2133659" lon="13.6333102"><ele>591.0</ele><time>2026-04-11T08:54:50.95Z</time></trkpt><trkpt lat="42.2132003" lon="13.6334346"><ele>591.0</ele><time>2026-04-11T08:54:51.951Z</time></trkpt><trkpt lat="42.2130485" lon="13.6335952"><ele>586.3333333333334</ele><time>2026-04-11T08:54:52.951Z</time></trkpt><trkpt lat="42.2129178" lon="13.6337914"><ele>581.6666666666667</ele><time>2026-04-11T08:54:53.95Z</time></trkpt><trkpt lat="42.2128279" lon="13.6340166"><ele>577.0</ele><time>2026-04-11T08:54:54.951Z</time></trkpt><trkpt lat="42.2127776" lon="13.6342519"><ele>583.3333333333334</ele><time>2026-04-11T08:54:55.951Z</time></trkpt><trkpt lat="42.2127121" lon="13.6344741"><ele>589.6666666666666</ele><time>2026-04-11T08:54:56.951Z</time></trkpt><trkpt lat="42.2126124" lon="13.6346706"><ele>596.0</ele><time>2026-04-11T08:54:57.951Z</time></trkpt><trkpt lat="42.2124713" lon="13.6348485"><ele>592.6666666666666</ele><time>2026-04-11T08:54:58.951Z</time></trkpt><trkpt lat="42.212316" lon="13.6350341"><ele>589.3333333333334</ele><time>2026-04-11T08:54:59.95Z</time></trkpt><trkpt lat="42.2121715" lon="13.6352426"><ele>586.0</ele><time>2026-04-11T08:55:00.951Z</time></trkpt><trkpt lat="42.2120199" lon="13.635432"><ele>586.0</ele><time>2026-04-11T08:55:01.951Z</time></trkpt><trkpt lat="42.2118563" lon="13.6355942"><ele>586.0</ele><time>2026-04-11T08:55:02.951Z</time></trkpt><trkpt lat="42.2116995" lon="13.6357554"><ele>586.0</ele><time>2026-04-11T08:55:03.951Z</time></trkpt><trkpt lat="42.2115656" lon="13.6359667"><ele>580.6666666666667</ele><time>2026-04-11T08:55:04.951Z</time></trkpt><trkpt lat="42.2114486" lon="13.6362111"><ele>575.3333333333334</ele><time>2026-04-11T08:55:05.951Z</time></trkpt><trkpt lat="42.2113275" lon="13.6364573"><ele>570.0</ele><time>2026-04-11T08:55:06.95Z</time></trkpt><trkpt lat="42.2112162" lon="13.6366936"><ele>570.0</ele><time>2026-04-11T08:55:07.951Z</time></trkpt><trkpt lat="42.2111121" lon="13.6369161"><ele>570.0</ele><time>2026-04-11T08:55:08.951Z</time></trkpt><trkpt lat="42.2109994" lon="13.6371166"><ele>570.0</ele><time>2026-04-11T08:55:09.951Z</time></trkpt><trkpt lat="42.2108708" lon="13.6372784"><ele>569.3333333333334</ele><time>2026-04-11T08:55:10.951Z</time></trkpt><trkpt lat="42.2107264" lon="13.6374016"><ele>568.6666666666667</ele><time>2026-04-11T08:55:11.951Z</time></trkpt><trkpt lat="42.2105772" lon="13.6375083"><ele>568.0</ele><time>2026-04-11T08:55:12.951Z</time></trkpt><trkpt lat="42.2104441" lon="13.6376168"><ele>568.0</ele><time>2026-04-11T08:55:13.95Z</time></trkpt><trkpt lat="42.2103231" lon="13.6377283"><ele>568.0</ele><time>2026-04-11T08:55:14.951Z</time></trkpt><trkpt lat="42.2102239" lon="13.6378391"><ele>568.0</ele><time>2026-04-11T08:55:15.95Z</time></trkpt><trkpt lat="42.2101523" lon="13.6379647"><ele>568.0</ele><time>2026-04-11T08:55:16.95Z</time></trkpt><trkpt lat="42.2101118" lon="13.6381122"><ele>570.25</ele><time>2026-04-11T08:55:17.95Z</time></trkpt><trkpt lat="42.2100936" lon="13.6382845"><ele>572.5</ele><time>2026-04-11T08:55:18.951Z</time></trkpt><trkpt lat="42.2100797" lon="13.6384571"><ele>574.75</ele><time>2026-04-11T08:55:19.951Z</time></trkpt><trkpt lat="42.2100728" lon="13.6386289"><ele>577.0</ele><time>2026-04-11T08:55:20.951Z</time></trkpt><trkpt lat="42.2100809" lon="13.6387981"><ele>577.0</ele><time>2026-04-11T08:55:21.951Z</time></trkpt><trkpt lat="42.2101183" lon="13.6389751"><ele>577.0</ele><time>2026-04-11T08:55:22.95Z</time></trkpt><trkpt lat="42.2101707" lon="13.6391412"><ele>577.0</ele><time>2026-04-11T08:55:23.95Z</time></trkpt><trkpt lat="42.2102359" lon="13.6392893"><ele>577.0</ele><time>2026-04-11T08:55:24.95Z</time></trkpt><trkpt lat="42.2103171" lon="13.6394153"><ele>577.5</ele><time>2026-04-11T08:55:25.95Z</time></trkpt><trkpt lat="42.2104191" lon="13.6395121"><ele>578.0</ele><time>2026-04-11T08:55:26.951Z</time></trkpt><trkpt lat="42.2105386" lon="13.63958"><ele>578.5</ele><time>2026-04-11T08:55:27.95Z</time></trkpt><trkpt lat="42.2106714" lon="13.6396197"><ele>579.0</ele><time>2026-04-11T08:55:28.951Z</time></trkpt><trkpt lat="42.2108107" lon="13.6396618"><ele>579.0</ele><time>2026-04-11T08:55:29.951Z</time></trkpt><trkpt lat="42.2109528" lon="13.6397037"><ele>579.0</ele><time>2026-04-11T08:55:30.951Z</time></trkpt><trkpt lat="42.2110914" lon="13.6397464"><ele>579.0</ele><time>2026-04-11T08:55:31.95Z</time></trkpt><trkpt lat="42.211224" lon="13.6398011"><ele>579.0</ele><time>2026-04-11T08:55:32.95Z</time></trkpt><trkpt lat="42.2113381" lon="13.6398716"><ele>579.0</ele><time>2026-04-11T08:55:33.951Z</time></trkpt><trkpt lat="42.2114283" lon="13.6399609"><ele>579.0</ele><time>2026-04-11T08:55:34.951Z</time></trkpt><trkpt lat="42.2114874" lon="13.6400734"><ele>579.0</ele><time>2026-04-11T08:55:35.951Z</time></trkpt><trkpt lat="42.2114922" lon="13.6402052"><ele>579.0</ele><time>2026-04-11T08:55:36.951Z</time></trkpt><trkpt lat="42.2114641" lon="13.6403258"><ele>579.0</ele><time>2026-04-11T08:55:37.951Z</time></trkpt><trkpt lat="42.2113966" lon="13.6404174"><ele>579.75</ele><time>2026-04-11T08:55:38.951Z</time></trkpt><trkpt lat="42.2112925" lon="13.6404652"><ele>580.5</ele><time>2026-04-11T08:55:39.951Z</time></trkpt><trkpt lat="42.2111572" lon="13.6405206"><ele>581.25</ele><time>2026-04-11T08:55:40.951Z</time></trkpt><trkpt lat="42.2110121" lon="13.640615"><ele>582.0</ele><time>2026-04-11T08:55:41.95Z</time></trkpt><trkpt lat="42.2108577" lon="13.640733"><ele>582.0</ele><time>2026-04-11T08:55:42.95Z</time></trkpt><trkpt lat="42.2107113" lon="13.6408414"><ele>582.0</ele><time>2026-04-11T08:55:43.951Z</time></trkpt><trkpt lat="42.2105827" lon="13.6409626"><ele>582.0</ele><time>2026-04-11T08:55:44.951Z</time></trkpt><trkpt lat="42.2104968" lon="13.6411172"><ele>577.6666666666666</ele><time>2026-04-11T08:55:45.951Z</time></trkpt><trkpt lat="42.2104496" lon="13.6412983"><ele>573.3333333333333</ele><time>2026-04-11T08:55:46.951Z</time></trkpt><trkpt lat="42.210458" lon="13.6415015"><ele>569.0</ele><time>2026-04-11T08:55:47.951Z</time></trkpt><trkpt lat="42.21051" lon="13.6417184"><ele>569.0</ele><time>2026-04-11T08:55:48.951Z</time></trkpt><trkpt lat="42.2105862" lon="13.6419518"><ele>569.0</ele><time>2026-04-11T08:55:49.951Z</time></trkpt><trkpt lat="42.2106659" lon="13.642191"><ele>569.0</ele><time>2026-04-11T08:55:50.951Z</time></trkpt><trkpt lat="42.2107443" lon="13.6424418"><ele>573.0</ele><time>2026-04-11T08:55:51.951Z</time></trkpt><trkpt lat="42.2108121" lon="13.6426928"><ele>577.0</ele><time>2026-04-11T08:55:52.95Z</time></trkpt><trkpt lat="42.2108662" lon="13.6429368"><ele>581.0</ele><time>2026-04-11T08:55:53.951Z</time></trkpt><trkpt lat="42.2109122" lon="13.6431696"><ele>581.0</ele><time>2026-04-11T08:55:54.95Z</time></trkpt><trkpt lat="42.2109598" lon="13.6433934"><ele>581.0</ele><time>2026-04-11T08:55:55.951Z</time></trkpt><trkpt lat="42.210997" lon="13.6436076"><ele>581.0</ele><time>2026-04-11T08:55:56.95Z</time></trkpt><trkpt lat="42.211008" lon="13.6438196"><ele>581.0</ele><time>2026-04-11T08:55:57.951Z</time></trkpt><trkpt lat="42.2109749" lon="13.6440194"><ele>581.0</ele><time>2026-04-11T08:55:58.951Z</time></trkpt><trkpt lat="42.2109046" lon="13.6442018"><ele>581.0</ele><time>2026-04-11T08:55:59.951Z</time></trkpt><trkpt lat="42.2108237" lon="13.6443763"><ele>581.75</ele><time>2026-04-11T08:56:00.95Z</time></trkpt><trkpt lat="42.2107154" lon="13.6445231"><ele>582.5</ele><time>2026-04-11T08:56:01.951Z</time></trkpt><trkpt lat="42.2106398" lon="13.6446612"><ele>583.25</ele><time>2026-04-11T08:56:02.95Z</time></trkpt><trkpt lat="42.2105757" lon="13.644798"><ele>584.0</ele><time>2026-04-11T08:56:03.951Z</time></trkpt><trkpt lat="42.2105221" lon="13.6449135"><ele>582.5</ele><time>2026-04-11T08:56:04.951Z</time></trkpt><trkpt lat="42.2104572" lon="13.6450255"><ele>581.0</ele><time>2026-04-11T08:56:05.951Z</time></trkpt><trkpt lat="42.2104173" lon="13.6451079"><ele>579.5</ele><time>2026-04-11T08:56:06.951Z</time></trkpt><trkpt lat="42.2103761" lon="13.6451913"><ele>578.0</ele><time>2026-04-11T08:56:07.951Z</time></trkpt><trkpt lat="42.2103383" lon="13.6452633"><ele>576.5</ele><time>2026-04-11T08:56:08.951Z</time></trkpt><trkpt lat="42.2102289" lon="13.6453247"><ele>575.0</ele><time>2026-04-11T08:56:10.95Z</time></trkpt><trkpt lat="42.2101505" lon="13.6453262"><ele>575.0</ele><time>2026-04-11T08:56:11.951Z</time></trkpt><trkpt lat="42.2100635" lon="13.6453037"><ele>575.0</ele><time>2026-04-11T08:56:12.95Z</time></trkpt><trkpt lat="42.2099636" lon="13.6452677"><ele>575.0</ele><time>2026-04-11T08:56:13.951Z</time></trkpt><trkpt lat="42.209862" lon="13.6452319"><ele>575.0</ele><time>2026-04-11T08:56:14.951Z</time></trkpt><trkpt lat="42.209767" lon="13.6451934"><ele>575.0</ele><time>2026-04-11T08:56:15.951Z</time></trkpt><trkpt lat="42.2096919" lon="13.6451642"><ele>574.4285714285714</ele><time>2026-04-11T08:56:16.95Z</time></trkpt><trkpt lat="42.209631" lon="13.6451398"><ele>573.8571428571428</ele><time>2026-04-11T08:56:17.951Z</time></trkpt><trkpt lat="42.209563" lon="13.6451238"><ele>573.2857142857142</ele><time>2026-04-11T08:56:19.95Z</time></trkpt><trkpt lat="42.2094937" lon="13.6451037"><ele>572.7142857142857</ele><time>2026-04-11T08:56:21.95Z</time></trkpt><trkpt lat="42.2094204" lon="13.6450704"><ele>572.1428571428571</ele><time>2026-04-11T08:56:24.951Z</time></trkpt><trkpt lat="42.2093565" lon="13.6450301"><ele>571.5714285714286</ele><time>2026-04-11T08:56:27.951Z</time></trkpt><trkpt lat="42.2092759" lon="13.6449875"><ele>571.0</ele><time>2026-04-11T08:56:29.95Z</time></trkpt><trkpt lat="42.2092132" lon="13.6449074"><ele>571.0</ele><time>2026-04-11T08:56:31.951Z</time></trkpt><trkpt lat="42.2092477" lon="13.6450031"><ele>571.0</ele><time>2026-04-11T08:56:36.951Z</time></trkpt><trkpt lat="42.2093177" lon="13.645025"><ele>571.0</ele><time>2026-04-11T08:56:48.951Z</time></trkpt><trkpt lat="42.209406" lon="13.6450761"><ele>571.0</ele><time>2026-04-11T08:56:50.951Z</time></trkpt><trkpt lat="42.2095162" lon="13.6451351"><ele>571.0</ele><time>2026-04-11T08:56:52.95Z</time></trkpt><trkpt lat="42.2095949" lon="13.6451687"><ele>571.0</ele><time>2026-04-11T08:56:53.951Z</time></trkpt><trkpt lat="42.2096887" lon="13.6452076"><ele>571.0</ele><time>2026-04-11T08:56:54.951Z</time></trkpt><trkpt lat="42.209788" lon="13.645246"><ele>571.0</ele><time>2026-04-11T08:56:55.95Z</time></trkpt><trkpt lat="42.2098949" lon="13.645287"><ele>571.0</ele><time>2026-04-11T08:56:56.951Z</time></trkpt><trkpt lat="42.2100034" lon="13.6453252"><ele>571.0</ele><time>2026-04-11T08:56:57.951Z</time></trkpt><trkpt lat="42.2101033" lon="13.6453602"><ele>571.0</ele><time>2026-04-11T08:56:58.951Z</time></trkpt><trkpt lat="42.210188" lon="13.6453814"><ele>571.0</ele><time>2026-04-11T08:56:59.95Z</time></trkpt><trkpt lat="42.2102592" lon="13.6454001"><ele>571.0</ele><time>2026-04-11T08:57:00.95Z</time></trkpt><trkpt lat="42.2103199" lon="13.6454233"><ele>571.0</ele><time>2026-04-11T08:57:01.95Z</time></trkpt><trkpt lat="42.2104182" lon="13.6454899"><ele>571.0</ele><time>2026-04-11T08:57:03.951Z</time></trkpt><trkpt lat="42.2105178" lon="13.6455622"><ele>571.0</ele><time>2026-04-11T08:57:05.951Z</time></trkpt><trkpt lat="42.2105786" lon="13.6456116"><ele>571.0</ele><time>2026-04-11T08:57:06.951Z</time></trkpt><trkpt lat="42.2106377" lon="13.6456863"><ele>572.2</ele><time>2026-04-11T08:57:07.951Z</time></trkpt><trkpt lat="42.2106925" lon="13.6457817"><ele>573.4000000000001</ele><time>2026-04-11T08:57:08.951Z</time></trkpt><trkpt lat="42.2107546" lon="13.64589"><ele>574.6</ele><time>2026-04-11T08:57:09.951Z</time></trkpt><trkpt lat="42.2108297" lon="13.6460205"><ele>575.8000000000001</ele><time>2026-04-11T08:57:10.95Z</time></trkpt><trkpt lat="42.2109109" lon="13.6461494"><ele>577.0</ele><time>2026-04-11T08:57:11.95Z</time></trkpt><trkpt lat="42.2109875" lon="13.6462901"><ele>577.0</ele><time>2026-04-11T08:57:12.951Z</time></trkpt><trkpt lat="42.2110592" lon="13.6464333"><ele>577.0</ele><time>2026-04-11T08:57:13.951Z</time></trkpt><trkpt lat="42.2111164" lon="13.6465883"><ele>577.0</ele><time>2026-04-11T08:57:14.951Z</time></trkpt><trkpt lat="42.2111617" lon="13.6467516"><ele>577.0</ele><time>2026-04-11T08:57:15.951Z</time></trkpt><trkpt lat="42.2112037" lon="13.6469289"><ele>576.0</ele><time>2026-04-11T08:57:16.951Z</time></trkpt><trkpt lat="42.2112371" lon="13.6471194"><ele>575.0</ele><time>2026-04-11T08:57:17.951Z</time></trkpt><trkpt lat="42.2112644" lon="13.6473182"><ele>574.0</ele><time>2026-04-11T08:57:18.95Z</time></trkpt><trkpt lat="42.2112896" lon="13.6475157"><ele>573.0</ele><time>2026-04-11T08:57:19.951Z</time></trkpt><trkpt lat="42.211314" lon="13.647713"><ele>573.25</ele><time>2026-04-11T08:57:20.95Z</time></trkpt><trkpt lat="42.2113387" lon="13.6479002"><ele>573.5</ele><time>2026-04-11T08:57:21.951Z</time></trkpt><trkpt lat="42.2113613" lon="13.6480795"><ele>573.75</ele><time>2026-04-11T08:57:22.951Z</time></trkpt><trkpt lat="42.2113809" lon="13.6482612"><ele>574.0</ele><time>2026-04-11T08:57:23.951Z</time></trkpt><trkpt lat="42.2113904" lon="13.6484518"><ele>574.75</ele><time>2026-04-11T08:57:24.951Z</time></trkpt><trkpt lat="42.2113918" lon="13.6486452"><ele>575.5</ele><time>2026-04-11T08:57:25.951Z</time></trkpt><trkpt lat="42.2113808" lon="13.6488423"><ele>576.25</ele><time>2026-04-11T08:57:26.95Z</time></trkpt><trkpt lat="42.211363" lon="13.6490323"><ele>577.0</ele><time>2026-04-11T08:57:27.951Z</time></trkpt><trkpt lat="42.2113415" lon="13.6492276"><ele>577.0</ele><time>2026-04-11T08:57:28.95Z</time></trkpt><trkpt lat="42.2113106" lon="13.6494173"><ele>577.0</ele><time>2026-04-11T08:57:29.951Z</time></trkpt><trkpt lat="42.2112755" lon="13.6495955"><ele>577.0</ele><time>2026-04-11T08:57:30.951Z</time></trkpt><trkpt lat="42.2112227" lon="13.6497696"><ele>577.0</ele><time>2026-04-11T08:57:31.95Z</time></trkpt><trkpt lat="42.2111487" lon="13.6499322"><ele>578.25</ele><time>2026-04-11T08:57:32.951Z</time></trkpt><trkpt lat="42.2110592" lon="13.6500868"><ele>579.5</ele><time>2026-04-11T08:57:33.95Z</time></trkpt><trkpt lat="42.210962" lon="13.6502314"><ele>580.75</ele><time>2026-04-11T08:57:34.951Z</time></trkpt><trkpt lat="42.21089" lon="13.6503846"><ele>582.0</ele><time>2026-04-11T08:57:35.951Z</time></trkpt><trkpt lat="42.2108526" lon="13.6505522"><ele>582.0</ele><time>2026-04-11T08:57:36.951Z</time></trkpt><trkpt lat="42.2108614" lon="13.6507252"><ele>582.0</ele><time>2026-04-11T08:57:37.951Z</time></trkpt><trkpt lat="42.2109056" lon="13.6508831"><ele>582.0</ele><time>2026-04-11T08:57:38.951Z</time></trkpt><trkpt lat="42.210953" lon="13.6510043"><ele>582.0</ele><time>2026-04-11T08:57:39.951Z</time></trkpt><trkpt lat="42.2110011" lon="13.6510925"><ele>582.0</ele><time>2026-04-11T08:57:40.95Z</time></trkpt><trkpt lat="42.2110294" lon="13.6511787"><ele>582.0</ele><time>2026-04-11T08:57:41.951Z</time></trkpt><trkpt lat="42.211052" lon="13.651262"><ele>582.0</ele><time>2026-04-11T08:57:42.95Z</time></trkpt><trkpt lat="42.2110936" lon="13.6513419"><ele>582.0</ele><time>2026-04-11T08:57:44.951Z</time></trkpt><trkpt lat="42.2111539" lon="13.6512934"><ele>582.0</ele><time>2026-04-11T08:57:48.951Z</time></trkpt><trkpt lat="42.2110994" lon="13.651194"><ele>582.0</ele><time>2026-04-11T08:57:50.951Z</time></trkpt><trkpt lat="42.2110254" lon="13.6511155"><ele>582.0</ele><time>2026-04-11T08:57:51.951Z</time></trkpt><trkpt lat="42.210976" lon="13.65101"><ele>582.0</ele><time>2026-04-11T08:57:52.951Z</time></trkpt><trkpt lat="42.2109361" lon="13.6508711"><ele>582.0</ele><time>2026-04-11T08:57:53.95Z</time></trkpt><trkpt lat="42.2108938" lon="13.6507288"><ele>582.0</ele><time>2026-04-11T08:57:54.951Z</time></trkpt><trkpt lat="42.2108824" lon="13.6505694"><ele>582.0</ele><time>2026-04-11T08:57:55.951Z</time></trkpt><trkpt lat="42.2109099" lon="13.6504162"><ele>582.0</ele><time>2026-04-11T08:57:56.951Z</time></trkpt><trkpt lat="42.2109712" lon="13.6502738"><ele>582.0</ele><time>2026-04-11T08:57:57.951Z</time></trkpt><trkpt lat="42.2110523" lon="13.6501355"><ele>582.0</ele><time>2026-04-11T08:57:58.951Z</time></trkpt><trkpt lat="42.2111455" lon="13.6499808"><ele>582.0</ele><time>2026-04-11T08:57:59.95Z</time></trkpt><trkpt lat="42.2112268" lon="13.6497992"><ele>582.0</ele><time>2026-04-11T08:58:00.951Z</time></trkpt><trkpt lat="42.211289" lon="13.6495839"><ele>582.0</ele><time>2026-04-11T08:58:01.951Z</time></trkpt><trkpt lat="42.2113318" lon="13.6493585"><ele>582.0</ele><time>2026-04-11T08:58:02.951Z</time></trkpt><trkpt lat="42.2113631" lon="13.649134"><ele>580.3333333333334</ele><time>2026-04-11T08:58:03.951Z</time></trkpt><trkpt lat="42.2113893" lon="13.6489098"><ele>578.6666666666667</ele><time>2026-04-11T08:58:04.951Z</time></trkpt><trkpt lat="42.2114036" lon="13.6486834"><ele>577.0</ele><time>2026-04-11T08:58:05.951Z</time></trkpt><trkpt lat="42.2114059" lon="13.6484656"><ele>576.0</ele><time>2026-04-11T08:58:06.95Z</time></trkpt><trkpt lat="42.2113933" lon="13.6482462"><ele>575.0</ele><time>2026-04-11T08:58:07.951Z</time></trkpt><trkpt lat="42.211371" lon="13.6480281"><ele>574.0</ele><time>2026-04-11T08:58:08.951Z</time></trkpt><trkpt lat="42.2113474" lon="13.6478048"><ele>573.6666666666667</ele><time>2026-04-11T08:58:09.951Z</time></trkpt><trkpt lat="42.2113181" lon="13.6475851"><ele>573.3333333333334</ele><time>2026-04-11T08:58:10.951Z</time></trkpt><trkpt lat="42.2112869" lon="13.6473689"><ele>573.0</ele><time>2026-04-11T08:58:11.951Z</time></trkpt><trkpt lat="42.2112522" lon="13.6471539"><ele>574.3333333333334</ele><time>2026-04-11T08:58:12.95Z</time></trkpt><trkpt lat="42.2112132" lon="13.6469347"><ele>575.6666666666667</ele><time>2026-04-11T08:58:13.951Z</time></trkpt><trkpt lat="42.2111623" lon="13.6467187"><ele>577.0</ele><time>2026-04-11T08:58:14.951Z</time></trkpt><trkpt lat="42.211089" lon="13.6465099"><ele>577.0</ele><time>2026-04-11T08:58:15.951Z</time></trkpt><trkpt lat="42.2110049" lon="13.646312"><ele>577.0</ele><time>2026-04-11T08:58:16.951Z</time></trkpt><trkpt lat="42.2109121" lon="13.6461273"><ele>577.0</ele><time>2026-04-11T08:58:17.951Z</time></trkpt><trkpt lat="42.2108148" lon="13.6459535"><ele>575.8000000000001</ele><time>2026-04-11T08:58:18.951Z</time></trkpt><trkpt lat="42.2107232" lon="13.6458034"><ele>574.6</ele><time>2026-04-11T08:58:19.951Z</time></trkpt><trkpt lat="42.210647" lon="13.6456815"><ele>573.4000000000001</ele><time>2026-04-11T08:58:20.95Z</time></trkpt><trkpt lat="42.2105834" lon="13.6455851"><ele>572.2</ele><time>2026-04-11T08:58:21.95Z</time></trkpt><trkpt lat="42.2105166" lon="13.6455152"><ele>571.0</ele><time>2026-04-11T08:58:22.951Z</time></trkpt><trkpt lat="42.2104455" lon="13.6454744"><ele>571.0</ele><time>2026-04-11T08:58:23.95Z</time></trkpt><trkpt lat="42.2103746" lon="13.6454308"><ele>571.0</ele><time>2026-04-11T08:58:24.951Z</time></trkpt><trkpt lat="42.2103029" lon="13.6453964"><ele>571.0</ele><time>2026-04-11T08:58:25.95Z</time></trkpt><trkpt lat="42.2102079" lon="13.6453575"><ele>571.0</ele><time>2026-04-11T08:58:26.95Z</time></trkpt><trkpt lat="42.2101043" lon="13.6453189"><ele>571.0</ele><time>2026-04-11T08:58:27.95Z</time></trkpt><trkpt lat="42.2099904" lon="13.6452732"><ele>571.0</ele><time>2026-04-11T08:58:28.951Z</time></trkpt><trkpt lat="42.2098742" lon="13.6452296"><ele>571.0</ele><time>2026-04-11T08:58:29.95Z</time></trkpt><trkpt lat="42.209758" lon="13.6451858"><ele>571.0</ele><time>2026-04-11T08:58:30.95Z</time></trkpt><trkpt lat="42.2096447" lon="13.6451398"><ele>571.0</ele><time>2026-04-11T08:58:31.951Z</time></trkpt><trkpt lat="42.2095351" lon="13.6450979"><ele>571.0</ele><time>2026-04-11T08:58:32.95Z</time></trkpt><trkpt lat="42.2094291" lon="13.6450681"><ele>571.0</ele><time>2026-04-11T08:58:33.951Z</time></trkpt><trkpt lat="42.2093407" lon="13.6450261"><ele>571.0</ele><time>2026-04-11T08:58:34.951Z</time></trkpt><trkpt lat="42.209271" lon="13.6449681"><ele>571.0</ele><time>2026-04-11T08:58:35.95Z</time></trkpt><trkpt lat="42.2092325" lon="13.6448891"><ele>571.0</ele><time>2026-04-11T08:58:36.951Z</time></trkpt><trkpt lat="42.2092323" lon="13.6447369"><ele>571.0</ele><time>2026-04-11T08:58:38.951Z</time></trkpt><trkpt lat="42.2092616" lon="13.6446451"><ele>571.0</ele><time>2026-04-11T08:58:39.95Z</time></trkpt><trkpt lat="42.2092938" lon="13.6445385"><ele>571.0</ele><time>2026-04-11T08:58:40.95Z</time></trkpt><trkpt lat="42.2093304" lon="13.644434"><ele>571.0</ele><time>2026-04-11T08:58:41.951Z</time></trkpt><trkpt lat="42.2093662" lon="13.6443287"><ele>571.0</ele><time>2026-04-11T08:58:42.951Z</time></trkpt><trkpt lat="42.2094046" lon="13.6442389"><ele>571.0</ele><time>2026-04-11T08:58:43.951Z</time></trkpt><trkpt lat="42.2094691" lon="13.6441828"><ele>571.3333333333334</ele><time>2026-04-11T08:58:44.95Z</time></trkpt><trkpt lat="42.2095066" lon="13.6441088"><ele>571.6666666666667</ele><time>2026-04-11T08:58:45.951Z</time></trkpt><trkpt lat="42.2095124" lon="13.6440203"><ele>572.0</ele><time>2026-04-11T08:58:46.95Z</time></trkpt><trkpt lat="42.2094893" lon="13.6439269"><ele>572.3333333333334</ele><time>2026-04-11T08:58:47.95Z</time></trkpt><trkpt lat="42.2094325" lon="13.6438392"><ele>572.6666666666666</ele><time>2026-04-11T08:58:48.951Z</time></trkpt><trkpt lat="42.2093528" lon="13.6437507"><ele>573.0</ele><time>2026-04-11T08:58:49.95Z</time></trkpt><trkpt lat="42.2092634" lon="13.6436597"><ele>571.0</ele><time>2026-04-11T08:58:50.951Z</time></trkpt><trkpt lat="42.2091735" lon="13.6435693"><ele>569.0</ele><time>2026-04-11T08:58:51.951Z</time></trkpt><trkpt lat="42.20909" lon="13.6434812"><ele>567.0</ele><time>2026-04-11T08:58:52.951Z</time></trkpt><trkpt lat="42.2090063" lon="13.6433897"><ele>565.0</ele><time>2026-04-11T08:58:53.95Z</time></trkpt><trkpt lat="42.2089203" lon="13.6432942"><ele>563.0</ele><time>2026-04-11T08:58:54.951Z</time></trkpt><trkpt lat="42.2088301" lon="13.6432099"><ele>562.6</ele><time>2026-04-11T08:58:55.951Z</time></trkpt><trkpt lat="42.2087371" lon="13.6431393"><ele>562.1999999999999</ele><time>2026-04-11T08:58:56.951Z</time></trkpt><trkpt lat="42.2086363" lon="13.6431059"><ele>561.8</ele><time>2026-04-11T08:58:57.95Z</time></trkpt><trkpt lat="42.2085375" lon="13.6431014"><ele>561.4</ele><time>2026-04-11T08:58:58.951Z</time></trkpt><trkpt lat="42.2084422" lon="13.6431236"><ele>561.0</ele><time>2026-04-11T08:58:59.951Z</time></trkpt><trkpt lat="42.2083593" lon="13.6431663"><ele>561.0</ele><time>2026-04-11T08:59:00.951Z</time></trkpt><trkpt lat="42.2082827" lon="13.6432092"><ele>561.0</ele><time>2026-04-11T08:59:01.951Z</time></trkpt><trkpt lat="42.208216" lon="13.6432715"><ele>561.0</ele><time>2026-04-11T08:59:02.951Z</time></trkpt><trkpt lat="42.2081587" lon="13.6433653"><ele>561.0</ele><time>2026-04-11T08:59:03.95Z</time></trkpt><trkpt lat="42.2081161" lon="13.6434955"><ele>561.0</ele><time>2026-04-11T08:59:04.951Z</time></trkpt><trkpt lat="42.2080803" lon="13.6436543"><ele>556.25</ele><time>2026-04-11T08:59:05.951Z</time></trkpt><trkpt lat="42.2080503" lon="13.6438295"><ele>551.5</ele><time>2026-04-11T08:59:06.95Z</time></trkpt><trkpt lat="42.2080191" lon="13.6440155"><ele>546.75</ele><time>2026-04-11T08:59:07.951Z</time></trkpt><trkpt lat="42.2079867" lon="13.6442118"><ele>542.0</ele><time>2026-04-11T08:59:08.951Z</time></trkpt><trkpt lat="42.2079536" lon="13.6444157"><ele>542.0</ele><time>2026-04-11T08:59:09.951Z</time></trkpt><trkpt lat="42.2079157" lon="13.6446189"><ele>542.0</ele><time>2026-04-11T08:59:10.951Z</time></trkpt><trkpt lat="42.2078729" lon="13.6448229"><ele>542.0</ele><time>2026-04-11T08:59:11.95Z</time></trkpt><trkpt lat="42.2078216" lon="13.6450265"><ele>542.0</ele><time>2026-04-11T08:59:12.951Z</time></trkpt><trkpt lat="42.2077664" lon="13.6452255"><ele>542.0</ele><time>2026-04-11T08:59:13.951Z</time></trkpt><trkpt lat="42.2077061" lon="13.6453992"><ele>542.0</ele><time>2026-04-11T08:59:14.951Z</time></trkpt><trkpt lat="42.2076433" lon="13.6455489"><ele>542.0</ele><time>2026-04-11T08:59:15.95Z</time></trkpt><trkpt lat="42.2075911" lon="13.6456838"><ele>542.8333333333333</ele><time>2026-04-11T08:59:16.951Z</time></trkpt><trkpt lat="42.2075412" lon="13.645799"><ele>543.6666666666666</ele><time>2026-04-11T08:59:17.951Z</time></trkpt><trkpt lat="42.2074999" lon="13.6458975"><ele>544.5</ele><time>2026-04-11T08:59:18.95Z</time></trkpt><trkpt lat="42.2074491" lon="13.6459502"><ele>545.3333333333334</ele><time>2026-04-11T08:59:19.95Z</time></trkpt><trkpt lat="42.2073867" lon="13.6459375"><ele>546.1666666666667</ele><time>2026-04-11T08:59:20.951Z</time></trkpt><trkpt lat="42.2073599" lon="13.6458044"><ele>547.0</ele><time>2026-04-11T08:59:22.951Z</time></trkpt><trkpt lat="42.20738" lon="13.6457155"><ele>547.0</ele><time>2026-04-11T08:59:23.951Z</time></trkpt><trkpt lat="42.2074095" lon="13.6456003"><ele>547.0</ele><time>2026-04-11T08:59:24.951Z</time></trkpt><trkpt lat="42.2074413" lon="13.6454632"><ele>547.0</ele><time>2026-04-11T08:59:25.95Z</time></trkpt><trkpt lat="42.2074885" lon="13.6453125"><ele>547.0</ele><time>2026-04-11T08:59:26.951Z</time></trkpt><trkpt lat="42.2075323" lon="13.6451439"><ele>545.75</ele><time>2026-04-11T08:59:27.951Z</time></trkpt><trkpt lat="42.2075646" lon="13.6449622"><ele>544.5</ele><time>2026-04-11T08:59:28.95Z</time></trkpt><trkpt lat="42.2075771" lon="13.6447686"><ele>543.25</ele><time>2026-04-11T08:59:29.95Z</time></trkpt><trkpt lat="42.20758" lon="13.6445642"><ele>542.0</ele><time>2026-04-11T08:59:30.95Z</time></trkpt><trkpt lat="42.2075724" lon="13.6443604"><ele>542.0</ele><time>2026-04-11T08:59:31.95Z</time></trkpt><trkpt lat="42.2075442" lon="13.6441587"><ele>542.0</ele><time>2026-04-11T08:59:32.951Z</time></trkpt><trkpt lat="42.2075241" lon="13.6439666"><ele>542.0</ele><time>2026-04-11T08:59:33.951Z</time></trkpt><trkpt lat="42.2074906" lon="13.6437758"><ele>542.0</ele><time>2026-04-11T08:59:34.95Z</time></trkpt><trkpt lat="42.2074307" lon="13.6435894"><ele>541.75</ele><time>2026-04-11T08:59:35.951Z</time></trkpt><trkpt lat="42.20735" lon="13.6434203"><ele>541.5</ele><time>2026-04-11T08:59:36.951Z</time></trkpt><trkpt lat="42.2072638" lon="13.6432622"><ele>541.25</ele><time>2026-04-11T08:59:37.951Z</time></trkpt><trkpt lat="42.2071748" lon="13.6431141"><ele>541.0</ele><time>2026-04-11T08:59:38.95Z</time></trkpt><trkpt lat="42.2071016" lon="13.642985"><ele>537.6</ele><time>2026-04-11T08:59:39.951Z</time></trkpt><trkpt lat="42.207048" lon="13.6428512"><ele>534.2</ele><time>2026-04-11T08:59:40.951Z</time></trkpt><trkpt lat="42.2070305" lon="13.6427099"><ele>530.8</ele><time>2026-04-11T08:59:41.951Z</time></trkpt><trkpt lat="42.2070495" lon="13.6425768"><ele>527.4</ele><time>2026-04-11T08:59:42.951Z</time></trkpt><trkpt lat="42.2070877" lon="13.6424525"><ele>524.0</ele><time>2026-04-11T08:59:43.95Z</time></trkpt><trkpt lat="42.2072233" lon="13.6423309"><ele>523.75</ele><time>2026-04-11T08:59:44.951Z</time></trkpt><trkpt lat="42.2073255" lon="13.6422034"><ele>523.5</ele><time>2026-04-11T08:59:45.95Z</time></trkpt><trkpt lat="42.2074024" lon="13.6420648"><ele>523.25</ele><time>2026-04-11T08:59:46.951Z</time></trkpt><trkpt lat="42.2074476" lon="13.6419186"><ele>523.0</ele><time>2026-04-11T08:59:47.95Z</time></trkpt><trkpt lat="42.2074413" lon="13.6417767"><ele>524.1999999999999</ele><time>2026-04-11T08:59:48.951Z</time></trkpt><trkpt lat="42.2073964" lon="13.6416517"><ele>525.4</ele><time>2026-04-11T08:59:49.951Z</time></trkpt><trkpt lat="42.2073155" lon="13.6415356"><ele>526.5999999999999</ele><time>2026-04-11T08:59:50.951Z</time></trkpt><trkpt lat="42.2072394" lon="13.6414243"><ele>527.8</ele><time>2026-04-11T08:59:51.951Z</time></trkpt><trkpt lat="42.2071967" lon="13.641286"><ele>529.0</ele><time>2026-04-11T08:59:52.951Z</time></trkpt><trkpt lat="42.20719" lon="13.6411436"><ele>528.0</ele><time>2026-04-11T08:59:53.951Z</time></trkpt><trkpt lat="42.2072278" lon="13.6409779"><ele>527.0</ele><time>2026-04-11T08:59:54.951Z</time></trkpt><trkpt lat="42.2072936" lon="13.6408022"><ele>526.0</ele><time>2026-04-11T08:59:55.951Z</time></trkpt><trkpt lat="42.2073683" lon="13.6406278"><ele>525.0</ele><time>2026-04-11T08:59:56.951Z</time></trkpt><trkpt lat="42.2074443" lon="13.6404415"><ele>523.0</ele><time>2026-04-11T08:59:57.95Z</time></trkpt><trkpt lat="42.2075222" lon="13.640255"><ele>521.0</ele><time>2026-04-11T08:59:58.95Z</time></trkpt><trkpt lat="42.2075995" lon="13.640075"><ele>519.0</ele><time>2026-04-11T08:59:59.951Z</time></trkpt><trkpt lat="42.2076693" lon="13.6399197"><ele>517.0</ele><time>2026-04-11T09:00:00.951Z</time></trkpt><trkpt lat="42.2077326" lon="13.639782"><ele>517.0</ele><time>2026-04-11T09:00:01.951Z</time></trkpt><trkpt lat="42.2077771" lon="13.6396655"><ele>517.0</ele><time>2026-04-11T09:00:02.95Z</time></trkpt><trkpt lat="42.2077973" lon="13.6395565"><ele>517.0</ele><time>2026-04-11T09:00:03.95Z</time></trkpt><trkpt lat="42.2077807" lon="13.6394686"><ele>517.0</ele><time>2026-04-11T09:00:04.951Z</time></trkpt><trkpt lat="42.2076717" lon="13.6394451"><ele>517.0</ele><time>2026-04-11T09:00:06.951Z</time></trkpt><trkpt lat="42.2076088" lon="13.6394613"><ele>517.0</ele><time>2026-04-11T09:00:07.951Z</time></trkpt><trkpt lat="42.2075321" lon="13.6396337"><ele>517.0</ele><time>2026-04-11T09:00:08.95Z</time></trkpt><trkpt lat="42.2074359" lon="13.6397826"><ele>517.0</ele><time>2026-04-11T09:00:09.95Z</time></trkpt><trkpt lat="42.2073333" lon="13.6399478"><ele>517.0</ele><time>2026-04-11T09:00:10.95Z</time></trkpt><trkpt lat="42.207221" lon="13.6401256"><ele>514.6666666666667</ele><time>2026-04-11T09:00:11.951Z</time></trkpt><trkpt lat="42.2071088" lon="13.6403041"><ele>512.3333333333334</ele><time>2026-04-11T09:00:12.951Z</time></trkpt><trkpt lat="42.2070008" lon="13.6404823"><ele>510.0</ele><time>2026-04-11T09:00:13.95Z</time></trkpt><trkpt lat="42.2068893" lon="13.6406511"><ele>510.0</ele><time>2026-04-11T09:00:14.951Z</time></trkpt><trkpt lat="42.2067814" lon="13.6408077"><ele>510.0</ele><time>2026-04-11T09:00:15.951Z</time></trkpt><trkpt lat="42.2066839" lon="13.6409487"><ele>510.0</ele><time>2026-04-11T09:00:16.951Z</time></trkpt><trkpt lat="42.2065928" lon="13.6410704"><ele>510.0</ele><time>2026-04-11T09:00:17.951Z</time></trkpt><trkpt lat="42.2064853" lon="13.641148"><ele>509.25</ele><time>2026-04-11T09:00:18.95Z</time></trkpt><trkpt lat="42.2063698" lon="13.6411778"><ele>508.5</ele><time>2026-04-11T09:00:19.951Z</time></trkpt><trkpt lat="42.206253" lon="13.6411714"><ele>507.75</ele><time>2026-04-11T09:00:20.951Z</time></trkpt><trkpt lat="42.2061339" lon="13.6411319"><ele>507.0</ele><time>2026-04-11T09:00:21.951Z</time></trkpt><trkpt lat="42.2060155" lon="13.6410819"><ele>507.0</ele><time>2026-04-11T09:00:22.951Z</time></trkpt><trkpt lat="42.2059178" lon="13.6409992"><ele>507.00000000000006</ele><time>2026-04-11T09:00:23.951Z</time></trkpt><trkpt lat="42.2058172" lon="13.6409592"><ele>507.00000000000006</ele><time>2026-04-11T09:00:24.951Z</time></trkpt><trkpt lat="42.2057171" lon="13.6409508"><ele>507.0</ele><time>2026-04-11T09:00:25.951Z</time></trkpt><trkpt lat="42.2056191" lon="13.6409851"><ele>507.0</ele><time>2026-04-11T09:00:26.95Z</time></trkpt><trkpt lat="42.2055227" lon="13.6410443"><ele>507.25</ele><time>2026-04-11T09:00:27.951Z</time></trkpt><trkpt lat="42.2054456" lon="13.6411578"><ele>507.5</ele><time>2026-04-11T09:00:28.951Z</time></trkpt><trkpt lat="42.2053751" lon="13.641293"><ele>507.75</ele><time>2026-04-11T09:00:29.951Z</time></trkpt><trkpt lat="42.2053154" lon="13.6414406"><ele>508.0</ele><time>2026-04-11T09:00:30.951Z</time></trkpt><trkpt lat="42.2052624" lon="13.6415786"><ele>508.00000000000006</ele><time>2026-04-11T09:00:31.951Z</time></trkpt><trkpt lat="42.205206" lon="13.641699"><ele>508.0</ele><time>2026-04-11T09:00:32.951Z</time></trkpt><trkpt lat="42.2051464" lon="13.6417758"><ele>508.0</ele><time>2026-04-11T09:00:33.95Z</time></trkpt><trkpt lat="42.2050851" lon="13.6418135"><ele>508.0</ele><time>2026-04-11T09:00:34.951Z</time></trkpt><trkpt lat="42.2050074" lon="13.6418232"><ele>508.00000000000006</ele><time>2026-04-11T09:00:36.951Z</time></trkpt><trkpt lat="42.2049166" lon="13.6418128"><ele>508.0</ele><time>2026-04-11T09:00:39.95Z</time></trkpt><trkpt lat="42.2048433" lon="13.6418193"><ele>508.79999999999995</ele><time>2026-04-11T09:00:41.951Z</time></trkpt><trkpt lat="42.204767" lon="13.6418725"><ele>509.59999999999997</ele><time>2026-04-11T09:00:43.951Z</time></trkpt><trkpt lat="42.20468" lon="13.6419844"><ele>510.40000000000003</ele><time>2026-04-11T09:00:45.951Z</time></trkpt><trkpt lat="42.2046207" lon="13.6420556"><ele>511.20000000000005</ele><time>2026-04-11T09:00:46.951Z</time></trkpt><trkpt lat="42.2045481" lon="13.6421339"><ele>512.0</ele><time>2026-04-11T09:00:47.95Z</time></trkpt><trkpt lat="42.2044526" lon="13.6422231"><ele>512.0</ele><time>2026-04-11T09:00:48.951Z</time></trkpt><trkpt lat="42.2043597" lon="13.6423161"><ele>512.0</ele><time>2026-04-11T09:00:49.951Z</time></trkpt><trkpt lat="42.2042822" lon="13.6424095"><ele>512.0</ele><time>2026-04-11T09:00:50.95Z</time></trkpt><trkpt lat="42.204207" lon="13.6424786"><ele>512.0</ele><time>2026-04-11T09:00:51.951Z</time></trkpt><trkpt lat="42.2041323" lon="13.6425044"><ele>512.0</ele><time>2026-04-11T09:00:52.95Z</time></trkpt><trkpt lat="42.2040496" lon="13.6424193"><ele>512.0</ele><time>2026-04-11T09:00:54.951Z</time></trkpt><trkpt lat="42.2040551" lon="13.6422737"><ele>512.0</ele><time>2026-04-11T09:00:56.951Z</time></trkpt><trkpt lat="42.2040972" lon="13.6421712"><ele>512.0</ele><time>2026-04-11T09:00:57.951Z</time></trkpt><trkpt lat="42.2041673" lon="13.6420303"><ele>512.0</ele><time>2026-04-11T09:00:58.951Z</time></trkpt><trkpt lat="42.2042614" lon="13.64186"><ele>515.0</ele><time>2026-04-11T09:00:59.951Z</time></trkpt><trkpt lat="42.2043591" lon="13.6416607"><ele>518.0</ele><time>2026-04-11T09:01:00.951Z</time></trkpt><trkpt lat="42.204469" lon="13.6414595"><ele>521.0</ele><time>2026-04-11T09:01:01.951Z</time></trkpt><trkpt lat="42.2045566" lon="13.6412917"><ele>521.0</ele><time>2026-04-11T09:01:02.95Z</time></trkpt><trkpt lat="42.2046011" lon="13.6411621"><ele>521.0</ele><time>2026-04-11T09:01:03.951Z</time></trkpt><trkpt lat="42.2046035" lon="13.6410643"><ele>521.0</ele><time>2026-04-11T09:01:04.951Z</time></trkpt><trkpt lat="42.2045715" lon="13.6409882"><ele>521.0</ele><time>2026-04-11T09:01:05.951Z</time></trkpt><trkpt lat="42.2045084" lon="13.6409616"><ele>521.0</ele><time>2026-04-11T09:01:06.951Z</time></trkpt><trkpt lat="42.2044402" lon="13.6409799"><ele>521.0</ele><time>2026-04-11T09:01:07.951Z</time></trkpt><trkpt lat="42.2043398" lon="13.6410527"><ele>521.0</ele><time>2026-04-11T09:01:08.951Z</time></trkpt><trkpt lat="42.2041979" lon="13.6411893"><ele>521.0</ele><time>2026-04-11T09:01:09.951Z</time></trkpt><trkpt lat="42.2040565" lon="13.6413573"><ele>521.0</ele><time>2026-04-11T09:01:10.951Z</time></trkpt><trkpt lat="42.2038924" lon="13.6415701"><ele>524.0</ele><time>2026-04-11T09:01:11.951Z</time></trkpt><trkpt lat="42.2037384" lon="13.6418182"><ele>527.0</ele><time>2026-04-11T09:01:12.951Z</time></trkpt><trkpt lat="42.2036149" lon="13.6420196"><ele>530.0</ele><time>2026-04-11T09:01:13.95Z</time></trkpt><trkpt lat="42.2035242" lon="13.6421662"><ele>530.0</ele><time>2026-04-11T09:01:14.951Z</time></trkpt><trkpt lat="42.2034436" lon="13.6422522"><ele>530.0</ele><time>2026-04-11T09:01:15.951Z</time></trkpt><trkpt lat="42.2033642" lon="13.6422798"><ele>530.0</ele><time>2026-04-11T09:01:16.951Z</time></trkpt><trkpt lat="42.2033065" lon="13.6422378"><ele>530.0</ele><time>2026-04-11T09:01:17.951Z</time></trkpt><trkpt lat="42.2032802" lon="13.6421572"><ele>530.0</ele><time>2026-04-11T09:01:18.95Z</time></trkpt><trkpt lat="42.203305" lon="13.6420427"><ele>530.0</ele><time>2026-04-11T09:01:19.951Z</time></trkpt><trkpt lat="42.2033511" lon="13.6419154"><ele>531.6</ele><time>2026-04-11T09:01:20.95Z</time></trkpt><trkpt lat="42.2034214" lon="13.6417817"><ele>533.2</ele><time>2026-04-11T09:01:21.951Z</time></trkpt><trkpt lat="42.2034801" lon="13.6416682"><ele>534.8</ele><time>2026-04-11T09:01:22.951Z</time></trkpt><trkpt lat="42.2035352" lon="13.6415654"><ele>536.4</ele><time>2026-04-11T09:01:23.951Z</time></trkpt><trkpt lat="42.2035747" lon="13.6414737"><ele>538.0</ele><time>2026-04-11T09:01:24.951Z</time></trkpt><trkpt lat="42.2035965" lon="13.6413372"><ele>538.0</ele><time>2026-04-11T09:01:26.95Z</time></trkpt><trkpt lat="42.2035677" lon="13.6412251"><ele>538.0</ele><time>2026-04-11T09:01:28.951Z</time></trkpt><trkpt lat="42.2034768" lon="13.6412095"><ele>538.0</ele><time>2026-04-11T09:01:30.95Z</time></trkpt><trkpt lat="42.203409" lon="13.6412749"><ele>538.0</ele><time>2026-04-11T09:01:31.951Z</time></trkpt><trkpt lat="42.2033336" lon="13.6413766"><ele>538.0</ele><time>2026-04-11T09:01:32.95Z</time></trkpt><trkpt lat="42.203235" lon="13.6415405"><ele>540.6666666666667</ele><time>2026-04-11T09:01:33.95Z</time></trkpt><trkpt lat="42.2031194" lon="13.6417485"><ele>543.3333333333334</ele><time>2026-04-11T09:01:34.951Z</time></trkpt><trkpt lat="42.2030089" lon="13.6419497"><ele>546.0</ele><time>2026-04-11T09:01:35.95Z</time></trkpt><trkpt lat="42.2029266" lon="13.6420931"><ele>546.0</ele><time>2026-04-11T09:01:36.951Z</time></trkpt><trkpt lat="42.2028412" lon="13.642218"><ele>546.0</ele><time>2026-04-11T09:01:37.951Z</time></trkpt><trkpt lat="42.2027641" lon="13.6422826"><ele>546.0</ele><time>2026-04-11T09:01:38.951Z</time></trkpt><trkpt lat="42.2026811" lon="13.6422717"><ele>546.0</ele><time>2026-04-11T09:01:39.951Z</time></trkpt><trkpt lat="42.2026253" lon="13.6422102"><ele>546.0</ele><time>2026-04-11T09:01:40.95Z</time></trkpt><trkpt lat="42.2026015" lon="13.6421216"><ele>546.0</ele><time>2026-04-11T09:01:41.951Z</time></trkpt><trkpt lat="42.2026174" lon="13.6420031"><ele>549.25</ele><time>2026-04-11T09:01:42.951Z</time></trkpt><trkpt lat="42.2026762" lon="13.6418703"><ele>552.5</ele><time>2026-04-11T09:01:43.951Z</time></trkpt><trkpt lat="42.2027684" lon="13.6417132"><ele>555.75</ele><time>2026-04-11T09:01:44.951Z</time></trkpt><trkpt lat="42.2028739" lon="13.6415058"><ele>559.0</ele><time>2026-04-11T09:01:45.951Z</time></trkpt><trkpt lat="42.2029481" lon="13.6413228"><ele>561.3333333333334</ele><time>2026-04-11T09:01:46.951Z</time></trkpt><trkpt lat="42.2029786" lon="13.6411312"><ele>563.6666666666666</ele><time>2026-04-11T09:01:47.951Z</time></trkpt><trkpt lat="42.2029635" lon="13.6409249"><ele>566.0</ele><time>2026-04-11T09:01:48.951Z</time></trkpt><trkpt lat="42.2029157" lon="13.6406962"><ele>566.0</ele><time>2026-04-11T09:01:49.951Z</time></trkpt><trkpt lat="42.2028866" lon="13.6404616"><ele>566.0</ele><time>2026-04-11T09:01:50.951Z</time></trkpt><trkpt lat="42.2028963" lon="13.6402254"><ele>566.0</ele><time>2026-04-11T09:01:51.951Z</time></trkpt><trkpt lat="42.2029729" lon="13.639978"><ele>567.0</ele><time>2026-04-11T09:01:52.951Z</time></trkpt><trkpt lat="42.2030592" lon="13.6397053"><ele>568.0</ele><time>2026-04-11T09:01:53.951Z</time></trkpt><trkpt lat="42.2031233" lon="13.6394467"><ele>569.0</ele><time>2026-04-11T09:01:54.951Z</time></trkpt><trkpt lat="42.203163" lon="13.6392052"><ele>569.0</ele><time>2026-04-11T09:01:55.951Z</time></trkpt><trkpt lat="42.2031815" lon="13.6389806"><ele>569.0</ele><time>2026-04-11T09:01:56.951Z</time></trkpt><trkpt lat="42.2031809" lon="13.638809"><ele>569.0</ele><time>2026-04-11T09:01:57.951Z</time></trkpt><trkpt lat="42.2031827" lon="13.6386746"><ele>569.0</ele><time>2026-04-11T09:01:58.951Z</time></trkpt><trkpt lat="42.2031824" lon="13.6385771"><ele>570.2</ele><time>2026-04-11T09:01:59.95Z</time></trkpt><trkpt lat="42.2031284" lon="13.6384777"><ele>571.4</ele><time>2026-04-11T09:02:01.951Z</time></trkpt><trkpt lat="42.2030569" lon="13.6385092"><ele>572.6</ele><time>2026-04-11T09:02:03.951Z</time></trkpt><trkpt lat="42.2029957" lon="13.6386855"><ele>573.8</ele><time>2026-04-11T09:02:05.951Z</time></trkpt><trkpt lat="42.2029651" lon="13.6388037"><ele>575.0</ele><time>2026-04-11T09:02:06.951Z</time></trkpt><trkpt lat="42.2029316" lon="13.6389276"><ele>575.0</ele><time>2026-04-11T09:02:07.95Z</time></trkpt><trkpt lat="42.2028921" lon="13.6390691"><ele>575.0</ele><time>2026-04-11T09:02:08.95Z</time></trkpt><trkpt lat="42.2028507" lon="13.6392237"><ele>575.0</ele><time>2026-04-11T09:02:09.951Z</time></trkpt><trkpt lat="42.2028133" lon="13.6393908"><ele>575.0</ele><time>2026-04-11T09:02:10.951Z</time></trkpt><trkpt lat="42.2027738" lon="13.6395729"><ele>573.5</ele><time>2026-04-11T09:02:11.951Z</time></trkpt><trkpt lat="42.2027299" lon="13.6397541"><ele>572.0</ele><time>2026-04-11T09:02:12.951Z</time></trkpt><trkpt lat="42.2026873" lon="13.6399428"><ele>570.5</ele><time>2026-04-11T09:02:13.951Z</time></trkpt><trkpt lat="42.2026439" lon="13.6401436"><ele>569.0</ele><time>2026-04-11T09:02:14.951Z</time></trkpt><trkpt lat="42.2025976" lon="13.6403515"><ele>568.0</ele><time>2026-04-11T09:02:15.951Z</time></trkpt><trkpt lat="42.2025581" lon="13.6405647"><ele>567.0</ele><time>2026-04-11T09:02:16.951Z</time></trkpt><trkpt lat="42.2025134" lon="13.6407807"><ele>566.0</ele><time>2026-04-11T09:02:17.95Z</time></trkpt><trkpt lat="42.2024554" lon="13.6409912"><ele>565.6666666666666</ele><time>2026-04-11T09:02:18.951Z</time></trkpt><trkpt lat="42.2023762" lon="13.6411961"><ele>565.3333333333334</ele><time>2026-04-11T09:02:19.95Z</time></trkpt><trkpt lat="42.2022792" lon="13.6413879"><ele>565.0</ele><time>2026-04-11T09:02:20.951Z</time></trkpt><trkpt lat="42.2021716" lon="13.6415719"><ele>565.0</ele><time>2026-04-11T09:02:21.95Z</time></trkpt><trkpt lat="42.2020591" lon="13.6417629"><ele>565.0</ele><time>2026-04-11T09:02:22.951Z</time></trkpt><trkpt lat="42.2019415" lon="13.6419702"><ele>565.0</ele><time>2026-04-11T09:02:23.951Z</time></trkpt><trkpt lat="42.2018247" lon="13.6421741"><ele>563.0</ele><time>2026-04-11T09:02:24.95Z</time></trkpt><trkpt lat="42.2016962" lon="13.6424229"><ele>561.0</ele><time>2026-04-11T09:02:25.951Z</time></trkpt><trkpt lat="42.201564" lon="13.6426568"><ele>559.0</ele><time>2026-04-11T09:02:26.951Z</time></trkpt><trkpt lat="42.2014344" lon="13.642893"><ele>559.0</ele><time>2026-04-11T09:02:27.951Z</time></trkpt><trkpt lat="42.2013045" lon="13.6431322"><ele>559.0</ele><time>2026-04-11T09:02:28.95Z</time></trkpt><trkpt lat="42.2011743" lon="13.6433799"><ele>559.0</ele><time>2026-04-11T09:02:29.951Z</time></trkpt><trkpt lat="42.2010601" lon="13.6436247"><ele>556.3333333333334</ele><time>2026-04-11T09:02:30.951Z</time></trkpt><trkpt lat="42.2009651" lon="13.6438789"><ele>553.6666666666666</ele><time>2026-04-11T09:02:31.951Z</time></trkpt><trkpt lat="42.2008805" lon="13.6441376"><ele>551.0</ele><time>2026-04-11T09:02:32.95Z</time></trkpt><trkpt lat="42.2007849" lon="13.6443876"><ele>549.6666666666666</ele><time>2026-04-11T09:02:33.951Z</time></trkpt><trkpt lat="42.200677" lon="13.6446211"><ele>548.3333333333334</ele><time>2026-04-11T09:02:34.951Z</time></trkpt><trkpt lat="42.2005557" lon="13.6448469"><ele>547.0</ele><time>2026-04-11T09:02:35.951Z</time></trkpt><trkpt lat="42.2004236" lon="13.6450652"><ele>548.6666666666667</ele><time>2026-04-11T09:02:36.95Z</time></trkpt><trkpt lat="42.200277" lon="13.64527"><ele>550.3333333333334</ele><time>2026-04-11T09:02:37.951Z</time></trkpt><trkpt lat="42.2001217" lon="13.6454657"><ele>552.0</ele><time>2026-04-11T09:02:38.95Z</time></trkpt><trkpt lat="42.1999652" lon="13.6456521"><ele>550.6666666666666</ele><time>2026-04-11T09:02:39.951Z</time></trkpt><trkpt lat="42.1998103" lon="13.6458247"><ele>549.3333333333333</ele><time>2026-04-11T09:02:40.951Z</time></trkpt><trkpt lat="42.1996455" lon="13.6459895"><ele>548.0</ele><time>2026-04-11T09:02:41.951Z</time></trkpt><trkpt lat="42.1994727" lon="13.6461352"><ele>548.0</ele><time>2026-04-11T09:02:42.951Z</time></trkpt><trkpt lat="42.1992863" lon="13.6462595"><ele>548.0</ele><time>2026-04-11T09:02:43.951Z</time></trkpt><trkpt lat="42.199094" lon="13.6463771"><ele>548.0</ele><time>2026-04-11T09:02:44.95Z</time></trkpt><trkpt lat="42.1988963" lon="13.6464952"><ele>550.3333333333333</ele><time>2026-04-11T09:02:45.951Z</time></trkpt><trkpt lat="42.198699" lon="13.6466108"><ele>552.6666666666666</ele><time>2026-04-11T09:02:46.951Z</time></trkpt><trkpt lat="42.19851" lon="13.6467267"><ele>555.0</ele><time>2026-04-11T09:02:47.951Z</time></trkpt><trkpt lat="42.1983138" lon="13.6468394"><ele>556.3333333333334</ele><time>2026-04-11T09:02:48.95Z</time></trkpt><trkpt lat="42.1981219" lon="13.6469477"><ele>557.6666666666667</ele><time>2026-04-11T09:02:49.95Z</time></trkpt><trkpt lat="42.1979374" lon="13.647048"><ele>559.0</ele><time>2026-04-11T09:02:50.951Z</time></trkpt><trkpt lat="42.1977563" lon="13.6471324"><ele>558.0</ele><time>2026-04-11T09:02:51.951Z</time></trkpt><trkpt lat="42.1975806" lon="13.6472071"><ele>557.0</ele><time>2026-04-11T09:02:52.951Z</time></trkpt><trkpt lat="42.1974036" lon="13.6472714"><ele>556.0</ele><time>2026-04-11T09:02:53.951Z</time></trkpt><trkpt lat="42.1972266" lon="13.6473286"><ele>556.0</ele><time>2026-04-11T09:02:54.95Z</time></trkpt><trkpt lat="42.1970459" lon="13.6473905"><ele>556.0</ele><time>2026-04-11T09:02:55.951Z</time></trkpt><trkpt lat="42.1968782" lon="13.6474682"><ele>556.0</ele><time>2026-04-11T09:02:56.951Z</time></trkpt><trkpt lat="42.1967286" lon="13.6475732"><ele>556.0</ele><time>2026-04-11T09:02:57.951Z</time></trkpt><trkpt lat="42.1965874" lon="13.6476907"><ele>556.0</ele><time>2026-04-11T09:02:58.951Z</time></trkpt><trkpt lat="42.1964667" lon="13.6478048"><ele>556.0</ele><time>2026-04-11T09:02:59.95Z</time></trkpt><trkpt lat="42.1963634" lon="13.6479105"><ele>556.0</ele><time>2026-04-11T09:03:00.951Z</time></trkpt><trkpt lat="42.1962637" lon="13.6480161"><ele>556.4</ele><time>2026-04-11T09:03:01.95Z</time></trkpt><trkpt lat="42.196176" lon="13.6481188"><ele>556.8</ele><time>2026-04-11T09:03:02.95Z</time></trkpt><trkpt lat="42.1960945" lon="13.648215"><ele>557.1999999999999</ele><time>2026-04-11T09:03:03.951Z</time></trkpt><trkpt lat="42.1960157" lon="13.6482988"><ele>557.6</ele><time>2026-04-11T09:03:04.951Z</time></trkpt><trkpt lat="42.1959373" lon="13.6483709"><ele>558.0</ele><time>2026-04-11T09:03:05.951Z</time></trkpt><trkpt lat="42.1958575" lon="13.6484339"><ele>558.0</ele><time>2026-04-11T09:03:06.951Z</time></trkpt><trkpt lat="42.1957983" lon="13.6484759"><ele>558.0</ele><time>2026-04-11T09:03:07.95Z</time></trkpt><trkpt lat="42.1957082" lon="13.6485408"><ele>558.0</ele><time>2026-04-11T09:03:09.951Z</time></trkpt><trkpt lat="42.1956271" lon="13.6485726"><ele>558.0</ele><time>2026-04-11T09:03:11.95Z</time></trkpt><trkpt lat="42.1955479" lon="13.648616"><ele>558.0</ele><time>2026-04-11T09:03:13.951Z</time></trkpt><trkpt lat="42.1954664" lon="13.6486728"><ele>558.0</ele><time>2026-04-11T09:03:15.95Z</time></trkpt><trkpt lat="42.1953817" lon="13.6487273"><ele>560.1999999999999</ele><time>2026-04-11T09:03:17.95Z</time></trkpt><trkpt lat="42.1953014" lon="13.6487917"><ele>562.4</ele><time>2026-04-11T09:03:19.95Z</time></trkpt><trkpt lat="42.1952372" lon="13.6488603"><ele>564.5999999999999</ele><time>2026-04-11T09:03:21.95Z</time></trkpt><trkpt lat="42.1951535" lon="13.6489268"><ele>566.8</ele><time>2026-04-11T09:04:29.951Z</time></trkpt><trkpt lat="42.1951022" lon="13.6490244"><ele>569.0</ele><time>2026-04-11T09:04:30.95Z</time></trkpt><trkpt lat="42.1950466" lon="13.6491376"><ele>569.0</ele><time>2026-04-11T09:04:31.951Z</time></trkpt><trkpt lat="42.1949801" lon="13.6492837"><ele>569.0</ele><time>2026-04-11T09:04:32.951Z</time></trkpt><trkpt lat="42.1949037" lon="13.6494667"><ele>569.0</ele><time>2026-04-11T09:04:33.95Z</time></trkpt><trkpt lat="42.1948141" lon="13.6496622"><ele>574.3333333333333</ele><time>2026-04-11T09:04:34.95Z</time></trkpt><trkpt lat="42.194698" lon="13.6498436"><ele>579.6666666666666</ele><time>2026-04-11T09:04:35.951Z</time></trkpt><trkpt lat="42.1945756" lon="13.6500087"><ele>585.0</ele><time>2026-04-11T09:04:36.95Z</time></trkpt><trkpt lat="42.1944464" lon="13.6501524"><ele>585.0</ele><time>2026-04-11T09:04:37.951Z</time></trkpt><trkpt lat="42.1942927" lon="13.6502699"><ele>585.0</ele><time>2026-04-11T09:04:38.951Z</time></trkpt><trkpt lat="42.1941385" lon="13.6503886"><ele>585.0</ele><time>2026-04-11T09:04:39.951Z</time></trkpt><trkpt lat="42.193984" lon="13.6504995"><ele>587.3333333333334</ele><time>2026-04-11T09:04:40.951Z</time></trkpt><trkpt lat="42.1938236" lon="13.6506168"><ele>589.6666666666667</ele><time>2026-04-11T09:04:41.951Z</time></trkpt><trkpt lat="42.1936728" lon="13.6507532"><ele>592.0</ele><time>2026-04-11T09:04:42.951Z</time></trkpt><trkpt lat="42.193532" lon="13.6508994"><ele>592.0</ele><time>2026-04-11T09:04:43.951Z</time></trkpt><trkpt lat="42.1934073" lon="13.6510683"><ele>592.0</ele><time>2026-04-11T09:04:44.951Z</time></trkpt><trkpt lat="42.1933211" lon="13.6512686"><ele>592.0</ele><time>2026-04-11T09:04:45.951Z</time></trkpt><trkpt lat="42.1932676" lon="13.6514464"><ele>590.75</ele><time>2026-04-11T09:04:46.95Z</time></trkpt><trkpt lat="42.1932462" lon="13.6516318"><ele>589.5</ele><time>2026-04-11T09:04:47.951Z</time></trkpt><trkpt lat="42.1932601" lon="13.6518136"><ele>588.25</ele><time>2026-04-11T09:04:48.951Z</time></trkpt><trkpt lat="42.1932976" lon="13.6520074"><ele>587.0</ele><time>2026-04-11T09:04:49.951Z</time></trkpt><trkpt lat="42.1933271" lon="13.6522079"><ele>587.0</ele><time>2026-04-11T09:04:50.95Z</time></trkpt><trkpt lat="42.1933105" lon="13.6524306"><ele>587.0</ele><time>2026-04-11T09:04:51.951Z</time></trkpt><trkpt lat="42.1932997" lon="13.6526433"><ele>587.0</ele><time>2026-04-11T09:04:52.951Z</time></trkpt><trkpt lat="42.1932723" lon="13.6528363"><ele>586.0</ele><time>2026-04-11T09:04:53.951Z</time></trkpt><trkpt lat="42.1932369" lon="13.6529843"><ele>585.0</ele><time>2026-04-11T09:04:54.951Z</time></trkpt><trkpt lat="42.193189" lon="13.6531023"><ele>584.0</ele><time>2026-04-11T09:04:55.951Z</time></trkpt><trkpt lat="42.1931203" lon="13.6531616"><ele>583.0</ele><time>2026-04-11T09:04:56.951Z</time></trkpt><trkpt lat="42.1930461" lon="13.6531656"><ele>582.0</ele><time>2026-04-11T09:04:57.951Z</time></trkpt><trkpt lat="42.1929826" lon="13.6530207"><ele>584.75</ele><time>2026-04-11T09:04:59.95Z</time></trkpt><trkpt lat="42.1929895" lon="13.652895"><ele>587.5</ele><time>2026-04-11T09:05:00.951Z</time></trkpt><trkpt lat="42.1930091" lon="13.652741"><ele>590.25</ele><time>2026-04-11T09:05:01.951Z</time></trkpt><trkpt lat="42.1930382" lon="13.6525742"><ele>593.0</ele><time>2026-04-11T09:05:02.951Z</time></trkpt><trkpt lat="42.193063" lon="13.652416"><ele>597.0</ele><time>2026-04-11T09:05:03.951Z</time></trkpt><trkpt lat="42.1930599" lon="13.6522767"><ele>601.0</ele><time>2026-04-11T09:05:04.951Z</time></trkpt><trkpt lat="42.1930205" lon="13.6521747"><ele>605.0</ele><time>2026-04-11T09:05:05.951Z</time></trkpt><trkpt lat="42.1929573" lon="13.6521289"><ele>609.0</ele><time>2026-04-11T09:05:06.95Z</time></trkpt><trkpt lat="42.1928603" lon="13.6522289"><ele>613.0</ele><time>2026-04-11T09:05:08.951Z</time></trkpt><trkpt lat="42.1928362" lon="13.6523609"><ele>613.0</ele><time>2026-04-11T09:05:09.951Z</time></trkpt><trkpt lat="42.1927958" lon="13.6525117"><ele>613.0</ele><time>2026-04-11T09:05:10.95Z</time></trkpt><trkpt lat="42.1927206" lon="13.6526676"><ele>613.0</ele><time>2026-04-11T09:05:11.951Z</time></trkpt><trkpt lat="42.1926068" lon="13.6527996"><ele>613.0</ele><time>2026-04-11T09:05:12.951Z</time></trkpt><trkpt lat="42.1925045" lon="13.6528746"><ele>613.0</ele><time>2026-04-11T09:05:13.951Z</time></trkpt><trkpt lat="42.1924228" lon="13.6528894"><ele>613.0</ele><time>2026-04-11T09:05:14.951Z</time></trkpt><trkpt lat="42.1923595" lon="13.6527655"><ele>613.0</ele><time>2026-04-11T09:05:16.951Z</time></trkpt><trkpt lat="42.1923926" lon="13.6526902"><ele>613.0</ele><time>2026-04-11T09:05:17.951Z</time></trkpt><trkpt lat="42.1924572" lon="13.6526118"><ele>613.0</ele><time>2026-04-11T09:05:18.951Z</time></trkpt><trkpt lat="42.1925609" lon="13.652526"><ele>613.0</ele><time>2026-04-11T09:05:19.95Z</time></trkpt><trkpt lat="42.192617" lon="13.6524269"><ele>613.0</ele><time>2026-04-11T09:05:20.951Z</time></trkpt><trkpt lat="42.1926295" lon="13.652317"><ele>613.0</ele><time>2026-04-11T09:05:21.951Z</time></trkpt><trkpt lat="42.1926023" lon="13.6522242"><ele>613.0</ele><time>2026-04-11T09:05:22.951Z</time></trkpt><trkpt lat="42.1925404" lon="13.6521893"><ele>613.0</ele><time>2026-04-11T09:05:23.95Z</time></trkpt><trkpt lat="42.1924525" lon="13.6522297"><ele>613.0</ele><time>2026-04-11T09:05:24.951Z</time></trkpt><trkpt lat="42.1923577" lon="13.6523222"><ele>616.5</ele><time>2026-04-11T09:05:25.951Z</time></trkpt><trkpt lat="42.1922415" lon="13.652437"><ele>620.0</ele><time>2026-04-11T09:05:26.951Z</time></trkpt><trkpt lat="42.1921188" lon="13.6525563"><ele>623.5</ele><time>2026-04-11T09:05:27.95Z</time></trkpt><trkpt lat="42.191994" lon="13.6526459"><ele>627.0</ele><time>2026-04-11T09:05:28.951Z</time></trkpt><trkpt lat="42.1918597" lon="13.6527074"><ele>627.0</ele><time>2026-04-11T09:05:29.951Z</time></trkpt><trkpt lat="42.1917087" lon="13.6527306"><ele>627.0</ele><time>2026-04-11T09:05:30.951Z</time></trkpt><trkpt lat="42.1915506" lon="13.6527466"><ele>627.0</ele><time>2026-04-11T09:05:31.951Z</time></trkpt><trkpt lat="42.1913963" lon="13.6528031"><ele>628.0</ele><time>2026-04-11T09:05:32.95Z</time></trkpt><trkpt lat="42.1912476" lon="13.6528895"><ele>629.0</ele><time>2026-04-11T09:05:33.951Z</time></trkpt><trkpt lat="42.1911077" lon="13.6530246"><ele>630.0</ele><time>2026-04-11T09:05:34.951Z</time></trkpt><trkpt lat="42.1909607" lon="13.6531702"><ele>630.0</ele><time>2026-04-11T09:05:35.95Z</time></trkpt><trkpt lat="42.1907996" lon="13.6532938"><ele>630.0</ele><time>2026-04-11T09:05:36.951Z</time></trkpt><trkpt lat="42.190621" lon="13.6534009"><ele>630.0</ele><time>2026-04-11T09:05:37.951Z</time></trkpt><trkpt lat="42.1904536" lon="13.6534846"><ele>632.3333333333334</ele><time>2026-04-11T09:05:38.95Z</time></trkpt><trkpt lat="42.1902963" lon="13.6535597"><ele>634.6666666666667</ele><time>2026-04-11T09:05:39.951Z</time></trkpt><trkpt lat="42.1901485" lon="13.6536216"><ele>637.0</ele><time>2026-04-11T09:05:40.951Z</time></trkpt><trkpt lat="42.190014" lon="13.6536755"><ele>637.0</ele><time>2026-04-11T09:05:41.951Z</time></trkpt><trkpt lat="42.1898884" lon="13.6537329"><ele>637.0</ele><time>2026-04-11T09:05:42.951Z</time></trkpt><trkpt lat="42.1897821" lon="13.6538043"><ele>637.0</ele><time>2026-04-11T09:05:43.95Z</time></trkpt><trkpt lat="42.1897168" lon="13.6539103"><ele>637.0</ele><time>2026-04-11T09:05:44.951Z</time></trkpt><trkpt lat="42.1896901" lon="13.6540336"><ele>637.0</ele><time>2026-04-11T09:05:45.951Z</time></trkpt><trkpt lat="42.1897075" lon="13.6541743"><ele>638.5</ele><time>2026-04-11T09:05:46.95Z</time></trkpt><trkpt lat="42.1897596" lon="13.6543252"><ele>640.0</ele><time>2026-04-11T09:05:47.951Z</time></trkpt><trkpt lat="42.1898176" lon="13.65448"><ele>641.5</ele><time>2026-04-11T09:05:48.951Z</time></trkpt><trkpt lat="42.1898646" lon="13.6546337"><ele>643.0</ele><time>2026-04-11T09:05:49.951Z</time></trkpt><trkpt lat="42.1899141" lon="13.6547724"><ele>643.0</ele><time>2026-04-11T09:05:50.951Z</time></trkpt><trkpt lat="42.1899502" lon="13.6549041"><ele>643.0</ele><time>2026-04-11T09:05:51.95Z</time></trkpt><trkpt lat="42.1899631" lon="13.6550229"><ele>643.0</ele><time>2026-04-11T09:05:52.951Z</time></trkpt><trkpt lat="42.1899412" lon="13.655136"><ele>643.0</ele><time>2026-04-11T09:05:53.951Z</time></trkpt><trkpt lat="42.1898751" lon="13.6552223"><ele>643.0</ele><time>2026-04-11T09:05:54.95Z</time></trkpt><trkpt lat="42.1897849" lon="13.655291"><ele>645.25</ele><time>2026-04-11T09:05:55.951Z</time></trkpt><trkpt lat="42.1896595" lon="13.655352"><ele>647.5</ele><time>2026-04-11T09:05:56.951Z</time></trkpt><trkpt lat="42.1895333" lon="13.655422"><ele>649.75</ele><time>2026-04-11T09:05:57.951Z</time></trkpt><trkpt lat="42.1893921" lon="13.6554994"><ele>652.0</ele><time>2026-04-11T09:05:58.951Z</time></trkpt><trkpt lat="42.1892382" lon="13.655589"><ele>652.0</ele><time>2026-04-11T09:05:59.95Z</time></trkpt><trkpt lat="42.1890859" lon="13.6556835"><ele>652.0</ele><time>2026-04-11T09:06:00.951Z</time></trkpt><trkpt lat="42.1889009" lon="13.6557674"><ele>652.0</ele><time>2026-04-11T09:06:01.951Z</time></trkpt><trkpt lat="42.1887267" lon="13.6558348"><ele>653.75</ele><time>2026-04-11T09:06:02.95Z</time></trkpt><trkpt lat="42.1885644" lon="13.6558914"><ele>655.5</ele><time>2026-04-11T09:06:03.951Z</time></trkpt><trkpt lat="42.1884222" lon="13.655938"><ele>657.25</ele><time>2026-04-11T09:06:04.951Z</time></trkpt><trkpt lat="42.188309" lon="13.6559843"><ele>659.0</ele><time>2026-04-11T09:06:05.951Z</time></trkpt><trkpt lat="42.1882265" lon="13.6560367"><ele>659.8333333333333</ele><time>2026-04-11T09:06:06.951Z</time></trkpt><trkpt lat="42.188166" lon="13.6561153"><ele>660.6666666666666</ele><time>2026-04-11T09:06:07.95Z</time></trkpt><trkpt lat="42.1881628" lon="13.6562179"><ele>661.5</ele><time>2026-04-11T09:06:08.951Z</time></trkpt><trkpt lat="42.1881892" lon="13.6562988"><ele>662.3333333333334</ele><time>2026-04-11T09:06:09.951Z</time></trkpt><trkpt lat="42.1882566" lon="13.6563481"><ele>663.1666666666667</ele><time>2026-04-11T09:06:10.951Z</time></trkpt><trkpt lat="42.1883472" lon="13.6563656"><ele>664.0</ele><time>2026-04-11T09:06:11.951Z</time></trkpt><trkpt lat="42.1884898" lon="13.6563534"><ele>664.3333333333334</ele><time>2026-04-11T09:06:12.95Z</time></trkpt><trkpt lat="42.1886416" lon="13.6563314"><ele>664.6666666666666</ele><time>2026-04-11T09:06:13.951Z</time></trkpt><trkpt lat="42.1888003" lon="13.6563226"><ele>665.0</ele><time>2026-04-11T09:06:14.951Z</time></trkpt><trkpt lat="42.1889508" lon="13.6563068"><ele>663.75</ele><time>2026-04-11T09:06:15.95Z</time></trkpt><trkpt lat="42.1890828" lon="13.6562951"><ele>662.5</ele><time>2026-04-11T09:06:16.951Z</time></trkpt><trkpt lat="42.189209" lon="13.656277"><ele>661.25</ele><time>2026-04-11T09:06:17.95Z</time></trkpt><trkpt lat="42.1893263" lon="13.6562661"><ele>660.0</ele><time>2026-04-11T09:06:18.951Z</time></trkpt><trkpt lat="42.18942" lon="13.6562819"><ele>660.0</ele><time>2026-04-11T09:06:19.951Z</time></trkpt><trkpt lat="42.1894837" lon="13.6563377"><ele>660.0</ele><time>2026-04-11T09:06:20.951Z</time></trkpt><trkpt lat="42.1894987" lon="13.6564898"><ele>660.0</ele><time>2026-04-11T09:06:22.951Z</time></trkpt><trkpt lat="42.1894225" lon="13.6565229"><ele>660.0</ele><time>2026-04-11T09:06:23.951Z</time></trkpt><trkpt lat="42.1893335" lon="13.6565385"><ele>660.0</ele><time>2026-04-11T09:06:24.951Z</time></trkpt><trkpt lat="42.1892038" lon="13.6565354"><ele>660.0</ele><time>2026-04-11T09:06:25.95Z</time></trkpt><trkpt lat="42.1890415" lon="13.6565343"><ele>660.0</ele><time>2026-04-11T09:06:26.951Z</time></trkpt><trkpt lat="42.1888508" lon="13.6565335"><ele>660.0</ele><time>2026-04-11T09:06:27.951Z</time></trkpt><trkpt lat="42.1886591" lon="13.6565334"><ele>662.5</ele><time>2026-04-11T09:06:28.951Z</time></trkpt><trkpt lat="42.1884011" lon="13.6565536"><ele>665.0</ele><time>2026-04-11T09:06:29.951Z</time></trkpt><trkpt lat="42.1881737" lon="13.656572"><ele>667.0</ele><time>2026-04-11T09:06:30.95Z</time></trkpt><trkpt lat="42.18794" lon="13.6566024"><ele>669.0</ele><time>2026-04-11T09:06:31.951Z</time></trkpt><trkpt lat="42.1877123" lon="13.6566464"><ele>669.0</ele><time>2026-04-11T09:06:32.951Z</time></trkpt><trkpt lat="42.1874787" lon="13.6567061"><ele>669.0</ele><time>2026-04-11T09:06:33.951Z</time></trkpt><trkpt lat="42.1872577" lon="13.6567636"><ele>671.3333333333334</ele><time>2026-04-11T09:06:34.95Z</time></trkpt><trkpt lat="42.1870391" lon="13.6568171"><ele>673.6666666666667</ele><time>2026-04-11T09:06:35.951Z</time></trkpt><trkpt lat="42.1868269" lon="13.6568683"><ele>676.0</ele><time>2026-04-11T09:06:36.951Z</time></trkpt><trkpt lat="42.1866149" lon="13.6569178"><ele>682.6666666666667</ele><time>2026-04-11T09:06:37.95Z</time></trkpt><trkpt lat="42.1864075" lon="13.656968"><ele>689.3333333333334</ele><time>2026-04-11T09:06:38.95Z</time></trkpt><trkpt lat="42.1862057" lon="13.657019"><ele>696.0</ele><time>2026-04-11T09:06:39.95Z</time></trkpt><trkpt lat="42.1860121" lon="13.657074"><ele>696.0</ele><time>2026-04-11T09:06:40.951Z</time></trkpt><trkpt lat="42.1858243" lon="13.6571202"><ele>696.0</ele><time>2026-04-11T09:06:41.95Z</time></trkpt><trkpt lat="42.1856425" lon="13.6571688"><ele>696.0</ele><time>2026-04-11T09:06:42.95Z</time></trkpt><trkpt lat="42.1854628" lon="13.6572264"><ele>694.0</ele><time>2026-04-11T09:06:43.951Z</time></trkpt><trkpt lat="42.1852943" lon="13.6573153"><ele>692.0</ele><time>2026-04-11T09:06:44.951Z</time></trkpt><trkpt lat="42.185136" lon="13.6574373"><ele>690.0</ele><time>2026-04-11T09:06:45.951Z</time></trkpt><trkpt lat="42.1849819" lon="13.6575796"><ele>689.3333333333334</ele><time>2026-04-11T09:06:46.951Z</time></trkpt><trkpt lat="42.1848317" lon="13.6577347"><ele>688.6666666666667</ele><time>2026-04-11T09:06:47.951Z</time></trkpt><trkpt lat="42.1846857" lon="13.6578785"><ele>688.0</ele><time>2026-04-11T09:06:48.951Z</time></trkpt><trkpt lat="42.1845478" lon="13.6580299"><ele>687.3333333333334</ele><time>2026-04-11T09:06:49.95Z</time></trkpt><trkpt lat="42.1844098" lon="13.6581788"><ele>686.6666666666666</ele><time>2026-04-11T09:06:50.95Z</time></trkpt><trkpt lat="42.1842563" lon="13.6583167"><ele>686.0</ele><time>2026-04-11T09:06:51.951Z</time></trkpt><trkpt lat="42.1840952" lon="13.6584483"><ele>687.0</ele><time>2026-04-11T09:06:52.951Z</time></trkpt><trkpt lat="42.1839196" lon="13.6585737"><ele>688.0</ele><time>2026-04-11T09:06:53.95Z</time></trkpt><trkpt lat="42.1837325" lon="13.6586961"><ele>689.0</ele><time>2026-04-11T09:06:54.951Z</time></trkpt><trkpt lat="42.1835379" lon="13.6588125"><ele>688.5</ele><time>2026-04-11T09:06:55.95Z</time></trkpt><trkpt lat="42.1833297" lon="13.6589258"><ele>688.0</ele><time>2026-04-11T09:06:56.951Z</time></trkpt><trkpt lat="42.1831156" lon="13.6590385"><ele>688.0</ele><time>2026-04-11T09:06:57.951Z</time></trkpt><trkpt lat="42.1829128" lon="13.6591496"><ele>688.0</ele><time>2026-04-11T09:06:58.95Z</time></trkpt><trkpt lat="42.1827093" lon="13.6592512"><ele>688.0</ele><time>2026-04-11T09:06:59.95Z</time></trkpt><trkpt lat="42.1825084" lon="13.659359"><ele>687.0</ele><time>2026-04-11T09:07:00.951Z</time></trkpt><trkpt lat="42.1823054" lon="13.6594881"><ele>686.0</ele><time>2026-04-11T09:07:01.951Z</time></trkpt><trkpt lat="42.1821114" lon="13.6596296"><ele>685.0</ele><time>2026-04-11T09:07:02.951Z</time></trkpt><trkpt lat="42.1819194" lon="13.6598004"><ele>685.0</ele><time>2026-04-11T09:07:03.951Z</time></trkpt><trkpt lat="42.181737" lon="13.6599951"><ele>685.0</ele><time>2026-04-11T09:07:04.951Z</time></trkpt><trkpt lat="42.1815581" lon="13.6601937"><ele>687.0</ele><time>2026-04-11T09:07:05.951Z</time></trkpt><trkpt lat="42.1813807" lon="13.6604036"><ele>689.0</ele><time>2026-04-11T09:07:06.951Z</time></trkpt><trkpt lat="42.1812083" lon="13.6606132"><ele>689.0</ele><time>2026-04-11T09:07:07.951Z</time></trkpt><trkpt lat="42.1810462" lon="13.6608364"><ele>689.0</ele><time>2026-04-11T09:07:08.95Z</time></trkpt><trkpt lat="42.1808908" lon="13.6610618"><ele>689.3333333333333</ele><time>2026-04-11T09:07:09.951Z</time></trkpt><trkpt lat="42.180741" lon="13.6612824"><ele>689.6666666666666</ele><time>2026-04-11T09:07:10.951Z</time></trkpt><trkpt lat="42.1805862" lon="13.6614822"><ele>690.0</ele><time>2026-04-11T09:07:11.951Z</time></trkpt><trkpt lat="42.1804276" lon="13.6616474"><ele>690.0</ele><time>2026-04-11T09:07:12.951Z</time></trkpt><trkpt lat="42.1802602" lon="13.6618077"><ele>690.0</ele><time>2026-04-11T09:07:13.951Z</time></trkpt><trkpt lat="42.1800877" lon="13.6619784"><ele>690.0</ele><time>2026-04-11T09:07:14.95Z</time></trkpt><trkpt lat="42.1799203" lon="13.6621581"><ele>688.6666666666666</ele><time>2026-04-11T09:07:15.951Z</time></trkpt><trkpt lat="42.179765" lon="13.662338"><ele>687.3333333333333</ele><time>2026-04-11T09:07:16.951Z</time></trkpt><trkpt lat="42.1796217" lon="13.6625186"><ele>686.0</ele><time>2026-04-11T09:07:17.95Z</time></trkpt><trkpt lat="42.1794903" lon="13.6626976"><ele>686.25</ele><time>2026-04-11T09:07:18.951Z</time></trkpt><trkpt lat="42.1793656" lon="13.6628662"><ele>686.5</ele><time>2026-04-11T09:07:19.951Z</time></trkpt><trkpt lat="42.1792612" lon="13.6630122"><ele>686.75</ele><time>2026-04-11T09:07:20.95Z</time></trkpt><trkpt lat="42.1791818" lon="13.6631231"><ele>687.0</ele><time>2026-04-11T09:07:21.951Z</time></trkpt><trkpt lat="42.1791119" lon="13.6632215"><ele>687.0</ele><time>2026-04-11T09:07:22.951Z</time></trkpt><trkpt lat="42.1790494" lon="13.6633204"><ele>687.0</ele><time>2026-04-11T09:07:23.95Z</time></trkpt><trkpt lat="42.178981" lon="13.6634147"><ele>687.0</ele><time>2026-04-11T09:07:24.951Z</time></trkpt><trkpt lat="42.1789059" lon="13.6635089"><ele>687.0</ele><time>2026-04-11T09:07:25.951Z</time></trkpt><trkpt lat="42.1788233" lon="13.6636056"><ele>687.0</ele><time>2026-04-11T09:07:26.95Z</time></trkpt><trkpt lat="42.1787272" lon="13.663707"><ele>688.75</ele><time>2026-04-11T09:07:27.95Z</time></trkpt><trkpt lat="42.1786171" lon="13.6638228"><ele>690.5</ele><time>2026-04-11T09:07:28.95Z</time></trkpt><trkpt lat="42.1785" lon="13.6639346"><ele>692.25</ele><time>2026-04-11T09:07:29.95Z</time></trkpt><trkpt lat="42.1783842" lon="13.6640335"><ele>694.0</ele><time>2026-04-11T09:07:30.95Z</time></trkpt><trkpt lat="42.1782721" lon="13.6641235"><ele>695.0</ele><time>2026-04-11T09:07:31.951Z</time></trkpt><trkpt lat="42.1781605" lon="13.6642106"><ele>696.0</ele><time>2026-04-11T09:07:32.951Z</time></trkpt><trkpt lat="42.1780476" lon="13.6642874"><ele>697.0</ele><time>2026-04-11T09:07:33.951Z</time></trkpt><trkpt lat="42.1779409" lon="13.6643644"><ele>698.0</ele><time>2026-04-11T09:07:34.951Z</time></trkpt><trkpt lat="42.1778118" lon="13.6644593"><ele>699.0</ele><time>2026-04-11T09:07:35.95Z</time></trkpt><trkpt lat="42.1776921" lon="13.6645553"><ele>700.0</ele><time>2026-04-11T09:07:36.95Z</time></trkpt><trkpt lat="42.1775646" lon="13.6646513"><ele>701.0</ele><time>2026-04-11T09:07:37.951Z</time></trkpt><trkpt lat="42.1774389" lon="13.6647576"><ele>702.0</ele><time>2026-04-11T09:07:38.95Z</time></trkpt><trkpt lat="42.1773202" lon="13.6648842"><ele>705.0</ele><time>2026-04-11T09:07:39.951Z</time></trkpt><trkpt lat="42.1772081" lon="13.6650207"><ele>708.0</ele><time>2026-04-11T09:07:40.951Z</time></trkpt><trkpt lat="42.1771054" lon="13.6651679"><ele>711.0</ele><time>2026-04-11T09:07:41.951Z</time></trkpt><trkpt lat="42.177001" lon="13.6653125"><ele>712.0</ele><time>2026-04-11T09:07:42.95Z</time></trkpt><trkpt lat="42.1768939" lon="13.6654491"><ele>713.0</ele><time>2026-04-11T09:07:43.951Z</time></trkpt><trkpt lat="42.1767764" lon="13.6655809"><ele>714.0</ele><time>2026-04-11T09:07:44.951Z</time></trkpt><trkpt lat="42.1766557" lon="13.6657096"><ele>714.0</ele><time>2026-04-11T09:07:45.951Z</time></trkpt><trkpt lat="42.1765384" lon="13.6658355"><ele>714.0</ele><time>2026-04-11T09:07:46.949Z</time></trkpt><trkpt lat="42.1764182" lon="13.6659705"><ele>714.0</ele><time>2026-04-11T09:07:47.95Z</time></trkpt><trkpt lat="42.1763136" lon="13.6661213"><ele>717.6666666666666</ele><time>2026-04-11T09:07:48.951Z</time></trkpt><trkpt lat="42.1762294" lon="13.6662987"><ele>721.3333333333333</ele><time>2026-04-11T09:07:49.95Z</time></trkpt><trkpt lat="42.1761475" lon="13.6664833"><ele>725.0</ele><time>2026-04-11T09:07:50.951Z</time></trkpt><trkpt lat="42.1760553" lon="13.6666747"><ele>725.0</ele><time>2026-04-11T09:07:51.951Z</time></trkpt><trkpt lat="42.1759671" lon="13.666876"><ele>725.0</ele><time>2026-04-11T09:07:52.951Z</time></trkpt><trkpt lat="42.175877" lon="13.6670838"><ele>725.0</ele><time>2026-04-11T09:07:53.95Z</time></trkpt><trkpt lat="42.1757863" lon="13.6672954"><ele>725.0</ele><time>2026-04-11T09:07:54.951Z</time></trkpt><trkpt lat="42.175693" lon="13.6675067"><ele>725.0</ele><time>2026-04-11T09:07:55.951Z</time></trkpt><trkpt lat="42.1755922" lon="13.6677182"><ele>725.0</ele><time>2026-04-11T09:07:56.95Z</time></trkpt><trkpt lat="42.1754837" lon="13.667944"><ele>725.0</ele><time>2026-04-11T09:07:57.951Z</time></trkpt><trkpt lat="42.1753702" lon="13.6681807"><ele>725.0</ele><time>2026-04-11T09:07:58.951Z</time></trkpt><trkpt lat="42.1752589" lon="13.66843"><ele>725.0</ele><time>2026-04-11T09:07:59.951Z</time></trkpt><trkpt lat="42.1751475" lon="13.6686807"><ele>723.0</ele><time>2026-04-11T09:08:00.95Z</time></trkpt><trkpt lat="42.175035" lon="13.6689225"><ele>721.0</ele><time>2026-04-11T09:08:01.951Z</time></trkpt><trkpt lat="42.1749348" lon="13.6691606"><ele>719.0</ele><time>2026-04-11T09:08:02.951Z</time></trkpt><trkpt lat="42.1748356" lon="13.6693881"><ele>720.3333333333333</ele><time>2026-04-11T09:08:03.951Z</time></trkpt><trkpt lat="42.1747445" lon="13.6696111"><ele>721.6666666666666</ele><time>2026-04-11T09:08:04.951Z</time></trkpt><trkpt lat="42.1746597" lon="13.6698463"><ele>723.0</ele><time>2026-04-11T09:08:05.95Z</time></trkpt><trkpt lat="42.1745901" lon="13.6700988"><ele>722.6666666666666</ele><time>2026-04-11T09:08:06.951Z</time></trkpt><trkpt lat="42.17453" lon="13.6703799"><ele>722.3333333333333</ele><time>2026-04-11T09:08:07.951Z</time></trkpt><trkpt lat="42.1744742" lon="13.6706706"><ele>722.0</ele><time>2026-04-11T09:08:08.951Z</time></trkpt><trkpt lat="42.174419" lon="13.6709611"><ele>720.5</ele><time>2026-04-11T09:08:09.95Z</time></trkpt><trkpt lat="42.1743604" lon="13.6712568"><ele>719.0</ele><time>2026-04-11T09:08:10.951Z</time></trkpt><trkpt lat="42.1743047" lon="13.6715548"><ele>719.0</ele><time>2026-04-11T09:08:11.951Z</time></trkpt><trkpt lat="42.174252" lon="13.6718387"><ele>719.0</ele><time>2026-04-11T09:08:12.95Z</time></trkpt><trkpt lat="42.1742036" lon="13.6721146"><ele>719.0</ele><time>2026-04-11T09:08:13.95Z</time></trkpt><trkpt lat="42.1741529" lon="13.6723919"><ele>718.3333333333333</ele><time>2026-04-11T09:08:14.951Z</time></trkpt><trkpt lat="42.1741013" lon="13.6726749"><ele>717.6666666666666</ele><time>2026-04-11T09:08:15.951Z</time></trkpt><trkpt lat="42.1740489" lon="13.6729622"><ele>717.0</ele><time>2026-04-11T09:08:16.951Z</time></trkpt><trkpt lat="42.1739957" lon="13.6732364"><ele>725.3333333333334</ele><time>2026-04-11T09:08:17.95Z</time></trkpt><trkpt lat="42.1739704" lon="13.6735194"><ele>733.6666666666667</ele><time>2026-04-11T09:08:18.951Z</time></trkpt><trkpt lat="42.1739566" lon="13.6738021"><ele>742.0</ele><time>2026-04-11T09:08:19.951Z</time></trkpt><trkpt lat="42.1739535" lon="13.6740789"><ele>742.0</ele><time>2026-04-11T09:08:20.951Z</time></trkpt><trkpt lat="42.1739468" lon="13.6743426"><ele>742.0</ele><time>2026-04-11T09:08:21.951Z</time></trkpt><trkpt lat="42.1739457" lon="13.6746034"><ele>742.0</ele><time>2026-04-11T09:08:22.95Z</time></trkpt><trkpt lat="42.1739459" lon="13.6748561"><ele>742.0</ele><time>2026-04-11T09:08:23.95Z</time></trkpt><trkpt lat="42.1739465" lon="13.6751101"><ele>742.0</ele><time>2026-04-11T09:08:24.95Z</time></trkpt><trkpt lat="42.173949" lon="13.6753645"><ele>742.0</ele><time>2026-04-11T09:08:25.95Z</time></trkpt><trkpt lat="42.1739533" lon="13.6756265"><ele>742.0</ele><time>2026-04-11T09:08:26.95Z</time></trkpt><trkpt lat="42.1739513" lon="13.6758908"><ele>742.0</ele><time>2026-04-11T09:08:27.951Z</time></trkpt><trkpt lat="42.1739502" lon="13.6761675"><ele>742.0</ele><time>2026-04-11T09:08:28.95Z</time></trkpt><trkpt lat="42.1739483" lon="13.6764454"><ele>740.3333333333334</ele><time>2026-04-11T09:08:29.95Z</time></trkpt><trkpt lat="42.1739478" lon="13.6767275"><ele>738.6666666666666</ele><time>2026-04-11T09:08:30.95Z</time></trkpt><trkpt lat="42.1739464" lon="13.6770181"><ele>737.0</ele><time>2026-04-11T09:08:31.951Z</time></trkpt><trkpt lat="42.1739447" lon="13.6773092"><ele>736.3333333333333</ele><time>2026-04-11T09:08:32.951Z</time></trkpt><trkpt lat="42.1739427" lon="13.6776093"><ele>735.6666666666666</ele><time>2026-04-11T09:08:33.951Z</time></trkpt><trkpt lat="42.1739406" lon="13.677909"><ele>735.0</ele><time>2026-04-11T09:08:34.951Z</time></trkpt><trkpt lat="42.1739332" lon="13.6782176"><ele>735.0</ele><time>2026-04-11T09:08:35.951Z</time></trkpt><trkpt lat="42.1739235" lon="13.6785274"><ele>735.0</ele><time>2026-04-11T09:08:36.951Z</time></trkpt><trkpt lat="42.1739182" lon="13.6788351"><ele>736.3333333333334</ele><time>2026-04-11T09:08:37.951Z</time></trkpt><trkpt lat="42.1739084" lon="13.6791388"><ele>737.6666666666667</ele><time>2026-04-11T09:08:38.951Z</time></trkpt><trkpt lat="42.1739028" lon="13.6794364"><ele>739.0</ele><time>2026-04-11T09:08:39.951Z</time></trkpt><trkpt lat="42.1738967" lon="13.6797262"><ele>740.6666666666667</ele><time>2026-04-11T09:08:40.951Z</time></trkpt><trkpt lat="42.1738927" lon="13.6800071"><ele>742.3333333333334</ele><time>2026-04-11T09:08:41.951Z</time></trkpt><trkpt lat="42.1738863" lon="13.6802768"><ele>744.0</ele><time>2026-04-11T09:08:42.951Z</time></trkpt><trkpt lat="42.1738752" lon="13.6805405"><ele>744.6666666666666</ele><time>2026-04-11T09:08:43.951Z</time></trkpt><trkpt lat="42.1738519" lon="13.6807923"><ele>745.3333333333333</ele><time>2026-04-11T09:08:44.95Z</time></trkpt><trkpt lat="42.1738105" lon="13.6810384"><ele>746.0</ele><time>2026-04-11T09:08:45.951Z</time></trkpt><trkpt lat="42.1737548" lon="13.6812754"><ele>746.3333333333333</ele><time>2026-04-11T09:08:46.95Z</time></trkpt><trkpt lat="42.1736935" lon="13.6815161"><ele>746.6666666666666</ele><time>2026-04-11T09:08:47.951Z</time></trkpt><trkpt lat="42.1736337" lon="13.681768"><ele>747.0</ele><time>2026-04-11T09:08:48.95Z</time></trkpt><trkpt lat="42.173561" lon="13.6820202"><ele>745.6666666666666</ele><time>2026-04-11T09:08:49.951Z</time></trkpt><trkpt lat="42.1734872" lon="13.6822749"><ele>744.3333333333333</ele><time>2026-04-11T09:08:50.951Z</time></trkpt><trkpt lat="42.1734094" lon="13.6825407"><ele>743.0</ele><time>2026-04-11T09:08:51.951Z</time></trkpt><trkpt lat="42.1733275" lon="13.6828114"><ele>743.0</ele><time>2026-04-11T09:08:52.951Z</time></trkpt><trkpt lat="42.1732464" lon="13.683087"><ele>743.0</ele><time>2026-04-11T09:08:53.95Z</time></trkpt><trkpt lat="42.1731626" lon="13.6833622"><ele>743.0</ele><time>2026-04-11T09:08:54.951Z</time></trkpt><trkpt lat="42.1730815" lon="13.6836387"><ele>749.6666666666666</ele><time>2026-04-11T09:08:55.95Z</time></trkpt><trkpt lat="42.1730006" lon="13.6839176"><ele>756.3333333333334</ele><time>2026-04-11T09:08:56.951Z</time></trkpt><trkpt lat="42.1729167" lon="13.684193"><ele>763.0</ele><time>2026-04-11T09:08:57.951Z</time></trkpt><trkpt lat="42.1728315" lon="13.6844752"><ele>763.0</ele><time>2026-04-11T09:08:58.951Z</time></trkpt><trkpt lat="42.1727433" lon="13.6847554"><ele>763.0</ele><time>2026-04-11T09:08:59.951Z</time></trkpt><trkpt lat="42.1726525" lon="13.6850436"><ele>760.5</ele><time>2026-04-11T09:09:00.95Z</time></trkpt><trkpt lat="42.1725609" lon="13.6853491"><ele>758.0</ele><time>2026-04-11T09:09:01.951Z</time></trkpt><trkpt lat="42.1724684" lon="13.6856731"><ele>758.0</ele><time>2026-04-11T09:09:02.951Z</time></trkpt><trkpt lat="42.1723792" lon="13.6860112"><ele>758.0</ele><time>2026-04-11T09:09:03.95Z</time></trkpt><trkpt lat="42.1722982" lon="13.6863552"><ele>771.5</ele><time>2026-04-11T09:09:04.95Z</time></trkpt><trkpt lat="42.1722242" lon="13.6867049"><ele>785.0</ele><time>2026-04-11T09:09:05.951Z</time></trkpt><trkpt lat="42.1721566" lon="13.6870568"><ele>785.0</ele><time>2026-04-11T09:09:06.951Z</time></trkpt><trkpt lat="42.1720899" lon="13.6874073"><ele>785.0</ele><time>2026-04-11T09:09:07.951Z</time></trkpt><trkpt lat="42.1720262" lon="13.6877414"><ele>782.5</ele><time>2026-04-11T09:09:08.95Z</time></trkpt><trkpt lat="42.1719648" lon="13.6880686"><ele>780.0</ele><time>2026-04-11T09:09:09.95Z</time></trkpt><trkpt lat="42.1719074" lon="13.6883881"><ele>777.5</ele><time>2026-04-11T09:09:10.95Z</time></trkpt><trkpt lat="42.1718569" lon="13.6886961"><ele>775.0</ele><time>2026-04-11T09:09:11.951Z</time></trkpt><trkpt lat="42.1718212" lon="13.6889916"><ele>775.0</ele><time>2026-04-11T09:09:12.951Z</time></trkpt><trkpt lat="42.1717936" lon="13.6892662"><ele>775.0</ele><time>2026-04-11T09:09:13.951Z</time></trkpt><trkpt lat="42.1717688" lon="13.6895183"><ele>775.0</ele><time>2026-04-11T09:09:14.951Z</time></trkpt><trkpt lat="42.1717486" lon="13.6897462"><ele>774.75</ele><time>2026-04-11T09:09:15.95Z</time></trkpt><trkpt lat="42.1717426" lon="13.6899517"><ele>774.5</ele><time>2026-04-11T09:09:16.951Z</time></trkpt><trkpt lat="42.1717678" lon="13.690149"><ele>774.25</ele><time>2026-04-11T09:09:17.951Z</time></trkpt><trkpt lat="42.1718359" lon="13.6903157"><ele>774.0</ele><time>2026-04-11T09:09:18.951Z</time></trkpt><trkpt lat="42.1719364" lon="13.6904391"><ele>771.5</ele><time>2026-04-11T09:09:19.951Z</time></trkpt><trkpt lat="42.1720697" lon="13.6905284"><ele>769.0</ele><time>2026-04-11T09:09:20.95Z</time></trkpt><trkpt lat="42.1722099" lon="13.690599"><ele>766.5</ele><time>2026-04-11T09:09:21.951Z</time></trkpt><trkpt lat="42.1723246" lon="13.6906968"><ele>764.0</ele><time>2026-04-11T09:09:22.95Z</time></trkpt><trkpt lat="42.1724138" lon="13.6908288"><ele>764.0</ele><time>2026-04-11T09:09:23.951Z</time></trkpt><trkpt lat="42.1724729" lon="13.6909894"><ele>764.0</ele><time>2026-04-11T09:09:24.951Z</time></trkpt><trkpt lat="42.1725052" lon="13.6911778"><ele>764.0</ele><time>2026-04-11T09:09:25.95Z</time></trkpt><trkpt lat="42.1725149" lon="13.6913849"><ele>764.0</ele><time>2026-04-11T09:09:26.95Z</time></trkpt><trkpt lat="42.172504" lon="13.691603"><ele>766.3333333333333</ele><time>2026-04-11T09:09:27.95Z</time></trkpt><trkpt lat="42.1724621" lon="13.691818"><ele>768.6666666666666</ele><time>2026-04-11T09:09:28.95Z</time></trkpt><trkpt lat="42.1724194" lon="13.6920175"><ele>771.0</ele><time>2026-04-11T09:09:29.951Z</time></trkpt><trkpt lat="42.1724215" lon="13.692213"><ele>771.0</ele><time>2026-04-11T09:09:30.951Z</time></trkpt><trkpt lat="42.1724649" lon="13.6924001"><ele>771.0</ele><time>2026-04-11T09:09:31.95Z</time></trkpt><trkpt lat="42.1725408" lon="13.6925599"><ele>771.0</ele><time>2026-04-11T09:09:32.95Z</time></trkpt><trkpt lat="42.172594" lon="13.6927267"><ele>771.0</ele><time>2026-04-11T09:09:33.951Z</time></trkpt><trkpt lat="42.1726252" lon="13.6929105"><ele>773.3333333333333</ele><time>2026-04-11T09:09:34.951Z</time></trkpt><trkpt lat="42.1726272" lon="13.6931037"><ele>775.6666666666666</ele><time>2026-04-11T09:09:35.95Z</time></trkpt><trkpt lat="42.1726093" lon="13.6933023"><ele>778.0</ele><time>2026-04-11T09:09:36.951Z</time></trkpt><trkpt lat="42.1725689" lon="13.6935154"><ele>775.6666666666666</ele><time>2026-04-11T09:09:37.95Z</time></trkpt><trkpt lat="42.1725116" lon="13.6937355"><ele>773.3333333333333</ele><time>2026-04-11T09:09:38.951Z</time></trkpt><trkpt lat="42.1724416" lon="13.6939521"><ele>771.0</ele><time>2026-04-11T09:09:39.951Z</time></trkpt><trkpt lat="42.1723537" lon="13.6941628"><ele>776.3333333333333</ele><time>2026-04-11T09:09:40.951Z</time></trkpt><trkpt lat="42.172249" lon="13.6943716"><ele>781.6666666666666</ele><time>2026-04-11T09:09:41.951Z</time></trkpt><trkpt lat="42.1721305" lon="13.6945791"><ele>787.0</ele><time>2026-04-11T09:09:42.951Z</time></trkpt><trkpt lat="42.1719969" lon="13.6947654"><ele>787.0</ele><time>2026-04-11T09:09:43.95Z</time></trkpt><trkpt lat="42.1718545" lon="13.694929"><ele>787.0</ele><time>2026-04-11T09:09:44.951Z</time></trkpt><trkpt lat="42.1717169" lon="13.6950762"><ele>787.0</ele><time>2026-04-11T09:09:45.95Z</time></trkpt><trkpt lat="42.1716017" lon="13.695231"><ele>794.6666666666666</ele><time>2026-04-11T09:09:46.95Z</time></trkpt><trkpt lat="42.1715146" lon="13.6954083"><ele>802.3333333333333</ele><time>2026-04-11T09:09:47.951Z</time></trkpt><trkpt lat="42.171474" lon="13.6955871"><ele>810.0</ele><time>2026-04-11T09:09:48.95Z</time></trkpt><trkpt lat="42.1714799" lon="13.6957943"><ele>810.0</ele><time>2026-04-11T09:09:49.95Z</time></trkpt><trkpt lat="42.171502" lon="13.6959989"><ele>810.0</ele><time>2026-04-11T09:09:50.951Z</time></trkpt><trkpt lat="42.1715102" lon="13.6962038"><ele>810.0</ele><time>2026-04-11T09:09:51.951Z</time></trkpt><trkpt lat="42.1714773" lon="13.6964048"><ele>808.25</ele><time>2026-04-11T09:09:52.951Z</time></trkpt><trkpt lat="42.1714115" lon="13.6965849"><ele>806.5</ele><time>2026-04-11T09:09:53.95Z</time></trkpt><trkpt lat="42.171323" lon="13.6967397"><ele>804.75</ele><time>2026-04-11T09:09:54.951Z</time></trkpt><trkpt lat="42.1712106" lon="13.6968418"><ele>803.0</ele><time>2026-04-11T09:09:55.95Z</time></trkpt><trkpt lat="42.1710818" lon="13.6968917"><ele>803.0</ele><time>2026-04-11T09:09:56.951Z</time></trkpt><trkpt lat="42.1709355" lon="13.6969124"><ele>803.0</ele><time>2026-04-11T09:09:57.951Z</time></trkpt><trkpt lat="42.1707838" lon="13.6969472"><ele>803.0</ele><time>2026-04-11T09:09:58.951Z</time></trkpt><trkpt lat="42.1706346" lon="13.6970267"><ele>801.6666666666667</ele><time>2026-04-11T09:09:59.951Z</time></trkpt><trkpt lat="42.1704986" lon="13.6971497"><ele>800.3333333333333</ele><time>2026-04-11T09:10:00.951Z</time></trkpt><trkpt lat="42.1703712" lon="13.6972412"><ele>799.0</ele><time>2026-04-11T09:10:01.951Z</time></trkpt><trkpt lat="42.1702409" lon="13.6973261"><ele>799.0</ele><time>2026-04-11T09:10:02.951Z</time></trkpt><trkpt lat="42.1701206" lon="13.6972532"><ele>799.0</ele><time>2026-04-11T09:10:03.951Z</time></trkpt><trkpt lat="42.169999" lon="13.6971904"><ele>799.0</ele><time>2026-04-11T09:10:04.95Z</time></trkpt><trkpt lat="42.1698596" lon="13.697112"><ele>799.0</ele><time>2026-04-11T09:10:05.95Z</time></trkpt><trkpt lat="42.1697017" lon="13.6970925"><ele>804.0</ele><time>2026-04-11T09:10:06.951Z</time></trkpt><trkpt lat="42.169544" lon="13.6971137"><ele>809.0</ele><time>2026-04-11T09:10:07.951Z</time></trkpt><trkpt lat="42.1694115" lon="13.6971742"><ele>814.0</ele><time>2026-04-11T09:10:08.95Z</time></trkpt><trkpt lat="42.1692897" lon="13.6972811"><ele>819.0</ele><time>2026-04-11T09:10:09.951Z</time></trkpt><trkpt lat="42.1691823" lon="13.6974302"><ele>819.0</ele><time>2026-04-11T09:10:10.95Z</time></trkpt><trkpt lat="42.1690838" lon="13.6975971"><ele>819.0</ele><time>2026-04-11T09:10:11.951Z</time></trkpt><trkpt lat="42.1689883" lon="13.697748"><ele>819.0</ele><time>2026-04-11T09:10:12.951Z</time></trkpt><trkpt lat="42.1688722" lon="13.6978869"><ele>825.3333333333333</ele><time>2026-04-11T09:10:13.951Z</time></trkpt><trkpt lat="42.1687454" lon="13.6980192"><ele>831.6666666666666</ele><time>2026-04-11T09:10:14.95Z</time></trkpt><trkpt lat="42.1686306" lon="13.698165"><ele>838.0</ele><time>2026-04-11T09:10:15.95Z</time></trkpt><trkpt lat="42.1685338" lon="13.6983304"><ele>838.0</ele><time>2026-04-11T09:10:16.95Z</time></trkpt><trkpt lat="42.1684308" lon="13.6984882"><ele>838.0</ele><time>2026-04-11T09:10:17.951Z</time></trkpt><trkpt lat="42.1683328" lon="13.6986389"><ele>838.0</ele><time>2026-04-11T09:10:18.951Z</time></trkpt><trkpt lat="42.1682439" lon="13.6987911"><ele>838.0</ele><time>2026-04-11T09:10:19.951Z</time></trkpt><trkpt lat="42.1681646" lon="13.6989539"><ele>842.6666666666666</ele><time>2026-04-11T09:10:20.951Z</time></trkpt><trkpt lat="42.168104" lon="13.6991488"><ele>847.3333333333333</ele><time>2026-04-11T09:10:21.951Z</time></trkpt><trkpt lat="42.1680663" lon="13.6993734"><ele>852.0</ele><time>2026-04-11T09:10:22.95Z</time></trkpt><trkpt lat="42.1680332" lon="13.6996088"><ele>852.0</ele><time>2026-04-11T09:10:23.951Z</time></trkpt><trkpt lat="42.1679819" lon="13.6998524"><ele>852.0</ele><time>2026-04-11T09:10:24.951Z</time></trkpt><trkpt lat="42.1679286" lon="13.7000858"><ele>852.0</ele><time>2026-04-11T09:10:25.951Z</time></trkpt><trkpt lat="42.1678714" lon="13.7003061"><ele>850.3333333333333</ele><time>2026-04-11T09:10:26.951Z</time></trkpt><trkpt lat="42.1678154" lon="13.7005088"><ele>848.6666666666666</ele><time>2026-04-11T09:10:27.951Z</time></trkpt><trkpt lat="42.16776" lon="13.7007041"><ele>847.0</ele><time>2026-04-11T09:10:28.951Z</time></trkpt><trkpt lat="42.1677049" lon="13.7008905"><ele>847.0</ele><time>2026-04-11T09:10:29.951Z</time></trkpt><trkpt lat="42.1676529" lon="13.7010617"><ele>847.0</ele><time>2026-04-11T09:10:30.951Z</time></trkpt><trkpt lat="42.1676049" lon="13.701212"><ele>847.0</ele><time>2026-04-11T09:10:31.95Z</time></trkpt><trkpt lat="42.1675327" lon="13.7013266"><ele>847.0</ele><time>2026-04-11T09:10:32.951Z</time></trkpt><trkpt lat="42.1674467" lon="13.7013779"><ele>846.2</ele><time>2026-04-11T09:10:33.95Z</time></trkpt><trkpt lat="42.1673644" lon="13.7013775"><ele>845.4000000000001</ele><time>2026-04-11T09:10:34.95Z</time></trkpt><trkpt lat="42.1672895" lon="13.7013304"><ele>844.5999999999999</ele><time>2026-04-11T09:10:35.951Z</time></trkpt><trkpt lat="42.1672025" lon="13.7012452"><ele>843.8</ele><time>2026-04-11T09:10:36.951Z</time></trkpt><trkpt lat="42.167099" lon="13.7011338"><ele>843.0</ele><time>2026-04-11T09:10:37.951Z</time></trkpt><trkpt lat="42.1669774" lon="13.7010191"><ele>843.0</ele><time>2026-04-11T09:10:38.951Z</time></trkpt><trkpt lat="42.166849" lon="13.7009132"><ele>843.0</ele><time>2026-04-11T09:10:39.95Z</time></trkpt><trkpt lat="42.1667245" lon="13.7008238"><ele>843.0</ele><time>2026-04-11T09:10:40.951Z</time></trkpt><trkpt lat="42.1665926" lon="13.7007531"><ele>843.0</ele><time>2026-04-11T09:10:41.951Z</time></trkpt><trkpt lat="42.166446" lon="13.700722"><ele>841.0</ele><time>2026-04-11T09:10:42.95Z</time></trkpt><trkpt lat="42.1662904" lon="13.7007368"><ele>839.0</ele><time>2026-04-11T09:10:43.951Z</time></trkpt><trkpt lat="42.1661321" lon="13.7007917"><ele>837.0</ele><time>2026-04-11T09:10:44.951Z</time></trkpt><trkpt lat="42.1659837" lon="13.7008585"><ele>837.0</ele><time>2026-04-11T09:10:45.951Z</time></trkpt><trkpt lat="42.1658474" lon="13.7009296"><ele>837.0</ele><time>2026-04-11T09:10:46.951Z</time></trkpt><trkpt lat="42.1657219" lon="13.7009991"><ele>837.0</ele><time>2026-04-11T09:10:47.951Z</time></trkpt><trkpt lat="42.1656124" lon="13.7010494"><ele>837.0</ele><time>2026-04-11T09:10:48.951Z</time></trkpt><trkpt lat="42.1655064" lon="13.7010596"><ele>835.0</ele><time>2026-04-11T09:10:49.951Z</time></trkpt><trkpt lat="42.1654246" lon="13.7010049"><ele>833.0</ele><time>2026-04-11T09:10:50.951Z</time></trkpt><trkpt lat="42.1653539" lon="13.7009129"><ele>831.0</ele><time>2026-04-11T09:10:51.951Z</time></trkpt><trkpt lat="42.1653142" lon="13.7007775"><ele>829.0</ele><time>2026-04-11T09:10:52.951Z</time></trkpt><trkpt lat="42.1653088" lon="13.7005938"><ele>827.0</ele><time>2026-04-11T09:10:53.95Z</time></trkpt><trkpt lat="42.1653151" lon="13.7004042"><ele>824.6666666666667</ele><time>2026-04-11T09:10:54.951Z</time></trkpt><trkpt lat="42.16537" lon="13.7001168"><ele>822.3333333333333</ele><time>2026-04-11T09:10:55.951Z</time></trkpt><trkpt lat="42.1654218" lon="13.6998704"><ele>820.0</ele><time>2026-04-11T09:10:56.951Z</time></trkpt><trkpt lat="42.1654846" lon="13.6996123"><ele>817.0</ele><time>2026-04-11T09:10:57.951Z</time></trkpt><trkpt lat="42.1655519" lon="13.6993481"><ele>814.0</ele><time>2026-04-11T09:10:58.946Z</time></trkpt><trkpt lat="42.1656145" lon="13.6990943"><ele>811.0</ele><time>2026-04-11T09:10:59.951Z</time></trkpt><trkpt lat="42.1656777" lon="13.6988511"><ele>817.0</ele><time>2026-04-11T09:11:00.951Z</time></trkpt><trkpt lat="42.1657364" lon="13.6986152"><ele>823.0</ele><time>2026-04-11T09:11:01.951Z</time></trkpt><trkpt lat="42.1657923" lon="13.6983951"><ele>829.0</ele><time>2026-04-11T09:11:02.951Z</time></trkpt><trkpt lat="42.1658433" lon="13.6981951"><ele>829.0</ele><time>2026-04-11T09:11:03.951Z</time></trkpt><trkpt lat="42.1658711" lon="13.6980083"><ele>829.0</ele><time>2026-04-11T09:11:04.951Z</time></trkpt><trkpt lat="42.1658522" lon="13.6978258"><ele>829.0</ele><time>2026-04-11T09:11:05.951Z</time></trkpt><trkpt lat="42.1657961" lon="13.6976532"><ele>829.0</ele><time>2026-04-11T09:11:06.95Z</time></trkpt><trkpt lat="42.1657436" lon="13.6974689"><ele>821.6666666666666</ele><time>2026-04-11T09:11:07.95Z</time></trkpt><trkpt lat="42.1655913" lon="13.6973172"><ele>814.3333333333333</ele><time>2026-04-11T09:11:08.951Z</time></trkpt><trkpt lat="42.1654773" lon="13.6971483"><ele>807.0</ele><time>2026-04-11T09:11:09.95Z</time></trkpt><trkpt lat="42.1653645" lon="13.6969786"><ele>811.0</ele><time>2026-04-11T09:11:10.951Z</time></trkpt><trkpt lat="42.1652581" lon="13.6968093"><ele>815.0</ele><time>2026-04-11T09:11:11.951Z</time></trkpt><trkpt lat="42.1651634" lon="13.6966356"><ele>819.0</ele><time>2026-04-11T09:11:12.95Z</time></trkpt><trkpt lat="42.1650862" lon="13.6964516"><ele>819.0</ele><time>2026-04-11T09:11:13.951Z</time></trkpt><trkpt lat="42.1650061" lon="13.6962528"><ele>819.0</ele><time>2026-04-11T09:11:14.951Z</time></trkpt><trkpt lat="42.1649167" lon="13.6960429"><ele>819.0</ele><time>2026-04-11T09:11:15.95Z</time></trkpt><trkpt lat="42.1648162" lon="13.6958184"><ele>813.0</ele><time>2026-04-11T09:11:16.951Z</time></trkpt><trkpt lat="42.1647082" lon="13.6955925"><ele>807.0</ele><time>2026-04-11T09:11:17.951Z</time></trkpt><trkpt lat="42.164613" lon="13.6953762"><ele>801.0</ele><time>2026-04-11T09:11:18.951Z</time></trkpt><trkpt lat="42.1645238" lon="13.6951887"><ele>801.0</ele><time>2026-04-11T09:11:19.951Z</time></trkpt><trkpt lat="42.164448" lon="13.6950085"><ele>801.0</ele><time>2026-04-11T09:11:20.951Z</time></trkpt><trkpt lat="42.1643955" lon="13.6948245"><ele>801.0</ele><time>2026-04-11T09:11:21.95Z</time></trkpt><trkpt lat="42.164373" lon="13.6946244"><ele>799.3333333333333</ele><time>2026-04-11T09:11:22.951Z</time></trkpt><trkpt lat="42.1643724" lon="13.6944108"><ele>797.6666666666666</ele><time>2026-04-11T09:11:23.95Z</time></trkpt><trkpt lat="42.1643906" lon="13.6941864"><ele>796.0</ele><time>2026-04-11T09:11:24.951Z</time></trkpt><trkpt lat="42.1644193" lon="13.6939568"><ele>796.0</ele><time>2026-04-11T09:11:25.951Z</time></trkpt><trkpt lat="42.1644443" lon="13.693729"><ele>796.0</ele><time>2026-04-11T09:11:26.951Z</time></trkpt><trkpt lat="42.1644825" lon="13.6935023"><ele>796.0</ele><time>2026-04-11T09:11:27.951Z</time></trkpt><trkpt lat="42.1645364" lon="13.6932928"><ele>793.5</ele><time>2026-04-11T09:11:28.951Z</time></trkpt><trkpt lat="42.1646074" lon="13.6931024"><ele>791.0</ele><time>2026-04-11T09:11:29.951Z</time></trkpt><trkpt lat="42.1647027" lon="13.6929472"><ele>788.5</ele><time>2026-04-11T09:11:30.951Z</time></trkpt><trkpt lat="42.1647896" lon="13.6928214"><ele>786.0</ele><time>2026-04-11T09:11:31.951Z</time></trkpt><trkpt lat="42.1648453" lon="13.6927123"><ele>784.4</ele><time>2026-04-11T09:11:32.95Z</time></trkpt><trkpt lat="42.1648558" lon="13.6925791"><ele>782.8</ele><time>2026-04-11T09:11:33.95Z</time></trkpt><trkpt lat="42.1648222" lon="13.6924586"><ele>781.1999999999999</ele><time>2026-04-11T09:11:34.95Z</time></trkpt><trkpt lat="42.1647479" lon="13.6923428"><ele>779.5999999999999</ele><time>2026-04-11T09:11:35.951Z</time></trkpt><trkpt lat="42.1646547" lon="13.6922008"><ele>778.0</ele><time>2026-04-11T09:11:36.951Z</time></trkpt><trkpt lat="42.1645716" lon="13.6920253"><ele>781.0</ele><time>2026-04-11T09:11:37.951Z</time></trkpt><trkpt lat="42.1644883" lon="13.6918356"><ele>784.0</ele><time>2026-04-11T09:11:38.95Z</time></trkpt><trkpt lat="42.1644123" lon="13.6916464"><ele>787.0</ele><time>2026-04-11T09:11:39.951Z</time></trkpt><trkpt lat="42.1643406" lon="13.691473"><ele>787.0</ele><time>2026-04-11T09:11:40.95Z</time></trkpt><trkpt lat="42.1642689" lon="13.6913249"><ele>787.0</ele><time>2026-04-11T09:11:41.951Z</time></trkpt><trkpt lat="42.1641892" lon="13.6912121"><ele>787.0</ele><time>2026-04-11T09:11:42.95Z</time></trkpt><trkpt lat="42.1641063" lon="13.6911469"><ele>787.0</ele><time>2026-04-11T09:11:43.951Z</time></trkpt><trkpt lat="42.1640167" lon="13.6911346"><ele>787.0</ele><time>2026-04-11T09:11:44.951Z</time></trkpt><trkpt lat="42.1639281" lon="13.6911748"><ele>789.6</ele><time>2026-04-11T09:11:45.951Z</time></trkpt><trkpt lat="42.1638494" lon="13.6912553"><ele>792.2</ele><time>2026-04-11T09:11:46.951Z</time></trkpt><trkpt lat="42.1637849" lon="13.6913725"><ele>794.8</ele><time>2026-04-11T09:11:47.951Z</time></trkpt><trkpt lat="42.163746" lon="13.6915022"><ele>797.4</ele><time>2026-04-11T09:11:48.951Z</time></trkpt><trkpt lat="42.1637105" lon="13.6916381"><ele>800.0</ele><time>2026-04-11T09:11:49.951Z</time></trkpt><trkpt lat="42.1636613" lon="13.6917982"><ele>793.0</ele><time>2026-04-11T09:11:50.951Z</time></trkpt><trkpt lat="42.1635791" lon="13.691984"><ele>786.0</ele><time>2026-04-11T09:11:51.95Z</time></trkpt><trkpt lat="42.1634658" lon="13.6921737"><ele>779.0</ele><time>2026-04-11T09:11:52.951Z</time></trkpt><trkpt lat="42.1633416" lon="13.6923695"><ele>779.0</ele><time>2026-04-11T09:11:53.951Z</time></trkpt><trkpt lat="42.1632008" lon="13.6925563"><ele>779.0</ele><time>2026-04-11T09:11:54.951Z</time></trkpt><trkpt lat="42.163068" lon="13.6927164"><ele>779.0</ele><time>2026-04-11T09:11:55.951Z</time></trkpt><trkpt lat="42.1629388" lon="13.6928378"><ele>773.3333333333334</ele><time>2026-04-11T09:11:56.951Z</time></trkpt><trkpt lat="42.1628005" lon="13.6929385"><ele>767.6666666666667</ele><time>2026-04-11T09:11:57.95Z</time></trkpt><trkpt lat="42.1626558" lon="13.6930034"><ele>762.0</ele><time>2026-04-11T09:11:58.951Z</time></trkpt><trkpt lat="42.1625048" lon="13.6930469"><ele>760.6666666666666</ele><time>2026-04-11T09:11:59.951Z</time></trkpt><trkpt lat="42.1623445" lon="13.6930721"><ele>759.3333333333333</ele><time>2026-04-11T09:12:00.951Z</time></trkpt><trkpt lat="42.1621785" lon="13.6930852"><ele>758.0</ele><time>2026-04-11T09:12:01.951Z</time></trkpt><trkpt lat="42.1620137" lon="13.6930969"><ele>758.0</ele><time>2026-04-11T09:12:02.95Z</time></trkpt><trkpt lat="42.1618445" lon="13.6931031"><ele>758.0</ele><time>2026-04-11T09:12:03.951Z</time></trkpt><trkpt lat="42.1616726" lon="13.6931129"><ele>758.0</ele><time>2026-04-11T09:12:04.951Z</time></trkpt><trkpt lat="42.161501" lon="13.6931249"><ele>757.6666666666666</ele><time>2026-04-11T09:12:05.951Z</time></trkpt><trkpt lat="42.1613308" lon="13.6931326"><ele>757.3333333333334</ele><time>2026-04-11T09:12:06.951Z</time></trkpt><trkpt lat="42.1611579" lon="13.6931488"><ele>757.0</ele><time>2026-04-11T09:12:07.951Z</time></trkpt><trkpt lat="42.1609837" lon="13.6931624"><ele>757.0</ele><time>2026-04-11T09:12:08.95Z</time></trkpt><trkpt lat="42.1607998" lon="13.6931863"><ele>757.0</ele><time>2026-04-11T09:12:09.95Z</time></trkpt><trkpt lat="42.1606114" lon="13.6932207"><ele>757.0</ele><time>2026-04-11T09:12:10.951Z</time></trkpt><trkpt lat="42.1604173" lon="13.6932721"><ele>756.6666666666667</ele><time>2026-04-11T09:12:11.951Z</time></trkpt><trkpt lat="42.1602195" lon="13.6933223"><ele>756.3333333333334</ele><time>2026-04-11T09:12:12.951Z</time></trkpt><trkpt lat="42.1600177" lon="13.69337"><ele>756.0</ele><time>2026-04-11T09:12:13.951Z</time></trkpt><trkpt lat="42.1598125" lon="13.6934192"><ele>756.0</ele><time>2026-04-11T09:12:14.95Z</time></trkpt><trkpt lat="42.1596035" lon="13.6934702"><ele>756.0</ele><time>2026-04-11T09:12:15.951Z</time></trkpt><trkpt lat="42.159395" lon="13.6935246"><ele>756.0</ele><time>2026-04-11T09:12:16.95Z</time></trkpt><trkpt lat="42.1591769" lon="13.6935815"><ele>744.0</ele><time>2026-04-11T09:12:17.95Z</time></trkpt><trkpt lat="42.1589454" lon="13.6936383"><ele>732.0</ele><time>2026-04-11T09:12:18.951Z</time></trkpt><trkpt lat="42.1587045" lon="13.6936939"><ele>732.0</ele><time>2026-04-11T09:12:19.951Z</time></trkpt><trkpt lat="42.1584653" lon="13.6937422"><ele>732.0</ele><time>2026-04-11T09:12:20.951Z</time></trkpt><trkpt lat="42.1582362" lon="13.6937845"><ele>730.6666666666666</ele><time>2026-04-11T09:12:21.95Z</time></trkpt><trkpt lat="42.1580409" lon="13.69381"><ele>729.3333333333333</ele><time>2026-04-11T09:12:22.95Z</time></trkpt><trkpt lat="42.1578786" lon="13.6938132"><ele>728.0</ele><time>2026-04-11T09:12:23.951Z</time></trkpt><trkpt lat="42.1577481" lon="13.6937943"><ele>728.0</ele><time>2026-04-11T09:12:24.951Z</time></trkpt><trkpt lat="42.1576304" lon="13.6937313"><ele>728.0</ele><time>2026-04-11T09:12:25.951Z</time></trkpt><trkpt lat="42.1575201" lon="13.6936279"><ele>728.0</ele><time>2026-04-11T09:12:26.951Z</time></trkpt><trkpt lat="42.1574133" lon="13.6934821"><ele>728.0</ele><time>2026-04-11T09:12:27.951Z</time></trkpt><trkpt lat="42.1572836" lon="13.6932187"><ele>724.5</ele><time>2026-04-11T09:12:28.95Z</time></trkpt><trkpt lat="42.1571573" lon="13.6929628"><ele>721.0</ele><time>2026-04-11T09:12:29.951Z</time></trkpt><trkpt lat="42.1570157" lon="13.6926797"><ele>721.0</ele><time>2026-04-11T09:12:30.951Z</time></trkpt><trkpt lat="42.1568713" lon="13.6923788"><ele>721.0</ele><time>2026-04-11T09:12:31.951Z</time></trkpt><trkpt lat="42.156727" lon="13.6920719"><ele>724.0</ele><time>2026-04-11T09:12:32.951Z</time></trkpt><trkpt lat="42.1565739" lon="13.6917699"><ele>727.0</ele><time>2026-04-11T09:12:33.95Z</time></trkpt><trkpt lat="42.1564275" lon="13.6914707"><ele>721.0</ele><time>2026-04-11T09:12:34.951Z</time></trkpt><trkpt lat="42.1563071" lon="13.691191"><ele>715.0</ele><time>2026-04-11T09:12:35.951Z</time></trkpt><trkpt lat="42.1562183" lon="13.6909378"><ele>709.0</ele><time>2026-04-11T09:12:36.951Z</time></trkpt><trkpt lat="42.1561494" lon="13.6907103"><ele>709.0</ele><time>2026-04-11T09:12:37.951Z</time></trkpt><trkpt lat="42.1561" lon="13.6905104"><ele>709.0</ele><time>2026-04-11T09:12:38.95Z</time></trkpt><trkpt lat="42.1560454" lon="13.6903594"><ele>709.0</ele><time>2026-04-11T09:12:39.951Z</time></trkpt><trkpt lat="42.1559555" lon="13.6902442"><ele>709.0</ele><time>2026-04-11T09:12:40.951Z</time></trkpt><trkpt lat="42.1558349" lon="13.6901785"><ele>708.3333333333334</ele><time>2026-04-11T09:12:41.951Z</time></trkpt><trkpt lat="42.155703" lon="13.6901188"><ele>707.6666666666666</ele><time>2026-04-11T09:12:42.951Z</time></trkpt><trkpt lat="42.1554733" lon="13.6901044"><ele>707.0</ele><time>2026-04-11T09:12:43.951Z</time></trkpt><trkpt lat="42.1552722" lon="13.6900392"><ele>707.0</ele><time>2026-04-11T09:12:44.951Z</time></trkpt><trkpt lat="42.1550816" lon="13.6899765"><ele>707.0</ele><time>2026-04-11T09:12:45.95Z</time></trkpt><trkpt lat="42.1549299" lon="13.6899107"><ele>707.0</ele><time>2026-04-11T09:12:46.951Z</time></trkpt><trkpt lat="42.1547934" lon="13.6898304"><ele>702.25</ele><time>2026-04-11T09:12:47.951Z</time></trkpt><trkpt lat="42.1546709" lon="13.6897344"><ele>697.5</ele><time>2026-04-11T09:12:48.951Z</time></trkpt><trkpt lat="42.1545611" lon="13.6896206"><ele>692.75</ele><time>2026-04-11T09:12:49.951Z</time></trkpt><trkpt lat="42.1544998" lon="13.6894252"><ele>688.0</ele><time>2026-04-11T09:12:50.951Z</time></trkpt><trkpt lat="42.1544351" lon="13.6891799"><ele>688.0</ele><time>2026-04-11T09:12:51.951Z</time></trkpt><trkpt lat="42.1544873" lon="13.6888866"><ele>688.0</ele><time>2026-04-11T09:12:52.951Z</time></trkpt><trkpt lat="42.1544268" lon="13.6886341"><ele>688.0</ele><time>2026-04-11T09:12:53.951Z</time></trkpt><trkpt lat="42.1543565" lon="13.6883847"><ele>689.3333333333334</ele><time>2026-04-11T09:12:54.95Z</time></trkpt><trkpt lat="42.154298" lon="13.6881719"><ele>690.6666666666666</ele><time>2026-04-11T09:12:55.951Z</time></trkpt><trkpt lat="42.154239" lon="13.6879914"><ele>692.0</ele><time>2026-04-11T09:12:56.951Z</time></trkpt><trkpt lat="42.1541784" lon="13.6878213"><ele>694.0</ele><time>2026-04-11T09:12:57.951Z</time></trkpt><trkpt lat="42.1541192" lon="13.6876689"><ele>696.0</ele><time>2026-04-11T09:12:58.95Z</time></trkpt><trkpt lat="42.1540686" lon="13.687525"><ele>698.0</ele><time>2026-04-11T09:12:59.951Z</time></trkpt><trkpt lat="42.1540348" lon="13.6873871"><ele>700.0</ele><time>2026-04-11T09:13:00.951Z</time></trkpt><trkpt lat="42.1540393" lon="13.6872401"><ele>700.0</ele><time>2026-04-11T09:13:01.951Z</time></trkpt><trkpt lat="42.1540634" lon="13.6870821"><ele>700.0</ele><time>2026-04-11T09:13:02.951Z</time></trkpt><trkpt lat="42.1541272" lon="13.6868868"><ele>700.0</ele><time>2026-04-11T09:13:03.95Z</time></trkpt><trkpt lat="42.1541661" lon="13.6866887"><ele>700.0</ele><time>2026-04-11T09:13:04.951Z</time></trkpt><trkpt lat="42.1541936" lon="13.6865008"><ele>700.25</ele><time>2026-04-11T09:13:05.951Z</time></trkpt><trkpt lat="42.1542139" lon="13.6863283"><ele>700.5</ele><time>2026-04-11T09:13:06.951Z</time></trkpt><trkpt lat="42.1542383" lon="13.6861429"><ele>700.75</ele><time>2026-04-11T09:13:07.951Z</time></trkpt><trkpt lat="42.1542531" lon="13.6859583"><ele>701.0</ele><time>2026-04-11T09:13:08.951Z</time></trkpt><trkpt lat="42.1542715" lon="13.6857616"><ele>700.5</ele><time>2026-04-11T09:13:09.951Z</time></trkpt><trkpt lat="42.1542935" lon="13.6855657"><ele>700.0</ele><time>2026-04-11T09:13:10.951Z</time></trkpt><trkpt lat="42.1543152" lon="13.6853745"><ele>699.5</ele><time>2026-04-11T09:13:11.951Z</time></trkpt><trkpt lat="42.1543341" lon="13.6851869"><ele>699.0</ele><time>2026-04-11T09:13:12.951Z</time></trkpt><trkpt lat="42.1543483" lon="13.6850154"><ele>698.75</ele><time>2026-04-11T09:13:13.95Z</time></trkpt><trkpt lat="42.1543639" lon="13.6848505"><ele>698.5</ele><time>2026-04-11T09:13:14.95Z</time></trkpt><trkpt lat="42.1543804" lon="13.6846872"><ele>698.25</ele><time>2026-04-11T09:13:15.951Z</time></trkpt><trkpt lat="42.1543945" lon="13.6845211"><ele>698.0</ele><time>2026-04-11T09:13:16.95Z</time></trkpt><trkpt lat="42.1544081" lon="13.6843553"><ele>698.0</ele><time>2026-04-11T09:13:17.95Z</time></trkpt><trkpt lat="42.1544201" lon="13.6841934"><ele>698.0</ele><time>2026-04-11T09:13:18.951Z</time></trkpt><trkpt lat="42.1544201" lon="13.6840403"><ele>698.0</ele><time>2026-04-11T09:13:19.951Z</time></trkpt><trkpt lat="42.1544176" lon="13.6839027"><ele>698.0</ele><time>2026-04-11T09:13:20.95Z</time></trkpt><trkpt lat="42.154399" lon="13.6837807"><ele>698.0</ele><time>2026-04-11T09:13:21.951Z</time></trkpt><trkpt lat="42.1543531" lon="13.6836859"><ele>698.0</ele><time>2026-04-11T09:13:22.951Z</time></trkpt><trkpt lat="42.1542943" lon="13.6836302"><ele>698.0</ele><time>2026-04-11T09:13:23.95Z</time></trkpt><trkpt lat="42.1542235" lon="13.6836206"><ele>698.0</ele><time>2026-04-11T09:13:24.951Z</time></trkpt><trkpt lat="42.1541537" lon="13.6836527"><ele>698.0</ele><time>2026-04-11T09:13:25.951Z</time></trkpt><trkpt lat="42.1540947" lon="13.6836931"><ele>698.0</ele><time>2026-04-11T09:13:26.951Z</time></trkpt><trkpt lat="42.1540118" lon="13.6837814"><ele>698.0</ele><time>2026-04-11T09:13:28.951Z</time></trkpt><trkpt lat="42.1539601" lon="13.6838719"><ele>698.0</ele><time>2026-04-11T09:13:30.951Z</time></trkpt><trkpt lat="42.1539866" lon="13.6839896"><ele>698.0</ele><time>2026-04-11T09:14:41.951Z</time></trkpt><trkpt lat="42.1540669" lon="13.6840247"><ele>698.0</ele><time>2026-04-11T09:14:43.951Z</time></trkpt><trkpt lat="42.1541296" lon="13.6841505"><ele>698.0</ele><time>2026-04-11T09:14:45.951Z</time></trkpt><trkpt lat="42.1541401" lon="13.6842437"><ele>698.0</ele><time>2026-04-11T09:14:46.951Z</time></trkpt><trkpt lat="42.1541273" lon="13.6843498"><ele>698.0</ele><time>2026-04-11T09:14:47.95Z</time></trkpt><trkpt lat="42.1540909" lon="13.6844732"><ele>697.5</ele><time>2026-04-11T09:14:48.951Z</time></trkpt><trkpt lat="42.1540518" lon="13.6846238"><ele>697.0</ele><time>2026-04-11T09:14:49.951Z</time></trkpt><trkpt lat="42.1540096" lon="13.6847881"><ele>696.5</ele><time>2026-04-11T09:14:50.951Z</time></trkpt><trkpt lat="42.1539676" lon="13.6849597"><ele>696.0</ele><time>2026-04-11T09:14:51.95Z</time></trkpt><trkpt lat="42.1539198" lon="13.685137"><ele>695.25</ele><time>2026-04-11T09:14:52.951Z</time></trkpt><trkpt lat="42.1538729" lon="13.6853181"><ele>694.5</ele><time>2026-04-11T09:14:53.95Z</time></trkpt><trkpt lat="42.1538255" lon="13.6855033"><ele>693.75</ele><time>2026-04-11T09:14:54.951Z</time></trkpt><trkpt lat="42.1537831" lon="13.6856943"><ele>693.0</ele><time>2026-04-11T09:14:55.951Z</time></trkpt><trkpt lat="42.1537365" lon="13.6858949"><ele>689.3333333333334</ele><time>2026-04-11T09:14:56.951Z</time></trkpt><trkpt lat="42.1536827" lon="13.6861085"><ele>685.6666666666667</ele><time>2026-04-11T09:14:57.951Z</time></trkpt><trkpt lat="42.1536322" lon="13.6863268"><ele>682.0</ele><time>2026-04-11T09:14:58.951Z</time></trkpt><trkpt lat="42.1535807" lon="13.6865509"><ele>682.0</ele><time>2026-04-11T09:14:59.951Z</time></trkpt><trkpt lat="42.1535273" lon="13.6867871"><ele>682.0</ele><time>2026-04-11T09:15:00.951Z</time></trkpt><trkpt lat="42.1534733" lon="13.6870399"><ele>682.0</ele><time>2026-04-11T09:15:01.951Z</time></trkpt><trkpt lat="42.1534187" lon="13.6873152"><ele>678.5</ele><time>2026-04-11T09:15:02.95Z</time></trkpt><trkpt lat="42.1533668" lon="13.6876132"><ele>675.0</ele><time>2026-04-11T09:15:03.951Z</time></trkpt><trkpt lat="42.1533206" lon="13.6879316"><ele>673.0</ele><time>2026-04-11T09:15:04.951Z</time></trkpt><trkpt lat="42.1532828" lon="13.6882649"><ele>671.0</ele><time>2026-04-11T09:15:05.951Z</time></trkpt><trkpt lat="42.153252" lon="13.6885993"><ele>668.5</ele><time>2026-04-11T09:15:06.951Z</time></trkpt><trkpt lat="42.1532271" lon="13.6889283"><ele>666.0</ele><time>2026-04-11T09:15:07.951Z</time></trkpt><trkpt lat="42.1532026" lon="13.6892509"><ele>659.5</ele><time>2026-04-11T09:15:08.951Z</time></trkpt><trkpt lat="42.1531909" lon="13.6895631"><ele>653.0</ele><time>2026-04-11T09:15:09.951Z</time></trkpt><trkpt lat="42.1531833" lon="13.6898689"><ele>653.0</ele><time>2026-04-11T09:15:10.95Z</time></trkpt><trkpt lat="42.1531791" lon="13.6901642"><ele>653.0</ele><time>2026-04-11T09:15:11.95Z</time></trkpt><trkpt lat="42.1531687" lon="13.6904511"><ele>653.0</ele><time>2026-04-11T09:15:12.951Z</time></trkpt><trkpt lat="42.1531537" lon="13.6907358"><ele>651.3333333333333</ele><time>2026-04-11T09:15:13.951Z</time></trkpt><trkpt lat="42.1531307" lon="13.6910145"><ele>649.6666666666666</ele><time>2026-04-11T09:15:14.95Z</time></trkpt><trkpt lat="42.1531023" lon="13.6912977"><ele>648.0</ele><time>2026-04-11T09:15:15.951Z</time></trkpt><trkpt lat="42.1530687" lon="13.6915853"><ele>647.0</ele><time>2026-04-11T09:15:16.951Z</time></trkpt><trkpt lat="42.1530429" lon="13.6918788"><ele>646.0</ele><time>2026-04-11T09:15:17.951Z</time></trkpt><trkpt lat="42.1530285" lon="13.6921722"><ele>645.0</ele><time>2026-04-11T09:15:18.951Z</time></trkpt><trkpt lat="42.1530248" lon="13.6924616"><ele>642.6666666666666</ele><time>2026-04-11T09:15:19.951Z</time></trkpt><trkpt lat="42.1530295" lon="13.6927492"><ele>640.3333333333333</ele><time>2026-04-11T09:15:20.951Z</time></trkpt><trkpt lat="42.1530229" lon="13.6930413"><ele>638.0</ele><time>2026-04-11T09:15:21.95Z</time></trkpt><trkpt lat="42.1529947" lon="13.6933361"><ele>634.5</ele><time>2026-04-11T09:15:22.951Z</time></trkpt><trkpt lat="42.1529438" lon="13.6936338"><ele>631.0</ele><time>2026-04-11T09:15:23.951Z</time></trkpt><trkpt lat="42.152866" lon="13.6939343"><ele>631.0</ele><time>2026-04-11T09:15:24.951Z</time></trkpt><trkpt lat="42.1527623" lon="13.6942452"><ele>631.0</ele><time>2026-04-11T09:15:25.95Z</time></trkpt><trkpt lat="42.1526487" lon="13.6945575"><ele>629.0</ele><time>2026-04-11T09:15:26.951Z</time></trkpt><trkpt lat="42.1525405" lon="13.6948803"><ele>627.0</ele><time>2026-04-11T09:15:27.951Z</time></trkpt><trkpt lat="42.1524353" lon="13.695194"><ele>624.0</ele><time>2026-04-11T09:15:28.951Z</time></trkpt><trkpt lat="42.1523368" lon="13.6954984"><ele>621.0</ele><time>2026-04-11T09:15:29.951Z</time></trkpt><trkpt lat="42.1522395" lon="13.6957927"><ele>621.0</ele><time>2026-04-11T09:15:30.951Z</time></trkpt><trkpt lat="42.1521461" lon="13.6960778"><ele>621.0</ele><time>2026-04-11T09:15:31.95Z</time></trkpt><trkpt lat="42.1520512" lon="13.6963579"><ele>619.5</ele><time>2026-04-11T09:15:32.951Z</time></trkpt><trkpt lat="42.1519531" lon="13.6966362"><ele>618.0</ele><time>2026-04-11T09:15:33.951Z</time></trkpt><trkpt lat="42.1518573" lon="13.696922"><ele>616.5</ele><time>2026-04-11T09:15:34.95Z</time></trkpt><trkpt lat="42.1517689" lon="13.6972039"><ele>615.0</ele><time>2026-04-11T09:15:35.95Z</time></trkpt><trkpt lat="42.1516946" lon="13.6974887"><ele>614.0</ele><time>2026-04-11T09:15:36.95Z</time></trkpt><trkpt lat="42.1516418" lon="13.6977866"><ele>613.0</ele><time>2026-04-11T09:15:37.951Z</time></trkpt><trkpt lat="42.1516145" lon="13.6980976"><ele>613.0</ele><time>2026-04-11T09:15:38.95Z</time></trkpt><trkpt lat="42.1516044" lon="13.6984131"><ele>613.0</ele><time>2026-04-11T09:15:39.951Z</time></trkpt><trkpt lat="42.1516097" lon="13.6987284"><ele>611.5</ele><time>2026-04-11T09:15:40.951Z</time></trkpt><trkpt lat="42.1516321" lon="13.6990455"><ele>610.0</ele><time>2026-04-11T09:15:41.951Z</time></trkpt><trkpt lat="42.1516629" lon="13.6993542"><ele>607.0</ele><time>2026-04-11T09:15:42.95Z</time></trkpt><trkpt lat="42.151711" lon="13.6996634"><ele>604.0</ele><time>2026-04-11T09:15:43.95Z</time></trkpt><trkpt lat="42.1517563" lon="13.6999604"><ele>604.0</ele><time>2026-04-11T09:15:44.951Z</time></trkpt><trkpt lat="42.1517943" lon="13.700239"><ele>604.0</ele><time>2026-04-11T09:15:45.951Z</time></trkpt><trkpt lat="42.1518159" lon="13.7004941"><ele>604.0</ele><time>2026-04-11T09:15:46.951Z</time></trkpt><trkpt lat="42.151809" lon="13.7007445"><ele>603.3333333333334</ele><time>2026-04-11T09:15:47.951Z</time></trkpt><trkpt lat="42.1517653" lon="13.7009921"><ele>602.6666666666666</ele><time>2026-04-11T09:15:48.951Z</time></trkpt><trkpt lat="42.1516787" lon="13.7012291"><ele>602.0</ele><time>2026-04-11T09:15:49.951Z</time></trkpt><trkpt lat="42.1515942" lon="13.7014792"><ele>601.0</ele><time>2026-04-11T09:15:50.951Z</time></trkpt><trkpt lat="42.1515046" lon="13.7017368"><ele>600.0</ele><time>2026-04-11T09:15:51.951Z</time></trkpt><trkpt lat="42.1514128" lon="13.7020071"><ele>599.0</ele><time>2026-04-11T09:15:52.951Z</time></trkpt><trkpt lat="42.1513181" lon="13.7022868"><ele>598.0</ele><time>2026-04-11T09:15:53.951Z</time></trkpt><trkpt lat="42.1512257" lon="13.7025806"><ele>597.0</ele><time>2026-04-11T09:15:54.951Z</time></trkpt><trkpt lat="42.1511376" lon="13.7028962"><ele>596.0</ele><time>2026-04-11T09:15:55.951Z</time></trkpt><trkpt lat="42.1510676" lon="13.7032214"><ele>595.0</ele><time>2026-04-11T09:15:56.95Z</time></trkpt><trkpt lat="42.1510085" lon="13.7035521"><ele>595.0</ele><time>2026-04-11T09:15:57.951Z</time></trkpt><trkpt lat="42.1509557" lon="13.703885"><ele>595.0</ele><time>2026-04-11T09:15:58.951Z</time></trkpt><trkpt lat="42.1509008" lon="13.7042099"><ele>593.5</ele><time>2026-04-11T09:15:59.951Z</time></trkpt><trkpt lat="42.1508501" lon="13.7045188"><ele>592.0</ele><time>2026-04-11T09:16:00.95Z</time></trkpt><trkpt lat="42.1508002" lon="13.7048178"><ele>592.0</ele><time>2026-04-11T09:16:01.951Z</time></trkpt><trkpt lat="42.1507595" lon="13.7051073"><ele>592.0</ele><time>2026-04-11T09:16:02.951Z</time></trkpt><trkpt lat="42.1507296" lon="13.7053903"><ele>592.0</ele><time>2026-04-11T09:16:03.95Z</time></trkpt><trkpt lat="42.1507168" lon="13.7056682"><ele>592.0</ele><time>2026-04-11T09:16:04.951Z</time></trkpt><trkpt lat="42.1507098" lon="13.7059389"><ele>592.0</ele><time>2026-04-11T09:16:05.951Z</time></trkpt><trkpt lat="42.1507034" lon="13.7062145"><ele>592.0</ele><time>2026-04-11T09:16:06.951Z</time></trkpt><trkpt lat="42.1506898" lon="13.7064892"><ele>588.3333333333334</ele><time>2026-04-11T09:16:07.951Z</time></trkpt><trkpt lat="42.1506623" lon="13.7067573"><ele>584.6666666666666</ele><time>2026-04-11T09:16:08.95Z</time></trkpt><trkpt lat="42.1506199" lon="13.7070264"><ele>581.0</ele><time>2026-04-11T09:16:09.95Z</time></trkpt><trkpt lat="42.150556" lon="13.7072958"><ele>580.6666666666666</ele><time>2026-04-11T09:16:10.95Z</time></trkpt><trkpt lat="42.150475" lon="13.7075623"><ele>580.3333333333334</ele><time>2026-04-11T09:16:11.951Z</time></trkpt><trkpt lat="42.1503731" lon="13.707841"><ele>580.0</ele><time>2026-04-11T09:16:12.95Z</time></trkpt><trkpt lat="42.1502659" lon="13.7081294"><ele>579.5</ele><time>2026-04-11T09:16:13.951Z</time></trkpt><trkpt lat="42.1501547" lon="13.7084215"><ele>579.0</ele><time>2026-04-11T09:16:14.951Z</time></trkpt><trkpt lat="42.1500445" lon="13.708727"><ele>579.0</ele><time>2026-04-11T09:16:15.951Z</time></trkpt><trkpt lat="42.1499304" lon="13.7090344"><ele>579.0</ele><time>2026-04-11T09:16:16.951Z</time></trkpt><trkpt lat="42.14982" lon="13.7093428"><ele>574.5</ele><time>2026-04-11T09:16:17.951Z</time></trkpt><trkpt lat="42.1497113" lon="13.7096356"><ele>570.0</ele><time>2026-04-11T09:16:18.951Z</time></trkpt><trkpt lat="42.1496056" lon="13.7099149"><ele>570.0</ele><time>2026-04-11T09:16:19.951Z</time></trkpt><trkpt lat="42.1495083" lon="13.7101731"><ele>570.0</ele><time>2026-04-11T09:16:20.951Z</time></trkpt><trkpt lat="42.1494087" lon="13.7104233"><ele>570.0</ele><time>2026-04-11T09:16:21.951Z</time></trkpt><trkpt lat="42.1493017" lon="13.7106555"><ele>569.6666666666666</ele><time>2026-04-11T09:16:22.951Z</time></trkpt><trkpt lat="42.1491796" lon="13.7108756"><ele>569.3333333333333</ele><time>2026-04-11T09:16:23.95Z</time></trkpt><trkpt lat="42.1490447" lon="13.7110973"><ele>569.0</ele><time>2026-04-11T09:16:24.951Z</time></trkpt><trkpt lat="42.1488967" lon="13.7113114"><ele>567.0</ele><time>2026-04-11T09:16:25.951Z</time></trkpt><trkpt lat="42.1487505" lon="13.7115213"><ele>565.0</ele><time>2026-04-11T09:16:26.951Z</time></trkpt><trkpt lat="42.1486054" lon="13.7117242"><ele>563.0</ele><time>2026-04-11T09:16:27.95Z</time></trkpt><trkpt lat="42.1484701" lon="13.7119242"><ele>562.6666666666666</ele><time>2026-04-11T09:16:28.951Z</time></trkpt><trkpt lat="42.1483405" lon="13.7121225"><ele>562.3333333333334</ele><time>2026-04-11T09:16:29.951Z</time></trkpt><trkpt lat="42.1482241" lon="13.7123187"><ele>562.0</ele><time>2026-04-11T09:16:30.95Z</time></trkpt><trkpt lat="42.1481148" lon="13.7125319"><ele>559.6666666666667</ele><time>2026-04-11T09:16:31.951Z</time></trkpt><trkpt lat="42.1480119" lon="13.7127613"><ele>557.3333333333334</ele><time>2026-04-11T09:16:32.951Z</time></trkpt><trkpt lat="42.1479113" lon="13.7130078"><ele>555.0</ele><time>2026-04-11T09:16:33.951Z</time></trkpt><trkpt lat="42.1478062" lon="13.7132678"><ele>555.0</ele><time>2026-04-11T09:16:34.951Z</time></trkpt><trkpt lat="42.1476873" lon="13.7135406"><ele>555.0</ele><time>2026-04-11T09:16:35.951Z</time></trkpt><trkpt lat="42.1475686" lon="13.7138255"><ele>554.0</ele><time>2026-04-11T09:16:36.95Z</time></trkpt><trkpt lat="42.147448" lon="13.7141145"><ele>553.0</ele><time>2026-04-11T09:16:37.951Z</time></trkpt><trkpt lat="42.1473298" lon="13.7144055"><ele>552.0</ele><time>2026-04-11T09:16:38.951Z</time></trkpt><trkpt lat="42.1472126" lon="13.7146857"><ele>551.0</ele><time>2026-04-11T09:16:39.951Z</time></trkpt><trkpt lat="42.1471006" lon="13.714956"><ele>551.0</ele><time>2026-04-11T09:16:40.951Z</time></trkpt><trkpt lat="42.1469946" lon="13.7152227"><ele>551.0</ele><time>2026-04-11T09:16:41.951Z</time></trkpt><trkpt lat="42.1468888" lon="13.7154946"><ele>550.0</ele><time>2026-04-11T09:16:42.951Z</time></trkpt><trkpt lat="42.1467803" lon="13.7157635"><ele>549.0</ele><time>2026-04-11T09:16:43.951Z</time></trkpt><trkpt lat="42.1466706" lon="13.7160278"><ele>548.6666666666666</ele><time>2026-04-11T09:16:44.951Z</time></trkpt><trkpt lat="42.1465676" lon="13.7162857"><ele>548.3333333333333</ele><time>2026-04-11T09:16:45.951Z</time></trkpt><trkpt lat="42.1464627" lon="13.7165356"><ele>548.0</ele><time>2026-04-11T09:16:46.951Z</time></trkpt><trkpt lat="42.1463525" lon="13.7167841"><ele>546.0</ele><time>2026-04-11T09:16:47.951Z</time></trkpt><trkpt lat="42.1462317" lon="13.7170333"><ele>544.0</ele><time>2026-04-11T09:16:48.951Z</time></trkpt><trkpt lat="42.1460899" lon="13.7172806"><ele>544.0</ele><time>2026-04-11T09:16:49.951Z</time></trkpt><trkpt lat="42.1459195" lon="13.7175082"><ele>544.0</ele><time>2026-04-11T09:16:50.951Z</time></trkpt><trkpt lat="42.145726" lon="13.7177284"><ele>545.5</ele><time>2026-04-11T09:16:51.95Z</time></trkpt><trkpt lat="42.145519" lon="13.7179393"><ele>547.0</ele><time>2026-04-11T09:16:52.951Z</time></trkpt><trkpt lat="42.1453169" lon="13.718149"><ele>547.0</ele><time>2026-04-11T09:16:53.951Z</time></trkpt><trkpt lat="42.1451195" lon="13.7183549"><ele>547.0</ele><time>2026-04-11T09:16:54.951Z</time></trkpt><trkpt lat="42.144934" lon="13.7185545"><ele>545.6666666666667</ele><time>2026-04-11T09:16:55.95Z</time></trkpt><trkpt lat="42.1447603" lon="13.7187408"><ele>544.3333333333334</ele><time>2026-04-11T09:16:56.951Z</time></trkpt><trkpt lat="42.1445932" lon="13.7189251"><ele>543.0</ele><time>2026-04-11T09:16:57.951Z</time></trkpt><trkpt lat="42.1444265" lon="13.7191026"><ele>543.0</ele><time>2026-04-11T09:16:58.951Z</time></trkpt><trkpt lat="42.1442596" lon="13.7192824"><ele>543.0</ele><time>2026-04-11T09:16:59.95Z</time></trkpt><trkpt lat="42.1440898" lon="13.7194541"><ele>543.0</ele><time>2026-04-11T09:17:00.95Z</time></trkpt><trkpt lat="42.143914" lon="13.7196179"><ele>543.3333333333334</ele><time>2026-04-11T09:17:01.951Z</time></trkpt><trkpt lat="42.1437324" lon="13.7197715"><ele>543.6666666666667</ele><time>2026-04-11T09:17:02.951Z</time></trkpt><trkpt lat="42.1435466" lon="13.7199106"><ele>544.0</ele><time>2026-04-11T09:17:03.95Z</time></trkpt><trkpt lat="42.1433653" lon="13.7200482"><ele>545.0</ele><time>2026-04-11T09:17:04.951Z</time></trkpt><trkpt lat="42.1431925" lon="13.7201816"><ele>546.0</ele><time>2026-04-11T09:17:05.95Z</time></trkpt><trkpt lat="42.1430256" lon="13.7203145"><ele>547.0</ele><time>2026-04-11T09:17:06.95Z</time></trkpt><trkpt lat="42.1428683" lon="13.7204304"><ele>547.0</ele><time>2026-04-11T09:17:07.951Z</time></trkpt><trkpt lat="42.1427278" lon="13.7205237"><ele>547.0</ele><time>2026-04-11T09:17:08.951Z</time></trkpt><trkpt lat="42.1425848" lon="13.7205747"><ele>547.0</ele><time>2026-04-11T09:17:09.951Z</time></trkpt><trkpt lat="42.1424382" lon="13.7205872"><ele>547.6666666666667</ele><time>2026-04-11T09:17:10.951Z</time></trkpt><trkpt lat="42.14229" lon="13.7205704"><ele>548.3333333333334</ele><time>2026-04-11T09:17:11.951Z</time></trkpt><trkpt lat="42.1421369" lon="13.720537"><ele>549.0</ele><time>2026-04-11T09:17:12.95Z</time></trkpt><trkpt lat="42.1419884" lon="13.7204993"><ele>549.0</ele><time>2026-04-11T09:17:13.951Z</time></trkpt><trkpt lat="42.1418384" lon="13.7204597"><ele>549.0</ele><time>2026-04-11T09:17:14.951Z</time></trkpt><trkpt lat="42.1416813" lon="13.7204165"><ele>549.0</ele><time>2026-04-11T09:17:15.951Z</time></trkpt><trkpt lat="42.1415226" lon="13.7203706"><ele>549.75</ele><time>2026-04-11T09:17:16.95Z</time></trkpt><trkpt lat="42.1413689" lon="13.7203255"><ele>550.5</ele><time>2026-04-11T09:17:17.951Z</time></trkpt><trkpt lat="42.141223" lon="13.7202832"><ele>551.25</ele><time>2026-04-11T09:17:18.951Z</time></trkpt><trkpt lat="42.1410907" lon="13.7202417"><ele>552.0</ele><time>2026-04-11T09:17:19.951Z</time></trkpt><trkpt lat="42.1409584" lon="13.7202152"><ele>550.5</ele><time>2026-04-11T09:17:20.951Z</time></trkpt><trkpt lat="42.1408215" lon="13.7202153"><ele>549.0</ele><time>2026-04-11T09:17:21.951Z</time></trkpt><trkpt lat="42.1406787" lon="13.7202346"><ele>547.5</ele><time>2026-04-11T09:17:22.951Z</time></trkpt><trkpt lat="42.1405458" lon="13.7203425"><ele>546.0</ele><time>2026-04-11T09:17:23.951Z</time></trkpt><trkpt lat="42.1404162" lon="13.7204515"><ele>546.0</ele><time>2026-04-11T09:17:24.95Z</time></trkpt><trkpt lat="42.1402762" lon="13.7205711"><ele>546.0</ele><time>2026-04-11T09:17:25.951Z</time></trkpt><trkpt lat="42.1401288" lon="13.7206829"><ele>546.0</ele><time>2026-04-11T09:17:26.95Z</time></trkpt><trkpt lat="42.139974" lon="13.7207804"><ele>543.3333333333334</ele><time>2026-04-11T09:17:27.951Z</time></trkpt><trkpt lat="42.1398045" lon="13.7208592"><ele>540.6666666666667</ele><time>2026-04-11T09:17:28.951Z</time></trkpt><trkpt lat="42.1396308" lon="13.7209346"><ele>538.0</ele><time>2026-04-11T09:17:29.95Z</time></trkpt><trkpt lat="42.139452" lon="13.720997"><ele>538.0</ele><time>2026-04-11T09:17:30.951Z</time></trkpt><trkpt lat="42.1392791" lon="13.7210455"><ele>538.0</ele><time>2026-04-11T09:17:31.951Z</time></trkpt><trkpt lat="42.1391114" lon="13.7210857"><ele>538.0</ele><time>2026-04-11T09:17:32.95Z</time></trkpt><trkpt lat="42.1389439" lon="13.7211151"><ele>539.0</ele><time>2026-04-11T09:17:33.951Z</time></trkpt><trkpt lat="42.138786" lon="13.7211398"><ele>540.0</ele><time>2026-04-11T09:17:34.951Z</time></trkpt><trkpt lat="42.1386321" lon="13.7211851"><ele>541.0</ele><time>2026-04-11T09:17:35.951Z</time></trkpt><trkpt lat="42.1384777" lon="13.7212555"><ele>541.0</ele><time>2026-04-11T09:17:36.951Z</time></trkpt><trkpt lat="42.1383275" lon="13.7213507"><ele>541.0</ele><time>2026-04-11T09:17:37.951Z</time></trkpt><trkpt lat="42.1381796" lon="13.7214607"><ele>541.0</ele><time>2026-04-11T09:17:38.951Z</time></trkpt><trkpt lat="42.1380282" lon="13.7215725"><ele>539.0</ele><time>2026-04-11T09:17:39.951Z</time></trkpt><trkpt lat="42.1378716" lon="13.7216847"><ele>537.0</ele><time>2026-04-11T09:17:40.95Z</time></trkpt><trkpt lat="42.1376925" lon="13.7217688"><ele>535.0</ele><time>2026-04-11T09:17:41.95Z</time></trkpt><trkpt lat="42.1375094" lon="13.7218284"><ele>534.6666666666667</ele><time>2026-04-11T09:17:42.95Z</time></trkpt><trkpt lat="42.1373287" lon="13.7218532"><ele>534.3333333333334</ele><time>2026-04-11T09:17:43.951Z</time></trkpt><trkpt lat="42.1371485" lon="13.7218548"><ele>534.0</ele><time>2026-04-11T09:17:44.951Z</time></trkpt><trkpt lat="42.1369792" lon="13.7218271"><ele>534.0</ele><time>2026-04-11T09:17:45.951Z</time></trkpt><trkpt lat="42.1368252" lon="13.7217623"><ele>534.0</ele><time>2026-04-11T09:17:46.95Z</time></trkpt><trkpt lat="42.1366827" lon="13.7216656"><ele>534.0</ele><time>2026-04-11T09:17:47.951Z</time></trkpt><trkpt lat="42.1365501" lon="13.7215393"><ele>534.3333333333334</ele><time>2026-04-11T09:17:48.95Z</time></trkpt><trkpt lat="42.1364277" lon="13.7213959"><ele>534.6666666666667</ele><time>2026-04-11T09:17:49.95Z</time></trkpt><trkpt lat="42.1363227" lon="13.7212307"><ele>535.0</ele><time>2026-04-11T09:17:50.951Z</time></trkpt><trkpt lat="42.1362452" lon="13.7210526"><ele>535.0</ele><time>2026-04-11T09:17:51.951Z</time></trkpt><trkpt lat="42.1361949" lon="13.7208686"><ele>535.0</ele><time>2026-04-11T09:17:52.951Z</time></trkpt><trkpt lat="42.136142" lon="13.7206948"><ele>535.0</ele><time>2026-04-11T09:17:53.951Z</time></trkpt><trkpt lat="42.1360761" lon="13.7205596"><ele>535.0</ele><time>2026-04-11T09:17:54.951Z</time></trkpt><trkpt lat="42.1359826" lon="13.7204662"><ele>535.0</ele><time>2026-04-11T09:17:55.95Z</time></trkpt><trkpt lat="42.1358817" lon="13.7204155"><ele>535.0</ele><time>2026-04-11T09:17:56.951Z</time></trkpt><trkpt lat="42.1357614" lon="13.7204027"><ele>535.0</ele><time>2026-04-11T09:17:57.951Z</time></trkpt><trkpt lat="42.1356364" lon="13.7204063"><ele>535.0</ele><time>2026-04-11T09:17:58.951Z</time></trkpt><trkpt lat="42.1354985" lon="13.7204268"><ele>533.6666666666667</ele><time>2026-04-11T09:17:59.951Z</time></trkpt><trkpt lat="42.135352" lon="13.7204574"><ele>532.3333333333334</ele><time>2026-04-11T09:18:00.951Z</time></trkpt><trkpt lat="42.1351908" lon="13.7205029"><ele>531.0</ele><time>2026-04-11T09:18:01.951Z</time></trkpt><trkpt lat="42.1350277" lon="13.7205611"><ele>527.0</ele><time>2026-04-11T09:18:02.951Z</time></trkpt><trkpt lat="42.1348627" lon="13.7206314"><ele>523.0</ele><time>2026-04-11T09:18:03.95Z</time></trkpt><trkpt lat="42.1346999" lon="13.7207173"><ele>519.0</ele><time>2026-04-11T09:18:04.951Z</time></trkpt><trkpt lat="42.1345423" lon="13.7208085"><ele>519.0</ele><time>2026-04-11T09:18:05.951Z</time></trkpt><trkpt lat="42.1343827" lon="13.7209007"><ele>519.0</ele><time>2026-04-11T09:18:06.95Z</time></trkpt><trkpt lat="42.1342208" lon="13.7209825"><ele>519.0</ele><time>2026-04-11T09:18:07.951Z</time></trkpt><trkpt lat="42.1340634" lon="13.7210514"><ele>518.75</ele><time>2026-04-11T09:18:08.951Z</time></trkpt><trkpt lat="42.1339144" lon="13.7211164"><ele>518.5</ele><time>2026-04-11T09:18:09.951Z</time></trkpt><trkpt lat="42.1337797" lon="13.7211946"><ele>518.25</ele><time>2026-04-11T09:18:10.95Z</time></trkpt><trkpt lat="42.1336694" lon="13.7212944"><ele>518.0</ele><time>2026-04-11T09:18:11.95Z</time></trkpt><trkpt lat="42.1335718" lon="13.7214202"><ele>518.0</ele><time>2026-04-11T09:18:12.951Z</time></trkpt><trkpt lat="42.1335268" lon="13.7216103"><ele>518.0</ele><time>2026-04-11T09:18:13.95Z</time></trkpt><trkpt lat="42.133481" lon="13.721808"><ele>518.0</ele><time>2026-04-11T09:18:14.951Z</time></trkpt><trkpt lat="42.1334367" lon="13.7220141"><ele>518.0</ele><time>2026-04-11T09:18:15.951Z</time></trkpt><trkpt lat="42.1333986" lon="13.7222095"><ele>518.0</ele><time>2026-04-11T09:18:16.951Z</time></trkpt><trkpt lat="42.133368" lon="13.7224054"><ele>518.0</ele><time>2026-04-11T09:18:17.951Z</time></trkpt><trkpt lat="42.1333491" lon="13.7225964"><ele>518.0</ele><time>2026-04-11T09:18:18.95Z</time></trkpt><trkpt lat="42.1333589" lon="13.7227911"><ele>518.0</ele><time>2026-04-11T09:18:19.951Z</time></trkpt><trkpt lat="42.1333917" lon="13.7229838"><ele>518.0</ele><time>2026-04-11T09:18:20.951Z</time></trkpt><trkpt lat="42.1334457" lon="13.7231743"><ele>518.0</ele><time>2026-04-11T09:18:21.951Z</time></trkpt><trkpt lat="42.1335121" lon="13.7233693"><ele>518.3333333333333</ele><time>2026-04-11T09:18:22.951Z</time></trkpt><trkpt lat="42.1335797" lon="13.7235676"><ele>518.6666666666666</ele><time>2026-04-11T09:18:23.951Z</time></trkpt><trkpt lat="42.1336511" lon="13.7237687"><ele>519.0</ele><time>2026-04-11T09:18:24.951Z</time></trkpt><trkpt lat="42.13373" lon="13.7239768"><ele>519.0</ele><time>2026-04-11T09:18:25.95Z</time></trkpt><trkpt lat="42.1338073" lon="13.724188"><ele>519.0</ele><time>2026-04-11T09:18:26.95Z</time></trkpt><trkpt lat="42.1338824" lon="13.724395"><ele>519.0</ele><time>2026-04-11T09:18:27.951Z</time></trkpt><trkpt lat="42.1339513" lon="13.7245833"><ele>518.75</ele><time>2026-04-11T09:18:28.951Z</time></trkpt><trkpt lat="42.1340078" lon="13.7247448"><ele>518.5</ele><time>2026-04-11T09:18:29.951Z</time></trkpt><trkpt lat="42.1340473" lon="13.7248972"><ele>518.25</ele><time>2026-04-11T09:18:30.951Z</time></trkpt><trkpt lat="42.1340586" lon="13.7250535"><ele>518.0</ele><time>2026-04-11T09:18:31.951Z</time></trkpt><trkpt lat="42.1340196" lon="13.725193"><ele>516.25</ele><time>2026-04-11T09:18:32.951Z</time></trkpt><trkpt lat="42.1339607" lon="13.7253292"><ele>514.5</ele><time>2026-04-11T09:18:33.951Z</time></trkpt><trkpt lat="42.1338906" lon="13.7254564"><ele>512.75</ele><time>2026-04-11T09:18:34.951Z</time></trkpt><trkpt lat="42.1338101" lon="13.7255863"><ele>511.0</ele><time>2026-04-11T09:18:35.951Z</time></trkpt><trkpt lat="42.1337254" lon="13.7257219"><ele>511.0</ele><time>2026-04-11T09:18:36.951Z</time></trkpt><trkpt lat="42.1336421" lon="13.725856"><ele>511.0</ele><time>2026-04-11T09:18:37.951Z</time></trkpt><trkpt lat="42.1335593" lon="13.7259789"><ele>511.0</ele><time>2026-04-11T09:18:38.951Z</time></trkpt><trkpt lat="42.1334691" lon="13.726082"><ele>511.0</ele><time>2026-04-11T09:18:39.951Z</time></trkpt><trkpt lat="42.1333583" lon="13.7261614"><ele>510.75</ele><time>2026-04-11T09:18:40.951Z</time></trkpt><trkpt lat="42.1332417" lon="13.7262065"><ele>510.5</ele><time>2026-04-11T09:18:41.95Z</time></trkpt><trkpt lat="42.1331295" lon="13.7262336"><ele>510.25</ele><time>2026-04-11T09:18:42.951Z</time></trkpt><trkpt lat="42.1330177" lon="13.7262396"><ele>510.0</ele><time>2026-04-11T09:18:43.95Z</time></trkpt><trkpt lat="42.1329148" lon="13.7262465"><ele>510.0</ele><time>2026-04-11T09:18:44.951Z</time></trkpt><trkpt lat="42.1328198" lon="13.7262587"><ele>510.0</ele><time>2026-04-11T09:18:45.951Z</time></trkpt><trkpt lat="42.1327269" lon="13.7263177"><ele>510.0</ele><time>2026-04-11T09:18:46.951Z</time></trkpt><trkpt lat="42.1326603" lon="13.7264092"><ele>510.0</ele><time>2026-04-11T09:18:47.951Z</time></trkpt><trkpt lat="42.1325999" lon="13.7265311"><ele>510.0</ele><time>2026-04-11T09:18:48.95Z</time></trkpt><trkpt lat="42.1325374" lon="13.7266446"><ele>510.0</ele><time>2026-04-11T09:18:49.951Z</time></trkpt><trkpt lat="42.1324609" lon="13.7267679"><ele>510.0</ele><time>2026-04-11T09:18:50.951Z</time></trkpt><trkpt lat="42.1323891" lon="13.726899"><ele>510.0</ele><time>2026-04-11T09:18:51.951Z</time></trkpt><trkpt lat="42.1323192" lon="13.7270343"><ele>510.0</ele><time>2026-04-11T09:18:52.951Z</time></trkpt><trkpt lat="42.1322514" lon="13.7271715"><ele>509.5</ele><time>2026-04-11T09:18:53.95Z</time></trkpt><trkpt lat="42.132183" lon="13.7273059"><ele>509.0</ele><time>2026-04-11T09:18:54.951Z</time></trkpt><trkpt lat="42.1321192" lon="13.7274404"><ele>508.5</ele><time>2026-04-11T09:18:55.951Z</time></trkpt><trkpt lat="42.1320557" lon="13.7275719"><ele>508.0</ele><time>2026-04-11T09:18:56.951Z</time></trkpt><trkpt lat="42.131993" lon="13.7276999"><ele>509.0</ele><time>2026-04-11T09:18:57.951Z</time></trkpt><trkpt lat="42.1319338" lon="13.7278265"><ele>509.99999999999994</ele><time>2026-04-11T09:18:58.95Z</time></trkpt><trkpt lat="42.1318785" lon="13.7279489"><ele>510.99999999999994</ele><time>2026-04-11T09:18:59.951Z</time></trkpt><trkpt lat="42.131812" lon="13.728066"><ele>512.0</ele><time>2026-04-11T09:19:00.95Z</time></trkpt><trkpt lat="42.1317521" lon="13.7281774"><ele>513.0</ele><time>2026-04-11T09:19:01.951Z</time></trkpt><trkpt lat="42.1316906" lon="13.7282901"><ele>513.0</ele><time>2026-04-11T09:19:02.95Z</time></trkpt><trkpt lat="42.1316307" lon="13.7283987"><ele>513.0</ele><time>2026-04-11T09:19:03.951Z</time></trkpt><trkpt lat="42.1315716" lon="13.7285084"><ele>513.0</ele><time>2026-04-11T09:19:04.951Z</time></trkpt><trkpt lat="42.1315158" lon="13.7286093"><ele>513.0</ele><time>2026-04-11T09:19:05.951Z</time></trkpt><trkpt lat="42.1314594" lon="13.7287129"><ele>513.0</ele><time>2026-04-11T09:19:06.951Z</time></trkpt><trkpt lat="42.1314054" lon="13.7288102"><ele>512.8333333333334</ele><time>2026-04-11T09:19:07.951Z</time></trkpt><trkpt lat="42.1313558" lon="13.7289179"><ele>512.6666666666666</ele><time>2026-04-11T09:19:08.951Z</time></trkpt><trkpt lat="42.1313083" lon="13.7290143"><ele>512.5</ele><time>2026-04-11T09:19:09.95Z</time></trkpt><trkpt lat="42.1312651" lon="13.7291094"><ele>512.3333333333333</ele><time>2026-04-11T09:19:10.95Z</time></trkpt><trkpt lat="42.1312205" lon="13.7291973"><ele>512.1666666666666</ele><time>2026-04-11T09:19:11.951Z</time></trkpt><trkpt lat="42.1311714" lon="13.7292889"><ele>512.0</ele><time>2026-04-11T09:19:12.951Z</time></trkpt><trkpt lat="42.1311236" lon="13.7293929"><ele>511.99999999999994</ele><time>2026-04-11T09:19:13.951Z</time></trkpt><trkpt lat="42.1310743" lon="13.7294931"><ele>512.0</ele><time>2026-04-11T09:19:14.951Z</time></trkpt><trkpt lat="42.1310278" lon="13.7295914"><ele>512.0</ele><time>2026-04-11T09:19:15.951Z</time></trkpt><trkpt lat="42.1309803" lon="13.729685"><ele>512.0</ele><time>2026-04-11T09:19:16.95Z</time></trkpt><trkpt lat="42.1309369" lon="13.7297738"><ele>511.99999999999994</ele><time>2026-04-11T09:19:17.951Z</time></trkpt><trkpt lat="42.1308944" lon="13.729862"><ele>512.0</ele><time>2026-04-11T09:19:18.951Z</time></trkpt><trkpt lat="42.1308509" lon="13.7299369"><ele>512.0</ele><time>2026-04-11T09:19:19.95Z</time></trkpt><trkpt lat="42.1307799" lon="13.7300698"><ele>512.0</ele><time>2026-04-11T09:19:21.951Z</time></trkpt><trkpt lat="42.1307413" lon="13.7301392"><ele>512.0</ele><time>2026-04-11T09:19:22.95Z</time></trkpt><trkpt lat="42.1306776" lon="13.7302585"><ele>512.0</ele><time>2026-04-11T09:19:24.951Z</time></trkpt><trkpt lat="42.13064" lon="13.7303599"><ele>512.0</ele><time>2026-04-11T09:19:26.951Z</time></trkpt><trkpt lat="42.1306192" lon="13.7304609"><ele>510.8333333333333</ele><time>2026-04-11T09:19:42.951Z</time></trkpt><trkpt lat="42.1305859" lon="13.730533"><ele>509.66666666666663</ele><time>2026-04-11T09:19:46.951Z</time></trkpt><trkpt lat="42.1305369" lon="13.7306001"><ele>508.5</ele><time>2026-04-11T09:19:51.95Z</time></trkpt><trkpt lat="42.1304633" lon="13.7305921"><ele>507.33333333333337</ele><time>2026-04-11T09:19:59.951Z</time></trkpt><trkpt lat="42.1303588" lon="13.7305032"><ele>506.1666666666667</ele><time>2026-04-11T09:20:01.95Z</time></trkpt><trkpt lat="42.13029" lon="13.7304539"><ele>505.0</ele><time>2026-04-11T09:20:02.951Z</time></trkpt><trkpt lat="42.1302358" lon="13.7303948"><ele>505.00000000000006</ele><time>2026-04-11T09:20:03.951Z</time></trkpt><trkpt lat="42.1302045" lon="13.7303158"><ele>505.0</ele><time>2026-04-11T09:20:04.951Z</time></trkpt><trkpt lat="42.130179" lon="13.7302315"><ele>505.0</ele><time>2026-04-11T09:20:05.951Z</time></trkpt><trkpt lat="42.1301752" lon="13.7301402"><ele>505.0</ele><time>2026-04-11T09:20:06.951Z</time></trkpt><trkpt lat="42.1301997" lon="13.7300331"><ele>505.00000000000006</ele><time>2026-04-11T09:20:07.951Z</time></trkpt><trkpt lat="42.1302178" lon="13.7298932"><ele>505.0</ele><time>2026-04-11T09:20:08.95Z</time></trkpt><trkpt lat="42.1302268" lon="13.7297579"><ele>504.2</ele><time>2026-04-11T09:20:09.951Z</time></trkpt><trkpt lat="42.1302267" lon="13.7296239"><ele>503.4</ele><time>2026-04-11T09:20:10.95Z</time></trkpt><trkpt lat="42.1302353" lon="13.7294862"><ele>502.6</ele><time>2026-04-11T09:20:11.951Z</time></trkpt><trkpt lat="42.1302521" lon="13.7293497"><ele>501.8</ele><time>2026-04-11T09:20:12.951Z</time></trkpt><trkpt lat="42.1302797" lon="13.7292159"><ele>501.0</ele><time>2026-04-11T09:20:13.951Z</time></trkpt><trkpt lat="42.1303093" lon="13.7290875"><ele>500.0</ele><time>2026-04-11T09:20:14.951Z</time></trkpt><trkpt lat="42.1303516" lon="13.7289567"><ele>499.0</ele><time>2026-04-11T09:20:15.951Z</time></trkpt><trkpt lat="42.1304223" lon="13.7288559"><ele>498.0</ele><time>2026-04-11T09:20:16.951Z</time></trkpt><trkpt lat="42.1304997" lon="13.7287459"><ele>497.0</ele><time>2026-04-11T09:20:17.951Z</time></trkpt><trkpt lat="42.1305915" lon="13.728624"><ele>495.75</ele><time>2026-04-11T09:20:18.951Z</time></trkpt><trkpt lat="42.1306694" lon="13.7285017"><ele>494.5</ele><time>2026-04-11T09:20:19.95Z</time></trkpt><trkpt lat="42.1307541" lon="13.7283908"><ele>493.25</ele><time>2026-04-11T09:20:20.951Z</time></trkpt><trkpt lat="42.1308314" lon="13.7282821"><ele>492.0</ele><time>2026-04-11T09:20:21.951Z</time></trkpt><trkpt lat="42.1309062" lon="13.7281785"><ele>493.25</ele><time>2026-04-11T09:20:22.951Z</time></trkpt><trkpt lat="42.1309745" lon="13.7280828"><ele>494.5</ele><time>2026-04-11T09:20:23.95Z</time></trkpt><trkpt lat="42.1310467" lon="13.7279794"><ele>495.75</ele><time>2026-04-11T09:20:24.95Z</time></trkpt><trkpt lat="42.1311261" lon="13.7278564"><ele>497.0</ele><time>2026-04-11T09:20:25.951Z</time></trkpt><trkpt lat="42.1312056" lon="13.7277199"><ele>496.99999999999994</ele><time>2026-04-11T09:20:26.951Z</time></trkpt><trkpt lat="42.1312788" lon="13.7276056"><ele>497.0</ele><time>2026-04-11T09:20:27.951Z</time></trkpt><trkpt lat="42.1313462" lon="13.7275057"><ele>497.0</ele><time>2026-04-11T09:20:28.95Z</time></trkpt><trkpt lat="42.1313733" lon="13.7273968"><ele>497.0</ele><time>2026-04-11T09:20:29.95Z</time></trkpt><trkpt lat="42.1313657" lon="13.7273051"><ele>496.99999999999994</ele><time>2026-04-11T09:20:30.951Z</time></trkpt><trkpt lat="42.1313338" lon="13.7272225"><ele>497.0</ele><time>2026-04-11T09:20:31.951Z</time></trkpt><trkpt lat="42.1312013" lon="13.7271934"><ele>497.0</ele><time>2026-04-11T09:20:33.951Z</time></trkpt><trkpt lat="42.1311193" lon="13.7272516"><ele>497.00000000000006</ele><time>2026-04-11T09:20:34.95Z</time></trkpt><trkpt lat="42.1310383" lon="13.7273367"><ele>497.00000000000006</ele><time>2026-04-11T09:20:35.951Z</time></trkpt><trkpt lat="42.1309545" lon="13.727448"><ele>497.0</ele><time>2026-04-11T09:20:36.951Z</time></trkpt><trkpt lat="42.1308724" lon="13.7275516"><ele>497.0</ele><time>2026-04-11T09:20:37.951Z</time></trkpt><trkpt lat="42.1307948" lon="13.7276545"><ele>496.0</ele><time>2026-04-11T09:20:38.951Z</time></trkpt><trkpt lat="42.130721" lon="13.7277579"><ele>495.00000000000006</ele><time>2026-04-11T09:20:39.951Z</time></trkpt><trkpt lat="42.1306445" lon="13.7278595"><ele>494.00000000000006</ele><time>2026-04-11T09:20:40.95Z</time></trkpt><trkpt lat="42.1305658" lon="13.7279627"><ele>493.0</ele><time>2026-04-11T09:20:41.951Z</time></trkpt><trkpt lat="42.1304905" lon="13.7280626"><ele>492.0</ele><time>2026-04-11T09:20:42.95Z</time></trkpt><trkpt lat="42.1304225" lon="13.7281564"><ele>492.0</ele><time>2026-04-11T09:20:43.951Z</time></trkpt><trkpt lat="42.1303613" lon="13.7282468"><ele>492.0</ele><time>2026-04-11T09:20:44.951Z</time></trkpt><trkpt lat="42.1303008" lon="13.728334"><ele>492.0</ele><time>2026-04-11T09:20:45.951Z</time></trkpt><trkpt lat="42.1302455" lon="13.7284208"><ele>492.0</ele><time>2026-04-11T09:20:46.951Z</time></trkpt><trkpt lat="42.130188" lon="13.7285147"><ele>492.0</ele><time>2026-04-11T09:20:47.951Z</time></trkpt><trkpt lat="42.1301253" lon="13.7286109"><ele>492.0</ele><time>2026-04-11T09:20:48.951Z</time></trkpt><trkpt lat="42.130066" lon="13.7287241"><ele>493.0</ele><time>2026-04-11T09:20:49.95Z</time></trkpt><trkpt lat="42.1300076" lon="13.7288372"><ele>494.00000000000006</ele><time>2026-04-11T09:20:50.95Z</time></trkpt><trkpt lat="42.1299487" lon="13.7289526"><ele>495.00000000000006</ele><time>2026-04-11T09:20:51.951Z</time></trkpt><trkpt lat="42.1298892" lon="13.729069"><ele>496.0</ele><time>2026-04-11T09:20:52.951Z</time></trkpt><trkpt lat="42.1298289" lon="13.7291918"><ele>497.0</ele><time>2026-04-11T09:20:53.951Z</time></trkpt><trkpt lat="42.1297626" lon="13.7293177"><ele>494.5</ele><time>2026-04-11T09:20:54.951Z</time></trkpt><trkpt lat="42.1296934" lon="13.729441"><ele>492.0</ele><time>2026-04-11T09:20:55.951Z</time></trkpt><trkpt lat="42.1296244" lon="13.7295614"><ele>489.5</ele><time>2026-04-11T09:20:56.95Z</time></trkpt><trkpt lat="42.1295634" lon="13.7296828"><ele>487.0</ele><time>2026-04-11T09:20:57.951Z</time></trkpt><trkpt lat="42.1294947" lon="13.7298091"><ele>487.0</ele><time>2026-04-11T09:20:58.951Z</time></trkpt><trkpt lat="42.12943" lon="13.7299296"><ele>487.00000000000006</ele><time>2026-04-11T09:20:59.951Z</time></trkpt><trkpt lat="42.1293644" lon="13.730035"><ele>487.00000000000006</ele><time>2026-04-11T09:21:00.951Z</time></trkpt><trkpt lat="42.1292979" lon="13.7301271"><ele>487.0</ele><time>2026-04-11T09:21:01.951Z</time></trkpt><trkpt lat="42.1292218" lon="13.7302136"><ele>487.0</ele><time>2026-04-11T09:21:02.95Z</time></trkpt><trkpt lat="42.1291374" lon="13.7303044"><ele>485.5</ele><time>2026-04-11T09:21:03.95Z</time></trkpt><trkpt lat="42.1290494" lon="13.730399"><ele>484.0</ele><time>2026-04-11T09:21:04.951Z</time></trkpt><trkpt lat="42.128952" lon="13.7304916"><ele>482.5</ele><time>2026-04-11T09:21:05.951Z</time></trkpt><trkpt lat="42.1288522" lon="13.7305807"><ele>481.0</ele><time>2026-04-11T09:21:06.951Z</time></trkpt><trkpt lat="42.1287468" lon="13.7306679"><ele>481.0</ele><time>2026-04-11T09:21:07.951Z</time></trkpt><trkpt lat="42.1286417" lon="13.7307594"><ele>481.0</ele><time>2026-04-11T09:21:08.95Z</time></trkpt><trkpt lat="42.1285316" lon="13.7308626"><ele>481.0</ele><time>2026-04-11T09:21:09.95Z</time></trkpt><trkpt lat="42.1284189" lon="13.7309736"><ele>481.0</ele><time>2026-04-11T09:21:10.951Z</time></trkpt><trkpt lat="42.1283042" lon="13.7310924"><ele>480.6666666666667</ele><time>2026-04-11T09:21:11.951Z</time></trkpt><trkpt lat="42.1281901" lon="13.7312218"><ele>480.33333333333337</ele><time>2026-04-11T09:21:12.95Z</time></trkpt><trkpt lat="42.1280739" lon="13.731355"><ele>480.0</ele><time>2026-04-11T09:21:13.951Z</time></trkpt><trkpt lat="42.1279562" lon="13.7314808"><ele>480.0</ele><time>2026-04-11T09:21:14.951Z</time></trkpt><trkpt lat="42.1278413" lon="13.7316022"><ele>480.0</ele><time>2026-04-11T09:21:15.951Z</time></trkpt><trkpt lat="42.1277359" lon="13.7317204"><ele>480.0</ele><time>2026-04-11T09:21:16.951Z</time></trkpt><trkpt lat="42.1276392" lon="13.7318324"><ele>480.0</ele><time>2026-04-11T09:21:17.951Z</time></trkpt><trkpt lat="42.1275432" lon="13.7319333"><ele>480.75</ele><time>2026-04-11T09:21:18.951Z</time></trkpt><trkpt lat="42.1274436" lon="13.7320062"><ele>481.5</ele><time>2026-04-11T09:21:19.95Z</time></trkpt><trkpt lat="42.1273256" lon="13.7320668"><ele>482.25</ele><time>2026-04-11T09:21:20.95Z</time></trkpt><trkpt lat="42.1271908" lon="13.732114"><ele>483.0</ele><time>2026-04-11T09:21:21.951Z</time></trkpt><trkpt lat="42.127051" lon="13.7321723"><ele>480.66666666666663</ele><time>2026-04-11T09:21:22.951Z</time></trkpt><trkpt lat="42.1269091" lon="13.7322559"><ele>478.3333333333333</ele><time>2026-04-11T09:21:23.951Z</time></trkpt><trkpt lat="42.1267652" lon="13.7323512"><ele>476.0</ele><time>2026-04-11T09:21:24.95Z</time></trkpt><trkpt lat="42.1266055" lon="13.7324558"><ele>475.66666666666663</ele><time>2026-04-11T09:21:25.951Z</time></trkpt><trkpt lat="42.1264457" lon="13.7325656"><ele>475.33333333333337</ele><time>2026-04-11T09:21:26.951Z</time></trkpt><trkpt lat="42.126281" lon="13.7326741"><ele>475.0</ele><time>2026-04-11T09:21:27.951Z</time></trkpt><trkpt lat="42.126109" lon="13.7327874"><ele>474.6666666666667</ele><time>2026-04-11T09:21:28.951Z</time></trkpt><trkpt lat="42.1259302" lon="13.7329071"><ele>474.33333333333337</ele><time>2026-04-11T09:21:29.95Z</time></trkpt><trkpt lat="42.1257479" lon="13.7330337"><ele>474.0</ele><time>2026-04-11T09:21:30.951Z</time></trkpt><trkpt lat="42.1255608" lon="13.7331567"><ele>474.0</ele><time>2026-04-11T09:21:31.951Z</time></trkpt><trkpt lat="42.1253737" lon="13.7332891"><ele>474.0</ele><time>2026-04-11T09:21:32.951Z</time></trkpt><trkpt lat="42.1251872" lon="13.733421"><ele>474.0</ele><time>2026-04-11T09:21:33.951Z</time></trkpt><trkpt lat="42.1249992" lon="13.7335571"><ele>473.66666666666663</ele><time>2026-04-11T09:21:34.951Z</time></trkpt><trkpt lat="42.1248095" lon="13.7336851"><ele>473.3333333333333</ele><time>2026-04-11T09:21:35.951Z</time></trkpt><trkpt lat="42.1246238" lon="13.7338099"><ele>473.0</ele><time>2026-04-11T09:21:36.95Z</time></trkpt><trkpt lat="42.1244364" lon="13.7339378"><ele>473.0</ele><time>2026-04-11T09:21:37.95Z</time></trkpt><trkpt lat="42.124246" lon="13.734063"><ele>473.0</ele><time>2026-04-11T09:21:38.951Z</time></trkpt><trkpt lat="42.1240562" lon="13.7341914"><ele>473.0</ele><time>2026-04-11T09:21:39.951Z</time></trkpt><trkpt lat="42.1238695" lon="13.7343206"><ele>473.3333333333333</ele><time>2026-04-11T09:21:40.951Z</time></trkpt><trkpt lat="42.1236802" lon="13.7344475"><ele>473.66666666666663</ele><time>2026-04-11T09:21:41.951Z</time></trkpt><trkpt lat="42.1234931" lon="13.7345786"><ele>474.0</ele><time>2026-04-11T09:21:42.95Z</time></trkpt><trkpt lat="42.1233066" lon="13.7347141"><ele>475.0</ele><time>2026-04-11T09:21:43.951Z</time></trkpt><trkpt lat="42.1231228" lon="13.7348446"><ele>476.0</ele><time>2026-04-11T09:21:44.95Z</time></trkpt><trkpt lat="42.1229374" lon="13.7349695"><ele>477.0</ele><time>2026-04-11T09:21:45.951Z</time></trkpt><trkpt lat="42.1227477" lon="13.735081"><ele>477.0</ele><time>2026-04-11T09:21:46.951Z</time></trkpt><trkpt lat="42.1225484" lon="13.7351766"><ele>477.0</ele><time>2026-04-11T09:21:47.951Z</time></trkpt><trkpt lat="42.1223421" lon="13.7352632"><ele>477.0</ele><time>2026-04-11T09:21:48.951Z</time></trkpt><trkpt lat="42.1221335" lon="13.7353427"><ele>477.33333333333337</ele><time>2026-04-11T09:21:49.951Z</time></trkpt><trkpt lat="42.1219253" lon="13.7354216"><ele>477.6666666666667</ele><time>2026-04-11T09:21:50.951Z</time></trkpt><trkpt lat="42.1217159" lon="13.7355011"><ele>478.0</ele><time>2026-04-11T09:21:51.95Z</time></trkpt><trkpt lat="42.1215072" lon="13.7355825"><ele>478.6666666666667</ele><time>2026-04-11T09:21:52.951Z</time></trkpt><trkpt lat="42.1212991" lon="13.7356617"><ele>479.33333333333337</ele><time>2026-04-11T09:21:53.951Z</time></trkpt><trkpt lat="42.1210966" lon="13.7357398"><ele>480.0</ele><time>2026-04-11T09:21:54.951Z</time></trkpt><trkpt lat="42.1208953" lon="13.7358196"><ele>481.66666666666663</ele><time>2026-04-11T09:21:55.95Z</time></trkpt><trkpt lat="42.1206979" lon="13.7358969"><ele>483.3333333333333</ele><time>2026-04-11T09:21:56.95Z</time></trkpt><trkpt lat="42.1205113" lon="13.7359719"><ele>485.0</ele><time>2026-04-11T09:21:57.951Z</time></trkpt><trkpt lat="42.1203362" lon="13.73603"><ele>485.0</ele><time>2026-04-11T09:21:58.951Z</time></trkpt><trkpt lat="42.1201641" lon="13.7360491"><ele>485.0</ele><time>2026-04-11T09:21:59.95Z</time></trkpt><trkpt lat="42.119995" lon="13.7360117"><ele>485.0</ele><time>2026-04-11T09:22:00.951Z</time></trkpt><trkpt lat="42.1198324" lon="13.7359093"><ele>485.66666666666663</ele><time>2026-04-11T09:22:01.951Z</time></trkpt><trkpt lat="42.1196704" lon="13.7357715"><ele>486.33333333333337</ele><time>2026-04-11T09:22:02.951Z</time></trkpt><trkpt lat="42.1195074" lon="13.7356109"><ele>487.0</ele><time>2026-04-11T09:22:03.951Z</time></trkpt><trkpt lat="42.1193276" lon="13.7354598"><ele>487.0</ele><time>2026-04-11T09:22:04.951Z</time></trkpt><trkpt lat="42.1191365" lon="13.7353285"><ele>487.0</ele><time>2026-04-11T09:22:05.951Z</time></trkpt><trkpt lat="42.1189693" lon="13.7352035"><ele>487.0</ele><time>2026-04-11T09:22:06.951Z</time></trkpt><trkpt lat="42.1188091" lon="13.7350929"><ele>487.6666666666667</ele><time>2026-04-11T09:22:07.95Z</time></trkpt><trkpt lat="42.1186674" lon="13.7350024"><ele>488.33333333333337</ele><time>2026-04-11T09:22:08.951Z</time></trkpt><trkpt lat="42.1185131" lon="13.7349565"><ele>489.0</ele><time>2026-04-11T09:22:09.951Z</time></trkpt><trkpt lat="42.1183582" lon="13.7349727"><ele>491.0</ele><time>2026-04-11T09:22:10.951Z</time></trkpt><trkpt lat="42.1182096" lon="13.7350491"><ele>493.0</ele><time>2026-04-11T09:22:11.95Z</time></trkpt><trkpt lat="42.1180491" lon="13.7351573"><ele>495.0</ele><time>2026-04-11T09:22:12.951Z</time></trkpt><trkpt lat="42.1178752" lon="13.7352645"><ele>495.0</ele><time>2026-04-11T09:22:13.951Z</time></trkpt><trkpt lat="42.1176891" lon="13.7353493"><ele>495.0</ele><time>2026-04-11T09:22:14.951Z</time></trkpt><trkpt lat="42.1175073" lon="13.7354344"><ele>495.0</ele><time>2026-04-11T09:22:15.95Z</time></trkpt><trkpt lat="42.1173044" lon="13.7354477"><ele>496.66666666666663</ele><time>2026-04-11T09:22:16.951Z</time></trkpt><trkpt lat="42.1170938" lon="13.7354287"><ele>498.3333333333333</ele><time>2026-04-11T09:22:17.95Z</time></trkpt><trkpt lat="42.1168869" lon="13.7354444"><ele>500.0</ele><time>2026-04-11T09:22:18.951Z</time></trkpt><trkpt lat="42.1166963" lon="13.7354774"><ele>501.66666666666663</ele><time>2026-04-11T09:22:19.951Z</time></trkpt><trkpt lat="42.1165248" lon="13.7355165"><ele>503.33333333333337</ele><time>2026-04-11T09:22:20.951Z</time></trkpt><trkpt lat="42.1163723" lon="13.7355939"><ele>505.0</ele><time>2026-04-11T09:22:21.95Z</time></trkpt><trkpt lat="42.116236" lon="13.7357301"><ele>505.0</ele><time>2026-04-11T09:22:22.951Z</time></trkpt><trkpt lat="42.1161466" lon="13.7359075"><ele>505.0</ele><time>2026-04-11T09:22:23.95Z</time></trkpt><trkpt lat="42.1160987" lon="13.7361035"><ele>505.0</ele><time>2026-04-11T09:22:24.951Z</time></trkpt><trkpt lat="42.1160965" lon="13.736313"><ele>506.6666666666667</ele><time>2026-04-11T09:22:25.951Z</time></trkpt><trkpt lat="42.1161441" lon="13.7365271"><ele>508.33333333333337</ele><time>2026-04-11T09:22:26.951Z</time></trkpt><trkpt lat="42.11624" lon="13.7367284"><ele>510.0</ele><time>2026-04-11T09:22:27.951Z</time></trkpt><trkpt lat="42.1163777" lon="13.7369264"><ele>510.33333333333337</ele><time>2026-04-11T09:22:28.951Z</time></trkpt><trkpt lat="42.116537" lon="13.7371329"><ele>510.6666666666667</ele><time>2026-04-11T09:22:29.951Z</time></trkpt><trkpt lat="42.1166698" lon="13.7373264"><ele>511.0</ele><time>2026-04-11T09:22:30.951Z</time></trkpt><trkpt lat="42.1167734" lon="13.7375272"><ele>512.0</ele><time>2026-04-11T09:22:31.951Z</time></trkpt><trkpt lat="42.1168445" lon="13.7377389"><ele>513.0</ele><time>2026-04-11T09:22:32.951Z</time></trkpt><trkpt lat="42.1168735" lon="13.7379737"><ele>514.0</ele><time>2026-04-11T09:22:33.95Z</time></trkpt><trkpt lat="42.1168585" lon="13.7382026"><ele>514.0</ele><time>2026-04-11T09:22:34.951Z</time></trkpt><trkpt lat="42.1168058" lon="13.7384398"><ele>514.0</ele><time>2026-04-11T09:22:35.951Z</time></trkpt><trkpt lat="42.1167424" lon="13.7386975"><ele>514.0</ele><time>2026-04-11T09:22:36.951Z</time></trkpt><trkpt lat="42.1166798" lon="13.7389515"><ele>515.0</ele><time>2026-04-11T09:22:37.951Z</time></trkpt><trkpt lat="42.1166191" lon="13.7392038"><ele>516.0</ele><time>2026-04-11T09:22:38.951Z</time></trkpt><trkpt lat="42.1165198" lon="13.7394353"><ele>517.0</ele><time>2026-04-11T09:22:39.951Z</time></trkpt><trkpt lat="42.1164157" lon="13.7396418"><ele>520.6666666666667</ele><time>2026-04-11T09:22:40.95Z</time></trkpt><trkpt lat="42.1163045" lon="13.739835"><ele>524.3333333333334</ele><time>2026-04-11T09:22:41.95Z</time></trkpt><trkpt lat="42.1161918" lon="13.7399918"><ele>528.0</ele><time>2026-04-11T09:22:42.95Z</time></trkpt><trkpt lat="42.1160925" lon="13.7401435"><ele>527.5</ele><time>2026-04-11T09:22:43.951Z</time></trkpt><trkpt lat="42.1159961" lon="13.7402933"><ele>527.0</ele><time>2026-04-11T09:22:44.95Z</time></trkpt><trkpt lat="42.1159116" lon="13.7404338"><ele>526.5</ele><time>2026-04-11T09:22:45.951Z</time></trkpt><trkpt lat="42.1158331" lon="13.7405673"><ele>526.0</ele><time>2026-04-11T09:22:46.95Z</time></trkpt><trkpt lat="42.1157653" lon="13.7406966"><ele>527.6</ele><time>2026-04-11T09:22:47.951Z</time></trkpt><trkpt lat="42.1157023" lon="13.7408284"><ele>529.2</ele><time>2026-04-11T09:22:48.95Z</time></trkpt><trkpt lat="42.1156384" lon="13.7409557"><ele>530.8</ele><time>2026-04-11T09:22:49.951Z</time></trkpt><trkpt lat="42.1155755" lon="13.741074"><ele>532.4</ele><time>2026-04-11T09:22:50.951Z</time></trkpt><trkpt lat="42.115508" lon="13.7411836"><ele>534.0</ele><time>2026-04-11T09:22:51.951Z</time></trkpt><trkpt lat="42.1154112" lon="13.7412675"><ele>534.0</ele><time>2026-04-11T09:22:52.951Z</time></trkpt><trkpt lat="42.1153126" lon="13.7413428"><ele>534.0</ele><time>2026-04-11T09:22:53.951Z</time></trkpt><trkpt lat="42.1151947" lon="13.7413803"><ele>534.0</ele><time>2026-04-11T09:22:54.95Z</time></trkpt><trkpt lat="42.1150961" lon="13.7414102"><ele>534.0</ele><time>2026-04-11T09:22:55.951Z</time></trkpt><trkpt lat="42.115002" lon="13.7414332"><ele>534.0</ele><time>2026-04-11T09:22:56.951Z</time></trkpt><trkpt lat="42.1149196" lon="13.7414467"><ele>534.0</ele><time>2026-04-11T09:22:57.95Z</time></trkpt><trkpt lat="42.1148435" lon="13.7414402"><ele>529.0</ele><time>2026-04-11T09:22:58.95Z</time></trkpt><trkpt lat="42.1147675" lon="13.741405"><ele>529.0</ele><time>2026-04-11T09:22:59.951Z</time></trkpt><trkpt lat="42.1147049" lon="13.7413399"><ele>529.0</ele><time>2026-04-11T09:23:00.951Z</time></trkpt><trkpt lat="42.1146255" lon="13.7412531"><ele>529.0</ele><time>2026-04-11T09:23:02.95Z</time></trkpt></trkseg><trkseg><trkpt lat="42.1143426" lon="13.7410264"><ele>535.0</ele><time>2026-04-11T09:55:13.97Z</time></trkpt><trkpt lat="42.114256" lon="13.740978"><ele>535.0</ele><time>2026-04-11T09:55:14.97Z</time></trkpt><trkpt lat="42.1141881" lon="13.7409409"><ele>535.0</ele><time>2026-04-11T09:55:15.97Z</time></trkpt><trkpt lat="42.1140886" lon="13.740896"><ele>535.0</ele><time>2026-04-11T09:55:17.97Z</time></trkpt><trkpt lat="42.1139548" lon="13.7408692"><ele>535.0</ele><time>2026-04-11T09:55:19.97Z</time></trkpt><trkpt lat="42.113878" lon="13.7408586"><ele>535.2</ele><time>2026-04-11T09:55:20.97Z</time></trkpt><trkpt lat="42.1138083" lon="13.7408477"><ele>535.4</ele><time>2026-04-11T09:55:21.969Z</time></trkpt><trkpt lat="42.1137269" lon="13.7408371"><ele>535.6</ele><time>2026-04-11T09:55:22.97Z</time></trkpt><trkpt lat="42.1136326" lon="13.7408286"><ele>535.8</ele><time>2026-04-11T09:55:23.97Z</time></trkpt><trkpt lat="42.1135238" lon="13.7408215"><ele>536.0</ele><time>2026-04-11T09:55:24.97Z</time></trkpt><trkpt lat="42.1134096" lon="13.740811"><ele>536.0</ele><time>2026-04-11T09:55:25.97Z</time></trkpt><trkpt lat="42.11329" lon="13.7407908"><ele>536.0</ele><time>2026-04-11T09:55:26.969Z</time></trkpt><trkpt lat="42.113172" lon="13.7407622"><ele>532.0</ele><time>2026-04-11T09:55:27.969Z</time></trkpt><trkpt lat="42.1130595" lon="13.7407106"><ele>532.0</ele><time>2026-04-11T09:55:28.97Z</time></trkpt></trkseg><trkseg><trkpt lat="42.1075206" lon="13.7335767"><ele>566.0</ele><time>2026-04-11T09:56:21.911Z</time></trkpt><trkpt lat="42.1074174" lon="13.7331471"><ele>568.0</ele><time>2026-04-11T09:56:23.969Z</time></trkpt><trkpt lat="42.1074138" lon="13.7329589"><ele>568.0</ele><time>2026-04-11T09:56:24.969Z</time></trkpt><trkpt lat="42.107425" lon="13.7327571"><ele>568.0</ele><time>2026-04-11T09:56:25.97Z</time></trkpt><trkpt lat="42.1074327" lon="13.7325454"><ele>568.0</ele><time>2026-04-11T09:56:26.97Z</time></trkpt><trkpt lat="42.1074259" lon="13.7323312"><ele>568.6666666666667</ele><time>2026-04-11T09:56:27.97Z</time></trkpt><trkpt lat="42.1073892" lon="13.7321182"><ele>569.3333333333334</ele><time>2026-04-11T09:56:28.97Z</time></trkpt><trkpt lat="42.1073092" lon="13.7319059"><ele>570.0</ele><time>2026-04-11T09:56:29.97Z</time></trkpt><trkpt lat="42.107199" lon="13.7316935"><ele>570.0</ele><time>2026-04-11T09:56:30.97Z</time></trkpt><trkpt lat="42.1070777" lon="13.731478"><ele>570.0</ele><time>2026-04-11T09:56:31.97Z</time></trkpt><trkpt lat="42.1069548" lon="13.7312569"><ele>570.0</ele><time>2026-04-11T09:56:32.969Z</time></trkpt><trkpt lat="42.1068304" lon="13.7310336"><ele>570.3333333333334</ele><time>2026-04-11T09:56:33.97Z</time></trkpt><trkpt lat="42.1066921" lon="13.7308145"><ele>570.6666666666667</ele><time>2026-04-11T09:56:34.97Z</time></trkpt><trkpt lat="42.1065434" lon="13.7306012"><ele>571.0</ele><time>2026-04-11T09:56:35.97Z</time></trkpt><trkpt lat="42.1063886" lon="13.7303928"><ele>574.3333333333334</ele><time>2026-04-11T09:56:36.969Z</time></trkpt><trkpt lat="42.1062354" lon="13.730183"><ele>577.6666666666666</ele><time>2026-04-11T09:56:37.97Z</time></trkpt><trkpt lat="42.1060882" lon="13.7299764"><ele>581.0</ele><time>2026-04-11T09:56:38.97Z</time></trkpt><trkpt lat="42.1059408" lon="13.7297768"><ele>581.0</ele><time>2026-04-11T09:56:39.97Z</time></trkpt><trkpt lat="42.1057951" lon="13.7295835"><ele>581.0</ele><time>2026-04-11T09:56:40.969Z</time></trkpt><trkpt lat="42.1056618" lon="13.729398"><ele>581.0</ele><time>2026-04-11T09:56:41.97Z</time></trkpt><trkpt lat="42.1055351" lon="13.7292267"><ele>582.3333333333333</ele><time>2026-04-11T09:56:42.97Z</time></trkpt><trkpt lat="42.105419" lon="13.7290645"><ele>583.6666666666666</ele><time>2026-04-11T09:56:43.97Z</time></trkpt><trkpt lat="42.1053058" lon="13.7289151"><ele>585.0</ele><time>2026-04-11T09:56:44.97Z</time></trkpt><trkpt lat="42.1051777" lon="13.7287825"><ele>585.0</ele><time>2026-04-11T09:56:45.97Z</time></trkpt><trkpt lat="42.1050216" lon="13.7286738"><ele>585.0</ele><time>2026-04-11T09:56:46.97Z</time></trkpt><trkpt lat="42.1048517" lon="13.7285954"><ele>585.0</ele><time>2026-04-11T09:56:47.97Z</time></trkpt><trkpt lat="42.104679" lon="13.7285439"><ele>586.6666666666666</ele><time>2026-04-11T09:56:48.969Z</time></trkpt><trkpt lat="42.1045073" lon="13.7285321"><ele>588.3333333333333</ele><time>2026-04-11T09:56:49.969Z</time></trkpt><trkpt lat="42.1043226" lon="13.7285839"><ele>590.0</ele><time>2026-04-11T09:56:50.97Z</time></trkpt><trkpt lat="42.1041317" lon="13.7286917"><ele>601.5</ele><time>2026-04-11T09:56:51.97Z</time></trkpt><trkpt lat="42.1039437" lon="13.7288433"><ele>613.0</ele><time>2026-04-11T09:56:52.969Z</time></trkpt><trkpt lat="42.1035771" lon="13.7291575"><ele>613.0</ele><time>2026-04-11T09:56:54.97Z</time></trkpt><trkpt lat="42.1034023" lon="13.7292991"><ele>613.0</ele><time>2026-04-11T09:56:55.97Z</time></trkpt><trkpt lat="42.1032433" lon="13.729425"><ele>613.0</ele><time>2026-04-11T09:56:56.97Z</time></trkpt><trkpt lat="42.103086" lon="13.7295224"><ele>611.0</ele><time>2026-04-11T09:56:57.97Z</time></trkpt><trkpt lat="42.1029328" lon="13.7295983"><ele>609.0</ele><time>2026-04-11T09:56:58.969Z</time></trkpt><trkpt lat="42.1028014" lon="13.7297128"><ele>607.0</ele><time>2026-04-11T09:56:59.97Z</time></trkpt><trkpt lat="42.1026867" lon="13.7298652"><ele>608.0</ele><time>2026-04-11T09:57:00.97Z</time></trkpt><trkpt lat="42.1023688" lon="13.7301306"><ele>609.0</ele><time>2026-04-11T09:57:02.97Z</time></trkpt><trkpt lat="42.1021938" lon="13.730241"><ele>609.0</ele><time>2026-04-11T09:57:03.97Z</time></trkpt><trkpt lat="42.1020336" lon="13.7303572"><ele>609.0</ele><time>2026-04-11T09:57:04.97Z</time></trkpt><trkpt lat="42.1018937" lon="13.7305155"><ele>609.0</ele><time>2026-04-11T09:57:05.97Z</time></trkpt><trkpt lat="42.1017762" lon="13.7307141"><ele>609.0</ele><time>2026-04-11T09:57:06.969Z</time></trkpt><trkpt lat="42.1016586" lon="13.7308991"><ele>609.0</ele><time>2026-04-11T09:57:07.97Z</time></trkpt><trkpt lat="42.1015191" lon="13.7310541"><ele>609.0</ele><time>2026-04-11T09:57:08.97Z</time></trkpt><trkpt lat="42.1013485" lon="13.7311813"><ele>609.0</ele><time>2026-04-11T09:57:09.97Z</time></trkpt><trkpt lat="42.1011638" lon="13.7312905"><ele>609.0</ele><time>2026-04-11T09:57:10.97Z</time></trkpt><trkpt lat="42.1009788" lon="13.7313908"><ele>609.0</ele><time>2026-04-11T09:57:11.97Z</time></trkpt><trkpt lat="42.1007925" lon="13.7314782"><ele>612.3333333333334</ele><time>2026-04-11T09:57:12.97Z</time></trkpt><trkpt lat="42.1005981" lon="13.7315348"><ele>615.6666666666667</ele><time>2026-04-11T09:57:13.97Z</time></trkpt><trkpt lat="42.100407" lon="13.7315642"><ele>619.0</ele><time>2026-04-11T09:57:14.97Z</time></trkpt><trkpt lat="42.1002304" lon="13.7315911"><ele>619.0</ele><time>2026-04-11T09:57:15.97Z</time></trkpt><trkpt lat="42.1000742" lon="13.7316386"><ele>619.0</ele><time>2026-04-11T09:57:16.969Z</time></trkpt><trkpt lat="42.099937" lon="13.7317247"><ele>619.0</ele><time>2026-04-11T09:57:17.97Z</time></trkpt><trkpt lat="42.099832" lon="13.7318718"><ele>622.3333333333334</ele><time>2026-04-11T09:57:18.97Z</time></trkpt><trkpt lat="42.0997593" lon="13.7320681"><ele>625.6666666666666</ele><time>2026-04-11T09:57:19.97Z</time></trkpt><trkpt lat="42.0997045" lon="13.7323003"><ele>629.0</ele><time>2026-04-11T09:57:20.97Z</time></trkpt><trkpt lat="42.0996253" lon="13.7325499"><ele>625.3333333333333</ele><time>2026-04-11T09:57:21.97Z</time></trkpt><trkpt lat="42.099527" lon="13.7327774"><ele>621.6666666666666</ele><time>2026-04-11T09:57:22.97Z</time></trkpt><trkpt lat="42.0994167" lon="13.732964"><ele>618.0</ele><time>2026-04-11T09:57:23.97Z</time></trkpt><trkpt lat="42.0993084" lon="13.7331164"><ele>618.0</ele><time>2026-04-11T09:57:24.97Z</time></trkpt><trkpt lat="42.099198" lon="13.7332459"><ele>618.0</ele><time>2026-04-11T09:57:25.97Z</time></trkpt><trkpt lat="42.0990753" lon="13.7333328"><ele>618.0</ele><time>2026-04-11T09:57:26.97Z</time></trkpt><trkpt lat="42.0989099" lon="13.7333306"><ele>622.5</ele><time>2026-04-11T09:57:27.97Z</time></trkpt><trkpt lat="42.0986392" lon="13.7332527"><ele>627.0</ele><time>2026-04-11T09:57:28.97Z</time></trkpt><trkpt lat="42.0983949" lon="13.733278"><ele>627.0</ele><time>2026-04-11T09:57:29.969Z</time></trkpt><trkpt lat="42.0981714" lon="13.7333441"><ele>641.0</ele><time>2026-04-11T09:57:30.97Z</time></trkpt></trkseg><trkseg><trkpt lat="42.0940021" lon="13.7365799"><ele>726.5</ele><time>2026-04-11T09:58:47.966Z</time></trkpt><trkpt lat="42.0940993" lon="13.7362683"><ele>715.0</ele><time>2026-04-11T09:58:48.968Z</time></trkpt><trkpt lat="42.0941914" lon="13.7359393"><ele>715.0</ele><time>2026-04-11T09:58:49.971Z</time></trkpt><trkpt lat="42.0942931" lon="13.7356313"><ele>715.0</ele><time>2026-04-11T09:58:50.965Z</time></trkpt><trkpt lat="42.0943892" lon="13.7353388"><ele>721.3333333333334</ele><time>2026-04-11T09:58:51.966Z</time></trkpt><trkpt lat="42.0944845" lon="13.7350626"><ele>727.6666666666666</ele><time>2026-04-11T09:58:52.966Z</time></trkpt><trkpt lat="42.0945799" lon="13.7348083"><ele>734.0</ele><time>2026-04-11T09:58:53.965Z</time></trkpt><trkpt lat="42.0946665" lon="13.7345728"><ele>738.6666666666666</ele><time>2026-04-11T09:58:54.966Z</time></trkpt><trkpt lat="42.094739" lon="13.7343663"><ele>743.3333333333334</ele><time>2026-04-11T09:58:55.966Z</time></trkpt><trkpt lat="42.0947956" lon="13.7341843"><ele>748.0</ele><time>2026-04-11T09:58:56.966Z</time></trkpt><trkpt lat="42.0948257" lon="13.7339922"><ele>748.0</ele><time>2026-04-11T09:58:57.965Z</time></trkpt><trkpt lat="42.0948023" lon="13.7338077"><ele>748.0</ele><time>2026-04-11T09:58:58.966Z</time></trkpt><trkpt lat="42.094755" lon="13.73365"><ele>748.0</ele><time>2026-04-11T09:58:59.966Z</time></trkpt><trkpt lat="42.0947218" lon="13.7334975"><ele>748.0</ele><time>2026-04-11T09:59:00.966Z</time></trkpt><trkpt lat="42.0947165" lon="13.7333449"><ele>749.0</ele><time>2026-04-11T09:59:01.966Z</time></trkpt><trkpt lat="42.0947498" lon="13.7331983"><ele>750.0</ele><time>2026-04-11T09:59:02.966Z</time></trkpt><trkpt lat="42.0947907" lon="13.7330832"><ele>751.0</ele><time>2026-04-11T09:59:03.965Z</time></trkpt><trkpt lat="42.0949797" lon="13.7329889"><ele>752.0</ele><time>2026-04-11T09:59:04.966Z</time></trkpt><trkpt lat="42.0951047" lon="13.7328227"><ele>747.0</ele><time>2026-04-11T09:59:05.966Z</time></trkpt><trkpt lat="42.0952306" lon="13.7326195"><ele>742.0</ele><time>2026-04-11T09:59:06.966Z</time></trkpt><trkpt lat="42.0953445" lon="13.7323661"><ele>737.0</ele><time>2026-04-11T09:59:07.966Z</time></trkpt><trkpt lat="42.0954648" lon="13.7320962"><ele>750.5</ele><time>2026-04-11T09:59:08.966Z</time></trkpt><trkpt lat="42.0955784" lon="13.7318269"><ele>764.0</ele><time>2026-04-11T09:59:09.966Z</time></trkpt><trkpt lat="42.0956811" lon="13.73155"><ele>756.6666666666666</ele><time>2026-04-11T09:59:10.966Z</time></trkpt><trkpt lat="42.0957662" lon="13.7312735"><ele>749.3333333333334</ele><time>2026-04-11T09:59:11.966Z</time></trkpt><trkpt lat="42.0958522" lon="13.7310066"><ele>742.0</ele><time>2026-04-11T09:59:12.966Z</time></trkpt><trkpt lat="42.0959492" lon="13.730761"><ele>742.0</ele><time>2026-04-11T09:59:13.966Z</time></trkpt><trkpt lat="42.0960575" lon="13.7305277"><ele>742.0</ele><time>2026-04-11T09:59:14.966Z</time></trkpt><trkpt lat="42.0961602" lon="13.730312"><ele>742.0</ele><time>2026-04-11T09:59:15.965Z</time></trkpt><trkpt lat="42.0962713" lon="13.7301281"><ele>736.6666666666667</ele><time>2026-04-11T09:59:16.965Z</time></trkpt><trkpt lat="42.0963854" lon="13.7299443"><ele>731.3333333333334</ele><time>2026-04-11T09:59:17.966Z</time></trkpt><trkpt lat="42.0965084" lon="13.7297844"><ele>726.0</ele><time>2026-04-11T09:59:18.966Z</time></trkpt><trkpt lat="42.0966278" lon="13.7296146"><ele>726.0</ele><time>2026-04-11T09:59:19.965Z</time></trkpt><trkpt lat="42.0967491" lon="13.7294177"><ele>726.0</ele><time>2026-04-11T09:59:20.966Z</time></trkpt><trkpt lat="42.0968429" lon="13.729194"><ele>726.0</ele><time>2026-04-11T09:59:21.966Z</time></trkpt><trkpt lat="42.0969275" lon="13.7289622"><ele>733.0</ele><time>2026-04-11T09:59:22.965Z</time></trkpt><trkpt lat="42.0970189" lon="13.7287232"><ele>740.0</ele><time>2026-04-11T09:59:23.966Z</time></trkpt><trkpt lat="42.0971305" lon="13.7284935"><ele>747.0</ele><time>2026-04-11T09:59:24.965Z</time></trkpt><trkpt lat="42.0972463" lon="13.7282716"><ele>749.3333333333334</ele><time>2026-04-11T09:59:25.966Z</time></trkpt><trkpt lat="42.0973663" lon="13.728051"><ele>751.6666666666667</ele><time>2026-04-11T09:59:26.966Z</time></trkpt><trkpt lat="42.097483" lon="13.7278309"><ele>754.0</ele><time>2026-04-11T09:59:27.966Z</time></trkpt><trkpt lat="42.0975826" lon="13.7276027"><ele>754.0</ele><time>2026-04-11T09:59:28.966Z</time></trkpt><trkpt lat="42.097674" lon="13.7273533"><ele>754.0</ele><time>2026-04-11T09:59:29.966Z</time></trkpt><trkpt lat="42.0977491" lon="13.7270845"><ele>754.0</ele><time>2026-04-11T09:59:30.966Z</time></trkpt><trkpt lat="42.0978201" lon="13.7268224"><ele>757.6666666666667</ele><time>2026-04-11T09:59:31.966Z</time></trkpt><trkpt lat="42.0978976" lon="13.7265896"><ele>761.3333333333334</ele><time>2026-04-11T09:59:32.966Z</time></trkpt><trkpt lat="42.0979764" lon="13.7263508"><ele>765.0</ele><time>2026-04-11T09:59:33.966Z</time></trkpt><trkpt lat="42.098072" lon="13.7262278"><ele>767.3333333333333</ele><time>2026-04-11T09:59:34.966Z</time></trkpt><trkpt lat="42.0981048" lon="13.7260245"><ele>769.6666666666666</ele><time>2026-04-11T09:59:35.966Z</time></trkpt><trkpt lat="42.0980999" lon="13.7258147"><ele>772.0</ele><time>2026-04-11T09:59:36.966Z</time></trkpt><trkpt lat="42.0980941" lon="13.7255948"><ele>772.0</ele><time>2026-04-11T09:59:37.966Z</time></trkpt><trkpt lat="42.0981163" lon="13.7253694"><ele>772.0</ele><time>2026-04-11T09:59:38.965Z</time></trkpt><trkpt lat="42.0981771" lon="13.7251356"><ele>772.0</ele><time>2026-04-11T09:59:39.966Z</time></trkpt><trkpt lat="42.0982525" lon="13.7249055"><ele>765.3333333333333</ele><time>2026-04-11T09:59:40.966Z</time></trkpt><trkpt lat="42.0983402" lon="13.7247159"><ele>758.6666666666666</ele><time>2026-04-11T09:59:41.965Z</time></trkpt><trkpt lat="42.0984616" lon="13.7245727"><ele>752.0</ele><time>2026-04-11T09:59:42.965Z</time></trkpt><trkpt lat="42.0985973" lon="13.7244474"><ele>757.0</ele><time>2026-04-11T09:59:43.966Z</time></trkpt><trkpt lat="42.0987198" lon="13.7242916"><ele>762.0</ele><time>2026-04-11T09:59:44.966Z</time></trkpt><trkpt lat="42.0988139" lon="13.7240948"><ele>767.0</ele><time>2026-04-11T09:59:45.966Z</time></trkpt><trkpt lat="42.0988865" lon="13.7238919"><ele>767.0</ele><time>2026-04-11T09:59:46.966Z</time></trkpt><trkpt lat="42.0989393" lon="13.7236956"><ele>767.0</ele><time>2026-04-11T09:59:47.965Z</time></trkpt><trkpt lat="42.0989549" lon="13.7234922"><ele>767.0</ele><time>2026-04-11T09:59:48.966Z</time></trkpt><trkpt lat="42.0989209" lon="13.7232758"><ele>766.6666666666666</ele><time>2026-04-11T09:59:49.966Z</time></trkpt><trkpt lat="42.098865" lon="13.7230588"><ele>766.3333333333334</ele><time>2026-04-11T09:59:50.966Z</time></trkpt><trkpt lat="42.098792" lon="13.7228636"><ele>766.0</ele><time>2026-04-11T09:59:51.966Z</time></trkpt><trkpt lat="42.0986729" lon="13.7226959"><ele>766.0</ele><time>2026-04-11T09:59:52.966Z</time></trkpt><trkpt lat="42.098527" lon="13.7225321"><ele>766.0</ele><time>2026-04-11T09:59:53.966Z</time></trkpt><trkpt lat="42.0983784" lon="13.7223678"><ele>766.0</ele><time>2026-04-11T09:59:54.966Z</time></trkpt><trkpt lat="42.0982356" lon="13.7222211"><ele>767.6666666666667</ele><time>2026-04-11T09:59:55.966Z</time></trkpt><trkpt lat="42.0980898" lon="13.7221215"><ele>769.3333333333334</ele><time>2026-04-11T09:59:56.966Z</time></trkpt><trkpt lat="42.0979448" lon="13.7220819"><ele>771.0</ele><time>2026-04-11T09:59:57.966Z</time></trkpt><trkpt lat="42.0978009" lon="13.7221076"><ele>771.0</ele><time>2026-04-11T09:59:58.966Z</time></trkpt><trkpt lat="42.0976491" lon="13.7221968"><ele>771.0</ele><time>2026-04-11T09:59:59.965Z</time></trkpt><trkpt lat="42.0974804" lon="13.7223322"><ele>771.0</ele><time>2026-04-11T10:00:00.965Z</time></trkpt><trkpt lat="42.0973091" lon="13.7224705"><ele>770.3333333333333</ele><time>2026-04-11T10:00:01.966Z</time></trkpt><trkpt lat="42.0971346" lon="13.7226158"><ele>769.6666666666666</ele><time>2026-04-11T10:00:02.966Z</time></trkpt><trkpt lat="42.0969564" lon="13.7227494"><ele>769.0</ele><time>2026-04-11T10:00:03.966Z</time></trkpt><trkpt lat="42.0967819" lon="13.7228852"><ele>773.0</ele><time>2026-04-11T10:00:04.966Z</time></trkpt><trkpt lat="42.0966164" lon="13.7230128"><ele>777.0</ele><time>2026-04-11T10:00:05.965Z</time></trkpt><trkpt lat="42.0964609" lon="13.7231409"><ele>781.0</ele><time>2026-04-11T10:00:06.965Z</time></trkpt><trkpt lat="42.096311" lon="13.7232825"><ele>781.0</ele><time>2026-04-11T10:00:07.966Z</time></trkpt><trkpt lat="42.0961764" lon="13.7234627"><ele>781.0</ele><time>2026-04-11T10:00:08.965Z</time></trkpt><trkpt lat="42.0960472" lon="13.7236745"><ele>781.0</ele><time>2026-04-11T10:00:09.966Z</time></trkpt><trkpt lat="42.0959213" lon="13.7238967"><ele>783.3333333333333</ele><time>2026-04-11T10:00:10.966Z</time></trkpt><trkpt lat="42.0957908" lon="13.7241213"><ele>785.6666666666667</ele><time>2026-04-11T10:00:11.966Z</time></trkpt><trkpt lat="42.0956658" lon="13.7243326"><ele>788.0</ele><time>2026-04-11T10:00:12.966Z</time></trkpt><trkpt lat="42.0955532" lon="13.7245385"><ele>790.0</ele><time>2026-04-11T10:00:13.965Z</time></trkpt><trkpt lat="42.0954694" lon="13.7247383"><ele>792.0</ele><time>2026-04-11T10:00:14.966Z</time></trkpt><trkpt lat="42.0954293" lon="13.7249468"><ele>794.0</ele><time>2026-04-11T10:00:15.966Z</time></trkpt><trkpt lat="42.0954348" lon="13.7251802"><ele>793.0</ele><time>2026-04-11T10:00:16.966Z</time></trkpt><trkpt lat="42.0954892" lon="13.7254262"><ele>792.0</ele><time>2026-04-11T10:00:17.966Z</time></trkpt><trkpt lat="42.0955664" lon="13.7256845"><ele>791.0</ele><time>2026-04-11T10:00:18.966Z</time></trkpt><trkpt lat="42.09565" lon="13.7259615"><ele>791.6666666666667</ele><time>2026-04-11T10:00:19.966Z</time></trkpt><trkpt lat="42.0957322" lon="13.7262444"><ele>792.3333333333333</ele><time>2026-04-11T10:00:20.965Z</time></trkpt><trkpt lat="42.0958083" lon="13.7265044"><ele>793.0</ele><time>2026-04-11T10:00:21.965Z</time></trkpt><trkpt lat="42.0958759" lon="13.7267545"><ele>794.6666666666666</ele><time>2026-04-11T10:00:22.966Z</time></trkpt><trkpt lat="42.095923" lon="13.7270022"><ele>796.3333333333333</ele><time>2026-04-11T10:00:23.966Z</time></trkpt><trkpt lat="42.0959329" lon="13.7272525"><ele>798.0</ele><time>2026-04-11T10:00:24.966Z</time></trkpt><trkpt lat="42.0959173" lon="13.7274866"><ele>798.0</ele><time>2026-04-11T10:00:25.966Z</time></trkpt><trkpt lat="42.0958762" lon="13.7277097"><ele>798.0</ele><time>2026-04-11T10:00:26.966Z</time></trkpt><trkpt lat="42.0957917" lon="13.7279126"><ele>798.0</ele><time>2026-04-11T10:00:27.966Z</time></trkpt><trkpt lat="42.0956776" lon="13.7280684"><ele>800.3333333333333</ele><time>2026-04-11T10:00:28.966Z</time></trkpt><trkpt lat="42.0955517" lon="13.7282058"><ele>802.6666666666666</ele><time>2026-04-11T10:00:29.966Z</time></trkpt><trkpt lat="42.0953486" lon="13.7282718"><ele>805.0</ele><time>2026-04-11T10:00:30.966Z</time></trkpt><trkpt lat="42.0951615" lon="13.7283121"><ele>805.0</ele><time>2026-04-11T10:00:31.966Z</time></trkpt><trkpt lat="42.0949547" lon="13.7282975"><ele>805.0</ele><time>2026-04-11T10:00:32.966Z</time></trkpt><trkpt lat="42.0947288" lon="13.7282447"><ele>805.0</ele><time>2026-04-11T10:00:33.966Z</time></trkpt><trkpt lat="42.094505" lon="13.7281847"><ele>807.6666666666666</ele><time>2026-04-11T10:00:34.966Z</time></trkpt><trkpt lat="42.0943003" lon="13.7281334"><ele>810.3333333333333</ele><time>2026-04-11T10:00:35.966Z</time></trkpt><trkpt lat="42.0941048" lon="13.7280934"><ele>813.0</ele><time>2026-04-11T10:00:36.966Z</time></trkpt><trkpt lat="42.0939172" lon="13.7280971"><ele>814.3333333333333</ele><time>2026-04-11T10:00:37.966Z</time></trkpt><trkpt lat="42.093732" lon="13.7281618"><ele>815.6666666666666</ele><time>2026-04-11T10:00:38.966Z</time></trkpt><trkpt lat="42.093566" lon="13.7282539"><ele>817.0</ele><time>2026-04-11T10:00:39.965Z</time></trkpt><trkpt lat="42.0934035" lon="13.7283311"><ele>817.0</ele><time>2026-04-11T10:00:40.966Z</time></trkpt><trkpt lat="42.0932846" lon="13.7283504"><ele>817.0</ele><time>2026-04-11T10:00:41.966Z</time></trkpt><trkpt lat="42.0931485" lon="13.7283502"><ele>817.0</ele><time>2026-04-11T10:00:42.966Z</time></trkpt><trkpt lat="42.0930548" lon="13.7282507"><ele>817.0</ele><time>2026-04-11T10:00:43.965Z</time></trkpt><trkpt lat="42.092974" lon="13.7281256"><ele>819.5</ele><time>2026-04-11T10:00:44.966Z</time></trkpt><trkpt lat="42.0929352" lon="13.7279954"><ele>822.0</ele><time>2026-04-11T10:00:45.966Z</time></trkpt><trkpt lat="42.0929374" lon="13.7278344"><ele>824.5</ele><time>2026-04-11T10:00:46.966Z</time></trkpt><trkpt lat="42.0930267" lon="13.7276042"><ele>827.0</ele><time>2026-04-11T10:00:47.966Z</time></trkpt><trkpt lat="42.0931915" lon="13.7272522"><ele>827.0</ele><time>2026-04-11T10:00:48.966Z</time></trkpt><trkpt lat="42.0932992" lon="13.7269418"><ele>827.0</ele><time>2026-04-11T10:00:49.966Z</time></trkpt><trkpt lat="42.093377" lon="13.7266161"><ele>827.0</ele><time>2026-04-11T10:00:50.966Z</time></trkpt><trkpt lat="42.0934423" lon="13.7263201"><ele>827.0</ele><time>2026-04-11T10:00:51.965Z</time></trkpt><trkpt lat="42.0935168" lon="13.7260611"><ele>827.0</ele><time>2026-04-11T10:00:52.965Z</time></trkpt><trkpt lat="42.0936333" lon="13.7258664"><ele>831.6666666666667</ele><time>2026-04-11T10:00:53.966Z</time></trkpt><trkpt lat="42.0937757" lon="13.7257122"><ele>836.3333333333333</ele><time>2026-04-11T10:00:54.966Z</time></trkpt><trkpt lat="42.0939069" lon="13.7255985"><ele>841.0</ele><time>2026-04-11T10:00:55.966Z</time></trkpt><trkpt lat="42.0940046" lon="13.7254834"><ele>841.0</ele><time>2026-04-11T10:00:56.966Z</time></trkpt><trkpt lat="42.0940575" lon="13.7253352"><ele>841.0</ele><time>2026-04-11T10:00:57.965Z</time></trkpt><trkpt lat="42.0940518" lon="13.7251505"><ele>841.0</ele><time>2026-04-11T10:00:58.966Z</time></trkpt><trkpt lat="42.0939963" lon="13.7249344"><ele>841.0</ele><time>2026-04-11T10:00:59.966Z</time></trkpt><trkpt lat="42.0939171" lon="13.7246829"><ele>843.5</ele><time>2026-04-11T10:01:00.965Z</time></trkpt><trkpt lat="42.0938018" lon="13.7244128"><ele>846.0</ele><time>2026-04-11T10:01:01.966Z</time></trkpt><trkpt lat="42.0936748" lon="13.7241397"><ele>846.0</ele><time>2026-04-11T10:01:02.966Z</time></trkpt><trkpt lat="42.0935834" lon="13.7239075"><ele>846.0</ele><time>2026-04-11T10:01:03.966Z</time></trkpt><trkpt lat="42.0935049" lon="13.7237263"><ele>846.0</ele><time>2026-04-11T10:01:04.966Z</time></trkpt><trkpt lat="42.0934124" lon="13.7236086"><ele>844.0</ele><time>2026-04-11T10:01:05.965Z</time></trkpt><trkpt lat="42.0932948" lon="13.7235432"><ele>842.0</ele><time>2026-04-11T10:01:06.966Z</time></trkpt><trkpt lat="42.093181" lon="13.7235049"><ele>840.0</ele><time>2026-04-11T10:01:07.966Z</time></trkpt><trkpt lat="42.0930906" lon="13.7234446"><ele>838.0</ele><time>2026-04-11T10:01:08.966Z</time></trkpt><trkpt lat="42.0930424" lon="13.7233326"><ele>836.0</ele><time>2026-04-11T10:01:09.966Z</time></trkpt><trkpt lat="42.0929986" lon="13.7232246"><ele>844.0</ele><time>2026-04-11T10:01:10.966Z</time></trkpt><trkpt lat="42.0930737" lon="13.7230225"><ele>852.0</ele><time>2026-04-11T10:01:11.966Z</time></trkpt><trkpt lat="42.0931397" lon="13.7228161"><ele>860.0</ele><time>2026-04-11T10:01:12.966Z</time></trkpt><trkpt lat="42.0931639" lon="13.722643"><ele>861.0</ele><time>2026-04-11T10:01:13.966Z</time></trkpt><trkpt lat="42.0931462" lon="13.7224535"><ele>862.0</ele><time>2026-04-11T10:01:14.966Z</time></trkpt><trkpt lat="42.0930716" lon="13.7222595"><ele>863.0</ele><time>2026-04-11T10:01:15.965Z</time></trkpt><trkpt lat="42.0929599" lon="13.7220364"><ele>861.0</ele><time>2026-04-11T10:01:16.965Z</time></trkpt><trkpt lat="42.0928627" lon="13.7217703"><ele>859.0</ele><time>2026-04-11T10:01:17.966Z</time></trkpt><trkpt lat="42.0928019" lon="13.7214704"><ele>859.0</ele><time>2026-04-11T10:01:18.966Z</time></trkpt><trkpt lat="42.0927537" lon="13.7212374"><ele>859.0</ele><time>2026-04-11T10:01:19.965Z</time></trkpt><trkpt lat="42.0926805" lon="13.7210371"><ele>859.0</ele><time>2026-04-11T10:01:20.966Z</time></trkpt><trkpt lat="42.0925746" lon="13.7208859"><ele>858.6666666666666</ele><time>2026-04-11T10:01:21.966Z</time></trkpt><trkpt lat="42.0924462" lon="13.7207942"><ele>858.3333333333333</ele><time>2026-04-11T10:01:22.966Z</time></trkpt><trkpt lat="42.0922753" lon="13.7207602"><ele>858.0</ele><time>2026-04-11T10:01:23.965Z</time></trkpt><trkpt lat="42.0920679" lon="13.7207811"><ele>858.0</ele><time>2026-04-11T10:01:24.966Z</time></trkpt><trkpt lat="42.0918323" lon="13.7208036"><ele>858.0</ele><time>2026-04-11T10:01:25.966Z</time></trkpt><trkpt lat="42.0915924" lon="13.7208079"><ele>862.0</ele><time>2026-04-11T10:01:26.966Z</time></trkpt><trkpt lat="42.0913139" lon="13.7207278"><ele>866.0</ele><time>2026-04-11T10:01:27.966Z</time></trkpt><trkpt lat="42.091091" lon="13.7206644"><ele>866.0</ele><time>2026-04-11T10:01:28.966Z</time></trkpt><trkpt lat="42.090909" lon="13.7206099"><ele>866.0</ele><time>2026-04-11T10:01:29.966Z</time></trkpt><trkpt lat="42.0907529" lon="13.720547"><ele>866.0</ele><time>2026-04-11T10:01:30.966Z</time></trkpt><trkpt lat="42.0906032" lon="13.7204832"><ele>872.6666666666667</ele><time>2026-04-11T10:01:31.966Z</time></trkpt><trkpt lat="42.0904805" lon="13.720367"><ele>879.3333333333333</ele><time>2026-04-11T10:01:32.965Z</time></trkpt><trkpt lat="42.0904375" lon="13.7201948"><ele>886.0</ele><time>2026-04-11T10:01:33.966Z</time></trkpt><trkpt lat="42.0905201" lon="13.7198753"><ele>886.0</ele><time>2026-04-11T10:01:34.966Z</time></trkpt><trkpt lat="42.0904718" lon="13.7196328"><ele>886.0</ele><time>2026-04-11T10:01:35.966Z</time></trkpt><trkpt lat="42.0903772" lon="13.7193908"><ele>886.0</ele><time>2026-04-11T10:01:36.966Z</time></trkpt><trkpt lat="42.0902436" lon="13.719123"><ele>883.5</ele><time>2026-04-11T10:01:37.966Z</time></trkpt><trkpt lat="42.0901033" lon="13.7188467"><ele>881.0</ele><time>2026-04-11T10:01:38.966Z</time></trkpt><trkpt lat="42.0899516" lon="13.7186034"><ele>880.5</ele><time>2026-04-11T10:01:39.966Z</time></trkpt><trkpt lat="42.0897719" lon="13.7183993"><ele>880.0</ele><time>2026-04-11T10:01:40.966Z</time></trkpt><trkpt lat="42.0895549" lon="13.7182479"><ele>880.0</ele><time>2026-04-11T10:01:41.966Z</time></trkpt><trkpt lat="42.0892995" lon="13.7181317"><ele>880.0</ele><time>2026-04-11T10:01:42.966Z</time></trkpt><trkpt lat="42.0890486" lon="13.7180431"><ele>886.0</ele><time>2026-04-11T10:01:43.966Z</time></trkpt><trkpt lat="42.0888233" lon="13.717944"><ele>892.0</ele><time>2026-04-11T10:01:44.966Z</time></trkpt><trkpt lat="42.0886242" lon="13.7178186"><ele>894.3333333333333</ele><time>2026-04-11T10:01:45.966Z</time></trkpt><trkpt lat="42.0884449" lon="13.7176523"><ele>896.6666666666667</ele><time>2026-04-11T10:01:46.966Z</time></trkpt><trkpt lat="42.0882895" lon="13.7174377"><ele>899.0</ele><time>2026-04-11T10:01:47.966Z</time></trkpt><trkpt lat="42.0881487" lon="13.717205"><ele>899.0</ele><time>2026-04-11T10:01:48.966Z</time></trkpt><trkpt lat="42.0880183" lon="13.7169644"><ele>899.0</ele><time>2026-04-11T10:01:49.966Z</time></trkpt><trkpt lat="42.087898" lon="13.7167386"><ele>899.0</ele><time>2026-04-11T10:01:50.966Z</time></trkpt><trkpt lat="42.0877848" lon="13.7165318"><ele>898.0</ele><time>2026-04-11T10:01:51.965Z</time></trkpt><trkpt lat="42.0876551" lon="13.7163321"><ele>897.0</ele><time>2026-04-11T10:01:52.966Z</time></trkpt><trkpt lat="42.0874998" lon="13.7161541"><ele>896.0</ele><time>2026-04-11T10:01:53.966Z</time></trkpt><trkpt lat="42.0873313" lon="13.7159865"><ele>896.0</ele><time>2026-04-11T10:01:54.966Z</time></trkpt><trkpt lat="42.0871607" lon="13.7158147"><ele>896.0</ele><time>2026-04-11T10:01:55.965Z</time></trkpt><trkpt lat="42.0869833" lon="13.7156463"><ele>896.0</ele><time>2026-04-11T10:01:56.966Z</time></trkpt><trkpt lat="42.0868071" lon="13.7154909"><ele>896.0</ele><time>2026-04-11T10:01:57.966Z</time></trkpt><trkpt lat="42.0866295" lon="13.7153636"><ele>896.0</ele><time>2026-04-11T10:01:58.965Z</time></trkpt><trkpt lat="42.0864557" lon="13.71527"><ele>896.0</ele><time>2026-04-11T10:01:59.966Z</time></trkpt><trkpt lat="42.0862959" lon="13.715197"><ele>895.75</ele><time>2026-04-11T10:02:00.966Z</time></trkpt><trkpt lat="42.086162" lon="13.7151182"><ele>895.5</ele><time>2026-04-11T10:02:01.966Z</time></trkpt><trkpt lat="42.0860528" lon="13.7149866"><ele>895.25</ele><time>2026-04-11T10:02:02.965Z</time></trkpt><trkpt lat="42.0859858" lon="13.7148289"><ele>895.0</ele><time>2026-04-11T10:02:03.966Z</time></trkpt><trkpt lat="42.0859099" lon="13.7146874"><ele>895.0</ele><time>2026-04-11T10:02:04.966Z</time></trkpt><trkpt lat="42.0857953" lon="13.7145801"><ele>895.0</ele><time>2026-04-11T10:02:05.966Z</time></trkpt><trkpt lat="42.0856558" lon="13.7145273"><ele>895.0</ele><time>2026-04-11T10:02:06.966Z</time></trkpt><trkpt lat="42.08549" lon="13.7145119"><ele>893.3333333333333</ele><time>2026-04-11T10:02:07.966Z</time></trkpt><trkpt lat="42.0852995" lon="13.7145097"><ele>891.6666666666667</ele><time>2026-04-11T10:02:08.966Z</time></trkpt><trkpt lat="42.0851165" lon="13.7145083"><ele>890.0</ele><time>2026-04-11T10:02:09.966Z</time></trkpt><trkpt lat="42.0849658" lon="13.7145009"><ele>888.8</ele><time>2026-04-11T10:02:10.966Z</time></trkpt><trkpt lat="42.0848498" lon="13.714493"><ele>887.6</ele><time>2026-04-11T10:02:11.966Z</time></trkpt><trkpt lat="42.0847517" lon="13.7144439"><ele>886.4000000000001</ele><time>2026-04-11T10:02:12.965Z</time></trkpt><trkpt lat="42.0846885" lon="13.7143386"><ele>885.2</ele><time>2026-04-11T10:02:13.966Z</time></trkpt><trkpt lat="42.0846199" lon="13.714228"><ele>884.0</ele><time>2026-04-11T10:02:14.966Z</time></trkpt><trkpt lat="42.0846213" lon="13.7140111"><ele>888.25</ele><time>2026-04-11T10:02:15.966Z</time></trkpt><trkpt lat="42.0845766" lon="13.7138502"><ele>892.5</ele><time>2026-04-11T10:02:16.966Z</time></trkpt><trkpt lat="42.0844975" lon="13.7137143"><ele>896.75</ele><time>2026-04-11T10:02:17.966Z</time></trkpt><trkpt lat="42.0843929" lon="13.7136306"><ele>901.0</ele><time>2026-04-11T10:02:18.966Z</time></trkpt><trkpt lat="42.0842547" lon="13.7136179"><ele>901.0</ele><time>2026-04-11T10:02:19.966Z</time></trkpt><trkpt lat="42.0840996" lon="13.7136581"><ele>901.0</ele><time>2026-04-11T10:02:20.966Z</time></trkpt><trkpt lat="42.0839257" lon="13.7137278"><ele>901.0</ele><time>2026-04-11T10:02:21.965Z</time></trkpt><trkpt lat="42.0837306" lon="13.7138061"><ele>901.6666666666666</ele><time>2026-04-11T10:02:22.966Z</time></trkpt><trkpt lat="42.0835654" lon="13.7138726"><ele>902.3333333333333</ele><time>2026-04-11T10:02:23.966Z</time></trkpt><trkpt lat="42.08341" lon="13.7139332"><ele>903.0</ele><time>2026-04-11T10:02:24.966Z</time></trkpt><trkpt lat="42.083279" lon="13.7139871"><ele>903.0</ele><time>2026-04-11T10:02:25.966Z</time></trkpt><trkpt lat="42.0831712" lon="13.714004"><ele>903.0</ele><time>2026-04-11T10:02:26.966Z</time></trkpt><trkpt lat="42.0830758" lon="13.7139633"><ele>903.0</ele><time>2026-04-11T10:02:27.966Z</time></trkpt><trkpt lat="42.0830121" lon="13.7138613"><ele>903.0</ele><time>2026-04-11T10:02:28.965Z</time></trkpt><trkpt lat="42.082983" lon="13.7137215"><ele>903.0</ele><time>2026-04-11T10:02:29.966Z</time></trkpt><trkpt lat="42.0829985" lon="13.7135447"><ele>906.3333333333333</ele><time>2026-04-11T10:02:30.966Z</time></trkpt><trkpt lat="42.0830397" lon="13.713355"><ele>909.6666666666666</ele><time>2026-04-11T10:02:31.965Z</time></trkpt><trkpt lat="42.0830952" lon="13.7131596"><ele>913.0</ele><time>2026-04-11T10:02:32.966Z</time></trkpt><trkpt lat="42.0831433" lon="13.7129707"><ele>913.0</ele><time>2026-04-11T10:02:33.966Z</time></trkpt><trkpt lat="42.0831816" lon="13.7127912"><ele>913.0</ele><time>2026-04-11T10:02:34.966Z</time></trkpt><trkpt lat="42.083195" lon="13.7126161"><ele>913.0</ele><time>2026-04-11T10:02:35.966Z</time></trkpt><trkpt lat="42.083161" lon="13.7124486"><ele>913.0</ele><time>2026-04-11T10:02:36.966Z</time></trkpt><trkpt lat="42.0830771" lon="13.7123018"><ele>915.3333333333333</ele><time>2026-04-11T10:02:37.966Z</time></trkpt><trkpt lat="42.0829422" lon="13.7121863"><ele>917.6666666666667</ele><time>2026-04-11T10:02:38.966Z</time></trkpt><trkpt lat="42.0827801" lon="13.7120904"><ele>920.0</ele><time>2026-04-11T10:02:39.966Z</time></trkpt><trkpt lat="42.0826074" lon="13.712011"><ele>918.0</ele><time>2026-04-11T10:02:40.966Z</time></trkpt><trkpt lat="42.08243" lon="13.7119515"><ele>916.0</ele><time>2026-04-11T10:02:41.966Z</time></trkpt><trkpt lat="42.0822517" lon="13.7119236"><ele>914.0</ele><time>2026-04-11T10:02:42.966Z</time></trkpt><trkpt lat="42.0820849" lon="13.7119355"><ele>914.0</ele><time>2026-04-11T10:02:43.966Z</time></trkpt><trkpt lat="42.0819355" lon="13.7119756"><ele>914.0</ele><time>2026-04-11T10:02:44.966Z</time></trkpt><trkpt lat="42.0818174" lon="13.7120106"><ele>914.0</ele><time>2026-04-11T10:02:45.966Z</time></trkpt><trkpt lat="42.0817153" lon="13.7120018"><ele>914.0</ele><time>2026-04-11T10:02:46.966Z</time></trkpt><trkpt lat="42.0816217" lon="13.7119351"><ele>916.0</ele><time>2026-04-11T10:02:47.966Z</time></trkpt><trkpt lat="42.08154" lon="13.7118657"><ele>918.0</ele><time>2026-04-11T10:02:48.966Z</time></trkpt><trkpt lat="42.0814868" lon="13.7117439"><ele>920.0</ele><time>2026-04-11T10:02:49.966Z</time></trkpt><trkpt lat="42.0814947" lon="13.7116143"><ele>922.0</ele><time>2026-04-11T10:02:50.966Z</time></trkpt><trkpt lat="42.0817196" lon="13.7113487"><ele>922.0</ele><time>2026-04-11T10:02:51.966Z</time></trkpt><trkpt lat="42.0818093" lon="13.7111574"><ele>922.0</ele><time>2026-04-11T10:02:52.966Z</time></trkpt><trkpt lat="42.0818722" lon="13.7109494"><ele>922.0</ele><time>2026-04-11T10:02:53.965Z</time></trkpt><trkpt lat="42.0818778" lon="13.7107261"><ele>921.6666666666666</ele><time>2026-04-11T10:02:54.966Z</time></trkpt><trkpt lat="42.0818756" lon="13.7105002"><ele>921.3333333333333</ele><time>2026-04-11T10:02:55.966Z</time></trkpt><trkpt lat="42.081906" lon="13.7102909"><ele>921.0</ele><time>2026-04-11T10:02:56.966Z</time></trkpt><trkpt lat="42.0819798" lon="13.7100751"><ele>921.6666666666667</ele><time>2026-04-11T10:02:57.965Z</time></trkpt><trkpt lat="42.0820872" lon="13.7098439"><ele>922.3333333333334</ele><time>2026-04-11T10:02:58.965Z</time></trkpt><trkpt lat="42.0821992" lon="13.7096097"><ele>923.0</ele><time>2026-04-11T10:02:59.965Z</time></trkpt><trkpt lat="42.0822942" lon="13.7093519"><ele>927.0</ele><time>2026-04-11T10:03:00.966Z</time></trkpt><trkpt lat="42.0823795" lon="13.709068"><ele>931.0</ele><time>2026-04-11T10:03:01.966Z</time></trkpt><trkpt lat="42.082462" lon="13.7087788"><ele>934.6666666666666</ele><time>2026-04-11T10:03:02.966Z</time></trkpt><trkpt lat="42.0825433" lon="13.7084965"><ele>938.3333333333333</ele><time>2026-04-11T10:03:03.966Z</time></trkpt><trkpt lat="42.0826229" lon="13.7082248"><ele>942.0</ele><time>2026-04-11T10:03:04.966Z</time></trkpt><trkpt lat="42.0826985" lon="13.7079595"><ele>944.6666666666667</ele><time>2026-04-11T10:03:05.966Z</time></trkpt><trkpt lat="42.0827635" lon="13.7077043"><ele>947.3333333333334</ele><time>2026-04-11T10:03:06.966Z</time></trkpt><trkpt lat="42.0828274" lon="13.7074657"><ele>950.0</ele><time>2026-04-11T10:03:07.966Z</time></trkpt><trkpt lat="42.0828866" lon="13.7072478"><ele>950.0</ele><time>2026-04-11T10:03:08.966Z</time></trkpt><trkpt lat="42.082948" lon="13.7070434"><ele>950.0</ele><time>2026-04-11T10:03:09.965Z</time></trkpt><trkpt lat="42.082999" lon="13.7068623"><ele>950.0</ele><time>2026-04-11T10:03:10.966Z</time></trkpt><trkpt lat="42.0830354" lon="13.7067087"><ele>950.0</ele><time>2026-04-11T10:03:11.966Z</time></trkpt><trkpt lat="42.0830451" lon="13.7065728"><ele>953.8</ele><time>2026-04-11T10:03:12.966Z</time></trkpt><trkpt lat="42.0830259" lon="13.7064561"><ele>957.6</ele><time>2026-04-11T10:03:13.966Z</time></trkpt><trkpt lat="42.0829679" lon="13.7063647"><ele>961.4000000000001</ele><time>2026-04-11T10:03:14.965Z</time></trkpt><trkpt lat="42.0828945" lon="13.7063234"><ele>965.2</ele><time>2026-04-11T10:03:15.966Z</time></trkpt><trkpt lat="42.0828104" lon="13.7063541"><ele>969.0</ele><time>2026-04-11T10:03:16.966Z</time></trkpt><trkpt lat="42.0827245" lon="13.7064439"><ele>969.0</ele><time>2026-04-11T10:03:17.966Z</time></trkpt><trkpt lat="42.0826336" lon="13.7065637"><ele>969.0</ele><time>2026-04-11T10:03:18.966Z</time></trkpt><trkpt lat="42.0825464" lon="13.7067033"><ele>969.0</ele><time>2026-04-11T10:03:19.966Z</time></trkpt><trkpt lat="42.0824592" lon="13.7068671"><ele>969.0</ele><time>2026-04-11T10:03:20.966Z</time></trkpt><trkpt lat="42.0823615" lon="13.7070482"><ele>974.6666666666667</ele><time>2026-04-11T10:03:21.966Z</time></trkpt><trkpt lat="42.0822474" lon="13.7072393"><ele>980.3333333333334</ele><time>2026-04-11T10:03:22.966Z</time></trkpt><trkpt lat="42.0821172" lon="13.7074384"><ele>986.0</ele><time>2026-04-11T10:03:23.966Z</time></trkpt><trkpt lat="42.0819791" lon="13.7076448"><ele>987.3333333333334</ele><time>2026-04-11T10:03:24.966Z</time></trkpt><trkpt lat="42.0818374" lon="13.7078478"><ele>988.6666666666667</ele><time>2026-04-11T10:03:25.966Z</time></trkpt><trkpt lat="42.0817057" lon="13.7080338"><ele>990.0</ele><time>2026-04-11T10:03:26.966Z</time></trkpt><trkpt lat="42.0815731" lon="13.7081958"><ele>990.0</ele><time>2026-04-11T10:03:27.966Z</time></trkpt><trkpt lat="42.0814286" lon="13.7083348"><ele>990.0</ele><time>2026-04-11T10:03:28.966Z</time></trkpt><trkpt lat="42.0812565" lon="13.708453"><ele>990.0</ele><time>2026-04-11T10:03:29.965Z</time></trkpt><trkpt lat="42.0810639" lon="13.7085706"><ele>985.6666666666667</ele><time>2026-04-11T10:03:30.966Z</time></trkpt><trkpt lat="42.0808663" lon="13.7086889"><ele>981.3333333333334</ele><time>2026-04-11T10:03:31.965Z</time></trkpt><trkpt lat="42.0806643" lon="13.7088148"><ele>977.0</ele><time>2026-04-11T10:03:32.966Z</time></trkpt><trkpt lat="42.0804619" lon="13.7089399"><ele>977.0</ele><time>2026-04-11T10:03:33.966Z</time></trkpt><trkpt lat="42.0802577" lon="13.7090647"><ele>977.0</ele><time>2026-04-11T10:03:34.966Z</time></trkpt><trkpt lat="42.0800608" lon="13.7091839"><ele>977.0</ele><time>2026-04-11T10:03:35.966Z</time></trkpt><trkpt lat="42.079878" lon="13.7092887"><ele>980.5</ele><time>2026-04-11T10:03:36.965Z</time></trkpt><trkpt lat="42.0797126" lon="13.7093862"><ele>984.0</ele><time>2026-04-11T10:03:37.966Z</time></trkpt><trkpt lat="42.0794229" lon="13.7095077"><ele>978.5</ele><time>2026-04-11T10:03:39.966Z</time></trkpt><trkpt lat="42.0792827" lon="13.7094947"><ele>973.0</ele><time>2026-04-11T10:03:40.966Z</time></trkpt><trkpt lat="42.07916" lon="13.7094356"><ele>967.5</ele><time>2026-04-11T10:03:41.966Z</time></trkpt><trkpt lat="42.0790538" lon="13.7093275"><ele>962.0</ele><time>2026-04-11T10:03:42.966Z</time></trkpt><trkpt lat="42.0789607" lon="13.7091772"><ele>960.6666666666667</ele><time>2026-04-11T10:03:43.966Z</time></trkpt><trkpt lat="42.0788768" lon="13.7089885"><ele>959.3333333333333</ele><time>2026-04-11T10:03:44.966Z</time></trkpt><trkpt lat="42.0787981" lon="13.7087715"><ele>958.0</ele><time>2026-04-11T10:03:45.965Z</time></trkpt><trkpt lat="42.0787259" lon="13.7085337"><ele>963.6666666666666</ele><time>2026-04-11T10:03:46.966Z</time></trkpt><trkpt lat="42.0786619" lon="13.7082765"><ele>969.3333333333333</ele><time>2026-04-11T10:03:47.966Z</time></trkpt><trkpt lat="42.078612" lon="13.7080126"><ele>975.0</ele><time>2026-04-11T10:03:48.966Z</time></trkpt><trkpt lat="42.0785686" lon="13.7077555"><ele>979.6666666666667</ele><time>2026-04-11T10:03:49.966Z</time></trkpt><trkpt lat="42.0785295" lon="13.7075137"><ele>984.3333333333334</ele><time>2026-04-11T10:03:50.966Z</time></trkpt><trkpt lat="42.0784975" lon="13.7072966"><ele>989.0</ele><time>2026-04-11T10:03:51.966Z</time></trkpt><trkpt lat="42.0784683" lon="13.7071095"><ele>989.0</ele><time>2026-04-11T10:03:52.966Z</time></trkpt><trkpt lat="42.0784397" lon="13.7069327"><ele>989.0000000000001</ele><time>2026-04-11T10:03:53.966Z</time></trkpt><trkpt lat="42.078362" lon="13.7068469"><ele>989.0000000000001</ele><time>2026-04-11T10:03:54.966Z</time></trkpt><trkpt lat="42.078272" lon="13.7067728"><ele>989.0</ele><time>2026-04-11T10:03:55.966Z</time></trkpt><trkpt lat="42.0781896" lon="13.7067222"><ele>989.0</ele><time>2026-04-11T10:03:56.966Z</time></trkpt><trkpt lat="42.0780816" lon="13.7068542"><ele>993.0</ele><time>2026-04-11T10:03:57.966Z</time></trkpt><trkpt lat="42.0779813" lon="13.7069958"><ele>997.0</ele><time>2026-04-11T10:03:58.965Z</time></trkpt><trkpt lat="42.0778645" lon="13.7071942"><ele>1001.0</ele><time>2026-04-11T10:03:59.965Z</time></trkpt><trkpt lat="42.0777363" lon="13.7073944"><ele>1001.0</ele><time>2026-04-11T10:04:00.966Z</time></trkpt><trkpt lat="42.0776216" lon="13.7075814"><ele>1001.0</ele><time>2026-04-11T10:04:01.966Z</time></trkpt><trkpt lat="42.0775215" lon="13.7077379"><ele>1001.0</ele><time>2026-04-11T10:04:02.966Z</time></trkpt><trkpt lat="42.0774258" lon="13.7078603"><ele>995.75</ele><time>2026-04-11T10:04:03.966Z</time></trkpt><trkpt lat="42.0773145" lon="13.7079367"><ele>990.5</ele><time>2026-04-11T10:04:04.966Z</time></trkpt><trkpt lat="42.0771882" lon="13.70795"><ele>985.25</ele><time>2026-04-11T10:04:05.966Z</time></trkpt><trkpt lat="42.0770335" lon="13.707952"><ele>980.0</ele><time>2026-04-11T10:04:06.966Z</time></trkpt><trkpt lat="42.0768514" lon="13.7078901"><ele>980.0</ele><time>2026-04-11T10:04:07.966Z</time></trkpt><trkpt lat="42.0766486" lon="13.7078164"><ele>980.0</ele><time>2026-04-11T10:04:08.966Z</time></trkpt><trkpt lat="42.0764384" lon="13.7077513"><ele>980.0</ele><time>2026-04-11T10:04:09.966Z</time></trkpt><trkpt lat="42.0762297" lon="13.7076899"><ele>985.3333333333334</ele><time>2026-04-11T10:04:10.966Z</time></trkpt><trkpt lat="42.0760317" lon="13.7076319"><ele>990.6666666666667</ele><time>2026-04-11T10:04:11.966Z</time></trkpt><trkpt lat="42.0758476" lon="13.7075775"><ele>996.0</ele><time>2026-04-11T10:04:12.966Z</time></trkpt><trkpt lat="42.0756679" lon="13.7075079"><ele>996.0</ele><time>2026-04-11T10:04:13.966Z</time></trkpt><trkpt lat="42.0754931" lon="13.7074048"><ele>996.0</ele><time>2026-04-11T10:04:14.966Z</time></trkpt><trkpt lat="42.0753172" lon="13.7072655"><ele>996.0</ele><time>2026-04-11T10:04:15.966Z</time></trkpt><trkpt lat="42.0751425" lon="13.7071041"><ele>996.0</ele><time>2026-04-11T10:04:16.966Z</time></trkpt><trkpt lat="42.0749618" lon="13.7069483"><ele>996.0</ele><time>2026-04-11T10:04:17.966Z</time></trkpt><trkpt lat="42.0747855" lon="13.7067777"><ele>996.0</ele><time>2026-04-11T10:04:18.966Z</time></trkpt><trkpt lat="42.0746183" lon="13.7065818"><ele>999.5</ele><time>2026-04-11T10:04:19.966Z</time></trkpt><trkpt lat="42.0744541" lon="13.7063601"><ele>1003.0</ele><time>2026-04-11T10:04:20.966Z</time></trkpt><trkpt lat="42.0743036" lon="13.7061471"><ele>1006.6666666666666</ele><time>2026-04-11T10:04:21.965Z</time></trkpt><trkpt lat="42.0741611" lon="13.7059453"><ele>1010.3333333333333</ele><time>2026-04-11T10:04:22.966Z</time></trkpt><trkpt lat="42.0740255" lon="13.7057587"><ele>1014.0</ele><time>2026-04-11T10:04:23.965Z</time></trkpt><trkpt lat="42.0738966" lon="13.7055781"><ele>1014.0</ele><time>2026-04-11T10:04:24.966Z</time></trkpt><trkpt lat="42.0737754" lon="13.7054128"><ele>1014.0</ele><time>2026-04-11T10:04:25.966Z</time></trkpt><trkpt lat="42.07367" lon="13.7052817"><ele>1014.0</ele><time>2026-04-11T10:04:26.966Z</time></trkpt><trkpt lat="42.0735387" lon="13.7052048"><ele>1019.3333333333333</ele><time>2026-04-11T10:04:27.966Z</time></trkpt><trkpt lat="42.0733917" lon="13.7051834"><ele>1024.6666666666665</ele><time>2026-04-11T10:04:28.966Z</time></trkpt><trkpt lat="42.0732098" lon="13.7052046"><ele>1030.0</ele><time>2026-04-11T10:04:29.966Z</time></trkpt><trkpt lat="42.0730133" lon="13.7052215"><ele>1031.3333333333333</ele><time>2026-04-11T10:04:30.966Z</time></trkpt><trkpt lat="42.0728126" lon="13.7052334"><ele>1032.6666666666667</ele><time>2026-04-11T10:04:31.966Z</time></trkpt><trkpt lat="42.0726085" lon="13.7052492"><ele>1034.0</ele><time>2026-04-11T10:04:32.966Z</time></trkpt><trkpt lat="42.0724051" lon="13.7052647"><ele>1031.0</ele><time>2026-04-11T10:04:33.966Z</time></trkpt><trkpt lat="42.0722041" lon="13.7052799"><ele>1028.0</ele><time>2026-04-11T10:04:34.966Z</time></trkpt><trkpt lat="42.0720156" lon="13.7053001"><ele>1025.0</ele><time>2026-04-11T10:04:35.966Z</time></trkpt><trkpt lat="42.0718321" lon="13.705345"><ele>1025.0</ele><time>2026-04-11T10:04:36.966Z</time></trkpt><trkpt lat="42.0716604" lon="13.7054447"><ele>1025.0</ele><time>2026-04-11T10:04:37.966Z</time></trkpt><trkpt lat="42.0715199" lon="13.7056011"><ele>1025.0</ele><time>2026-04-11T10:04:38.966Z</time></trkpt><trkpt lat="42.0713997" lon="13.7057844"><ele>1024.3333333333335</ele><time>2026-04-11T10:04:39.966Z</time></trkpt><trkpt lat="42.0712882" lon="13.7059605"><ele>1023.6666666666667</ele><time>2026-04-11T10:04:40.966Z</time></trkpt><trkpt lat="42.0711542" lon="13.7061074"><ele>1023.0</ele><time>2026-04-11T10:04:41.966Z</time></trkpt><trkpt lat="42.0709958" lon="13.706212"><ele>1023.0</ele><time>2026-04-11T10:04:42.966Z</time></trkpt><trkpt lat="42.0708244" lon="13.7062765"><ele>1023.0</ele><time>2026-04-11T10:04:43.966Z</time></trkpt><trkpt lat="42.0706506" lon="13.7063083"><ele>1023.0</ele><time>2026-04-11T10:04:44.966Z</time></trkpt><trkpt lat="42.0705005" lon="13.7063172"><ele>1024.0</ele><time>2026-04-11T10:04:45.966Z</time></trkpt><trkpt lat="42.0703716" lon="13.7063074"><ele>1025.0</ele><time>2026-04-11T10:04:46.966Z</time></trkpt><trkpt lat="42.0702685" lon="13.706274"><ele>1026.0</ele><time>2026-04-11T10:04:47.966Z</time></trkpt><trkpt lat="42.0701987" lon="13.7062074"><ele>1027.0</ele><time>2026-04-11T10:04:48.966Z</time></trkpt><trkpt lat="42.070164" lon="13.7061197"><ele>1028.0</ele><time>2026-04-11T10:04:49.966Z</time></trkpt><trkpt lat="42.0701718" lon="13.7060198"><ele>1032.75</ele><time>2026-04-11T10:04:50.966Z</time></trkpt><trkpt lat="42.0702199" lon="13.70593"><ele>1037.5</ele><time>2026-04-11T10:04:51.965Z</time></trkpt><trkpt lat="42.0703096" lon="13.7058791"><ele>1042.25</ele><time>2026-04-11T10:04:52.966Z</time></trkpt><trkpt lat="42.0704405" lon="13.7058676"><ele>1047.0</ele><time>2026-04-11T10:04:53.966Z</time></trkpt><trkpt lat="42.0706043" lon="13.7058815"><ele>1047.0</ele><time>2026-04-11T10:04:54.966Z</time></trkpt><trkpt lat="42.0707734" lon="13.7058823"><ele>1047.0</ele><time>2026-04-11T10:04:55.966Z</time></trkpt><trkpt lat="42.0709318" lon="13.7058371"><ele>1047.0</ele><time>2026-04-11T10:04:56.966Z</time></trkpt><trkpt lat="42.071082" lon="13.7057244"><ele>1045.0</ele><time>2026-04-11T10:04:57.966Z</time></trkpt><trkpt lat="42.0712355" lon="13.7056127"><ele>1043.0</ele><time>2026-04-11T10:04:58.966Z</time></trkpt><trkpt lat="42.0713432" lon="13.7053526"><ele>1041.0</ele><time>2026-04-11T10:04:59.966Z</time></trkpt><trkpt lat="42.0715048" lon="13.7051714"><ele>1042.6666666666667</ele><time>2026-04-11T10:05:00.965Z</time></trkpt><trkpt lat="42.0716893" lon="13.7049979"><ele>1044.3333333333335</ele><time>2026-04-11T10:05:01.966Z</time></trkpt><trkpt lat="42.0718708" lon="13.7048287"><ele>1046.0</ele><time>2026-04-11T10:05:02.966Z</time></trkpt><trkpt lat="42.0720438" lon="13.7046687"><ele>1046.0</ele><time>2026-04-11T10:05:03.966Z</time></trkpt><trkpt lat="42.0721998" lon="13.7045151"><ele>1046.0</ele><time>2026-04-11T10:05:04.966Z</time></trkpt><trkpt lat="42.0723339" lon="13.7043403"><ele>1046.0</ele><time>2026-04-11T10:05:05.966Z</time></trkpt><trkpt lat="42.0724494" lon="13.70415"><ele>1047.5</ele><time>2026-04-11T10:05:06.966Z</time></trkpt><trkpt lat="42.07255" lon="13.7039707"><ele>1049.0</ele><time>2026-04-11T10:05:07.966Z</time></trkpt><trkpt lat="42.0726418" lon="13.7038159"><ele>1050.5</ele><time>2026-04-11T10:05:08.966Z</time></trkpt><trkpt lat="42.0727021" lon="13.7036799"><ele>1052.0</ele><time>2026-04-11T10:05:09.966Z</time></trkpt><trkpt lat="42.0727286" lon="13.7035504"><ele>1054.8</ele><time>2026-04-11T10:05:10.965Z</time></trkpt><trkpt lat="42.0727107" lon="13.7034294"><ele>1057.6</ele><time>2026-04-11T10:05:11.966Z</time></trkpt><trkpt lat="42.0726463" lon="13.7033532"><ele>1060.3999999999999</ele><time>2026-04-11T10:05:12.966Z</time></trkpt><trkpt lat="42.0725582" lon="13.7033437"><ele>1063.2</ele><time>2026-04-11T10:05:13.966Z</time></trkpt><trkpt lat="42.0724561" lon="13.7034045"><ele>1066.0</ele><time>2026-04-11T10:05:14.966Z</time></trkpt><trkpt lat="42.0723558" lon="13.7034809"><ele>1065.3333333333333</ele><time>2026-04-11T10:05:15.966Z</time></trkpt><trkpt lat="42.0722201" lon="13.7036896"><ele>1064.6666666666667</ele><time>2026-04-11T10:05:16.966Z</time></trkpt><trkpt lat="42.0720983" lon="13.7038595"><ele>1064.0</ele><time>2026-04-11T10:05:17.966Z</time></trkpt><trkpt lat="42.0719691" lon="13.7040259"><ele>1064.0</ele><time>2026-04-11T10:05:18.965Z</time></trkpt><trkpt lat="42.0718294" lon="13.7041721"><ele>1064.0</ele><time>2026-04-11T10:05:19.966Z</time></trkpt><trkpt lat="42.0716839" lon="13.7042939"><ele>1064.0</ele><time>2026-04-11T10:05:20.966Z</time></trkpt><trkpt lat="42.0715254" lon="13.704367"><ele>1067.3333333333335</ele><time>2026-04-11T10:05:21.965Z</time></trkpt><trkpt lat="42.0713511" lon="13.704384"><ele>1070.6666666666667</ele><time>2026-04-11T10:05:22.966Z</time></trkpt><trkpt lat="42.0711613" lon="13.7043758"><ele>1074.0</ele><time>2026-04-11T10:05:23.966Z</time></trkpt><trkpt lat="42.0709526" lon="13.7043494"><ele>1082.3333333333333</ele><time>2026-04-11T10:05:24.966Z</time></trkpt><trkpt lat="42.0707449" lon="13.7043268"><ele>1090.6666666666665</ele><time>2026-04-11T10:05:25.966Z</time></trkpt><trkpt lat="42.0705531" lon="13.7043275"><ele>1099.0</ele><time>2026-04-11T10:05:26.966Z</time></trkpt><trkpt lat="42.0703583" lon="13.7043803"><ele>1084.0</ele><time>2026-04-11T10:05:27.966Z</time></trkpt><trkpt lat="42.0701643" lon="13.7045062"><ele>1069.0</ele><time>2026-04-11T10:05:28.966Z</time></trkpt><trkpt lat="42.0699751" lon="13.7046949"><ele>1086.0</ele><time>2026-04-11T10:05:29.966Z</time></trkpt><trkpt lat="42.0697956" lon="13.7049229"><ele>1103.0</ele><time>2026-04-11T10:05:30.966Z</time></trkpt><trkpt lat="42.0696179" lon="13.7051338"><ele>1098.3333333333335</ele><time>2026-04-11T10:05:31.966Z</time></trkpt><trkpt lat="42.0694422" lon="13.7053122"><ele>1093.6666666666667</ele><time>2026-04-11T10:05:32.966Z</time></trkpt><trkpt lat="42.0692508" lon="13.7054661"><ele>1089.0</ele><time>2026-04-11T10:05:33.966Z</time></trkpt><trkpt lat="42.0690496" lon="13.7055986"><ele>1089.0</ele><time>2026-04-11T10:05:34.966Z</time></trkpt><trkpt lat="42.0688485" lon="13.7057088"><ele>1089.0</ele><time>2026-04-11T10:05:35.966Z</time></trkpt><trkpt lat="42.068642" lon="13.7057932"><ele>1089.0</ele><time>2026-04-11T10:05:36.966Z</time></trkpt><trkpt lat="42.0684303" lon="13.7058575"><ele>1093.6666666666667</ele><time>2026-04-11T10:05:37.966Z</time></trkpt><trkpt lat="42.0682165" lon="13.7059101"><ele>1098.3333333333335</ele><time>2026-04-11T10:05:38.965Z</time></trkpt><trkpt lat="42.0679936" lon="13.7059594"><ele>1103.0</ele><time>2026-04-11T10:05:39.966Z</time></trkpt><trkpt lat="42.0677617" lon="13.7060044"><ele>1103.0</ele><time>2026-04-11T10:05:40.966Z</time></trkpt><trkpt lat="42.0675263" lon="13.7060413"><ele>1103.0</ele><time>2026-04-11T10:05:41.966Z</time></trkpt><trkpt lat="42.0672897" lon="13.7060624"><ele>1106.0</ele><time>2026-04-11T10:05:42.966Z</time></trkpt><trkpt lat="42.0670509" lon="13.7060658"><ele>1109.0</ele><time>2026-04-11T10:05:43.966Z</time></trkpt><trkpt lat="42.0668153" lon="13.7060671"><ele>1113.5</ele><time>2026-04-11T10:05:44.966Z</time></trkpt><trkpt lat="42.0665855" lon="13.7060754"><ele>1118.0</ele><time>2026-04-11T10:05:45.966Z</time></trkpt><trkpt lat="42.0663606" lon="13.7061136"><ele>1110.0</ele><time>2026-04-11T10:05:46.966Z</time></trkpt><trkpt lat="42.0661462" lon="13.706169"><ele>1102.0</ele><time>2026-04-11T10:05:47.966Z</time></trkpt><trkpt lat="42.0659293" lon="13.7062202"><ele>1094.0</ele><time>2026-04-11T10:05:48.966Z</time></trkpt><trkpt lat="42.0657134" lon="13.7062362"><ele>1094.0</ele><time>2026-04-11T10:05:49.966Z</time></trkpt><trkpt lat="42.0654897" lon="13.7062179"><ele>1094.0</ele><time>2026-04-11T10:05:50.966Z</time></trkpt><trkpt lat="42.0652558" lon="13.7061787"><ele>1094.0</ele><time>2026-04-11T10:05:51.965Z</time></trkpt><trkpt lat="42.0650269" lon="13.7061476"><ele>1094.0</ele><time>2026-04-11T10:05:52.966Z</time></trkpt><trkpt lat="42.0648147" lon="13.7061278"><ele>1094.0</ele><time>2026-04-11T10:05:53.965Z</time></trkpt><trkpt lat="42.0646213" lon="13.706122"><ele>1099.6666666666667</ele><time>2026-04-11T10:05:54.966Z</time></trkpt><trkpt lat="42.0644511" lon="13.7061141"><ele>1105.3333333333333</ele><time>2026-04-11T10:05:55.966Z</time></trkpt><trkpt lat="42.0642965" lon="13.7060958"><ele>1111.0</ele><time>2026-04-11T10:05:56.966Z</time></trkpt><trkpt lat="42.0641558" lon="13.7060453"><ele>1111.3333333333333</ele><time>2026-04-11T10:05:57.966Z</time></trkpt><trkpt lat="42.0640305" lon="13.7059462"><ele>1111.6666666666667</ele><time>2026-04-11T10:05:58.965Z</time></trkpt><trkpt lat="42.0639098" lon="13.7058036"><ele>1112.0</ele><time>2026-04-11T10:05:59.966Z</time></trkpt><trkpt lat="42.0637818" lon="13.7056295"><ele>1112.0</ele><time>2026-04-11T10:06:00.966Z</time></trkpt><trkpt lat="42.0636565" lon="13.7054364"><ele>1112.0</ele><time>2026-04-11T10:06:01.966Z</time></trkpt><trkpt lat="42.0635304" lon="13.705226"><ele>1112.0</ele><time>2026-04-11T10:06:02.965Z</time></trkpt><trkpt lat="42.0634173" lon="13.7050232"><ele>1109.6666666666667</ele><time>2026-04-11T10:06:03.966Z</time></trkpt><trkpt lat="42.063321" lon="13.7048162"><ele>1107.3333333333333</ele><time>2026-04-11T10:06:04.966Z</time></trkpt><trkpt lat="42.0632432" lon="13.7045859"><ele>1105.0</ele><time>2026-04-11T10:06:05.966Z</time></trkpt><trkpt lat="42.0631972" lon="13.7043231"><ele>1101.0</ele><time>2026-04-11T10:06:06.966Z</time></trkpt><trkpt lat="42.0631557" lon="13.7040416"><ele>1097.0</ele><time>2026-04-11T10:06:07.966Z</time></trkpt><trkpt lat="42.0631042" lon="13.7037579"><ele>1093.0</ele><time>2026-04-11T10:06:08.966Z</time></trkpt><trkpt lat="42.06303" lon="13.7034872"><ele>1093.0</ele><time>2026-04-11T10:06:09.966Z</time></trkpt><trkpt lat="42.0629215" lon="13.7032297"><ele>1093.0</ele><time>2026-04-11T10:06:10.965Z</time></trkpt><trkpt lat="42.0627957" lon="13.7030077"><ele>1093.0</ele><time>2026-04-11T10:06:11.966Z</time></trkpt><trkpt lat="42.0626909" lon="13.7028151"><ele>1096.3333333333333</ele><time>2026-04-11T10:06:12.966Z</time></trkpt><trkpt lat="42.0626057" lon="13.7026159"><ele>1099.6666666666667</ele><time>2026-04-11T10:06:13.966Z</time></trkpt><trkpt lat="42.0625558" lon="13.7023986"><ele>1103.0</ele><time>2026-04-11T10:06:14.966Z</time></trkpt><trkpt lat="42.06253" lon="13.7021451"><ele>1104.3333333333335</ele><time>2026-04-11T10:06:15.966Z</time></trkpt><trkpt lat="42.0625242" lon="13.70187"><ele>1105.6666666666667</ele><time>2026-04-11T10:06:16.966Z</time></trkpt><trkpt lat="42.062527" lon="13.7015715"><ele>1107.0</ele><time>2026-04-11T10:06:17.966Z</time></trkpt><trkpt lat="42.0625274" lon="13.7012498"><ele>1108.0</ele><time>2026-04-11T10:06:18.966Z</time></trkpt><trkpt lat="42.0625255" lon="13.7008984"><ele>1109.0</ele><time>2026-04-11T10:06:19.966Z</time></trkpt><trkpt lat="42.0625302" lon="13.7005341"><ele>1109.5</ele><time>2026-04-11T10:06:20.966Z</time></trkpt><trkpt lat="42.0625296" lon="13.700162"><ele>1110.0</ele><time>2026-04-11T10:06:21.966Z</time></trkpt><trkpt lat="42.0625259" lon="13.6997816"><ele>1108.5</ele><time>2026-04-11T10:06:22.966Z</time></trkpt><trkpt lat="42.0625104" lon="13.6993926"><ele>1107.0</ele><time>2026-04-11T10:06:23.966Z</time></trkpt><trkpt lat="42.0624974" lon="13.6990028"><ele>1107.0</ele><time>2026-04-11T10:06:24.965Z</time></trkpt><trkpt lat="42.0625104" lon="13.6986091"><ele>1107.0</ele><time>2026-04-11T10:06:25.966Z</time></trkpt><trkpt lat="42.0625365" lon="13.6982276"><ele>1105.5</ele><time>2026-04-11T10:06:26.966Z</time></trkpt><trkpt lat="42.0625407" lon="13.6978426"><ele>1104.0</ele><time>2026-04-11T10:06:27.966Z</time></trkpt><trkpt lat="42.062522" lon="13.6974565"><ele>1103.5</ele><time>2026-04-11T10:06:28.966Z</time></trkpt><trkpt lat="42.0625" lon="13.6970774"><ele>1103.0</ele><time>2026-04-11T10:06:29.966Z</time></trkpt><trkpt lat="42.0624779" lon="13.696698"><ele>1103.0</ele><time>2026-04-11T10:06:30.966Z</time></trkpt><trkpt lat="42.0624549" lon="13.6963209"><ele>1103.0</ele><time>2026-04-11T10:06:31.965Z</time></trkpt><trkpt lat="42.062432" lon="13.695946"><ele>1090.0</ele><time>2026-04-11T10:06:32.966Z</time></trkpt><trkpt lat="42.0624049" lon="13.6955732"><ele>1077.0</ele><time>2026-04-11T10:06:33.966Z</time></trkpt><trkpt lat="42.0623797" lon="13.695215"><ele>1077.0</ele><time>2026-04-11T10:06:34.966Z</time></trkpt><trkpt lat="42.0623629" lon="13.6948693"><ele>1077.0</ele><time>2026-04-11T10:06:35.966Z</time></trkpt><trkpt lat="42.0623436" lon="13.6945574"><ele>1079.3333333333333</ele><time>2026-04-11T10:06:36.965Z</time></trkpt><trkpt lat="42.0623184" lon="13.6942794"><ele>1081.6666666666665</ele><time>2026-04-11T10:06:37.966Z</time></trkpt><trkpt lat="42.0622796" lon="13.6940256"><ele>1084.0</ele><time>2026-04-11T10:06:38.966Z</time></trkpt><trkpt lat="42.0622198" lon="13.6937954"><ele>1084.0</ele><time>2026-04-11T10:06:39.966Z</time></trkpt><trkpt lat="42.0621342" lon="13.6935932"><ele>1084.0</ele><time>2026-04-11T10:06:40.966Z</time></trkpt><trkpt lat="42.0620477" lon="13.69342"><ele>1084.0</ele><time>2026-04-11T10:06:41.966Z</time></trkpt><trkpt lat="42.0619786" lon="13.6932595"><ele>1086.75</ele><time>2026-04-11T10:06:42.966Z</time></trkpt><trkpt lat="42.0619366" lon="13.6930912"><ele>1089.5</ele><time>2026-04-11T10:06:43.966Z</time></trkpt><trkpt lat="42.0619482" lon="13.6929122"><ele>1092.25</ele><time>2026-04-11T10:06:44.966Z</time></trkpt><trkpt lat="42.0620201" lon="13.6927232"><ele>1095.0</ele><time>2026-04-11T10:06:45.966Z</time></trkpt><trkpt lat="42.0621291" lon="13.6925313"><ele>1095.0</ele><time>2026-04-11T10:06:46.966Z</time></trkpt><trkpt lat="42.0622503" lon="13.6923383"><ele>1095.0</ele><time>2026-04-11T10:06:47.966Z</time></trkpt><trkpt lat="42.062377" lon="13.6921302"><ele>1095.0</ele><time>2026-04-11T10:06:48.966Z</time></trkpt><trkpt lat="42.0625068" lon="13.6919156"><ele>1092.6666666666667</ele><time>2026-04-11T10:06:49.966Z</time></trkpt><trkpt lat="42.0626472" lon="13.6916852"><ele>1090.3333333333335</ele><time>2026-04-11T10:06:50.966Z</time></trkpt><trkpt lat="42.062784" lon="13.6914448"><ele>1088.0</ele><time>2026-04-11T10:06:51.966Z</time></trkpt><trkpt lat="42.0629221" lon="13.691187"><ele>1082.5</ele><time>2026-04-11T10:06:52.966Z</time></trkpt><trkpt lat="42.0630588" lon="13.6909082"><ele>1077.0</ele><time>2026-04-11T10:06:53.966Z</time></trkpt><trkpt lat="42.0631918" lon="13.6906112"><ele>1081.0</ele><time>2026-04-11T10:06:54.966Z</time></trkpt><trkpt lat="42.0633248" lon="13.6903057"><ele>1085.0</ele><time>2026-04-11T10:06:55.966Z</time></trkpt><trkpt lat="42.0634572" lon="13.6900011"><ele>1085.0</ele><time>2026-04-11T10:06:56.966Z</time></trkpt><trkpt lat="42.063576" lon="13.6897058"><ele>1085.0</ele><time>2026-04-11T10:06:57.966Z</time></trkpt><trkpt lat="42.0636935" lon="13.6894394"><ele>1081.6666666666667</ele><time>2026-04-11T10:06:58.966Z</time></trkpt><trkpt lat="42.0638006" lon="13.6891982"><ele>1078.3333333333333</ele><time>2026-04-11T10:06:59.966Z</time></trkpt><trkpt lat="42.0638855" lon="13.6889713"><ele>1075.0</ele><time>2026-04-11T10:07:00.966Z</time></trkpt><trkpt lat="42.06395" lon="13.6887499"><ele>1073.0</ele><time>2026-04-11T10:07:01.966Z</time></trkpt><trkpt lat="42.063983" lon="13.688515"><ele>1071.0</ele><time>2026-04-11T10:07:02.966Z</time></trkpt><trkpt lat="42.0639614" lon="13.6882745"><ele>1069.0</ele><time>2026-04-11T10:07:03.966Z</time></trkpt><trkpt lat="42.0639292" lon="13.6880333"><ele>1069.0</ele><time>2026-04-11T10:07:04.966Z</time></trkpt><trkpt lat="42.0638946" lon="13.6877933"><ele>1069.0</ele><time>2026-04-11T10:07:05.965Z</time></trkpt><trkpt lat="42.0638862" lon="13.6875432"><ele>1069.0</ele><time>2026-04-11T10:07:06.966Z</time></trkpt><trkpt lat="42.0639048" lon="13.6872863"><ele>1068.3333333333333</ele><time>2026-04-11T10:07:07.966Z</time></trkpt><trkpt lat="42.0639523" lon="13.6870199"><ele>1067.6666666666667</ele><time>2026-04-11T10:07:08.966Z</time></trkpt><trkpt lat="42.0640151" lon="13.6867469"><ele>1067.0</ele><time>2026-04-11T10:07:09.966Z</time></trkpt><trkpt lat="42.0640876" lon="13.6864738"><ele>1068.0</ele><time>2026-04-11T10:07:10.966Z</time></trkpt><trkpt lat="42.064159" lon="13.686206"><ele>1069.0</ele><time>2026-04-11T10:07:11.966Z</time></trkpt><trkpt lat="42.0642154" lon="13.6859492"><ele>1070.0</ele><time>2026-04-11T10:07:12.965Z</time></trkpt><trkpt lat="42.0642318" lon="13.6856888"><ele>1070.0</ele><time>2026-04-11T10:07:13.966Z</time></trkpt><trkpt lat="42.0641954" lon="13.6854207"><ele>1070.0</ele><time>2026-04-11T10:07:14.965Z</time></trkpt><trkpt lat="42.0641166" lon="13.6851555"><ele>1070.0</ele><time>2026-04-11T10:07:15.965Z</time></trkpt><trkpt lat="42.0640216" lon="13.6848854"><ele>1065.0</ele><time>2026-04-11T10:07:16.966Z</time></trkpt><trkpt lat="42.063921" lon="13.6846067"><ele>1060.0</ele><time>2026-04-11T10:07:17.966Z</time></trkpt><trkpt lat="42.0638174" lon="13.684334"><ele>1060.0</ele><time>2026-04-11T10:07:18.966Z</time></trkpt><trkpt lat="42.0637083" lon="13.6840658"><ele>1060.0</ele><time>2026-04-11T10:07:19.966Z</time></trkpt><trkpt lat="42.0635524" lon="13.6838601"><ele>1060.0</ele><time>2026-04-11T10:07:20.965Z</time></trkpt><trkpt lat="42.0633682" lon="13.683663"><ele>1059.5</ele><time>2026-04-11T10:07:21.965Z</time></trkpt><trkpt lat="42.0631706" lon="13.6834649"><ele>1059.0</ele><time>2026-04-11T10:07:22.966Z</time></trkpt><trkpt lat="42.0629597" lon="13.6832613"><ele>1059.0</ele><time>2026-04-11T10:07:23.966Z</time></trkpt><trkpt lat="42.0627408" lon="13.6830502"><ele>1059.0</ele><time>2026-04-11T10:07:24.966Z</time></trkpt><trkpt lat="42.0625131" lon="13.6828338"><ele>1059.0</ele><time>2026-04-11T10:07:25.966Z</time></trkpt><trkpt lat="42.062286" lon="13.682617"><ele>1059.0</ele><time>2026-04-11T10:07:26.966Z</time></trkpt><trkpt lat="42.0620559" lon="13.6823962"><ele>1059.0</ele><time>2026-04-11T10:07:27.966Z</time></trkpt><trkpt lat="42.0618217" lon="13.6821744"><ele>1059.0</ele><time>2026-04-11T10:07:28.966Z</time></trkpt><trkpt lat="42.0615879" lon="13.6819518"><ele>1060.0</ele><time>2026-04-11T10:07:29.966Z</time></trkpt><trkpt lat="42.0613519" lon="13.6817252"><ele>1061.0</ele><time>2026-04-11T10:07:30.966Z</time></trkpt><trkpt lat="42.0611128" lon="13.6814957"><ele>1061.0</ele><time>2026-04-11T10:07:31.966Z</time></trkpt><trkpt lat="42.0608743" lon="13.6812732"><ele>1061.0</ele><time>2026-04-11T10:07:32.966Z</time></trkpt><trkpt lat="42.0606379" lon="13.6810479"><ele>1063.0</ele><time>2026-04-11T10:07:33.966Z</time></trkpt><trkpt lat="42.0604065" lon="13.6808227"><ele>1065.0</ele><time>2026-04-11T10:07:34.966Z</time></trkpt><trkpt lat="42.0601824" lon="13.6806021"><ele>1065.0</ele><time>2026-04-11T10:07:35.966Z</time></trkpt><trkpt lat="42.0599685" lon="13.6803892"><ele>1065.0</ele><time>2026-04-11T10:07:36.966Z</time></trkpt><trkpt lat="42.0597757" lon="13.6801726"><ele>1066.0</ele><time>2026-04-11T10:07:37.966Z</time></trkpt><trkpt lat="42.0595922" lon="13.6799565"><ele>1067.0</ele><time>2026-04-11T10:07:38.966Z</time></trkpt><trkpt lat="42.0594101" lon="13.679756"><ele>1067.0</ele><time>2026-04-11T10:07:39.965Z</time></trkpt><trkpt lat="42.059232" lon="13.6795767"><ele>1067.0</ele><time>2026-04-11T10:07:40.965Z</time></trkpt><trkpt lat="42.0590589" lon="13.6794151"><ele>1067.0</ele><time>2026-04-11T10:07:41.966Z</time></trkpt><trkpt lat="42.0589029" lon="13.67929"><ele>1068.3333333333335</ele><time>2026-04-11T10:07:42.966Z</time></trkpt><trkpt lat="42.0587573" lon="13.6791854"><ele>1069.6666666666667</ele><time>2026-04-11T10:07:43.966Z</time></trkpt><trkpt lat="42.0586308" lon="13.6790729"><ele>1071.0</ele><time>2026-04-11T10:07:44.966Z</time></trkpt><trkpt lat="42.0585259" lon="13.6789268"><ele>1071.0</ele><time>2026-04-11T10:07:45.966Z</time></trkpt><trkpt lat="42.05844" lon="13.6787558"><ele>1071.0</ele><time>2026-04-11T10:07:46.966Z</time></trkpt><trkpt lat="42.0583723" lon="13.6785621"><ele>1071.0</ele><time>2026-04-11T10:07:47.966Z</time></trkpt><trkpt lat="42.0583211" lon="13.6783624"><ele>1071.6666666666667</ele><time>2026-04-11T10:07:48.966Z</time></trkpt><trkpt lat="42.0582806" lon="13.6781634"><ele>1072.3333333333335</ele><time>2026-04-11T10:07:49.966Z</time></trkpt><trkpt lat="42.0582473" lon="13.6779573"><ele>1073.0</ele><time>2026-04-11T10:07:50.965Z</time></trkpt><trkpt lat="42.0582991" lon="13.6777716"><ele>1074.3333333333335</ele><time>2026-04-11T10:07:51.966Z</time></trkpt><trkpt lat="42.0583667" lon="13.6775849"><ele>1075.6666666666667</ele><time>2026-04-11T10:07:52.966Z</time></trkpt><trkpt lat="42.0584667" lon="13.6774114"><ele>1077.0</ele><time>2026-04-11T10:07:53.966Z</time></trkpt><trkpt lat="42.0585876" lon="13.677237"><ele>1077.0</ele><time>2026-04-11T10:07:54.966Z</time></trkpt><trkpt lat="42.0587012" lon="13.6770562"><ele>1077.0</ele><time>2026-04-11T10:07:55.966Z</time></trkpt><trkpt lat="42.0588056" lon="13.6768541"><ele>1077.0</ele><time>2026-04-11T10:07:56.966Z</time></trkpt><trkpt lat="42.0589016" lon="13.6766314"><ele>1076.3333333333333</ele><time>2026-04-11T10:07:57.966Z</time></trkpt><trkpt lat="42.058988" lon="13.6763922"><ele>1075.6666666666665</ele><time>2026-04-11T10:07:58.966Z</time></trkpt><trkpt lat="42.0590792" lon="13.6761453"><ele>1075.0</ele><time>2026-04-11T10:07:59.966Z</time></trkpt><trkpt lat="42.059172" lon="13.6758899"><ele>1075.0</ele><time>2026-04-11T10:08:00.966Z</time></trkpt><trkpt lat="42.0592672" lon="13.6756278"><ele>1075.0</ele><time>2026-04-11T10:08:01.966Z</time></trkpt><trkpt lat="42.0593625" lon="13.6753652"><ele>1075.0</ele><time>2026-04-11T10:08:02.966Z</time></trkpt><trkpt lat="42.0594537" lon="13.6751151"><ele>1075.3333333333333</ele><time>2026-04-11T10:08:03.966Z</time></trkpt><trkpt lat="42.0595483" lon="13.6748701"><ele>1075.6666666666667</ele><time>2026-04-11T10:08:04.965Z</time></trkpt><trkpt lat="42.0596528" lon="13.6746339"><ele>1076.0</ele><time>2026-04-11T10:08:05.966Z</time></trkpt><trkpt lat="42.0597625" lon="13.674397"><ele>1076.0</ele><time>2026-04-11T10:08:06.965Z</time></trkpt><trkpt lat="42.0598844" lon="13.6741687"><ele>1076.0</ele><time>2026-04-11T10:08:07.965Z</time></trkpt><trkpt lat="42.060012" lon="13.6739398"><ele>1076.0</ele><time>2026-04-11T10:08:08.966Z</time></trkpt><trkpt lat="42.0601403" lon="13.6737005"><ele>1070.6666666666667</ele><time>2026-04-11T10:08:09.966Z</time></trkpt><trkpt lat="42.0602712" lon="13.673463"><ele>1065.3333333333333</ele><time>2026-04-11T10:08:10.966Z</time></trkpt><trkpt lat="42.0604042" lon="13.673219"><ele>1060.0</ele><time>2026-04-11T10:08:11.966Z</time></trkpt><trkpt lat="42.060531" lon="13.6729804"><ele>1061.5</ele><time>2026-04-11T10:08:12.966Z</time></trkpt><trkpt lat="42.0606628" lon="13.6727364"><ele>1063.0</ele><time>2026-04-11T10:08:13.966Z</time></trkpt><trkpt lat="42.0607866" lon="13.6724783"><ele>1063.5</ele><time>2026-04-11T10:08:14.966Z</time></trkpt><trkpt lat="42.0609009" lon="13.6722123"><ele>1064.0</ele><time>2026-04-11T10:08:15.966Z</time></trkpt><trkpt lat="42.0610049" lon="13.6719425"><ele>1060.6666666666667</ele><time>2026-04-11T10:08:16.966Z</time></trkpt><trkpt lat="42.0611034" lon="13.671682"><ele>1057.3333333333333</ele><time>2026-04-11T10:08:17.966Z</time></trkpt><trkpt lat="42.0611874" lon="13.6714258"><ele>1054.0</ele><time>2026-04-11T10:08:18.966Z</time></trkpt><trkpt lat="42.0612525" lon="13.6711693"><ele>1053.3333333333333</ele><time>2026-04-11T10:08:19.966Z</time></trkpt><trkpt lat="42.0613097" lon="13.670912"><ele>1052.6666666666667</ele><time>2026-04-11T10:08:20.966Z</time></trkpt><trkpt lat="42.0613942" lon="13.6706694"><ele>1052.0</ele><time>2026-04-11T10:08:21.965Z</time></trkpt><trkpt lat="42.061522" lon="13.6704512"><ele>1052.0</ele><time>2026-04-11T10:08:22.966Z</time></trkpt><trkpt lat="42.0616634" lon="13.6702393"><ele>1052.0</ele><time>2026-04-11T10:08:23.966Z</time></trkpt><trkpt lat="42.0617914" lon="13.6700057"><ele>1052.0</ele><time>2026-04-11T10:08:24.966Z</time></trkpt><trkpt lat="42.0619099" lon="13.6697685"><ele>1052.0</ele><time>2026-04-11T10:08:25.966Z</time></trkpt><trkpt lat="42.0620303" lon="13.6695443"><ele>1052.0</ele><time>2026-04-11T10:08:26.966Z</time></trkpt><trkpt lat="42.0621537" lon="13.6693266"><ele>1052.0</ele><time>2026-04-11T10:08:27.966Z</time></trkpt><trkpt lat="42.0622802" lon="13.6691247"><ele>1052.0</ele><time>2026-04-11T10:08:28.966Z</time></trkpt><trkpt lat="42.0624071" lon="13.6689136"><ele>1052.0</ele><time>2026-04-11T10:08:29.966Z</time></trkpt><trkpt lat="42.0625519" lon="13.6686993"><ele>1052.0</ele><time>2026-04-11T10:08:30.966Z</time></trkpt><trkpt lat="42.062706" lon="13.6684704"><ele>1048.3333333333335</ele><time>2026-04-11T10:08:31.966Z</time></trkpt><trkpt lat="42.0628373" lon="13.6682232"><ele>1044.6666666666667</ele><time>2026-04-11T10:08:32.966Z</time></trkpt><trkpt lat="42.0629527" lon="13.6680129"><ele>1041.0</ele><time>2026-04-11T10:08:33.966Z</time></trkpt><trkpt lat="42.0630471" lon="13.6678165"><ele>1038.0</ele><time>2026-04-11T10:08:34.965Z</time></trkpt><trkpt lat="42.0631047" lon="13.6675982"><ele>1035.0</ele><time>2026-04-11T10:08:35.966Z</time></trkpt><trkpt lat="42.0631199" lon="13.6673533"><ele>1032.0</ele><time>2026-04-11T10:08:36.966Z</time></trkpt><trkpt lat="42.0630983" lon="13.6670787"><ele>1030.6666666666667</ele><time>2026-04-11T10:08:37.966Z</time></trkpt><trkpt lat="42.0630706" lon="13.6668011"><ele>1029.3333333333335</ele><time>2026-04-11T10:08:38.965Z</time></trkpt><trkpt lat="42.0630448" lon="13.6665319"><ele>1028.0</ele><time>2026-04-11T10:08:39.966Z</time></trkpt><trkpt lat="42.0629953" lon="13.6662722"><ele>1028.6666666666667</ele><time>2026-04-11T10:08:40.966Z</time></trkpt><trkpt lat="42.0628978" lon="13.6660309"><ele>1029.3333333333333</ele><time>2026-04-11T10:08:41.965Z</time></trkpt><trkpt lat="42.0627787" lon="13.6658123"><ele>1030.0</ele><time>2026-04-11T10:08:42.966Z</time></trkpt><trkpt lat="42.0626638" lon="13.6656074"><ele>1030.0</ele><time>2026-04-11T10:08:43.965Z</time></trkpt><trkpt lat="42.0625564" lon="13.6654292"><ele>1030.0</ele><time>2026-04-11T10:08:44.966Z</time></trkpt><trkpt lat="42.0624609" lon="13.6652745"><ele>1030.0</ele><time>2026-04-11T10:08:45.966Z</time></trkpt><trkpt lat="42.0623943" lon="13.6651239"><ele>1029.0</ele><time>2026-04-11T10:08:46.966Z</time></trkpt><trkpt lat="42.0623617" lon="13.6649509"><ele>1028.0</ele><time>2026-04-11T10:08:47.966Z</time></trkpt><trkpt lat="42.0623706" lon="13.6647574"><ele>1027.0</ele><time>2026-04-11T10:08:48.966Z</time></trkpt><trkpt lat="42.0624196" lon="13.6645643"><ele>1026.0</ele><time>2026-04-11T10:08:49.966Z</time></trkpt><trkpt lat="42.0625258" lon="13.6643617"><ele>1026.0</ele><time>2026-04-11T10:08:50.966Z</time></trkpt><trkpt lat="42.0626134" lon="13.664158"><ele>1026.0</ele><time>2026-04-11T10:08:51.966Z</time></trkpt><trkpt lat="42.0626995" lon="13.6639535"><ele>1026.0</ele><time>2026-04-11T10:08:52.966Z</time></trkpt><trkpt lat="42.0627916" lon="13.6637567"><ele>1023.6666666666667</ele><time>2026-04-11T10:08:53.966Z</time></trkpt><trkpt lat="42.0628931" lon="13.6635561"><ele>1021.3333333333334</ele><time>2026-04-11T10:08:54.966Z</time></trkpt><trkpt lat="42.063005" lon="13.6633654"><ele>1019.0</ele><time>2026-04-11T10:08:55.966Z</time></trkpt><trkpt lat="42.0631385" lon="13.6631862"><ele>1019.0</ele><time>2026-04-11T10:08:56.966Z</time></trkpt><trkpt lat="42.0632926" lon="13.663023"><ele>1019.0</ele><time>2026-04-11T10:08:57.966Z</time></trkpt><trkpt lat="42.0634523" lon="13.662879"><ele>1019.0</ele><time>2026-04-11T10:08:58.966Z</time></trkpt><trkpt lat="42.0636072" lon="13.6627379"><ele>1019.0</ele><time>2026-04-11T10:08:59.966Z</time></trkpt><trkpt lat="42.0637567" lon="13.662604"><ele>1019.0</ele><time>2026-04-11T10:09:00.966Z</time></trkpt><trkpt lat="42.0639008" lon="13.6624733"><ele>1019.0</ele><time>2026-04-11T10:09:01.966Z</time></trkpt><trkpt lat="42.0640334" lon="13.6623322"><ele>1018.6666666666667</ele><time>2026-04-11T10:09:02.966Z</time></trkpt><trkpt lat="42.0641439" lon="13.6621501"><ele>1018.3333333333333</ele><time>2026-04-11T10:09:03.965Z</time></trkpt><trkpt lat="42.0642255" lon="13.6619497"><ele>1018.0</ele><time>2026-04-11T10:09:04.966Z</time></trkpt><trkpt lat="42.0642656" lon="13.6617264"><ele>1018.0</ele><time>2026-04-11T10:09:05.966Z</time></trkpt><trkpt lat="42.0642612" lon="13.6614847"><ele>1018.0</ele><time>2026-04-11T10:09:06.966Z</time></trkpt><trkpt lat="42.0642135" lon="13.661244"><ele>1018.0</ele><time>2026-04-11T10:09:07.966Z</time></trkpt><trkpt lat="42.0641455" lon="13.6610114"><ele>1015.0</ele><time>2026-04-11T10:09:08.966Z</time></trkpt><trkpt lat="42.0640638" lon="13.6607881"><ele>1012.0</ele><time>2026-04-11T10:09:09.966Z</time></trkpt><trkpt lat="42.0639844" lon="13.6605671"><ele>1009.0</ele><time>2026-04-11T10:09:10.965Z</time></trkpt><trkpt lat="42.0639088" lon="13.6603499"><ele>1008.3333333333333</ele><time>2026-04-11T10:09:11.966Z</time></trkpt><trkpt lat="42.0638477" lon="13.6601324"><ele>1007.6666666666667</ele><time>2026-04-11T10:09:12.966Z</time></trkpt><trkpt lat="42.0638063" lon="13.6598945"><ele>1007.0</ele><time>2026-04-11T10:09:13.966Z</time></trkpt><trkpt lat="42.0637748" lon="13.6596398"><ele>1006.3333333333334</ele><time>2026-04-11T10:09:14.966Z</time></trkpt><trkpt lat="42.0637378" lon="13.6593683"><ele>1005.6666666666667</ele><time>2026-04-11T10:09:15.966Z</time></trkpt><trkpt lat="42.0636919" lon="13.6590947"><ele>1005.0</ele><time>2026-04-11T10:09:16.966Z</time></trkpt><trkpt lat="42.0636409" lon="13.6588196"><ele>1005.0</ele><time>2026-04-11T10:09:17.965Z</time></trkpt><trkpt lat="42.0635925" lon="13.6585501"><ele>1005.0</ele><time>2026-04-11T10:09:18.966Z</time></trkpt><trkpt lat="42.0635416" lon="13.6582848"><ele>1005.0</ele><time>2026-04-11T10:09:19.966Z</time></trkpt><trkpt lat="42.0634922" lon="13.6580316"><ele>1004.0</ele><time>2026-04-11T10:09:20.965Z</time></trkpt><trkpt lat="42.0634457" lon="13.657781"><ele>1003.0</ele><time>2026-04-11T10:09:21.966Z</time></trkpt><trkpt lat="42.0633972" lon="13.6575293"><ele>1002.0</ele><time>2026-04-11T10:09:22.966Z</time></trkpt><trkpt lat="42.0633497" lon="13.6572802"><ele>1002.0</ele><time>2026-04-11T10:09:23.966Z</time></trkpt><trkpt lat="42.0632975" lon="13.6570239"><ele>1002.0</ele><time>2026-04-11T10:09:24.966Z</time></trkpt><trkpt lat="42.0632491" lon="13.6567775"><ele>1002.0</ele><time>2026-04-11T10:09:25.966Z</time></trkpt><trkpt lat="42.0632031" lon="13.6565366"><ele>1000.3333333333333</ele><time>2026-04-11T10:09:26.966Z</time></trkpt><trkpt lat="42.0631678" lon="13.6563057"><ele>998.6666666666666</ele><time>2026-04-11T10:09:27.966Z</time></trkpt><trkpt lat="42.0631521" lon="13.6560775"><ele>997.0</ele><time>2026-04-11T10:09:28.965Z</time></trkpt><trkpt lat="42.0631429" lon="13.6558382"><ele>995.3333333333333</ele><time>2026-04-11T10:09:29.966Z</time></trkpt><trkpt lat="42.0631181" lon="13.6555961"><ele>993.6666666666667</ele><time>2026-04-11T10:09:30.966Z</time></trkpt><trkpt lat="42.0630768" lon="13.655345"><ele>992.0</ele><time>2026-04-11T10:09:31.966Z</time></trkpt><trkpt lat="42.0630273" lon="13.6550855"><ele>991.3333333333334</ele><time>2026-04-11T10:09:32.965Z</time></trkpt><trkpt lat="42.0629817" lon="13.6548247"><ele>990.6666666666667</ele><time>2026-04-11T10:09:33.966Z</time></trkpt><trkpt lat="42.0629363" lon="13.6545684"><ele>990.0</ele><time>2026-04-11T10:09:34.966Z</time></trkpt><trkpt lat="42.062887" lon="13.6543149"><ele>989.0</ele><time>2026-04-11T10:09:35.966Z</time></trkpt><trkpt lat="42.0628374" lon="13.6540592"><ele>988.0</ele><time>2026-04-11T10:09:36.966Z</time></trkpt><trkpt lat="42.0627887" lon="13.6538131"><ele>987.0</ele><time>2026-04-11T10:09:37.966Z</time></trkpt><trkpt lat="42.0627397" lon="13.6535667"><ele>985.0</ele><time>2026-04-11T10:09:38.966Z</time></trkpt><trkpt lat="42.0626939" lon="13.653323"><ele>983.0</ele><time>2026-04-11T10:09:39.966Z</time></trkpt><trkpt lat="42.0626486" lon="13.6530764"><ele>981.0</ele><time>2026-04-11T10:09:40.966Z</time></trkpt><trkpt lat="42.0626006" lon="13.6528333"><ele>980.0</ele><time>2026-04-11T10:09:41.966Z</time></trkpt><trkpt lat="42.0625431" lon="13.6525867"><ele>979.0</ele><time>2026-04-11T10:09:42.966Z</time></trkpt><trkpt lat="42.0624712" lon="13.6523469"><ele>978.0</ele><time>2026-04-11T10:09:43.966Z</time></trkpt><trkpt lat="42.0623851" lon="13.6521176"><ele>975.3333333333333</ele><time>2026-04-11T10:09:44.966Z</time></trkpt><trkpt lat="42.0622941" lon="13.6518943"><ele>972.6666666666666</ele><time>2026-04-11T10:09:45.966Z</time></trkpt><trkpt lat="42.0622014" lon="13.6516797"><ele>970.0</ele><time>2026-04-11T10:09:46.966Z</time></trkpt><trkpt lat="42.0621179" lon="13.651484"><ele>970.0</ele><time>2026-04-11T10:09:47.966Z</time></trkpt><trkpt lat="42.0620387" lon="13.6513051"><ele>970.0</ele><time>2026-04-11T10:09:48.966Z</time></trkpt><trkpt lat="42.0619767" lon="13.6511456"><ele>970.0</ele><time>2026-04-11T10:09:49.966Z</time></trkpt><trkpt lat="42.0619401" lon="13.6509729"><ele>970.0</ele><time>2026-04-11T10:09:50.966Z</time></trkpt><trkpt lat="42.0619588" lon="13.6507988"><ele>968.75</ele><time>2026-04-11T10:09:51.966Z</time></trkpt><trkpt lat="42.0620266" lon="13.6506311"><ele>967.5</ele><time>2026-04-11T10:09:52.966Z</time></trkpt><trkpt lat="42.0621301" lon="13.6504877"><ele>966.25</ele><time>2026-04-11T10:09:53.966Z</time></trkpt><trkpt lat="42.0622518" lon="13.6503499"><ele>965.0</ele><time>2026-04-11T10:09:54.966Z</time></trkpt><trkpt lat="42.0623628" lon="13.6502088"><ele>966.0</ele><time>2026-04-11T10:09:55.966Z</time></trkpt><trkpt lat="42.0624569" lon="13.6500468"><ele>967.0</ele><time>2026-04-11T10:09:56.966Z</time></trkpt><trkpt lat="42.0625223" lon="13.6498587"><ele>968.0</ele><time>2026-04-11T10:09:57.966Z</time></trkpt><trkpt lat="42.0625562" lon="13.6496484"><ele>966.0</ele><time>2026-04-11T10:09:58.966Z</time></trkpt><trkpt lat="42.0625705" lon="13.6494352"><ele>964.0</ele><time>2026-04-11T10:09:59.966Z</time></trkpt><trkpt lat="42.0625952" lon="13.6492268"><ele>962.0</ele><time>2026-04-11T10:10:00.966Z</time></trkpt><trkpt lat="42.0626568" lon="13.6490284"><ele>962.0</ele><time>2026-04-11T10:10:01.966Z</time></trkpt><trkpt lat="42.062747" lon="13.648859"><ele>962.0</ele><time>2026-04-11T10:10:02.966Z</time></trkpt><trkpt lat="42.0628475" lon="13.6487227"><ele>962.0</ele><time>2026-04-11T10:10:03.966Z</time></trkpt><trkpt lat="42.0629749" lon="13.6486339"><ele>962.0</ele><time>2026-04-11T10:10:04.966Z</time></trkpt><trkpt lat="42.0631141" lon="13.6485956"><ele>959.3333333333334</ele><time>2026-04-11T10:10:05.965Z</time></trkpt><trkpt lat="42.0632399" lon="13.6485898"><ele>956.6666666666667</ele><time>2026-04-11T10:10:06.966Z</time></trkpt><trkpt lat="42.0634588" lon="13.648456"><ele>954.0</ele><time>2026-04-11T10:10:08.965Z</time></trkpt><trkpt lat="42.0635388" lon="13.6483259"><ele>954.0</ele><time>2026-04-11T10:10:09.966Z</time></trkpt><trkpt lat="42.0635816" lon="13.6481585"><ele>954.0</ele><time>2026-04-11T10:10:10.966Z</time></trkpt><trkpt lat="42.0635865" lon="13.6479707"><ele>954.0</ele><time>2026-04-11T10:10:11.966Z</time></trkpt><trkpt lat="42.0635753" lon="13.6477764"><ele>954.0</ele><time>2026-04-11T10:10:12.966Z</time></trkpt><trkpt lat="42.0635545" lon="13.6475951"><ele>952.0</ele><time>2026-04-11T10:10:13.966Z</time></trkpt><trkpt lat="42.0635508" lon="13.6474226"><ele>950.0</ele><time>2026-04-11T10:10:14.966Z</time></trkpt><trkpt lat="42.0635707" lon="13.6472603"><ele>948.0</ele><time>2026-04-11T10:10:15.966Z</time></trkpt><trkpt lat="42.0636251" lon="13.6471069"><ele>946.0</ele><time>2026-04-11T10:10:16.966Z</time></trkpt><trkpt lat="42.0637091" lon="13.646962"><ele>943.0</ele><time>2026-04-11T10:10:17.966Z</time></trkpt><trkpt lat="42.0638148" lon="13.6468232"><ele>940.0</ele><time>2026-04-11T10:10:18.966Z</time></trkpt><trkpt lat="42.06393" lon="13.6466851"><ele>937.0</ele><time>2026-04-11T10:10:19.966Z</time></trkpt><trkpt lat="42.0640477" lon="13.6465412"><ele>941.0</ele><time>2026-04-11T10:10:20.966Z</time></trkpt><trkpt lat="42.0641661" lon="13.6463972"><ele>945.0</ele><time>2026-04-11T10:10:21.966Z</time></trkpt><trkpt lat="42.0642839" lon="13.6462568"><ele>949.0</ele><time>2026-04-11T10:10:22.966Z</time></trkpt><trkpt lat="42.0644083" lon="13.6461387"><ele>946.25</ele><time>2026-04-11T10:10:23.966Z</time></trkpt><trkpt lat="42.0645368" lon="13.6460378"><ele>943.5</ele><time>2026-04-11T10:10:24.965Z</time></trkpt><trkpt lat="42.0646636" lon="13.6459468"><ele>940.75</ele><time>2026-04-11T10:10:25.966Z</time></trkpt><trkpt lat="42.0647801" lon="13.6458478"><ele>938.0</ele><time>2026-04-11T10:10:26.966Z</time></trkpt><trkpt lat="42.0648703" lon="13.6457224"><ele>938.0</ele><time>2026-04-11T10:10:27.966Z</time></trkpt><trkpt lat="42.0649297" lon="13.6455733"><ele>938.0</ele><time>2026-04-11T10:10:28.966Z</time></trkpt><trkpt lat="42.0649556" lon="13.6453985"><ele>938.0</ele><time>2026-04-11T10:10:29.965Z</time></trkpt><trkpt lat="42.0649525" lon="13.6452123"><ele>938.0</ele><time>2026-04-11T10:10:30.965Z</time></trkpt><trkpt lat="42.0649358" lon="13.6450195"><ele>936.75</ele><time>2026-04-11T10:10:31.966Z</time></trkpt><trkpt lat="42.0649219" lon="13.6448315"><ele>935.5</ele><time>2026-04-11T10:10:32.966Z</time></trkpt><trkpt lat="42.0649162" lon="13.6446399"><ele>934.25</ele><time>2026-04-11T10:10:33.966Z</time></trkpt><trkpt lat="42.0649222" lon="13.6444469"><ele>933.0</ele><time>2026-04-11T10:10:34.966Z</time></trkpt><trkpt lat="42.0649374" lon="13.644266"><ele>933.5</ele><time>2026-04-11T10:10:35.966Z</time></trkpt><trkpt lat="42.0649873" lon="13.6441007"><ele>934.0</ele><time>2026-04-11T10:10:36.966Z</time></trkpt><trkpt lat="42.0650818" lon="13.6439661"><ele>934.5</ele><time>2026-04-11T10:10:37.966Z</time></trkpt><trkpt lat="42.0652064" lon="13.6438592"><ele>935.0</ele><time>2026-04-11T10:10:38.966Z</time></trkpt><trkpt lat="42.065345" lon="13.6437492"><ele>931.5</ele><time>2026-04-11T10:10:39.966Z</time></trkpt><trkpt lat="42.0654727" lon="13.6436044"><ele>928.0</ele><time>2026-04-11T10:10:40.966Z</time></trkpt><trkpt lat="42.0656874" lon="13.6432175"><ele>927.0</ele><time>2026-04-11T10:10:42.966Z</time></trkpt><trkpt lat="42.0657903" lon="13.6430049"><ele>926.0</ele><time>2026-04-11T10:10:43.966Z</time></trkpt><trkpt lat="42.0659141" lon="13.6427909"><ele>925.0</ele><time>2026-04-11T10:10:44.966Z</time></trkpt><trkpt lat="42.0660503" lon="13.6425856"><ele>925.0</ele><time>2026-04-11T10:10:45.966Z</time></trkpt><trkpt lat="42.0661942" lon="13.6423755"><ele>925.0</ele><time>2026-04-11T10:10:46.966Z</time></trkpt><trkpt lat="42.0663373" lon="13.6421601"><ele>925.0</ele><time>2026-04-11T10:10:47.966Z</time></trkpt><trkpt lat="42.0664823" lon="13.6419443"><ele>924.3333333333333</ele><time>2026-04-11T10:10:48.966Z</time></trkpt><trkpt lat="42.0666275" lon="13.6417319"><ele>923.6666666666667</ele><time>2026-04-11T10:10:49.966Z</time></trkpt><trkpt lat="42.0667741" lon="13.6415173"><ele>923.0</ele><time>2026-04-11T10:10:50.966Z</time></trkpt><trkpt lat="42.0669223" lon="13.6413039"><ele>920.0</ele><time>2026-04-11T10:10:51.966Z</time></trkpt><trkpt lat="42.0670659" lon="13.641092"><ele>917.0</ele><time>2026-04-11T10:10:52.966Z</time></trkpt><trkpt lat="42.0672121" lon="13.6408804"><ele>914.0</ele><time>2026-04-11T10:10:53.965Z</time></trkpt><trkpt lat="42.0673545" lon="13.6406703"><ele>914.0</ele><time>2026-04-11T10:10:54.966Z</time></trkpt><trkpt lat="42.0674882" lon="13.6404638"><ele>914.0</ele><time>2026-04-11T10:10:55.966Z</time></trkpt><trkpt lat="42.067616" lon="13.6402512"><ele>914.0</ele><time>2026-04-11T10:10:56.966Z</time></trkpt><trkpt lat="42.0677277" lon="13.6400245"><ele>914.0</ele><time>2026-04-11T10:10:57.965Z</time></trkpt><trkpt lat="42.0678327" lon="13.639789"><ele>914.0</ele><time>2026-04-11T10:10:58.966Z</time></trkpt><trkpt lat="42.0679309" lon="13.6395505"><ele>914.0</ele><time>2026-04-11T10:10:59.966Z</time></trkpt><trkpt lat="42.0680137" lon="13.6392969"><ele>909.5</ele><time>2026-04-11T10:11:00.966Z</time></trkpt><trkpt lat="42.0680788" lon="13.6390282"><ele>905.0</ele><time>2026-04-11T10:11:01.966Z</time></trkpt><trkpt lat="42.0681669" lon="13.638495"><ele>904.3333333333334</ele><time>2026-04-11T10:11:03.966Z</time></trkpt><trkpt lat="42.068207" lon="13.6382439"><ele>903.6666666666667</ele><time>2026-04-11T10:11:04.966Z</time></trkpt><trkpt lat="42.0682531" lon="13.637994"><ele>903.0</ele><time>2026-04-11T10:11:05.966Z</time></trkpt><trkpt lat="42.0683076" lon="13.6377456"><ele>903.0</ele><time>2026-04-11T10:11:06.965Z</time></trkpt><trkpt lat="42.0683676" lon="13.6374992"><ele>903.0</ele><time>2026-04-11T10:11:07.966Z</time></trkpt><trkpt lat="42.0684385" lon="13.6372581"><ele>903.0</ele><time>2026-04-11T10:11:08.966Z</time></trkpt><trkpt lat="42.0685203" lon="13.6370233"><ele>900.3333333333333</ele><time>2026-04-11T10:11:09.966Z</time></trkpt><trkpt lat="42.068606" lon="13.6367905"><ele>897.6666666666666</ele><time>2026-04-11T10:11:10.966Z</time></trkpt><trkpt lat="42.0686852" lon="13.6365599"><ele>895.0</ele><time>2026-04-11T10:11:11.966Z</time></trkpt><trkpt lat="42.0687653" lon="13.6363312"><ele>892.3333333333333</ele><time>2026-04-11T10:11:12.966Z</time></trkpt><trkpt lat="42.0688453" lon="13.6361096"><ele>889.6666666666667</ele><time>2026-04-11T10:11:13.966Z</time></trkpt><trkpt lat="42.0689198" lon="13.6358987"><ele>887.0</ele><time>2026-04-11T10:11:14.966Z</time></trkpt><trkpt lat="42.0689917" lon="13.6357039"><ele>887.0</ele><time>2026-04-11T10:11:15.966Z</time></trkpt><trkpt lat="42.0690594" lon="13.6355128"><ele>887.0</ele><time>2026-04-11T10:11:16.966Z</time></trkpt><trkpt lat="42.0691254" lon="13.6353293"><ele>887.0</ele><time>2026-04-11T10:11:17.966Z</time></trkpt><trkpt lat="42.0692023" lon="13.6351557"><ele>888.25</ele><time>2026-04-11T10:11:18.965Z</time></trkpt><trkpt lat="42.0692885" lon="13.6349968"><ele>889.5</ele><time>2026-04-11T10:11:19.966Z</time></trkpt><trkpt lat="42.0693769" lon="13.6348529"><ele>890.75</ele><time>2026-04-11T10:11:20.965Z</time></trkpt><trkpt lat="42.0694745" lon="13.6347109"><ele>892.0</ele><time>2026-04-11T10:11:21.966Z</time></trkpt><trkpt lat="42.0695601" lon="13.6345787"><ele>891.0</ele><time>2026-04-11T10:11:22.965Z</time></trkpt><trkpt lat="42.0696366" lon="13.6344421"><ele>890.0</ele><time>2026-04-11T10:11:23.966Z</time></trkpt><trkpt lat="42.0696872" lon="13.6342948"><ele>889.0</ele><time>2026-04-11T10:11:24.966Z</time></trkpt><trkpt lat="42.0697112" lon="13.6341224"><ele>888.0</ele><time>2026-04-11T10:11:25.966Z</time></trkpt><trkpt lat="42.069707" lon="13.6339303"><ele>888.0</ele><time>2026-04-11T10:11:26.966Z</time></trkpt><trkpt lat="42.0696879" lon="13.6337273"><ele>888.0</ele><time>2026-04-11T10:11:27.966Z</time></trkpt><trkpt lat="42.0696604" lon="13.6335143"><ele>888.0</ele><time>2026-04-11T10:11:28.966Z</time></trkpt><trkpt lat="42.0696205" lon="13.6332891"><ele>886.6666666666667</ele><time>2026-04-11T10:11:29.965Z</time></trkpt><trkpt lat="42.0695681" lon="13.6330556"><ele>885.3333333333334</ele><time>2026-04-11T10:11:30.966Z</time></trkpt><trkpt lat="42.0695085" lon="13.6328212"><ele>884.0</ele><time>2026-04-11T10:11:31.966Z</time></trkpt><trkpt lat="42.0694484" lon="13.6325866"><ele>882.0</ele><time>2026-04-11T10:11:32.966Z</time></trkpt><trkpt lat="42.0693892" lon="13.6323568"><ele>880.0</ele><time>2026-04-11T10:11:33.966Z</time></trkpt><trkpt lat="42.0693297" lon="13.6321311"><ele>878.0</ele><time>2026-04-11T10:11:34.966Z</time></trkpt><trkpt lat="42.0692738" lon="13.6319081"><ele>876.6666666666667</ele><time>2026-04-11T10:11:35.966Z</time></trkpt><trkpt lat="42.0692149" lon="13.6316867"><ele>875.3333333333333</ele><time>2026-04-11T10:11:36.966Z</time></trkpt><trkpt lat="42.0691598" lon="13.6314869"><ele>874.0</ele><time>2026-04-11T10:11:37.966Z</time></trkpt><trkpt lat="42.0690983" lon="13.6313015"><ele>872.25</ele><time>2026-04-11T10:11:38.966Z</time></trkpt><trkpt lat="42.0690125" lon="13.6311383"><ele>870.5</ele><time>2026-04-11T10:11:39.965Z</time></trkpt><trkpt lat="42.0689049" lon="13.631011"><ele>868.75</ele><time>2026-04-11T10:11:40.966Z</time></trkpt><trkpt lat="42.0687714" lon="13.6309232"><ele>867.0</ele><time>2026-04-11T10:11:41.966Z</time></trkpt><trkpt lat="42.0686293" lon="13.6308748"><ele>867.0</ele><time>2026-04-11T10:11:42.966Z</time></trkpt><trkpt lat="42.0684823" lon="13.6308745"><ele>867.0</ele><time>2026-04-11T10:11:43.966Z</time></trkpt><trkpt lat="42.0683338" lon="13.6309205"><ele>867.0</ele><time>2026-04-11T10:11:44.965Z</time></trkpt><trkpt lat="42.0681943" lon="13.6310089"><ele>867.6666666666667</ele><time>2026-04-11T10:11:45.966Z</time></trkpt><trkpt lat="42.0680549" lon="13.6311151"><ele>868.3333333333334</ele><time>2026-04-11T10:11:46.966Z</time></trkpt><trkpt lat="42.0679034" lon="13.6312184"><ele>869.0</ele><time>2026-04-11T10:11:47.966Z</time></trkpt><trkpt lat="42.0677323" lon="13.6312986"><ele>869.0</ele><time>2026-04-11T10:11:48.966Z</time></trkpt><trkpt lat="42.0675469" lon="13.6313571"><ele>869.0</ele><time>2026-04-11T10:11:49.966Z</time></trkpt><trkpt lat="42.0673583" lon="13.6314085"><ele>869.0</ele><time>2026-04-11T10:11:50.966Z</time></trkpt><trkpt lat="42.067171" lon="13.6314637"><ele>867.3333333333334</ele><time>2026-04-11T10:11:51.966Z</time></trkpt><trkpt lat="42.0669904" lon="13.631522"><ele>865.6666666666667</ele><time>2026-04-11T10:11:52.965Z</time></trkpt><trkpt lat="42.0668137" lon="13.6315772"><ele>864.0</ele><time>2026-04-11T10:11:53.966Z</time></trkpt><trkpt lat="42.0666459" lon="13.6316267"><ele>862.75</ele><time>2026-04-11T10:11:54.966Z</time></trkpt><trkpt lat="42.0664948" lon="13.6316684"><ele>861.5</ele><time>2026-04-11T10:11:55.966Z</time></trkpt><trkpt lat="42.0663537" lon="13.6316937"><ele>860.25</ele><time>2026-04-11T10:11:56.966Z</time></trkpt><trkpt lat="42.0662215" lon="13.6316813"><ele>859.0</ele><time>2026-04-11T10:11:57.966Z</time></trkpt><trkpt lat="42.0661058" lon="13.6316203"><ele>859.0</ele><time>2026-04-11T10:11:58.966Z</time></trkpt><trkpt lat="42.0660107" lon="13.6314949"><ele>859.0</ele><time>2026-04-11T10:11:59.966Z</time></trkpt><trkpt lat="42.0659214" lon="13.6313228"><ele>859.0</ele><time>2026-04-11T10:12:00.966Z</time></trkpt><trkpt lat="42.0658322" lon="13.6311405"><ele>855.6666666666666</ele><time>2026-04-11T10:12:01.965Z</time></trkpt><trkpt lat="42.0657349" lon="13.6309509"><ele>852.3333333333333</ele><time>2026-04-11T10:12:02.966Z</time></trkpt><trkpt lat="42.0656341" lon="13.630752"><ele>849.0</ele><time>2026-04-11T10:12:03.966Z</time></trkpt><trkpt lat="42.0655271" lon="13.6305554"><ele>849.0</ele><time>2026-04-11T10:12:04.966Z</time></trkpt><trkpt lat="42.0654211" lon="13.6303507"><ele>849.0</ele><time>2026-04-11T10:12:05.966Z</time></trkpt><trkpt lat="42.0653143" lon="13.630144"><ele>849.0</ele><time>2026-04-11T10:12:06.966Z</time></trkpt><trkpt lat="42.0652115" lon="13.6299381"><ele>848.6666666666667</ele><time>2026-04-11T10:12:07.966Z</time></trkpt><trkpt lat="42.0651079" lon="13.6297396"><ele>848.3333333333334</ele><time>2026-04-11T10:12:08.966Z</time></trkpt><trkpt lat="42.0650123" lon="13.6295487"><ele>848.0</ele><time>2026-04-11T10:12:09.966Z</time></trkpt><trkpt lat="42.0649267" lon="13.6293774"><ele>847.25</ele><time>2026-04-11T10:12:10.966Z</time></trkpt><trkpt lat="42.0648479" lon="13.6292219"><ele>846.5</ele><time>2026-04-11T10:12:11.966Z</time></trkpt><trkpt lat="42.0647724" lon="13.6290743"><ele>845.75</ele><time>2026-04-11T10:12:12.966Z</time></trkpt><trkpt lat="42.0647134" lon="13.6289493"><ele>845.0</ele><time>2026-04-11T10:12:13.965Z</time></trkpt><trkpt lat="42.0646715" lon="13.628844"><ele>845.0000000000001</ele><time>2026-04-11T10:12:14.966Z</time></trkpt><trkpt lat="42.0646487" lon="13.6287598"><ele>845.0</ele><time>2026-04-11T10:12:15.965Z</time></trkpt><trkpt lat="42.0646202" lon="13.6286726"><ele>845.0</ele><time>2026-04-11T10:12:17.965Z</time></trkpt><trkpt lat="42.0645983" lon="13.6285881"><ele>845.0</ele><time>2026-04-11T10:12:20.966Z</time></trkpt><trkpt lat="42.0645073" lon="13.6285898"><ele>845.0000000000001</ele><time>2026-04-11T10:26:35.966Z</time></trkpt><trkpt lat="42.0644548" lon="13.6285354"><ele>845.0</ele><time>2026-04-11T10:26:36.966Z</time></trkpt><trkpt lat="42.0643426" lon="13.6284487"><ele>845.1666666666667</ele><time>2026-04-11T10:26:38.966Z</time></trkpt><trkpt lat="42.064273" lon="13.6284101"><ele>845.3333333333334</ele><time>2026-04-11T10:26:39.966Z</time></trkpt><trkpt lat="42.0642006" lon="13.6283726"><ele>845.5</ele><time>2026-04-11T10:26:40.966Z</time></trkpt><trkpt lat="42.0641336" lon="13.6283368"><ele>845.6666666666667</ele><time>2026-04-11T10:26:41.966Z</time></trkpt><trkpt lat="42.0640212" lon="13.6282757"><ele>845.8333333333334</ele><time>2026-04-11T10:26:43.966Z</time></trkpt><trkpt lat="42.0639614" lon="13.6282429"><ele>846.0</ele><time>2026-04-11T10:26:44.966Z</time></trkpt><trkpt lat="42.0638943" lon="13.6282139"><ele>845.7142857142857</ele><time>2026-04-11T10:26:45.966Z</time></trkpt><trkpt lat="42.0638287" lon="13.6281849"><ele>845.4285714285714</ele><time>2026-04-11T10:26:46.965Z</time></trkpt><trkpt lat="42.0637661" lon="13.6281555"><ele>845.1428571428571</ele><time>2026-04-11T10:26:47.966Z</time></trkpt><trkpt lat="42.0636991" lon="13.6281208"><ele>844.8571428571429</ele><time>2026-04-11T10:26:48.966Z</time></trkpt><trkpt lat="42.0636302" lon="13.6280903"><ele>844.5714285714287</ele><time>2026-04-11T10:26:49.965Z</time></trkpt><trkpt lat="42.0635637" lon="13.6280565"><ele>844.2857142857143</ele><time>2026-04-11T10:26:50.966Z</time></trkpt><trkpt lat="42.0634973" lon="13.6280248"><ele>844.0</ele><time>2026-04-11T10:26:51.966Z</time></trkpt><trkpt lat="42.063434" lon="13.6279966"><ele>843.9999999999999</ele><time>2026-04-11T10:26:52.966Z</time></trkpt><trkpt lat="42.0633663" lon="13.6279623"><ele>844.0</ele><time>2026-04-11T10:26:53.966Z</time></trkpt><trkpt lat="42.063293" lon="13.6279306"><ele>844.0</ele><time>2026-04-11T10:26:54.966Z</time></trkpt><trkpt lat="42.0632163" lon="13.6278958"><ele>844.0</ele><time>2026-04-11T10:26:55.966Z</time></trkpt><trkpt lat="42.0631369" lon="13.6278563"><ele>843.9999999999999</ele><time>2026-04-11T10:26:56.966Z</time></trkpt><trkpt lat="42.0630526" lon="13.6278205"><ele>844.0</ele><time>2026-04-11T10:26:57.965Z</time></trkpt><trkpt lat="42.0629675" lon="13.6277864"><ele>843.8333333333333</ele><time>2026-04-11T10:26:58.966Z</time></trkpt><trkpt lat="42.0628846" lon="13.627747"><ele>843.6666666666666</ele><time>2026-04-11T10:26:59.966Z</time></trkpt><trkpt lat="42.0628017" lon="13.6276982"><ele>843.5</ele><time>2026-04-11T10:27:00.966Z</time></trkpt><trkpt lat="42.062719" lon="13.6276526"><ele>843.3333333333333</ele><time>2026-04-11T10:27:01.966Z</time></trkpt><trkpt lat="42.0626356" lon="13.6276099"><ele>843.1666666666666</ele><time>2026-04-11T10:27:02.965Z</time></trkpt><trkpt lat="42.0625553" lon="13.6275705"><ele>843.0</ele><time>2026-04-11T10:27:03.966Z</time></trkpt><trkpt lat="42.0624689" lon="13.6275265"><ele>842.5999999999999</ele><time>2026-04-11T10:27:04.966Z</time></trkpt><trkpt lat="42.0623777" lon="13.6274846"><ele>842.1999999999999</ele><time>2026-04-11T10:27:05.965Z</time></trkpt><trkpt lat="42.0622884" lon="13.6274448"><ele>841.8</ele><time>2026-04-11T10:27:06.966Z</time></trkpt><trkpt lat="42.0622" lon="13.6273982"><ele>841.4</ele><time>2026-04-11T10:27:07.966Z</time></trkpt><trkpt lat="42.0621142" lon="13.6273605"><ele>841.0</ele><time>2026-04-11T10:27:08.966Z</time></trkpt><trkpt lat="42.0620277" lon="13.6273161"><ele>841.0</ele><time>2026-04-11T10:27:09.966Z</time></trkpt><trkpt lat="42.0619378" lon="13.6272726"><ele>841.0</ele><time>2026-04-11T10:27:10.966Z</time></trkpt><trkpt lat="42.0618432" lon="13.6272252"><ele>841.0</ele><time>2026-04-11T10:27:11.966Z</time></trkpt><trkpt lat="42.0617521" lon="13.6271782"><ele>841.0</ele><time>2026-04-11T10:27:12.966Z</time></trkpt><trkpt lat="42.0616657" lon="13.6271374"><ele>841.0</ele><time>2026-04-11T10:27:13.965Z</time></trkpt><trkpt lat="42.0615857" lon="13.6270989"><ele>840.5999999999999</ele><time>2026-04-11T10:27:14.965Z</time></trkpt><trkpt lat="42.0615066" lon="13.6270598"><ele>840.2</ele><time>2026-04-11T10:27:15.965Z</time></trkpt><trkpt lat="42.0614265" lon="13.627017"><ele>839.8</ele><time>2026-04-11T10:27:16.966Z</time></trkpt><trkpt lat="42.0613366" lon="13.6269712"><ele>839.4000000000001</ele><time>2026-04-11T10:27:17.966Z</time></trkpt><trkpt lat="42.0612433" lon="13.6269309"><ele>839.0</ele><time>2026-04-11T10:27:18.966Z</time></trkpt><trkpt lat="42.0611477" lon="13.6268861"><ele>838.8000000000001</ele><time>2026-04-11T10:27:19.966Z</time></trkpt><trkpt lat="42.06105" lon="13.626839"><ele>838.6</ele><time>2026-04-11T10:27:20.966Z</time></trkpt><trkpt lat="42.0609575" lon="13.6267917"><ele>838.4</ele><time>2026-04-11T10:27:21.966Z</time></trkpt><trkpt lat="42.0608662" lon="13.6267468"><ele>838.2</ele><time>2026-04-11T10:27:22.965Z</time></trkpt><trkpt lat="42.0607722" lon="13.626697"><ele>838.0</ele><time>2026-04-11T10:27:23.966Z</time></trkpt><trkpt lat="42.060679" lon="13.62664"><ele>837.0</ele><time>2026-04-11T10:27:24.966Z</time></trkpt><trkpt lat="42.0605703" lon="13.6265972"><ele>836.0</ele><time>2026-04-11T10:27:25.966Z</time></trkpt><trkpt lat="42.0604631" lon="13.6265454"><ele>835.0</ele><time>2026-04-11T10:27:26.966Z</time></trkpt><trkpt lat="42.0603523" lon="13.626494"><ele>834.0</ele><time>2026-04-11T10:27:27.966Z</time></trkpt><trkpt lat="42.060251" lon="13.6264483"><ele>834.0</ele><time>2026-04-11T10:27:28.966Z</time></trkpt><trkpt lat="42.0601571" lon="13.6264054"><ele>834.0</ele><time>2026-04-11T10:27:29.966Z</time></trkpt><trkpt lat="42.0600614" lon="13.62636"><ele>834.0</ele><time>2026-04-11T10:27:30.965Z</time></trkpt><trkpt lat="42.0599624" lon="13.626315"><ele>834.0</ele><time>2026-04-11T10:27:31.966Z</time></trkpt><trkpt lat="42.0598636" lon="13.6262651"><ele>834.0</ele><time>2026-04-11T10:27:32.966Z</time></trkpt><trkpt lat="42.0597591" lon="13.6262233"><ele>833.75</ele><time>2026-04-11T10:27:33.966Z</time></trkpt><trkpt lat="42.0596567" lon="13.6261717"><ele>833.5</ele><time>2026-04-11T10:27:34.966Z</time></trkpt><trkpt lat="42.0595506" lon="13.6261148"><ele>833.25</ele><time>2026-04-11T10:27:35.966Z</time></trkpt><trkpt lat="42.059444" lon="13.6260584"><ele>833.0</ele><time>2026-04-11T10:27:36.966Z</time></trkpt><trkpt lat="42.0593338" lon="13.6260045"><ele>833.0</ele><time>2026-04-11T10:27:37.965Z</time></trkpt><trkpt lat="42.0592266" lon="13.6259522"><ele>833.0</ele><time>2026-04-11T10:27:38.966Z</time></trkpt><trkpt lat="42.0591194" lon="13.6258984"><ele>833.0</ele><time>2026-04-11T10:27:39.965Z</time></trkpt><trkpt lat="42.0590128" lon="13.6258442"><ele>833.0</ele><time>2026-04-11T10:27:40.966Z</time></trkpt><trkpt lat="42.0589048" lon="13.625794"><ele>832.25</ele><time>2026-04-11T10:27:41.966Z</time></trkpt><trkpt lat="42.0587995" lon="13.625739"><ele>831.5</ele><time>2026-04-11T10:27:42.966Z</time></trkpt><trkpt lat="42.0586885" lon="13.6256836"><ele>830.75</ele><time>2026-04-11T10:27:43.965Z</time></trkpt><trkpt lat="42.0585753" lon="13.625625"><ele>830.0</ele><time>2026-04-11T10:27:44.966Z</time></trkpt><trkpt lat="42.0584613" lon="13.6255615"><ele>830.0</ele><time>2026-04-11T10:27:45.966Z</time></trkpt><trkpt lat="42.0583485" lon="13.6254813"><ele>830.0</ele><time>2026-04-11T10:27:46.966Z</time></trkpt><trkpt lat="42.0582439" lon="13.6253791"><ele>830.0</ele><time>2026-04-11T10:27:47.966Z</time></trkpt><trkpt lat="42.0581425" lon="13.6252608"><ele>830.0</ele><time>2026-04-11T10:27:48.966Z</time></trkpt><trkpt lat="42.0580478" lon="13.6251395"><ele>828.5</ele><time>2026-04-11T10:27:49.966Z</time></trkpt><trkpt lat="42.0579592" lon="13.6250218"><ele>827.0</ele><time>2026-04-11T10:27:50.966Z</time></trkpt><trkpt lat="42.0578634" lon="13.6249052"><ele>825.5</ele><time>2026-04-11T10:27:51.966Z</time></trkpt><trkpt lat="42.0577544" lon="13.6247995"><ele>824.0</ele><time>2026-04-11T10:27:52.966Z</time></trkpt><trkpt lat="42.0576334" lon="13.6247137"><ele>824.0</ele><time>2026-04-11T10:27:53.966Z</time></trkpt><trkpt lat="42.0575033" lon="13.6246441"><ele>824.0</ele><time>2026-04-11T10:27:54.966Z</time></trkpt><trkpt lat="42.057367" lon="13.6245863"><ele>824.0</ele><time>2026-04-11T10:27:55.966Z</time></trkpt><trkpt lat="42.0572319" lon="13.6245343"><ele>824.0</ele><time>2026-04-11T10:27:56.966Z</time></trkpt><trkpt lat="42.0570962" lon="13.6244722"><ele>823.25</ele><time>2026-04-11T10:27:57.966Z</time></trkpt><trkpt lat="42.0569558" lon="13.6244122"><ele>822.5</ele><time>2026-04-11T10:27:58.966Z</time></trkpt><trkpt lat="42.0568165" lon="13.6243571"><ele>821.75</ele><time>2026-04-11T10:27:59.966Z</time></trkpt><trkpt lat="42.0566858" lon="13.6243025"><ele>821.0</ele><time>2026-04-11T10:28:00.966Z</time></trkpt><trkpt lat="42.0565606" lon="13.6242505"><ele>819.4</ele><time>2026-04-11T10:28:01.965Z</time></trkpt><trkpt lat="42.0564513" lon="13.6242086"><ele>817.8</ele><time>2026-04-11T10:28:02.966Z</time></trkpt><trkpt lat="42.0563576" lon="13.6241748"><ele>816.1999999999999</ele><time>2026-04-11T10:28:03.965Z</time></trkpt><trkpt lat="42.0562673" lon="13.6241505"><ele>814.5999999999999</ele><time>2026-04-11T10:28:04.966Z</time></trkpt><trkpt lat="42.0561836" lon="13.6241295"><ele>813.0</ele><time>2026-04-11T10:28:05.966Z</time></trkpt><trkpt lat="42.0561045" lon="13.6241102"><ele>813.0</ele><time>2026-04-11T10:28:06.966Z</time></trkpt><trkpt lat="42.0560345" lon="13.6240904"><ele>813.0</ele><time>2026-04-11T10:28:07.966Z</time></trkpt><trkpt lat="42.0559631" lon="13.6240728"><ele>813.0</ele><time>2026-04-11T10:28:08.965Z</time></trkpt><trkpt lat="42.0558792" lon="13.6240594"><ele>813.0</ele><time>2026-04-11T10:28:09.965Z</time></trkpt><trkpt lat="42.0557888" lon="13.6240469"><ele>813.0</ele><time>2026-04-11T10:28:10.966Z</time></trkpt><trkpt lat="42.055684" lon="13.6240441"><ele>813.0</ele><time>2026-04-11T10:28:11.965Z</time></trkpt><trkpt lat="42.0555709" lon="13.6240437"><ele>812.5</ele><time>2026-04-11T10:28:12.966Z</time></trkpt><trkpt lat="42.0554455" lon="13.6240618"><ele>812.0</ele><time>2026-04-11T10:28:13.966Z</time></trkpt><trkpt lat="42.0553187" lon="13.6240899"><ele>811.5</ele><time>2026-04-11T10:28:14.966Z</time></trkpt><trkpt lat="42.0551879" lon="13.6241286"><ele>811.0</ele><time>2026-04-11T10:28:15.966Z</time></trkpt><trkpt lat="42.0550497" lon="13.6241732"><ele>810.5</ele><time>2026-04-11T10:28:16.966Z</time></trkpt><trkpt lat="42.05491" lon="13.6242234"><ele>810.0</ele><time>2026-04-11T10:28:17.965Z</time></trkpt><trkpt lat="42.0547725" lon="13.6242922"><ele>809.5</ele><time>2026-04-11T10:28:18.966Z</time></trkpt><trkpt lat="42.0546376" lon="13.6243704"><ele>809.0</ele><time>2026-04-11T10:28:19.966Z</time></trkpt><trkpt lat="42.054504" lon="13.6244376"><ele>808.25</ele><time>2026-04-11T10:28:20.966Z</time></trkpt><trkpt lat="42.0543775" lon="13.6244947"><ele>807.5</ele><time>2026-04-11T10:28:21.966Z</time></trkpt><trkpt lat="42.0542527" lon="13.624518"><ele>806.75</ele><time>2026-04-11T10:28:22.966Z</time></trkpt><trkpt lat="42.0541355" lon="13.6244917"><ele>806.0</ele><time>2026-04-11T10:28:23.966Z</time></trkpt><trkpt lat="42.0540267" lon="13.6244116"><ele>804.25</ele><time>2026-04-11T10:28:24.966Z</time></trkpt><trkpt lat="42.0539298" lon="13.6243042"><ele>802.5</ele><time>2026-04-11T10:28:25.966Z</time></trkpt><trkpt lat="42.053853" lon="13.6241777"><ele>800.75</ele><time>2026-04-11T10:28:26.966Z</time></trkpt><trkpt lat="42.0538071" lon="13.6240292"><ele>799.0</ele><time>2026-04-11T10:28:27.966Z</time></trkpt><trkpt lat="42.0538053" lon="13.6238647"><ele>799.0</ele><time>2026-04-11T10:28:28.966Z</time></trkpt><trkpt lat="42.0538418" lon="13.6236966"><ele>799.0</ele><time>2026-04-11T10:28:29.966Z</time></trkpt><trkpt lat="42.0539136" lon="13.623525"><ele>799.0</ele><time>2026-04-11T10:28:30.966Z</time></trkpt><trkpt lat="42.0540037" lon="13.6233472"><ele>799.0</ele><time>2026-04-11T10:28:31.966Z</time></trkpt><trkpt lat="42.0541026" lon="13.6231715"><ele>799.0</ele><time>2026-04-11T10:28:32.966Z</time></trkpt><trkpt lat="42.0542063" lon="13.6229885"><ele>799.0</ele><time>2026-04-11T10:28:33.966Z</time></trkpt><trkpt lat="42.0543072" lon="13.6227944"><ele>799.0</ele><time>2026-04-11T10:28:34.966Z</time></trkpt><trkpt lat="42.0543978" lon="13.6225751"><ele>799.0</ele><time>2026-04-11T10:28:35.966Z</time></trkpt><trkpt lat="42.0544684" lon="13.6223399"><ele>799.0</ele><time>2026-04-11T10:28:36.965Z</time></trkpt><trkpt lat="42.054521" lon="13.6220949"><ele>799.0</ele><time>2026-04-11T10:28:37.966Z</time></trkpt><trkpt lat="42.0545603" lon="13.6218404"><ele>797.3333333333333</ele><time>2026-04-11T10:28:38.966Z</time></trkpt><trkpt lat="42.0545853" lon="13.6215716"><ele>795.6666666666667</ele><time>2026-04-11T10:28:39.966Z</time></trkpt><trkpt lat="42.0546025" lon="13.6212996"><ele>794.0</ele><time>2026-04-11T10:28:40.966Z</time></trkpt><trkpt lat="42.0546157" lon="13.6210242"><ele>793.0</ele><time>2026-04-11T10:28:41.966Z</time></trkpt><trkpt lat="42.054626" lon="13.6207475"><ele>792.0</ele><time>2026-04-11T10:28:42.965Z</time></trkpt><trkpt lat="42.0546347" lon="13.6204834"><ele>791.0</ele><time>2026-04-11T10:28:43.966Z</time></trkpt><trkpt lat="42.0546407" lon="13.6202283"><ele>789.3333333333334</ele><time>2026-04-11T10:28:44.966Z</time></trkpt><trkpt lat="42.054651" lon="13.6199989"><ele>787.6666666666667</ele><time>2026-04-11T10:28:45.966Z</time></trkpt><trkpt lat="42.0546716" lon="13.6197868"><ele>786.0</ele><time>2026-04-11T10:28:46.965Z</time></trkpt><trkpt lat="42.0547192" lon="13.6195975"><ele>784.0</ele><time>2026-04-11T10:28:47.966Z</time></trkpt><trkpt lat="42.0548058" lon="13.619433"><ele>782.0</ele><time>2026-04-11T10:28:48.965Z</time></trkpt><trkpt lat="42.0549162" lon="13.6192981"><ele>780.0</ele><time>2026-04-11T10:28:49.966Z</time></trkpt><trkpt lat="42.0550402" lon="13.6191784"><ele>781.75</ele><time>2026-04-11T10:28:50.966Z</time></trkpt><trkpt lat="42.055161" lon="13.6190647"><ele>783.5</ele><time>2026-04-11T10:28:51.966Z</time></trkpt><trkpt lat="42.0552478" lon="13.6189211"><ele>785.25</ele><time>2026-04-11T10:28:52.965Z</time></trkpt><trkpt lat="42.0552872" lon="13.6187529"><ele>787.0</ele><time>2026-04-11T10:28:53.966Z</time></trkpt><trkpt lat="42.0552801" lon="13.618558"><ele>787.0</ele><time>2026-04-11T10:28:54.966Z</time></trkpt><trkpt lat="42.0552418" lon="13.6183371"><ele>787.0</ele><time>2026-04-11T10:28:55.966Z</time></trkpt><trkpt lat="42.0551944" lon="13.6180949"><ele>787.0</ele><time>2026-04-11T10:28:56.965Z</time></trkpt><trkpt lat="42.0551449" lon="13.6178509"><ele>786.3333333333333</ele><time>2026-04-11T10:28:57.966Z</time></trkpt><trkpt lat="42.0550881" lon="13.6176007"><ele>785.6666666666667</ele><time>2026-04-11T10:28:58.966Z</time></trkpt><trkpt lat="42.0550293" lon="13.6173548"><ele>785.0</ele><time>2026-04-11T10:28:59.966Z</time></trkpt><trkpt lat="42.0549737" lon="13.6171195"><ele>782.0</ele><time>2026-04-11T10:29:00.966Z</time></trkpt><trkpt lat="42.0549243" lon="13.6168874"><ele>779.0</ele><time>2026-04-11T10:29:01.966Z</time></trkpt><trkpt lat="42.0548767" lon="13.6166672"><ele>776.0</ele><time>2026-04-11T10:29:02.966Z</time></trkpt><trkpt lat="42.0548301" lon="13.6164591"><ele>776.0</ele><time>2026-04-11T10:29:03.966Z</time></trkpt><trkpt lat="42.0547833" lon="13.6162656"><ele>776.0</ele><time>2026-04-11T10:29:04.966Z</time></trkpt><trkpt lat="42.0547499" lon="13.616091"><ele>776.0</ele><time>2026-04-11T10:29:05.966Z</time></trkpt><trkpt lat="42.0547353" lon="13.61592"><ele>776.0</ele><time>2026-04-11T10:29:06.966Z</time></trkpt><trkpt lat="42.0547612" lon="13.6157464"><ele>775.25</ele><time>2026-04-11T10:29:07.966Z</time></trkpt><trkpt lat="42.0548374" lon="13.6155969"><ele>774.5</ele><time>2026-04-11T10:29:08.966Z</time></trkpt><trkpt lat="42.0549452" lon="13.6154727"><ele>773.75</ele><time>2026-04-11T10:29:09.966Z</time></trkpt><trkpt lat="42.0550633" lon="13.6153457"><ele>773.0</ele><time>2026-04-11T10:29:10.966Z</time></trkpt><trkpt lat="42.0551729" lon="13.6151923"><ele>773.0</ele><time>2026-04-11T10:29:11.966Z</time></trkpt><trkpt lat="42.0552742" lon="13.6150176"><ele>773.0</ele><time>2026-04-11T10:29:12.966Z</time></trkpt><trkpt lat="42.0553571" lon="13.614809"><ele>773.0</ele><time>2026-04-11T10:29:13.966Z</time></trkpt><trkpt lat="42.0554208" lon="13.6145881"><ele>771.3333333333334</ele><time>2026-04-11T10:29:14.965Z</time></trkpt><trkpt lat="42.0554568" lon="13.6143523"><ele>769.6666666666667</ele><time>2026-04-11T10:29:15.966Z</time></trkpt><trkpt lat="42.0554616" lon="13.6141102"><ele>768.0</ele><time>2026-04-11T10:29:16.966Z</time></trkpt><trkpt lat="42.0554387" lon="13.6138751"><ele>768.0</ele><time>2026-04-11T10:29:17.966Z</time></trkpt><trkpt lat="42.0553883" lon="13.6136488"><ele>768.0</ele><time>2026-04-11T10:29:18.966Z</time></trkpt><trkpt lat="42.0553302" lon="13.6134386"><ele>768.0</ele><time>2026-04-11T10:29:19.966Z</time></trkpt><trkpt lat="42.0552752" lon="13.6132445"><ele>768.0</ele><time>2026-04-11T10:29:20.966Z</time></trkpt><trkpt lat="42.0552436" lon="13.6130727"><ele>768.0</ele><time>2026-04-11T10:29:21.966Z</time></trkpt><trkpt lat="42.055253" lon="13.6129248"><ele>768.0</ele><time>2026-04-11T10:29:22.965Z</time></trkpt><trkpt lat="42.0553042" lon="13.6128057"><ele>768.0</ele><time>2026-04-11T10:29:23.966Z</time></trkpt><trkpt lat="42.0553945" lon="13.6127308"><ele>767.25</ele><time>2026-04-11T10:29:24.966Z</time></trkpt><trkpt lat="42.0555156" lon="13.6126984"><ele>766.5</ele><time>2026-04-11T10:29:25.966Z</time></trkpt><trkpt lat="42.0556562" lon="13.6127063"><ele>765.75</ele><time>2026-04-11T10:29:26.966Z</time></trkpt><trkpt lat="42.0558149" lon="13.6127218"><ele>765.0</ele><time>2026-04-11T10:29:27.966Z</time></trkpt><trkpt lat="42.0559872" lon="13.6127206"><ele>764.3333333333334</ele><time>2026-04-11T10:29:28.965Z</time></trkpt><trkpt lat="42.056163" lon="13.6126942"><ele>763.6666666666667</ele><time>2026-04-11T10:29:29.966Z</time></trkpt><trkpt lat="42.0563425" lon="13.6126565"><ele>763.0</ele><time>2026-04-11T10:29:30.966Z</time></trkpt><trkpt lat="42.0565267" lon="13.6126146"><ele>763.6666666666667</ele><time>2026-04-11T10:29:31.965Z</time></trkpt><trkpt lat="42.0567136" lon="13.612572"><ele>764.3333333333334</ele><time>2026-04-11T10:29:32.966Z</time></trkpt><trkpt lat="42.0569007" lon="13.6125279"><ele>765.0</ele><time>2026-04-11T10:29:33.966Z</time></trkpt><trkpt lat="42.0570818" lon="13.6124869"><ele>765.0</ele><time>2026-04-11T10:29:34.966Z</time></trkpt><trkpt lat="42.0572629" lon="13.6124459"><ele>765.0</ele><time>2026-04-11T10:29:35.966Z</time></trkpt><trkpt lat="42.0574393" lon="13.6124271"><ele>765.0</ele><time>2026-04-11T10:29:36.965Z</time></trkpt><trkpt lat="42.0576185" lon="13.6124215"><ele>765.0</ele><time>2026-04-11T10:29:37.966Z</time></trkpt><trkpt lat="42.0577862" lon="13.6124292"><ele>765.0</ele><time>2026-04-11T10:29:38.966Z</time></trkpt><trkpt lat="42.057948" lon="13.6124484"><ele>765.0</ele><time>2026-04-11T10:29:39.966Z</time></trkpt><trkpt lat="42.0580971" lon="13.6124862"><ele>765.0</ele><time>2026-04-11T10:29:40.966Z</time></trkpt><trkpt lat="42.0582369" lon="13.6125547"><ele>765.0</ele><time>2026-04-11T10:29:41.966Z</time></trkpt><trkpt lat="42.0583738" lon="13.6126609"><ele>765.0</ele><time>2026-04-11T10:29:42.966Z</time></trkpt><trkpt lat="42.0585132" lon="13.612792"><ele>765.0</ele><time>2026-04-11T10:29:43.966Z</time></trkpt><trkpt lat="42.0586482" lon="13.6129318"><ele>765.0</ele><time>2026-04-11T10:29:44.965Z</time></trkpt><trkpt lat="42.0587794" lon="13.6130659"><ele>765.0</ele><time>2026-04-11T10:29:45.966Z</time></trkpt><trkpt lat="42.0589023" lon="13.6131926"><ele>765.0</ele><time>2026-04-11T10:29:46.966Z</time></trkpt><trkpt lat="42.0590141" lon="13.6133031"><ele>765.0</ele><time>2026-04-11T10:29:47.966Z</time></trkpt><trkpt lat="42.0591289" lon="13.6133879"><ele>765.0</ele><time>2026-04-11T10:29:48.966Z</time></trkpt><trkpt lat="42.0592494" lon="13.6134273"><ele>765.0</ele><time>2026-04-11T10:29:49.966Z</time></trkpt><trkpt lat="42.0593602" lon="13.6134154"><ele>763.75</ele><time>2026-04-11T10:29:50.966Z</time></trkpt><trkpt lat="42.0594641" lon="13.6133404"><ele>762.5</ele><time>2026-04-11T10:29:51.966Z</time></trkpt><trkpt lat="42.0595343" lon="13.6132302"><ele>761.25</ele><time>2026-04-11T10:29:52.966Z</time></trkpt><trkpt lat="42.059568" lon="13.613076"><ele>760.0</ele><time>2026-04-11T10:29:53.966Z</time></trkpt><trkpt lat="42.0595649" lon="13.6129039"><ele>758.6666666666667</ele><time>2026-04-11T10:29:54.966Z</time></trkpt><trkpt lat="42.059534" lon="13.6127161"><ele>757.3333333333334</ele><time>2026-04-11T10:29:55.966Z</time></trkpt><trkpt lat="42.0594894" lon="13.6125211"><ele>756.0</ele><time>2026-04-11T10:29:56.965Z</time></trkpt><trkpt lat="42.0594376" lon="13.6123208"><ele>756.0</ele><time>2026-04-11T10:29:57.966Z</time></trkpt><trkpt lat="42.0593693" lon="13.6121154"><ele>756.0</ele><time>2026-04-11T10:29:58.966Z</time></trkpt><trkpt lat="42.0592909" lon="13.6119057"><ele>756.0</ele><time>2026-04-11T10:29:59.966Z</time></trkpt><trkpt lat="42.0591971" lon="13.6116963"><ele>754.3333333333334</ele><time>2026-04-11T10:30:00.966Z</time></trkpt><trkpt lat="42.0590841" lon="13.6114941"><ele>752.6666666666667</ele><time>2026-04-11T10:30:01.966Z</time></trkpt><trkpt lat="42.0589606" lon="13.6112917"><ele>751.0</ele><time>2026-04-11T10:30:02.966Z</time></trkpt><trkpt lat="42.05883" lon="13.6110892"><ele>751.0</ele><time>2026-04-11T10:30:03.966Z</time></trkpt><trkpt lat="42.0586959" lon="13.6108855"><ele>751.0</ele><time>2026-04-11T10:30:04.965Z</time></trkpt><trkpt lat="42.0585554" lon="13.6106736"><ele>751.0</ele><time>2026-04-11T10:30:05.965Z</time></trkpt><trkpt lat="42.058405" lon="13.6104658"><ele>750.0</ele><time>2026-04-11T10:30:06.966Z</time></trkpt><trkpt lat="42.0582453" lon="13.6102661"><ele>749.0</ele><time>2026-04-11T10:30:07.966Z</time></trkpt><trkpt lat="42.0580807" lon="13.6100708"><ele>748.0</ele><time>2026-04-11T10:30:08.966Z</time></trkpt><trkpt lat="42.0579176" lon="13.6098767"><ele>748.0</ele><time>2026-04-11T10:30:09.966Z</time></trkpt><trkpt lat="42.057751" lon="13.6096891"><ele>748.0</ele><time>2026-04-11T10:30:10.966Z</time></trkpt><trkpt lat="42.0575877" lon="13.6094951"><ele>748.0</ele><time>2026-04-11T10:30:11.966Z</time></trkpt><trkpt lat="42.0574268" lon="13.6093054"><ele>745.6666666666667</ele><time>2026-04-11T10:30:12.965Z</time></trkpt><trkpt lat="42.0572655" lon="13.6091174"><ele>743.3333333333334</ele><time>2026-04-11T10:30:13.966Z</time></trkpt><trkpt lat="42.0571061" lon="13.6089257"><ele>741.0</ele><time>2026-04-11T10:30:14.966Z</time></trkpt><trkpt lat="42.0569444" lon="13.6087356"><ele>741.6666666666666</ele><time>2026-04-11T10:30:15.966Z</time></trkpt><trkpt lat="42.056785" lon="13.6085459"><ele>742.3333333333333</ele><time>2026-04-11T10:30:16.966Z</time></trkpt><trkpt lat="42.0566275" lon="13.6083575"><ele>743.0</ele><time>2026-04-11T10:30:17.966Z</time></trkpt><trkpt lat="42.0564719" lon="13.6081707"><ele>743.0</ele><time>2026-04-11T10:30:18.965Z</time></trkpt><trkpt lat="42.0563184" lon="13.6079857"><ele>743.0</ele><time>2026-04-11T10:30:19.965Z</time></trkpt><trkpt lat="42.0561691" lon="13.6078069"><ele>743.0</ele><time>2026-04-11T10:30:20.966Z</time></trkpt><trkpt lat="42.0560235" lon="13.6076359"><ele>742.3333333333333</ele><time>2026-04-11T10:30:21.966Z</time></trkpt><trkpt lat="42.0558808" lon="13.6074752"><ele>741.6666666666666</ele><time>2026-04-11T10:30:22.966Z</time></trkpt><trkpt lat="42.0557392" lon="13.6073332"><ele>741.0</ele><time>2026-04-11T10:30:23.966Z</time></trkpt><trkpt lat="42.0556019" lon="13.6072055"><ele>741.0</ele><time>2026-04-11T10:30:24.966Z</time></trkpt><trkpt lat="42.0554743" lon="13.6070838"><ele>741.0</ele><time>2026-04-11T10:30:25.966Z</time></trkpt><trkpt lat="42.0553661" lon="13.6069599"><ele>741.0</ele><time>2026-04-11T10:30:26.965Z</time></trkpt><trkpt lat="42.0552841" lon="13.6068286"><ele>741.0</ele><time>2026-04-11T10:30:27.966Z</time></trkpt><trkpt lat="42.0552421" lon="13.6066668"><ele>741.0</ele><time>2026-04-11T10:30:28.965Z</time></trkpt><trkpt lat="42.055244" lon="13.6064853"><ele>741.0</ele><time>2026-04-11T10:30:29.966Z</time></trkpt><trkpt lat="42.055282" lon="13.6062855"><ele>741.0</ele><time>2026-04-11T10:30:30.966Z</time></trkpt><trkpt lat="42.0553446" lon="13.6060812"><ele>740.6666666666666</ele><time>2026-04-11T10:30:31.966Z</time></trkpt><trkpt lat="42.0554294" lon="13.6058731"><ele>740.3333333333333</ele><time>2026-04-11T10:30:32.966Z</time></trkpt><trkpt lat="42.0555314" lon="13.605669"><ele>740.0</ele><time>2026-04-11T10:30:33.966Z</time></trkpt><trkpt lat="42.055645" lon="13.6054622"><ele>740.3333333333333</ele><time>2026-04-11T10:30:34.966Z</time></trkpt><trkpt lat="42.055761" lon="13.6052539"><ele>740.6666666666666</ele><time>2026-04-11T10:30:35.966Z</time></trkpt><trkpt lat="42.0558762" lon="13.6050442"><ele>741.0</ele><time>2026-04-11T10:30:36.966Z</time></trkpt><trkpt lat="42.0559917" lon="13.6048453"><ele>741.0</ele><time>2026-04-11T10:30:37.966Z</time></trkpt><trkpt lat="42.0560959" lon="13.6046588"><ele>741.0</ele><time>2026-04-11T10:30:38.966Z</time></trkpt><trkpt lat="42.0561826" lon="13.6045032"><ele>741.0</ele><time>2026-04-11T10:30:39.966Z</time></trkpt><trkpt lat="42.0562664" lon="13.6043573"><ele>740.0</ele><time>2026-04-11T10:30:40.966Z</time></trkpt><trkpt lat="42.0563466" lon="13.6042087"><ele>739.0</ele><time>2026-04-11T10:30:41.966Z</time></trkpt><trkpt lat="42.0564246" lon="13.6040684"><ele>738.0</ele><time>2026-04-11T10:30:42.966Z</time></trkpt><trkpt lat="42.0564997" lon="13.603935"><ele>737.0</ele><time>2026-04-11T10:30:43.966Z</time></trkpt><trkpt lat="42.0565712" lon="13.6038062"><ele>737.5</ele><time>2026-04-11T10:30:44.966Z</time></trkpt><trkpt lat="42.056638" lon="13.6036797"><ele>738.0</ele><time>2026-04-11T10:30:45.966Z</time></trkpt><trkpt lat="42.0567066" lon="13.6035519"><ele>738.5</ele><time>2026-04-11T10:30:46.966Z</time></trkpt><trkpt lat="42.056773" lon="13.6034311"><ele>739.0</ele><time>2026-04-11T10:30:47.966Z</time></trkpt><trkpt lat="42.0568361" lon="13.6033163"><ele>739.0</ele><time>2026-04-11T10:30:48.966Z</time></trkpt><trkpt lat="42.0568962" lon="13.6032135"><ele>739.0</ele><time>2026-04-11T10:30:49.966Z</time></trkpt><trkpt lat="42.0569908" lon="13.6030295"><ele>739.0</ele><time>2026-04-11T10:30:51.966Z</time></trkpt><trkpt lat="42.0570274" lon="13.6029261"><ele>739.0</ele><time>2026-04-11T10:30:52.966Z</time></trkpt><trkpt lat="42.0570531" lon="13.6028084"><ele>739.0</ele><time>2026-04-11T10:30:53.966Z</time></trkpt><trkpt lat="42.0570645" lon="13.6025487"><ele>737.3333333333334</ele><time>2026-04-11T10:30:55.966Z</time></trkpt><trkpt lat="42.0570415" lon="13.6022754"><ele>735.6666666666666</ele><time>2026-04-11T10:30:57.966Z</time></trkpt><trkpt lat="42.0570106" lon="13.6019914"><ele>734.0</ele><time>2026-04-11T10:30:59.966Z</time></trkpt><trkpt lat="42.0569693" lon="13.6016374"><ele>733.5</ele><time>2026-04-11T10:31:01.966Z</time></trkpt><trkpt lat="42.0569507" lon="13.6014621"><ele>733.0</ele><time>2026-04-11T10:31:02.966Z</time></trkpt><trkpt lat="42.0569306" lon="13.6012855"><ele>732.5</ele><time>2026-04-11T10:31:03.966Z</time></trkpt><trkpt lat="42.0569132" lon="13.601114"><ele>732.0</ele><time>2026-04-11T10:31:04.966Z</time></trkpt><trkpt lat="42.0568941" lon="13.6009443"><ele>731.5</ele><time>2026-04-11T10:31:05.966Z</time></trkpt><trkpt lat="42.0568727" lon="13.6007895"><ele>731.0</ele><time>2026-04-11T10:31:06.966Z</time></trkpt><trkpt lat="42.0568548" lon="13.600636"><ele>730.5</ele><time>2026-04-11T10:31:07.966Z</time></trkpt><trkpt lat="42.0568352" lon="13.6004836"><ele>730.0</ele><time>2026-04-11T10:31:08.966Z</time></trkpt><trkpt lat="42.0568241" lon="13.6003439"><ele>729.8333333333334</ele><time>2026-04-11T10:31:09.966Z</time></trkpt><trkpt lat="42.0568158" lon="13.6002083"><ele>729.6666666666667</ele><time>2026-04-11T10:31:10.966Z</time></trkpt><trkpt lat="42.0568061" lon="13.6000988"><ele>729.5</ele><time>2026-04-11T10:31:11.966Z</time></trkpt><trkpt lat="42.0568075" lon="13.6000127"><ele>729.3333333333334</ele><time>2026-04-11T10:31:12.965Z</time></trkpt><trkpt lat="42.0568477" lon="13.5999416"><ele>729.1666666666666</ele><time>2026-04-11T10:31:14.966Z</time></trkpt><trkpt lat="42.0569036" lon="13.5999954"><ele>729.0</ele><time>2026-04-11T10:31:17.966Z</time></trkpt><trkpt lat="42.0568652" lon="13.5999167"><ele>729.0</ele><time>2026-04-11T10:31:33.965Z</time></trkpt><trkpt lat="42.0567712" lon="13.5999306"><ele>729.0</ele><time>2026-04-11T10:31:36.966Z</time></trkpt><trkpt lat="42.0567614" lon="13.6000625"><ele>729.0</ele><time>2026-04-11T10:31:38.966Z</time></trkpt><trkpt lat="42.0567745" lon="13.6001676"><ele>729.0</ele><time>2026-04-11T10:31:39.966Z</time></trkpt><trkpt lat="42.056786" lon="13.6002693"><ele>729.0</ele><time>2026-04-11T10:31:40.966Z</time></trkpt><trkpt lat="42.0568088" lon="13.6004902"><ele>729.25</ele><time>2026-04-11T10:31:42.966Z</time></trkpt><trkpt lat="42.056821" lon="13.600605"><ele>729.5</ele><time>2026-04-11T10:31:43.966Z</time></trkpt><trkpt lat="42.0568478" lon="13.6008617"><ele>729.75</ele><time>2026-04-11T10:31:45.966Z</time></trkpt><trkpt lat="42.0568654" lon="13.6009939"><ele>730.0</ele><time>2026-04-11T10:31:46.966Z</time></trkpt><trkpt lat="42.0568793" lon="13.6011293"><ele>730.4</ele><time>2026-04-11T10:31:47.966Z</time></trkpt><trkpt lat="42.0568923" lon="13.601267"><ele>730.8</ele><time>2026-04-11T10:31:48.966Z</time></trkpt><trkpt lat="42.0569051" lon="13.6014037"><ele>731.2</ele><time>2026-04-11T10:31:49.966Z</time></trkpt><trkpt lat="42.0569171" lon="13.6015352"><ele>731.6</ele><time>2026-04-11T10:31:50.966Z</time></trkpt><trkpt lat="42.0569302" lon="13.6016619"><ele>732.0</ele><time>2026-04-11T10:31:51.966Z</time></trkpt><trkpt lat="42.0569566" lon="13.6019146"><ele>732.3333333333334</ele><time>2026-04-11T10:31:53.966Z</time></trkpt><trkpt lat="42.0569692" lon="13.6020314"><ele>732.6666666666666</ele><time>2026-04-11T10:31:54.966Z</time></trkpt><trkpt lat="42.0569846" lon="13.602148"><ele>733.0</ele><time>2026-04-11T10:31:55.966Z</time></trkpt><trkpt lat="42.0569977" lon="13.6022606"><ele>733.3333333333333</ele><time>2026-04-11T10:31:56.966Z</time></trkpt><trkpt lat="42.0570036" lon="13.6023638"><ele>733.6666666666666</ele><time>2026-04-11T10:31:57.966Z</time></trkpt><trkpt lat="42.0570108" lon="13.6024635"><ele>734.0</ele><time>2026-04-11T10:31:58.966Z</time></trkpt><trkpt lat="42.0570125" lon="13.6025861"><ele>734.0</ele><time>2026-04-11T10:31:59.966Z</time></trkpt><trkpt lat="42.0570065" lon="13.6027247"><ele>734.0</ele><time>2026-04-11T10:32:00.966Z</time></trkpt><trkpt lat="42.0569883" lon="13.6028755"><ele>734.0</ele><time>2026-04-11T10:32:01.966Z</time></trkpt><trkpt lat="42.0569408" lon="13.6030328"><ele>734.0</ele><time>2026-04-11T10:32:02.966Z</time></trkpt><trkpt lat="42.0568748" lon="13.6031835"><ele>734.75</ele><time>2026-04-11T10:32:03.966Z</time></trkpt><trkpt lat="42.0567989" lon="13.6033275"><ele>735.5</ele><time>2026-04-11T10:32:04.966Z</time></trkpt><trkpt lat="42.0567184" lon="13.6034674"><ele>736.25</ele><time>2026-04-11T10:32:05.966Z</time></trkpt><trkpt lat="42.0566432" lon="13.6036002"><ele>737.0</ele><time>2026-04-11T10:32:06.966Z</time></trkpt><trkpt lat="42.0565738" lon="13.603724"><ele>737.0</ele><time>2026-04-11T10:32:07.966Z</time></trkpt><trkpt lat="42.0565103" lon="13.6038378"><ele>737.0</ele><time>2026-04-11T10:32:08.966Z</time></trkpt><trkpt lat="42.0564497" lon="13.603933"><ele>737.0</ele><time>2026-04-11T10:32:09.966Z</time></trkpt><trkpt lat="42.0563864" lon="13.604014"><ele>737.0</ele><time>2026-04-11T10:32:10.966Z</time></trkpt><trkpt lat="42.0563214" lon="13.6040708"><ele>737.0</ele><time>2026-04-11T10:32:11.966Z</time></trkpt><trkpt lat="42.0562506" lon="13.6041139"><ele>737.0</ele><time>2026-04-11T10:32:12.966Z</time></trkpt><trkpt lat="42.0561814" lon="13.604148"><ele>737.0</ele><time>2026-04-11T10:32:13.966Z</time></trkpt><trkpt lat="42.0560989" lon="13.6041854"><ele>737.0</ele><time>2026-04-11T10:32:14.966Z</time></trkpt><trkpt lat="42.0560045" lon="13.6042185"><ele>737.0</ele><time>2026-04-11T10:32:15.966Z</time></trkpt><trkpt lat="42.0558942" lon="13.6042502"><ele>737.0</ele><time>2026-04-11T10:32:16.966Z</time></trkpt><trkpt lat="42.0557739" lon="13.6042782"><ele>737.0</ele><time>2026-04-11T10:32:17.966Z</time></trkpt><trkpt lat="42.0556493" lon="13.6043098"><ele>736.5</ele><time>2026-04-11T10:32:18.966Z</time></trkpt><trkpt lat="42.05552" lon="13.6043588"><ele>736.0</ele><time>2026-04-11T10:32:19.966Z</time></trkpt><trkpt lat="42.0553867" lon="13.6044198"><ele>735.5</ele><time>2026-04-11T10:32:20.966Z</time></trkpt><trkpt lat="42.0552543" lon="13.6044977"><ele>735.0</ele><time>2026-04-11T10:32:21.966Z</time></trkpt><trkpt lat="42.0551111" lon="13.60459"><ele>735.0</ele><time>2026-04-11T10:32:22.966Z</time></trkpt><trkpt lat="42.0549599" lon="13.6046969"><ele>735.0</ele><time>2026-04-11T10:32:23.965Z</time></trkpt><trkpt lat="42.0548062" lon="13.6048169"><ele>735.0</ele><time>2026-04-11T10:32:24.966Z</time></trkpt><trkpt lat="42.054647" lon="13.6049515"><ele>732.6666666666666</ele><time>2026-04-11T10:32:25.966Z</time></trkpt><trkpt lat="42.0544829" lon="13.6050988"><ele>730.3333333333333</ele><time>2026-04-11T10:32:26.966Z</time></trkpt><trkpt lat="42.0543155" lon="13.6052512"><ele>728.0</ele><time>2026-04-11T10:32:27.966Z</time></trkpt><trkpt lat="42.0541436" lon="13.6054064"><ele>726.0</ele><time>2026-04-11T10:32:28.966Z</time></trkpt><trkpt lat="42.0539653" lon="13.6055543"><ele>724.0</ele><time>2026-04-11T10:32:29.965Z</time></trkpt><trkpt lat="42.0537832" lon="13.6056952"><ele>722.0</ele><time>2026-04-11T10:32:30.966Z</time></trkpt><trkpt lat="42.0536018" lon="13.6058327"><ele>722.0</ele><time>2026-04-11T10:32:31.966Z</time></trkpt><trkpt lat="42.0534202" lon="13.6059675"><ele>722.0</ele><time>2026-04-11T10:32:32.965Z</time></trkpt><trkpt lat="42.0532498" lon="13.606117"><ele>722.0</ele><time>2026-04-11T10:32:33.966Z</time></trkpt><trkpt lat="42.0530851" lon="13.6062739"><ele>721.0</ele><time>2026-04-11T10:32:34.966Z</time></trkpt><trkpt lat="42.05292" lon="13.6064353"><ele>720.0</ele><time>2026-04-11T10:32:35.966Z</time></trkpt><trkpt lat="42.0527575" lon="13.6065958"><ele>719.0</ele><time>2026-04-11T10:32:36.966Z</time></trkpt><trkpt lat="42.0526049" lon="13.6067626"><ele>719.0</ele><time>2026-04-11T10:32:37.966Z</time></trkpt><trkpt lat="42.0524718" lon="13.6069466"><ele>719.0</ele><time>2026-04-11T10:32:38.966Z</time></trkpt><trkpt lat="42.052357" lon="13.6071562"><ele>719.0</ele><time>2026-04-11T10:32:39.966Z</time></trkpt><trkpt lat="42.0522563" lon="13.6073802"><ele>718.6666666666666</ele><time>2026-04-11T10:32:40.966Z</time></trkpt><trkpt lat="42.0521551" lon="13.6076088"><ele>718.3333333333334</ele><time>2026-04-11T10:32:41.966Z</time></trkpt><trkpt lat="42.0520594" lon="13.6078423"><ele>718.0</ele><time>2026-04-11T10:32:42.965Z</time></trkpt><trkpt lat="42.0519689" lon="13.6080761"><ele>718.0</ele><time>2026-04-11T10:32:43.966Z</time></trkpt><trkpt lat="42.0518798" lon="13.6083099"><ele>718.0</ele><time>2026-04-11T10:32:44.966Z</time></trkpt><trkpt lat="42.051794" lon="13.608544"><ele>718.0</ele><time>2026-04-11T10:32:45.966Z</time></trkpt><trkpt lat="42.0517149" lon="13.6087897"><ele>717.6666666666667</ele><time>2026-04-11T10:32:46.966Z</time></trkpt><trkpt lat="42.0516349" lon="13.6090452"><ele>717.3333333333334</ele><time>2026-04-11T10:32:47.966Z</time></trkpt><trkpt lat="42.0515547" lon="13.609305"><ele>717.0</ele><time>2026-04-11T10:32:48.966Z</time></trkpt><trkpt lat="42.0514731" lon="13.609567"><ele>717.0</ele><time>2026-04-11T10:32:49.966Z</time></trkpt><trkpt lat="42.0513917" lon="13.6098296"><ele>717.0</ele><time>2026-04-11T10:32:50.966Z</time></trkpt><trkpt lat="42.0513083" lon="13.6100884"><ele>717.0</ele><time>2026-04-11T10:32:51.966Z</time></trkpt><trkpt lat="42.0512204" lon="13.6103369"><ele>717.0</ele><time>2026-04-11T10:32:52.965Z</time></trkpt><trkpt lat="42.0511296" lon="13.6105851"><ele>717.0</ele><time>2026-04-11T10:32:53.966Z</time></trkpt><trkpt lat="42.0510398" lon="13.6108424"><ele>717.0</ele><time>2026-04-11T10:32:54.966Z</time></trkpt><trkpt lat="42.0509535" lon="13.6110921"><ele>716.3333333333334</ele><time>2026-04-11T10:32:55.966Z</time></trkpt><trkpt lat="42.0508742" lon="13.6113449"><ele>715.6666666666667</ele><time>2026-04-11T10:32:56.966Z</time></trkpt><trkpt lat="42.0507975" lon="13.6115982"><ele>715.0</ele><time>2026-04-11T10:32:57.966Z</time></trkpt><trkpt lat="42.0507284" lon="13.6118624"><ele>715.3333333333334</ele><time>2026-04-11T10:32:58.966Z</time></trkpt><trkpt lat="42.0506635" lon="13.6121299"><ele>715.6666666666666</ele><time>2026-04-11T10:32:59.966Z</time></trkpt><trkpt lat="42.0505979" lon="13.6123955"><ele>716.0</ele><time>2026-04-11T10:33:00.965Z</time></trkpt><trkpt lat="42.0505153" lon="13.6126534"><ele>716.6666666666666</ele><time>2026-04-11T10:33:01.966Z</time></trkpt><trkpt lat="42.0504133" lon="13.6128999"><ele>717.3333333333334</ele><time>2026-04-11T10:33:02.966Z</time></trkpt><trkpt lat="42.0502957" lon="13.6131314"><ele>718.0</ele><time>2026-04-11T10:33:03.965Z</time></trkpt><trkpt lat="42.0501773" lon="13.6133619"><ele>718.0</ele><time>2026-04-11T10:33:04.966Z</time></trkpt><trkpt lat="42.0500675" lon="13.6135971"><ele>718.0</ele><time>2026-04-11T10:33:05.966Z</time></trkpt><trkpt lat="42.0499632" lon="13.6138384"><ele>718.0</ele><time>2026-04-11T10:33:06.966Z</time></trkpt><trkpt lat="42.0498673" lon="13.6140858"><ele>717.3333333333334</ele><time>2026-04-11T10:33:07.966Z</time></trkpt><trkpt lat="42.0497781" lon="13.6143422"><ele>716.6666666666666</ele><time>2026-04-11T10:33:08.966Z</time></trkpt><trkpt lat="42.0497004" lon="13.6146031"><ele>716.0</ele><time>2026-04-11T10:33:09.965Z</time></trkpt><trkpt lat="42.049637" lon="13.6148719"><ele>716.0</ele><time>2026-04-11T10:33:10.966Z</time></trkpt><trkpt lat="42.0495864" lon="13.6151486"><ele>716.0</ele><time>2026-04-11T10:33:11.966Z</time></trkpt><trkpt lat="42.0495358" lon="13.6154228"><ele>716.0</ele><time>2026-04-11T10:33:12.966Z</time></trkpt><trkpt lat="42.049485" lon="13.6156969"><ele>716.3333333333333</ele><time>2026-04-11T10:33:13.966Z</time></trkpt><trkpt lat="42.0494346" lon="13.6159734"><ele>716.6666666666666</ele><time>2026-04-11T10:33:14.966Z</time></trkpt><trkpt lat="42.0493847" lon="13.6162544"><ele>717.0</ele><time>2026-04-11T10:33:15.966Z</time></trkpt><trkpt lat="42.0493368" lon="13.6165344"><ele>717.3333333333334</ele><time>2026-04-11T10:33:16.966Z</time></trkpt><trkpt lat="42.049285" lon="13.6168191"><ele>717.6666666666667</ele><time>2026-04-11T10:33:17.966Z</time></trkpt><trkpt lat="42.0492364" lon="13.6171057"><ele>718.0</ele><time>2026-04-11T10:33:18.966Z</time></trkpt><trkpt lat="42.0491899" lon="13.6173942"><ele>718.3333333333334</ele><time>2026-04-11T10:33:19.966Z</time></trkpt><trkpt lat="42.0491413" lon="13.6176762"><ele>718.6666666666666</ele><time>2026-04-11T10:33:20.966Z</time></trkpt><trkpt lat="42.0490914" lon="13.6179576"><ele>719.0</ele><time>2026-04-11T10:33:21.965Z</time></trkpt><trkpt lat="42.0490368" lon="13.6182349"><ele>718.3333333333333</ele><time>2026-04-11T10:33:22.966Z</time></trkpt><trkpt lat="42.0489719" lon="13.6185046"><ele>717.6666666666666</ele><time>2026-04-11T10:33:23.966Z</time></trkpt><trkpt lat="42.0488883" lon="13.618761"><ele>717.0</ele><time>2026-04-11T10:33:24.966Z</time></trkpt><trkpt lat="42.0487887" lon="13.619009"><ele>717.0</ele><time>2026-04-11T10:33:25.966Z</time></trkpt><trkpt lat="42.0486783" lon="13.6192505"><ele>717.0</ele><time>2026-04-11T10:33:26.966Z</time></trkpt><trkpt lat="42.0485657" lon="13.6194937"><ele>717.0</ele><time>2026-04-11T10:33:27.966Z</time></trkpt><trkpt lat="42.0484569" lon="13.6197433"><ele>717.0</ele><time>2026-04-11T10:33:28.966Z</time></trkpt><trkpt lat="42.0483505" lon="13.6199895"><ele>717.0</ele><time>2026-04-11T10:33:29.966Z</time></trkpt><trkpt lat="42.0482441" lon="13.620235"><ele>717.0</ele><time>2026-04-11T10:33:30.966Z</time></trkpt><trkpt lat="42.0481361" lon="13.6204747"><ele>717.0</ele><time>2026-04-11T10:33:31.965Z</time></trkpt><trkpt lat="42.0480218" lon="13.6207153"><ele>717.0</ele><time>2026-04-11T10:33:32.966Z</time></trkpt><trkpt lat="42.0477443" lon="13.6211279"><ele>716.6666666666666</ele><time>2026-04-11T10:33:34.966Z</time></trkpt><trkpt lat="42.0475847" lon="13.6213061"><ele>716.3333333333333</ele><time>2026-04-11T10:33:35.965Z</time></trkpt><trkpt lat="42.0474264" lon="13.6214843"><ele>716.0</ele><time>2026-04-11T10:33:36.966Z</time></trkpt><trkpt lat="42.0472731" lon="13.6216697"><ele>716.0</ele><time>2026-04-11T10:33:37.966Z</time></trkpt><trkpt lat="42.047124" lon="13.6218596"><ele>716.0</ele><time>2026-04-11T10:33:38.966Z</time></trkpt><trkpt lat="42.0469721" lon="13.6220484"><ele>716.0</ele><time>2026-04-11T10:33:39.966Z</time></trkpt><trkpt lat="42.0468105" lon="13.6222205"><ele>716.6666666666666</ele><time>2026-04-11T10:33:40.965Z</time></trkpt><trkpt lat="42.046629" lon="13.622368"><ele>717.3333333333334</ele><time>2026-04-11T10:33:41.966Z</time></trkpt><trkpt lat="42.0464378" lon="13.6225011"><ele>718.0</ele><time>2026-04-11T10:33:42.966Z</time></trkpt><trkpt lat="42.046247" lon="13.6226389"><ele>717.0</ele><time>2026-04-11T10:33:43.966Z</time></trkpt><trkpt lat="42.0460569" lon="13.6227833"><ele>716.0</ele><time>2026-04-11T10:33:44.966Z</time></trkpt><trkpt lat="42.0458759" lon="13.6229468"><ele>715.0</ele><time>2026-04-11T10:33:45.966Z</time></trkpt><trkpt lat="42.0457015" lon="13.6231229"><ele>714.3333333333334</ele><time>2026-04-11T10:33:46.966Z</time></trkpt><trkpt lat="42.0455288" lon="13.6233033"><ele>713.6666666666666</ele><time>2026-04-11T10:33:47.966Z</time></trkpt><trkpt lat="42.0453583" lon="13.6234775"><ele>713.0</ele><time>2026-04-11T10:33:48.966Z</time></trkpt><trkpt lat="42.0451957" lon="13.6236518"><ele>713.0</ele><time>2026-04-11T10:33:49.966Z</time></trkpt><trkpt lat="42.0450315" lon="13.6238345"><ele>713.0</ele><time>2026-04-11T10:33:50.966Z</time></trkpt><trkpt lat="42.0448755" lon="13.6240199"><ele>713.0</ele><time>2026-04-11T10:33:51.965Z</time></trkpt><trkpt lat="42.0447274" lon="13.6242288"><ele>712.6666666666666</ele><time>2026-04-11T10:33:52.966Z</time></trkpt><trkpt lat="42.0445886" lon="13.624443"><ele>712.3333333333334</ele><time>2026-04-11T10:33:53.966Z</time></trkpt><trkpt lat="42.0444511" lon="13.624657"><ele>712.0</ele><time>2026-04-11T10:33:54.966Z</time></trkpt><trkpt lat="42.0443169" lon="13.6248661"><ele>712.0</ele><time>2026-04-11T10:33:55.966Z</time></trkpt><trkpt lat="42.0440673" lon="13.6252685"><ele>712.0</ele><time>2026-04-11T10:33:57.965Z</time></trkpt><trkpt lat="42.0439414" lon="13.6254618"><ele>712.0</ele><time>2026-04-11T10:33:58.966Z</time></trkpt><trkpt lat="42.0438181" lon="13.6256539"><ele>712.0</ele><time>2026-04-11T10:33:59.966Z</time></trkpt><trkpt lat="42.0436901" lon="13.6258464"><ele>712.0</ele><time>2026-04-11T10:34:00.966Z</time></trkpt><trkpt lat="42.0435668" lon="13.6260366"><ele>713.0</ele><time>2026-04-11T10:34:01.966Z</time></trkpt><trkpt lat="42.0433161" lon="13.6264208"><ele>714.0</ele><time>2026-04-11T10:34:03.966Z</time></trkpt><trkpt lat="42.0431916" lon="13.6266154"><ele>713.6666666666666</ele><time>2026-04-11T10:34:04.966Z</time></trkpt><trkpt lat="42.0430639" lon="13.6268114"><ele>713.3333333333333</ele><time>2026-04-11T10:34:05.966Z</time></trkpt><trkpt lat="42.0429395" lon="13.6270084"><ele>713.0</ele><time>2026-04-11T10:34:06.966Z</time></trkpt><trkpt lat="42.0428146" lon="13.6272047"><ele>713.0</ele><time>2026-04-11T10:34:07.966Z</time></trkpt><trkpt lat="42.0426918" lon="13.6274036"><ele>713.0</ele><time>2026-04-11T10:34:08.966Z</time></trkpt><trkpt lat="42.0425686" lon="13.6276024"><ele>713.0</ele><time>2026-04-11T10:34:09.966Z</time></trkpt><trkpt lat="42.0424443" lon="13.6278009"><ele>713.3333333333333</ele><time>2026-04-11T10:34:10.966Z</time></trkpt><trkpt lat="42.0423154" lon="13.6279941"><ele>713.6666666666666</ele><time>2026-04-11T10:34:11.966Z</time></trkpt><trkpt lat="42.0421927" lon="13.6281899"><ele>714.0</ele><time>2026-04-11T10:34:12.966Z</time></trkpt><trkpt lat="42.0420682" lon="13.6283823"><ele>716.5</ele><time>2026-04-11T10:34:13.966Z</time></trkpt><trkpt lat="42.0418166" lon="13.6287738"><ele>719.0</ele><time>2026-04-11T10:34:15.966Z</time></trkpt><trkpt lat="42.04169" lon="13.6289742"><ele>717.6666666666666</ele><time>2026-04-11T10:34:16.966Z</time></trkpt><trkpt lat="42.041563" lon="13.6291801"><ele>716.3333333333334</ele><time>2026-04-11T10:34:17.966Z</time></trkpt><trkpt lat="42.0414331" lon="13.6293906"><ele>715.0</ele><time>2026-04-11T10:34:18.966Z</time></trkpt><trkpt lat="42.041303" lon="13.6296029"><ele>715.0</ele><time>2026-04-11T10:34:19.966Z</time></trkpt><trkpt lat="42.0411745" lon="13.6298225"><ele>715.0</ele><time>2026-04-11T10:34:20.966Z</time></trkpt><trkpt lat="42.0410426" lon="13.6300395"><ele>715.0</ele><time>2026-04-11T10:34:21.966Z</time></trkpt><trkpt lat="42.0409082" lon="13.6302646"><ele>714.6666666666667</ele><time>2026-04-11T10:34:22.966Z</time></trkpt><trkpt lat="42.0407734" lon="13.6304941"><ele>714.3333333333334</ele><time>2026-04-11T10:34:23.966Z</time></trkpt><trkpt lat="42.0406319" lon="13.6307205"><ele>714.0</ele><time>2026-04-11T10:34:24.966Z</time></trkpt><trkpt lat="42.0404894" lon="13.6309537"><ele>715.0</ele><time>2026-04-11T10:34:25.966Z</time></trkpt><trkpt lat="42.0403448" lon="13.6311903"><ele>716.0</ele><time>2026-04-11T10:34:26.965Z</time></trkpt><trkpt lat="42.0401988" lon="13.6314291"><ele>716.0</ele><time>2026-04-11T10:34:27.966Z</time></trkpt><trkpt lat="42.0400555" lon="13.6316672"><ele>716.0</ele><time>2026-04-11T10:34:28.966Z</time></trkpt><trkpt lat="42.0399073" lon="13.6319078"><ele>715.0</ele><time>2026-04-11T10:34:29.965Z</time></trkpt><trkpt lat="42.0397637" lon="13.6321494"><ele>714.0</ele><time>2026-04-11T10:34:30.966Z</time></trkpt><trkpt lat="42.039624" lon="13.6324016"><ele>714.0</ele><time>2026-04-11T10:34:31.966Z</time></trkpt><trkpt lat="42.0394925" lon="13.6326632"><ele>714.0</ele><time>2026-04-11T10:34:32.966Z</time></trkpt><trkpt lat="42.0393707" lon="13.6329272"><ele>716.0</ele><time>2026-04-11T10:34:33.966Z</time></trkpt><trkpt lat="42.0392498" lon="13.6331983"><ele>718.0</ele><time>2026-04-11T10:34:34.966Z</time></trkpt><trkpt lat="42.0391367" lon="13.6334697"><ele>717.5</ele><time>2026-04-11T10:34:35.966Z</time></trkpt><trkpt lat="42.0390223" lon="13.6337409"><ele>717.0</ele><time>2026-04-11T10:34:36.966Z</time></trkpt><trkpt lat="42.0389144" lon="13.6340056"><ele>717.0</ele><time>2026-04-11T10:34:37.966Z</time></trkpt><trkpt lat="42.0388068" lon="13.6342696"><ele>717.0</ele><time>2026-04-11T10:34:38.966Z</time></trkpt><trkpt lat="42.0387009" lon="13.6345266"><ele>717.0</ele><time>2026-04-11T10:34:39.966Z</time></trkpt><trkpt lat="42.0385996" lon="13.6347833"><ele>718.0</ele><time>2026-04-11T10:34:40.965Z</time></trkpt><trkpt lat="42.038498" lon="13.6350349"><ele>719.0</ele><time>2026-04-11T10:34:41.966Z</time></trkpt><trkpt lat="42.0383959" lon="13.6352815"><ele>720.0</ele><time>2026-04-11T10:34:42.966Z</time></trkpt><trkpt lat="42.0382917" lon="13.6355105"><ele>720.6666666666666</ele><time>2026-04-11T10:34:43.966Z</time></trkpt><trkpt lat="42.0381814" lon="13.6357188"><ele>721.3333333333333</ele><time>2026-04-11T10:34:44.966Z</time></trkpt><trkpt lat="42.038064" lon="13.6359175"><ele>722.0</ele><time>2026-04-11T10:34:45.966Z</time></trkpt><trkpt lat="42.0379455" lon="13.6361043"><ele>723.3333333333333</ele><time>2026-04-11T10:34:46.966Z</time></trkpt><trkpt lat="42.0378282" lon="13.6362928"><ele>724.6666666666666</ele><time>2026-04-11T10:34:47.966Z</time></trkpt><trkpt lat="42.0377119" lon="13.6364802"><ele>726.0</ele><time>2026-04-11T10:34:48.965Z</time></trkpt><trkpt lat="42.0375886" lon="13.6366621"><ele>726.6666666666666</ele><time>2026-04-11T10:34:49.966Z</time></trkpt><trkpt lat="42.0374508" lon="13.6368333"><ele>727.3333333333333</ele><time>2026-04-11T10:34:50.966Z</time></trkpt><trkpt lat="42.0372989" lon="13.6369915"><ele>728.0</ele><time>2026-04-11T10:34:51.966Z</time></trkpt><trkpt lat="42.0371374" lon="13.6371396"><ele>728.0</ele><time>2026-04-11T10:34:52.966Z</time></trkpt><trkpt lat="42.0369756" lon="13.6372853"><ele>728.0</ele><time>2026-04-11T10:34:53.966Z</time></trkpt><trkpt lat="42.0368169" lon="13.6374386"><ele>728.0</ele><time>2026-04-11T10:34:54.966Z</time></trkpt><trkpt lat="42.0366695" lon="13.6376093"><ele>726.5</ele><time>2026-04-11T10:34:55.966Z</time></trkpt><trkpt lat="42.0365395" lon="13.6378005"><ele>725.0</ele><time>2026-04-11T10:34:56.966Z</time></trkpt><trkpt lat="42.0362987" lon="13.6382062"><ele>725.0</ele><time>2026-04-11T10:34:58.966Z</time></trkpt><trkpt lat="42.0361779" lon="13.6384173"><ele>725.0</ele><time>2026-04-11T10:34:59.966Z</time></trkpt><trkpt lat="42.0360563" lon="13.6386275"><ele>725.0</ele><time>2026-04-11T10:35:00.965Z</time></trkpt><trkpt lat="42.035931" lon="13.6388376"><ele>724.3333333333333</ele><time>2026-04-11T10:35:01.965Z</time></trkpt><trkpt lat="42.0357997" lon="13.639045"><ele>723.6666666666666</ele><time>2026-04-11T10:35:02.966Z</time></trkpt><trkpt lat="42.0356644" lon="13.6392486"><ele>723.0</ele><time>2026-04-11T10:35:03.966Z</time></trkpt><trkpt lat="42.0355165" lon="13.6394359"><ele>724.3333333333334</ele><time>2026-04-11T10:35:04.966Z</time></trkpt><trkpt lat="42.0353605" lon="13.63961"><ele>725.6666666666667</ele><time>2026-04-11T10:35:05.966Z</time></trkpt><trkpt lat="42.0351964" lon="13.6397678"><ele>727.0</ele><time>2026-04-11T10:35:06.966Z</time></trkpt><trkpt lat="42.0350295" lon="13.6399222"><ele>727.0</ele><time>2026-04-11T10:35:07.966Z</time></trkpt><trkpt lat="42.0348584" lon="13.6400771"><ele>727.0</ele><time>2026-04-11T10:35:08.966Z</time></trkpt><trkpt lat="42.0346834" lon="13.6402267"><ele>727.0</ele><time>2026-04-11T10:35:09.966Z</time></trkpt><trkpt lat="42.034506" lon="13.6403821"><ele>727.0</ele><time>2026-04-11T10:35:10.965Z</time></trkpt><trkpt lat="42.0343255" lon="13.6405376"><ele>727.0</ele><time>2026-04-11T10:35:11.966Z</time></trkpt><trkpt lat="42.0341492" lon="13.6406926"><ele>727.0</ele><time>2026-04-11T10:35:12.966Z</time></trkpt><trkpt lat="42.0339695" lon="13.6408492"><ele>726.0</ele><time>2026-04-11T10:35:13.966Z</time></trkpt><trkpt lat="42.0337924" lon="13.6409987"><ele>725.0</ele><time>2026-04-11T10:35:14.966Z</time></trkpt><trkpt lat="42.0336211" lon="13.6411462"><ele>724.0</ele><time>2026-04-11T10:35:15.966Z</time></trkpt><trkpt lat="42.0334502" lon="13.641291"><ele>723.6666666666667</ele><time>2026-04-11T10:35:16.965Z</time></trkpt><trkpt lat="42.0332813" lon="13.6414363"><ele>723.3333333333334</ele><time>2026-04-11T10:35:17.966Z</time></trkpt><trkpt lat="42.0331136" lon="13.6415805"><ele>723.0</ele><time>2026-04-11T10:35:18.966Z</time></trkpt><trkpt lat="42.0329457" lon="13.6417187"><ele>723.0</ele><time>2026-04-11T10:35:19.966Z</time></trkpt><trkpt lat="42.0327804" lon="13.6418613"><ele>723.0</ele><time>2026-04-11T10:35:20.966Z</time></trkpt><trkpt lat="42.0326163" lon="13.6419999"><ele>723.0</ele><time>2026-04-11T10:35:21.966Z</time></trkpt><trkpt lat="42.0324563" lon="13.6421415"><ele>723.3333333333334</ele><time>2026-04-11T10:35:22.966Z</time></trkpt><trkpt lat="42.0322948" lon="13.6422906"><ele>723.6666666666667</ele><time>2026-04-11T10:35:23.966Z</time></trkpt><trkpt lat="42.0321435" lon="13.6424376"><ele>724.0</ele><time>2026-04-11T10:35:24.966Z</time></trkpt><trkpt lat="42.0320044" lon="13.6426024"><ele>724.0</ele><time>2026-04-11T10:35:25.966Z</time></trkpt><trkpt lat="42.0318826" lon="13.6427901"><ele>724.0</ele><time>2026-04-11T10:35:26.966Z</time></trkpt><trkpt lat="42.0317719" lon="13.6429972"><ele>724.0</ele><time>2026-04-11T10:35:27.966Z</time></trkpt><trkpt lat="42.0316689" lon="13.6432268"><ele>724.3333333333334</ele><time>2026-04-11T10:35:28.966Z</time></trkpt><trkpt lat="42.0315638" lon="13.6434597"><ele>724.6666666666666</ele><time>2026-04-11T10:35:29.966Z</time></trkpt><trkpt lat="42.031451" lon="13.6436877"><ele>725.0</ele><time>2026-04-11T10:35:30.966Z</time></trkpt><trkpt lat="42.0313305" lon="13.643909"><ele>725.0</ele><time>2026-04-11T10:35:31.966Z</time></trkpt><trkpt lat="42.0312014" lon="13.6441078"><ele>725.0</ele><time>2026-04-11T10:35:32.966Z</time></trkpt><trkpt lat="42.0310675" lon="13.6442878"><ele>725.0</ele><time>2026-04-11T10:35:33.966Z</time></trkpt><trkpt lat="42.0309358" lon="13.6444505"><ele>726.0</ele><time>2026-04-11T10:35:34.966Z</time></trkpt><trkpt lat="42.0308035" lon="13.6446066"><ele>727.0</ele><time>2026-04-11T10:35:35.965Z</time></trkpt><trkpt lat="42.0306627" lon="13.6447553"><ele>728.0</ele><time>2026-04-11T10:35:36.966Z</time></trkpt><trkpt lat="42.0305131" lon="13.644888"><ele>728.0</ele><time>2026-04-11T10:35:37.966Z</time></trkpt><trkpt lat="42.0303554" lon="13.645008"><ele>728.0</ele><time>2026-04-11T10:35:38.966Z</time></trkpt><trkpt lat="42.0301932" lon="13.6451137"><ele>728.0</ele><time>2026-04-11T10:35:39.966Z</time></trkpt><trkpt lat="42.0300324" lon="13.6452015"><ele>728.3333333333333</ele><time>2026-04-11T10:35:40.966Z</time></trkpt><trkpt lat="42.0298752" lon="13.6452782"><ele>728.6666666666666</ele><time>2026-04-11T10:35:41.966Z</time></trkpt><trkpt lat="42.0297222" lon="13.6453378"><ele>729.0</ele><time>2026-04-11T10:35:42.966Z</time></trkpt><trkpt lat="42.0295766" lon="13.6453971"><ele>729.0</ele><time>2026-04-11T10:35:43.966Z</time></trkpt><trkpt lat="42.0294377" lon="13.6454543"><ele>729.0</ele><time>2026-04-11T10:35:44.966Z</time></trkpt><trkpt lat="42.0292976" lon="13.6455101"><ele>729.0</ele><time>2026-04-11T10:35:45.966Z</time></trkpt><trkpt lat="42.0291604" lon="13.6455765"><ele>729.0</ele><time>2026-04-11T10:35:46.966Z</time></trkpt><trkpt lat="42.0290365" lon="13.6456675"><ele>728.25</ele><time>2026-04-11T10:35:47.966Z</time></trkpt><trkpt lat="42.0289237" lon="13.6457903"><ele>727.5</ele><time>2026-04-11T10:35:48.965Z</time></trkpt><trkpt lat="42.0288278" lon="13.6459393"><ele>726.75</ele><time>2026-04-11T10:35:49.966Z</time></trkpt><trkpt lat="42.0287265" lon="13.6460948"><ele>726.0</ele><time>2026-04-11T10:35:50.966Z</time></trkpt><trkpt lat="42.0286268" lon="13.6462458"><ele>726.0</ele><time>2026-04-11T10:35:51.966Z</time></trkpt><trkpt lat="42.0285178" lon="13.6463923"><ele>726.0</ele><time>2026-04-11T10:35:52.966Z</time></trkpt><trkpt lat="42.0284021" lon="13.6465284"><ele>726.0</ele><time>2026-04-11T10:35:53.966Z</time></trkpt><trkpt lat="42.028289" lon="13.6466589"><ele>726.5</ele><time>2026-04-11T10:35:54.966Z</time></trkpt><trkpt lat="42.0281746" lon="13.6467893"><ele>727.0</ele><time>2026-04-11T10:35:55.966Z</time></trkpt><trkpt lat="42.0280633" lon="13.6469229"><ele>727.5</ele><time>2026-04-11T10:35:56.966Z</time></trkpt><trkpt lat="42.0279553" lon="13.6470554"><ele>728.0</ele><time>2026-04-11T10:35:57.966Z</time></trkpt><trkpt lat="42.0278541" lon="13.6471965"><ele>728.0</ele><time>2026-04-11T10:35:58.966Z</time></trkpt><trkpt lat="42.0277558" lon="13.6473373"><ele>728.0</ele><time>2026-04-11T10:35:59.966Z</time></trkpt><trkpt lat="42.0276601" lon="13.6474742"><ele>728.0</ele><time>2026-04-11T10:36:00.966Z</time></trkpt><trkpt lat="42.0275693" lon="13.6476063"><ele>728.0</ele><time>2026-04-11T10:36:01.965Z</time></trkpt><trkpt lat="42.0274835" lon="13.6477278"><ele>727.8</ele><time>2026-04-11T10:36:02.966Z</time></trkpt><trkpt lat="42.0274001" lon="13.6478484"><ele>727.5999999999999</ele><time>2026-04-11T10:36:03.965Z</time></trkpt><trkpt lat="42.0273218" lon="13.6479591"><ele>727.4000000000001</ele><time>2026-04-11T10:36:04.966Z</time></trkpt><trkpt lat="42.0272467" lon="13.6480607"><ele>727.2</ele><time>2026-04-11T10:36:05.966Z</time></trkpt><trkpt lat="42.0271766" lon="13.6481527"><ele>727.0</ele><time>2026-04-11T10:36:06.965Z</time></trkpt><trkpt lat="42.0271092" lon="13.6482345"><ele>727.0</ele><time>2026-04-11T10:36:07.966Z</time></trkpt><trkpt lat="42.0270414" lon="13.6483068"><ele>727.0</ele><time>2026-04-11T10:36:08.966Z</time></trkpt><trkpt lat="42.026981" lon="13.6483763"><ele>727.0</ele><time>2026-04-11T10:36:09.966Z</time></trkpt><trkpt lat="42.026922" lon="13.6484489"><ele>727.0</ele><time>2026-04-11T10:36:10.966Z</time></trkpt><trkpt lat="42.0268617" lon="13.6485203"><ele>727.0</ele><time>2026-04-11T10:36:11.965Z</time></trkpt><trkpt lat="42.0267958" lon="13.6485896"><ele>727.0</ele><time>2026-04-11T10:36:12.966Z</time></trkpt><trkpt lat="42.0267284" lon="13.6486566"><ele>726.4000000000001</ele><time>2026-04-11T10:36:13.966Z</time></trkpt><trkpt lat="42.0266583" lon="13.6487278"><ele>725.8000000000001</ele><time>2026-04-11T10:36:14.966Z</time></trkpt><trkpt lat="42.0265849" lon="13.6488058"><ele>725.2</ele><time>2026-04-11T10:36:15.966Z</time></trkpt><trkpt lat="42.0265102" lon="13.6488886"><ele>724.6</ele><time>2026-04-11T10:36:16.966Z</time></trkpt><trkpt lat="42.0264413" lon="13.6489715"><ele>724.0</ele><time>2026-04-11T10:36:17.966Z</time></trkpt><trkpt lat="42.0263849" lon="13.6490611"><ele>724.0</ele><time>2026-04-11T10:36:18.966Z</time></trkpt><trkpt lat="42.0263283" lon="13.6491385"><ele>724.0</ele><time>2026-04-11T10:36:19.966Z</time></trkpt><trkpt lat="42.0262697" lon="13.6492248"><ele>724.0</ele><time>2026-04-11T10:36:20.966Z</time></trkpt><trkpt lat="42.0262065" lon="13.6493166"><ele>724.0</ele><time>2026-04-11T10:36:21.966Z</time></trkpt><trkpt lat="42.0261409" lon="13.6494185"><ele>724.0</ele><time>2026-04-11T10:36:22.966Z</time></trkpt><trkpt lat="42.0260739" lon="13.6495236"><ele>723.8000000000001</ele><time>2026-04-11T10:36:23.966Z</time></trkpt><trkpt lat="42.0260029" lon="13.6496377"><ele>723.6</ele><time>2026-04-11T10:36:24.966Z</time></trkpt><trkpt lat="42.025933" lon="13.6497538"><ele>723.4</ele><time>2026-04-11T10:36:25.966Z</time></trkpt><trkpt lat="42.0258605" lon="13.6498724"><ele>723.2</ele><time>2026-04-11T10:36:26.966Z</time></trkpt><trkpt lat="42.025792" lon="13.6499888"><ele>723.0</ele><time>2026-04-11T10:36:27.966Z</time></trkpt><trkpt lat="42.0257239" lon="13.6501098"><ele>723.0</ele><time>2026-04-11T10:36:28.966Z</time></trkpt><trkpt lat="42.0256567" lon="13.6502248"><ele>723.0</ele><time>2026-04-11T10:36:29.966Z</time></trkpt><trkpt lat="42.0255828" lon="13.650344"><ele>723.0</ele><time>2026-04-11T10:36:30.966Z</time></trkpt><trkpt lat="42.025502" lon="13.6504586"><ele>723.0</ele><time>2026-04-11T10:36:31.966Z</time></trkpt><trkpt lat="42.0254255" lon="13.6505741"><ele>724.4</ele><time>2026-04-11T10:36:32.966Z</time></trkpt><trkpt lat="42.0253558" lon="13.65068"><ele>725.8</ele><time>2026-04-11T10:36:33.966Z</time></trkpt><trkpt lat="42.0252932" lon="13.650777"><ele>727.2</ele><time>2026-04-11T10:36:34.966Z</time></trkpt><trkpt lat="42.02523" lon="13.6508732"><ele>728.6</ele><time>2026-04-11T10:36:35.966Z</time></trkpt><trkpt lat="42.0251655" lon="13.6509698"><ele>730.0</ele><time>2026-04-11T10:36:36.966Z</time></trkpt><trkpt lat="42.0250967" lon="13.6510636"><ele>729.8333333333334</ele><time>2026-04-11T10:36:37.966Z</time></trkpt><trkpt lat="42.0250279" lon="13.6511345"><ele>729.6666666666667</ele><time>2026-04-11T10:36:38.965Z</time></trkpt><trkpt lat="42.0249769" lon="13.6511923"><ele>729.5</ele><time>2026-04-11T10:36:39.966Z</time></trkpt><trkpt lat="42.0249206" lon="13.651272"><ele>729.3333333333334</ele><time>2026-04-11T10:36:41.966Z</time></trkpt><trkpt lat="42.024858" lon="13.6513337"><ele>729.1666666666666</ele><time>2026-04-11T10:36:52.965Z</time></trkpt><trkpt lat="42.0247863" lon="13.6514297"><ele>729.0</ele><time>2026-04-11T10:36:54.966Z</time></trkpt><trkpt lat="42.0247356" lon="13.6514973"><ele>729.0</ele><time>2026-04-11T10:36:55.965Z</time></trkpt><trkpt lat="42.0246842" lon="13.6515579"><ele>729.0</ele><time>2026-04-11T10:36:56.966Z</time></trkpt><trkpt lat="42.0246284" lon="13.6516335"><ele>729.0</ele><time>2026-04-11T10:36:57.965Z</time></trkpt><trkpt lat="42.0245715" lon="13.651713"><ele>729.0</ele><time>2026-04-11T10:36:58.966Z</time></trkpt><trkpt lat="42.0245128" lon="13.6518062"><ele>729.0</ele><time>2026-04-11T10:36:59.966Z</time></trkpt><trkpt lat="42.0243435" lon="13.652134"><ele>729.8333333333334</ele><time>2026-04-11T10:37:02.966Z</time></trkpt><trkpt lat="42.024291" lon="13.6522412"><ele>730.6666666666666</ele><time>2026-04-11T10:37:03.966Z</time></trkpt><trkpt lat="42.0242434" lon="13.6523476"><ele>731.5</ele><time>2026-04-11T10:37:04.965Z</time></trkpt><trkpt lat="42.0242145" lon="13.652462"><ele>732.3333333333333</ele><time>2026-04-11T10:37:05.966Z</time></trkpt><trkpt lat="42.0242051" lon="13.6525728"><ele>733.1666666666666</ele><time>2026-04-11T10:37:06.966Z</time></trkpt><trkpt lat="42.0242124" lon="13.6526778"><ele>734.0</ele><time>2026-04-11T10:37:07.966Z</time></trkpt><trkpt lat="42.0242317" lon="13.6528012"><ele>734.0</ele><time>2026-04-11T10:37:08.966Z</time></trkpt><trkpt lat="42.0242486" lon="13.6529327"><ele>734.0</ele><time>2026-04-11T10:37:09.966Z</time></trkpt><trkpt lat="42.0242668" lon="13.6530774"><ele>734.0</ele><time>2026-04-11T10:37:10.966Z</time></trkpt><trkpt lat="42.0242899" lon="13.6532301"><ele>734.0</ele><time>2026-04-11T10:37:11.966Z</time></trkpt><trkpt lat="42.0243129" lon="13.6533879"><ele>734.0</ele><time>2026-04-11T10:37:12.966Z</time></trkpt><trkpt lat="42.0243522" lon="13.6535557"><ele>733.0</ele><time>2026-04-11T10:37:13.966Z</time></trkpt><trkpt lat="42.0243906" lon="13.6537095"><ele>732.0</ele><time>2026-04-11T10:37:14.966Z</time></trkpt><trkpt lat="42.0244274" lon="13.653867"><ele>731.0</ele><time>2026-04-11T10:37:15.966Z</time></trkpt><trkpt lat="42.0244631" lon="13.6540295"><ele>730.0</ele><time>2026-04-11T10:37:16.965Z</time></trkpt><trkpt lat="42.0244957" lon="13.6541847"><ele>730.0</ele><time>2026-04-11T10:37:17.966Z</time></trkpt><trkpt lat="42.0245282" lon="13.6543432"><ele>730.0</ele><time>2026-04-11T10:37:18.966Z</time></trkpt><trkpt lat="42.0245515" lon="13.6545018"><ele>730.0</ele><time>2026-04-11T10:37:19.965Z</time></trkpt><trkpt lat="42.0245726" lon="13.6546507"><ele>730.0</ele><time>2026-04-11T10:37:20.966Z</time></trkpt><trkpt lat="42.0245977" lon="13.6547902"><ele>729.3333333333334</ele><time>2026-04-11T10:37:21.966Z</time></trkpt><trkpt lat="42.0246259" lon="13.6549162"><ele>728.6666666666667</ele><time>2026-04-11T10:37:22.966Z</time></trkpt><trkpt lat="42.0246612" lon="13.6550299"><ele>728.0</ele><time>2026-04-11T10:37:23.966Z</time></trkpt><trkpt lat="42.0247057" lon="13.6551239"><ele>727.3333333333334</ele><time>2026-04-11T10:37:24.966Z</time></trkpt><trkpt lat="42.0247582" lon="13.6552187"><ele>726.6666666666666</ele><time>2026-04-11T10:37:25.966Z</time></trkpt><trkpt lat="42.0248092" lon="13.6553138"><ele>726.0</ele><time>2026-04-11T10:37:26.966Z</time></trkpt><trkpt lat="42.024855" lon="13.655408"><ele>725.4</ele><time>2026-04-11T10:37:27.966Z</time></trkpt><trkpt lat="42.0248991" lon="13.6555028"><ele>724.8</ele><time>2026-04-11T10:37:28.966Z</time></trkpt><trkpt lat="42.0249483" lon="13.6556074"><ele>724.1999999999999</ele><time>2026-04-11T10:37:29.966Z</time></trkpt><trkpt lat="42.0250017" lon="13.6557174"><ele>723.5999999999999</ele><time>2026-04-11T10:37:30.966Z</time></trkpt><trkpt lat="42.0250585" lon="13.6558273"><ele>723.0</ele><time>2026-04-11T10:37:31.966Z</time></trkpt><trkpt lat="42.0251221" lon="13.6559346"><ele>724.2</ele><time>2026-04-11T10:37:32.965Z</time></trkpt><trkpt lat="42.0251804" lon="13.6560497"><ele>725.4</ele><time>2026-04-11T10:37:33.966Z</time></trkpt><trkpt lat="42.025232" lon="13.6561657"><ele>726.6</ele><time>2026-04-11T10:37:34.966Z</time></trkpt><trkpt lat="42.0252724" lon="13.6562762"><ele>727.8000000000001</ele><time>2026-04-11T10:37:35.966Z</time></trkpt><trkpt lat="42.0253089" lon="13.6563895"><ele>729.0</ele><time>2026-04-11T10:37:36.966Z</time></trkpt><trkpt lat="42.0253357" lon="13.6565032"><ele>729.0</ele><time>2026-04-11T10:37:37.966Z</time></trkpt><trkpt lat="42.0253533" lon="13.6566292"><ele>729.0</ele><time>2026-04-11T10:37:38.966Z</time></trkpt><trkpt lat="42.0253786" lon="13.6567534"><ele>729.0</ele><time>2026-04-11T10:37:39.966Z</time></trkpt><trkpt lat="42.0254059" lon="13.6568655"><ele>729.0</ele><time>2026-04-11T10:37:40.965Z</time></trkpt><trkpt lat="42.0254399" lon="13.6569692"><ele>729.0</ele><time>2026-04-11T10:37:41.966Z</time></trkpt><trkpt lat="42.025491" lon="13.6570667"><ele>729.8000000000001</ele><time>2026-04-11T10:37:42.966Z</time></trkpt><trkpt lat="42.0255522" lon="13.6571618"><ele>730.6</ele><time>2026-04-11T10:37:43.965Z</time></trkpt><trkpt lat="42.025636" lon="13.6572519"><ele>731.4</ele><time>2026-04-11T10:37:44.966Z</time></trkpt><trkpt lat="42.0257233" lon="13.6573318"><ele>732.2</ele><time>2026-04-11T10:37:45.966Z</time></trkpt><trkpt lat="42.0258106" lon="13.657416"><ele>733.0</ele><time>2026-04-11T10:37:46.966Z</time></trkpt><trkpt lat="42.0258961" lon="13.6575063"><ele>733.0</ele><time>2026-04-11T10:37:47.966Z</time></trkpt><trkpt lat="42.0259733" lon="13.6576094"><ele>733.0</ele><time>2026-04-11T10:37:48.966Z</time></trkpt><trkpt lat="42.0260472" lon="13.6577236"><ele>733.0</ele><time>2026-04-11T10:37:49.966Z</time></trkpt><trkpt lat="42.0261179" lon="13.6578354"><ele>733.0</ele><time>2026-04-11T10:37:50.966Z</time></trkpt><trkpt lat="42.026189" lon="13.6579433"><ele>733.0</ele><time>2026-04-11T10:37:51.965Z</time></trkpt><trkpt lat="42.0262527" lon="13.6580451"><ele>731.8</ele><time>2026-04-11T10:37:52.966Z</time></trkpt><trkpt lat="42.0263002" lon="13.6581515"><ele>730.5999999999999</ele><time>2026-04-11T10:37:53.966Z</time></trkpt><trkpt lat="42.0263403" lon="13.6582689"><ele>729.4000000000001</ele><time>2026-04-11T10:37:54.966Z</time></trkpt><trkpt lat="42.0263672" lon="13.6583902"><ele>728.2</ele><time>2026-04-11T10:37:55.966Z</time></trkpt><trkpt lat="42.0263723" lon="13.658517"><ele>727.0</ele><time>2026-04-11T10:37:56.966Z</time></trkpt><trkpt lat="42.0263587" lon="13.6586466"><ele>726.4000000000001</ele><time>2026-04-11T10:37:57.965Z</time></trkpt><trkpt lat="42.0263329" lon="13.6587639"><ele>725.8000000000001</ele><time>2026-04-11T10:37:58.966Z</time></trkpt><trkpt lat="42.0263019" lon="13.6589014"><ele>725.2</ele><time>2026-04-11T10:37:59.966Z</time></trkpt><trkpt lat="42.0262743" lon="13.6590336"><ele>724.6</ele><time>2026-04-11T10:38:00.966Z</time></trkpt><trkpt lat="42.0262737" lon="13.6591671"><ele>724.0</ele><time>2026-04-11T10:38:01.966Z</time></trkpt><trkpt lat="42.0262849" lon="13.6593045"><ele>724.0</ele><time>2026-04-11T10:38:02.966Z</time></trkpt><trkpt lat="42.0263063" lon="13.6594316"><ele>724.0</ele><time>2026-04-11T10:38:03.966Z</time></trkpt><trkpt lat="42.0263193" lon="13.6595621"><ele>724.0</ele><time>2026-04-11T10:38:04.966Z</time></trkpt><trkpt lat="42.0263048" lon="13.659676"><ele>724.0</ele><time>2026-04-11T10:38:05.966Z</time></trkpt><trkpt lat="42.0262837" lon="13.6597879"><ele>724.0</ele><time>2026-04-11T10:38:06.966Z</time></trkpt><trkpt lat="42.0262406" lon="13.6598863"><ele>724.6666666666667</ele><time>2026-04-11T10:38:07.966Z</time></trkpt><trkpt lat="42.026182" lon="13.6599668"><ele>725.3333333333334</ele><time>2026-04-11T10:38:08.966Z</time></trkpt><trkpt lat="42.026101" lon="13.6600175"><ele>726.0</ele><time>2026-04-11T10:38:09.966Z</time></trkpt><trkpt lat="42.0260163" lon="13.6600459"><ele>726.6666666666666</ele><time>2026-04-11T10:38:10.966Z</time></trkpt><trkpt lat="42.0259302" lon="13.6600445"><ele>727.3333333333333</ele><time>2026-04-11T10:38:11.966Z</time></trkpt><trkpt lat="42.0258452" lon="13.6600143"><ele>728.0</ele><time>2026-04-11T10:38:12.966Z</time></trkpt><trkpt lat="42.0257627" lon="13.6599703"><ele>728.6666666666666</ele><time>2026-04-11T10:38:13.966Z</time></trkpt><trkpt lat="42.0256821" lon="13.6599185"><ele>729.3333333333333</ele><time>2026-04-11T10:38:14.966Z</time></trkpt><trkpt lat="42.0255983" lon="13.6598709"><ele>730.0</ele><time>2026-04-11T10:38:15.966Z</time></trkpt><trkpt lat="42.0255345" lon="13.6598175"><ele>730.6666666666666</ele><time>2026-04-11T10:38:16.965Z</time></trkpt><trkpt lat="42.025486" lon="13.6597137"><ele>731.3333333333334</ele><time>2026-04-11T10:38:18.966Z</time></trkpt><trkpt lat="42.0254751" lon="13.6596075"><ele>732.0</ele><time>2026-04-11T10:38:20.966Z</time></trkpt><trkpt lat="42.02542" lon="13.6596758"><ele>732.0</ele><time>2026-04-11T10:38:23.966Z</time></trkpt><trkpt lat="42.0254339" lon="13.6597728"><ele>732.0</ele><time>2026-04-11T10:38:32.966Z</time></trkpt><trkpt lat="42.0255281" lon="13.6598628"><ele>732.0</ele><time>2026-04-11T10:38:34.966Z</time></trkpt><trkpt lat="42.0256389" lon="13.6599432"><ele>732.0</ele><time>2026-04-11T10:38:36.966Z</time></trkpt><trkpt lat="42.025696" lon="13.6599919"><ele>732.0</ele><time>2026-04-11T10:38:37.966Z</time></trkpt><trkpt lat="42.0257559" lon="13.660036"><ele>731.3333333333334</ele><time>2026-04-11T10:38:38.966Z</time></trkpt><trkpt lat="42.0258139" lon="13.6600764"><ele>730.6666666666666</ele><time>2026-04-11T10:38:39.965Z</time></trkpt><trkpt lat="42.025883" lon="13.6601059"><ele>730.0</ele><time>2026-04-11T10:38:40.965Z</time></trkpt><trkpt lat="42.0259737" lon="13.6601052"><ele>729.3333333333333</ele><time>2026-04-11T10:38:41.966Z</time></trkpt><trkpt lat="42.0260557" lon="13.6600834"><ele>728.6666666666666</ele><time>2026-04-11T10:38:42.966Z</time></trkpt><trkpt lat="42.0261289" lon="13.6600383"><ele>728.0</ele><time>2026-04-11T10:38:43.965Z</time></trkpt><trkpt lat="42.0261958" lon="13.6599846"><ele>728.0</ele><time>2026-04-11T10:38:44.966Z</time></trkpt><trkpt lat="42.026312" lon="13.6599577"><ele>728.0</ele><time>2026-04-11T10:38:46.966Z</time></trkpt><trkpt lat="42.0264147" lon="13.6600044"><ele>728.0</ele><time>2026-04-11T10:38:48.966Z</time></trkpt><trkpt lat="42.026498" lon="13.6601308"><ele>728.0</ele><time>2026-04-11T10:38:50.966Z</time></trkpt><trkpt lat="42.0265465" lon="13.6602084"><ele>728.0</ele><time>2026-04-11T10:38:51.966Z</time></trkpt><trkpt lat="42.0265952" lon="13.66029"><ele>728.2</ele><time>2026-04-11T10:38:52.966Z</time></trkpt><trkpt lat="42.0266389" lon="13.6603707"><ele>728.4</ele><time>2026-04-11T10:38:53.966Z</time></trkpt><trkpt lat="42.0266753" lon="13.6604404"><ele>728.6</ele><time>2026-04-11T10:38:54.966Z</time></trkpt><trkpt lat="42.0267497" lon="13.6605576"><ele>728.8000000000001</ele><time>2026-04-11T10:38:56.965Z</time></trkpt><trkpt lat="42.0268175" lon="13.6606626"><ele>729.0</ele><time>2026-04-11T10:38:58.966Z</time></trkpt><trkpt lat="42.0268755" lon="13.6607968"><ele>729.0</ele><time>2026-04-11T10:39:00.966Z</time></trkpt><trkpt lat="42.0269198" lon="13.660887"><ele>729.0</ele><time>2026-04-11T10:39:01.966Z</time></trkpt><trkpt lat="42.0269692" lon="13.6609824"><ele>729.0</ele><time>2026-04-11T10:39:02.966Z</time></trkpt><trkpt lat="42.027016" lon="13.6610864"><ele>729.0</ele><time>2026-04-11T10:39:03.966Z</time></trkpt><trkpt lat="42.0270636" lon="13.661181"><ele>729.0</ele><time>2026-04-11T10:39:04.966Z</time></trkpt><trkpt lat="42.027111" lon="13.6612764"><ele>729.0</ele><time>2026-04-11T10:39:05.966Z</time></trkpt><trkpt lat="42.0271628" lon="13.6613678"><ele>730.0</ele><time>2026-04-11T10:39:06.965Z</time></trkpt><trkpt lat="42.0272152" lon="13.6614653"><ele>731.0</ele><time>2026-04-11T10:39:07.966Z</time></trkpt><trkpt lat="42.0272753" lon="13.6615721"><ele>732.0</ele><time>2026-04-11T10:39:08.966Z</time></trkpt><trkpt lat="42.0273378" lon="13.6616874"><ele>733.0</ele><time>2026-04-11T10:39:09.966Z</time></trkpt><trkpt lat="42.0273997" lon="13.6617989"><ele>734.0</ele><time>2026-04-11T10:39:10.966Z</time></trkpt><trkpt lat="42.0274635" lon="13.6619165"><ele>733.75</ele><time>2026-04-11T10:39:11.966Z</time></trkpt><trkpt lat="42.0275301" lon="13.6620415"><ele>733.5</ele><time>2026-04-11T10:39:12.966Z</time></trkpt><trkpt lat="42.0276017" lon="13.6621741"><ele>733.25</ele><time>2026-04-11T10:39:13.966Z</time></trkpt><trkpt lat="42.0276741" lon="13.6623124"><ele>733.0</ele><time>2026-04-11T10:39:14.965Z</time></trkpt><trkpt lat="42.0277481" lon="13.6624521"><ele>733.0</ele><time>2026-04-11T10:39:15.966Z</time></trkpt><trkpt lat="42.0278202" lon="13.662599"><ele>733.0</ele><time>2026-04-11T10:39:16.966Z</time></trkpt><trkpt lat="42.0278964" lon="13.6627424"><ele>733.0</ele><time>2026-04-11T10:39:17.966Z</time></trkpt><trkpt lat="42.0279741" lon="13.6628912"><ele>733.0</ele><time>2026-04-11T10:39:18.966Z</time></trkpt><trkpt lat="42.0280544" lon="13.6630431"><ele>732.75</ele><time>2026-04-11T10:39:19.966Z</time></trkpt><trkpt lat="42.0281399" lon="13.663197"><ele>732.5</ele><time>2026-04-11T10:39:20.966Z</time></trkpt><trkpt lat="42.0282265" lon="13.6633486"><ele>732.25</ele><time>2026-04-11T10:39:21.965Z</time></trkpt><trkpt lat="42.028316" lon="13.6634942"><ele>732.0</ele><time>2026-04-11T10:39:22.966Z</time></trkpt><trkpt lat="42.0284147" lon="13.6636414"><ele>733.6666666666666</ele><time>2026-04-11T10:39:23.966Z</time></trkpt><trkpt lat="42.0285208" lon="13.6637893"><ele>735.3333333333333</ele><time>2026-04-11T10:39:24.966Z</time></trkpt><trkpt lat="42.0286325" lon="13.6639368"><ele>737.0</ele><time>2026-04-11T10:39:25.966Z</time></trkpt><trkpt lat="42.0287495" lon="13.6640775"><ele>737.0</ele><time>2026-04-11T10:39:26.965Z</time></trkpt><trkpt lat="42.0288614" lon="13.6642099"><ele>737.0</ele><time>2026-04-11T10:39:27.965Z</time></trkpt><trkpt lat="42.0289654" lon="13.6643216"><ele>737.0</ele><time>2026-04-11T10:39:28.966Z</time></trkpt><trkpt lat="42.02906" lon="13.6644301"><ele>737.0</ele><time>2026-04-11T10:39:29.966Z</time></trkpt><trkpt lat="42.0291493" lon="13.6645348"><ele>738.25</ele><time>2026-04-11T10:39:30.966Z</time></trkpt><trkpt lat="42.0292397" lon="13.6646403"><ele>739.5</ele><time>2026-04-11T10:39:31.965Z</time></trkpt><trkpt lat="42.0293207" lon="13.6647598"><ele>740.75</ele><time>2026-04-11T10:39:32.966Z</time></trkpt><trkpt lat="42.0293934" lon="13.6648853"><ele>742.0</ele><time>2026-04-11T10:39:33.965Z</time></trkpt><trkpt lat="42.029449" lon="13.665027"><ele>742.0</ele><time>2026-04-11T10:39:34.966Z</time></trkpt><trkpt lat="42.029498" lon="13.6651767"><ele>742.0</ele><time>2026-04-11T10:39:35.966Z</time></trkpt><trkpt lat="42.0295451" lon="13.6653262"><ele>742.0</ele><time>2026-04-11T10:39:36.965Z</time></trkpt><trkpt lat="42.0295872" lon="13.6654906"><ele>742.0</ele><time>2026-04-11T10:39:37.965Z</time></trkpt><trkpt lat="42.0296203" lon="13.6656642"><ele>745.5</ele><time>2026-04-11T10:39:38.966Z</time></trkpt><trkpt lat="42.0296463" lon="13.6658353"><ele>749.0</ele><time>2026-04-11T10:39:39.966Z</time></trkpt><trkpt lat="42.0296652" lon="13.6660083"><ele>752.5</ele><time>2026-04-11T10:39:40.966Z</time></trkpt><trkpt lat="42.0296806" lon="13.6661834"><ele>756.0</ele><time>2026-04-11T10:39:41.966Z</time></trkpt><trkpt lat="42.0296816" lon="13.6663629"><ele>756.25</ele><time>2026-04-11T10:39:42.966Z</time></trkpt><trkpt lat="42.0296696" lon="13.6665492"><ele>756.5</ele><time>2026-04-11T10:39:43.965Z</time></trkpt><trkpt lat="42.0296419" lon="13.6667282"><ele>756.75</ele><time>2026-04-11T10:39:44.966Z</time></trkpt><trkpt lat="42.0296096" lon="13.6669022"><ele>757.0</ele><time>2026-04-11T10:39:45.966Z</time></trkpt><trkpt lat="42.0295743" lon="13.6670776"><ele>757.0</ele><time>2026-04-11T10:39:46.965Z</time></trkpt><trkpt lat="42.0295489" lon="13.6672529"><ele>757.0</ele><time>2026-04-11T10:39:47.966Z</time></trkpt><trkpt lat="42.0295428" lon="13.6674169"><ele>757.0</ele><time>2026-04-11T10:39:48.966Z</time></trkpt><trkpt lat="42.0295735" lon="13.6675802"><ele>757.0</ele><time>2026-04-11T10:39:49.966Z</time></trkpt><trkpt lat="42.0296416" lon="13.6677344"><ele>760.25</ele><time>2026-04-11T10:39:50.966Z</time></trkpt><trkpt lat="42.0297228" lon="13.6678806"><ele>763.5</ele><time>2026-04-11T10:39:51.966Z</time></trkpt><trkpt lat="42.0298109" lon="13.6680224"><ele>766.75</ele><time>2026-04-11T10:39:52.966Z</time></trkpt><trkpt lat="42.0298926" lon="13.6681621"><ele>770.0</ele><time>2026-04-11T10:39:53.966Z</time></trkpt><trkpt lat="42.0299683" lon="13.6683099"><ele>766.75</ele><time>2026-04-11T10:39:54.966Z</time></trkpt><trkpt lat="42.0300343" lon="13.6684794"><ele>763.5</ele><time>2026-04-11T10:39:55.966Z</time></trkpt><trkpt lat="42.0300783" lon="13.6686591"><ele>760.25</ele><time>2026-04-11T10:39:56.966Z</time></trkpt><trkpt lat="42.0301084" lon="13.6688644"><ele>757.0</ele><time>2026-04-11T10:39:57.965Z</time></trkpt><trkpt lat="42.0301359" lon="13.6690805"><ele>757.0</ele><time>2026-04-11T10:39:58.966Z</time></trkpt><trkpt lat="42.0301662" lon="13.6693052"><ele>757.0</ele><time>2026-04-11T10:39:59.966Z</time></trkpt><trkpt lat="42.0301998" lon="13.6695394"><ele>757.0</ele><time>2026-04-11T10:40:00.966Z</time></trkpt><trkpt lat="42.0302326" lon="13.6697717"><ele>757.3333333333334</ele><time>2026-04-11T10:40:01.966Z</time></trkpt><trkpt lat="42.0302634" lon="13.670024"><ele>757.6666666666666</ele><time>2026-04-11T10:40:02.966Z</time></trkpt><trkpt lat="42.0302883" lon="13.6702785"><ele>758.0</ele><time>2026-04-11T10:40:03.966Z</time></trkpt><trkpt lat="42.0303196" lon="13.6705265"><ele>757.3333333333333</ele><time>2026-04-11T10:40:04.966Z</time></trkpt><trkpt lat="42.0303548" lon="13.6707655"><ele>756.6666666666666</ele><time>2026-04-11T10:40:05.965Z</time></trkpt><trkpt lat="42.030409" lon="13.6709929"><ele>756.0</ele><time>2026-04-11T10:40:06.966Z</time></trkpt><trkpt lat="42.0304886" lon="13.6712015"><ele>754.6666666666666</ele><time>2026-04-11T10:40:07.966Z</time></trkpt><trkpt lat="42.0305891" lon="13.6713902"><ele>753.3333333333333</ele><time>2026-04-11T10:40:08.966Z</time></trkpt><trkpt lat="42.0306858" lon="13.6715755"><ele>752.0</ele><time>2026-04-11T10:40:09.966Z</time></trkpt><trkpt lat="42.030786" lon="13.6717544"><ele>752.75</ele><time>2026-04-11T10:40:10.966Z</time></trkpt><trkpt lat="42.0308725" lon="13.6719246"><ele>753.5</ele><time>2026-04-11T10:40:11.966Z</time></trkpt><trkpt lat="42.0309516" lon="13.6720854"><ele>754.25</ele><time>2026-04-11T10:40:12.966Z</time></trkpt><trkpt lat="42.0309906" lon="13.672238"><ele>755.0</ele><time>2026-04-11T10:40:13.966Z</time></trkpt><trkpt lat="42.0309963" lon="13.6723856"><ele>754.75</ele><time>2026-04-11T10:40:14.966Z</time></trkpt><trkpt lat="42.0309825" lon="13.6725208"><ele>754.5</ele><time>2026-04-11T10:40:15.965Z</time></trkpt><trkpt lat="42.030918" lon="13.6726294"><ele>754.25</ele><time>2026-04-11T10:40:16.966Z</time></trkpt><trkpt lat="42.0307726" lon="13.6726857"><ele>754.0</ele><time>2026-04-11T10:40:17.966Z</time></trkpt><trkpt lat="42.030648" lon="13.6727629"><ele>754.5</ele><time>2026-04-11T10:40:18.966Z</time></trkpt><trkpt lat="42.0305333" lon="13.6728549"><ele>755.0</ele><time>2026-04-11T10:40:19.966Z</time></trkpt><trkpt lat="42.0304249" lon="13.6729433"><ele>755.5</ele><time>2026-04-11T10:40:20.966Z</time></trkpt><trkpt lat="42.0303384" lon="13.6730707"><ele>756.0</ele><time>2026-04-11T10:40:21.966Z</time></trkpt><trkpt lat="42.0302903" lon="13.6732339"><ele>756.0</ele><time>2026-04-11T10:40:22.966Z</time></trkpt><trkpt lat="42.0302688" lon="13.6734252"><ele>756.0</ele><time>2026-04-11T10:40:23.966Z</time></trkpt><trkpt lat="42.0302681" lon="13.6736305"><ele>756.0</ele><time>2026-04-11T10:40:24.966Z</time></trkpt><trkpt lat="42.0302649" lon="13.6738534"><ele>757.3333333333334</ele><time>2026-04-11T10:40:25.966Z</time></trkpt><trkpt lat="42.0302593" lon="13.6740965"><ele>758.6666666666667</ele><time>2026-04-11T10:40:26.965Z</time></trkpt><trkpt lat="42.0302566" lon="13.674352"><ele>760.0</ele><time>2026-04-11T10:40:27.965Z</time></trkpt><trkpt lat="42.0302578" lon="13.6746093"><ele>762.3333333333334</ele><time>2026-04-11T10:40:28.966Z</time></trkpt><trkpt lat="42.0302577" lon="13.6748605"><ele>764.6666666666666</ele><time>2026-04-11T10:40:29.966Z</time></trkpt><trkpt lat="42.030235" lon="13.675101"><ele>767.0</ele><time>2026-04-11T10:40:30.966Z</time></trkpt><trkpt lat="42.0301723" lon="13.6753331"><ele>764.3333333333333</ele><time>2026-04-11T10:40:31.966Z</time></trkpt><trkpt lat="42.0300831" lon="13.6755611"><ele>761.6666666666666</ele><time>2026-04-11T10:40:32.966Z</time></trkpt><trkpt lat="42.0299745" lon="13.6757837"><ele>759.0</ele><time>2026-04-11T10:40:33.965Z</time></trkpt><trkpt lat="42.029848" lon="13.6759731"><ele>762.0</ele><time>2026-04-11T10:40:34.965Z</time></trkpt><trkpt lat="42.029712" lon="13.6761547"><ele>765.0</ele><time>2026-04-11T10:40:35.966Z</time></trkpt><trkpt lat="42.0295858" lon="13.676344"><ele>768.0</ele><time>2026-04-11T10:40:36.966Z</time></trkpt><trkpt lat="42.0294804" lon="13.6765637"><ele>768.0</ele><time>2026-04-11T10:40:37.966Z</time></trkpt><trkpt lat="42.029406" lon="13.6768127"><ele>768.0</ele><time>2026-04-11T10:40:38.966Z</time></trkpt><trkpt lat="42.0292788" lon="13.6773536"><ele>768.3333333333333</ele><time>2026-04-11T10:40:40.966Z</time></trkpt><trkpt lat="42.029189" lon="13.6776263"><ele>768.6666666666666</ele><time>2026-04-11T10:40:41.966Z</time></trkpt><trkpt lat="42.0290822" lon="13.6778968"><ele>769.0</ele><time>2026-04-11T10:40:42.966Z</time></trkpt><trkpt lat="42.0289665" lon="13.6781627"><ele>769.0</ele><time>2026-04-11T10:40:43.966Z</time></trkpt><trkpt lat="42.0288505" lon="13.6784086"><ele>769.0</ele><time>2026-04-11T10:40:44.966Z</time></trkpt><trkpt lat="42.0287326" lon="13.6786223"><ele>769.0</ele><time>2026-04-11T10:40:45.966Z</time></trkpt><trkpt lat="42.0286264" lon="13.6788272"><ele>772.6666666666666</ele><time>2026-04-11T10:40:46.966Z</time></trkpt><trkpt lat="42.0285527" lon="13.6790444"><ele>776.3333333333333</ele><time>2026-04-11T10:40:47.966Z</time></trkpt><trkpt lat="42.0285146" lon="13.679275"><ele>780.0</ele><time>2026-04-11T10:40:48.966Z</time></trkpt><trkpt lat="42.0285028" lon="13.6795308"><ele>782.3333333333333</ele><time>2026-04-11T10:40:49.966Z</time></trkpt><trkpt lat="42.0284977" lon="13.6797842"><ele>784.6666666666666</ele><time>2026-04-11T10:40:50.966Z</time></trkpt><trkpt lat="42.0284921" lon="13.6800156"><ele>787.0</ele><time>2026-04-11T10:40:51.965Z</time></trkpt><trkpt lat="42.0284834" lon="13.6802172"><ele>789.75</ele><time>2026-04-11T10:40:52.966Z</time></trkpt><trkpt lat="42.0284556" lon="13.6804037"><ele>792.5</ele><time>2026-04-11T10:40:53.966Z</time></trkpt><trkpt lat="42.028395" lon="13.6805566"><ele>795.25</ele><time>2026-04-11T10:40:54.966Z</time></trkpt><trkpt lat="42.0282922" lon="13.6806705"><ele>798.0</ele><time>2026-04-11T10:40:55.966Z</time></trkpt><trkpt lat="42.0281695" lon="13.6807615"><ele>794.75</ele><time>2026-04-11T10:40:56.966Z</time></trkpt><trkpt lat="42.0280439" lon="13.6808685"><ele>791.5</ele><time>2026-04-11T10:40:57.966Z</time></trkpt><trkpt lat="42.0279356" lon="13.6810075"><ele>788.25</ele><time>2026-04-11T10:40:58.966Z</time></trkpt><trkpt lat="42.0278462" lon="13.6811622"><ele>785.0</ele><time>2026-04-11T10:40:59.966Z</time></trkpt><trkpt lat="42.0277678" lon="13.681353"><ele>785.0</ele><time>2026-04-11T10:41:00.965Z</time></trkpt><trkpt lat="42.0276887" lon="13.6815695"><ele>785.0</ele><time>2026-04-11T10:41:01.965Z</time></trkpt><trkpt lat="42.0276149" lon="13.6818006"><ele>785.0</ele><time>2026-04-11T10:41:02.966Z</time></trkpt><trkpt lat="42.0275388" lon="13.682034"><ele>783.0</ele><time>2026-04-11T10:41:03.966Z</time></trkpt><trkpt lat="42.0274791" lon="13.6822778"><ele>781.0</ele><time>2026-04-11T10:41:04.966Z</time></trkpt><trkpt lat="42.0274523" lon="13.6825358"><ele>779.0</ele><time>2026-04-11T10:41:05.966Z</time></trkpt><trkpt lat="42.0274481" lon="13.6828094"><ele>779.0</ele><time>2026-04-11T10:41:06.966Z</time></trkpt><trkpt lat="42.0274535" lon="13.6830783"><ele>779.0</ele><time>2026-04-11T10:41:07.966Z</time></trkpt><trkpt lat="42.027446" lon="13.6833415"><ele>779.0</ele><time>2026-04-11T10:41:08.966Z</time></trkpt><trkpt lat="42.0274036" lon="13.6835983"><ele>781.6666666666667</ele><time>2026-04-11T10:41:09.966Z</time></trkpt><trkpt lat="42.0273287" lon="13.6838416"><ele>784.3333333333333</ele><time>2026-04-11T10:41:10.966Z</time></trkpt><trkpt lat="42.0272347" lon="13.6840766"><ele>787.0</ele><time>2026-04-11T10:41:11.965Z</time></trkpt><trkpt lat="42.027142" lon="13.684304"><ele>789.3333333333333</ele><time>2026-04-11T10:41:12.966Z</time></trkpt><trkpt lat="42.0270651" lon="13.6845406"><ele>791.6666666666667</ele><time>2026-04-11T10:41:13.966Z</time></trkpt><trkpt lat="42.027021" lon="13.6847926"><ele>794.0</ele><time>2026-04-11T10:41:14.966Z</time></trkpt><trkpt lat="42.0270142" lon="13.685039"><ele>796.3333333333334</ele><time>2026-04-11T10:41:15.966Z</time></trkpt><trkpt lat="42.0270087" lon="13.6852791"><ele>798.6666666666667</ele><time>2026-04-11T10:41:16.966Z</time></trkpt><trkpt lat="42.026967" lon="13.6855139"><ele>801.0</ele><time>2026-04-11T10:41:17.965Z</time></trkpt><trkpt lat="42.0268881" lon="13.6857376"><ele>801.0</ele><time>2026-04-11T10:41:18.966Z</time></trkpt><trkpt lat="42.0267938" lon="13.6859517"><ele>801.0</ele><time>2026-04-11T10:41:19.966Z</time></trkpt><trkpt lat="42.0266984" lon="13.6861754"><ele>801.0</ele><time>2026-04-11T10:41:20.966Z</time></trkpt><trkpt lat="42.0266155" lon="13.6864127"><ele>795.0</ele><time>2026-04-11T10:41:21.966Z</time></trkpt><trkpt lat="42.026551" lon="13.6866641"><ele>789.0</ele><time>2026-04-11T10:41:22.966Z</time></trkpt><trkpt lat="42.0264955" lon="13.6869218"><ele>783.0</ele><time>2026-04-11T10:41:23.966Z</time></trkpt><trkpt lat="42.0264584" lon="13.6871815"><ele>783.0</ele><time>2026-04-11T10:41:24.966Z</time></trkpt><trkpt lat="42.0264458" lon="13.6874344"><ele>783.0</ele><time>2026-04-11T10:41:25.966Z</time></trkpt><trkpt lat="42.0264626" lon="13.6876826"><ele>783.0</ele><time>2026-04-11T10:41:26.966Z</time></trkpt><trkpt lat="42.0264972" lon="13.6879118"><ele>784.0</ele><time>2026-04-11T10:41:27.965Z</time></trkpt><trkpt lat="42.0265348" lon="13.6881131"><ele>785.0</ele><time>2026-04-11T10:41:28.966Z</time></trkpt><trkpt lat="42.0265618" lon="13.6883082"><ele>786.0</ele><time>2026-04-11T10:41:29.966Z</time></trkpt><trkpt lat="42.0265562" lon="13.6885055"><ele>787.0</ele><time>2026-04-11T10:41:30.966Z</time></trkpt><trkpt lat="42.0264998" lon="13.6886978"><ele>790.0</ele><time>2026-04-11T10:41:31.966Z</time></trkpt><trkpt lat="42.0264036" lon="13.6888719"><ele>793.0</ele><time>2026-04-11T10:41:32.965Z</time></trkpt><trkpt lat="42.0263046" lon="13.6890484"><ele>796.0</ele><time>2026-04-11T10:41:33.965Z</time></trkpt><trkpt lat="42.026219" lon="13.6892204"><ele>796.0</ele><time>2026-04-11T10:41:34.966Z</time></trkpt><trkpt lat="42.0261511" lon="13.6893937"><ele>796.0</ele><time>2026-04-11T10:41:35.966Z</time></trkpt><trkpt lat="42.0261193" lon="13.689591"><ele>796.0</ele><time>2026-04-11T10:41:36.966Z</time></trkpt><trkpt lat="42.0261084" lon="13.6898028"><ele>800.0</ele><time>2026-04-11T10:41:37.966Z</time></trkpt><trkpt lat="42.0260813" lon="13.6900241"><ele>804.0</ele><time>2026-04-11T10:41:38.966Z</time></trkpt><trkpt lat="42.0260185" lon="13.6902546"><ele>808.0</ele><time>2026-04-11T10:41:39.966Z</time></trkpt><trkpt lat="42.0259333" lon="13.6904781"><ele>810.0</ele><time>2026-04-11T10:41:40.966Z</time></trkpt><trkpt lat="42.0258344" lon="13.6906963"><ele>812.0</ele><time>2026-04-11T10:41:41.966Z</time></trkpt><trkpt lat="42.0257327" lon="13.6909043"><ele>814.0</ele><time>2026-04-11T10:41:42.966Z</time></trkpt><trkpt lat="42.0256302" lon="13.6910938"><ele>814.0</ele><time>2026-04-11T10:41:43.966Z</time></trkpt><trkpt lat="42.0255135" lon="13.6912464"><ele>814.0</ele><time>2026-04-11T10:41:44.965Z</time></trkpt><trkpt lat="42.0253976" lon="13.6913707"><ele>814.0</ele><time>2026-04-11T10:41:45.966Z</time></trkpt><trkpt lat="42.0252984" lon="13.691502"><ele>814.0</ele><time>2026-04-11T10:41:46.966Z</time></trkpt><trkpt lat="42.0252246" lon="13.6916596"><ele>814.0</ele><time>2026-04-11T10:41:47.965Z</time></trkpt><trkpt lat="42.0251853" lon="13.6918343"><ele>814.0</ele><time>2026-04-11T10:41:48.966Z</time></trkpt><trkpt lat="42.0251565" lon="13.6920142"><ele>814.0</ele><time>2026-04-11T10:41:49.966Z</time></trkpt><trkpt lat="42.0251219" lon="13.6921865"><ele>815.0</ele><time>2026-04-11T10:41:50.966Z</time></trkpt><trkpt lat="42.025058" lon="13.6923228"><ele>816.0</ele><time>2026-04-11T10:41:51.966Z</time></trkpt><trkpt lat="42.0249635" lon="13.6924155"><ele>817.0</ele><time>2026-04-11T10:41:52.966Z</time></trkpt><trkpt lat="42.0248626" lon="13.692478"><ele>818.0</ele><time>2026-04-11T10:41:53.966Z</time></trkpt><trkpt lat="42.0247638" lon="13.692531"><ele>818.0</ele><time>2026-04-11T10:41:54.966Z</time></trkpt><trkpt lat="42.0246689" lon="13.6925836"><ele>818.0</ele><time>2026-04-11T10:41:55.966Z</time></trkpt><trkpt lat="42.0245739" lon="13.6926433"><ele>818.0</ele><time>2026-04-11T10:41:56.966Z</time></trkpt><trkpt lat="42.02448" lon="13.6927231"><ele>818.0</ele><time>2026-04-11T10:41:57.966Z</time></trkpt><trkpt lat="42.024386" lon="13.6928354"><ele>818.0</ele><time>2026-04-11T10:41:58.966Z</time></trkpt><trkpt lat="42.0242956" lon="13.6929711"><ele>817.5999999999999</ele><time>2026-04-11T10:41:59.965Z</time></trkpt><trkpt lat="42.0242204" lon="13.6930973"><ele>817.1999999999999</ele><time>2026-04-11T10:42:00.966Z</time></trkpt><trkpt lat="42.0241491" lon="13.6932105"><ele>816.8</ele><time>2026-04-11T10:42:01.966Z</time></trkpt><trkpt lat="42.0240831" lon="13.6933128"><ele>816.4</ele><time>2026-04-11T10:42:02.966Z</time></trkpt><trkpt lat="42.0240169" lon="13.6934161"><ele>816.0</ele><time>2026-04-11T10:42:03.965Z</time></trkpt><trkpt lat="42.023944" lon="13.6935394"><ele>819.5</ele><time>2026-04-11T10:42:04.966Z</time></trkpt><trkpt lat="42.0238682" lon="13.6936734"><ele>823.0</ele><time>2026-04-11T10:42:05.966Z</time></trkpt><trkpt lat="42.023778" lon="13.6938059"><ele>826.5</ele><time>2026-04-11T10:42:06.966Z</time></trkpt><trkpt lat="42.0236819" lon="13.6939378"><ele>830.0</ele><time>2026-04-11T10:42:07.966Z</time></trkpt><trkpt lat="42.0235914" lon="13.6940786"><ele>830.0</ele><time>2026-04-11T10:42:08.966Z</time></trkpt><trkpt lat="42.0235131" lon="13.6942312"><ele>830.0</ele><time>2026-04-11T10:42:09.966Z</time></trkpt><trkpt lat="42.0234716" lon="13.6943953"><ele>830.0</ele><time>2026-04-11T10:42:10.966Z</time></trkpt><trkpt lat="42.0234745" lon="13.6945692"><ele>830.0</ele><time>2026-04-11T10:42:11.966Z</time></trkpt><trkpt lat="42.0234904" lon="13.6947402"><ele>830.5</ele><time>2026-04-11T10:42:12.966Z</time></trkpt><trkpt lat="42.0234884" lon="13.694917"><ele>831.0</ele><time>2026-04-11T10:42:13.966Z</time></trkpt><trkpt lat="42.0234526" lon="13.695086"><ele>831.5</ele><time>2026-04-11T10:42:14.966Z</time></trkpt><trkpt lat="42.0233762" lon="13.6952328"><ele>832.0</ele><time>2026-04-11T10:42:15.965Z</time></trkpt><trkpt lat="42.0232738" lon="13.6953566"><ele>832.0</ele><time>2026-04-11T10:42:16.966Z</time></trkpt><trkpt lat="42.023163" lon="13.6954755"><ele>832.0</ele><time>2026-04-11T10:42:17.965Z</time></trkpt><trkpt lat="42.0230545" lon="13.6955949"><ele>832.0</ele><time>2026-04-11T10:42:18.966Z</time></trkpt><trkpt lat="42.0229505" lon="13.6957149"><ele>832.0</ele><time>2026-04-11T10:42:19.965Z</time></trkpt><trkpt lat="42.0228544" lon="13.695843"><ele>832.0</ele><time>2026-04-11T10:42:20.966Z</time></trkpt><trkpt lat="42.0227773" lon="13.6959761"><ele>832.0</ele><time>2026-04-11T10:42:21.965Z</time></trkpt><trkpt lat="42.0227074" lon="13.6961032"><ele>832.0</ele><time>2026-04-11T10:42:22.966Z</time></trkpt><trkpt lat="42.0226401" lon="13.696225"><ele>832.0</ele><time>2026-04-11T10:42:23.966Z</time></trkpt><trkpt lat="42.0225734" lon="13.6963548"><ele>829.25</ele><time>2026-04-11T10:42:24.966Z</time></trkpt><trkpt lat="42.0225038" lon="13.6964826"><ele>826.5</ele><time>2026-04-11T10:42:25.966Z</time></trkpt><trkpt lat="42.022429" lon="13.6966199"><ele>823.75</ele><time>2026-04-11T10:42:26.966Z</time></trkpt><trkpt lat="42.0223547" lon="13.6967595"><ele>821.0</ele><time>2026-04-11T10:42:27.966Z</time></trkpt><trkpt lat="42.0222801" lon="13.6969057"><ele>824.25</ele><time>2026-04-11T10:42:28.966Z</time></trkpt><trkpt lat="42.0222206" lon="13.6970499"><ele>827.5</ele><time>2026-04-11T10:42:29.966Z</time></trkpt><trkpt lat="42.0221777" lon="13.6972087"><ele>830.75</ele><time>2026-04-11T10:42:30.966Z</time></trkpt><trkpt lat="42.0221552" lon="13.6973704"><ele>834.0</ele><time>2026-04-11T10:42:31.966Z</time></trkpt><trkpt lat="42.0221416" lon="13.6975338"><ele>834.0</ele><time>2026-04-11T10:42:32.966Z</time></trkpt><trkpt lat="42.0221356" lon="13.6977069"><ele>834.0</ele><time>2026-04-11T10:42:33.966Z</time></trkpt><trkpt lat="42.0221211" lon="13.6978779"><ele>834.0</ele><time>2026-04-11T10:42:34.965Z</time></trkpt><trkpt lat="42.0220877" lon="13.6980414"><ele>834.0</ele><time>2026-04-11T10:42:35.966Z</time></trkpt><trkpt lat="42.0220269" lon="13.6982032"><ele>837.25</ele><time>2026-04-11T10:42:36.966Z</time></trkpt><trkpt lat="42.0219539" lon="13.6983609"><ele>840.5</ele><time>2026-04-11T10:42:37.966Z</time></trkpt><trkpt lat="42.0218753" lon="13.6985217"><ele>843.75</ele><time>2026-04-11T10:42:38.966Z</time></trkpt><trkpt lat="42.0217934" lon="13.6986898"><ele>847.0</ele><time>2026-04-11T10:42:39.966Z</time></trkpt><trkpt lat="42.0217109" lon="13.6988638"><ele>843.0</ele><time>2026-04-11T10:42:40.966Z</time></trkpt><trkpt lat="42.0216217" lon="13.6990346"><ele>839.0</ele><time>2026-04-11T10:42:41.966Z</time></trkpt><trkpt lat="42.0215356" lon="13.6992006"><ele>835.0</ele><time>2026-04-11T10:42:42.966Z</time></trkpt><trkpt lat="42.0214524" lon="13.6993625"><ele>838.0</ele><time>2026-04-11T10:42:43.966Z</time></trkpt><trkpt lat="42.0213786" lon="13.6995128"><ele>841.0</ele><time>2026-04-11T10:42:44.966Z</time></trkpt><trkpt lat="42.0213036" lon="13.6996533"><ele>844.0</ele><time>2026-04-11T10:42:45.966Z</time></trkpt><trkpt lat="42.0212285" lon="13.699799"><ele>847.0</ele><time>2026-04-11T10:42:46.966Z</time></trkpt><trkpt lat="42.0211604" lon="13.6999666"><ele>847.0</ele><time>2026-04-11T10:42:47.966Z</time></trkpt><trkpt lat="42.0211037" lon="13.7001543"><ele>847.0</ele><time>2026-04-11T10:42:48.966Z</time></trkpt><trkpt lat="42.0210606" lon="13.7003655"><ele>847.0</ele><time>2026-04-11T10:42:49.966Z</time></trkpt><trkpt lat="42.021025" lon="13.7005966"><ele>850.3333333333333</ele><time>2026-04-11T10:42:50.966Z</time></trkpt><trkpt lat="42.0209882" lon="13.7008379"><ele>853.6666666666667</ele><time>2026-04-11T10:42:51.965Z</time></trkpt><trkpt lat="42.0209508" lon="13.7010869"><ele>857.0</ele><time>2026-04-11T10:42:52.966Z</time></trkpt><trkpt lat="42.0209154" lon="13.7013355"><ele>858.3333333333334</ele><time>2026-04-11T10:42:53.966Z</time></trkpt><trkpt lat="42.0208809" lon="13.7015838"><ele>859.6666666666667</ele><time>2026-04-11T10:42:54.966Z</time></trkpt><trkpt lat="42.0208406" lon="13.7018343"><ele>861.0</ele><time>2026-04-11T10:42:55.966Z</time></trkpt><trkpt lat="42.0207994" lon="13.7020865"><ele>856.6666666666667</ele><time>2026-04-11T10:42:56.966Z</time></trkpt><trkpt lat="42.020762" lon="13.7023376"><ele>852.3333333333334</ele><time>2026-04-11T10:42:57.966Z</time></trkpt><trkpt lat="42.0207288" lon="13.7025905"><ele>848.0</ele><time>2026-04-11T10:42:58.965Z</time></trkpt><trkpt lat="42.0207084" lon="13.7028451"><ele>848.0</ele><time>2026-04-11T10:42:59.966Z</time></trkpt><trkpt lat="42.0206976" lon="13.7031081"><ele>848.0</ele><time>2026-04-11T10:43:00.966Z</time></trkpt><trkpt lat="42.0207009" lon="13.7033694"><ele>848.0</ele><time>2026-04-11T10:43:01.966Z</time></trkpt><trkpt lat="42.0207082" lon="13.7036216"><ele>850.0</ele><time>2026-04-11T10:43:02.966Z</time></trkpt><trkpt lat="42.0207071" lon="13.7038667"><ele>852.0</ele><time>2026-04-11T10:43:03.966Z</time></trkpt><trkpt lat="42.0206834" lon="13.704097"><ele>854.0</ele><time>2026-04-11T10:43:04.966Z</time></trkpt><trkpt lat="42.0206279" lon="13.7043226"><ele>855.0</ele><time>2026-04-11T10:43:05.965Z</time></trkpt><trkpt lat="42.0205587" lon="13.7045337"><ele>856.0</ele><time>2026-04-11T10:43:06.966Z</time></trkpt><trkpt lat="42.0204796" lon="13.7047469"><ele>857.0</ele><time>2026-04-11T10:43:07.966Z</time></trkpt><trkpt lat="42.0204017" lon="13.7049608"><ele>857.0</ele><time>2026-04-11T10:43:08.966Z</time></trkpt><trkpt lat="42.0203238" lon="13.7051777"><ele>857.0</ele><time>2026-04-11T10:43:09.965Z</time></trkpt><trkpt lat="42.0202384" lon="13.7053973"><ele>857.0</ele><time>2026-04-11T10:43:10.966Z</time></trkpt><trkpt lat="42.0201572" lon="13.7056185"><ele>858.3333333333334</ele><time>2026-04-11T10:43:11.966Z</time></trkpt><trkpt lat="42.0200799" lon="13.705833"><ele>859.6666666666667</ele><time>2026-04-11T10:43:12.966Z</time></trkpt><trkpt lat="42.0200058" lon="13.7060376"><ele>861.0</ele><time>2026-04-11T10:43:13.965Z</time></trkpt><trkpt lat="42.0199217" lon="13.7062271"><ele>861.0</ele><time>2026-04-11T10:43:14.966Z</time></trkpt><trkpt lat="42.0198208" lon="13.7064003"><ele>861.0</ele><time>2026-04-11T10:43:15.966Z</time></trkpt><trkpt lat="42.0197044" lon="13.7065587"><ele>861.0</ele><time>2026-04-11T10:43:16.965Z</time></trkpt><trkpt lat="42.0195733" lon="13.7067151"><ele>861.0</ele><time>2026-04-11T10:43:17.965Z</time></trkpt><trkpt lat="42.0194344" lon="13.706868"><ele>861.0</ele><time>2026-04-11T10:43:18.966Z</time></trkpt><trkpt lat="42.0192912" lon="13.7070152"><ele>861.0</ele><time>2026-04-11T10:43:19.966Z</time></trkpt><trkpt lat="42.0191664" lon="13.707203"><ele>858.3333333333333</ele><time>2026-04-11T10:43:20.966Z</time></trkpt><trkpt lat="42.019046" lon="13.7074049"><ele>855.6666666666666</ele><time>2026-04-11T10:43:21.966Z</time></trkpt><trkpt lat="42.0189281" lon="13.7076248"><ele>853.0</ele><time>2026-04-11T10:43:22.966Z</time></trkpt><trkpt lat="42.0188255" lon="13.7078498"><ele>852.3333333333333</ele><time>2026-04-11T10:43:23.966Z</time></trkpt><trkpt lat="42.0187259" lon="13.7080722"><ele>851.6666666666667</ele><time>2026-04-11T10:43:24.966Z</time></trkpt><trkpt lat="42.0186295" lon="13.7082939"><ele>851.0</ele><time>2026-04-11T10:43:25.966Z</time></trkpt><trkpt lat="42.0185467" lon="13.7085161"><ele>851.3333333333334</ele><time>2026-04-11T10:43:26.966Z</time></trkpt><trkpt lat="42.0184759" lon="13.7087292"><ele>851.6666666666667</ele><time>2026-04-11T10:43:27.966Z</time></trkpt><trkpt lat="42.0184159" lon="13.708953"><ele>852.0</ele><time>2026-04-11T10:43:28.966Z</time></trkpt><trkpt lat="42.0183664" lon="13.7091767"><ele>852.0</ele><time>2026-04-11T10:43:29.966Z</time></trkpt><trkpt lat="42.018332" lon="13.7093995"><ele>852.0</ele><time>2026-04-11T10:43:30.966Z</time></trkpt><trkpt lat="42.0183044" lon="13.7096236"><ele>852.0</ele><time>2026-04-11T10:43:31.966Z</time></trkpt><trkpt lat="42.0182895" lon="13.7098479"><ele>847.3333333333333</ele><time>2026-04-11T10:43:32.966Z</time></trkpt><trkpt lat="42.0182794" lon="13.7100682"><ele>842.6666666666666</ele><time>2026-04-11T10:43:33.966Z</time></trkpt><trkpt lat="42.0182697" lon="13.7102744"><ele>838.0</ele><time>2026-04-11T10:43:34.966Z</time></trkpt><trkpt lat="42.018262" lon="13.7104771"><ele>837.75</ele><time>2026-04-11T10:43:35.966Z</time></trkpt><trkpt lat="42.0182634" lon="13.710664"><ele>837.5</ele><time>2026-04-11T10:43:36.966Z</time></trkpt><trkpt lat="42.0182855" lon="13.7108361"><ele>837.25</ele><time>2026-04-11T10:43:37.966Z</time></trkpt><trkpt lat="42.0183407" lon="13.7109959"><ele>837.0</ele><time>2026-04-11T10:43:38.966Z</time></trkpt><trkpt lat="42.0184266" lon="13.7111376"><ele>839.0</ele><time>2026-04-11T10:43:39.966Z</time></trkpt><trkpt lat="42.0185335" lon="13.711255"><ele>841.0</ele><time>2026-04-11T10:43:40.966Z</time></trkpt><trkpt lat="42.0186409" lon="13.7113593"><ele>843.0</ele><time>2026-04-11T10:43:41.966Z</time></trkpt><trkpt lat="42.0187527" lon="13.7114611"><ele>845.0</ele><time>2026-04-11T10:43:42.966Z</time></trkpt><trkpt lat="42.0188478" lon="13.7115589"><ele>845.0</ele><time>2026-04-11T10:43:43.966Z</time></trkpt><trkpt lat="42.0189243" lon="13.7116632"><ele>845.0</ele><time>2026-04-11T10:43:44.966Z</time></trkpt><trkpt lat="42.0189722" lon="13.7117883"><ele>845.0</ele><time>2026-04-11T10:43:45.966Z</time></trkpt><trkpt lat="42.0189801" lon="13.7119236"><ele>845.0</ele><time>2026-04-11T10:43:46.966Z</time></trkpt><trkpt lat="42.0189485" lon="13.7120743"><ele>845.0</ele><time>2026-04-11T10:43:47.965Z</time></trkpt><trkpt lat="42.0188944" lon="13.7122328"><ele>845.0</ele><time>2026-04-11T10:43:48.966Z</time></trkpt><trkpt lat="42.0188284" lon="13.7124118"><ele>845.0</ele><time>2026-04-11T10:43:49.966Z</time></trkpt><trkpt lat="42.0187572" lon="13.7126154"><ele>845.0</ele><time>2026-04-11T10:43:50.966Z</time></trkpt><trkpt lat="42.018694" lon="13.7128383"><ele>845.3333333333334</ele><time>2026-04-11T10:43:51.966Z</time></trkpt><trkpt lat="42.0186379" lon="13.7130844"><ele>845.6666666666667</ele><time>2026-04-11T10:43:52.966Z</time></trkpt><trkpt lat="42.0185877" lon="13.7133445"><ele>846.0</ele><time>2026-04-11T10:43:53.966Z</time></trkpt><trkpt lat="42.0185304" lon="13.7136139"><ele>845.0</ele><time>2026-04-11T10:43:54.966Z</time></trkpt><trkpt lat="42.0184702" lon="13.7138933"><ele>844.0</ele><time>2026-04-11T10:43:55.966Z</time></trkpt><trkpt lat="42.0184074" lon="13.7141848"><ele>843.0</ele><time>2026-04-11T10:43:56.966Z</time></trkpt><trkpt lat="42.0183493" lon="13.7144865"><ele>841.5</ele><time>2026-04-11T10:43:57.966Z</time></trkpt><trkpt lat="42.0182902" lon="13.7147934"><ele>840.0</ele><time>2026-04-11T10:43:58.966Z</time></trkpt><trkpt lat="42.0182298" lon="13.715107"><ele>840.5</ele><time>2026-04-11T10:43:59.966Z</time></trkpt><trkpt lat="42.0181706" lon="13.7154191"><ele>841.0</ele><time>2026-04-11T10:44:00.966Z</time></trkpt><trkpt lat="42.0181093" lon="13.7157328"><ele>841.0</ele><time>2026-04-11T10:44:01.966Z</time></trkpt><trkpt lat="42.0180504" lon="13.7160337"><ele>841.0</ele><time>2026-04-11T10:44:02.966Z</time></trkpt><trkpt lat="42.0179939" lon="13.7163181"><ele>842.3333333333333</ele><time>2026-04-11T10:44:03.966Z</time></trkpt><trkpt lat="42.0179414" lon="13.71659"><ele>843.6666666666667</ele><time>2026-04-11T10:44:04.966Z</time></trkpt><trkpt lat="42.0178879" lon="13.7168445"><ele>845.0</ele><time>2026-04-11T10:44:05.965Z</time></trkpt><trkpt lat="42.0178397" lon="13.7170877"><ele>846.6666666666667</ele><time>2026-04-11T10:44:06.966Z</time></trkpt><trkpt lat="42.0177938" lon="13.7173132"><ele>848.3333333333333</ele><time>2026-04-11T10:44:07.966Z</time></trkpt><trkpt lat="42.0177564" lon="13.7175044"><ele>850.0</ele><time>2026-04-11T10:44:08.966Z</time></trkpt><trkpt lat="42.0177189" lon="13.7176858"><ele>851.3333333333333</ele><time>2026-04-11T10:44:09.966Z</time></trkpt><trkpt lat="42.0176773" lon="13.7178794"><ele>852.6666666666667</ele><time>2026-04-11T10:44:10.966Z</time></trkpt><trkpt lat="42.0176412" lon="13.7180802"><ele>854.0</ele><time>2026-04-11T10:44:11.966Z</time></trkpt><trkpt lat="42.0176223" lon="13.7182907"><ele>854.0</ele><time>2026-04-11T10:44:12.966Z</time></trkpt><trkpt lat="42.0176183" lon="13.7184959"><ele>854.0</ele><time>2026-04-11T10:44:13.966Z</time></trkpt><trkpt lat="42.0175984" lon="13.7188965"><ele>854.3333333333334</ele><time>2026-04-11T10:44:15.966Z</time></trkpt><trkpt lat="42.0175602" lon="13.71909"><ele>854.6666666666667</ele><time>2026-04-11T10:44:16.966Z</time></trkpt><trkpt lat="42.0174789" lon="13.7192682"><ele>855.0</ele><time>2026-04-11T10:44:17.965Z</time></trkpt><trkpt lat="42.0173681" lon="13.7194097"><ele>857.0</ele><time>2026-04-11T10:44:18.966Z</time></trkpt><trkpt lat="42.0172448" lon="13.7195216"><ele>859.0</ele><time>2026-04-11T10:44:19.966Z</time></trkpt><trkpt lat="42.0171214" lon="13.7196334"><ele>861.0</ele><time>2026-04-11T10:44:20.966Z</time></trkpt><trkpt lat="42.0170136" lon="13.7197641"><ele>863.0</ele><time>2026-04-11T10:44:21.966Z</time></trkpt><trkpt lat="42.0168865" lon="13.720119"><ele>864.6666666666667</ele><time>2026-04-11T10:44:23.965Z</time></trkpt><trkpt lat="42.0168572" lon="13.7203153"><ele>866.3333333333333</ele><time>2026-04-11T10:44:24.966Z</time></trkpt><trkpt lat="42.0168283" lon="13.7205233"><ele>868.0</ele><time>2026-04-11T10:44:25.966Z</time></trkpt><trkpt lat="42.0167958" lon="13.7207316"><ele>868.0</ele><time>2026-04-11T10:44:26.966Z</time></trkpt><trkpt lat="42.0167616" lon="13.7209404"><ele>868.0</ele><time>2026-04-11T10:44:27.966Z</time></trkpt><trkpt lat="42.0167201" lon="13.721147"><ele>868.0</ele><time>2026-04-11T10:44:28.966Z</time></trkpt><trkpt lat="42.0166515" lon="13.7213541"><ele>868.3333333333333</ele><time>2026-04-11T10:44:29.966Z</time></trkpt><trkpt lat="42.0165595" lon="13.7215416"><ele>868.6666666666667</ele><time>2026-04-11T10:44:30.966Z</time></trkpt><trkpt lat="42.0164447" lon="13.7217055"><ele>869.0</ele><time>2026-04-11T10:44:31.966Z</time></trkpt><trkpt lat="42.016302" lon="13.7218506"><ele>871.3333333333334</ele><time>2026-04-11T10:44:32.966Z</time></trkpt><trkpt lat="42.0161413" lon="13.7219776"><ele>873.6666666666667</ele><time>2026-04-11T10:44:33.965Z</time></trkpt><trkpt lat="42.0159757" lon="13.722093"><ele>876.0</ele><time>2026-04-11T10:44:34.966Z</time></trkpt><trkpt lat="42.0158081" lon="13.7221902"><ele>876.3333333333333</ele><time>2026-04-11T10:44:35.966Z</time></trkpt><trkpt lat="42.0156314" lon="13.72225"><ele>876.6666666666666</ele><time>2026-04-11T10:44:36.966Z</time></trkpt><trkpt lat="42.0154496" lon="13.722264"><ele>877.0</ele><time>2026-04-11T10:44:37.966Z</time></trkpt><trkpt lat="42.0152748" lon="13.7222548"><ele>877.0</ele><time>2026-04-11T10:44:38.966Z</time></trkpt><trkpt lat="42.0150956" lon="13.7222482"><ele>877.0</ele><time>2026-04-11T10:44:39.966Z</time></trkpt><trkpt lat="42.0149251" lon="13.7222676"><ele>877.0</ele><time>2026-04-11T10:44:40.966Z</time></trkpt><trkpt lat="42.0147685" lon="13.7223309"><ele>877.6666666666666</ele><time>2026-04-11T10:44:41.966Z</time></trkpt><trkpt lat="42.0146299" lon="13.7224391"><ele>878.3333333333333</ele><time>2026-04-11T10:44:42.966Z</time></trkpt><trkpt lat="42.014507" lon="13.7225821"><ele>879.0</ele><time>2026-04-11T10:44:43.966Z</time></trkpt><trkpt lat="42.014383" lon="13.7227221"><ele>880.75</ele><time>2026-04-11T10:44:44.966Z</time></trkpt><trkpt lat="42.0142664" lon="13.7228317"><ele>882.5</ele><time>2026-04-11T10:44:45.966Z</time></trkpt><trkpt lat="42.0141406" lon="13.7228965"><ele>884.25</ele><time>2026-04-11T10:44:46.966Z</time></trkpt><trkpt lat="42.0140084" lon="13.722907"><ele>886.0</ele><time>2026-04-11T10:44:47.966Z</time></trkpt><trkpt lat="42.0138754" lon="13.7228663"><ele>886.0</ele><time>2026-04-11T10:44:48.965Z</time></trkpt><trkpt lat="42.0137384" lon="13.7228061"><ele>886.0</ele><time>2026-04-11T10:44:49.966Z</time></trkpt><trkpt lat="42.0135958" lon="13.7227482"><ele>886.0</ele><time>2026-04-11T10:44:50.966Z</time></trkpt><trkpt lat="42.0134589" lon="13.7226985"><ele>886.0</ele><time>2026-04-11T10:44:51.966Z</time></trkpt><trkpt lat="42.0133217" lon="13.7226963"><ele>887.25</ele><time>2026-04-11T10:44:52.966Z</time></trkpt><trkpt lat="42.0131891" lon="13.7227579"><ele>888.5</ele><time>2026-04-11T10:44:53.966Z</time></trkpt><trkpt lat="42.0130653" lon="13.7228684"><ele>889.75</ele><time>2026-04-11T10:44:54.965Z</time></trkpt><trkpt lat="42.0129448" lon="13.7230022"><ele>891.0</ele><time>2026-04-11T10:44:55.965Z</time></trkpt><trkpt lat="42.0128185" lon="13.7231476"><ele>891.0</ele><time>2026-04-11T10:44:56.966Z</time></trkpt><trkpt lat="42.0126864" lon="13.7232953"><ele>891.0</ele><time>2026-04-11T10:44:57.966Z</time></trkpt><trkpt lat="42.0125551" lon="13.7234496"><ele>891.0</ele><time>2026-04-11T10:44:58.965Z</time></trkpt><trkpt lat="42.0124379" lon="13.7235839"><ele>893.25</ele><time>2026-04-11T10:44:59.966Z</time></trkpt><trkpt lat="42.0123244" lon="13.7236773"><ele>895.5</ele><time>2026-04-11T10:45:00.966Z</time></trkpt><trkpt lat="42.012206" lon="13.7237171"><ele>897.75</ele><time>2026-04-11T10:45:01.966Z</time></trkpt><trkpt lat="42.0120883" lon="13.7236894"><ele>900.0</ele><time>2026-04-11T10:45:02.966Z</time></trkpt><trkpt lat="42.0119839" lon="13.7236161"><ele>899.0</ele><time>2026-04-11T10:45:03.966Z</time></trkpt><trkpt lat="42.0118902" lon="13.7235105"><ele>898.0</ele><time>2026-04-11T10:45:04.966Z</time></trkpt><trkpt lat="42.0117998" lon="13.7233934"><ele>897.0</ele><time>2026-04-11T10:45:05.966Z</time></trkpt><trkpt lat="42.0117127" lon="13.7232777"><ele>896.0</ele><time>2026-04-11T10:45:06.966Z</time></trkpt><trkpt lat="42.0116201" lon="13.7231634"><ele>898.0</ele><time>2026-04-11T10:45:07.966Z</time></trkpt><trkpt lat="42.0115295" lon="13.72306"><ele>900.0</ele><time>2026-04-11T10:45:08.965Z</time></trkpt><trkpt lat="42.0114131" lon="13.7229828"><ele>902.0</ele><time>2026-04-11T10:45:09.966Z</time></trkpt><trkpt lat="42.0112845" lon="13.7229333"><ele>904.0</ele><time>2026-04-11T10:45:10.965Z</time></trkpt><trkpt lat="42.0111503" lon="13.7229034"><ele>904.0</ele><time>2026-04-11T10:45:11.966Z</time></trkpt><trkpt lat="42.0110222" lon="13.7228781"><ele>904.0</ele><time>2026-04-11T10:45:12.966Z</time></trkpt><trkpt lat="42.0109034" lon="13.7228504"><ele>904.0</ele><time>2026-04-11T10:45:13.965Z</time></trkpt><trkpt lat="42.0107904" lon="13.7228476"><ele>904.0</ele><time>2026-04-11T10:45:14.966Z</time></trkpt><trkpt lat="42.0106832" lon="13.7228867"><ele>903.75</ele><time>2026-04-11T10:45:15.966Z</time></trkpt><trkpt lat="42.0105975" lon="13.7229727"><ele>903.5</ele><time>2026-04-11T10:45:16.966Z</time></trkpt><trkpt lat="42.0105275" lon="13.7231044"><ele>903.25</ele><time>2026-04-11T10:45:17.966Z</time></trkpt><trkpt lat="42.0104683" lon="13.7232643"><ele>903.0</ele><time>2026-04-11T10:45:18.966Z</time></trkpt><trkpt lat="42.010365" lon="13.7236199"><ele>903.0</ele><time>2026-04-11T10:45:20.966Z</time></trkpt><trkpt lat="42.0103324" lon="13.7238118"><ele>903.0</ele><time>2026-04-11T10:45:21.965Z</time></trkpt><trkpt lat="42.0103308" lon="13.7240181"><ele>903.0</ele><time>2026-04-11T10:45:22.966Z</time></trkpt><trkpt lat="42.0103442" lon="13.7242266"><ele>906.5</ele><time>2026-04-11T10:45:23.966Z</time></trkpt><trkpt lat="42.0103855" lon="13.7246526"><ele>910.0</ele><time>2026-04-11T10:45:25.966Z</time></trkpt><trkpt lat="42.010415" lon="13.7250624"><ele>911.5</ele><time>2026-04-11T10:45:27.966Z</time></trkpt><trkpt lat="42.0104196" lon="13.7252458"><ele>913.0</ele><time>2026-04-11T10:45:28.966Z</time></trkpt><trkpt lat="42.0104006" lon="13.7254074"><ele>914.5</ele><time>2026-04-11T10:45:29.965Z</time></trkpt><trkpt lat="42.0103553" lon="13.72555"><ele>916.0</ele><time>2026-04-11T10:45:30.966Z</time></trkpt><trkpt lat="42.0102861" lon="13.725671"><ele>916.0</ele><time>2026-04-11T10:45:31.965Z</time></trkpt><trkpt lat="42.0101948" lon="13.7257571"><ele>916.0</ele><time>2026-04-11T10:45:32.966Z</time></trkpt><trkpt lat="42.0100822" lon="13.7258112"><ele>916.0</ele><time>2026-04-11T10:45:33.966Z</time></trkpt><trkpt lat="42.009958" lon="13.7258193"><ele>916.0</ele><time>2026-04-11T10:45:34.966Z</time></trkpt><trkpt lat="42.0098331" lon="13.7257875"><ele>917.75</ele><time>2026-04-11T10:45:35.966Z</time></trkpt><trkpt lat="42.0097124" lon="13.7257194"><ele>919.5</ele><time>2026-04-11T10:45:36.966Z</time></trkpt><trkpt lat="42.0095954" lon="13.7256395"><ele>921.25</ele><time>2026-04-11T10:45:37.966Z</time></trkpt><trkpt lat="42.0094824" lon="13.7255609"><ele>923.0</ele><time>2026-04-11T10:45:38.966Z</time></trkpt><trkpt lat="42.009379" lon="13.7254932"><ele>923.0</ele><time>2026-04-11T10:45:39.966Z</time></trkpt><trkpt lat="42.0092794" lon="13.7254404"><ele>923.0</ele><time>2026-04-11T10:45:40.966Z</time></trkpt><trkpt lat="42.0091725" lon="13.7254188"><ele>923.0</ele><time>2026-04-11T10:45:41.966Z</time></trkpt><trkpt lat="42.0090681" lon="13.7254432"><ele>923.0</ele><time>2026-04-11T10:45:42.966Z</time></trkpt><trkpt lat="42.0089715" lon="13.7255143"><ele>923.0</ele><time>2026-04-11T10:45:43.966Z</time></trkpt><trkpt lat="42.0088796" lon="13.7256106"><ele>922.25</ele><time>2026-04-11T10:45:44.966Z</time></trkpt><trkpt lat="42.0087833" lon="13.725712"><ele>921.5</ele><time>2026-04-11T10:45:45.966Z</time></trkpt><trkpt lat="42.0086866" lon="13.7258153"><ele>920.75</ele><time>2026-04-11T10:45:46.966Z</time></trkpt><trkpt lat="42.0085943" lon="13.7259294"><ele>920.0</ele><time>2026-04-11T10:45:47.966Z</time></trkpt><trkpt lat="42.0085023" lon="13.7260583"><ele>922.25</ele><time>2026-04-11T10:45:48.966Z</time></trkpt><trkpt lat="42.0084178" lon="13.7262111"><ele>924.5</ele><time>2026-04-11T10:45:49.966Z</time></trkpt><trkpt lat="42.0083395" lon="13.7263842"><ele>926.75</ele><time>2026-04-11T10:45:50.966Z</time></trkpt><trkpt lat="42.0082752" lon="13.7265499"><ele>929.0</ele><time>2026-04-11T10:45:51.966Z</time></trkpt><trkpt lat="42.0082233" lon="13.7267031"><ele>929.0</ele><time>2026-04-11T10:45:52.966Z</time></trkpt><trkpt lat="42.0081754" lon="13.7268283"><ele>929.0</ele><time>2026-04-11T10:45:53.966Z</time></trkpt><trkpt lat="42.0080837" lon="13.7270064"><ele>929.0</ele><time>2026-04-11T10:45:55.966Z</time></trkpt><trkpt lat="42.0080353" lon="13.7271363"><ele>929.0</ele><time>2026-04-11T10:45:57.966Z</time></trkpt><trkpt lat="42.0081681" lon="13.727302"><ele>930.75</ele><time>2026-04-11T10:46:00.966Z</time></trkpt><trkpt lat="42.0082541" lon="13.7273609"><ele>932.5</ele><time>2026-04-11T10:46:01.966Z</time></trkpt><trkpt lat="42.008445" lon="13.7275142"><ele>934.25</ele><time>2026-04-11T10:46:03.965Z</time></trkpt><trkpt lat="42.0085573" lon="13.7275619"><ele>936.0</ele><time>2026-04-11T10:46:04.966Z</time></trkpt><trkpt lat="42.008675" lon="13.7275781"><ele>936.0</ele><time>2026-04-11T10:46:05.966Z</time></trkpt><trkpt lat="42.0089234" lon="13.7275184"><ele>936.0</ele><time>2026-04-11T10:46:07.966Z</time></trkpt><trkpt lat="42.0090536" lon="13.7274629"><ele>936.0</ele><time>2026-04-11T10:46:08.966Z</time></trkpt><trkpt lat="42.0091847" lon="13.727406"><ele>937.0</ele><time>2026-04-11T10:46:09.966Z</time></trkpt><trkpt lat="42.0093098" lon="13.7273538"><ele>938.0</ele><time>2026-04-11T10:46:10.966Z</time></trkpt><trkpt lat="42.0094231" lon="13.7273173"><ele>939.0</ele><time>2026-04-11T10:46:11.966Z</time></trkpt><trkpt lat="42.0095257" lon="13.7273084"><ele>940.0</ele><time>2026-04-11T10:46:12.965Z</time></trkpt><trkpt lat="42.0096313" lon="13.7273332"><ele>940.0</ele><time>2026-04-11T10:46:13.966Z</time></trkpt><trkpt lat="42.0097319" lon="13.7273927"><ele>940.0</ele><time>2026-04-11T10:46:14.966Z</time></trkpt><trkpt lat="42.0098159" lon="13.727491"><ele>940.0</ele><time>2026-04-11T10:46:15.966Z</time></trkpt><trkpt lat="42.009889" lon="13.7276198"><ele>940.0</ele><time>2026-04-11T10:46:16.965Z</time></trkpt><trkpt lat="42.0099502" lon="13.7277819"><ele>942.6666666666666</ele><time>2026-04-11T10:46:17.966Z</time></trkpt><trkpt lat="42.0099997" lon="13.7279635"><ele>945.3333333333333</ele><time>2026-04-11T10:46:18.966Z</time></trkpt><trkpt lat="42.0100468" lon="13.728161"><ele>948.0</ele><time>2026-04-11T10:46:19.965Z</time></trkpt><trkpt lat="42.0100953" lon="13.7283667"><ele>951.0</ele><time>2026-04-11T10:46:20.966Z</time></trkpt><trkpt lat="42.010149" lon="13.7285724"><ele>954.0</ele><time>2026-04-11T10:46:21.965Z</time></trkpt><trkpt lat="42.0101992" lon="13.7287838"><ele>957.0</ele><time>2026-04-11T10:46:22.966Z</time></trkpt><trkpt lat="42.0102489" lon="13.728998"><ele>957.0</ele><time>2026-04-11T10:46:23.966Z</time></trkpt><trkpt lat="42.010302" lon="13.7292079"><ele>957.0</ele><time>2026-04-11T10:46:24.966Z</time></trkpt><trkpt lat="42.0103777" lon="13.7294037"><ele>957.0</ele><time>2026-04-11T10:46:25.966Z</time></trkpt><trkpt lat="42.0104864" lon="13.7295829"><ele>956.6666666666667</ele><time>2026-04-11T10:46:26.966Z</time></trkpt><trkpt lat="42.0106161" lon="13.7297444"><ele>956.3333333333334</ele><time>2026-04-11T10:46:27.966Z</time></trkpt><trkpt lat="42.0107566" lon="13.7298953"><ele>956.0</ele><time>2026-04-11T10:46:28.966Z</time></trkpt><trkpt lat="42.0109034" lon="13.7300422"><ele>956.0</ele><time>2026-04-11T10:46:29.966Z</time></trkpt><trkpt lat="42.0110591" lon="13.7301756"><ele>956.0</ele><time>2026-04-11T10:46:30.966Z</time></trkpt><trkpt lat="42.0112414" lon="13.7302741"><ele>956.0</ele><time>2026-04-11T10:46:31.966Z</time></trkpt><trkpt lat="42.0114324" lon="13.730341"><ele>961.0</ele><time>2026-04-11T10:46:32.966Z</time></trkpt><trkpt lat="42.011635" lon="13.7304008"><ele>966.0</ele><time>2026-04-11T10:46:33.966Z</time></trkpt><trkpt lat="42.0120484" lon="13.7305148"><ele>966.0</ele><time>2026-04-11T10:46:35.965Z</time></trkpt><trkpt lat="42.0122605" lon="13.7305609"><ele>966.0</ele><time>2026-04-11T10:46:36.966Z</time></trkpt><trkpt lat="42.0124774" lon="13.7305813"><ele>966.0</ele><time>2026-04-11T10:46:37.966Z</time></trkpt><trkpt lat="42.0126958" lon="13.7305687"><ele>966.3333333333333</ele><time>2026-04-11T10:46:38.966Z</time></trkpt><trkpt lat="42.0129138" lon="13.7305355"><ele>966.6666666666666</ele><time>2026-04-11T10:46:39.966Z</time></trkpt><trkpt lat="42.0131153" lon="13.7305032"><ele>967.0</ele><time>2026-04-11T10:46:40.966Z</time></trkpt><trkpt lat="42.0132973" lon="13.7304753"><ele>968.3333333333333</ele><time>2026-04-11T10:46:41.966Z</time></trkpt><trkpt lat="42.0134629" lon="13.7304834"><ele>969.6666666666667</ele><time>2026-04-11T10:46:42.966Z</time></trkpt><trkpt lat="42.0136177" lon="13.7305376"><ele>971.0</ele><time>2026-04-11T10:46:43.966Z</time></trkpt><trkpt lat="42.0137628" lon="13.7306343"><ele>971.0</ele><time>2026-04-11T10:46:44.966Z</time></trkpt><trkpt lat="42.0139142" lon="13.7307527"><ele>971.0</ele><time>2026-04-11T10:46:45.966Z</time></trkpt><trkpt lat="42.014062" lon="13.7308787"><ele>971.0</ele><time>2026-04-11T10:46:46.966Z</time></trkpt><trkpt lat="42.0142084" lon="13.7309945"><ele>974.5</ele><time>2026-04-11T10:46:47.966Z</time></trkpt><trkpt lat="42.0143405" lon="13.7310984"><ele>978.0</ele><time>2026-04-11T10:46:48.966Z</time></trkpt><trkpt lat="42.0144709" lon="13.7311863"><ele>981.5</ele><time>2026-04-11T10:46:49.965Z</time></trkpt><trkpt lat="42.0146077" lon="13.7312332"><ele>985.0</ele><time>2026-04-11T10:46:50.966Z</time></trkpt><trkpt lat="42.0147532" lon="13.7312259"><ele>985.0</ele><time>2026-04-11T10:46:51.966Z</time></trkpt><trkpt lat="42.014908" lon="13.731167"><ele>985.0</ele><time>2026-04-11T10:46:52.966Z</time></trkpt><trkpt lat="42.0150649" lon="13.7310719"><ele>985.0</ele><time>2026-04-11T10:46:53.965Z</time></trkpt><trkpt lat="42.0152187" lon="13.7309761"><ele>982.5</ele><time>2026-04-11T10:46:54.966Z</time></trkpt><trkpt lat="42.0153607" lon="13.7308985"><ele>980.0</ele><time>2026-04-11T10:46:55.966Z</time></trkpt><trkpt lat="42.0155017" lon="13.7308555"><ele>977.5</ele><time>2026-04-11T10:46:56.966Z</time></trkpt><trkpt lat="42.0156407" lon="13.7308584"><ele>975.0</ele><time>2026-04-11T10:46:57.966Z</time></trkpt><trkpt lat="42.0157766" lon="13.7309123"><ele>976.0</ele><time>2026-04-11T10:46:58.965Z</time></trkpt><trkpt lat="42.0159091" lon="13.7310208"><ele>977.0</ele><time>2026-04-11T10:46:59.966Z</time></trkpt><trkpt lat="42.0160455" lon="13.7311639"><ele>978.0</ele><time>2026-04-11T10:47:00.966Z</time></trkpt><trkpt lat="42.0161912" lon="13.731322"><ele>982.3333333333333</ele><time>2026-04-11T10:47:01.966Z</time></trkpt><trkpt lat="42.0163409" lon="13.73148"><ele>986.6666666666666</ele><time>2026-04-11T10:47:02.966Z</time></trkpt><trkpt lat="42.0164832" lon="13.7316265"><ele>991.0</ele><time>2026-04-11T10:47:03.966Z</time></trkpt><trkpt lat="42.0166202" lon="13.7317497"><ele>989.3333333333333</ele><time>2026-04-11T10:47:04.966Z</time></trkpt><trkpt lat="42.0167683" lon="13.7318401"><ele>987.6666666666667</ele><time>2026-04-11T10:47:05.965Z</time></trkpt><trkpt lat="42.0169233" lon="13.7318766"><ele>986.0</ele><time>2026-04-11T10:47:06.966Z</time></trkpt><trkpt lat="42.0170866" lon="13.7318617"><ele>986.0</ele><time>2026-04-11T10:47:07.965Z</time></trkpt><trkpt lat="42.0172528" lon="13.7318215"><ele>986.0</ele><time>2026-04-11T10:47:08.966Z</time></trkpt><trkpt lat="42.0174194" lon="13.7317745"><ele>986.0</ele><time>2026-04-11T10:47:09.965Z</time></trkpt><trkpt lat="42.0175872" lon="13.7317452"><ele>987.0</ele><time>2026-04-11T10:47:10.965Z</time></trkpt><trkpt lat="42.0177531" lon="13.7317635"><ele>988.0</ele><time>2026-04-11T10:47:11.966Z</time></trkpt><trkpt lat="42.0179071" lon="13.7317904"><ele>989.0</ele><time>2026-04-11T10:47:12.966Z</time></trkpt><trkpt lat="42.0180806" lon="13.7319334"><ele>994.0</ele><time>2026-04-11T10:47:13.966Z</time></trkpt><trkpt lat="42.0182297" lon="13.7320709"><ele>999.0</ele><time>2026-04-11T10:47:14.966Z</time></trkpt><trkpt lat="42.0183797" lon="13.7322216"><ele>1004.0</ele><time>2026-04-11T10:47:15.966Z</time></trkpt><trkpt lat="42.0185396" lon="13.7323572"><ele>1004.0</ele><time>2026-04-11T10:47:16.966Z</time></trkpt><trkpt lat="42.0187101" lon="13.7324883"><ele>1004.0</ele><time>2026-04-11T10:47:17.966Z</time></trkpt><trkpt lat="42.0188986" lon="13.7326044"><ele>1004.0</ele><time>2026-04-11T10:47:18.965Z</time></trkpt><trkpt lat="42.0190984" lon="13.7327068"><ele>1011.5</ele><time>2026-04-11T10:47:19.966Z</time></trkpt><trkpt lat="42.019307" lon="13.7328085"><ele>1019.0</ele><time>2026-04-11T10:47:20.965Z</time></trkpt><trkpt lat="42.019521" lon="13.732916"><ele>1019.0</ele><time>2026-04-11T10:47:21.965Z</time></trkpt><trkpt lat="42.0197386" lon="13.7330262"><ele>1019.0</ele><time>2026-04-11T10:47:22.966Z</time></trkpt><trkpt lat="42.0199601" lon="13.7331385"><ele>1017.0</ele><time>2026-04-11T10:47:23.966Z</time></trkpt><trkpt lat="42.0201845" lon="13.7332501"><ele>1015.0</ele><time>2026-04-11T10:47:24.966Z</time></trkpt><trkpt lat="42.0204096" lon="13.7333643"><ele>1015.0</ele><time>2026-04-11T10:47:25.965Z</time></trkpt><trkpt lat="42.0206367" lon="13.7334755"><ele>1015.0</ele><time>2026-04-11T10:47:26.966Z</time></trkpt><trkpt lat="42.0208593" lon="13.7335812"><ele>1026.0</ele><time>2026-04-11T10:47:27.966Z</time></trkpt><trkpt lat="42.0210889" lon="13.7336479"><ele>1037.0</ele><time>2026-04-11T10:47:28.966Z</time></trkpt><trkpt lat="42.0213187" lon="13.7336827"><ele>1037.0</ele><time>2026-04-11T10:47:29.966Z</time></trkpt><trkpt lat="42.0215467" lon="13.7337125"><ele>1037.0</ele><time>2026-04-11T10:47:30.966Z</time></trkpt><trkpt lat="42.0217725" lon="13.7337343"><ele>1038.3333333333335</ele><time>2026-04-11T10:47:31.966Z</time></trkpt><trkpt lat="42.0219973" lon="13.7337513"><ele>1039.6666666666667</ele><time>2026-04-11T10:47:32.966Z</time></trkpt><trkpt lat="42.0222176" lon="13.7337703"><ele>1041.0</ele><time>2026-04-11T10:47:33.966Z</time></trkpt><trkpt lat="42.022433" lon="13.7337922"><ele>1041.0</ele><time>2026-04-11T10:47:34.966Z</time></trkpt><trkpt lat="42.0226437" lon="13.7338211"><ele>1041.0</ele><time>2026-04-11T10:47:35.966Z</time></trkpt><trkpt lat="42.0228579" lon="13.7338576"><ele>1041.0</ele><time>2026-04-11T10:47:36.966Z</time></trkpt><trkpt lat="42.0230702" lon="13.7339088"><ele>1041.0</ele><time>2026-04-11T10:47:37.966Z</time></trkpt><trkpt lat="42.0232856" lon="13.7339714"><ele>1041.0</ele><time>2026-04-11T10:47:38.966Z</time></trkpt><trkpt lat="42.0234999" lon="13.7340466"><ele>1041.0</ele><time>2026-04-11T10:47:39.966Z</time></trkpt><trkpt lat="42.0237074" lon="13.7341229"><ele>1040.0</ele><time>2026-04-11T10:47:40.966Z</time></trkpt><trkpt lat="42.0239128" lon="13.7341965"><ele>1039.0</ele><time>2026-04-11T10:47:41.966Z</time></trkpt><trkpt lat="42.0241093" lon="13.7342643"><ele>1038.0</ele><time>2026-04-11T10:47:42.966Z</time></trkpt><trkpt lat="42.024292" lon="13.7343345"><ele>1048.0</ele><time>2026-04-11T10:47:43.966Z</time></trkpt><trkpt lat="42.024459" lon="13.734412"><ele>1058.0</ele><time>2026-04-11T10:47:44.966Z</time></trkpt><trkpt lat="42.0245955" lon="13.7345028"><ele>1068.0</ele><time>2026-04-11T10:47:45.966Z</time></trkpt><trkpt lat="42.0246935" lon="13.7346185"><ele>1068.0</ele><time>2026-04-11T10:47:46.966Z</time></trkpt><trkpt lat="42.0247546" lon="13.7347496"><ele>1068.0</ele><time>2026-04-11T10:47:47.966Z</time></trkpt><trkpt lat="42.02479" lon="13.7349021"><ele>1068.0</ele><time>2026-04-11T10:47:48.966Z</time></trkpt><trkpt lat="42.0248111" lon="13.7350621"><ele>1068.0</ele><time>2026-04-11T10:47:49.965Z</time></trkpt><trkpt lat="42.0248212" lon="13.7352066"><ele>1064.8</ele><time>2026-04-11T10:47:50.966Z</time></trkpt><trkpt lat="42.0248366" lon="13.7353522"><ele>1061.6</ele><time>2026-04-11T10:47:51.965Z</time></trkpt><trkpt lat="42.0248541" lon="13.7354817"><ele>1058.4</ele><time>2026-04-11T10:47:52.966Z</time></trkpt><trkpt lat="42.0248852" lon="13.7355978"><ele>1055.2</ele><time>2026-04-11T10:47:53.966Z</time></trkpt><trkpt lat="42.0249477" lon="13.735671"><ele>1052.0</ele><time>2026-04-11T10:47:54.966Z</time></trkpt><trkpt lat="42.0250253" lon="13.7357216"><ele>1052.0</ele><time>2026-04-11T10:47:55.965Z</time></trkpt><trkpt lat="42.0251224" lon="13.7357363"><ele>1052.0</ele><time>2026-04-11T10:47:56.966Z</time></trkpt><trkpt lat="42.025234" lon="13.735732"><ele>1052.0</ele><time>2026-04-11T10:47:57.966Z</time></trkpt><trkpt lat="42.0253543" lon="13.7357068"><ele>1052.0</ele><time>2026-04-11T10:47:58.966Z</time></trkpt><trkpt lat="42.0254811" lon="13.7356601"><ele>1052.0</ele><time>2026-04-11T10:47:59.966Z</time></trkpt><trkpt lat="42.0256147" lon="13.7356053"><ele>1052.0</ele><time>2026-04-11T10:48:00.965Z</time></trkpt><trkpt lat="42.0257596" lon="13.7355451"><ele>1052.0</ele><time>2026-04-11T10:48:01.966Z</time></trkpt><trkpt lat="42.0258995" lon="13.7354748"><ele>1052.0</ele><time>2026-04-11T10:48:02.966Z</time></trkpt><trkpt lat="42.0260356" lon="13.7353852"><ele>1056.0</ele><time>2026-04-11T10:48:03.966Z</time></trkpt><trkpt lat="42.0261678" lon="13.7352831"><ele>1060.0</ele><time>2026-04-11T10:48:04.966Z</time></trkpt><trkpt lat="42.0263087" lon="13.7351785"><ele>1064.0</ele><time>2026-04-11T10:48:05.966Z</time></trkpt><trkpt lat="42.026458" lon="13.735082"><ele>1060.3333333333335</ele><time>2026-04-11T10:48:06.966Z</time></trkpt><trkpt lat="42.0266187" lon="13.7350099"><ele>1056.6666666666667</ele><time>2026-04-11T10:48:07.966Z</time></trkpt><trkpt lat="42.0267888" lon="13.7349534"><ele>1053.0</ele><time>2026-04-11T10:48:08.966Z</time></trkpt><trkpt lat="42.0269639" lon="13.7349117"><ele>1053.0</ele><time>2026-04-11T10:48:09.965Z</time></trkpt><trkpt lat="42.0271469" lon="13.7348713"><ele>1053.0</ele><time>2026-04-11T10:48:10.966Z</time></trkpt><trkpt lat="42.0273329" lon="13.7348421"><ele>1053.0</ele><time>2026-04-11T10:48:11.966Z</time></trkpt><trkpt lat="42.0275286" lon="13.734824"><ele>1057.6666666666667</ele><time>2026-04-11T10:48:12.966Z</time></trkpt><trkpt lat="42.0277282" lon="13.7348142"><ele>1062.3333333333335</ele><time>2026-04-11T10:48:13.966Z</time></trkpt><trkpt lat="42.0279197" lon="13.7348096"><ele>1067.0</ele><time>2026-04-11T10:48:14.966Z</time></trkpt><trkpt lat="42.0280958" lon="13.7348259"><ele>1067.0</ele><time>2026-04-11T10:48:15.966Z</time></trkpt><trkpt lat="42.028248" lon="13.7348659"><ele>1067.0</ele><time>2026-04-11T10:48:16.966Z</time></trkpt><trkpt lat="42.0283853" lon="13.7349423"><ele>1067.0</ele><time>2026-04-11T10:48:17.966Z</time></trkpt><trkpt lat="42.028509" lon="13.7350555"><ele>1066.5</ele><time>2026-04-11T10:48:18.966Z</time></trkpt><trkpt lat="42.0286199" lon="13.735179"><ele>1066.0</ele><time>2026-04-11T10:48:19.966Z</time></trkpt><trkpt lat="42.0287196" lon="13.735273"><ele>1065.5</ele><time>2026-04-11T10:48:20.966Z</time></trkpt><trkpt lat="42.0288263" lon="13.7353249"><ele>1065.0</ele><time>2026-04-11T10:48:21.965Z</time></trkpt><trkpt lat="42.0289505" lon="13.735326"><ele>1064.75</ele><time>2026-04-11T10:48:22.966Z</time></trkpt><trkpt lat="42.0290783" lon="13.7352865"><ele>1064.5</ele><time>2026-04-11T10:48:23.966Z</time></trkpt><trkpt lat="42.0292081" lon="13.7352061"><ele>1064.25</ele><time>2026-04-11T10:48:24.966Z</time></trkpt><trkpt lat="42.029351" lon="13.7351116"><ele>1064.0</ele><time>2026-04-11T10:48:25.965Z</time></trkpt><trkpt lat="42.029497" lon="13.7350195"><ele>1064.0</ele><time>2026-04-11T10:48:26.966Z</time></trkpt><trkpt lat="42.0296438" lon="13.7349452"><ele>1064.0</ele><time>2026-04-11T10:48:27.965Z</time></trkpt><trkpt lat="42.0297986" lon="13.7348969"><ele>1064.0</ele><time>2026-04-11T10:48:28.966Z</time></trkpt><trkpt lat="42.0299642" lon="13.7348708"><ele>1069.3333333333335</ele><time>2026-04-11T10:48:29.966Z</time></trkpt><trkpt lat="42.030138" lon="13.7348498"><ele>1074.6666666666667</ele><time>2026-04-11T10:48:30.966Z</time></trkpt><trkpt lat="42.0303163" lon="13.7348393"><ele>1080.0</ele><time>2026-04-11T10:48:31.965Z</time></trkpt><trkpt lat="42.0304978" lon="13.7348246"><ele>1080.0</ele><time>2026-04-11T10:48:32.966Z</time></trkpt><trkpt lat="42.0306734" lon="13.7348215"><ele>1080.0</ele><time>2026-04-11T10:48:33.966Z</time></trkpt><trkpt lat="42.0308385" lon="13.7348388"><ele>1080.0</ele><time>2026-04-11T10:48:34.966Z</time></trkpt><trkpt lat="42.030998" lon="13.7348868"><ele>1082.0</ele><time>2026-04-11T10:48:35.966Z</time></trkpt><trkpt lat="42.0311491" lon="13.7349677"><ele>1084.0</ele><time>2026-04-11T10:48:36.965Z</time></trkpt><trkpt lat="42.0312882" lon="13.7350828"><ele>1086.0</ele><time>2026-04-11T10:48:37.966Z</time></trkpt><trkpt lat="42.0314231" lon="13.735221"><ele>1090.6666666666667</ele><time>2026-04-11T10:48:38.966Z</time></trkpt><trkpt lat="42.0315563" lon="13.7353784"><ele>1095.3333333333335</ele><time>2026-04-11T10:48:39.965Z</time></trkpt><trkpt lat="42.0316936" lon="13.7355435"><ele>1100.0</ele><time>2026-04-11T10:48:40.966Z</time></trkpt><trkpt lat="42.0318311" lon="13.7357028"><ele>1100.0</ele><time>2026-04-11T10:48:41.966Z</time></trkpt><trkpt lat="42.0319637" lon="13.7358685"><ele>1100.0</ele><time>2026-04-11T10:48:42.965Z</time></trkpt><trkpt lat="42.0320802" lon="13.7360468"><ele>1100.0</ele><time>2026-04-11T10:48:43.966Z</time></trkpt><trkpt lat="42.0321754" lon="13.7362344"><ele>1105.25</ele><time>2026-04-11T10:48:44.965Z</time></trkpt><trkpt lat="42.03225" lon="13.7364229"><ele>1110.5</ele><time>2026-04-11T10:48:45.966Z</time></trkpt><trkpt lat="42.0322965" lon="13.7366037"><ele>1115.75</ele><time>2026-04-11T10:48:46.966Z</time></trkpt><trkpt lat="42.0323007" lon="13.7367742"><ele>1121.0</ele><time>2026-04-11T10:48:47.966Z</time></trkpt><trkpt lat="42.032265" lon="13.7369366"><ele>1121.6</ele><time>2026-04-11T10:48:48.966Z</time></trkpt><trkpt lat="42.0322061" lon="13.7370862"><ele>1122.1999999999998</ele><time>2026-04-11T10:48:49.966Z</time></trkpt><trkpt lat="42.0321561" lon="13.737223"><ele>1122.8000000000002</ele><time>2026-04-11T10:48:50.966Z</time></trkpt><trkpt lat="42.0321129" lon="13.7373506"><ele>1123.4</ele><time>2026-04-11T10:48:51.966Z</time></trkpt><trkpt lat="42.0321023" lon="13.7374792"><ele>1124.0</ele><time>2026-04-11T10:48:52.966Z</time></trkpt><trkpt lat="42.0321285" lon="13.7375951"><ele>1124.0</ele><time>2026-04-11T10:48:53.966Z</time></trkpt><trkpt lat="42.0322313" lon="13.7377169"><ele>1124.0</ele><time>2026-04-11T10:48:54.966Z</time></trkpt><trkpt lat="42.0323204" lon="13.7378093"><ele>1124.0</ele><time>2026-04-11T10:48:55.966Z</time></trkpt><trkpt lat="42.0324534" lon="13.7378795"><ele>1124.0</ele><time>2026-04-11T10:48:56.966Z</time></trkpt><trkpt lat="42.0326021" lon="13.7379389"><ele>1124.0</ele><time>2026-04-11T10:48:57.966Z</time></trkpt><trkpt lat="42.0327587" lon="13.7379967"><ele>1124.0</ele><time>2026-04-11T10:48:58.966Z</time></trkpt><trkpt lat="42.0329173" lon="13.738057"><ele>1124.0</ele><time>2026-04-11T10:48:59.966Z</time></trkpt><trkpt lat="42.0330697" lon="13.7381165"><ele>1124.0</ele><time>2026-04-11T10:49:00.966Z</time></trkpt><trkpt lat="42.0332226" lon="13.7381912"><ele>1124.0</ele><time>2026-04-11T10:49:01.966Z</time></trkpt><trkpt lat="42.03337" lon="13.7383013"><ele>1124.0</ele><time>2026-04-11T10:49:02.966Z</time></trkpt><trkpt lat="42.0335141" lon="13.7384305"><ele>1131.3333333333335</ele><time>2026-04-11T10:49:03.966Z</time></trkpt><trkpt lat="42.0336541" lon="13.7385812"><ele>1138.6666666666667</ele><time>2026-04-11T10:49:04.966Z</time></trkpt><trkpt lat="42.0337941" lon="13.738754"><ele>1146.0</ele><time>2026-04-11T10:49:05.966Z</time></trkpt><trkpt lat="42.0339316" lon="13.7389337"><ele>1146.0</ele><time>2026-04-11T10:49:06.965Z</time></trkpt><trkpt lat="42.0340662" lon="13.7391348"><ele>1146.0</ele><time>2026-04-11T10:49:07.966Z</time></trkpt><trkpt lat="42.034192" lon="13.7393516"><ele>1146.0</ele><time>2026-04-11T10:49:08.966Z</time></trkpt><trkpt lat="42.0343066" lon="13.7395821"><ele>1145.3333333333333</ele><time>2026-04-11T10:49:09.966Z</time></trkpt><trkpt lat="42.034418" lon="13.7398193"><ele>1144.6666666666665</ele><time>2026-04-11T10:49:10.966Z</time></trkpt><trkpt lat="42.0345309" lon="13.7400616"><ele>1144.0</ele><time>2026-04-11T10:49:11.966Z</time></trkpt><trkpt lat="42.0346432" lon="13.7402989"><ele>1149.3333333333333</ele><time>2026-04-11T10:49:12.966Z</time></trkpt><trkpt lat="42.0347495" lon="13.740516"><ele>1154.6666666666667</ele><time>2026-04-11T10:49:13.965Z</time></trkpt><trkpt lat="42.0348456" lon="13.7407213"><ele>1160.0</ele><time>2026-04-11T10:49:14.965Z</time></trkpt><trkpt lat="42.0349302" lon="13.7409149"><ele>1162.75</ele><time>2026-04-11T10:49:15.966Z</time></trkpt><trkpt lat="42.0349918" lon="13.741104"><ele>1165.5</ele><time>2026-04-11T10:49:16.966Z</time></trkpt><trkpt lat="42.0350147" lon="13.7412875"><ele>1168.25</ele><time>2026-04-11T10:49:17.965Z</time></trkpt><trkpt lat="42.034989" lon="13.7414657"><ele>1171.0</ele><time>2026-04-11T10:49:18.965Z</time></trkpt><trkpt lat="42.0349349" lon="13.7416642"><ele>1171.0</ele><time>2026-04-11T10:49:19.966Z</time></trkpt><trkpt lat="42.0348635" lon="13.7418775"><ele>1171.0</ele><time>2026-04-11T10:49:20.966Z</time></trkpt><trkpt lat="42.0348023" lon="13.7420928"><ele>1171.0</ele><time>2026-04-11T10:49:21.966Z</time></trkpt><trkpt lat="42.0347427" lon="13.7423061"><ele>1171.6666666666665</ele><time>2026-04-11T10:49:22.966Z</time></trkpt><trkpt lat="42.0346824" lon="13.7425161"><ele>1172.3333333333333</ele><time>2026-04-11T10:49:23.965Z</time></trkpt><trkpt lat="42.0346228" lon="13.7427201"><ele>1173.0</ele><time>2026-04-11T10:49:24.966Z</time></trkpt><trkpt lat="42.0345586" lon="13.7429159"><ele>1168.6666666666667</ele><time>2026-04-11T10:49:25.966Z</time></trkpt><trkpt lat="42.0344797" lon="13.7431168"><ele>1164.3333333333335</ele><time>2026-04-11T10:49:26.966Z</time></trkpt><trkpt lat="42.0343923" lon="13.7433133"><ele>1160.0</ele><time>2026-04-11T10:49:27.966Z</time></trkpt><trkpt lat="42.0343022" lon="13.7435126"><ele>1156.0</ele><time>2026-04-11T10:49:28.965Z</time></trkpt><trkpt lat="42.0342094" lon="13.74371"><ele>1152.0</ele><time>2026-04-11T10:49:29.966Z</time></trkpt><trkpt lat="42.0341118" lon="13.7439111"><ele>1148.0</ele><time>2026-04-11T10:49:30.966Z</time></trkpt><trkpt lat="42.034012" lon="13.7441152"><ele>1153.6666666666667</ele><time>2026-04-11T10:49:31.966Z</time></trkpt><trkpt lat="42.0339128" lon="13.7443172"><ele>1159.3333333333333</ele><time>2026-04-11T10:49:32.966Z</time></trkpt><trkpt lat="42.0338169" lon="13.7445023"><ele>1165.0</ele><time>2026-04-11T10:49:33.966Z</time></trkpt><trkpt lat="42.033726" lon="13.7446655"><ele>1165.0</ele><time>2026-04-11T10:49:34.966Z</time></trkpt><trkpt lat="42.0336303" lon="13.7448061"><ele>1165.0</ele><time>2026-04-11T10:49:35.966Z</time></trkpt><trkpt lat="42.0335415" lon="13.7449284"><ele>1165.0</ele><time>2026-04-11T10:49:36.966Z</time></trkpt><trkpt lat="42.0334799" lon="13.745036"><ele>1165.0</ele><time>2026-04-11T10:49:37.966Z</time></trkpt><trkpt lat="42.0334443" lon="13.745148"><ele>1163.8</ele><time>2026-04-11T10:49:38.966Z</time></trkpt><trkpt lat="42.0334388" lon="13.7452591"><ele>1162.6</ele><time>2026-04-11T10:49:39.966Z</time></trkpt><trkpt lat="42.0334659" lon="13.7453701"><ele>1161.4</ele><time>2026-04-11T10:49:40.966Z</time></trkpt><trkpt lat="42.0335287" lon="13.7454719"><ele>1160.2</ele><time>2026-04-11T10:49:41.966Z</time></trkpt><trkpt lat="42.0336162" lon="13.7455512"><ele>1159.0</ele><time>2026-04-11T10:49:42.966Z</time></trkpt><trkpt lat="42.0337206" lon="13.7455786"><ele>1159.0</ele><time>2026-04-11T10:49:43.966Z</time></trkpt><trkpt lat="42.0338284" lon="13.7455541"><ele>1159.0</ele><time>2026-04-11T10:49:44.966Z</time></trkpt><trkpt lat="42.0339347" lon="13.7454861"><ele>1159.0</ele><time>2026-04-11T10:49:45.966Z</time></trkpt><trkpt lat="42.0340511" lon="13.7453879"><ele>1159.0</ele><time>2026-04-11T10:49:46.966Z</time></trkpt><trkpt lat="42.0341813" lon="13.7452885"><ele>1156.3333333333333</ele><time>2026-04-11T10:49:47.965Z</time></trkpt><trkpt lat="42.034335" lon="13.7451828"><ele>1153.6666666666667</ele><time>2026-04-11T10:49:48.966Z</time></trkpt><trkpt lat="42.0344905" lon="13.7450669"><ele>1151.0</ele><time>2026-04-11T10:49:49.966Z</time></trkpt><trkpt lat="42.0346549" lon="13.7449507"><ele>1151.0</ele><time>2026-04-11T10:49:50.965Z</time></trkpt><trkpt lat="42.0348243" lon="13.7448328"><ele>1151.0</ele><time>2026-04-11T10:49:51.965Z</time></trkpt><trkpt lat="42.0349843" lon="13.7447203"><ele>1151.0</ele><time>2026-04-11T10:49:52.966Z</time></trkpt><trkpt lat="42.0351317" lon="13.7446239"><ele>1156.3333333333335</ele><time>2026-04-11T10:49:53.966Z</time></trkpt><trkpt lat="42.0352898" lon="13.7445593"><ele>1161.6666666666667</ele><time>2026-04-11T10:49:54.966Z</time></trkpt><trkpt lat="42.0354445" lon="13.7445439"><ele>1167.0</ele><time>2026-04-11T10:49:55.966Z</time></trkpt><trkpt lat="42.0356041" lon="13.7445717"><ele>1167.0</ele><time>2026-04-11T10:49:56.966Z</time></trkpt><trkpt lat="42.0357697" lon="13.7445918"><ele>1167.0</ele><time>2026-04-11T10:49:57.966Z</time></trkpt><trkpt lat="42.0359366" lon="13.7445585"><ele>1167.0</ele><time>2026-04-11T10:49:58.966Z</time></trkpt><trkpt lat="42.0361007" lon="13.7444775"><ele>1164.0</ele><time>2026-04-11T10:49:59.966Z</time></trkpt><trkpt lat="42.0362759" lon="13.7443766"><ele>1161.0</ele><time>2026-04-11T10:50:00.966Z</time></trkpt><trkpt lat="42.0364562" lon="13.7442673"><ele>1158.0</ele><time>2026-04-11T10:50:01.966Z</time></trkpt><trkpt lat="42.0366371" lon="13.7441509"><ele>1164.3333333333333</ele><time>2026-04-11T10:50:02.965Z</time></trkpt><trkpt lat="42.0368235" lon="13.7440266"><ele>1170.6666666666665</ele><time>2026-04-11T10:50:03.966Z</time></trkpt><trkpt lat="42.0370134" lon="13.7439088"><ele>1177.0</ele><time>2026-04-11T10:50:04.966Z</time></trkpt><trkpt lat="42.0372067" lon="13.7437875"><ele>1177.0</ele><time>2026-04-11T10:50:05.966Z</time></trkpt><trkpt lat="42.0374" lon="13.7436679"><ele>1177.0</ele><time>2026-04-11T10:50:06.966Z</time></trkpt><trkpt lat="42.0375929" lon="13.7435478"><ele>1177.0</ele><time>2026-04-11T10:50:07.966Z</time></trkpt><trkpt lat="42.037785" lon="13.7434229"><ele>1175.3333333333333</ele><time>2026-04-11T10:50:08.966Z</time></trkpt><trkpt lat="42.0379773" lon="13.7433059"><ele>1173.6666666666667</ele><time>2026-04-11T10:50:09.966Z</time></trkpt><trkpt lat="42.0381635" lon="13.7431909"><ele>1172.0</ele><time>2026-04-11T10:50:10.965Z</time></trkpt><trkpt lat="42.0383411" lon="13.7430767"><ele>1173.0</ele><time>2026-04-11T10:50:11.966Z</time></trkpt><trkpt lat="42.03851" lon="13.7429437"><ele>1174.0</ele><time>2026-04-11T10:50:12.966Z</time></trkpt><trkpt lat="42.0386595" lon="13.742785"><ele>1175.0</ele><time>2026-04-11T10:50:13.966Z</time></trkpt><trkpt lat="42.0388075" lon="13.7425922"><ele>1175.0</ele><time>2026-04-11T10:50:14.965Z</time></trkpt><trkpt lat="42.0389321" lon="13.7423917"><ele>1175.0</ele><time>2026-04-11T10:50:15.966Z</time></trkpt><trkpt lat="42.0390586" lon="13.7421764"><ele>1175.0</ele><time>2026-04-11T10:50:16.966Z</time></trkpt><trkpt lat="42.0391815" lon="13.7419576"><ele>1180.3333333333335</ele><time>2026-04-11T10:50:17.966Z</time></trkpt><trkpt lat="42.0392979" lon="13.7417427"><ele>1185.6666666666667</ele><time>2026-04-11T10:50:18.965Z</time></trkpt><trkpt lat="42.0394136" lon="13.7415286"><ele>1191.0</ele><time>2026-04-11T10:50:19.966Z</time></trkpt><trkpt lat="42.0395302" lon="13.7413169"><ele>1191.0</ele><time>2026-04-11T10:50:20.965Z</time></trkpt><trkpt lat="42.0396403" lon="13.7411215"><ele>1191.0</ele><time>2026-04-11T10:50:21.966Z</time></trkpt><trkpt lat="42.0397424" lon="13.7409363"><ele>1191.0</ele><time>2026-04-11T10:50:22.966Z</time></trkpt><trkpt lat="42.0398377" lon="13.740788"><ele>1190.25</ele><time>2026-04-11T10:50:23.966Z</time></trkpt><trkpt lat="42.039937" lon="13.7406763"><ele>1189.5</ele><time>2026-04-11T10:50:24.966Z</time></trkpt><trkpt lat="42.0400428" lon="13.7406068"><ele>1188.75</ele><time>2026-04-11T10:50:25.966Z</time></trkpt><trkpt lat="42.0401596" lon="13.7405729"><ele>1188.0</ele><time>2026-04-11T10:50:26.966Z</time></trkpt><trkpt lat="42.0402928" lon="13.7405534"><ele>1192.5</ele><time>2026-04-11T10:50:27.966Z</time></trkpt><trkpt lat="42.040428" lon="13.7405346"><ele>1197.0</ele><time>2026-04-11T10:50:28.966Z</time></trkpt><trkpt lat="42.0405599" lon="13.7404754"><ele>1201.5</ele><time>2026-04-11T10:50:29.966Z</time></trkpt><trkpt lat="42.0406813" lon="13.740373"><ele>1206.0</ele><time>2026-04-11T10:50:30.965Z</time></trkpt><trkpt lat="42.0407936" lon="13.7402427"><ele>1206.3333333333333</ele><time>2026-04-11T10:50:31.966Z</time></trkpt><trkpt lat="42.0409031" lon="13.7400873"><ele>1206.6666666666665</ele><time>2026-04-11T10:50:32.966Z</time></trkpt><trkpt lat="42.0410105" lon="13.7399309"><ele>1207.0</ele><time>2026-04-11T10:50:33.966Z</time></trkpt><trkpt lat="42.0411174" lon="13.7397897"><ele>1207.0</ele><time>2026-04-11T10:50:34.966Z</time></trkpt><trkpt lat="42.0412307" lon="13.739674"><ele>1207.0</ele><time>2026-04-11T10:50:35.966Z</time></trkpt><trkpt lat="42.0413608" lon="13.7395963"><ele>1207.0</ele><time>2026-04-11T10:50:36.966Z</time></trkpt><trkpt lat="42.041497" lon="13.7395859"><ele>1207.0</ele><time>2026-04-11T10:50:37.966Z</time></trkpt><trkpt lat="42.0416429" lon="13.7396273"><ele>1210.3333333333333</ele><time>2026-04-11T10:50:38.966Z</time></trkpt><trkpt lat="42.0417918" lon="13.7397013"><ele>1213.6666666666667</ele><time>2026-04-11T10:50:39.966Z</time></trkpt><trkpt lat="42.0419483" lon="13.7397851"><ele>1217.0</ele><time>2026-04-11T10:50:40.966Z</time></trkpt><trkpt lat="42.0421131" lon="13.7398644"><ele>1217.0</ele><time>2026-04-11T10:50:41.966Z</time></trkpt><trkpt lat="42.0422869" lon="13.7399201"><ele>1217.0</ele><time>2026-04-11T10:50:42.966Z</time></trkpt><trkpt lat="42.0424732" lon="13.7399401"><ele>1217.0</ele><time>2026-04-11T10:50:43.965Z</time></trkpt><trkpt lat="42.0426553" lon="13.7399145"><ele>1218.0</ele><time>2026-04-11T10:50:44.966Z</time></trkpt><trkpt lat="42.0428355" lon="13.7398544"><ele>1219.0</ele><time>2026-04-11T10:50:45.966Z</time></trkpt><trkpt lat="42.0430164" lon="13.739806"><ele>1220.0</ele><time>2026-04-11T10:50:46.966Z</time></trkpt><trkpt lat="42.0432055" lon="13.73979"><ele>1220.6666666666667</ele><time>2026-04-11T10:50:47.966Z</time></trkpt><trkpt lat="42.0433895" lon="13.7398296"><ele>1221.3333333333333</ele><time>2026-04-11T10:50:48.966Z</time></trkpt><trkpt lat="42.0435703" lon="13.739913"><ele>1222.0</ele><time>2026-04-11T10:50:49.966Z</time></trkpt><trkpt lat="42.0437557" lon="13.7400135"><ele>1222.0</ele><time>2026-04-11T10:50:50.966Z</time></trkpt><trkpt lat="42.0439439" lon="13.7401135"><ele>1222.0</ele><time>2026-04-11T10:50:51.966Z</time></trkpt><trkpt lat="42.0441414" lon="13.7401894"><ele>1222.0</ele><time>2026-04-11T10:50:52.966Z</time></trkpt><trkpt lat="42.0443484" lon="13.7402337"><ele>1220.3333333333333</ele><time>2026-04-11T10:50:53.966Z</time></trkpt><trkpt lat="42.0445633" lon="13.7402389"><ele>1218.6666666666667</ele><time>2026-04-11T10:50:54.966Z</time></trkpt><trkpt lat="42.0447775" lon="13.7402242"><ele>1217.0</ele><time>2026-04-11T10:50:55.966Z</time></trkpt><trkpt lat="42.0449819" lon="13.7402058"><ele>1217.0</ele><time>2026-04-11T10:50:56.966Z</time></trkpt><trkpt lat="42.0451749" lon="13.7401936"><ele>1217.0</ele><time>2026-04-11T10:50:57.966Z</time></trkpt><trkpt lat="42.0453544" lon="13.7402015"><ele>1217.0</ele><time>2026-04-11T10:50:58.966Z</time></trkpt><trkpt lat="42.0455252" lon="13.7402159"><ele>1222.25</ele><time>2026-04-11T10:50:59.965Z</time></trkpt><trkpt lat="42.0456774" lon="13.7402473"><ele>1227.5</ele><time>2026-04-11T10:51:00.966Z</time></trkpt><trkpt lat="42.0458042" lon="13.7403001"><ele>1232.75</ele><time>2026-04-11T10:51:01.966Z</time></trkpt><trkpt lat="42.0459021" lon="13.7403714"><ele>1238.0</ele><time>2026-04-11T10:51:02.966Z</time></trkpt><trkpt lat="42.045974" lon="13.7404566"><ele>1239.0</ele><time>2026-04-11T10:51:03.966Z</time></trkpt><trkpt lat="42.0460519" lon="13.7405435"><ele>1240.0</ele><time>2026-04-11T10:51:04.966Z</time></trkpt><trkpt lat="42.0461252" lon="13.7406336"><ele>1241.0</ele><time>2026-04-11T10:51:05.966Z</time></trkpt><trkpt lat="42.0476137" lon="13.7434087"><ele>1231.0</ele><time>2026-04-11T10:51:18.966Z</time></trkpt><trkpt lat="42.0474615" lon="13.7436359"><ele>1221.0</ele><time>2026-04-11T10:51:20.966Z</time></trkpt><trkpt lat="42.0475203" lon="13.7437839"><ele>1211.0</ele><time>2026-04-11T10:51:21.966Z</time></trkpt><trkpt lat="42.0475785" lon="13.7439348"><ele>1211.0</ele><time>2026-04-11T10:51:22.966Z</time></trkpt><trkpt lat="42.0476244" lon="13.7440972"><ele>1211.0</ele><time>2026-04-11T10:51:23.966Z</time></trkpt><trkpt lat="42.0476547" lon="13.7442729"><ele>1211.0</ele><time>2026-04-11T10:51:24.966Z</time></trkpt><trkpt lat="42.0476662" lon="13.7444513"><ele>1211.0</ele><time>2026-04-11T10:51:25.966Z</time></trkpt><trkpt lat="42.0476546" lon="13.7446423"><ele>1208.3333333333335</ele><time>2026-04-11T10:51:26.965Z</time></trkpt><trkpt lat="42.0476345" lon="13.7448504"><ele>1205.6666666666667</ele><time>2026-04-11T10:51:27.966Z</time></trkpt><trkpt lat="42.0476078" lon="13.7450625"><ele>1203.0</ele><time>2026-04-11T10:51:28.966Z</time></trkpt><trkpt lat="42.0475742" lon="13.7452736"><ele>1202.6666666666667</ele><time>2026-04-11T10:51:29.965Z</time></trkpt><trkpt lat="42.0475365" lon="13.7454779"><ele>1202.3333333333335</ele><time>2026-04-11T10:51:30.966Z</time></trkpt><trkpt lat="42.0474939" lon="13.74567"><ele>1202.0</ele><time>2026-04-11T10:51:31.966Z</time></trkpt><trkpt lat="42.0474406" lon="13.7458531"><ele>1200.6666666666667</ele><time>2026-04-11T10:51:32.966Z</time></trkpt><trkpt lat="42.047369" lon="13.7460296"><ele>1199.3333333333333</ele><time>2026-04-11T10:51:33.966Z</time></trkpt><trkpt lat="42.0472848" lon="13.7462064"><ele>1198.0</ele><time>2026-04-11T10:51:34.965Z</time></trkpt><trkpt lat="42.047203" lon="13.7463796"><ele>1200.0</ele><time>2026-04-11T10:51:35.966Z</time></trkpt><trkpt lat="42.0471452" lon="13.7465577"><ele>1202.0</ele><time>2026-04-11T10:51:36.966Z</time></trkpt><trkpt lat="42.0471086" lon="13.7467506"><ele>1204.0</ele><time>2026-04-11T10:51:37.966Z</time></trkpt><trkpt lat="42.0470992" lon="13.7469574"><ele>1206.0</ele><time>2026-04-11T10:51:38.966Z</time></trkpt><trkpt lat="42.0470952" lon="13.7471694"><ele>1207.3333333333333</ele><time>2026-04-11T10:51:39.966Z</time></trkpt><trkpt lat="42.0470834" lon="13.7473708"><ele>1208.6666666666665</ele><time>2026-04-11T10:51:40.965Z</time></trkpt><trkpt lat="42.0470615" lon="13.7475706"><ele>1210.0</ele><time>2026-04-11T10:51:41.965Z</time></trkpt><trkpt lat="42.0470249" lon="13.7477738"><ele>1210.25</ele><time>2026-04-11T10:51:42.966Z</time></trkpt><trkpt lat="42.046985" lon="13.7479724"><ele>1210.5</ele><time>2026-04-11T10:51:43.966Z</time></trkpt><trkpt lat="42.0469585" lon="13.7481697"><ele>1210.75</ele><time>2026-04-11T10:51:44.966Z</time></trkpt><trkpt lat="42.046941" lon="13.7483601"><ele>1211.0</ele><time>2026-04-11T10:51:45.966Z</time></trkpt><trkpt lat="42.0469295" lon="13.7485365"><ele>1209.75</ele><time>2026-04-11T10:51:46.966Z</time></trkpt><trkpt lat="42.0469303" lon="13.7487025"><ele>1208.5</ele><time>2026-04-11T10:51:47.966Z</time></trkpt><trkpt lat="42.0469557" lon="13.7488528"><ele>1207.25</ele><time>2026-04-11T10:51:48.966Z</time></trkpt><trkpt lat="42.0470173" lon="13.7489803"><ele>1206.0</ele><time>2026-04-11T10:51:49.965Z</time></trkpt><trkpt lat="42.0471085" lon="13.749069"><ele>1206.0</ele><time>2026-04-11T10:51:50.966Z</time></trkpt><trkpt lat="42.0472266" lon="13.7491254"><ele>1206.0</ele><time>2026-04-11T10:51:51.966Z</time></trkpt><trkpt lat="42.0473595" lon="13.7491603"><ele>1206.0</ele><time>2026-04-11T10:51:52.966Z</time></trkpt><trkpt lat="42.047504" lon="13.7491811"><ele>1206.0</ele><time>2026-04-11T10:51:53.966Z</time></trkpt><trkpt lat="42.0476589" lon="13.7491914"><ele>1201.0</ele><time>2026-04-11T10:51:54.966Z</time></trkpt><trkpt lat="42.0478126" lon="13.7491809"><ele>1196.0</ele><time>2026-04-11T10:51:55.966Z</time></trkpt><trkpt lat="42.0479768" lon="13.7491574"><ele>1191.0</ele><time>2026-04-11T10:51:56.966Z</time></trkpt><trkpt lat="42.048147" lon="13.7491244"><ele>1189.0</ele><time>2026-04-11T10:51:57.966Z</time></trkpt><trkpt lat="42.0483111" lon="13.7490913"><ele>1187.0</ele><time>2026-04-11T10:51:58.966Z</time></trkpt><trkpt lat="42.0484629" lon="13.7490497"><ele>1185.0</ele><time>2026-04-11T10:51:59.966Z</time></trkpt><trkpt lat="42.0486038" lon="13.7489967"><ele>1185.0</ele><time>2026-04-11T10:52:00.966Z</time></trkpt><trkpt lat="42.048735" lon="13.7489251"><ele>1185.0</ele><time>2026-04-11T10:52:01.966Z</time></trkpt><trkpt lat="42.0488534" lon="13.7488516"><ele>1185.0</ele><time>2026-04-11T10:52:02.966Z</time></trkpt><trkpt lat="42.048961" lon="13.7488106"><ele>1185.0</ele><time>2026-04-11T10:52:03.966Z</time></trkpt><trkpt lat="42.0490679" lon="13.7488149"><ele>1183.4</ele><time>2026-04-11T10:52:04.966Z</time></trkpt><trkpt lat="42.0491634" lon="13.7488656"><ele>1181.8</ele><time>2026-04-11T10:52:05.965Z</time></trkpt><trkpt lat="42.0492337" lon="13.7489561"><ele>1180.2</ele><time>2026-04-11T10:52:06.966Z</time></trkpt><trkpt lat="42.0492727" lon="13.749073"><ele>1178.6</ele><time>2026-04-11T10:52:07.966Z</time></trkpt><trkpt lat="42.0492721" lon="13.7492011"><ele>1177.0</ele><time>2026-04-11T10:52:08.966Z</time></trkpt><trkpt lat="42.0492315" lon="13.7493313"><ele>1176.5</ele><time>2026-04-11T10:52:09.965Z</time></trkpt><trkpt lat="42.0491561" lon="13.7494499"><ele>1176.0</ele><time>2026-04-11T10:52:10.966Z</time></trkpt><trkpt lat="42.0490571" lon="13.7495579"><ele>1175.5</ele><time>2026-04-11T10:52:11.965Z</time></trkpt><trkpt lat="42.0489484" lon="13.7496491"><ele>1175.0</ele><time>2026-04-11T10:52:12.965Z</time></trkpt><trkpt lat="42.0488296" lon="13.7497332"><ele>1175.0</ele><time>2026-04-11T10:52:13.966Z</time></trkpt><trkpt lat="42.0486994" lon="13.7497946"><ele>1175.0</ele><time>2026-04-11T10:52:14.966Z</time></trkpt><trkpt lat="42.0485579" lon="13.7498478"><ele>1175.0</ele><time>2026-04-11T10:52:15.965Z</time></trkpt><trkpt lat="42.0484168" lon="13.7499137"><ele>1175.0</ele><time>2026-04-11T10:52:16.966Z</time></trkpt><trkpt lat="42.0482758" lon="13.7500036"><ele>1174.3333333333335</ele><time>2026-04-11T10:52:17.966Z</time></trkpt><trkpt lat="42.0481435" lon="13.7501214"><ele>1173.6666666666667</ele><time>2026-04-11T10:52:18.966Z</time></trkpt><trkpt lat="42.0480312" lon="13.7502634"><ele>1173.0</ele><time>2026-04-11T10:52:19.966Z</time></trkpt><trkpt lat="42.0479319" lon="13.7504186"><ele>1173.0</ele><time>2026-04-11T10:52:20.965Z</time></trkpt><trkpt lat="42.0478443" lon="13.750581"><ele>1173.0</ele><time>2026-04-11T10:52:21.966Z</time></trkpt><trkpt lat="42.0477686" lon="13.7507596"><ele>1173.0</ele><time>2026-04-11T10:52:22.966Z</time></trkpt><trkpt lat="42.0476953" lon="13.7509358"><ele>1173.0</ele><time>2026-04-11T10:52:23.966Z</time></trkpt><trkpt lat="42.0476158" lon="13.7511013"><ele>1173.0</ele><time>2026-04-11T10:52:24.966Z</time></trkpt><trkpt lat="42.0475197" lon="13.7512405"><ele>1173.0</ele><time>2026-04-11T10:52:25.966Z</time></trkpt><trkpt lat="42.0474078" lon="13.7513321"><ele>1173.0</ele><time>2026-04-11T10:52:26.966Z</time></trkpt><trkpt lat="42.0472824" lon="13.751386"><ele>1173.0</ele><time>2026-04-11T10:52:27.966Z</time></trkpt><trkpt lat="42.0471484" lon="13.7514417"><ele>1173.0</ele><time>2026-04-11T10:52:28.965Z</time></trkpt><trkpt lat="42.0470325" lon="13.7515485"><ele>1173.0</ele><time>2026-04-11T10:52:29.966Z</time></trkpt><trkpt lat="42.046939" lon="13.7516957"><ele>1173.0</ele><time>2026-04-11T10:52:30.966Z</time></trkpt><trkpt lat="42.0468538" lon="13.7518532"><ele>1169.3333333333333</ele><time>2026-04-11T10:52:31.966Z</time></trkpt><trkpt lat="42.0467449" lon="13.7519953"><ele>1165.6666666666665</ele><time>2026-04-11T10:52:32.966Z</time></trkpt><trkpt lat="42.0466083" lon="13.7521039"><ele>1162.0</ele><time>2026-04-11T10:52:33.966Z</time></trkpt><trkpt lat="42.0464688" lon="13.7522193"><ele>1162.0</ele><time>2026-04-11T10:52:34.966Z</time></trkpt><trkpt lat="42.0463311" lon="13.7523525"><ele>1162.0</ele><time>2026-04-11T10:52:35.966Z</time></trkpt><trkpt lat="42.0461905" lon="13.7524921"><ele>1162.0</ele><time>2026-04-11T10:52:36.965Z</time></trkpt><trkpt lat="42.0460527" lon="13.7526168"><ele>1154.0</ele><time>2026-04-11T10:52:37.966Z</time></trkpt><trkpt lat="42.045905" lon="13.7527291"><ele>1146.0</ele><time>2026-04-11T10:52:38.966Z</time></trkpt><trkpt lat="42.0457597" lon="13.7528173"><ele>1138.0</ele><time>2026-04-11T10:52:39.966Z</time></trkpt><trkpt lat="42.0456132" lon="13.752884"><ele>1138.0</ele><time>2026-04-11T10:52:40.966Z</time></trkpt><trkpt lat="42.0454601" lon="13.7529256"><ele>1138.0</ele><time>2026-04-11T10:52:41.966Z</time></trkpt><trkpt lat="42.0452989" lon="13.7529611"><ele>1138.0</ele><time>2026-04-11T10:52:42.966Z</time></trkpt><trkpt lat="42.0451392" lon="13.7529936"><ele>1138.0</ele><time>2026-04-11T10:52:43.966Z</time></trkpt><trkpt lat="42.0449803" lon="13.7530275"><ele>1138.0</ele><time>2026-04-11T10:52:44.966Z</time></trkpt><trkpt lat="42.0448242" lon="13.753061"><ele>1138.0</ele><time>2026-04-11T10:52:45.966Z</time></trkpt><trkpt lat="42.0446735" lon="13.7530926"><ele>1140.0</ele><time>2026-04-11T10:52:46.965Z</time></trkpt><trkpt lat="42.0445291" lon="13.7531383"><ele>1142.0</ele><time>2026-04-11T10:52:47.966Z</time></trkpt><trkpt lat="42.0443912" lon="13.7532072"><ele>1144.0</ele><time>2026-04-11T10:52:48.965Z</time></trkpt><trkpt lat="42.0442579" lon="13.7532976"><ele>1146.0</ele><time>2026-04-11T10:52:49.966Z</time></trkpt><trkpt lat="42.0441221" lon="13.7533875"><ele>1143.6666666666667</ele><time>2026-04-11T10:52:50.965Z</time></trkpt><trkpt lat="42.0439765" lon="13.7534768"><ele>1141.3333333333335</ele><time>2026-04-11T10:52:51.966Z</time></trkpt><trkpt lat="42.0438257" lon="13.7535731"><ele>1139.0</ele><time>2026-04-11T10:52:52.966Z</time></trkpt><trkpt lat="42.0436756" lon="13.7536851"><ele>1139.0</ele><time>2026-04-11T10:52:53.966Z</time></trkpt><trkpt lat="42.0435433" lon="13.7538453"><ele>1139.0</ele><time>2026-04-11T10:52:54.966Z</time></trkpt><trkpt lat="42.0434184" lon="13.7540187"><ele>1139.0</ele><time>2026-04-11T10:52:55.966Z</time></trkpt><trkpt lat="42.043301" lon="13.7542016"><ele>1140.6666666666667</ele><time>2026-04-11T10:52:56.965Z</time></trkpt><trkpt lat="42.0431877" lon="13.7543832"><ele>1142.3333333333333</ele><time>2026-04-11T10:52:57.965Z</time></trkpt><trkpt lat="42.043073" lon="13.7545668"><ele>1144.0</ele><time>2026-04-11T10:52:58.966Z</time></trkpt><trkpt lat="42.0429624" lon="13.7547534"><ele>1144.0</ele><time>2026-04-11T10:52:59.966Z</time></trkpt><trkpt lat="42.0428647" lon="13.7549339"><ele>1144.0</ele><time>2026-04-11T10:53:00.966Z</time></trkpt><trkpt lat="42.0427724" lon="13.7551223"><ele>1144.0</ele><time>2026-04-11T10:53:01.965Z</time></trkpt><trkpt lat="42.0426935" lon="13.7553031"><ele>1139.3333333333333</ele><time>2026-04-11T10:53:02.966Z</time></trkpt><trkpt lat="42.0426205" lon="13.7554843"><ele>1134.6666666666667</ele><time>2026-04-11T10:53:03.965Z</time></trkpt><trkpt lat="42.0425484" lon="13.7556676"><ele>1130.0</ele><time>2026-04-11T10:53:04.966Z</time></trkpt><trkpt lat="42.0424821" lon="13.7558408"><ele>1131.0</ele><time>2026-04-11T10:53:05.966Z</time></trkpt><trkpt lat="42.0424129" lon="13.7560096"><ele>1132.0</ele><time>2026-04-11T10:53:06.966Z</time></trkpt><trkpt lat="42.0423402" lon="13.7561861"><ele>1133.0</ele><time>2026-04-11T10:53:07.966Z</time></trkpt><trkpt lat="42.0422655" lon="13.7563741"><ele>1133.0</ele><time>2026-04-11T10:53:08.966Z</time></trkpt><trkpt lat="42.0421853" lon="13.7565644"><ele>1133.0</ele><time>2026-04-11T10:53:09.966Z</time></trkpt><trkpt lat="42.0421031" lon="13.7567702"><ele>1133.0</ele><time>2026-04-11T10:53:10.966Z</time></trkpt><trkpt lat="42.042017" lon="13.7569852"><ele>1128.3333333333335</ele><time>2026-04-11T10:53:11.966Z</time></trkpt><trkpt lat="42.0419276" lon="13.7571994"><ele>1123.6666666666667</ele><time>2026-04-11T10:53:12.966Z</time></trkpt><trkpt lat="42.0418335" lon="13.757403"><ele>1119.0</ele><time>2026-04-11T10:53:13.966Z</time></trkpt><trkpt lat="42.0417451" lon="13.7576129"><ele>1120.3333333333333</ele><time>2026-04-11T10:53:14.966Z</time></trkpt><trkpt lat="42.041654" lon="13.7578163"><ele>1121.6666666666665</ele><time>2026-04-11T10:53:15.966Z</time></trkpt><trkpt lat="42.0415623" lon="13.7580132"><ele>1123.0</ele><time>2026-04-11T10:53:16.966Z</time></trkpt><trkpt lat="42.0414675" lon="13.7582124"><ele>1123.0</ele><time>2026-04-11T10:53:17.966Z</time></trkpt><trkpt lat="42.0413638" lon="13.7583784"><ele>1123.0</ele><time>2026-04-11T10:53:18.966Z</time></trkpt><trkpt lat="42.0412525" lon="13.7585285"><ele>1123.0</ele><time>2026-04-11T10:53:19.966Z</time></trkpt><trkpt lat="42.0411426" lon="13.7586783"><ele>1123.25</ele><time>2026-04-11T10:53:20.966Z</time></trkpt><trkpt lat="42.0410356" lon="13.7588229"><ele>1123.5</ele><time>2026-04-11T10:53:21.966Z</time></trkpt><trkpt lat="42.0409331" lon="13.7589658"><ele>1123.75</ele><time>2026-04-11T10:53:22.965Z</time></trkpt><trkpt lat="42.040831" lon="13.7591031"><ele>1124.0</ele><time>2026-04-11T10:53:23.966Z</time></trkpt><trkpt lat="42.0407318" lon="13.7592398"><ele>1120.0</ele><time>2026-04-11T10:53:24.966Z</time></trkpt><trkpt lat="42.0406311" lon="13.7593754"><ele>1116.0</ele><time>2026-04-11T10:53:25.966Z</time></trkpt><trkpt lat="42.0405392" lon="13.7595226"><ele>1112.0</ele><time>2026-04-11T10:53:26.966Z</time></trkpt><trkpt lat="42.0404681" lon="13.7596964"><ele>1108.0</ele><time>2026-04-11T10:53:27.966Z</time></trkpt><trkpt lat="42.0404224" lon="13.7598936"><ele>1108.0</ele><time>2026-04-11T10:53:28.966Z</time></trkpt><trkpt lat="42.0404071" lon="13.7600994"><ele>1108.0</ele><time>2026-04-11T10:53:29.966Z</time></trkpt><trkpt lat="42.040424" lon="13.7602995"><ele>1108.0</ele><time>2026-04-11T10:53:30.966Z</time></trkpt><trkpt lat="42.0404665" lon="13.7604972"><ele>1104.0</ele><time>2026-04-11T10:53:31.966Z</time></trkpt><trkpt lat="42.0405268" lon="13.7606946"><ele>1100.0</ele><time>2026-04-11T10:53:32.966Z</time></trkpt><trkpt lat="42.0405904" lon="13.7608892"><ele>1096.0</ele><time>2026-04-11T10:53:33.966Z</time></trkpt><trkpt lat="42.0406514" lon="13.7610702"><ele>1096.75</ele><time>2026-04-11T10:53:34.966Z</time></trkpt><trkpt lat="42.0407112" lon="13.7612589"><ele>1097.5</ele><time>2026-04-11T10:53:35.966Z</time></trkpt><trkpt lat="42.0407671" lon="13.7614303"><ele>1098.25</ele><time>2026-04-11T10:53:36.965Z</time></trkpt><trkpt lat="42.0408282" lon="13.7616047"><ele>1099.0</ele><time>2026-04-11T10:53:37.966Z</time></trkpt><trkpt lat="42.0408771" lon="13.7617684"><ele>1099.0</ele><time>2026-04-11T10:53:38.966Z</time></trkpt><trkpt lat="42.0409145" lon="13.7619224"><ele>1099.0</ele><time>2026-04-11T10:53:39.966Z</time></trkpt><trkpt lat="42.0409473" lon="13.7620704"><ele>1099.0</ele><time>2026-04-11T10:53:40.965Z</time></trkpt><trkpt lat="42.0409502" lon="13.7622214"><ele>1099.0</ele><time>2026-04-11T10:53:41.966Z</time></trkpt><trkpt lat="42.0409163" lon="13.7623767"><ele>1099.0</ele><time>2026-04-11T10:53:42.966Z</time></trkpt><trkpt lat="42.0408471" lon="13.7625252"><ele>1099.0</ele><time>2026-04-11T10:53:43.966Z</time></trkpt><trkpt lat="42.0407467" lon="13.7626629"><ele>1099.0</ele><time>2026-04-11T10:53:44.966Z</time></trkpt><trkpt lat="42.0406333" lon="13.7628098"><ele>1099.0</ele><time>2026-04-11T10:53:45.966Z</time></trkpt><trkpt lat="42.040509" lon="13.7629669"><ele>1094.6666666666665</ele><time>2026-04-11T10:53:46.966Z</time></trkpt><trkpt lat="42.0403736" lon="13.763134"><ele>1090.3333333333333</ele><time>2026-04-11T10:53:47.966Z</time></trkpt><trkpt lat="42.0402417" lon="13.7633029"><ele>1086.0</ele><time>2026-04-11T10:53:48.966Z</time></trkpt><trkpt lat="42.0401059" lon="13.7634679"><ele>1083.3333333333333</ele><time>2026-04-11T10:53:49.966Z</time></trkpt><trkpt lat="42.0399672" lon="13.7636343"><ele>1080.6666666666665</ele><time>2026-04-11T10:53:50.965Z</time></trkpt><trkpt lat="42.0398345" lon="13.7637982"><ele>1078.0</ele><time>2026-04-11T10:53:51.966Z</time></trkpt><trkpt lat="42.0397026" lon="13.7639599"><ele>1078.0</ele><time>2026-04-11T10:53:52.966Z</time></trkpt><trkpt lat="42.0395674" lon="13.76412"><ele>1078.0</ele><time>2026-04-11T10:53:53.966Z</time></trkpt><trkpt lat="42.0394281" lon="13.7642797"><ele>1078.0</ele><time>2026-04-11T10:53:54.965Z</time></trkpt><trkpt lat="42.039287" lon="13.764433"><ele>1075.0</ele><time>2026-04-11T10:53:55.966Z</time></trkpt><trkpt lat="42.039151" lon="13.7645833"><ele>1072.0</ele><time>2026-04-11T10:53:56.966Z</time></trkpt><trkpt lat="42.039017" lon="13.7647427"><ele>1069.0</ele><time>2026-04-11T10:53:57.965Z</time></trkpt><trkpt lat="42.0388888" lon="13.7649149"><ele>1069.0</ele><time>2026-04-11T10:53:58.966Z</time></trkpt><trkpt lat="42.038769" lon="13.7650999"><ele>1069.0</ele><time>2026-04-11T10:53:59.966Z</time></trkpt><trkpt lat="42.0386583" lon="13.765302"><ele>1069.0</ele><time>2026-04-11T10:54:00.966Z</time></trkpt><trkpt lat="42.038555" lon="13.7655134"><ele>1066.0</ele><time>2026-04-11T10:54:01.966Z</time></trkpt><trkpt lat="42.038461" lon="13.7657331"><ele>1063.0</ele><time>2026-04-11T10:54:02.966Z</time></trkpt><trkpt lat="42.0383591" lon="13.7659472"><ele>1060.0</ele><time>2026-04-11T10:54:03.966Z</time></trkpt><trkpt lat="42.0382487" lon="13.7661623"><ele>1060.0</ele><time>2026-04-11T10:54:04.966Z</time></trkpt><trkpt lat="42.0381378" lon="13.7663673"><ele>1060.0</ele><time>2026-04-11T10:54:05.966Z</time></trkpt><trkpt lat="42.0380194" lon="13.7665712"><ele>1060.0</ele><time>2026-04-11T10:54:06.966Z</time></trkpt><trkpt lat="42.037908" lon="13.7667822"><ele>1066.0</ele><time>2026-04-11T10:54:07.966Z</time></trkpt><trkpt lat="42.0377919" lon="13.7669689"><ele>1072.0</ele><time>2026-04-11T10:54:08.966Z</time></trkpt><trkpt lat="42.0376665" lon="13.7671319"><ele>1078.0</ele><time>2026-04-11T10:54:09.966Z</time></trkpt><trkpt lat="42.0375402" lon="13.7672818"><ele>1068.75</ele><time>2026-04-11T10:54:10.966Z</time></trkpt><trkpt lat="42.0374263" lon="13.7674257"><ele>1059.5</ele><time>2026-04-11T10:54:11.966Z</time></trkpt><trkpt lat="42.0373176" lon="13.7675586"><ele>1050.25</ele><time>2026-04-11T10:54:12.965Z</time></trkpt><trkpt lat="42.0372166" lon="13.7676831"><ele>1041.0</ele><time>2026-04-11T10:54:13.966Z</time></trkpt><trkpt lat="42.0371404" lon="13.7678228"><ele>1041.0</ele><time>2026-04-11T10:54:14.966Z</time></trkpt><trkpt lat="42.037102" lon="13.7679907"><ele>1041.0</ele><time>2026-04-11T10:54:15.966Z</time></trkpt><trkpt lat="42.0370897" lon="13.7681723"><ele>1041.0</ele><time>2026-04-11T10:54:16.965Z</time></trkpt><trkpt lat="42.0370737" lon="13.7683654"><ele>1041.0</ele><time>2026-04-11T10:54:17.966Z</time></trkpt><trkpt lat="42.037025" lon="13.7685486"><ele>1044.6666666666667</ele><time>2026-04-11T10:54:18.966Z</time></trkpt><trkpt lat="42.0369621" lon="13.7687472"><ele>1048.3333333333335</ele><time>2026-04-11T10:54:19.965Z</time></trkpt><trkpt lat="42.0368925" lon="13.7689484"><ele>1052.0</ele><time>2026-04-11T10:54:20.965Z</time></trkpt><trkpt lat="42.0368266" lon="13.7691636"><ele>1054.6666666666667</ele><time>2026-04-11T10:54:21.966Z</time></trkpt><trkpt lat="42.0367607" lon="13.7693827"><ele>1057.3333333333333</ele><time>2026-04-11T10:54:22.966Z</time></trkpt><trkpt lat="42.0366964" lon="13.7696003"><ele>1060.0</ele><time>2026-04-11T10:54:23.966Z</time></trkpt><trkpt lat="42.0366347" lon="13.769823"><ele>1047.0</ele><time>2026-04-11T10:54:24.966Z</time></trkpt><trkpt lat="42.0365809" lon="13.7700398"><ele>1034.0</ele><time>2026-04-11T10:54:25.966Z</time></trkpt><trkpt lat="42.0365343" lon="13.7702532"><ele>1021.0</ele><time>2026-04-11T10:54:26.966Z</time></trkpt><trkpt lat="42.0364989" lon="13.7704632"><ele>1021.0</ele><time>2026-04-11T10:54:27.965Z</time></trkpt><trkpt lat="42.0364744" lon="13.7706709"><ele>1021.0</ele><time>2026-04-11T10:54:28.966Z</time></trkpt><trkpt lat="42.036464" lon="13.7708694"><ele>1021.0</ele><time>2026-04-11T10:54:29.966Z</time></trkpt><trkpt lat="42.0364644" lon="13.7710459"><ele>1021.0</ele><time>2026-04-11T10:54:30.965Z</time></trkpt><trkpt lat="42.0364852" lon="13.7712065"><ele>1020.5999999999999</ele><time>2026-04-11T10:54:31.966Z</time></trkpt><trkpt lat="42.0365195" lon="13.7713529"><ele>1020.1999999999999</ele><time>2026-04-11T10:54:32.966Z</time></trkpt><trkpt lat="42.0365734" lon="13.7714691"><ele>1019.8000000000001</ele><time>2026-04-11T10:54:33.966Z</time></trkpt><trkpt lat="42.0366448" lon="13.7715616"><ele>1019.4000000000001</ele><time>2026-04-11T10:54:34.966Z</time></trkpt><trkpt lat="42.0367366" lon="13.7716339"><ele>1019.0</ele><time>2026-04-11T10:54:35.966Z</time></trkpt><trkpt lat="42.0368485" lon="13.7716952"><ele>1027.5</ele><time>2026-04-11T10:54:36.966Z</time></trkpt><trkpt lat="42.0369769" lon="13.7717407"><ele>1036.0</ele><time>2026-04-11T10:54:37.966Z</time></trkpt><trkpt lat="42.0371181" lon="13.7717685"><ele>1044.5</ele><time>2026-04-11T10:54:38.966Z</time></trkpt><trkpt lat="42.0372711" lon="13.7717817"><ele>1053.0</ele><time>2026-04-11T10:54:39.966Z</time></trkpt><trkpt lat="42.037441" lon="13.7717868"><ele>1054.3333333333333</ele><time>2026-04-11T10:54:40.966Z</time></trkpt><trkpt lat="42.037623" lon="13.7717925"><ele>1055.6666666666665</ele><time>2026-04-11T10:54:41.966Z</time></trkpt><trkpt lat="42.0378158" lon="13.7718078"><ele>1057.0</ele><time>2026-04-11T10:54:42.966Z</time></trkpt><trkpt lat="42.0380171" lon="13.7718383"><ele>1043.3333333333333</ele><time>2026-04-11T10:54:43.966Z</time></trkpt><trkpt lat="42.0382213" lon="13.7718693"><ele>1029.6666666666667</ele><time>2026-04-11T10:54:44.966Z</time></trkpt><trkpt lat="42.038435" lon="13.7718959"><ele>1016.0</ele><time>2026-04-11T10:54:45.966Z</time></trkpt><trkpt lat="42.0386526" lon="13.7719074"><ele>1015.3333333333334</ele><time>2026-04-11T10:54:46.966Z</time></trkpt><trkpt lat="42.038868" lon="13.7718982"><ele>1014.6666666666667</ele><time>2026-04-11T10:54:47.965Z</time></trkpt><trkpt lat="42.0390818" lon="13.7718779"><ele>1014.0</ele><time>2026-04-11T10:54:48.966Z</time></trkpt><trkpt lat="42.0392929" lon="13.7718667"><ele>1014.0</ele><time>2026-04-11T10:54:49.966Z</time></trkpt><trkpt lat="42.0395012" lon="13.771861"><ele>1014.0</ele><time>2026-04-11T10:54:50.966Z</time></trkpt><trkpt lat="42.0397093" lon="13.7718613"><ele>1014.0</ele><time>2026-04-11T10:54:51.966Z</time></trkpt><trkpt lat="42.0399233" lon="13.7718745"><ele>1013.6666666666667</ele><time>2026-04-11T10:54:52.966Z</time></trkpt><trkpt lat="42.0401415" lon="13.7718878"><ele>1013.3333333333334</ele><time>2026-04-11T10:54:53.966Z</time></trkpt><trkpt lat="42.0403623" lon="13.7719081"><ele>1013.0</ele><time>2026-04-11T10:54:54.966Z</time></trkpt><trkpt lat="42.040579" lon="13.7719286"><ele>1013.0</ele><time>2026-04-11T10:54:55.966Z</time></trkpt><trkpt lat="42.0407904" lon="13.7719423"><ele>1013.0</ele><time>2026-04-11T10:54:56.965Z</time></trkpt><trkpt lat="42.0409955" lon="13.7719621"><ele>1013.0</ele><time>2026-04-11T10:54:57.966Z</time></trkpt><trkpt lat="42.0411922" lon="13.7719767"><ele>1012.3333333333334</ele><time>2026-04-11T10:54:58.966Z</time></trkpt><trkpt lat="42.0413894" lon="13.7719977"><ele>1011.6666666666667</ele><time>2026-04-11T10:54:59.966Z</time></trkpt><trkpt lat="42.0415836" lon="13.7720177"><ele>1011.0</ele><time>2026-04-11T10:55:00.966Z</time></trkpt><trkpt lat="42.0417751" lon="13.7720378"><ele>1011.0</ele><time>2026-04-11T10:55:01.965Z</time></trkpt><trkpt lat="42.0419659" lon="13.7720542"><ele>1011.0</ele><time>2026-04-11T10:55:02.966Z</time></trkpt><trkpt lat="42.0421596" lon="13.7720756"><ele>1011.0</ele><time>2026-04-11T10:55:03.966Z</time></trkpt><trkpt lat="42.0423613" lon="13.7720981"><ele>1010.6666666666667</ele><time>2026-04-11T10:55:04.966Z</time></trkpt><trkpt lat="42.0425698" lon="13.7721165"><ele>1010.3333333333334</ele><time>2026-04-11T10:55:05.966Z</time></trkpt><trkpt lat="42.0427789" lon="13.7721348"><ele>1010.0</ele><time>2026-04-11T10:55:06.965Z</time></trkpt><trkpt lat="42.0429931" lon="13.7721519"><ele>1010.0</ele><time>2026-04-11T10:55:07.966Z</time></trkpt><trkpt lat="42.0432119" lon="13.7721692"><ele>1010.0</ele><time>2026-04-11T10:55:08.966Z</time></trkpt><trkpt lat="42.0434337" lon="13.7721704"><ele>1010.0</ele><time>2026-04-11T10:55:09.966Z</time></trkpt><trkpt lat="42.0436513" lon="13.7721608"><ele>1009.3333333333334</ele><time>2026-04-11T10:55:10.966Z</time></trkpt><trkpt lat="42.0438608" lon="13.7721441"><ele>1008.6666666666667</ele><time>2026-04-11T10:55:11.966Z</time></trkpt><trkpt lat="42.0440652" lon="13.7721335"><ele>1008.0</ele><time>2026-04-11T10:55:12.966Z</time></trkpt><trkpt lat="42.0442658" lon="13.7721343"><ele>1006.3333333333333</ele><time>2026-04-11T10:55:13.966Z</time></trkpt><trkpt lat="42.0444583" lon="13.7721625"><ele>1004.6666666666666</ele><time>2026-04-11T10:55:14.966Z</time></trkpt><trkpt lat="42.0446421" lon="13.7722194"><ele>1003.0</ele><time>2026-04-11T10:55:15.965Z</time></trkpt><trkpt lat="42.0448183" lon="13.7722871"><ele>1005.3333333333333</ele><time>2026-04-11T10:55:16.966Z</time></trkpt><trkpt lat="42.0449937" lon="13.7723592"><ele>1007.6666666666667</ele><time>2026-04-11T10:55:17.966Z</time></trkpt><trkpt lat="42.0451525" lon="13.7724229"><ele>1010.0</ele><time>2026-04-11T10:55:18.966Z</time></trkpt><trkpt lat="42.0453041" lon="13.7724913"><ele>1010.0</ele><time>2026-04-11T10:55:19.966Z</time></trkpt><trkpt lat="42.045446" lon="13.7725699"><ele>1010.0</ele><time>2026-04-11T10:55:20.965Z</time></trkpt><trkpt lat="42.0455739" lon="13.7726721"><ele>1010.0</ele><time>2026-04-11T10:55:21.966Z</time></trkpt><trkpt lat="42.0456861" lon="13.7728034"><ele>1007.6666666666667</ele><time>2026-04-11T10:55:22.966Z</time></trkpt><trkpt lat="42.0457925" lon="13.7729434"><ele>1005.3333333333333</ele><time>2026-04-11T10:55:23.966Z</time></trkpt><trkpt lat="42.045889" lon="13.7731018"><ele>1003.0</ele><time>2026-04-11T10:55:24.966Z</time></trkpt><trkpt lat="42.0459782" lon="13.7732823"><ele>1003.0</ele><time>2026-04-11T10:55:25.966Z</time></trkpt><trkpt lat="42.0460547" lon="13.7734782"><ele>1003.0</ele><time>2026-04-11T10:55:26.966Z</time></trkpt><trkpt lat="42.0461301" lon="13.7736825"><ele>1003.0</ele><time>2026-04-11T10:55:27.965Z</time></trkpt><trkpt lat="42.0462069" lon="13.7738749"><ele>997.6666666666666</ele><time>2026-04-11T10:55:28.966Z</time></trkpt><trkpt lat="42.0463049" lon="13.7740615"><ele>992.3333333333333</ele><time>2026-04-11T10:55:29.966Z</time></trkpt><trkpt lat="42.046426" lon="13.7742333"><ele>987.0</ele><time>2026-04-11T10:55:30.966Z</time></trkpt><trkpt lat="42.0465577" lon="13.7743973"><ele>987.0</ele><time>2026-04-11T10:55:31.966Z</time></trkpt><trkpt lat="42.0466939" lon="13.7745726"><ele>987.0</ele><time>2026-04-11T10:55:32.966Z</time></trkpt><trkpt lat="42.0468295" lon="13.7747624"><ele>987.0</ele><time>2026-04-11T10:55:33.966Z</time></trkpt><trkpt lat="42.0469643" lon="13.7749489"><ele>987.0</ele><time>2026-04-11T10:55:34.966Z</time></trkpt><trkpt lat="42.0471008" lon="13.7751313"><ele>987.0</ele><time>2026-04-11T10:55:35.966Z</time></trkpt><trkpt lat="42.0472435" lon="13.7752995"><ele>987.0</ele><time>2026-04-11T10:55:36.966Z</time></trkpt><trkpt lat="42.0473889" lon="13.7754477"><ele>986.6666666666667</ele><time>2026-04-11T10:55:37.966Z</time></trkpt><trkpt lat="42.0475346" lon="13.7755887"><ele>986.3333333333334</ele><time>2026-04-11T10:55:38.966Z</time></trkpt><trkpt lat="42.0476731" lon="13.7757299"><ele>986.0</ele><time>2026-04-11T10:55:39.966Z</time></trkpt><trkpt lat="42.0478056" lon="13.775857"><ele>986.0</ele><time>2026-04-11T10:55:40.965Z</time></trkpt><trkpt lat="42.0479267" lon="13.7759598"><ele>986.0</ele><time>2026-04-11T10:55:41.966Z</time></trkpt><trkpt lat="42.0480291" lon="13.7760491"><ele>986.0</ele><time>2026-04-11T10:55:42.966Z</time></trkpt><trkpt lat="42.0481069" lon="13.7761468"><ele>986.0</ele><time>2026-04-11T10:55:43.966Z</time></trkpt><trkpt lat="42.048153" lon="13.7762733"><ele>986.5999999999999</ele><time>2026-04-11T10:55:44.966Z</time></trkpt><trkpt lat="42.0481719" lon="13.7764145"><ele>987.1999999999999</ele><time>2026-04-11T10:55:45.966Z</time></trkpt><trkpt lat="42.0481664" lon="13.7765584"><ele>987.8000000000001</ele><time>2026-04-11T10:55:46.966Z</time></trkpt><trkpt lat="42.0481277" lon="13.7767003"><ele>988.4000000000001</ele><time>2026-04-11T10:55:47.965Z</time></trkpt><trkpt lat="42.0480483" lon="13.7768155"><ele>989.0</ele><time>2026-04-11T10:55:48.966Z</time></trkpt><trkpt lat="42.0479369" lon="13.7769054"><ele>989.0</ele><time>2026-04-11T10:55:49.966Z</time></trkpt><trkpt lat="42.0478075" lon="13.7769929"><ele>989.0</ele><time>2026-04-11T10:55:50.966Z</time></trkpt><trkpt lat="42.0476716" lon="13.7770816"><ele>989.0</ele><time>2026-04-11T10:55:51.966Z</time></trkpt><trkpt lat="42.0475312" lon="13.7771844"><ele>981.3333333333334</ele><time>2026-04-11T10:55:52.966Z</time></trkpt><trkpt lat="42.0473918" lon="13.7773085"><ele>973.6666666666667</ele><time>2026-04-11T10:55:53.966Z</time></trkpt><trkpt lat="42.0472568" lon="13.7774592"><ele>966.0</ele><time>2026-04-11T10:55:54.966Z</time></trkpt><trkpt lat="42.0471196" lon="13.7776274"><ele>970.6666666666667</ele><time>2026-04-11T10:55:55.966Z</time></trkpt><trkpt lat="42.0469825" lon="13.7777991"><ele>975.3333333333334</ele><time>2026-04-11T10:55:56.965Z</time></trkpt><trkpt lat="42.0468415" lon="13.7779827"><ele>980.0</ele><time>2026-04-11T10:55:57.966Z</time></trkpt><trkpt lat="42.0467014" lon="13.7781763"><ele>976.0</ele><time>2026-04-11T10:55:58.966Z</time></trkpt><trkpt lat="42.0465615" lon="13.778379"><ele>972.0</ele><time>2026-04-11T10:55:59.966Z</time></trkpt><trkpt lat="42.0464137" lon="13.7785839"><ele>968.0</ele><time>2026-04-11T10:56:00.966Z</time></trkpt><trkpt lat="42.0462521" lon="13.7787734"><ele>968.0</ele><time>2026-04-11T10:56:01.966Z</time></trkpt><trkpt lat="42.0460776" lon="13.7789596"><ele>968.0</ele><time>2026-04-11T10:56:02.965Z</time></trkpt><trkpt lat="42.0459084" lon="13.7791565"><ele>968.0</ele><time>2026-04-11T10:56:03.966Z</time></trkpt><trkpt lat="42.0457481" lon="13.7793724"><ele>962.0</ele><time>2026-04-11T10:56:04.966Z</time></trkpt><trkpt lat="42.0455874" lon="13.7795941"><ele>956.0</ele><time>2026-04-11T10:56:05.966Z</time></trkpt><trkpt lat="42.0454265" lon="13.7798094"><ele>956.0</ele><time>2026-04-11T10:56:06.966Z</time></trkpt><trkpt lat="42.0452693" lon="13.7800209"><ele>956.0</ele><time>2026-04-11T10:56:07.966Z</time></trkpt><trkpt lat="42.0451157" lon="13.7802383"><ele>956.0</ele><time>2026-04-11T10:56:08.966Z</time></trkpt><trkpt lat="42.044964" lon="13.7804509"><ele>959.0</ele><time>2026-04-11T10:56:09.966Z</time></trkpt><trkpt lat="42.0448054" lon="13.7806513"><ele>962.0</ele><time>2026-04-11T10:56:10.966Z</time></trkpt><trkpt lat="42.0446383" lon="13.7808367"><ele>965.0</ele><time>2026-04-11T10:56:11.966Z</time></trkpt><trkpt lat="42.0444716" lon="13.7810207"><ele>965.0</ele><time>2026-04-11T10:56:12.966Z</time></trkpt><trkpt lat="42.0443107" lon="13.7811998"><ele>965.0</ele><time>2026-04-11T10:56:13.965Z</time></trkpt><trkpt lat="42.0441563" lon="13.7813714"><ele>965.0</ele><time>2026-04-11T10:56:14.965Z</time></trkpt><trkpt lat="42.0440099" lon="13.7815356"><ele>968.3333333333334</ele><time>2026-04-11T10:56:15.966Z</time></trkpt><trkpt lat="42.0438711" lon="13.7816818"><ele>971.6666666666667</ele><time>2026-04-11T10:56:16.966Z</time></trkpt><trkpt lat="42.043726" lon="13.7818092"><ele>975.0</ele><time>2026-04-11T10:56:17.966Z</time></trkpt><trkpt lat="42.043572" lon="13.7819031"><ele>975.0</ele><time>2026-04-11T10:56:18.966Z</time></trkpt><trkpt lat="42.0434142" lon="13.7819693"><ele>975.0</ele><time>2026-04-11T10:56:19.966Z</time></trkpt><trkpt lat="42.0432618" lon="13.7820291"><ele>975.0</ele><time>2026-04-11T10:56:20.966Z</time></trkpt><trkpt lat="42.0431125" lon="13.782071"><ele>973.5</ele><time>2026-04-11T10:56:21.966Z</time></trkpt><trkpt lat="42.0429589" lon="13.7820753"><ele>972.0</ele><time>2026-04-11T10:56:22.966Z</time></trkpt><trkpt lat="42.0428185" lon="13.7820215"><ele>970.5</ele><time>2026-04-11T10:56:23.966Z</time></trkpt><trkpt lat="42.0426925" lon="13.78194"><ele>969.0</ele><time>2026-04-11T10:56:24.965Z</time></trkpt><trkpt lat="42.042563" lon="13.7818822"><ele>964.3333333333333</ele><time>2026-04-11T10:56:25.966Z</time></trkpt><trkpt lat="42.0424189" lon="13.7818559"><ele>959.6666666666666</ele><time>2026-04-11T10:56:26.966Z</time></trkpt><trkpt lat="42.0422652" lon="13.7818658"><ele>955.0</ele><time>2026-04-11T10:56:27.966Z</time></trkpt><trkpt lat="42.04211" lon="13.7819067"><ele>955.0</ele><time>2026-04-11T10:56:28.966Z</time></trkpt><trkpt lat="42.0419496" lon="13.7819744"><ele>955.0</ele><time>2026-04-11T10:56:29.966Z</time></trkpt><trkpt lat="42.0417794" lon="13.7820597"><ele>955.0</ele><time>2026-04-11T10:56:30.965Z</time></trkpt><trkpt lat="42.0416043" lon="13.782155"><ele>947.3333333333333</ele><time>2026-04-11T10:56:31.966Z</time></trkpt><trkpt lat="42.0414231" lon="13.7822565"><ele>939.6666666666667</ele><time>2026-04-11T10:56:32.966Z</time></trkpt><trkpt lat="42.0412415" lon="13.7823602"><ele>932.0</ele><time>2026-04-11T10:56:33.966Z</time></trkpt><trkpt lat="42.0410674" lon="13.7824744"><ele>932.0</ele><time>2026-04-11T10:56:34.966Z</time></trkpt><trkpt lat="42.040899" lon="13.7825884"><ele>932.0</ele><time>2026-04-11T10:56:35.965Z</time></trkpt><trkpt lat="42.0407351" lon="13.7827081"><ele>932.0</ele><time>2026-04-11T10:56:36.966Z</time></trkpt><trkpt lat="42.0405815" lon="13.7828372"><ele>932.6666666666667</ele><time>2026-04-11T10:56:37.965Z</time></trkpt><trkpt lat="42.0404299" lon="13.7829766"><ele>933.3333333333333</ele><time>2026-04-11T10:56:38.966Z</time></trkpt><trkpt lat="42.0402826" lon="13.7831125"><ele>934.0</ele><time>2026-04-11T10:56:39.966Z</time></trkpt><trkpt lat="42.0401258" lon="13.7832366"><ele>929.6666666666666</ele><time>2026-04-11T10:56:40.966Z</time></trkpt><trkpt lat="42.0399535" lon="13.7833276"><ele>925.3333333333333</ele><time>2026-04-11T10:56:41.966Z</time></trkpt><trkpt lat="42.0397702" lon="13.7833954"><ele>921.0</ele><time>2026-04-11T10:56:42.965Z</time></trkpt><trkpt lat="42.039577" lon="13.7834512"><ele>921.0</ele><time>2026-04-11T10:56:43.966Z</time></trkpt><trkpt lat="42.0393816" lon="13.7834942"><ele>921.0</ele><time>2026-04-11T10:56:44.966Z</time></trkpt><trkpt lat="42.0391898" lon="13.7835269"><ele>921.0</ele><time>2026-04-11T10:56:45.966Z</time></trkpt><trkpt lat="42.0390053" lon="13.7835581"><ele>932.0</ele><time>2026-04-11T10:56:46.966Z</time></trkpt><trkpt lat="42.0388256" lon="13.7835904"><ele>943.0</ele><time>2026-04-11T10:56:47.966Z</time></trkpt><trkpt lat="42.0386551" lon="13.7836044"><ele>954.0</ele><time>2026-04-11T10:56:48.966Z</time></trkpt><trkpt lat="42.0384776" lon="13.7835978"><ele>950.3333333333333</ele><time>2026-04-11T10:56:49.965Z</time></trkpt><trkpt lat="42.0382917" lon="13.7835594"><ele>946.6666666666666</ele><time>2026-04-11T10:56:50.966Z</time></trkpt><trkpt lat="42.0381015" lon="13.7835207"><ele>943.0</ele><time>2026-04-11T10:56:51.966Z</time></trkpt><trkpt lat="42.0379037" lon="13.7834822"><ele>935.0</ele><time>2026-04-11T10:56:52.966Z</time></trkpt><trkpt lat="42.0377144" lon="13.7834604"><ele>927.0</ele><time>2026-04-11T10:56:53.966Z</time></trkpt><trkpt lat="42.0375321" lon="13.7834534"><ele>919.0</ele><time>2026-04-11T10:56:54.966Z</time></trkpt><trkpt lat="42.0373567" lon="13.7834596"><ele>918.3333333333333</ele><time>2026-04-11T10:56:55.965Z</time></trkpt><trkpt lat="42.037189" lon="13.7834848"><ele>917.6666666666667</ele><time>2026-04-11T10:56:56.966Z</time></trkpt><trkpt lat="42.0370363" lon="13.7835464"><ele>917.0</ele><time>2026-04-11T10:56:57.966Z</time></trkpt><trkpt lat="42.036909" lon="13.7836438"><ele>915.75</ele><time>2026-04-11T10:56:58.966Z</time></trkpt><trkpt lat="42.0368133" lon="13.7837753"><ele>914.5</ele><time>2026-04-11T10:56:59.966Z</time></trkpt><trkpt lat="42.036744" lon="13.7839215"><ele>913.25</ele><time>2026-04-11T10:57:00.965Z</time></trkpt><trkpt lat="42.0366737" lon="13.7840471"><ele>912.0</ele><time>2026-04-11T10:57:01.966Z</time></trkpt><trkpt lat="42.0365917" lon="13.78413"><ele>912.0</ele><time>2026-04-11T10:57:02.965Z</time></trkpt><trkpt lat="42.0365048" lon="13.7841734"><ele>912.0</ele><time>2026-04-11T10:57:03.966Z</time></trkpt><trkpt lat="42.0364186" lon="13.784168"><ele>912.0</ele><time>2026-04-11T10:57:04.966Z</time></trkpt><trkpt lat="42.0363345" lon="13.7841223"><ele>912.0</ele><time>2026-04-11T10:57:05.966Z</time></trkpt><trkpt lat="42.0362732" lon="13.7840359"><ele>912.0</ele><time>2026-04-11T10:57:06.965Z</time></trkpt><trkpt lat="42.0362393" lon="13.7839215"><ele>912.0</ele><time>2026-04-11T10:57:07.966Z</time></trkpt><trkpt lat="42.0362384" lon="13.7837939"><ele>912.0</ele><time>2026-04-11T10:57:08.966Z</time></trkpt><trkpt lat="42.0362748" lon="13.7836805"><ele>912.0</ele><time>2026-04-11T10:57:09.966Z</time></trkpt><trkpt lat="42.0363427" lon="13.7835876"><ele>912.0</ele><time>2026-04-11T10:57:10.966Z</time></trkpt><trkpt lat="42.0364419" lon="13.7835029"><ele>912.0</ele><time>2026-04-11T10:57:11.966Z</time></trkpt><trkpt lat="42.0365601" lon="13.7834263"><ele>913.25</ele><time>2026-04-11T10:57:12.966Z</time></trkpt><trkpt lat="42.0366936" lon="13.7833505"><ele>914.5</ele><time>2026-04-11T10:57:13.966Z</time></trkpt><trkpt lat="42.0368284" lon="13.7832783"><ele>915.75</ele><time>2026-04-11T10:57:14.966Z</time></trkpt><trkpt lat="42.0369689" lon="13.7832268"><ele>917.0</ele><time>2026-04-11T10:57:15.966Z</time></trkpt><trkpt lat="42.0371194" lon="13.7831981"><ele>917.0</ele><time>2026-04-11T10:57:16.966Z</time></trkpt><trkpt lat="42.0372743" lon="13.7831911"><ele>917.0</ele><time>2026-04-11T10:57:17.966Z</time></trkpt><trkpt lat="42.0374341" lon="13.7832004"><ele>917.0</ele><time>2026-04-11T10:57:18.966Z</time></trkpt><trkpt lat="42.0375979" lon="13.7832198"><ele>917.6666666666667</ele><time>2026-04-11T10:57:19.966Z</time></trkpt><trkpt lat="42.0377623" lon="13.7832632"><ele>918.3333333333333</ele><time>2026-04-11T10:57:20.966Z</time></trkpt><trkpt lat="42.0379293" lon="13.7833081"><ele>919.0</ele><time>2026-04-11T10:57:21.966Z</time></trkpt><trkpt lat="42.0380997" lon="13.7833345"><ele>919.0</ele><time>2026-04-11T10:57:22.966Z</time></trkpt><trkpt lat="42.0382769" lon="13.7833243"><ele>919.0</ele><time>2026-04-11T10:57:23.966Z</time></trkpt><trkpt lat="42.0384501" lon="13.7832985"><ele>919.0</ele><time>2026-04-11T10:57:24.966Z</time></trkpt><trkpt lat="42.0386315" lon="13.7832548"><ele>918.6666666666666</ele><time>2026-04-11T10:57:25.965Z</time></trkpt><trkpt lat="42.0388156" lon="13.7831955"><ele>918.3333333333333</ele><time>2026-04-11T10:57:26.966Z</time></trkpt><trkpt lat="42.0389964" lon="13.7831362"><ele>918.0</ele><time>2026-04-11T10:57:27.966Z</time></trkpt><trkpt lat="42.0391679" lon="13.7830718"><ele>919.0</ele><time>2026-04-11T10:57:28.966Z</time></trkpt><trkpt lat="42.0393393" lon="13.7830106"><ele>920.0</ele><time>2026-04-11T10:57:29.966Z</time></trkpt><trkpt lat="42.0395097" lon="13.7829276"><ele>921.0</ele><time>2026-04-11T10:57:30.966Z</time></trkpt><trkpt lat="42.039672" lon="13.7828362"><ele>921.0</ele><time>2026-04-11T10:57:31.966Z</time></trkpt><trkpt lat="42.0398301" lon="13.7827166"><ele>921.0</ele><time>2026-04-11T10:57:32.966Z</time></trkpt><trkpt lat="42.0399727" lon="13.7825726"><ele>921.0</ele><time>2026-04-11T10:57:33.966Z</time></trkpt><trkpt lat="42.0401052" lon="13.7824081"><ele>917.3333333333333</ele><time>2026-04-11T10:57:34.966Z</time></trkpt><trkpt lat="42.0402329" lon="13.7822415"><ele>913.6666666666666</ele><time>2026-04-11T10:57:35.965Z</time></trkpt><trkpt lat="42.0403684" lon="13.7820755"><ele>910.0</ele><time>2026-04-11T10:57:36.966Z</time></trkpt><trkpt lat="42.0404995" lon="13.781912"><ele>909.0</ele><time>2026-04-11T10:57:37.966Z</time></trkpt><trkpt lat="42.0406375" lon="13.7817421"><ele>908.0</ele><time>2026-04-11T10:57:38.966Z</time></trkpt><trkpt lat="42.040776" lon="13.7815907"><ele>907.0</ele><time>2026-04-11T10:57:39.966Z</time></trkpt><trkpt lat="42.0409138" lon="13.7814465"><ele>907.0</ele><time>2026-04-11T10:57:40.966Z</time></trkpt><trkpt lat="42.0410501" lon="13.7813092"><ele>907.0</ele><time>2026-04-11T10:57:41.966Z</time></trkpt><trkpt lat="42.0411895" lon="13.781179"><ele>907.0</ele><time>2026-04-11T10:57:42.966Z</time></trkpt><trkpt lat="42.0413291" lon="13.7810606"><ele>904.6666666666666</ele><time>2026-04-11T10:57:43.966Z</time></trkpt><trkpt lat="42.0414785" lon="13.7809612"><ele>902.3333333333333</ele><time>2026-04-11T10:57:44.966Z</time></trkpt><trkpt lat="42.0416259" lon="13.7808562"><ele>900.0</ele><time>2026-04-11T10:57:45.966Z</time></trkpt><trkpt lat="42.0417684" lon="13.7807578"><ele>900.0</ele><time>2026-04-11T10:57:46.966Z</time></trkpt><trkpt lat="42.0419066" lon="13.7806544"><ele>900.0</ele><time>2026-04-11T10:57:47.966Z</time></trkpt><trkpt lat="42.0420371" lon="13.7805425"><ele>900.0</ele><time>2026-04-11T10:57:48.966Z</time></trkpt><trkpt lat="42.0421597" lon="13.7804084"><ele>900.0</ele><time>2026-04-11T10:57:49.966Z</time></trkpt><trkpt lat="42.042275" lon="13.7802562"><ele>900.0</ele><time>2026-04-11T10:57:50.966Z</time></trkpt><trkpt lat="42.0423864" lon="13.7800958"><ele>900.0</ele><time>2026-04-11T10:57:51.966Z</time></trkpt><trkpt lat="42.0424879" lon="13.7799299"><ele>898.0</ele><time>2026-04-11T10:57:52.966Z</time></trkpt><trkpt lat="42.0425914" lon="13.7797661"><ele>896.0</ele><time>2026-04-11T10:57:53.966Z</time></trkpt><trkpt lat="42.0426893" lon="13.7796097"><ele>894.0</ele><time>2026-04-11T10:57:54.966Z</time></trkpt><trkpt lat="42.0427767" lon="13.7794668"><ele>892.0</ele><time>2026-04-11T10:57:55.966Z</time></trkpt><trkpt lat="42.0428554" lon="13.7793315"><ele>890.5</ele><time>2026-04-11T10:57:56.966Z</time></trkpt><trkpt lat="42.0429206" lon="13.7791944"><ele>889.0</ele><time>2026-04-11T10:57:57.966Z</time></trkpt><trkpt lat="42.042964" lon="13.7790464"><ele>887.5</ele><time>2026-04-11T10:57:58.966Z</time></trkpt><trkpt lat="42.0429706" lon="13.7788928"><ele>886.0</ele><time>2026-04-11T10:57:59.966Z</time></trkpt><trkpt lat="42.0429404" lon="13.7787445"><ele>886.0</ele><time>2026-04-11T10:58:00.966Z</time></trkpt><trkpt lat="42.0428801" lon="13.7786112"><ele>886.0</ele><time>2026-04-11T10:58:01.966Z</time></trkpt><trkpt lat="42.0427912" lon="13.7784968"><ele>886.0</ele><time>2026-04-11T10:58:02.966Z</time></trkpt><trkpt lat="42.0426789" lon="13.7784021"><ele>886.0</ele><time>2026-04-11T10:58:03.965Z</time></trkpt><trkpt lat="42.042552" lon="13.7783066"><ele>884.3333333333333</ele><time>2026-04-11T10:58:04.966Z</time></trkpt><trkpt lat="42.0424174" lon="13.7782074"><ele>882.6666666666667</ele><time>2026-04-11T10:58:05.966Z</time></trkpt><trkpt lat="42.0422756" lon="13.7781023"><ele>881.0</ele><time>2026-04-11T10:58:06.966Z</time></trkpt><trkpt lat="42.0421308" lon="13.777988"><ele>881.0</ele><time>2026-04-11T10:58:07.966Z</time></trkpt><trkpt lat="42.0419788" lon="13.7778738"><ele>881.0</ele><time>2026-04-11T10:58:08.966Z</time></trkpt><trkpt lat="42.0418255" lon="13.7777618"><ele>881.0</ele><time>2026-04-11T10:58:09.966Z</time></trkpt><trkpt lat="42.0416727" lon="13.7776406"><ele>880.6666666666667</ele><time>2026-04-11T10:58:10.966Z</time></trkpt><trkpt lat="42.0415155" lon="13.7775266"><ele>880.3333333333333</ele><time>2026-04-11T10:58:11.966Z</time></trkpt><trkpt lat="42.041357" lon="13.7774139"><ele>880.0</ele><time>2026-04-11T10:58:12.966Z</time></trkpt><trkpt lat="42.0411949" lon="13.7773119"><ele>880.0</ele><time>2026-04-11T10:58:13.966Z</time></trkpt><trkpt lat="42.0410174" lon="13.7772373"><ele>880.0</ele><time>2026-04-11T10:58:14.966Z</time></trkpt><trkpt lat="42.040834" lon="13.7771783"><ele>880.0</ele><time>2026-04-11T10:58:15.966Z</time></trkpt><trkpt lat="42.0406379" lon="13.7771229"><ele>877.0</ele><time>2026-04-11T10:58:16.966Z</time></trkpt><trkpt lat="42.0404321" lon="13.7770692"><ele>874.0</ele><time>2026-04-11T10:58:17.966Z</time></trkpt><trkpt lat="42.0402272" lon="13.7770108"><ele>871.0</ele><time>2026-04-11T10:58:18.966Z</time></trkpt><trkpt lat="42.0400193" lon="13.7769561"><ele>873.0</ele><time>2026-04-11T10:58:19.966Z</time></trkpt><trkpt lat="42.039809" lon="13.7768999"><ele>875.0</ele><time>2026-04-11T10:58:20.966Z</time></trkpt><trkpt lat="42.0396001" lon="13.7768456"><ele>877.0</ele><time>2026-04-11T10:58:21.966Z</time></trkpt><trkpt lat="42.0393885" lon="13.776787"><ele>877.0</ele><time>2026-04-11T10:58:22.966Z</time></trkpt><trkpt lat="42.0391856" lon="13.7767294"><ele>877.0</ele><time>2026-04-11T10:58:23.966Z</time></trkpt><trkpt lat="42.0389863" lon="13.7766748"><ele>877.0</ele><time>2026-04-11T10:58:24.966Z</time></trkpt><trkpt lat="42.0387944" lon="13.7766217"><ele>873.6666666666666</ele><time>2026-04-11T10:58:25.966Z</time></trkpt><trkpt lat="42.0386057" lon="13.7765667"><ele>870.3333333333333</ele><time>2026-04-11T10:58:26.966Z</time></trkpt><trkpt lat="42.0384199" lon="13.7765115"><ele>867.0</ele><time>2026-04-11T10:58:27.966Z</time></trkpt><trkpt lat="42.0382279" lon="13.7764534"><ele>863.6666666666667</ele><time>2026-04-11T10:58:28.966Z</time></trkpt><trkpt lat="42.0380261" lon="13.7763919"><ele>860.3333333333334</ele><time>2026-04-11T10:58:29.966Z</time></trkpt><trkpt lat="42.0378164" lon="13.7763339"><ele>857.0</ele><time>2026-04-11T10:58:30.966Z</time></trkpt><trkpt lat="42.0375966" lon="13.7762722"><ele>853.5</ele><time>2026-04-11T10:58:31.966Z</time></trkpt><trkpt lat="42.0373734" lon="13.7762031"><ele>850.0</ele><time>2026-04-11T10:58:32.966Z</time></trkpt><trkpt lat="42.0371492" lon="13.7761356"><ele>850.0</ele><time>2026-04-11T10:58:33.966Z</time></trkpt><trkpt lat="42.0369249" lon="13.7760696"><ele>850.0</ele><time>2026-04-11T10:58:34.966Z</time></trkpt><trkpt lat="42.0366986" lon="13.7760067"><ele>854.5</ele><time>2026-04-11T10:58:35.966Z</time></trkpt><trkpt lat="42.0364728" lon="13.775952"><ele>859.0</ele><time>2026-04-11T10:58:36.966Z</time></trkpt><trkpt lat="42.0362414" lon="13.7759132"><ele>859.0</ele><time>2026-04-11T10:58:37.965Z</time></trkpt><trkpt lat="42.0360137" lon="13.7758919"><ele>859.0</ele><time>2026-04-11T10:58:38.966Z</time></trkpt><trkpt lat="42.0357846" lon="13.7758707"><ele>858.0</ele><time>2026-04-11T10:58:39.966Z</time></trkpt><trkpt lat="42.0355555" lon="13.7758581"><ele>857.0</ele><time>2026-04-11T10:58:40.966Z</time></trkpt><trkpt lat="42.035327" lon="13.7758621"><ele>857.0</ele><time>2026-04-11T10:58:41.966Z</time></trkpt><trkpt lat="42.0351003" lon="13.775894"><ele>857.0</ele><time>2026-04-11T10:58:42.966Z</time></trkpt><trkpt lat="42.0348734" lon="13.7759431"><ele>857.5</ele><time>2026-04-11T10:58:43.966Z</time></trkpt><trkpt lat="42.0346512" lon="13.7760013"><ele>858.0</ele><time>2026-04-11T10:58:44.966Z</time></trkpt><trkpt lat="42.0344301" lon="13.7760512"><ele>851.0</ele><time>2026-04-11T10:58:45.965Z</time></trkpt><trkpt lat="42.0342158" lon="13.7761022"><ele>844.0</ele><time>2026-04-11T10:58:46.966Z</time></trkpt><trkpt lat="42.0340019" lon="13.7761447"><ele>837.0</ele><time>2026-04-11T10:58:47.966Z</time></trkpt><trkpt lat="42.0337924" lon="13.7761791"><ele>836.3333333333333</ele><time>2026-04-11T10:58:48.965Z</time></trkpt><trkpt lat="42.0335798" lon="13.7762026"><ele>835.6666666666666</ele><time>2026-04-11T10:58:49.966Z</time></trkpt><trkpt lat="42.0333639" lon="13.7762249"><ele>835.0</ele><time>2026-04-11T10:58:50.966Z</time></trkpt><trkpt lat="42.0331559" lon="13.7762827"><ele>837.3333333333333</ele><time>2026-04-11T10:58:51.966Z</time></trkpt><trkpt lat="42.0329543" lon="13.7763761"><ele>839.6666666666667</ele><time>2026-04-11T10:58:52.966Z</time></trkpt><trkpt lat="42.0327533" lon="13.7764805"><ele>842.0</ele><time>2026-04-11T10:58:53.965Z</time></trkpt><trkpt lat="42.0325598" lon="13.7765966"><ele>843.0</ele><time>2026-04-11T10:58:54.966Z</time></trkpt><trkpt lat="42.0323718" lon="13.7767109"><ele>844.0</ele><time>2026-04-11T10:58:55.966Z</time></trkpt><trkpt lat="42.0321862" lon="13.7768192"><ele>845.0</ele><time>2026-04-11T10:58:56.966Z</time></trkpt><trkpt lat="42.0319998" lon="13.7769084"><ele>835.5</ele><time>2026-04-11T10:58:57.965Z</time></trkpt><trkpt lat="42.0318069" lon="13.7769615"><ele>826.0</ele><time>2026-04-11T10:58:58.966Z</time></trkpt><trkpt lat="42.0314127" lon="13.776977"><ele>822.3333333333333</ele><time>2026-04-11T10:59:00.966Z</time></trkpt><trkpt lat="42.0312182" lon="13.7769443"><ele>818.6666666666667</ele><time>2026-04-11T10:59:01.966Z</time></trkpt><trkpt lat="42.0310315" lon="13.7769086"><ele>815.0</ele><time>2026-04-11T10:59:02.966Z</time></trkpt><trkpt lat="42.0308514" lon="13.7768693"><ele>818.0</ele><time>2026-04-11T10:59:03.966Z</time></trkpt><trkpt lat="42.030686" lon="13.7768028"><ele>821.0</ele><time>2026-04-11T10:59:04.966Z</time></trkpt><trkpt lat="42.0305385" lon="13.7767078"><ele>824.0</ele><time>2026-04-11T10:59:05.966Z</time></trkpt><trkpt lat="42.0304118" lon="13.7765819"><ele>824.0</ele><time>2026-04-11T10:59:06.966Z</time></trkpt><trkpt lat="42.030302" lon="13.7764443"><ele>824.0</ele><time>2026-04-11T10:59:07.966Z</time></trkpt><trkpt lat="42.0302007" lon="13.7763125"><ele>824.0</ele><time>2026-04-11T10:59:08.966Z</time></trkpt><trkpt lat="42.0300966" lon="13.77622"><ele>824.0</ele><time>2026-04-11T10:59:09.965Z</time></trkpt><trkpt lat="42.0299789" lon="13.7761786"><ele>825.25</ele><time>2026-04-11T10:59:10.966Z</time></trkpt><trkpt lat="42.0298579" lon="13.7761942"><ele>826.5</ele><time>2026-04-11T10:59:11.966Z</time></trkpt><trkpt lat="42.0297259" lon="13.7762553"><ele>827.75</ele><time>2026-04-11T10:59:12.965Z</time></trkpt><trkpt lat="42.0295995" lon="13.7763341"><ele>829.0</ele><time>2026-04-11T10:59:13.966Z</time></trkpt><trkpt lat="42.0294594" lon="13.776405"><ele>829.0</ele><time>2026-04-11T10:59:14.966Z</time></trkpt><trkpt lat="42.0293194" lon="13.7764638"><ele>829.0</ele><time>2026-04-11T10:59:15.966Z</time></trkpt><trkpt lat="42.0291772" lon="13.7765065"><ele>829.0</ele><time>2026-04-11T10:59:16.966Z</time></trkpt><trkpt lat="42.0290295" lon="13.7765272"><ele>829.0</ele><time>2026-04-11T10:59:17.966Z</time></trkpt><trkpt lat="42.0288735" lon="13.7765299"><ele>831.6666666666666</ele><time>2026-04-11T10:59:18.966Z</time></trkpt><trkpt lat="42.0287103" lon="13.7765314"><ele>834.3333333333333</ele><time>2026-04-11T10:59:19.966Z</time></trkpt><trkpt lat="42.0285408" lon="13.7765296"><ele>837.0</ele><time>2026-04-11T10:59:20.966Z</time></trkpt><trkpt lat="42.0283695" lon="13.776541"><ele>839.3333333333333</ele><time>2026-04-11T10:59:21.966Z</time></trkpt><trkpt lat="42.0282002" lon="13.7765632"><ele>841.6666666666666</ele><time>2026-04-11T10:59:22.966Z</time></trkpt><trkpt lat="42.0280272" lon="13.7766071"><ele>844.0</ele><time>2026-04-11T10:59:23.966Z</time></trkpt><trkpt lat="42.0278557" lon="13.7766577"><ele>844.0</ele><time>2026-04-11T10:59:24.966Z</time></trkpt><trkpt lat="42.0276838" lon="13.7767179"><ele>844.0</ele><time>2026-04-11T10:59:25.966Z</time></trkpt><trkpt lat="42.0275143" lon="13.7767867"><ele>844.0</ele><time>2026-04-11T10:59:26.966Z</time></trkpt><trkpt lat="42.0271978" lon="13.776935"><ele>841.0</ele><time>2026-04-11T10:59:28.965Z</time></trkpt><trkpt lat="42.0270636" lon="13.7769958"><ele>838.0</ele><time>2026-04-11T10:59:29.966Z</time></trkpt><trkpt lat="42.0267895" lon="13.777124"><ele>835.0</ele><time>2026-04-11T10:59:31.966Z</time></trkpt><trkpt lat="42.0266499" lon="13.7772239"><ele>838.3333333333333</ele><time>2026-04-11T10:59:32.966Z</time></trkpt><trkpt lat="42.0265051" lon="13.7773435"><ele>841.6666666666667</ele><time>2026-04-11T10:59:33.965Z</time></trkpt><trkpt lat="42.0263614" lon="13.7774685"><ele>845.0</ele><time>2026-04-11T10:59:34.966Z</time></trkpt><trkpt lat="42.0262175" lon="13.7775948"><ele>842.3333333333334</ele><time>2026-04-11T10:59:35.966Z</time></trkpt><trkpt lat="42.0260722" lon="13.7777205"><ele>839.6666666666667</ele><time>2026-04-11T10:59:36.966Z</time></trkpt><trkpt lat="42.0259125" lon="13.7778595"><ele>837.0</ele><time>2026-04-11T10:59:37.966Z</time></trkpt><trkpt lat="42.0257496" lon="13.7779992"><ele>837.0</ele><time>2026-04-11T10:59:38.966Z</time></trkpt><trkpt lat="42.0255906" lon="13.7781304"><ele>837.0</ele><time>2026-04-11T10:59:39.965Z</time></trkpt><trkpt lat="42.0254369" lon="13.7782565"><ele>837.0</ele><time>2026-04-11T10:59:40.966Z</time></trkpt><trkpt lat="42.0252876" lon="13.7783844"><ele>835.6666666666667</ele><time>2026-04-11T10:59:41.966Z</time></trkpt><trkpt lat="42.025159" lon="13.7785268"><ele>834.3333333333334</ele><time>2026-04-11T10:59:42.966Z</time></trkpt><trkpt lat="42.0250506" lon="13.7786844"><ele>833.0</ele><time>2026-04-11T10:59:43.966Z</time></trkpt><trkpt lat="42.0249619" lon="13.7788508"><ele>833.0</ele><time>2026-04-11T10:59:44.966Z</time></trkpt><trkpt lat="42.0248663" lon="13.7790064"><ele>833.0</ele><time>2026-04-11T10:59:45.966Z</time></trkpt><trkpt lat="42.0247555" lon="13.7791495"><ele>833.0</ele><time>2026-04-11T10:59:46.966Z</time></trkpt><trkpt lat="42.0246122" lon="13.7792832"><ele>827.0</ele><time>2026-04-11T10:59:47.966Z</time></trkpt><trkpt lat="42.0244645" lon="13.7794226"><ele>821.0</ele><time>2026-04-11T10:59:48.966Z</time></trkpt><trkpt lat="42.0243043" lon="13.7795674"><ele>815.0</ele><time>2026-04-11T10:59:49.966Z</time></trkpt><trkpt lat="42.024143" lon="13.779706"><ele>815.0</ele><time>2026-04-11T10:59:50.966Z</time></trkpt><trkpt lat="42.0239931" lon="13.7798306"><ele>815.0</ele><time>2026-04-11T10:59:51.966Z</time></trkpt><trkpt lat="42.0238402" lon="13.7799395"><ele>815.0</ele><time>2026-04-11T10:59:52.966Z</time></trkpt><trkpt lat="42.0236812" lon="13.7800212"><ele>815.0</ele><time>2026-04-11T10:59:53.966Z</time></trkpt><trkpt lat="42.0235075" lon="13.7800695"><ele>815.0</ele><time>2026-04-11T10:59:54.965Z</time></trkpt><trkpt lat="42.0233245" lon="13.7801055"><ele>815.0</ele><time>2026-04-11T10:59:55.966Z</time></trkpt><trkpt lat="42.0231363" lon="13.7801511"><ele>809.3333333333334</ele><time>2026-04-11T10:59:56.966Z</time></trkpt><trkpt lat="42.0229513" lon="13.7801976"><ele>803.6666666666667</ele><time>2026-04-11T10:59:57.966Z</time></trkpt><trkpt lat="42.0227601" lon="13.7802459"><ele>798.0</ele><time>2026-04-11T10:59:58.965Z</time></trkpt><trkpt lat="42.0225724" lon="13.7803071"><ele>800.0</ele><time>2026-04-11T10:59:59.966Z</time></trkpt><trkpt lat="42.0223809" lon="13.7803976"><ele>802.0</ele><time>2026-04-11T11:00:00.966Z</time></trkpt><trkpt lat="42.0221879" lon="13.7805056"><ele>804.0</ele><time>2026-04-11T11:00:01.966Z</time></trkpt><trkpt lat="42.0220036" lon="13.7806242"><ele>804.0</ele><time>2026-04-11T11:00:02.965Z</time></trkpt><trkpt lat="42.021818" lon="13.7807491"><ele>804.0</ele><time>2026-04-11T11:00:03.966Z</time></trkpt><trkpt lat="42.0216374" lon="13.7808637"><ele>804.0</ele><time>2026-04-11T11:00:04.966Z</time></trkpt><trkpt lat="42.0214573" lon="13.7809826"><ele>801.0</ele><time>2026-04-11T11:00:05.966Z</time></trkpt><trkpt lat="42.0212771" lon="13.781111"><ele>798.0</ele><time>2026-04-11T11:00:06.966Z</time></trkpt><trkpt lat="42.0211081" lon="13.7812562"><ele>795.0</ele><time>2026-04-11T11:00:07.966Z</time></trkpt><trkpt lat="42.0209415" lon="13.7814127"><ele>796.0</ele><time>2026-04-11T11:00:08.966Z</time></trkpt><trkpt lat="42.0207777" lon="13.7815626"><ele>797.0</ele><time>2026-04-11T11:00:09.966Z</time></trkpt><trkpt lat="42.0206092" lon="13.7817011"><ele>798.0</ele><time>2026-04-11T11:00:10.965Z</time></trkpt><trkpt lat="42.0204358" lon="13.7818275"><ele>793.6666666666667</ele><time>2026-04-11T11:00:11.966Z</time></trkpt><trkpt lat="42.0202569" lon="13.7819414"><ele>789.3333333333334</ele><time>2026-04-11T11:00:12.966Z</time></trkpt><trkpt lat="42.0200758" lon="13.7820414"><ele>785.0</ele><time>2026-04-11T11:00:13.966Z</time></trkpt><trkpt lat="42.0198873" lon="13.7821275"><ele>785.0</ele><time>2026-04-11T11:00:14.966Z</time></trkpt><trkpt lat="42.0196998" lon="13.7822045"><ele>785.0</ele><time>2026-04-11T11:00:15.965Z</time></trkpt><trkpt lat="42.0195225" lon="13.7822867"><ele>785.0</ele><time>2026-04-11T11:00:16.965Z</time></trkpt><trkpt lat="42.0193648" lon="13.7823598"><ele>785.0</ele><time>2026-04-11T11:00:17.966Z</time></trkpt><trkpt lat="42.0192175" lon="13.7824431"><ele>785.0</ele><time>2026-04-11T11:00:18.966Z</time></trkpt><trkpt lat="42.0190849" lon="13.7825557"><ele>785.0</ele><time>2026-04-11T11:00:19.966Z</time></trkpt><trkpt lat="42.0189827" lon="13.7827231"><ele>784.0</ele><time>2026-04-11T11:00:20.966Z</time></trkpt><trkpt lat="42.0188962" lon="13.7829016"><ele>783.0</ele><time>2026-04-11T11:00:21.966Z</time></trkpt><trkpt lat="42.0188064" lon="13.7830842"><ele>782.0</ele><time>2026-04-11T11:00:22.966Z</time></trkpt><trkpt lat="42.0187084" lon="13.7832533"><ele>782.0</ele><time>2026-04-11T11:00:23.966Z</time></trkpt><trkpt lat="42.0185864" lon="13.7833856"><ele>782.0</ele><time>2026-04-11T11:00:24.965Z</time></trkpt><trkpt lat="42.0184409" lon="13.783493"><ele>782.0</ele><time>2026-04-11T11:00:25.965Z</time></trkpt><trkpt lat="42.0182712" lon="13.7835887"><ele>778.3333333333334</ele><time>2026-04-11T11:00:26.966Z</time></trkpt><trkpt lat="42.0180901" lon="13.7836885"><ele>774.6666666666667</ele><time>2026-04-11T11:00:27.966Z</time></trkpt><trkpt lat="42.0179088" lon="13.7837988"><ele>771.0</ele><time>2026-04-11T11:00:28.966Z</time></trkpt><trkpt lat="42.0177307" lon="13.7839258"><ele>771.0</ele><time>2026-04-11T11:00:29.966Z</time></trkpt><trkpt lat="42.0175572" lon="13.7840517"><ele>771.0</ele><time>2026-04-11T11:00:30.966Z</time></trkpt><trkpt lat="42.0173934" lon="13.7841718"><ele>771.0</ele><time>2026-04-11T11:00:31.966Z</time></trkpt><trkpt lat="42.0172457" lon="13.7843005"><ele>769.3333333333334</ele><time>2026-04-11T11:00:32.965Z</time></trkpt><trkpt lat="42.0171171" lon="13.7844548"><ele>767.6666666666667</ele><time>2026-04-11T11:00:33.966Z</time></trkpt><trkpt lat="42.0170133" lon="13.7846289"><ele>766.0</ele><time>2026-04-11T11:00:34.966Z</time></trkpt><trkpt lat="42.016872" lon="13.7850206"><ele>765.5</ele><time>2026-04-11T11:00:36.966Z</time></trkpt><trkpt lat="42.0168084" lon="13.7852106"><ele>765.0</ele><time>2026-04-11T11:00:37.966Z</time></trkpt><trkpt lat="42.0167359" lon="13.7853833"><ele>764.5</ele><time>2026-04-11T11:00:38.965Z</time></trkpt><trkpt lat="42.0166565" lon="13.7855458"><ele>764.0</ele><time>2026-04-11T11:00:39.966Z</time></trkpt><trkpt lat="42.0165678" lon="13.7857023"><ele>764.0</ele><time>2026-04-11T11:00:40.965Z</time></trkpt><trkpt lat="42.0164738" lon="13.785859"><ele>764.0</ele><time>2026-04-11T11:00:41.966Z</time></trkpt><trkpt lat="42.0163845" lon="13.7860057"><ele>764.0</ele><time>2026-04-11T11:00:42.966Z</time></trkpt><trkpt lat="42.0162974" lon="13.7861544"><ele>764.0</ele><time>2026-04-11T11:00:43.965Z</time></trkpt><trkpt lat="42.0162307" lon="13.7863061"><ele>762.25</ele><time>2026-04-11T11:00:44.965Z</time></trkpt><trkpt lat="42.0161718" lon="13.7864544"><ele>760.5</ele><time>2026-04-11T11:00:45.966Z</time></trkpt><trkpt lat="42.0161166" lon="13.78659"><ele>758.75</ele><time>2026-04-11T11:00:46.966Z</time></trkpt><trkpt lat="42.016063" lon="13.7867319"><ele>757.0</ele><time>2026-04-11T11:00:47.966Z</time></trkpt><trkpt lat="42.0160114" lon="13.7868676"><ele>755.25</ele><time>2026-04-11T11:00:48.965Z</time></trkpt><trkpt lat="42.0159608" lon="13.7870032"><ele>753.5</ele><time>2026-04-11T11:00:49.966Z</time></trkpt><trkpt lat="42.0159114" lon="13.7871393"><ele>751.75</ele><time>2026-04-11T11:00:50.966Z</time></trkpt><trkpt lat="42.0158648" lon="13.7872715"><ele>750.0</ele><time>2026-04-11T11:00:51.966Z</time></trkpt><trkpt lat="42.0158208" lon="13.7874167"><ele>749.5</ele><time>2026-04-11T11:00:52.965Z</time></trkpt><trkpt lat="42.0157818" lon="13.7875714"><ele>749.0</ele><time>2026-04-11T11:00:53.966Z</time></trkpt><trkpt lat="42.0157482" lon="13.7877339"><ele>748.5</ele><time>2026-04-11T11:00:54.966Z</time></trkpt><trkpt lat="42.0157171" lon="13.7879013"><ele>748.0</ele><time>2026-04-11T11:00:55.966Z</time></trkpt><trkpt lat="42.015691" lon="13.7880601"><ele>748.0</ele><time>2026-04-11T11:00:56.966Z</time></trkpt><trkpt lat="42.0156642" lon="13.7882129"><ele>748.0</ele><time>2026-04-11T11:00:57.965Z</time></trkpt><trkpt lat="42.0156401" lon="13.78835"><ele>748.0</ele><time>2026-04-11T11:00:58.966Z</time></trkpt><trkpt lat="42.0156164" lon="13.7884702"><ele>748.0</ele><time>2026-04-11T11:00:59.966Z</time></trkpt><trkpt lat="42.0155829" lon="13.7885808"><ele>748.0</ele><time>2026-04-11T11:01:00.966Z</time></trkpt><trkpt lat="42.0155264" lon="13.788675"><ele>746.8</ele><time>2026-04-11T11:01:01.966Z</time></trkpt><trkpt lat="42.0154563" lon="13.7887643"><ele>745.5999999999999</ele><time>2026-04-11T11:01:02.966Z</time></trkpt><trkpt lat="42.0153805" lon="13.7888675"><ele>744.4000000000001</ele><time>2026-04-11T11:01:03.966Z</time></trkpt><trkpt lat="42.0153188" lon="13.7889853"><ele>743.2</ele><time>2026-04-11T11:01:04.966Z</time></trkpt><trkpt lat="42.0152529" lon="13.7891169"><ele>742.0</ele><time>2026-04-11T11:01:05.966Z</time></trkpt><trkpt lat="42.0151832" lon="13.7892489"><ele>739.75</ele><time>2026-04-11T11:01:06.966Z</time></trkpt><trkpt lat="42.0151144" lon="13.7893885"><ele>737.5</ele><time>2026-04-11T11:01:07.966Z</time></trkpt><trkpt lat="42.0150468" lon="13.7895139"><ele>735.25</ele><time>2026-04-11T11:01:08.966Z</time></trkpt><trkpt lat="42.0149787" lon="13.7896428"><ele>733.0</ele><time>2026-04-11T11:01:09.966Z</time></trkpt><trkpt lat="42.0148961" lon="13.7897433"><ele>731.5</ele><time>2026-04-11T11:01:10.965Z</time></trkpt><trkpt lat="42.014798" lon="13.7898075"><ele>730.0</ele><time>2026-04-11T11:01:11.966Z</time></trkpt><trkpt lat="42.0146902" lon="13.7898405"><ele>728.5</ele><time>2026-04-11T11:01:12.965Z</time></trkpt><trkpt lat="42.0145688" lon="13.7898522"><ele>727.0</ele><time>2026-04-11T11:01:13.966Z</time></trkpt><trkpt lat="42.0144398" lon="13.7898328"><ele>727.0</ele><time>2026-04-11T11:01:14.966Z</time></trkpt><trkpt lat="42.01431" lon="13.7897822"><ele>727.0</ele><time>2026-04-11T11:01:15.966Z</time></trkpt><trkpt lat="42.0141789" lon="13.7896968"><ele>727.0</ele><time>2026-04-11T11:01:16.966Z</time></trkpt><trkpt lat="42.0140513" lon="13.7895912"><ele>727.0</ele><time>2026-04-11T11:01:17.966Z</time></trkpt><trkpt lat="42.0139318" lon="13.7894657"><ele>727.75</ele><time>2026-04-11T11:01:18.966Z</time></trkpt><trkpt lat="42.0138237" lon="13.7893401"><ele>728.5</ele><time>2026-04-11T11:01:19.966Z</time></trkpt><trkpt lat="42.0137222" lon="13.7892216"><ele>729.25</ele><time>2026-04-11T11:01:20.966Z</time></trkpt><trkpt lat="42.013612" lon="13.7891399"><ele>730.0</ele><time>2026-04-11T11:01:21.966Z</time></trkpt><trkpt lat="42.0134901" lon="13.7891147"><ele>730.0</ele><time>2026-04-11T11:01:22.966Z</time></trkpt><trkpt lat="42.0133686" lon="13.7891427"><ele>730.0</ele><time>2026-04-11T11:01:23.966Z</time></trkpt><trkpt lat="42.0132532" lon="13.7892312"><ele>730.0</ele><time>2026-04-11T11:01:24.966Z</time></trkpt><trkpt lat="42.0131396" lon="13.7893451"><ele>730.0</ele><time>2026-04-11T11:01:25.966Z</time></trkpt><trkpt lat="42.0130165" lon="13.78946"><ele>724.6666666666667</ele><time>2026-04-11T11:01:26.966Z</time></trkpt><trkpt lat="42.0128843" lon="13.7895678"><ele>719.3333333333334</ele><time>2026-04-11T11:01:27.966Z</time></trkpt><trkpt lat="42.0127147" lon="13.789626"><ele>714.0</ele><time>2026-04-11T11:01:28.966Z</time></trkpt><trkpt lat="42.0125502" lon="13.7896967"><ele>713.3333333333334</ele><time>2026-04-11T11:01:29.966Z</time></trkpt><trkpt lat="42.0123795" lon="13.7897689"><ele>712.6666666666667</ele><time>2026-04-11T11:01:30.966Z</time></trkpt><trkpt lat="42.0122038" lon="13.7898338"><ele>712.0</ele><time>2026-04-11T11:01:31.966Z</time></trkpt><trkpt lat="42.0120224" lon="13.7898863"><ele>712.0</ele><time>2026-04-11T11:01:32.966Z</time></trkpt><trkpt lat="42.0118341" lon="13.7899274"><ele>712.0</ele><time>2026-04-11T11:01:33.966Z</time></trkpt><trkpt lat="42.0116494" lon="13.7899696"><ele>712.0</ele><time>2026-04-11T11:01:34.966Z</time></trkpt><trkpt lat="42.0114739" lon="13.7900264"><ele>708.6666666666667</ele><time>2026-04-11T11:01:35.966Z</time></trkpt><trkpt lat="42.0113051" lon="13.7901028"><ele>705.3333333333334</ele><time>2026-04-11T11:01:36.966Z</time></trkpt><trkpt lat="42.0111527" lon="13.7902094"><ele>702.0</ele><time>2026-04-11T11:01:37.966Z</time></trkpt><trkpt lat="42.0110112" lon="13.790327"><ele>702.0</ele><time>2026-04-11T11:01:38.966Z</time></trkpt><trkpt lat="42.0108721" lon="13.7904386"><ele>702.0</ele><time>2026-04-11T11:01:39.965Z</time></trkpt><trkpt lat="42.0107351" lon="13.7905552"><ele>702.0</ele><time>2026-04-11T11:01:40.966Z</time></trkpt><trkpt lat="42.0106014" lon="13.7906748"><ele>703.0</ele><time>2026-04-11T11:01:41.966Z</time></trkpt><trkpt lat="42.0104744" lon="13.7908131"><ele>704.0</ele><time>2026-04-11T11:01:42.966Z</time></trkpt><trkpt lat="42.0103944" lon="13.7910011"><ele>705.0</ele><time>2026-04-11T11:01:43.965Z</time></trkpt><trkpt lat="42.0102967" lon="13.7911579"><ele>705.0</ele><time>2026-04-11T11:01:44.965Z</time></trkpt><trkpt lat="42.0102087" lon="13.7913216"><ele>705.0</ele><time>2026-04-11T11:01:45.965Z</time></trkpt><trkpt lat="42.0101165" lon="13.7914804"><ele>705.0</ele><time>2026-04-11T11:01:46.966Z</time></trkpt><trkpt lat="42.0100248" lon="13.7916487"><ele>706.6666666666666</ele><time>2026-04-11T11:01:47.966Z</time></trkpt><trkpt lat="42.0099571" lon="13.7918381"><ele>708.3333333333333</ele><time>2026-04-11T11:01:48.966Z</time></trkpt><trkpt lat="42.0099122" lon="13.7920308"><ele>710.0</ele><time>2026-04-11T11:01:49.966Z</time></trkpt><trkpt lat="42.0098654" lon="13.7922166"><ele>710.0</ele><time>2026-04-11T11:01:50.966Z</time></trkpt><trkpt lat="42.0098157" lon="13.7923916"><ele>710.0</ele><time>2026-04-11T11:01:51.966Z</time></trkpt><trkpt lat="42.0097323" lon="13.7925473"><ele>710.0</ele><time>2026-04-11T11:01:52.966Z</time></trkpt><trkpt lat="42.0096315" lon="13.7926935"><ele>710.0</ele><time>2026-04-11T11:01:53.966Z</time></trkpt><trkpt lat="42.0095407" lon="13.7928596"><ele>703.0</ele><time>2026-04-11T11:01:54.966Z</time></trkpt><trkpt lat="42.009459" lon="13.7930456"><ele>696.0</ele><time>2026-04-11T11:01:55.965Z</time></trkpt><trkpt lat="42.0093738" lon="13.793242"><ele>689.0</ele><time>2026-04-11T11:01:56.966Z</time></trkpt><trkpt lat="42.0092789" lon="13.7934374"><ele>689.3333333333333</ele><time>2026-04-11T11:01:57.966Z</time></trkpt><trkpt lat="42.009175" lon="13.7936304"><ele>689.6666666666666</ele><time>2026-04-11T11:01:58.966Z</time></trkpt><trkpt lat="42.0090534" lon="13.793818"><ele>690.0</ele><time>2026-04-11T11:01:59.966Z</time></trkpt><trkpt lat="42.008931" lon="13.7939975"><ele>690.0</ele><time>2026-04-11T11:02:00.966Z</time></trkpt><trkpt lat="42.0088254" lon="13.7941822"><ele>690.0</ele><time>2026-04-11T11:02:01.966Z</time></trkpt><trkpt lat="42.0087312" lon="13.794384"><ele>690.0</ele><time>2026-04-11T11:02:02.966Z</time></trkpt><trkpt lat="42.0086432" lon="13.7945861"><ele>689.0</ele><time>2026-04-11T11:02:03.966Z</time></trkpt><trkpt lat="42.0085508" lon="13.7947806"><ele>688.0</ele><time>2026-04-11T11:02:04.966Z</time></trkpt><trkpt lat="42.0084475" lon="13.7949696"><ele>687.0</ele><time>2026-04-11T11:02:05.966Z</time></trkpt><trkpt lat="42.0083236" lon="13.7951429"><ele>681.3333333333334</ele><time>2026-04-11T11:02:06.966Z</time></trkpt><trkpt lat="42.0081833" lon="13.7953029"><ele>675.6666666666667</ele><time>2026-04-11T11:02:07.966Z</time></trkpt><trkpt lat="42.0080386" lon="13.795465"><ele>670.0</ele><time>2026-04-11T11:02:08.966Z</time></trkpt><trkpt lat="42.0078854" lon="13.7956356"><ele>670.0</ele><time>2026-04-11T11:02:09.966Z</time></trkpt><trkpt lat="42.0077315" lon="13.7957975"><ele>670.0</ele><time>2026-04-11T11:02:10.965Z</time></trkpt><trkpt lat="42.0075832" lon="13.7959523"><ele>670.0</ele><time>2026-04-11T11:02:11.966Z</time></trkpt><trkpt lat="42.0074392" lon="13.7961063"><ele>667.3333333333334</ele><time>2026-04-11T11:02:12.966Z</time></trkpt><trkpt lat="42.0073001" lon="13.796257"><ele>664.6666666666666</ele><time>2026-04-11T11:02:13.966Z</time></trkpt><trkpt lat="42.0071604" lon="13.7963995"><ele>662.0</ele><time>2026-04-11T11:02:14.966Z</time></trkpt><trkpt lat="42.0070206" lon="13.7965444"><ele>662.0</ele><time>2026-04-11T11:02:15.966Z</time></trkpt><trkpt lat="42.0068847" lon="13.7966841"><ele>662.0</ele><time>2026-04-11T11:02:16.966Z</time></trkpt><trkpt lat="42.0067467" lon="13.7968282"><ele>662.0</ele><time>2026-04-11T11:02:17.966Z</time></trkpt><trkpt lat="42.0066092" lon="13.796982"><ele>661.3333333333333</ele><time>2026-04-11T11:02:18.965Z</time></trkpt><trkpt lat="42.0064708" lon="13.7971332"><ele>660.6666666666666</ele><time>2026-04-11T11:02:19.966Z</time></trkpt><trkpt lat="42.0063458" lon="13.7972817"><ele>660.0</ele><time>2026-04-11T11:02:20.966Z</time></trkpt><trkpt lat="42.0062462" lon="13.797449"><ele>660.0</ele><time>2026-04-11T11:02:21.966Z</time></trkpt><trkpt lat="42.0061817" lon="13.7976379"><ele>660.0</ele><time>2026-04-11T11:02:22.965Z</time></trkpt><trkpt lat="42.0061251" lon="13.7978426"><ele>660.0</ele><time>2026-04-11T11:02:23.965Z</time></trkpt><trkpt lat="42.0060437" lon="13.798049"><ele>659.3333333333334</ele><time>2026-04-11T11:02:24.965Z</time></trkpt><trkpt lat="42.0059381" lon="13.7982381"><ele>658.6666666666667</ele><time>2026-04-11T11:02:25.966Z</time></trkpt><trkpt lat="42.0058223" lon="13.7984148"><ele>658.0</ele><time>2026-04-11T11:02:26.965Z</time></trkpt><trkpt lat="42.0057067" lon="13.7985895"><ele>654.6666666666667</ele><time>2026-04-11T11:02:27.965Z</time></trkpt><trkpt lat="42.0055918" lon="13.7987487"><ele>651.3333333333334</ele><time>2026-04-11T11:02:28.966Z</time></trkpt><trkpt lat="42.0054789" lon="13.7989169"><ele>648.0</ele><time>2026-04-11T11:02:29.966Z</time></trkpt><trkpt lat="42.0053651" lon="13.7990628"><ele>648.0</ele><time>2026-04-11T11:02:30.966Z</time></trkpt><trkpt lat="42.0052316" lon="13.7991826"><ele>648.0</ele><time>2026-04-11T11:02:31.966Z</time></trkpt><trkpt lat="42.0050803" lon="13.7992774"><ele>648.0</ele><time>2026-04-11T11:02:32.966Z</time></trkpt><trkpt lat="42.0049257" lon="13.7993773"><ele>645.3333333333334</ele><time>2026-04-11T11:02:33.966Z</time></trkpt><trkpt lat="42.0047674" lon="13.7994971"><ele>642.6666666666667</ele><time>2026-04-11T11:02:34.966Z</time></trkpt><trkpt lat="42.004608" lon="13.7996451"><ele>640.0</ele><time>2026-04-11T11:02:35.966Z</time></trkpt><trkpt lat="42.0044438" lon="13.7998092"><ele>640.0</ele><time>2026-04-11T11:02:36.966Z</time></trkpt><trkpt lat="42.0042756" lon="13.799994"><ele>640.0</ele><time>2026-04-11T11:02:37.966Z</time></trkpt><trkpt lat="42.0041" lon="13.800174"><ele>640.0</ele><time>2026-04-11T11:02:38.966Z</time></trkpt><trkpt lat="42.0039311" lon="13.8003579"><ele>638.0</ele><time>2026-04-11T11:02:39.966Z</time></trkpt><trkpt lat="42.0037653" lon="13.8005331"><ele>636.0</ele><time>2026-04-11T11:02:40.966Z</time></trkpt><trkpt lat="42.0036081" lon="13.8006972"><ele>634.0</ele><time>2026-04-11T11:02:41.966Z</time></trkpt><trkpt lat="42.0034498" lon="13.8008499"><ele>632.3333333333334</ele><time>2026-04-11T11:02:42.966Z</time></trkpt><trkpt lat="42.0032959" lon="13.8009893"><ele>630.6666666666666</ele><time>2026-04-11T11:02:43.966Z</time></trkpt><trkpt lat="42.0031491" lon="13.8011283"><ele>629.0</ele><time>2026-04-11T11:02:44.966Z</time></trkpt><trkpt lat="42.0030087" lon="13.8012669"><ele>629.0</ele><time>2026-04-11T11:02:45.966Z</time></trkpt><trkpt lat="42.0028708" lon="13.8013951"><ele>629.0</ele><time>2026-04-11T11:02:46.966Z</time></trkpt><trkpt lat="42.0027327" lon="13.8015194"><ele>629.0</ele><time>2026-04-11T11:02:47.966Z</time></trkpt><trkpt lat="42.0025999" lon="13.8016368"><ele>630.0</ele><time>2026-04-11T11:02:48.966Z</time></trkpt><trkpt lat="42.0024826" lon="13.8017523"><ele>631.0</ele><time>2026-04-11T11:02:49.966Z</time></trkpt><trkpt lat="42.0023813" lon="13.8018728"><ele>632.0</ele><time>2026-04-11T11:02:50.966Z</time></trkpt><trkpt lat="42.0023071" lon="13.8020182"><ele>633.0</ele><time>2026-04-11T11:02:51.966Z</time></trkpt><trkpt lat="42.002263" lon="13.8021832"><ele>631.0</ele><time>2026-04-11T11:02:52.966Z</time></trkpt><trkpt lat="42.0022289" lon="13.8023618"><ele>629.0</ele><time>2026-04-11T11:02:53.966Z</time></trkpt><trkpt lat="42.0021823" lon="13.8025348"><ele>627.0</ele><time>2026-04-11T11:02:54.966Z</time></trkpt><trkpt lat="42.002116" lon="13.8027078"><ele>625.0</ele><time>2026-04-11T11:02:55.966Z</time></trkpt><trkpt lat="42.0020297" lon="13.8028754"><ele>622.5</ele><time>2026-04-11T11:02:56.966Z</time></trkpt><trkpt lat="42.0019265" lon="13.8030289"><ele>620.0</ele><time>2026-04-11T11:02:57.966Z</time></trkpt><trkpt lat="42.0018206" lon="13.8031536"><ele>617.5</ele><time>2026-04-11T11:02:58.966Z</time></trkpt><trkpt lat="42.0017065" lon="13.8032569"><ele>615.0</ele><time>2026-04-11T11:02:59.966Z</time></trkpt><trkpt lat="42.0015812" lon="13.8033202"><ele>614.25</ele><time>2026-04-11T11:03:00.966Z</time></trkpt><trkpt lat="42.0014505" lon="13.8033585"><ele>613.5</ele><time>2026-04-11T11:03:01.966Z</time></trkpt><trkpt lat="42.0013221" lon="13.8033799"><ele>612.75</ele><time>2026-04-11T11:03:02.966Z</time></trkpt><trkpt lat="42.0011949" lon="13.8033836"><ele>612.0</ele><time>2026-04-11T11:03:03.966Z</time></trkpt><trkpt lat="42.0010698" lon="13.8033448"><ele>612.0</ele><time>2026-04-11T11:03:04.966Z</time></trkpt><trkpt lat="42.0009351" lon="13.8032738"><ele>612.0</ele><time>2026-04-11T11:03:05.966Z</time></trkpt><trkpt lat="42.0007974" lon="13.8031878"><ele>612.0</ele><time>2026-04-11T11:03:06.965Z</time></trkpt><trkpt lat="42.0006595" lon="13.8031012"><ele>612.0</ele><time>2026-04-11T11:03:07.966Z</time></trkpt><trkpt lat="42.0005239" lon="13.8030233"><ele>609.75</ele><time>2026-04-11T11:03:08.965Z</time></trkpt><trkpt lat="42.0003939" lon="13.80295"><ele>607.5</ele><time>2026-04-11T11:03:09.966Z</time></trkpt><trkpt lat="42.0002688" lon="13.8028807"><ele>605.25</ele><time>2026-04-11T11:03:10.966Z</time></trkpt><trkpt lat="42.0001602" lon="13.8028215"><ele>603.0</ele><time>2026-04-11T11:03:11.966Z</time></trkpt><trkpt lat="42.0000488" lon="13.8027881"><ele>603.0</ele><time>2026-04-11T11:03:12.966Z</time></trkpt><trkpt lat="41.9999438" lon="13.8027924"><ele>603.0</ele><time>2026-04-11T11:03:13.966Z</time></trkpt><trkpt lat="41.9998385" lon="13.8028392"><ele>603.0</ele><time>2026-04-11T11:03:14.966Z</time></trkpt><trkpt lat="41.9997311" lon="13.8029062"><ele>603.0</ele><time>2026-04-11T11:03:15.966Z</time></trkpt><trkpt lat="41.9996221" lon="13.802974"><ele>603.0</ele><time>2026-04-11T11:03:16.966Z</time></trkpt><trkpt lat="41.9995104" lon="13.8030462"><ele>603.0</ele><time>2026-04-11T11:03:17.966Z</time></trkpt><trkpt lat="41.999398" lon="13.8031114"><ele>603.0</ele><time>2026-04-11T11:03:18.965Z</time></trkpt><trkpt lat="41.9992882" lon="13.8031747"><ele>603.0</ele><time>2026-04-11T11:03:19.966Z</time></trkpt><trkpt lat="41.9991831" lon="13.8032389"><ele>602.75</ele><time>2026-04-11T11:03:20.966Z</time></trkpt><trkpt lat="41.9990821" lon="13.8033118"><ele>602.5</ele><time>2026-04-11T11:03:21.965Z</time></trkpt><trkpt lat="41.9989844" lon="13.8034083"><ele>602.25</ele><time>2026-04-11T11:03:22.965Z</time></trkpt><trkpt lat="41.9989017" lon="13.8035353"><ele>602.0</ele><time>2026-04-11T11:03:23.966Z</time></trkpt><trkpt lat="41.9988286" lon="13.8036752"><ele>599.25</ele><time>2026-04-11T11:03:24.966Z</time></trkpt><trkpt lat="41.9987536" lon="13.8038161"><ele>596.5</ele><time>2026-04-11T11:03:25.966Z</time></trkpt><trkpt lat="41.9986809" lon="13.8039399"><ele>593.75</ele><time>2026-04-11T11:03:26.965Z</time></trkpt><trkpt lat="41.9985966" lon="13.8040342"><ele>591.0</ele><time>2026-04-11T11:03:27.966Z</time></trkpt><trkpt lat="41.9984981" lon="13.8040914"><ele>591.0</ele><time>2026-04-11T11:03:28.966Z</time></trkpt><trkpt lat="41.9983883" lon="13.8040996"><ele>591.0</ele><time>2026-04-11T11:03:29.965Z</time></trkpt><trkpt lat="41.9982666" lon="13.8040717"><ele>591.0</ele><time>2026-04-11T11:03:30.966Z</time></trkpt><trkpt lat="41.9981427" lon="13.8040075"><ele>591.0</ele><time>2026-04-11T11:03:31.966Z</time></trkpt><trkpt lat="41.9980115" lon="13.803937"><ele>591.75</ele><time>2026-04-11T11:03:32.966Z</time></trkpt><trkpt lat="41.9978812" lon="13.8038604"><ele>592.5</ele><time>2026-04-11T11:03:33.965Z</time></trkpt><trkpt lat="41.9977515" lon="13.8037805"><ele>593.25</ele><time>2026-04-11T11:03:34.965Z</time></trkpt><trkpt lat="41.9976185" lon="13.8037123"><ele>594.0</ele><time>2026-04-11T11:03:35.966Z</time></trkpt><trkpt lat="41.9974912" lon="13.8036622"><ele>591.75</ele><time>2026-04-11T11:03:36.966Z</time></trkpt><trkpt lat="41.9973631" lon="13.803628"><ele>589.5</ele><time>2026-04-11T11:03:37.966Z</time></trkpt><trkpt lat="41.9972402" lon="13.8036076"><ele>587.25</ele><time>2026-04-11T11:03:38.966Z</time></trkpt><trkpt lat="41.9971148" lon="13.8036089"><ele>585.0</ele><time>2026-04-11T11:03:39.966Z</time></trkpt><trkpt lat="41.9970039" lon="13.8036312"><ele>585.0</ele><time>2026-04-11T11:03:40.965Z</time></trkpt><trkpt lat="41.9968152" lon="13.8036908"><ele>585.0</ele><time>2026-04-11T11:03:42.966Z</time></trkpt><trkpt lat="41.9967373" lon="13.8037253"><ele>585.0</ele><time>2026-04-11T11:03:43.966Z</time></trkpt><trkpt lat="41.9966605" lon="13.8037661"><ele>585.0</ele><time>2026-04-11T11:03:44.966Z</time></trkpt><trkpt lat="41.9965908" lon="13.803798"><ele>585.0</ele><time>2026-04-11T11:03:45.966Z</time></trkpt><trkpt lat="41.9965183" lon="13.8038318"><ele>584.6666666666666</ele><time>2026-04-11T11:03:46.966Z</time></trkpt><trkpt lat="41.996445" lon="13.8038447"><ele>584.3333333333334</ele><time>2026-04-11T11:03:47.966Z</time></trkpt><trkpt lat="41.9963663" lon="13.8038404"><ele>584.0</ele><time>2026-04-11T11:03:48.966Z</time></trkpt><trkpt lat="41.9962865" lon="13.8038405"><ele>583.6666666666667</ele><time>2026-04-11T11:03:49.966Z</time></trkpt><trkpt lat="41.9961953" lon="13.8038363"><ele>583.3333333333334</ele><time>2026-04-11T11:03:50.966Z</time></trkpt><trkpt lat="41.9960972" lon="13.8038082"><ele>583.0</ele><time>2026-04-11T11:03:51.966Z</time></trkpt><trkpt lat="41.9959993" lon="13.8037942"><ele>583.0</ele><time>2026-04-11T11:03:52.966Z</time></trkpt><trkpt lat="41.9958997" lon="13.8037763"><ele>583.0</ele><time>2026-04-11T11:03:53.966Z</time></trkpt><trkpt lat="41.995811" lon="13.8037663"><ele>583.0</ele><time>2026-04-11T11:03:54.966Z</time></trkpt><trkpt lat="41.9957248" lon="13.8037542"><ele>583.0</ele><time>2026-04-11T11:03:55.966Z</time></trkpt><trkpt lat="41.9956417" lon="13.8037311"><ele>583.0</ele><time>2026-04-11T11:03:56.966Z</time></trkpt><trkpt lat="41.9955641" lon="13.8036998"><ele>583.0</ele><time>2026-04-11T11:03:57.966Z</time></trkpt><trkpt lat="41.9954935" lon="13.8036725"><ele>582.1999999999999</ele><time>2026-04-11T11:03:58.966Z</time></trkpt><trkpt lat="41.9954185" lon="13.8036524"><ele>581.4</ele><time>2026-04-11T11:03:59.966Z</time></trkpt><trkpt lat="41.9953468" lon="13.8036348"><ele>580.5999999999999</ele><time>2026-04-11T11:04:00.966Z</time></trkpt><trkpt lat="41.9952354" lon="13.8036301"><ele>579.8</ele><time>2026-04-11T11:04:02.966Z</time></trkpt><trkpt lat="41.9951996" lon="13.8037712"><ele>579.0</ele><time>2026-04-11T11:04:04.966Z</time></trkpt><trkpt lat="41.9952759" lon="13.8038743"><ele>579.0</ele><time>2026-04-11T11:04:06.966Z</time></trkpt><trkpt lat="41.9953419" lon="13.8038843"><ele>579.0</ele><time>2026-04-11T11:04:07.966Z</time></trkpt><trkpt lat="41.9954217" lon="13.8038955"><ele>579.0</ele><time>2026-04-11T11:04:08.966Z</time></trkpt><trkpt lat="41.9955084" lon="13.8039083"><ele>579.0</ele><time>2026-04-11T11:04:09.966Z</time></trkpt><trkpt lat="41.9956025" lon="13.8039333"><ele>579.0</ele><time>2026-04-11T11:04:10.966Z</time></trkpt><trkpt lat="41.9957026" lon="13.8039547"><ele>579.0</ele><time>2026-04-11T11:04:11.966Z</time></trkpt><trkpt lat="41.9958066" lon="13.8039874"><ele>580.0</ele><time>2026-04-11T11:04:12.966Z</time></trkpt><trkpt lat="41.9959171" lon="13.8040297"><ele>581.0</ele><time>2026-04-11T11:04:13.965Z</time></trkpt><trkpt lat="41.9960263" lon="13.8040732"><ele>582.0</ele><time>2026-04-11T11:04:14.966Z</time></trkpt><trkpt lat="41.9961381" lon="13.8041161"><ele>583.0</ele><time>2026-04-11T11:04:15.966Z</time></trkpt><trkpt lat="41.9962535" lon="13.8041617"><ele>583.0</ele><time>2026-04-11T11:04:16.965Z</time></trkpt><trkpt lat="41.9963738" lon="13.8042107"><ele>583.0</ele><time>2026-04-11T11:04:17.966Z</time></trkpt><trkpt lat="41.9964979" lon="13.8042606"><ele>583.0</ele><time>2026-04-11T11:04:18.966Z</time></trkpt><trkpt lat="41.9966223" lon="13.8043151"><ele>583.0</ele><time>2026-04-11T11:04:19.966Z</time></trkpt><trkpt lat="41.9967492" lon="13.8043564"><ele>579.75</ele><time>2026-04-11T11:04:20.966Z</time></trkpt><trkpt lat="41.9968636" lon="13.8044218"><ele>576.5</ele><time>2026-04-11T11:04:21.966Z</time></trkpt><trkpt lat="41.9969759" lon="13.8044736"><ele>573.25</ele><time>2026-04-11T11:04:22.966Z</time></trkpt><trkpt lat="41.997086" lon="13.804521"><ele>570.0</ele><time>2026-04-11T11:04:23.966Z</time></trkpt><trkpt lat="41.9971925" lon="13.8045666"><ele>570.0</ele><time>2026-04-11T11:04:24.965Z</time></trkpt><trkpt lat="41.9972951" lon="13.804603"><ele>570.0</ele><time>2026-04-11T11:04:25.966Z</time></trkpt><trkpt lat="41.9973935" lon="13.8046507"><ele>570.0</ele><time>2026-04-11T11:04:26.966Z</time></trkpt><trkpt lat="41.9974923" lon="13.8046977"><ele>570.0</ele><time>2026-04-11T11:04:27.965Z</time></trkpt><trkpt lat="41.9975929" lon="13.8047518"><ele>570.0</ele><time>2026-04-11T11:04:28.966Z</time></trkpt><trkpt lat="41.9976904" lon="13.8048257"><ele>572.0</ele><time>2026-04-11T11:04:29.966Z</time></trkpt><trkpt lat="41.9977906" lon="13.8049173"><ele>574.0</ele><time>2026-04-11T11:04:30.966Z</time></trkpt><trkpt lat="41.9978915" lon="13.8050147"><ele>576.0</ele><time>2026-04-11T11:04:31.966Z</time></trkpt><trkpt lat="41.9979971" lon="13.8051196"><ele>578.0</ele><time>2026-04-11T11:04:32.966Z</time></trkpt><trkpt lat="41.9981143" lon="13.8052183"><ele>572.0</ele><time>2026-04-11T11:04:33.966Z</time></trkpt><trkpt lat="41.9982449" lon="13.8053134"><ele>566.0</ele><time>2026-04-11T11:04:34.966Z</time></trkpt><trkpt lat="41.9983866" lon="13.8053836"><ele>560.0</ele><time>2026-04-11T11:04:35.966Z</time></trkpt><trkpt lat="41.9985361" lon="13.805443"><ele>560.0</ele><time>2026-04-11T11:04:36.966Z</time></trkpt><trkpt lat="41.9988338" lon="13.8055604"><ele>560.0</ele><time>2026-04-11T11:04:38.966Z</time></trkpt><trkpt lat="41.9989822" lon="13.8056123"><ele>560.0</ele><time>2026-04-11T11:04:39.966Z</time></trkpt><trkpt lat="41.9991261" lon="13.8056669"><ele>560.0</ele><time>2026-04-11T11:04:40.966Z</time></trkpt><trkpt lat="41.9992647" lon="13.8057244"><ele>560.0</ele><time>2026-04-11T11:04:41.966Z</time></trkpt><trkpt lat="41.9994017" lon="13.8057949"><ele>560.0</ele><time>2026-04-11T11:04:42.965Z</time></trkpt><trkpt lat="41.9995247" lon="13.8058926"><ele>561.0</ele><time>2026-04-11T11:04:43.966Z</time></trkpt><trkpt lat="41.9996357" lon="13.8060042"><ele>562.0</ele><time>2026-04-11T11:04:44.965Z</time></trkpt><trkpt lat="41.9997247" lon="13.8061357"><ele>563.0</ele><time>2026-04-11T11:04:45.966Z</time></trkpt><trkpt lat="41.9997892" lon="13.8062855"><ele>564.0</ele><time>2026-04-11T11:04:46.966Z</time></trkpt><trkpt lat="41.9998333" lon="13.8064519"><ele>564.0</ele><time>2026-04-11T11:04:47.966Z</time></trkpt><trkpt lat="41.9999078" lon="13.8067979"><ele>564.0</ele><time>2026-04-11T11:04:49.966Z</time></trkpt><trkpt lat="41.9999491" lon="13.8069718"><ele>564.0</ele><time>2026-04-11T11:04:50.966Z</time></trkpt><trkpt lat="41.9999862" lon="13.8071455"><ele>560.5</ele><time>2026-04-11T11:04:51.966Z</time></trkpt><trkpt lat="42.0000441" lon="13.8073231"><ele>557.0</ele><time>2026-04-11T11:04:52.966Z</time></trkpt><trkpt lat="42.0001044" lon="13.8074915"><ele>553.5</ele><time>2026-04-11T11:04:53.965Z</time></trkpt><trkpt lat="42.0001826" lon="13.8076577"><ele>550.0</ele><time>2026-04-11T11:04:54.966Z</time></trkpt><trkpt lat="42.0002567" lon="13.8078276"><ele>541.0</ele><time>2026-04-11T11:04:55.966Z</time></trkpt><trkpt lat="42.0003542" lon="13.8079983"><ele>532.0</ele><time>2026-04-11T11:04:56.966Z</time></trkpt><trkpt lat="42.0005869" lon="13.8083401"><ele>532.6666666666667</ele><time>2026-04-11T11:04:58.966Z</time></trkpt><trkpt lat="42.0007178" lon="13.8085081"><ele>533.3333333333334</ele><time>2026-04-11T11:04:59.966Z</time></trkpt><trkpt lat="42.0008457" lon="13.8086836"><ele>534.0</ele><time>2026-04-11T11:05:00.966Z</time></trkpt><trkpt lat="42.0009776" lon="13.8088544"><ele>534.0</ele><time>2026-04-11T11:05:01.966Z</time></trkpt><trkpt lat="42.0011093" lon="13.8090316"><ele>534.0</ele><time>2026-04-11T11:05:02.966Z</time></trkpt><trkpt lat="42.0012359" lon="13.8092037"><ele>534.0</ele><time>2026-04-11T11:05:03.965Z</time></trkpt><trkpt lat="42.0013608" lon="13.8093695"><ele>532.0</ele><time>2026-04-11T11:05:04.966Z</time></trkpt><trkpt lat="42.0014819" lon="13.8095244"><ele>530.0</ele><time>2026-04-11T11:05:05.966Z</time></trkpt><trkpt lat="42.0015962" lon="13.8096583"><ele>528.0</ele><time>2026-04-11T11:05:06.966Z</time></trkpt><trkpt lat="42.0017122" lon="13.8097645"><ele>528.0</ele><time>2026-04-11T11:05:07.966Z</time></trkpt><trkpt lat="42.0018423" lon="13.8098151"><ele>528.0</ele><time>2026-04-11T11:05:08.966Z</time></trkpt><trkpt lat="42.0019748" lon="13.8098307"><ele>528.0</ele><time>2026-04-11T11:05:09.966Z</time></trkpt><trkpt lat="42.002107" lon="13.8097886"><ele>528.0</ele><time>2026-04-11T11:05:10.966Z</time></trkpt><trkpt lat="42.0022323" lon="13.8096903"><ele>528.0</ele><time>2026-04-11T11:05:11.966Z</time></trkpt><trkpt lat="42.0023451" lon="13.8095461"><ele>528.0</ele><time>2026-04-11T11:05:12.966Z</time></trkpt><trkpt lat="42.0024458" lon="13.8093734"><ele>528.0</ele><time>2026-04-11T11:05:13.965Z</time></trkpt><trkpt lat="42.0025488" lon="13.8091866"><ele>533.0</ele><time>2026-04-11T11:05:14.965Z</time></trkpt><trkpt lat="42.0026485" lon="13.8089606"><ele>538.0</ele><time>2026-04-11T11:05:15.966Z</time></trkpt><trkpt lat="42.002749" lon="13.808736"><ele>543.0</ele><time>2026-04-11T11:05:16.966Z</time></trkpt><trkpt lat="42.0028497" lon="13.8085128"><ele>546.6666666666666</ele><time>2026-04-11T11:05:17.966Z</time></trkpt><trkpt lat="42.0029457" lon="13.8082914"><ele>550.3333333333333</ele><time>2026-04-11T11:05:18.965Z</time></trkpt><trkpt lat="42.0030454" lon="13.8080773"><ele>554.0</ele><time>2026-04-11T11:05:19.966Z</time></trkpt><trkpt lat="42.0031414" lon="13.8078729"><ele>554.0</ele><time>2026-04-11T11:05:20.966Z</time></trkpt><trkpt lat="42.0032405" lon="13.8076747"><ele>554.0</ele><time>2026-04-11T11:05:21.966Z</time></trkpt><trkpt lat="42.0033544" lon="13.8074994"><ele>554.0</ele><time>2026-04-11T11:05:22.966Z</time></trkpt><trkpt lat="42.0034697" lon="13.8073375"><ele>546.3333333333333</ele><time>2026-04-11T11:05:23.966Z</time></trkpt><trkpt lat="42.0036017" lon="13.8071878"><ele>538.6666666666666</ele><time>2026-04-11T11:05:24.966Z</time></trkpt><trkpt lat="42.0037563" lon="13.8070469"><ele>531.0</ele><time>2026-04-11T11:05:25.966Z</time></trkpt><trkpt lat="42.0039214" lon="13.8069138"><ele>533.6666666666666</ele><time>2026-04-11T11:05:26.966Z</time></trkpt><trkpt lat="42.004084" lon="13.8067814"><ele>536.3333333333333</ele><time>2026-04-11T11:05:27.965Z</time></trkpt><trkpt lat="42.0042407" lon="13.8066554"><ele>539.0</ele><time>2026-04-11T11:05:28.965Z</time></trkpt><trkpt lat="42.0043886" lon="13.806533"><ele>533.6666666666666</ele><time>2026-04-11T11:05:29.966Z</time></trkpt><trkpt lat="42.0046479" lon="13.8063235"><ele>528.3333333333334</ele><time>2026-04-11T11:05:31.966Z</time></trkpt><trkpt lat="42.0047604" lon="13.8062362"><ele>523.0</ele><time>2026-04-11T11:05:32.966Z</time></trkpt><trkpt lat="42.0048591" lon="13.8061878"><ele>523.0</ele><time>2026-04-11T11:05:33.965Z</time></trkpt><trkpt lat="42.0049616" lon="13.8061769"><ele>523.0</ele><time>2026-04-11T11:05:34.966Z</time></trkpt><trkpt lat="42.0050617" lon="13.8062188"><ele>523.0</ele><time>2026-04-11T11:05:35.966Z</time></trkpt><trkpt lat="42.0051549" lon="13.8063079"><ele>523.0</ele><time>2026-04-11T11:05:36.966Z</time></trkpt><trkpt lat="42.0052345" lon="13.8064425"><ele>520.25</ele><time>2026-04-11T11:05:37.966Z</time></trkpt><trkpt lat="42.0053036" lon="13.8065958"><ele>517.5</ele><time>2026-04-11T11:05:38.965Z</time></trkpt><trkpt lat="42.0053678" lon="13.8067384"><ele>514.75</ele><time>2026-04-11T11:05:39.966Z</time></trkpt><trkpt lat="42.0054232" lon="13.8068648"><ele>512.0</ele><time>2026-04-11T11:05:40.966Z</time></trkpt><trkpt lat="42.0054646" lon="13.8069794"><ele>511.8</ele><time>2026-04-11T11:05:41.965Z</time></trkpt><trkpt lat="42.005474" lon="13.807102"><ele>511.6</ele><time>2026-04-11T11:05:42.966Z</time></trkpt><trkpt lat="42.0054477" lon="13.8072116"><ele>511.40000000000003</ele><time>2026-04-11T11:05:43.966Z</time></trkpt><trkpt lat="42.0053738" lon="13.8073138"><ele>511.20000000000005</ele><time>2026-04-11T11:05:44.966Z</time></trkpt><trkpt lat="42.0052807" lon="13.807402"><ele>511.0</ele><time>2026-04-11T11:05:45.966Z</time></trkpt><trkpt lat="42.0051858" lon="13.8075235"><ele>509.33333333333337</ele><time>2026-04-11T11:05:46.966Z</time></trkpt><trkpt lat="42.0051024" lon="13.8076758"><ele>507.66666666666663</ele><time>2026-04-11T11:05:47.966Z</time></trkpt><trkpt lat="42.0050283" lon="13.807847"><ele>506.0</ele><time>2026-04-11T11:05:48.966Z</time></trkpt><trkpt lat="42.0049516" lon="13.8080412"><ele>506.0</ele><time>2026-04-11T11:05:49.966Z</time></trkpt><trkpt lat="42.004864" lon="13.808253"><ele>506.0</ele><time>2026-04-11T11:05:50.966Z</time></trkpt><trkpt lat="42.0047706" lon="13.8084867"><ele>506.0</ele><time>2026-04-11T11:05:51.966Z</time></trkpt><trkpt lat="42.0046692" lon="13.8087409"><ele>505.66666666666663</ele><time>2026-04-11T11:05:52.966Z</time></trkpt><trkpt lat="42.0045668" lon="13.8090019"><ele>505.33333333333337</ele><time>2026-04-11T11:05:53.966Z</time></trkpt><trkpt lat="42.0044664" lon="13.809267"><ele>505.0</ele><time>2026-04-11T11:05:54.966Z</time></trkpt><trkpt lat="42.0043608" lon="13.8095258"><ele>505.0</ele><time>2026-04-11T11:05:55.966Z</time></trkpt><trkpt lat="42.0042633" lon="13.8097896"><ele>505.0</ele><time>2026-04-11T11:05:56.966Z</time></trkpt><trkpt lat="42.0041641" lon="13.8100491"><ele>505.0</ele><time>2026-04-11T11:05:57.965Z</time></trkpt><trkpt lat="42.0040661" lon="13.8103064"><ele>502.6666666666667</ele><time>2026-04-11T11:05:58.966Z</time></trkpt><trkpt lat="42.0039675" lon="13.8105627"><ele>500.33333333333337</ele><time>2026-04-11T11:05:59.966Z</time></trkpt><trkpt lat="42.0038657" lon="13.8108105"><ele>498.0</ele><time>2026-04-11T11:06:00.966Z</time></trkpt><trkpt lat="42.0037674" lon="13.8110514"><ele>498.0</ele><time>2026-04-11T11:06:01.966Z</time></trkpt><trkpt lat="42.0036731" lon="13.8112817"><ele>498.0</ele><time>2026-04-11T11:06:02.966Z</time></trkpt><trkpt lat="42.0035809" lon="13.8114984"><ele>498.0</ele><time>2026-04-11T11:06:03.966Z</time></trkpt><trkpt lat="42.0034934" lon="13.8117105"><ele>500.0</ele><time>2026-04-11T11:06:04.966Z</time></trkpt><trkpt lat="42.0034088" lon="13.8119079"><ele>502.0</ele><time>2026-04-11T11:06:05.966Z</time></trkpt><trkpt lat="42.0033352" lon="13.812101"><ele>504.0</ele><time>2026-04-11T11:06:06.966Z</time></trkpt><trkpt lat="42.0032793" lon="13.8122971"><ele>493.5</ele><time>2026-04-11T11:06:07.966Z</time></trkpt><trkpt lat="42.0032471" lon="13.81251"><ele>483.0</ele><time>2026-04-11T11:06:08.966Z</time></trkpt><trkpt lat="42.0032654" lon="13.8129325"><ele>482.0</ele><time>2026-04-11T11:06:10.966Z</time></trkpt><trkpt lat="42.003312" lon="13.8131459"><ele>481.0</ele><time>2026-04-11T11:06:11.966Z</time></trkpt><trkpt lat="42.0033781" lon="13.813356"><ele>480.0</ele><time>2026-04-11T11:06:12.966Z</time></trkpt><trkpt lat="42.003463" lon="13.8135589"><ele>482.0</ele><time>2026-04-11T11:06:13.966Z</time></trkpt><trkpt lat="42.0035605" lon="13.8137645"><ele>484.0</ele><time>2026-04-11T11:06:14.966Z</time></trkpt><trkpt lat="42.0036541" lon="13.8139719"><ele>486.0</ele><time>2026-04-11T11:06:15.966Z</time></trkpt><trkpt lat="42.0037454" lon="13.8141842"><ele>483.33333333333337</ele><time>2026-04-11T11:06:16.966Z</time></trkpt><trkpt lat="42.0038258" lon="13.8144225"><ele>480.6666666666667</ele><time>2026-04-11T11:06:17.966Z</time></trkpt><trkpt lat="42.0038837" lon="13.8146682"><ele>478.0</ele><time>2026-04-11T11:06:18.966Z</time></trkpt><trkpt lat="42.0039697" lon="13.8151897"><ele>476.6666666666667</ele><time>2026-04-11T11:06:20.966Z</time></trkpt><trkpt lat="42.0040079" lon="13.8154684"><ele>475.33333333333337</ele><time>2026-04-11T11:06:21.965Z</time></trkpt><trkpt lat="42.0040443" lon="13.8157551"><ele>474.0</ele><time>2026-04-11T11:06:22.966Z</time></trkpt><trkpt lat="42.0040836" lon="13.81604"><ele>473.66666666666663</ele><time>2026-04-11T11:06:23.966Z</time></trkpt><trkpt lat="42.0041265" lon="13.8163089"><ele>473.3333333333333</ele><time>2026-04-11T11:06:24.966Z</time></trkpt><trkpt lat="42.0041598" lon="13.8165678"><ele>473.0</ele><time>2026-04-11T11:06:25.966Z</time></trkpt><trkpt lat="42.0041995" lon="13.8168084"><ele>475.66666666666663</ele><time>2026-04-11T11:06:26.966Z</time></trkpt><trkpt lat="42.0042345" lon="13.8170296"><ele>478.33333333333337</ele><time>2026-04-11T11:06:27.966Z</time></trkpt><trkpt lat="42.0042822" lon="13.817232"><ele>481.0</ele><time>2026-04-11T11:06:28.966Z</time></trkpt><trkpt lat="42.0043575" lon="13.8174195"><ele>481.0</ele><time>2026-04-11T11:06:29.966Z</time></trkpt><trkpt lat="42.0044674" lon="13.8175867"><ele>481.0</ele><time>2026-04-11T11:06:30.966Z</time></trkpt><trkpt lat="42.0045984" lon="13.8177314"><ele>481.0</ele><time>2026-04-11T11:06:31.966Z</time></trkpt><trkpt lat="42.0047508" lon="13.8178501"><ele>480.33333333333337</ele><time>2026-04-11T11:06:32.966Z</time></trkpt><trkpt lat="42.0049125" lon="13.8179551"><ele>479.66666666666663</ele><time>2026-04-11T11:06:33.966Z</time></trkpt><trkpt lat="42.0050738" lon="13.8180703"><ele>479.0</ele><time>2026-04-11T11:06:34.966Z</time></trkpt><trkpt lat="42.0052325" lon="13.8181991"><ele>480.3333333333333</ele><time>2026-04-11T11:06:35.966Z</time></trkpt><trkpt lat="42.0053828" lon="13.8183312"><ele>481.66666666666663</ele><time>2026-04-11T11:06:36.966Z</time></trkpt><trkpt lat="42.0055224" lon="13.8184678"><ele>483.0</ele><time>2026-04-11T11:06:37.965Z</time></trkpt><trkpt lat="42.0056583" lon="13.8185868"><ele>481.0</ele><time>2026-04-11T11:06:38.966Z</time></trkpt><trkpt lat="42.0057844" lon="13.8187056"><ele>479.0</ele><time>2026-04-11T11:06:39.966Z</time></trkpt><trkpt lat="42.0058929" lon="13.8188483"><ele>477.0</ele><time>2026-04-11T11:06:40.966Z</time></trkpt><trkpt lat="42.0059756" lon="13.819026"><ele>477.0</ele><time>2026-04-11T11:06:41.966Z</time></trkpt><trkpt lat="42.0060553" lon="13.8192134"><ele>477.0</ele><time>2026-04-11T11:06:42.966Z</time></trkpt><trkpt lat="42.0061318" lon="13.8194039"><ele>477.0</ele><time>2026-04-11T11:06:43.966Z</time></trkpt><trkpt lat="42.0062123" lon="13.8195891"><ele>474.0</ele><time>2026-04-11T11:06:44.966Z</time></trkpt><trkpt lat="42.0062873" lon="13.819768"><ele>471.0</ele><time>2026-04-11T11:06:45.966Z</time></trkpt><trkpt lat="42.0063538" lon="13.8199324"><ele>468.0</ele><time>2026-04-11T11:06:46.966Z</time></trkpt><trkpt lat="42.0064198" lon="13.8200749"><ele>465.0</ele><time>2026-04-11T11:06:47.966Z</time></trkpt><trkpt lat="42.0064944" lon="13.8202054"><ele>465.0</ele><time>2026-04-11T11:06:48.965Z</time></trkpt><trkpt lat="42.0065831" lon="13.8203164"><ele>465.0</ele><time>2026-04-11T11:06:49.966Z</time></trkpt><trkpt lat="42.0066993" lon="13.820399"><ele>465.0</ele><time>2026-04-11T11:06:50.966Z</time></trkpt><trkpt lat="42.0068306" lon="13.8204374"><ele>465.0</ele><time>2026-04-11T11:06:51.966Z</time></trkpt><trkpt lat="42.0069559" lon="13.82047"><ele>464.25</ele><time>2026-04-11T11:06:52.966Z</time></trkpt><trkpt lat="42.0070876" lon="13.8205205"><ele>463.5</ele><time>2026-04-11T11:06:53.966Z</time></trkpt><trkpt lat="42.0072084" lon="13.8206152"><ele>462.75</ele><time>2026-04-11T11:06:54.966Z</time></trkpt><trkpt lat="42.0073192" lon="13.8207529"><ele>462.0</ele><time>2026-04-11T11:06:55.966Z</time></trkpt><trkpt lat="42.0074225" lon="13.8209026"><ele>463.0</ele><time>2026-04-11T11:06:56.966Z</time></trkpt><trkpt lat="42.0075216" lon="13.8210568"><ele>464.0</ele><time>2026-04-11T11:06:57.966Z</time></trkpt><trkpt lat="42.0076113" lon="13.8212258"><ele>465.0</ele><time>2026-04-11T11:06:58.966Z</time></trkpt><trkpt lat="42.0076767" lon="13.8213962"><ele>466.0</ele><time>2026-04-11T11:06:59.966Z</time></trkpt><trkpt lat="42.0077333" lon="13.8215753"><ele>466.0</ele><time>2026-04-11T11:07:00.966Z</time></trkpt><trkpt lat="42.007776" lon="13.8217544"><ele>466.0</ele><time>2026-04-11T11:07:01.966Z</time></trkpt><trkpt lat="42.0078236" lon="13.8219417"><ele>466.0</ele><time>2026-04-11T11:07:02.966Z</time></trkpt><trkpt lat="42.0078768" lon="13.8221344"><ele>466.0</ele><time>2026-04-11T11:07:03.966Z</time></trkpt><trkpt lat="42.0079748" lon="13.822507"><ele>464.0</ele><time>2026-04-11T11:07:05.966Z</time></trkpt><trkpt lat="42.008007" lon="13.822689"><ele>462.0</ele><time>2026-04-11T11:07:06.966Z</time></trkpt><trkpt lat="42.0080108" lon="13.8228815"><ele>460.0</ele><time>2026-04-11T11:07:07.966Z</time></trkpt><trkpt lat="42.0079893" lon="13.8230846"><ele>458.0</ele><time>2026-04-11T11:07:08.966Z</time></trkpt><trkpt lat="42.0079463" lon="13.823293"><ele>459.0</ele><time>2026-04-11T11:07:09.966Z</time></trkpt><trkpt lat="42.0078827" lon="13.8234953"><ele>460.0</ele><time>2026-04-11T11:07:10.966Z</time></trkpt><trkpt lat="42.0078057" lon="13.8236953"><ele>461.0</ele><time>2026-04-11T11:07:11.966Z</time></trkpt><trkpt lat="42.0077245" lon="13.823894"><ele>461.0</ele><time>2026-04-11T11:07:12.966Z</time></trkpt><trkpt lat="42.0076529" lon="13.8240792"><ele>461.0</ele><time>2026-04-11T11:07:13.965Z</time></trkpt><trkpt lat="42.0075896" lon="13.8242577"><ele>461.0</ele><time>2026-04-11T11:07:14.965Z</time></trkpt><trkpt lat="42.0075487" lon="13.8244494"><ele>462.5</ele><time>2026-04-11T11:07:15.965Z</time></trkpt><trkpt lat="42.0075364" lon="13.8246539"><ele>464.0</ele><time>2026-04-11T11:07:16.965Z</time></trkpt><trkpt lat="42.0075722" lon="13.8250934"><ele>462.3333333333333</ele><time>2026-04-11T11:07:18.966Z</time></trkpt><trkpt lat="42.0075983" lon="13.8253264"><ele>460.66666666666663</ele><time>2026-04-11T11:07:19.965Z</time></trkpt><trkpt lat="42.007636" lon="13.8255548"><ele>459.0</ele><time>2026-04-11T11:07:20.966Z</time></trkpt><trkpt lat="42.0076815" lon="13.8257797"><ele>458.0</ele><time>2026-04-11T11:07:21.966Z</time></trkpt><trkpt lat="42.0077303" lon="13.8259912"><ele>457.0</ele><time>2026-04-11T11:07:22.965Z</time></trkpt><trkpt lat="42.0078025" lon="13.8261972"><ele>456.0</ele><time>2026-04-11T11:07:23.966Z</time></trkpt><trkpt lat="42.0078815" lon="13.8263949"><ele>456.0</ele><time>2026-04-11T11:07:24.966Z</time></trkpt><trkpt lat="42.0079645" lon="13.8265791"><ele>456.0</ele><time>2026-04-11T11:07:25.966Z</time></trkpt><trkpt lat="42.0080598" lon="13.8267455"><ele>456.0</ele><time>2026-04-11T11:07:26.966Z</time></trkpt><trkpt lat="42.0081825" lon="13.8268795"><ele>454.66666666666663</ele><time>2026-04-11T11:07:27.966Z</time></trkpt><trkpt lat="42.0083246" lon="13.8269864"><ele>453.3333333333333</ele><time>2026-04-11T11:07:28.966Z</time></trkpt><trkpt lat="42.0084779" lon="13.8270802"><ele>452.0</ele><time>2026-04-11T11:07:29.966Z</time></trkpt><trkpt lat="42.0086354" lon="13.8271779"><ele>452.0</ele><time>2026-04-11T11:07:30.966Z</time></trkpt><trkpt lat="42.0087963" lon="13.8272699"><ele>452.0</ele><time>2026-04-11T11:07:31.966Z</time></trkpt><trkpt lat="42.0089621" lon="13.8273442"><ele>452.0</ele><time>2026-04-11T11:07:32.965Z</time></trkpt><trkpt lat="42.009126" lon="13.8273898"><ele>451.0</ele><time>2026-04-11T11:07:33.966Z</time></trkpt><trkpt lat="42.0092863" lon="13.8274446"><ele>450.0</ele><time>2026-04-11T11:07:34.965Z</time></trkpt><trkpt lat="42.0094381" lon="13.8275535"><ele>449.0</ele><time>2026-04-11T11:07:35.966Z</time></trkpt><trkpt lat="42.0095967" lon="13.827672"><ele>449.0</ele><time>2026-04-11T11:07:36.966Z</time></trkpt><trkpt lat="42.0097631" lon="13.8277989"><ele>449.0</ele><time>2026-04-11T11:07:37.966Z</time></trkpt><trkpt lat="42.009932" lon="13.8279298"><ele>449.0</ele><time>2026-04-11T11:07:38.966Z</time></trkpt><trkpt lat="42.0101032" lon="13.8280666"><ele>449.0</ele><time>2026-04-11T11:07:39.966Z</time></trkpt><trkpt lat="42.0102702" lon="13.8281971"><ele>449.0</ele><time>2026-04-11T11:07:40.966Z</time></trkpt><trkpt lat="42.0104303" lon="13.8283141"><ele>449.0</ele><time>2026-04-11T11:07:41.966Z</time></trkpt><trkpt lat="42.010724" lon="13.8285567"><ele>448.25</ele><time>2026-04-11T11:07:43.966Z</time></trkpt><trkpt lat="42.0108578" lon="13.8286782"><ele>447.5</ele><time>2026-04-11T11:07:44.966Z</time></trkpt><trkpt lat="42.0109757" lon="13.8287991"><ele>446.75</ele><time>2026-04-11T11:07:45.966Z</time></trkpt><trkpt lat="42.0110745" lon="13.8289203"><ele>446.0</ele><time>2026-04-11T11:07:46.966Z</time></trkpt><trkpt lat="42.0111544" lon="13.8290475"><ele>446.0</ele><time>2026-04-11T11:07:47.966Z</time></trkpt><trkpt lat="42.0111872" lon="13.8292224"><ele>446.0</ele><time>2026-04-11T11:07:48.966Z</time></trkpt><trkpt lat="42.0112226" lon="13.829398"><ele>446.0</ele><time>2026-04-11T11:07:49.966Z</time></trkpt><trkpt lat="42.0112543" lon="13.8295821"><ele>446.0</ele><time>2026-04-11T11:07:50.966Z</time></trkpt><trkpt lat="42.0112881" lon="13.8297956"><ele>443.0</ele><time>2026-04-11T11:07:51.966Z</time></trkpt><trkpt lat="42.0113243" lon="13.8300257"><ele>440.0</ele><time>2026-04-11T11:07:52.966Z</time></trkpt><trkpt lat="42.0113658" lon="13.830261"><ele>437.0</ele><time>2026-04-11T11:07:53.966Z</time></trkpt><trkpt lat="42.011413" lon="13.8304862"><ele>437.0</ele><time>2026-04-11T11:07:54.966Z</time></trkpt><trkpt lat="42.0114658" lon="13.8307037"><ele>437.0</ele><time>2026-04-11T11:07:55.966Z</time></trkpt><trkpt lat="42.0115191" lon="13.8309069"><ele>437.0</ele><time>2026-04-11T11:07:56.966Z</time></trkpt><trkpt lat="42.0115713" lon="13.8310996"><ele>437.0</ele><time>2026-04-11T11:07:57.966Z</time></trkpt><trkpt lat="42.0116215" lon="13.8312869"><ele>437.0</ele><time>2026-04-11T11:07:58.966Z</time></trkpt><trkpt lat="42.0116329" lon="13.8314743"><ele>437.0</ele><time>2026-04-11T11:07:59.966Z</time></trkpt><trkpt lat="42.0116175" lon="13.83167"><ele>437.0</ele><time>2026-04-11T11:08:00.966Z</time></trkpt><trkpt lat="42.0115863" lon="13.8318749"><ele>437.0</ele><time>2026-04-11T11:08:01.966Z</time></trkpt><trkpt lat="42.0115582" lon="13.8320774"><ele>437.0</ele><time>2026-04-11T11:08:02.966Z</time></trkpt><trkpt lat="42.0115488" lon="13.8322964"><ele>437.0</ele><time>2026-04-11T11:08:03.966Z</time></trkpt><trkpt lat="42.0115594" lon="13.8325168"><ele>436.0</ele><time>2026-04-11T11:08:04.966Z</time></trkpt><trkpt lat="42.0115883" lon="13.8327328"><ele>435.0</ele><time>2026-04-11T11:08:05.966Z</time></trkpt><trkpt lat="42.0116374" lon="13.8329484"><ele>434.0</ele><time>2026-04-11T11:08:06.965Z</time></trkpt><trkpt lat="42.0117085" lon="13.8331517"><ele>434.0</ele><time>2026-04-11T11:08:07.966Z</time></trkpt><trkpt lat="42.0118015" lon="13.8333485"><ele>434.0</ele><time>2026-04-11T11:08:08.966Z</time></trkpt><trkpt lat="42.0119081" lon="13.8335258"><ele>434.0</ele><time>2026-04-11T11:08:09.966Z</time></trkpt><trkpt lat="42.0120275" lon="13.8336873"><ele>434.3333333333333</ele><time>2026-04-11T11:08:10.966Z</time></trkpt><trkpt lat="42.0121632" lon="13.8338324"><ele>434.66666666666663</ele><time>2026-04-11T11:08:11.966Z</time></trkpt><trkpt lat="42.0123011" lon="13.8339649"><ele>435.0</ele><time>2026-04-11T11:08:12.966Z</time></trkpt><trkpt lat="42.0124337" lon="13.8340895"><ele>435.33333333333337</ele><time>2026-04-11T11:08:13.966Z</time></trkpt><trkpt lat="42.0125524" lon="13.8341994"><ele>435.6666666666667</ele><time>2026-04-11T11:08:14.966Z</time></trkpt><trkpt lat="42.0127357" lon="13.8344069"><ele>436.0</ele><time>2026-04-11T11:08:16.966Z</time></trkpt><trkpt lat="42.0127941" lon="13.8345232"><ele>436.20000000000005</ele><time>2026-04-11T11:08:17.966Z</time></trkpt><trkpt lat="42.0128292" lon="13.8346355"><ele>436.40000000000003</ele><time>2026-04-11T11:08:18.966Z</time></trkpt><trkpt lat="42.0127943" lon="13.8348"><ele>436.6</ele><time>2026-04-11T11:08:19.965Z</time></trkpt><trkpt lat="42.0127861" lon="13.834931"><ele>436.8</ele><time>2026-04-11T11:08:20.966Z</time></trkpt><trkpt lat="42.0127923" lon="13.8350462"><ele>437.0</ele><time>2026-04-11T11:08:21.966Z</time></trkpt><trkpt lat="42.012842" lon="13.8351522"><ele>446.3333333333333</ele><time>2026-04-11T11:08:22.966Z</time></trkpt><trkpt lat="42.0129326" lon="13.8352314"><ele>455.66666666666663</ele><time>2026-04-11T11:08:23.965Z</time></trkpt><trkpt lat="42.0131724" lon="13.835395"><ele>465.0</ele><time>2026-04-11T11:08:25.966Z</time></trkpt><trkpt lat="42.0133095" lon="13.8354894"><ele>458.33333333333337</ele><time>2026-04-11T11:08:26.966Z</time></trkpt><trkpt lat="42.0134601" lon="13.8355943"><ele>451.6666666666667</ele><time>2026-04-11T11:08:27.966Z</time></trkpt><trkpt lat="42.0136118" lon="13.8357052"><ele>445.0</ele><time>2026-04-11T11:08:28.966Z</time></trkpt><trkpt lat="42.013766" lon="13.8358332"><ele>446.6666666666667</ele><time>2026-04-11T11:08:29.966Z</time></trkpt><trkpt lat="42.0139202" lon="13.8359759"><ele>448.33333333333337</ele><time>2026-04-11T11:08:30.966Z</time></trkpt><trkpt lat="42.0140736" lon="13.8361355"><ele>450.0</ele><time>2026-04-11T11:08:31.966Z</time></trkpt><trkpt lat="42.0142398" lon="13.8362783"><ele>450.0</ele><time>2026-04-11T11:08:32.966Z</time></trkpt><trkpt lat="42.0144036" lon="13.8364172"><ele>450.0</ele><time>2026-04-11T11:08:33.966Z</time></trkpt><trkpt lat="42.0145557" lon="13.8365462"><ele>450.0</ele><time>2026-04-11T11:08:34.966Z</time></trkpt><trkpt lat="42.0146989" lon="13.8366612"><ele>450.0</ele><time>2026-04-11T11:08:35.966Z</time></trkpt><trkpt lat="42.0148328" lon="13.8367671"><ele>450.0</ele><time>2026-04-11T11:08:36.966Z</time></trkpt><trkpt lat="42.0149587" lon="13.8368606"><ele>450.0</ele><time>2026-04-11T11:08:37.966Z</time></trkpt><trkpt lat="42.0150778" lon="13.836952"><ele>450.0</ele><time>2026-04-11T11:08:38.966Z</time></trkpt><trkpt lat="42.0151891" lon="13.8370402"><ele>452.75</ele><time>2026-04-11T11:08:39.966Z</time></trkpt><trkpt lat="42.0152957" lon="13.8371362"><ele>455.5</ele><time>2026-04-11T11:08:40.965Z</time></trkpt><trkpt lat="42.0153985" lon="13.8372396"><ele>458.25</ele><time>2026-04-11T11:08:41.966Z</time></trkpt><trkpt lat="42.0154989" lon="13.8373482"><ele>461.0</ele><time>2026-04-11T11:08:42.966Z</time></trkpt><trkpt lat="42.0155934" lon="13.8374722"><ele>461.0</ele><time>2026-04-11T11:08:43.966Z</time></trkpt><trkpt lat="42.015683" lon="13.837615"><ele>461.0</ele><time>2026-04-11T11:08:44.966Z</time></trkpt><trkpt lat="42.015774" lon="13.8377662"><ele>461.0</ele><time>2026-04-11T11:08:45.966Z</time></trkpt><trkpt lat="42.0158793" lon="13.8379117"><ele>461.0</ele><time>2026-04-11T11:08:46.965Z</time></trkpt><trkpt lat="42.015984" lon="13.8380594"><ele>462.0</ele><time>2026-04-11T11:08:47.966Z</time></trkpt><trkpt lat="42.0160789" lon="13.8382186"><ele>463.0</ele><time>2026-04-11T11:08:48.966Z</time></trkpt><trkpt lat="42.0161623" lon="13.8383924"><ele>464.0</ele><time>2026-04-11T11:08:49.966Z</time></trkpt><trkpt lat="42.0162415" lon="13.8385882"><ele>472.3333333333333</ele><time>2026-04-11T11:08:50.966Z</time></trkpt><trkpt lat="42.016327" lon="13.8387797"><ele>480.66666666666663</ele><time>2026-04-11T11:08:51.965Z</time></trkpt><trkpt lat="42.0164529" lon="13.8389498"><ele>489.0</ele><time>2026-04-11T11:08:52.966Z</time></trkpt><trkpt lat="42.0165871" lon="13.8391062"><ele>482.66666666666663</ele><time>2026-04-11T11:08:53.966Z</time></trkpt><trkpt lat="42.0167366" lon="13.8392488"><ele>476.3333333333333</ele><time>2026-04-11T11:08:54.966Z</time></trkpt><trkpt lat="42.0168876" lon="13.839375"><ele>470.0</ele><time>2026-04-11T11:08:55.965Z</time></trkpt><trkpt lat="42.0170263" lon="13.8394801"><ele>470.0</ele><time>2026-04-11T11:08:56.966Z</time></trkpt><trkpt lat="42.017147" lon="13.8395849"><ele>470.0</ele><time>2026-04-11T11:08:57.966Z</time></trkpt><trkpt lat="42.0172411" lon="13.8396954"><ele>470.0</ele><time>2026-04-11T11:08:58.966Z</time></trkpt><trkpt lat="42.0173002" lon="13.8398164"><ele>470.0</ele><time>2026-04-11T11:08:59.966Z</time></trkpt><trkpt lat="42.0173064" lon="13.8399573"><ele>470.0</ele><time>2026-04-11T11:09:00.966Z</time></trkpt><trkpt lat="42.0172846" lon="13.840108"><ele>470.0</ele><time>2026-04-11T11:09:01.966Z</time></trkpt><trkpt lat="42.0172618" lon="13.8402633"><ele>470.0</ele><time>2026-04-11T11:09:02.966Z</time></trkpt><trkpt lat="42.017256" lon="13.8404089"><ele>470.0</ele><time>2026-04-11T11:09:03.966Z</time></trkpt><trkpt lat="42.0172843" lon="13.8405472"><ele>470.0</ele><time>2026-04-11T11:09:04.966Z</time></trkpt><trkpt lat="42.0173301" lon="13.8406699"><ele>468.0</ele><time>2026-04-11T11:09:05.965Z</time></trkpt><trkpt lat="42.0174076" lon="13.8407584"><ele>466.0</ele><time>2026-04-11T11:09:06.966Z</time></trkpt><trkpt lat="42.0175111" lon="13.8408028"><ele>464.0</ele><time>2026-04-11T11:09:07.966Z</time></trkpt><trkpt lat="42.0176658" lon="13.8407646"><ele>462.0</ele><time>2026-04-11T11:09:08.965Z</time></trkpt><trkpt lat="42.0177736" lon="13.8408348"><ele>462.0</ele><time>2026-04-11T11:09:09.966Z</time></trkpt><trkpt lat="42.017855" lon="13.8409476"><ele>462.0</ele><time>2026-04-11T11:09:10.966Z</time></trkpt><trkpt lat="42.0179144" lon="13.8410985"><ele>462.0</ele><time>2026-04-11T11:09:11.966Z</time></trkpt><trkpt lat="42.0179758" lon="13.8412767"><ele>462.0</ele><time>2026-04-11T11:09:12.966Z</time></trkpt><trkpt lat="42.0180572" lon="13.8414646"><ele>466.0</ele><time>2026-04-11T11:09:13.966Z</time></trkpt><trkpt lat="42.0181578" lon="13.8416452"><ele>470.0</ele><time>2026-04-11T11:09:14.965Z</time></trkpt><trkpt lat="42.0182722" lon="13.8418313"><ele>474.0</ele><time>2026-04-11T11:09:15.966Z</time></trkpt><trkpt lat="42.0183882" lon="13.8420104"><ele>474.0</ele><time>2026-04-11T11:09:16.966Z</time></trkpt><trkpt lat="42.0184883" lon="13.8421854"><ele>474.0</ele><time>2026-04-11T11:09:17.966Z</time></trkpt><trkpt lat="42.0185679" lon="13.8423444"><ele>474.0</ele><time>2026-04-11T11:09:18.966Z</time></trkpt><trkpt lat="42.0186427" lon="13.842512"><ele>475.5</ele><time>2026-04-11T11:09:19.965Z</time></trkpt><trkpt lat="42.0186316" lon="13.842674"><ele>477.0</ele><time>2026-04-11T11:09:20.965Z</time></trkpt><trkpt lat="42.0186466" lon="13.8428289"><ele>478.5</ele><time>2026-04-11T11:09:21.966Z</time></trkpt><trkpt lat="42.0187022" lon="13.8429645"><ele>480.0</ele><time>2026-04-11T11:09:22.966Z</time></trkpt><trkpt lat="42.0187946" lon="13.8430706"><ele>480.0</ele><time>2026-04-11T11:09:23.966Z</time></trkpt><trkpt lat="42.0189148" lon="13.8431482"><ele>480.0</ele><time>2026-04-11T11:09:24.966Z</time></trkpt><trkpt lat="42.0190581" lon="13.8432"><ele>480.0</ele><time>2026-04-11T11:09:25.966Z</time></trkpt><trkpt lat="42.0192131" lon="13.8432648"><ele>480.0</ele><time>2026-04-11T11:09:26.966Z</time></trkpt><trkpt lat="42.0193863" lon="13.843328"><ele>481.66666666666663</ele><time>2026-04-11T11:09:27.966Z</time></trkpt><trkpt lat="42.0195455" lon="13.8433998"><ele>483.3333333333333</ele><time>2026-04-11T11:09:28.966Z</time></trkpt><trkpt lat="42.0196944" lon="13.8434567"><ele>485.0</ele><time>2026-04-11T11:09:29.966Z</time></trkpt><trkpt lat="42.0198283" lon="13.8435175"><ele>485.0</ele><time>2026-04-11T11:09:30.966Z</time></trkpt><trkpt lat="42.0199296" lon="13.8436307"><ele>485.0</ele><time>2026-04-11T11:09:31.966Z</time></trkpt><trkpt lat="42.0199938" lon="13.8437689"><ele>485.0</ele><time>2026-04-11T11:09:32.966Z</time></trkpt><trkpt lat="42.0200207" lon="13.8439639"><ele>485.0</ele><time>2026-04-11T11:09:33.966Z</time></trkpt><trkpt lat="42.02004" lon="13.8441708"><ele>482.0</ele><time>2026-04-11T11:09:34.966Z</time></trkpt><trkpt lat="42.0200669" lon="13.8443881"><ele>479.0</ele><time>2026-04-11T11:09:35.966Z</time></trkpt><trkpt lat="42.0200985" lon="13.8446072"><ele>476.0</ele><time>2026-04-11T11:09:36.966Z</time></trkpt><trkpt lat="42.0201273" lon="13.8448362"><ele>476.0</ele><time>2026-04-11T11:09:37.965Z</time></trkpt><trkpt lat="42.0201576" lon="13.8450647"><ele>476.0</ele><time>2026-04-11T11:09:38.966Z</time></trkpt><trkpt lat="42.0201866" lon="13.8452677"><ele>476.0</ele><time>2026-04-11T11:09:39.966Z</time></trkpt><trkpt lat="42.0202231" lon="13.8454527"><ele>478.25</ele><time>2026-04-11T11:09:40.966Z</time></trkpt><trkpt lat="42.0202732" lon="13.8456243"><ele>480.5</ele><time>2026-04-11T11:09:41.965Z</time></trkpt><trkpt lat="42.0203499" lon="13.8457667"><ele>482.75</ele><time>2026-04-11T11:09:42.965Z</time></trkpt><trkpt lat="42.0204529" lon="13.8458753"><ele>485.0</ele><time>2026-04-11T11:09:43.966Z</time></trkpt><trkpt lat="42.0205816" lon="13.8459297"><ele>480.0</ele><time>2026-04-11T11:09:44.966Z</time></trkpt><trkpt lat="42.0208913" lon="13.845946"><ele>475.0</ele><time>2026-04-11T11:09:46.966Z</time></trkpt><trkpt lat="42.021055" lon="13.8459459"><ele>475.0</ele><time>2026-04-11T11:09:47.966Z</time></trkpt><trkpt lat="42.0212166" lon="13.8459438"><ele>475.0</ele><time>2026-04-11T11:09:48.965Z</time></trkpt><trkpt lat="42.0213696" lon="13.8459502"><ele>475.0</ele><time>2026-04-11T11:09:49.966Z</time></trkpt><trkpt lat="42.0215182" lon="13.8459714"><ele>478.25</ele><time>2026-04-11T11:09:50.966Z</time></trkpt><trkpt lat="42.0216634" lon="13.8460117"><ele>481.5</ele><time>2026-04-11T11:09:51.966Z</time></trkpt><trkpt lat="42.0218066" lon="13.8460617"><ele>484.75</ele><time>2026-04-11T11:09:52.966Z</time></trkpt><trkpt lat="42.0219356" lon="13.84613"><ele>488.0</ele><time>2026-04-11T11:09:53.966Z</time></trkpt><trkpt lat="42.0220678" lon="13.8462116"><ele>488.0</ele><time>2026-04-11T11:09:54.966Z</time></trkpt><trkpt lat="42.0222024" lon="13.8463039"><ele>488.0</ele><time>2026-04-11T11:09:55.966Z</time></trkpt><trkpt lat="42.0223385" lon="13.8464094"><ele>488.0</ele><time>2026-04-11T11:09:56.965Z</time></trkpt><trkpt lat="42.0224803" lon="13.8465246"><ele>489.0</ele><time>2026-04-11T11:09:57.966Z</time></trkpt><trkpt lat="42.0226324" lon="13.8466367"><ele>490.0</ele><time>2026-04-11T11:09:58.965Z</time></trkpt><trkpt lat="42.022789" lon="13.8467613"><ele>491.0</ele><time>2026-04-11T11:09:59.966Z</time></trkpt><trkpt lat="42.0229481" lon="13.8468912"><ele>491.0</ele><time>2026-04-11T11:10:00.966Z</time></trkpt><trkpt lat="42.0231121" lon="13.847024"><ele>491.0</ele><time>2026-04-11T11:10:01.966Z</time></trkpt><trkpt lat="42.0232856" lon="13.8471521"><ele>491.0</ele><time>2026-04-11T11:10:02.966Z</time></trkpt><trkpt lat="42.0234557" lon="13.8472865"><ele>489.0</ele><time>2026-04-11T11:10:03.966Z</time></trkpt><trkpt lat="42.0236198" lon="13.847415"><ele>487.0</ele><time>2026-04-11T11:10:04.966Z</time></trkpt><trkpt lat="42.0237713" lon="13.8475496"><ele>485.0</ele><time>2026-04-11T11:10:05.966Z</time></trkpt><trkpt lat="42.0239111" lon="13.8476989"><ele>486.66666666666663</ele><time>2026-04-11T11:10:06.966Z</time></trkpt><trkpt lat="42.024042" lon="13.8478683"><ele>488.33333333333337</ele><time>2026-04-11T11:10:07.966Z</time></trkpt><trkpt lat="42.0241637" lon="13.8480478"><ele>490.0</ele><time>2026-04-11T11:10:08.965Z</time></trkpt><trkpt lat="42.024277" lon="13.8482402"><ele>490.0</ele><time>2026-04-11T11:10:09.966Z</time></trkpt><trkpt lat="42.0243788" lon="13.8484524"><ele>490.0</ele><time>2026-04-11T11:10:10.965Z</time></trkpt><trkpt lat="42.0244692" lon="13.8486735"><ele>490.0</ele><time>2026-04-11T11:10:11.966Z</time></trkpt><trkpt lat="42.0245414" lon="13.8489029"><ele>492.0</ele><time>2026-04-11T11:10:12.966Z</time></trkpt><trkpt lat="42.0246079" lon="13.8491478"><ele>494.0</ele><time>2026-04-11T11:10:13.965Z</time></trkpt><trkpt lat="42.0246597" lon="13.8493992"><ele>496.0</ele><time>2026-04-11T11:10:14.966Z</time></trkpt><trkpt lat="42.0246977" lon="13.849649"><ele>498.33333333333337</ele><time>2026-04-11T11:10:15.965Z</time></trkpt><trkpt lat="42.0247354" lon="13.8499092"><ele>500.66666666666663</ele><time>2026-04-11T11:10:16.966Z</time></trkpt><trkpt lat="42.024775" lon="13.8501673"><ele>503.0</ele><time>2026-04-11T11:10:17.965Z</time></trkpt><trkpt lat="42.0248159" lon="13.8504299"><ele>504.66666666666663</ele><time>2026-04-11T11:10:18.966Z</time></trkpt><trkpt lat="42.0248559" lon="13.8507004"><ele>506.33333333333337</ele><time>2026-04-11T11:10:19.966Z</time></trkpt><trkpt lat="42.0248923" lon="13.8509714"><ele>508.0</ele><time>2026-04-11T11:10:20.965Z</time></trkpt><trkpt lat="42.0249326" lon="13.8512509"><ele>508.0</ele><time>2026-04-11T11:10:21.966Z</time></trkpt><trkpt lat="42.0249726" lon="13.8515328"><ele>508.0</ele><time>2026-04-11T11:10:22.966Z</time></trkpt><trkpt lat="42.0250116" lon="13.8518085"><ele>508.0</ele><time>2026-04-11T11:10:23.966Z</time></trkpt><trkpt lat="42.0250506" lon="13.852089"><ele>501.33333333333337</ele><time>2026-04-11T11:10:24.966Z</time></trkpt><trkpt lat="42.0250911" lon="13.8523714"><ele>494.66666666666663</ele><time>2026-04-11T11:10:25.966Z</time></trkpt><trkpt lat="42.0251303" lon="13.852655"><ele>488.0</ele><time>2026-04-11T11:10:26.966Z</time></trkpt><trkpt lat="42.0251686" lon="13.8529325"><ele>488.0</ele><time>2026-04-11T11:10:27.966Z</time></trkpt><trkpt lat="42.0252086" lon="13.8532117"><ele>488.0</ele><time>2026-04-11T11:10:28.966Z</time></trkpt><trkpt lat="42.0252483" lon="13.8534902"><ele>488.0</ele><time>2026-04-11T11:10:29.966Z</time></trkpt><trkpt lat="42.0252912" lon="13.8537724"><ele>490.3333333333333</ele><time>2026-04-11T11:10:30.966Z</time></trkpt><trkpt lat="42.0253331" lon="13.8540553"><ele>492.66666666666663</ele><time>2026-04-11T11:10:31.965Z</time></trkpt><trkpt lat="42.0253698" lon="13.8543402"><ele>495.0</ele><time>2026-04-11T11:10:32.966Z</time></trkpt><trkpt lat="42.025404" lon="13.8546184"><ele>495.0</ele><time>2026-04-11T11:10:33.965Z</time></trkpt><trkpt lat="42.025427" lon="13.8549032"><ele>495.0</ele><time>2026-04-11T11:10:34.966Z</time></trkpt><trkpt lat="42.0254389" lon="13.8551882"><ele>495.0</ele><time>2026-04-11T11:10:35.966Z</time></trkpt><trkpt lat="42.0254341" lon="13.8554664"><ele>495.0</ele><time>2026-04-11T11:10:36.965Z</time></trkpt><trkpt lat="42.0254183" lon="13.8557462"><ele>495.0</ele><time>2026-04-11T11:10:37.966Z</time></trkpt><trkpt lat="42.0253901" lon="13.8560237"><ele>495.0</ele><time>2026-04-11T11:10:38.966Z</time></trkpt><trkpt lat="42.0253495" lon="13.856297"><ele>494.33333333333337</ele><time>2026-04-11T11:10:39.966Z</time></trkpt><trkpt lat="42.025304" lon="13.8565879"><ele>493.6666666666667</ele><time>2026-04-11T11:10:40.966Z</time></trkpt><trkpt lat="42.0252547" lon="13.8568788"><ele>493.0</ele><time>2026-04-11T11:10:41.966Z</time></trkpt><trkpt lat="42.0252018" lon="13.8571693"><ele>488.5</ele><time>2026-04-11T11:10:42.966Z</time></trkpt><trkpt lat="42.0251467" lon="13.85747"><ele>484.0</ele><time>2026-04-11T11:10:43.966Z</time></trkpt><trkpt lat="42.0250875" lon="13.8577684"><ele>480.0</ele><time>2026-04-11T11:10:44.966Z</time></trkpt><trkpt lat="42.0250327" lon="13.8580672"><ele>476.0</ele><time>2026-04-11T11:10:45.966Z</time></trkpt><trkpt lat="42.0249817" lon="13.8583596"><ele>479.3333333333333</ele><time>2026-04-11T11:10:46.966Z</time></trkpt><trkpt lat="42.0249379" lon="13.8586485"><ele>482.66666666666663</ele><time>2026-04-11T11:10:47.966Z</time></trkpt><trkpt lat="42.0249092" lon="13.8589382"><ele>486.0</ele><time>2026-04-11T11:10:48.966Z</time></trkpt><trkpt lat="42.0248966" lon="13.8592258"><ele>487.0</ele><time>2026-04-11T11:10:49.966Z</time></trkpt><trkpt lat="42.0248949" lon="13.8595173"><ele>488.0</ele><time>2026-04-11T11:10:50.965Z</time></trkpt><trkpt lat="42.0249117" lon="13.8598012"><ele>489.0</ele><time>2026-04-11T11:10:51.966Z</time></trkpt><trkpt lat="42.0249423" lon="13.8600838"><ele>487.66666666666663</ele><time>2026-04-11T11:10:52.965Z</time></trkpt><trkpt lat="42.0249877" lon="13.8603606"><ele>486.3333333333333</ele><time>2026-04-11T11:10:53.966Z</time></trkpt><trkpt lat="42.0250385" lon="13.860639"><ele>485.0</ele><time>2026-04-11T11:10:54.966Z</time></trkpt><trkpt lat="42.025087" lon="13.860918"><ele>486.0</ele><time>2026-04-11T11:10:55.966Z</time></trkpt><trkpt lat="42.0251446" lon="13.8612028"><ele>487.0</ele><time>2026-04-11T11:10:56.966Z</time></trkpt><trkpt lat="42.0252006" lon="13.8614953"><ele>488.0</ele><time>2026-04-11T11:10:57.966Z</time></trkpt><trkpt lat="42.0252569" lon="13.8617955"><ele>488.66666666666663</ele><time>2026-04-11T11:10:58.965Z</time></trkpt><trkpt lat="42.0253126" lon="13.8620894"><ele>489.33333333333337</ele><time>2026-04-11T11:10:59.966Z</time></trkpt><trkpt lat="42.0253671" lon="13.8623821"><ele>490.0</ele><time>2026-04-11T11:11:00.966Z</time></trkpt><trkpt lat="42.0254208" lon="13.8626754"><ele>491.0</ele><time>2026-04-11T11:11:01.966Z</time></trkpt><trkpt lat="42.025478" lon="13.8629623"><ele>492.0</ele><time>2026-04-11T11:11:02.966Z</time></trkpt><trkpt lat="42.0255314" lon="13.8632501"><ele>493.0</ele><time>2026-04-11T11:11:03.966Z</time></trkpt><trkpt lat="42.0255847" lon="13.863537"><ele>493.0</ele><time>2026-04-11T11:11:04.966Z</time></trkpt><trkpt lat="42.0256317" lon="13.8638325"><ele>493.0</ele><time>2026-04-11T11:11:05.966Z</time></trkpt><trkpt lat="42.0256661" lon="13.8641265"><ele>493.0</ele><time>2026-04-11T11:11:06.966Z</time></trkpt><trkpt lat="42.0256846" lon="13.8644233"><ele>493.0</ele><time>2026-04-11T11:11:07.965Z</time></trkpt><trkpt lat="42.0256901" lon="13.8647152"><ele>493.0</ele><time>2026-04-11T11:11:08.966Z</time></trkpt><trkpt lat="42.0256803" lon="13.8650102"><ele>493.0</ele><time>2026-04-11T11:11:09.966Z</time></trkpt><trkpt lat="42.0256474" lon="13.8653003"><ele>492.0</ele><time>2026-04-11T11:11:10.966Z</time></trkpt><trkpt lat="42.0256031" lon="13.8655888"><ele>491.0</ele><time>2026-04-11T11:11:11.966Z</time></trkpt><trkpt lat="42.025552" lon="13.8658799"><ele>490.0</ele><time>2026-04-11T11:11:12.966Z</time></trkpt><trkpt lat="42.0254973" lon="13.8661717"><ele>488.33333333333337</ele><time>2026-04-11T11:11:13.966Z</time></trkpt><trkpt lat="42.0254464" lon="13.8664573"><ele>486.66666666666663</ele><time>2026-04-11T11:11:14.965Z</time></trkpt><trkpt lat="42.0253964" lon="13.8667309"><ele>485.0</ele><time>2026-04-11T11:11:15.966Z</time></trkpt><trkpt lat="42.0253475" lon="13.8670038"><ele>483.3333333333333</ele><time>2026-04-11T11:11:16.966Z</time></trkpt><trkpt lat="42.0253014" lon="13.8672695"><ele>481.66666666666663</ele><time>2026-04-11T11:11:17.966Z</time></trkpt><trkpt lat="42.0252543" lon="13.8675288"><ele>480.0</ele><time>2026-04-11T11:11:18.966Z</time></trkpt><trkpt lat="42.0252111" lon="13.8677875"><ele>480.0</ele><time>2026-04-11T11:11:19.966Z</time></trkpt><trkpt lat="42.0251641" lon="13.8680397"><ele>480.0</ele><time>2026-04-11T11:11:20.966Z</time></trkpt><trkpt lat="42.0251163" lon="13.8682949"><ele>480.0</ele><time>2026-04-11T11:11:21.966Z</time></trkpt><trkpt lat="42.025066" lon="13.8685521"><ele>480.33333333333337</ele><time>2026-04-11T11:11:22.966Z</time></trkpt><trkpt lat="42.0250184" lon="13.8688109"><ele>480.6666666666667</ele><time>2026-04-11T11:11:23.966Z</time></trkpt><trkpt lat="42.0249708" lon="13.8690698"><ele>481.0</ele><time>2026-04-11T11:11:24.966Z</time></trkpt><trkpt lat="42.0249287" lon="13.869324"><ele>490.33333333333337</ele><time>2026-04-11T11:11:25.965Z</time></trkpt><trkpt lat="42.024894" lon="13.8695831"><ele>499.66666666666663</ele><time>2026-04-11T11:11:26.966Z</time></trkpt><trkpt lat="42.0248723" lon="13.8698423"><ele>509.0</ele><time>2026-04-11T11:11:27.966Z</time></trkpt><trkpt lat="42.0248562" lon="13.8701072"><ele>509.0</ele><time>2026-04-11T11:11:28.966Z</time></trkpt><trkpt lat="42.0248469" lon="13.8703723"><ele>509.0</ele><time>2026-04-11T11:11:29.966Z</time></trkpt><trkpt lat="42.0248485" lon="13.8706343"><ele>509.0</ele><time>2026-04-11T11:11:30.965Z</time></trkpt><trkpt lat="42.0248684" lon="13.8709049"><ele>511.0</ele><time>2026-04-11T11:11:31.966Z</time></trkpt><trkpt lat="42.0248891" lon="13.8711713"><ele>513.0</ele><time>2026-04-11T11:11:32.966Z</time></trkpt><trkpt lat="42.0249417" lon="13.8714435"><ele>515.0</ele><time>2026-04-11T11:11:33.966Z</time></trkpt><trkpt lat="42.0249935" lon="13.8717168"><ele>509.66666666666663</ele><time>2026-04-11T11:11:34.966Z</time></trkpt><trkpt lat="42.025065" lon="13.8719831"><ele>504.33333333333337</ele><time>2026-04-11T11:11:35.966Z</time></trkpt><trkpt lat="42.025139" lon="13.8722452"><ele>499.0</ele><time>2026-04-11T11:11:36.966Z</time></trkpt><trkpt lat="42.025228" lon="13.8725021"><ele>505.0</ele><time>2026-04-11T11:11:37.965Z</time></trkpt><trkpt lat="42.0253257" lon="13.8727443"><ele>511.0</ele><time>2026-04-11T11:11:38.966Z</time></trkpt><trkpt lat="42.0254354" lon="13.8729793"><ele>517.0</ele><time>2026-04-11T11:11:39.966Z</time></trkpt><trkpt lat="42.0255494" lon="13.8732093"><ele>517.0</ele><time>2026-04-11T11:11:40.966Z</time></trkpt><trkpt lat="42.0256674" lon="13.8734347"><ele>517.0</ele><time>2026-04-11T11:11:41.966Z</time></trkpt><trkpt lat="42.0257845" lon="13.8736683"><ele>517.0</ele><time>2026-04-11T11:11:42.966Z</time></trkpt><trkpt lat="42.0259033" lon="13.8738906"><ele>519.0</ele><time>2026-04-11T11:11:43.966Z</time></trkpt><trkpt lat="42.0260211" lon="13.8741139"><ele>521.0</ele><time>2026-04-11T11:11:44.966Z</time></trkpt><trkpt lat="42.0261365" lon="13.8743401"><ele>523.0</ele><time>2026-04-11T11:11:45.966Z</time></trkpt><trkpt lat="42.0262533" lon="13.87456"><ele>523.0</ele><time>2026-04-11T11:11:46.966Z</time></trkpt><trkpt lat="42.0263654" lon="13.8747788"><ele>523.0</ele><time>2026-04-11T11:11:47.966Z</time></trkpt><trkpt lat="42.0264756" lon="13.8749911"><ele>523.0</ele><time>2026-04-11T11:11:48.966Z</time></trkpt><trkpt lat="42.026588" lon="13.8752046"><ele>516.6666666666667</ele><time>2026-04-11T11:11:49.966Z</time></trkpt><trkpt lat="42.0267021" lon="13.8754217"><ele>510.33333333333337</ele><time>2026-04-11T11:11:50.966Z</time></trkpt><trkpt lat="42.0268144" lon="13.8756333"><ele>504.0</ele><time>2026-04-11T11:11:51.966Z</time></trkpt><trkpt lat="42.0269232" lon="13.8758492"><ele>512.6666666666666</ele><time>2026-04-11T11:11:52.966Z</time></trkpt><trkpt lat="42.0270378" lon="13.8760669"><ele>521.3333333333333</ele><time>2026-04-11T11:11:53.966Z</time></trkpt><trkpt lat="42.0271609" lon="13.8762682"><ele>530.0</ele><time>2026-04-11T11:11:54.966Z</time></trkpt><trkpt lat="42.0272877" lon="13.8764669"><ele>530.0</ele><time>2026-04-11T11:11:55.966Z</time></trkpt><trkpt lat="42.0274237" lon="13.8766423"><ele>530.0</ele><time>2026-04-11T11:11:56.966Z</time></trkpt><trkpt lat="42.0275691" lon="13.8768105"><ele>530.0</ele><time>2026-04-11T11:11:57.965Z</time></trkpt><trkpt lat="42.0277127" lon="13.8769641"><ele>524.0</ele><time>2026-04-11T11:11:58.966Z</time></trkpt><trkpt lat="42.0278509" lon="13.8771114"><ele>518.0</ele><time>2026-04-11T11:11:59.966Z</time></trkpt><trkpt lat="42.027993" lon="13.8772679"><ele>512.0</ele><time>2026-04-11T11:12:00.966Z</time></trkpt><trkpt lat="42.0281275" lon="13.8774344"><ele>512.0</ele><time>2026-04-11T11:12:01.966Z</time></trkpt><trkpt lat="42.0282611" lon="13.8776003"><ele>512.0</ele><time>2026-04-11T11:12:02.966Z</time></trkpt><trkpt lat="42.0283901" lon="13.8777729"><ele>512.0</ele><time>2026-04-11T11:12:03.966Z</time></trkpt><trkpt lat="42.0285104" lon="13.8779534"><ele>509.66666666666663</ele><time>2026-04-11T11:12:04.966Z</time></trkpt><trkpt lat="42.0286271" lon="13.8781339"><ele>507.33333333333337</ele><time>2026-04-11T11:12:05.966Z</time></trkpt><trkpt lat="42.0287318" lon="13.8783255"><ele>505.0</ele><time>2026-04-11T11:12:06.966Z</time></trkpt><trkpt lat="42.0288272" lon="13.8785252"><ele>510.0</ele><time>2026-04-11T11:12:07.966Z</time></trkpt><trkpt lat="42.0289066" lon="13.8787296"><ele>515.0</ele><time>2026-04-11T11:12:08.966Z</time></trkpt><trkpt lat="42.0289647" lon="13.8789417"><ele>520.0</ele><time>2026-04-11T11:12:09.966Z</time></trkpt><trkpt lat="42.0290128" lon="13.8791513"><ele>523.3333333333334</ele><time>2026-04-11T11:12:10.966Z</time></trkpt><trkpt lat="42.0290483" lon="13.8793654"><ele>526.6666666666666</ele><time>2026-04-11T11:12:11.965Z</time></trkpt><trkpt lat="42.0290711" lon="13.879573"><ele>530.0</ele><time>2026-04-11T11:12:12.966Z</time></trkpt><trkpt lat="42.0290852" lon="13.8798017"><ele>530.0</ele><time>2026-04-11T11:12:13.966Z</time></trkpt><trkpt lat="42.0291024" lon="13.8800375"><ele>530.0</ele><time>2026-04-11T11:12:14.966Z</time></trkpt><trkpt lat="42.0291283" lon="13.8802791"><ele>530.0</ele><time>2026-04-11T11:12:15.966Z</time></trkpt><trkpt lat="42.0291575" lon="13.8805205"><ele>517.0</ele><time>2026-04-11T11:12:16.966Z</time></trkpt><trkpt lat="42.0291845" lon="13.8807673"><ele>504.0</ele><time>2026-04-11T11:12:17.966Z</time></trkpt><trkpt lat="42.029216" lon="13.8810106"><ele>491.0</ele><time>2026-04-11T11:12:18.966Z</time></trkpt><trkpt lat="42.0292404" lon="13.881247"><ele>491.0</ele><time>2026-04-11T11:12:19.966Z</time></trkpt><trkpt lat="42.0292688" lon="13.8814791"><ele>491.0</ele><time>2026-04-11T11:12:20.966Z</time></trkpt><trkpt lat="42.0292914" lon="13.8817001"><ele>491.0</ele><time>2026-04-11T11:12:21.966Z</time></trkpt><trkpt lat="42.0293092" lon="13.8818988"><ele>491.25</ele><time>2026-04-11T11:12:22.965Z</time></trkpt><trkpt lat="42.0293422" lon="13.8820908"><ele>491.5</ele><time>2026-04-11T11:12:23.966Z</time></trkpt><trkpt lat="42.0293968" lon="13.8822612"><ele>491.75</ele><time>2026-04-11T11:12:24.966Z</time></trkpt><trkpt lat="42.0294671" lon="13.8824287"><ele>492.0</ele><time>2026-04-11T11:12:25.966Z</time></trkpt><trkpt lat="42.0295425" lon="13.8825927"><ele>491.75</ele><time>2026-04-11T11:12:26.966Z</time></trkpt><trkpt lat="42.0296136" lon="13.8827548"><ele>491.5</ele><time>2026-04-11T11:12:27.966Z</time></trkpt><trkpt lat="42.0296671" lon="13.8829179"><ele>491.25</ele><time>2026-04-11T11:12:28.966Z</time></trkpt><trkpt lat="42.029699" lon="13.8830904"><ele>491.0</ele><time>2026-04-11T11:12:29.966Z</time></trkpt><trkpt lat="42.0297033" lon="13.8832691"><ele>490.75</ele><time>2026-04-11T11:12:30.966Z</time></trkpt><trkpt lat="42.0296859" lon="13.8834611"><ele>490.5</ele><time>2026-04-11T11:12:31.966Z</time></trkpt><trkpt lat="42.0296608" lon="13.8836535"><ele>490.25</ele><time>2026-04-11T11:12:32.966Z</time></trkpt><trkpt lat="42.0296282" lon="13.8838524"><ele>490.0</ele><time>2026-04-11T11:12:33.966Z</time></trkpt><trkpt lat="42.0295977" lon="13.8840541"><ele>490.0</ele><time>2026-04-11T11:12:34.966Z</time></trkpt><trkpt lat="42.0295633" lon="13.8842542"><ele>490.0</ele><time>2026-04-11T11:12:35.966Z</time></trkpt><trkpt lat="42.0295331" lon="13.8844581"><ele>490.0</ele><time>2026-04-11T11:12:36.966Z</time></trkpt><trkpt lat="42.0294982" lon="13.8846544"><ele>490.5</ele><time>2026-04-11T11:12:37.966Z</time></trkpt><trkpt lat="42.0294671" lon="13.8848478"><ele>491.0</ele><time>2026-04-11T11:12:38.966Z</time></trkpt><trkpt lat="42.0294352" lon="13.8850372"><ele>491.5</ele><time>2026-04-11T11:12:39.965Z</time></trkpt><trkpt lat="42.0294014" lon="13.8852322"><ele>492.0</ele><time>2026-04-11T11:12:40.966Z</time></trkpt><trkpt lat="42.0293638" lon="13.8854216"><ele>492.5</ele><time>2026-04-11T11:12:41.966Z</time></trkpt><trkpt lat="42.0293212" lon="13.8856109"><ele>493.0</ele><time>2026-04-11T11:12:42.966Z</time></trkpt><trkpt lat="42.0292777" lon="13.8857963"><ele>493.5</ele><time>2026-04-11T11:12:43.966Z</time></trkpt><trkpt lat="42.0292416" lon="13.88598"><ele>494.0</ele><time>2026-04-11T11:12:44.966Z</time></trkpt><trkpt lat="42.0292126" lon="13.8861666"><ele>494.25</ele><time>2026-04-11T11:12:45.966Z</time></trkpt><trkpt lat="42.0291959" lon="13.8863504"><ele>494.5</ele><time>2026-04-11T11:12:46.966Z</time></trkpt><trkpt lat="42.0291866" lon="13.8865288"><ele>494.75</ele><time>2026-04-11T11:12:47.966Z</time></trkpt><trkpt lat="42.0291746" lon="13.8867134"><ele>495.0</ele><time>2026-04-11T11:12:48.966Z</time></trkpt><trkpt lat="42.0291583" lon="13.8869033"><ele>496.66666666666663</ele><time>2026-04-11T11:12:49.966Z</time></trkpt><trkpt lat="42.0291409" lon="13.8871085"><ele>498.3333333333333</ele><time>2026-04-11T11:12:50.966Z</time></trkpt><trkpt lat="42.0291232" lon="13.8873179"><ele>500.0</ele><time>2026-04-11T11:12:51.966Z</time></trkpt><trkpt lat="42.0291039" lon="13.8875301"><ele>500.75</ele><time>2026-04-11T11:12:52.965Z</time></trkpt><trkpt lat="42.0290728" lon="13.8877346"><ele>501.5</ele><time>2026-04-11T11:12:53.966Z</time></trkpt><trkpt lat="42.0290351" lon="13.8879283"><ele>502.25</ele><time>2026-04-11T11:12:54.965Z</time></trkpt><trkpt lat="42.0289949" lon="13.8881088"><ele>503.0</ele><time>2026-04-11T11:12:55.966Z</time></trkpt><trkpt lat="42.0289546" lon="13.8882889"><ele>503.5</ele><time>2026-04-11T11:12:56.966Z</time></trkpt><trkpt lat="42.0289152" lon="13.8884731"><ele>504.0</ele><time>2026-04-11T11:12:57.966Z</time></trkpt><trkpt lat="42.0288762" lon="13.8886571"><ele>504.5</ele><time>2026-04-11T11:12:58.966Z</time></trkpt><trkpt lat="42.0288378" lon="13.8888408"><ele>505.0</ele><time>2026-04-11T11:12:59.966Z</time></trkpt><trkpt lat="42.0288073" lon="13.8890256"><ele>505.0</ele><time>2026-04-11T11:13:00.965Z</time></trkpt><trkpt lat="42.0287883" lon="13.8892096"><ele>505.0</ele><time>2026-04-11T11:13:01.966Z</time></trkpt><trkpt lat="42.028788" lon="13.8893917"><ele>505.0</ele><time>2026-04-11T11:13:02.966Z</time></trkpt><trkpt lat="42.0287951" lon="13.8895711"><ele>505.0</ele><time>2026-04-11T11:13:03.966Z</time></trkpt><trkpt lat="42.0288049" lon="13.8897432"><ele>505.5</ele><time>2026-04-11T11:13:04.966Z</time></trkpt><trkpt lat="42.0288158" lon="13.8899058"><ele>506.0</ele><time>2026-04-11T11:13:05.966Z</time></trkpt><trkpt lat="42.0288298" lon="13.8900701"><ele>506.5</ele><time>2026-04-11T11:13:06.966Z</time></trkpt><trkpt lat="42.0288354" lon="13.8902284"><ele>507.0</ele><time>2026-04-11T11:13:07.966Z</time></trkpt><trkpt lat="42.028822" lon="13.8903937"><ele>507.75</ele><time>2026-04-11T11:13:08.966Z</time></trkpt><trkpt lat="42.0287888" lon="13.8905595"><ele>508.5</ele><time>2026-04-11T11:13:09.965Z</time></trkpt><trkpt lat="42.0287487" lon="13.8907294"><ele>509.25</ele><time>2026-04-11T11:13:10.966Z</time></trkpt><trkpt lat="42.0286994" lon="13.8909021"><ele>510.0</ele><time>2026-04-11T11:13:11.966Z</time></trkpt><trkpt lat="42.0286472" lon="13.8910736"><ele>510.5</ele><time>2026-04-11T11:13:12.965Z</time></trkpt><trkpt lat="42.0285982" lon="13.8912479"><ele>511.0</ele><time>2026-04-11T11:13:13.966Z</time></trkpt><trkpt lat="42.0285516" lon="13.89142"><ele>511.5</ele><time>2026-04-11T11:13:14.966Z</time></trkpt><trkpt lat="42.0285089" lon="13.8915906"><ele>512.0</ele><time>2026-04-11T11:13:15.966Z</time></trkpt><trkpt lat="42.0284659" lon="13.8917514"><ele>512.75</ele><time>2026-04-11T11:13:16.966Z</time></trkpt><trkpt lat="42.028419" lon="13.8919017"><ele>513.5</ele><time>2026-04-11T11:13:17.965Z</time></trkpt><trkpt lat="42.028372" lon="13.892054"><ele>514.25</ele><time>2026-04-11T11:13:18.966Z</time></trkpt><trkpt lat="42.0283191" lon="13.8922069"><ele>515.0</ele><time>2026-04-11T11:13:19.966Z</time></trkpt><trkpt lat="42.028253" lon="13.8923523"><ele>516.0</ele><time>2026-04-11T11:13:20.966Z</time></trkpt><trkpt lat="42.028181" lon="13.8924973"><ele>517.0</ele><time>2026-04-11T11:13:21.966Z</time></trkpt><trkpt lat="42.0280962" lon="13.8926425"><ele>518.0</ele><time>2026-04-11T11:13:22.966Z</time></trkpt><trkpt lat="42.028004" lon="13.8927747"><ele>519.0</ele><time>2026-04-11T11:13:23.966Z</time></trkpt><trkpt lat="42.02791" lon="13.8929172"><ele>519.5</ele><time>2026-04-11T11:13:24.965Z</time></trkpt><trkpt lat="42.0278218" lon="13.8930558"><ele>520.0</ele><time>2026-04-11T11:13:25.965Z</time></trkpt><trkpt lat="42.0277337" lon="13.8932024"><ele>520.5</ele><time>2026-04-11T11:13:26.966Z</time></trkpt><trkpt lat="42.0276501" lon="13.8933566"><ele>521.0</ele><time>2026-04-11T11:13:27.966Z</time></trkpt><trkpt lat="42.0275735" lon="13.8935088"><ele>521.25</ele><time>2026-04-11T11:13:28.966Z</time></trkpt><trkpt lat="42.0275031" lon="13.8936655"><ele>521.5</ele><time>2026-04-11T11:13:29.966Z</time></trkpt><trkpt lat="42.0274398" lon="13.8938254"><ele>521.75</ele><time>2026-04-11T11:13:30.966Z</time></trkpt><trkpt lat="42.027378" lon="13.8939872"><ele>522.0</ele><time>2026-04-11T11:13:31.966Z</time></trkpt><trkpt lat="42.0273092" lon="13.8941456"><ele>523.75</ele><time>2026-04-11T11:13:32.966Z</time></trkpt><trkpt lat="42.0272387" lon="13.8942921"><ele>525.5</ele><time>2026-04-11T11:13:33.966Z</time></trkpt><trkpt lat="42.027167" lon="13.8944324"><ele>527.25</ele><time>2026-04-11T11:13:34.966Z</time></trkpt><trkpt lat="42.0270974" lon="13.894568"><ele>529.0</ele><time>2026-04-11T11:13:35.965Z</time></trkpt><trkpt lat="42.0270374" lon="13.8947057"><ele>529.0</ele><time>2026-04-11T11:13:36.966Z</time></trkpt><trkpt lat="42.0270068" lon="13.8948561"><ele>529.0</ele><time>2026-04-11T11:13:37.966Z</time></trkpt><trkpt lat="42.0269985" lon="13.8950051"><ele>529.0</ele><time>2026-04-11T11:13:38.966Z</time></trkpt><trkpt lat="42.0270082" lon="13.8951427"><ele>529.0</ele><time>2026-04-11T11:13:39.966Z</time></trkpt><trkpt lat="42.027024" lon="13.8952914"><ele>529.0</ele><time>2026-04-11T11:13:40.966Z</time></trkpt><trkpt lat="42.027036" lon="13.8954476"><ele>529.5</ele><time>2026-04-11T11:13:41.966Z</time></trkpt><trkpt lat="42.0270359" lon="13.8956092"><ele>530.0</ele><time>2026-04-11T11:13:42.966Z</time></trkpt><trkpt lat="42.0270227" lon="13.8957794"><ele>530.5</ele><time>2026-04-11T11:13:43.966Z</time></trkpt><trkpt lat="42.0269989" lon="13.8959472"><ele>531.0</ele><time>2026-04-11T11:13:44.966Z</time></trkpt><trkpt lat="42.0269628" lon="13.8961184"><ele>531.25</ele><time>2026-04-11T11:13:45.966Z</time></trkpt><trkpt lat="42.0269173" lon="13.8962762"><ele>531.5</ele><time>2026-04-11T11:13:46.966Z</time></trkpt><trkpt lat="42.0268644" lon="13.8964242"><ele>531.75</ele><time>2026-04-11T11:13:47.966Z</time></trkpt><trkpt lat="42.0268106" lon="13.8965549"><ele>532.0</ele><time>2026-04-11T11:13:48.966Z</time></trkpt><trkpt lat="42.0267646" lon="13.8966813"><ele>531.6</ele><time>2026-04-11T11:13:49.966Z</time></trkpt><trkpt lat="42.0267275" lon="13.8967813"><ele>531.2</ele><time>2026-04-11T11:13:50.965Z</time></trkpt><trkpt lat="42.0267029" lon="13.896862"><ele>530.8</ele><time>2026-04-11T11:13:51.966Z</time></trkpt><trkpt lat="42.0267281" lon="13.8969821"><ele>530.4</ele><time>2026-04-11T11:13:53.966Z</time></trkpt><trkpt lat="42.02683" lon="13.8970057"><ele>530.0</ele><time>2026-04-11T11:13:55.966Z</time></trkpt><trkpt lat="42.0269415" lon="13.8970184"><ele>530.0</ele><time>2026-04-11T11:13:57.966Z</time></trkpt><trkpt lat="42.0270441" lon="13.8970088"><ele>530.0</ele><time>2026-04-11T11:13:59.966Z</time></trkpt><trkpt lat="42.0271204" lon="13.8970281"><ele>530.0</ele><time>2026-04-11T11:14:01.966Z</time></trkpt><trkpt lat="42.0271833" lon="13.8970137"><ele>530.0</ele><time>2026-04-11T11:14:04.966Z</time></trkpt><trkpt lat="42.0272546" lon="13.8969727"><ele>530.0</ele><time>2026-04-11T11:21:13.966Z</time></trkpt><trkpt lat="42.0273597" lon="13.8969667"><ele>530.0</ele><time>2026-04-11T11:21:15.966Z</time></trkpt><trkpt lat="42.0274605" lon="13.8969522"><ele>528.8</ele><time>2026-04-11T11:21:17.966Z</time></trkpt><trkpt lat="42.0275951" lon="13.8969301"><ele>527.6</ele><time>2026-04-11T11:21:19.966Z</time></trkpt><trkpt lat="42.0276726" lon="13.8969148"><ele>526.4</ele><time>2026-04-11T11:21:20.966Z</time></trkpt><trkpt lat="42.0277619" lon="13.8968943"><ele>525.2</ele><time>2026-04-11T11:21:21.966Z</time></trkpt><trkpt lat="42.0278627" lon="13.8968772"><ele>524.0</ele><time>2026-04-11T11:21:22.966Z</time></trkpt><trkpt lat="42.0279743" lon="13.896842"><ele>524.0</ele><time>2026-04-11T11:21:23.966Z</time></trkpt><trkpt lat="42.0280876" lon="13.8967955"><ele>524.0</ele><time>2026-04-11T11:21:24.966Z</time></trkpt><trkpt lat="42.0281924" lon="13.8967544"><ele>524.0</ele><time>2026-04-11T11:21:25.965Z</time></trkpt><trkpt lat="42.0282902" lon="13.8967107"><ele>524.0</ele><time>2026-04-11T11:21:26.966Z</time></trkpt><trkpt lat="42.0283951" lon="13.8966744"><ele>524.0</ele><time>2026-04-11T11:21:27.966Z</time></trkpt><trkpt lat="42.0285043" lon="13.8966468"><ele>523.0</ele><time>2026-04-11T11:21:28.966Z</time></trkpt><trkpt lat="42.0286177" lon="13.8966254"><ele>522.0</ele><time>2026-04-11T11:21:29.965Z</time></trkpt><trkpt lat="42.0287398" lon="13.8966114"><ele>521.0</ele><time>2026-04-11T11:21:30.966Z</time></trkpt><trkpt lat="42.0288644" lon="13.8966133"><ele>520.0</ele><time>2026-04-11T11:21:31.966Z</time></trkpt><trkpt lat="42.0289938" lon="13.8966332"><ele>520.0</ele><time>2026-04-11T11:21:32.966Z</time></trkpt><trkpt lat="42.0291261" lon="13.8966667"><ele>520.0</ele><time>2026-04-11T11:21:33.966Z</time></trkpt><trkpt lat="42.0292521" lon="13.896702"><ele>520.0</ele><time>2026-04-11T11:21:34.966Z</time></trkpt><trkpt lat="42.0293797" lon="13.8967357"><ele>520.0</ele><time>2026-04-11T11:21:35.966Z</time></trkpt><trkpt lat="42.0295069" lon="13.8967717"><ele>519.0</ele><time>2026-04-11T11:21:36.966Z</time></trkpt><trkpt lat="42.0296337" lon="13.8968047"><ele>518.0</ele><time>2026-04-11T11:21:37.966Z</time></trkpt><trkpt lat="42.0297605" lon="13.8968396"><ele>517.0</ele><time>2026-04-11T11:21:38.966Z</time></trkpt><trkpt lat="42.0298834" lon="13.8968681"><ele>516.0</ele><time>2026-04-11T11:21:39.966Z</time></trkpt><trkpt lat="42.0300052" lon="13.8968945"><ele>514.5</ele><time>2026-04-11T11:21:40.966Z</time></trkpt><trkpt lat="42.0301248" lon="13.8969242"><ele>513.0</ele><time>2026-04-11T11:21:41.965Z</time></trkpt><trkpt lat="42.0302372" lon="13.8969583"><ele>511.5</ele><time>2026-04-11T11:21:42.966Z</time></trkpt><trkpt lat="42.0303422" lon="13.8970037"><ele>510.0</ele><time>2026-04-11T11:21:43.966Z</time></trkpt><trkpt lat="42.0304421" lon="13.8970579"><ele>510.0</ele><time>2026-04-11T11:21:44.966Z</time></trkpt><trkpt lat="42.0305383" lon="13.8971312"><ele>510.0</ele><time>2026-04-11T11:21:45.966Z</time></trkpt><trkpt lat="42.0306383" lon="13.8972152"><ele>510.0</ele><time>2026-04-11T11:21:46.966Z</time></trkpt><trkpt lat="42.0307446" lon="13.8972986"><ele>510.0</ele><time>2026-04-11T11:21:47.966Z</time></trkpt><trkpt lat="42.0308514" lon="13.8973755"><ele>509.25</ele><time>2026-04-11T11:21:48.966Z</time></trkpt><trkpt lat="42.0309706" lon="13.8974299"><ele>508.5</ele><time>2026-04-11T11:21:49.966Z</time></trkpt><trkpt lat="42.0311044" lon="13.8974526"><ele>507.75</ele><time>2026-04-11T11:21:50.966Z</time></trkpt><trkpt lat="42.0312496" lon="13.8974599"><ele>507.0</ele><time>2026-04-11T11:21:51.966Z</time></trkpt><trkpt lat="42.0314074" lon="13.8974545"><ele>507.0</ele><time>2026-04-11T11:21:52.966Z</time></trkpt><trkpt lat="42.0315709" lon="13.8974506"><ele>507.0</ele><time>2026-04-11T11:21:53.965Z</time></trkpt><trkpt lat="42.0317365" lon="13.8974504"><ele>507.0</ele><time>2026-04-11T11:21:54.966Z</time></trkpt><trkpt lat="42.0318989" lon="13.8974475"><ele>505.0</ele><time>2026-04-11T11:21:55.966Z</time></trkpt><trkpt lat="42.0320621" lon="13.8974557"><ele>503.0</ele><time>2026-04-11T11:21:56.966Z</time></trkpt><trkpt lat="42.0322211" lon="13.8974789"><ele>501.0</ele><time>2026-04-11T11:21:57.966Z</time></trkpt><trkpt lat="42.0323764" lon="13.8975046"><ele>499.0</ele><time>2026-04-11T11:21:58.966Z</time></trkpt><trkpt lat="42.0325302" lon="13.8975337"><ele>497.0</ele><time>2026-04-11T11:21:59.966Z</time></trkpt><trkpt lat="42.0326861" lon="13.8975694"><ele>495.0</ele><time>2026-04-11T11:22:00.966Z</time></trkpt><trkpt lat="42.0328427" lon="13.8976105"><ele>495.0</ele><time>2026-04-11T11:22:01.966Z</time></trkpt><trkpt lat="42.033002" lon="13.8976476"><ele>495.0</ele><time>2026-04-11T11:22:02.966Z</time></trkpt><trkpt lat="42.0331629" lon="13.8976802"><ele>495.0</ele><time>2026-04-11T11:22:03.966Z</time></trkpt><trkpt lat="42.0333237" lon="13.8977041"><ele>494.33333333333337</ele><time>2026-04-11T11:22:04.966Z</time></trkpt><trkpt lat="42.0334828" lon="13.8977224"><ele>493.6666666666667</ele><time>2026-04-11T11:22:05.965Z</time></trkpt><trkpt lat="42.0336486" lon="13.8977237"><ele>493.0</ele><time>2026-04-11T11:22:06.966Z</time></trkpt><trkpt lat="42.0338126" lon="13.8977206"><ele>493.0</ele><time>2026-04-11T11:22:07.965Z</time></trkpt><trkpt lat="42.0339734" lon="13.897711"><ele>493.0</ele><time>2026-04-11T11:22:08.966Z</time></trkpt><trkpt lat="42.0341319" lon="13.8977021"><ele>493.0</ele><time>2026-04-11T11:22:09.966Z</time></trkpt><trkpt lat="42.0342829" lon="13.8976964"><ele>491.33333333333337</ele><time>2026-04-11T11:22:10.966Z</time></trkpt><trkpt lat="42.0344334" lon="13.8976944"><ele>489.66666666666663</ele><time>2026-04-11T11:22:11.966Z</time></trkpt><trkpt lat="42.0345855" lon="13.8976962"><ele>488.0</ele><time>2026-04-11T11:22:12.966Z</time></trkpt><trkpt lat="42.0347388" lon="13.8977012"><ele>488.0</ele><time>2026-04-11T11:22:13.966Z</time></trkpt><trkpt lat="42.0348964" lon="13.8976984"><ele>488.0</ele><time>2026-04-11T11:22:14.966Z</time></trkpt><trkpt lat="42.0350614" lon="13.8976807"><ele>488.0</ele><time>2026-04-11T11:22:15.966Z</time></trkpt><trkpt lat="42.0352271" lon="13.8976462"><ele>484.0</ele><time>2026-04-11T11:22:16.965Z</time></trkpt><trkpt lat="42.0353933" lon="13.8975993"><ele>480.0</ele><time>2026-04-11T11:22:17.966Z</time></trkpt><trkpt lat="42.03572" lon="13.897468"><ele>478.33333333333337</ele><time>2026-04-11T11:22:19.966Z</time></trkpt><trkpt lat="42.0358842" lon="13.8974"><ele>476.6666666666667</ele><time>2026-04-11T11:22:20.966Z</time></trkpt><trkpt lat="42.0360423" lon="13.8973276"><ele>475.0</ele><time>2026-04-11T11:22:21.966Z</time></trkpt><trkpt lat="42.0361993" lon="13.8972544"><ele>475.0</ele><time>2026-04-11T11:22:22.966Z</time></trkpt><trkpt lat="42.0363521" lon="13.8971846"><ele>475.0</ele><time>2026-04-11T11:22:23.966Z</time></trkpt><trkpt lat="42.0365044" lon="13.8971204"><ele>475.0</ele><time>2026-04-11T11:22:24.966Z</time></trkpt><trkpt lat="42.0366564" lon="13.8970545"><ele>473.6666666666667</ele><time>2026-04-11T11:22:25.966Z</time></trkpt><trkpt lat="42.0368114" lon="13.8969945"><ele>472.33333333333337</ele><time>2026-04-11T11:22:26.966Z</time></trkpt><trkpt lat="42.0369642" lon="13.8969432"><ele>471.0</ele><time>2026-04-11T11:22:27.966Z</time></trkpt><trkpt lat="42.0371132" lon="13.8968976"><ele>471.0</ele><time>2026-04-11T11:22:28.966Z</time></trkpt><trkpt lat="42.0372659" lon="13.8968639"><ele>471.0</ele><time>2026-04-11T11:22:29.966Z</time></trkpt><trkpt lat="42.037412" lon="13.8968587"><ele>471.0</ele><time>2026-04-11T11:22:30.966Z</time></trkpt><trkpt lat="42.0375533" lon="13.8968786"><ele>471.0</ele><time>2026-04-11T11:22:31.966Z</time></trkpt><trkpt lat="42.037691" lon="13.8969103"><ele>470.0</ele><time>2026-04-11T11:22:32.966Z</time></trkpt><trkpt lat="42.0378267" lon="13.8969488"><ele>469.0</ele><time>2026-04-11T11:22:33.966Z</time></trkpt><trkpt lat="42.0379572" lon="13.8969745"><ele>468.0</ele><time>2026-04-11T11:22:34.966Z</time></trkpt><trkpt lat="42.0380878" lon="13.8969823"><ele>467.0</ele><time>2026-04-11T11:22:35.966Z</time></trkpt><trkpt lat="42.0382141" lon="13.8969834"><ele>465.75</ele><time>2026-04-11T11:22:36.965Z</time></trkpt><trkpt lat="42.0383405" lon="13.8970016"><ele>464.5</ele><time>2026-04-11T11:22:37.966Z</time></trkpt><trkpt lat="42.0384623" lon="13.8970127"><ele>463.25</ele><time>2026-04-11T11:22:38.966Z</time></trkpt><trkpt lat="42.0385893" lon="13.8970176"><ele>462.0</ele><time>2026-04-11T11:22:39.966Z</time></trkpt><trkpt lat="42.0387098" lon="13.8970222"><ele>462.0</ele><time>2026-04-11T11:22:40.966Z</time></trkpt><trkpt lat="42.0388421" lon="13.8970284"><ele>462.0</ele><time>2026-04-11T11:22:41.966Z</time></trkpt><trkpt lat="42.0389796" lon="13.8970193"><ele>462.0</ele><time>2026-04-11T11:22:42.966Z</time></trkpt><trkpt lat="42.0391209" lon="13.8970048"><ele>462.0</ele><time>2026-04-11T11:22:43.966Z</time></trkpt><trkpt lat="42.0392638" lon="13.8969813"><ele>460.5</ele><time>2026-04-11T11:22:44.966Z</time></trkpt><trkpt lat="42.0394104" lon="13.8969565"><ele>459.0</ele><time>2026-04-11T11:22:45.966Z</time></trkpt><trkpt lat="42.0395551" lon="13.8969241"><ele>457.5</ele><time>2026-04-11T11:22:46.966Z</time></trkpt><trkpt lat="42.0397017" lon="13.8968841"><ele>456.0</ele><time>2026-04-11T11:22:47.966Z</time></trkpt><trkpt lat="42.0398478" lon="13.896841"><ele>454.33333333333337</ele><time>2026-04-11T11:22:48.966Z</time></trkpt><trkpt lat="42.039996" lon="13.8968004"><ele>452.6666666666667</ele><time>2026-04-11T11:22:49.966Z</time></trkpt><trkpt lat="42.0401469" lon="13.8967667"><ele>451.0</ele><time>2026-04-11T11:22:50.966Z</time></trkpt><trkpt lat="42.040298" lon="13.8967378"><ele>451.0</ele><time>2026-04-11T11:22:51.966Z</time></trkpt><trkpt lat="42.040443" lon="13.8967149"><ele>451.0</ele><time>2026-04-11T11:22:52.966Z</time></trkpt><trkpt lat="42.0405811" lon="13.8966965"><ele>451.0</ele><time>2026-04-11T11:22:53.966Z</time></trkpt><trkpt lat="42.0407174" lon="13.8966873"><ele>451.0</ele><time>2026-04-11T11:22:54.966Z</time></trkpt><trkpt lat="42.04085" lon="13.8966854"><ele>450.0</ele><time>2026-04-11T11:22:55.966Z</time></trkpt><trkpt lat="42.0409818" lon="13.8966843"><ele>449.0</ele><time>2026-04-11T11:22:56.966Z</time></trkpt><trkpt lat="42.0411162" lon="13.8966782"><ele>448.0</ele><time>2026-04-11T11:22:57.966Z</time></trkpt><trkpt lat="42.0412549" lon="13.896677"><ele>447.0</ele><time>2026-04-11T11:22:58.966Z</time></trkpt><trkpt lat="42.0413997" lon="13.896688"><ele>447.0</ele><time>2026-04-11T11:22:59.966Z</time></trkpt><trkpt lat="42.0415498" lon="13.8967026"><ele>447.0</ele><time>2026-04-11T11:23:00.965Z</time></trkpt><trkpt lat="42.0417015" lon="13.8967278"><ele>447.0</ele><time>2026-04-11T11:23:01.966Z</time></trkpt><trkpt lat="42.0418542" lon="13.896754"><ele>445.33333333333337</ele><time>2026-04-11T11:23:02.966Z</time></trkpt><trkpt lat="42.0420089" lon="13.8967577"><ele>443.6666666666667</ele><time>2026-04-11T11:23:03.966Z</time></trkpt><trkpt lat="42.0421666" lon="13.8967702"><ele>442.0</ele><time>2026-04-11T11:23:04.966Z</time></trkpt><trkpt lat="42.0423234" lon="13.8967701"><ele>440.75</ele><time>2026-04-11T11:23:05.965Z</time></trkpt><trkpt lat="42.0424744" lon="13.89677"><ele>439.5</ele><time>2026-04-11T11:23:06.966Z</time></trkpt><trkpt lat="42.0426232" lon="13.8967717"><ele>438.25</ele><time>2026-04-11T11:23:07.966Z</time></trkpt><trkpt lat="42.0427664" lon="13.8967696"><ele>437.0</ele><time>2026-04-11T11:23:08.966Z</time></trkpt><trkpt lat="42.0429085" lon="13.8967674"><ele>437.0</ele><time>2026-04-11T11:23:09.965Z</time></trkpt><trkpt lat="42.0430435" lon="13.8967685"><ele>437.0</ele><time>2026-04-11T11:23:10.966Z</time></trkpt><trkpt lat="42.0431748" lon="13.8967639"><ele>437.0</ele><time>2026-04-11T11:23:11.966Z</time></trkpt><trkpt lat="42.0433003" lon="13.8967501"><ele>437.0</ele><time>2026-04-11T11:23:12.966Z</time></trkpt><trkpt lat="42.043417" lon="13.8967274"><ele>436.20000000000005</ele><time>2026-04-11T11:23:13.966Z</time></trkpt><trkpt lat="42.0435268" lon="13.896711"><ele>435.40000000000003</ele><time>2026-04-11T11:23:14.966Z</time></trkpt><trkpt lat="42.0436251" lon="13.8967075"><ele>434.59999999999997</ele><time>2026-04-11T11:23:15.965Z</time></trkpt><trkpt lat="42.0437023" lon="13.8967009"><ele>433.79999999999995</ele><time>2026-04-11T11:23:16.966Z</time></trkpt><trkpt lat="42.0437848" lon="13.8967017"><ele>433.0</ele><time>2026-04-11T11:23:18.966Z</time></trkpt><trkpt lat="42.043866" lon="13.8968051"><ele>433.00000000000006</ele><time>2026-04-11T11:23:21.966Z</time></trkpt><trkpt lat="42.0439282" lon="13.8969376"><ele>433.0</ele><time>2026-04-11T11:23:23.966Z</time></trkpt><trkpt lat="42.043968" lon="13.8970154"><ele>433.0</ele><time>2026-04-11T11:23:24.966Z</time></trkpt><trkpt lat="42.0440123" lon="13.8971055"><ele>433.0</ele><time>2026-04-11T11:23:25.966Z</time></trkpt><trkpt lat="42.0440567" lon="13.8971995"><ele>433.00000000000006</ele><time>2026-04-11T11:23:26.966Z</time></trkpt><trkpt lat="42.0440923" lon="13.8972814"><ele>433.0</ele><time>2026-04-11T11:23:27.966Z</time></trkpt><trkpt lat="42.0441335" lon="13.8973848"><ele>432.00000000000006</ele><time>2026-04-11T11:23:29.966Z</time></trkpt><trkpt lat="42.0442023" lon="13.8973753"><ele>431.0</ele><time>2026-04-11T11:23:48.966Z</time></trkpt><trkpt lat="42.0442364" lon="13.8972322"><ele>430.0</ele><time>2026-04-11T11:23:50.966Z</time></trkpt><trkpt lat="42.0442578" lon="13.8971434"><ele>429.0</ele><time>2026-04-11T11:23:51.966Z</time></trkpt><trkpt lat="42.0442794" lon="13.8970468"><ele>428.00000000000006</ele><time>2026-04-11T11:23:52.966Z</time></trkpt><trkpt lat="42.0443027" lon="13.8969372"><ele>427.0</ele><time>2026-04-11T11:23:53.966Z</time></trkpt><trkpt lat="42.0443288" lon="13.8968381"><ele>427.00000000000006</ele><time>2026-04-11T11:23:54.966Z</time></trkpt><trkpt lat="42.0443471" lon="13.8967448"><ele>427.0</ele><time>2026-04-11T11:23:55.966Z</time></trkpt><trkpt lat="42.0443682" lon="13.8966633"><ele>427.0</ele><time>2026-04-11T11:23:56.966Z</time></trkpt><trkpt lat="42.044413" lon="13.8965663"><ele>427.0</ele><time>2026-04-11T11:23:58.966Z</time></trkpt><trkpt lat="42.0445138" lon="13.896543"><ele>427.00000000000006</ele><time>2026-04-11T11:24:00.966Z</time></trkpt><trkpt lat="42.0445855" lon="13.8965558"><ele>427.0</ele><time>2026-04-11T11:24:01.965Z</time></trkpt><trkpt lat="42.044671" lon="13.8965695"><ele>427.0</ele><time>2026-04-11T11:24:02.965Z</time></trkpt><trkpt lat="42.0447647" lon="13.8965862"><ele>427.00000000000006</ele><time>2026-04-11T11:24:03.966Z</time></trkpt><trkpt lat="42.0448697" lon="13.8966032"><ele>427.00000000000006</ele><time>2026-04-11T11:24:04.966Z</time></trkpt><trkpt lat="42.0449826" lon="13.8966189"><ele>427.0</ele><time>2026-04-11T11:24:05.966Z</time></trkpt><trkpt lat="42.0451006" lon="13.8966282"><ele>427.0</ele><time>2026-04-11T11:24:06.965Z</time></trkpt><trkpt lat="42.0452225" lon="13.8966214"><ele>426.25</ele><time>2026-04-11T11:24:07.965Z</time></trkpt><trkpt lat="42.0453475" lon="13.8966086"><ele>425.5</ele><time>2026-04-11T11:24:08.966Z</time></trkpt><trkpt lat="42.0454719" lon="13.8966013"><ele>424.75</ele><time>2026-04-11T11:24:09.966Z</time></trkpt><trkpt lat="42.0456055" lon="13.8965943"><ele>424.0</ele><time>2026-04-11T11:24:10.965Z</time></trkpt><trkpt lat="42.0457316" lon="13.8965882"><ele>421.6666666666667</ele><time>2026-04-11T11:24:11.966Z</time></trkpt><trkpt lat="42.0459828" lon="13.896566"><ele>419.33333333333337</ele><time>2026-04-11T11:24:13.966Z</time></trkpt><trkpt lat="42.0461099" lon="13.8965488"><ele>417.0</ele><time>2026-04-11T11:24:14.965Z</time></trkpt><trkpt lat="42.0462297" lon="13.8965328"><ele>417.0</ele><time>2026-04-11T11:24:15.966Z</time></trkpt><trkpt lat="42.0463461" lon="13.8965186"><ele>417.0</ele><time>2026-04-11T11:24:16.966Z</time></trkpt><trkpt lat="42.0465936" lon="13.8965057"><ele>417.0</ele><time>2026-04-11T11:24:18.966Z</time></trkpt><trkpt lat="42.0467222" lon="13.8965065"><ele>416.0</ele><time>2026-04-11T11:24:19.966Z</time></trkpt><trkpt lat="42.0468431" lon="13.8965151"><ele>415.0</ele><time>2026-04-11T11:24:20.966Z</time></trkpt><trkpt lat="42.0469621" lon="13.8965268"><ele>414.0</ele><time>2026-04-11T11:24:21.966Z</time></trkpt><trkpt lat="42.0470665" lon="13.8965406"><ele>413.0</ele><time>2026-04-11T11:24:22.966Z</time></trkpt><trkpt lat="42.0471614" lon="13.8965577"><ele>412.0</ele><time>2026-04-11T11:24:23.966Z</time></trkpt><trkpt lat="42.0472514" lon="13.8965753"><ele>412.00000000000006</ele><time>2026-04-11T11:24:24.966Z</time></trkpt><trkpt lat="42.047335" lon="13.8965892"><ele>412.0</ele><time>2026-04-11T11:24:25.966Z</time></trkpt><trkpt lat="42.0474059" lon="13.8965963"><ele>412.0</ele><time>2026-04-11T11:24:26.966Z</time></trkpt><trkpt lat="42.0474939" lon="13.8965718"><ele>412.0</ele><time>2026-04-11T11:24:28.966Z</time></trkpt><trkpt lat="42.0475996" lon="13.8965396"><ele>412.00000000000006</ele><time>2026-04-11T11:24:30.966Z</time></trkpt><trkpt lat="42.0476801" lon="13.8965202"><ele>412.0</ele><time>2026-04-11T11:24:31.966Z</time></trkpt><trkpt lat="42.0477713" lon="13.896497"><ele>411.25</ele><time>2026-04-11T11:24:32.966Z</time></trkpt><trkpt lat="42.0478717" lon="13.8964676"><ele>410.5</ele><time>2026-04-11T11:24:33.966Z</time></trkpt><trkpt lat="42.0480866" lon="13.8964078"><ele>409.75</ele><time>2026-04-11T11:24:35.966Z</time></trkpt><trkpt lat="42.0482" lon="13.8963776"><ele>409.0</ele><time>2026-04-11T11:24:36.966Z</time></trkpt><trkpt lat="42.0483136" lon="13.8963474"><ele>408.0</ele><time>2026-04-11T11:24:37.966Z</time></trkpt><trkpt lat="42.0484496" lon="13.8963083"><ele>407.0</ele><time>2026-04-11T11:24:38.966Z</time></trkpt><trkpt lat="42.0485883" lon="13.8962714"><ele>406.0</ele><time>2026-04-11T11:24:39.966Z</time></trkpt><trkpt lat="42.0487365" lon="13.8962318"><ele>405.0</ele><time>2026-04-11T11:24:40.966Z</time></trkpt><trkpt lat="42.0488878" lon="13.8961887"><ele>405.0</ele><time>2026-04-11T11:24:41.966Z</time></trkpt><trkpt lat="42.0490469" lon="13.896147"><ele>405.0</ele><time>2026-04-11T11:24:42.966Z</time></trkpt><trkpt lat="42.0492108" lon="13.8961024"><ele>405.0</ele><time>2026-04-11T11:24:43.966Z</time></trkpt><trkpt lat="42.0493795" lon="13.8960603"><ele>403.66666666666663</ele><time>2026-04-11T11:24:44.966Z</time></trkpt><trkpt lat="42.0495471" lon="13.8960168"><ele>402.3333333333333</ele><time>2026-04-11T11:24:45.966Z</time></trkpt><trkpt lat="42.0497123" lon="13.8959721"><ele>401.0</ele><time>2026-04-11T11:24:46.966Z</time></trkpt><trkpt lat="42.0500432" lon="13.8958815"><ele>400.0</ele><time>2026-04-11T11:24:48.966Z</time></trkpt><trkpt lat="42.0502063" lon="13.8958359"><ele>399.0</ele><time>2026-04-11T11:24:49.965Z</time></trkpt><trkpt lat="42.0503712" lon="13.8957859"><ele>398.0</ele><time>2026-04-11T11:24:50.966Z</time></trkpt><trkpt lat="42.0505267" lon="13.895737"><ele>398.0</ele><time>2026-04-11T11:24:51.966Z</time></trkpt><trkpt lat="42.0506764" lon="13.8956902"><ele>398.0</ele><time>2026-04-11T11:24:52.966Z</time></trkpt><trkpt lat="42.0508212" lon="13.8956555"><ele>398.0</ele><time>2026-04-11T11:24:53.965Z</time></trkpt><trkpt lat="42.0509624" lon="13.8956225"><ele>398.0</ele><time>2026-04-11T11:24:54.966Z</time></trkpt><trkpt lat="42.0511001" lon="13.8955752"><ele>397.75</ele><time>2026-04-11T11:24:55.966Z</time></trkpt><trkpt lat="42.051235" lon="13.8955174"><ele>397.5</ele><time>2026-04-11T11:24:56.966Z</time></trkpt><trkpt lat="42.0513663" lon="13.8954402"><ele>397.25</ele><time>2026-04-11T11:24:57.966Z</time></trkpt><trkpt lat="42.051487" lon="13.8953621"><ele>397.0</ele><time>2026-04-11T11:24:58.966Z</time></trkpt><trkpt lat="42.0515953" lon="13.8952803"><ele>396.40000000000003</ele><time>2026-04-11T11:24:59.966Z</time></trkpt><trkpt lat="42.0517674" lon="13.8951477"><ele>395.8</ele><time>2026-04-11T11:25:01.966Z</time></trkpt><trkpt lat="42.0518477" lon="13.8951262"><ele>395.2</ele><time>2026-04-11T11:25:02.966Z</time></trkpt><trkpt lat="42.0519194" lon="13.8951471"><ele>394.6</ele><time>2026-04-11T11:25:03.965Z</time></trkpt><trkpt lat="42.0519874" lon="13.8951995"><ele>394.0</ele><time>2026-04-11T11:25:04.965Z</time></trkpt><trkpt lat="42.0521296" lon="13.8953857"><ele>394.0</ele><time>2026-04-11T11:25:06.965Z</time></trkpt><trkpt lat="42.0522104" lon="13.8954826"><ele>394.0</ele><time>2026-04-11T11:25:07.966Z</time></trkpt><trkpt lat="42.0522827" lon="13.8955804"><ele>394.0</ele><time>2026-04-11T11:25:08.966Z</time></trkpt><trkpt lat="42.0523563" lon="13.8956745"><ele>394.0</ele><time>2026-04-11T11:25:09.966Z</time></trkpt><trkpt lat="42.0524347" lon="13.8957741"><ele>394.0</ele><time>2026-04-11T11:25:10.966Z</time></trkpt><trkpt lat="42.0525125" lon="13.8958888"><ele>392.33333333333337</ele><time>2026-04-11T11:25:11.966Z</time></trkpt><trkpt lat="42.0525888" lon="13.8960105"><ele>390.66666666666663</ele><time>2026-04-11T11:25:12.966Z</time></trkpt><trkpt lat="42.0526638" lon="13.8961374"><ele>389.0</ele><time>2026-04-11T11:25:13.965Z</time></trkpt><trkpt lat="42.0527882" lon="13.8964486"><ele>389.0</ele><time>2026-04-11T11:25:15.966Z</time></trkpt><trkpt lat="42.0528427" lon="13.8966453"><ele>389.0</ele><time>2026-04-11T11:25:16.966Z</time></trkpt><trkpt lat="42.0529622" lon="13.8970568"><ele>389.3333333333333</ele><time>2026-04-11T11:25:18.966Z</time></trkpt><trkpt lat="42.0530246" lon="13.8972785"><ele>389.66666666666663</ele><time>2026-04-11T11:25:19.966Z</time></trkpt><trkpt lat="42.0530874" lon="13.8974993"><ele>390.0</ele><time>2026-04-11T11:25:20.966Z</time></trkpt><trkpt lat="42.0531481" lon="13.897718"><ele>390.0</ele><time>2026-04-11T11:25:21.965Z</time></trkpt><trkpt lat="42.0532107" lon="13.8979377"><ele>390.0</ele><time>2026-04-11T11:25:22.966Z</time></trkpt><trkpt lat="42.0532692" lon="13.8981577"><ele>390.0</ele><time>2026-04-11T11:25:23.966Z</time></trkpt><trkpt lat="42.053391" lon="13.898595"><ele>388.66666666666663</ele><time>2026-04-11T11:25:25.965Z</time></trkpt><trkpt lat="42.0534448" lon="13.8988037"><ele>387.3333333333333</ele><time>2026-04-11T11:25:26.966Z</time></trkpt><trkpt lat="42.0534922" lon="13.8990134"><ele>386.0</ele><time>2026-04-11T11:25:27.965Z</time></trkpt><trkpt lat="42.0535365" lon="13.899219"><ele>386.0</ele><time>2026-04-11T11:25:28.966Z</time></trkpt><trkpt lat="42.0535784" lon="13.899411"><ele>386.0</ele><time>2026-04-11T11:25:29.966Z</time></trkpt><trkpt lat="42.0536105" lon="13.8995843"><ele>386.0</ele><time>2026-04-11T11:25:30.966Z</time></trkpt><trkpt lat="42.0536406" lon="13.8997495"><ele>386.0</ele><time>2026-04-11T11:25:31.966Z</time></trkpt><trkpt lat="42.0536668" lon="13.8998881"><ele>386.0</ele><time>2026-04-11T11:25:32.966Z</time></trkpt><trkpt lat="42.0536816" lon="13.8999903"><ele>386.0</ele><time>2026-04-11T11:25:33.966Z</time></trkpt><trkpt lat="42.0537299" lon="13.9000983"><ele>386.0</ele><time>2026-04-11T11:25:35.966Z</time></trkpt><trkpt lat="42.0538388" lon="13.9000591"><ele>386.0</ele><time>2026-04-11T11:25:38.965Z</time></trkpt><trkpt lat="42.0538676" lon="13.8998979"><ele>386.0</ele><time>2026-04-11T11:25:40.966Z</time></trkpt><trkpt lat="42.0538864" lon="13.8997752"><ele>386.0</ele><time>2026-04-11T11:25:41.966Z</time></trkpt><trkpt lat="42.0539124" lon="13.8996389"><ele>386.0</ele><time>2026-04-11T11:25:42.966Z</time></trkpt><trkpt lat="42.0539477" lon="13.8994921"><ele>386.0</ele><time>2026-04-11T11:25:43.966Z</time></trkpt><trkpt lat="42.0539862" lon="13.8993398"><ele>386.0</ele><time>2026-04-11T11:25:44.966Z</time></trkpt><trkpt lat="42.0540383" lon="13.8991815"><ele>386.0</ele><time>2026-04-11T11:25:45.966Z</time></trkpt><trkpt lat="42.0541067" lon="13.8990295"><ele>386.0</ele><time>2026-04-11T11:25:46.966Z</time></trkpt><trkpt lat="42.0541845" lon="13.8988815"><ele>386.0</ele><time>2026-04-11T11:25:47.966Z</time></trkpt><trkpt lat="42.0542757" lon="13.8987314"><ele>386.0</ele><time>2026-04-11T11:25:48.965Z</time></trkpt><trkpt lat="42.0543746" lon="13.8985733"><ele>386.66666666666663</ele><time>2026-04-11T11:25:49.966Z</time></trkpt><trkpt lat="42.0544741" lon="13.8984028"><ele>387.33333333333337</ele><time>2026-04-11T11:25:50.966Z</time></trkpt><trkpt lat="42.0545814" lon="13.8982246"><ele>388.0</ele><time>2026-04-11T11:25:51.966Z</time></trkpt><trkpt lat="42.0546939" lon="13.8980347"><ele>388.0</ele><time>2026-04-11T11:25:52.966Z</time></trkpt><trkpt lat="42.0548072" lon="13.8978397"><ele>388.0</ele><time>2026-04-11T11:25:53.966Z</time></trkpt><trkpt lat="42.0549262" lon="13.8976436"><ele>388.0</ele><time>2026-04-11T11:25:54.966Z</time></trkpt><trkpt lat="42.0550455" lon="13.8974466"><ele>388.33333333333337</ele><time>2026-04-11T11:25:55.966Z</time></trkpt><trkpt lat="42.0551592" lon="13.8972578"><ele>388.66666666666663</ele><time>2026-04-11T11:25:56.966Z</time></trkpt><trkpt lat="42.0552596" lon="13.8970843"><ele>389.0</ele><time>2026-04-11T11:25:57.966Z</time></trkpt><trkpt lat="42.0553553" lon="13.8969182"><ele>388.66666666666663</ele><time>2026-04-11T11:25:58.966Z</time></trkpt><trkpt lat="42.0554582" lon="13.8967411"><ele>388.33333333333337</ele><time>2026-04-11T11:25:59.966Z</time></trkpt><trkpt lat="42.0555654" lon="13.8965517"><ele>388.0</ele><time>2026-04-11T11:26:00.966Z</time></trkpt><trkpt lat="42.0556731" lon="13.8963545"><ele>388.0</ele><time>2026-04-11T11:26:01.965Z</time></trkpt><trkpt lat="42.0557811" lon="13.8961599"><ele>388.0</ele><time>2026-04-11T11:26:02.965Z</time></trkpt><trkpt lat="42.0558856" lon="13.8959671"><ele>388.0</ele><time>2026-04-11T11:26:03.965Z</time></trkpt><trkpt lat="42.0559929" lon="13.8957775"><ele>384.6666666666667</ele><time>2026-04-11T11:26:04.966Z</time></trkpt><trkpt lat="42.056097" lon="13.895598"><ele>381.33333333333337</ele><time>2026-04-11T11:26:05.966Z</time></trkpt><trkpt lat="42.056197" lon="13.8954159"><ele>378.0</ele><time>2026-04-11T11:26:06.966Z</time></trkpt><trkpt lat="42.0562963" lon="13.8952366"><ele>377.3333333333333</ele><time>2026-04-11T11:26:07.966Z</time></trkpt><trkpt lat="42.0563893" lon="13.8950569"><ele>376.66666666666663</ele><time>2026-04-11T11:26:08.966Z</time></trkpt><trkpt lat="42.0564899" lon="13.8948868"><ele>376.0</ele><time>2026-04-11T11:26:09.966Z</time></trkpt><trkpt lat="42.0565857" lon="13.894723"><ele>375.0</ele><time>2026-04-11T11:26:10.965Z</time></trkpt><trkpt lat="42.0566773" lon="13.8945566"><ele>374.0</ele><time>2026-04-11T11:26:11.966Z</time></trkpt><trkpt lat="42.0567638" lon="13.8943864"><ele>373.0</ele><time>2026-04-11T11:26:12.966Z</time></trkpt><trkpt lat="42.0568419" lon="13.8941998"><ele>371.66666666666663</ele><time>2026-04-11T11:26:13.966Z</time></trkpt><trkpt lat="42.0569009" lon="13.8939995"><ele>370.3333333333333</ele><time>2026-04-11T11:26:14.965Z</time></trkpt><trkpt lat="42.0569397" lon="13.8937941"><ele>369.0</ele><time>2026-04-11T11:26:15.966Z</time></trkpt><trkpt lat="42.0569569" lon="13.8935955"><ele>368.0</ele><time>2026-04-11T11:26:16.966Z</time></trkpt><trkpt lat="42.0569612" lon="13.8934052"><ele>367.0</ele><time>2026-04-11T11:26:17.966Z</time></trkpt><trkpt lat="42.0569663" lon="13.8932305"><ele>366.0</ele><time>2026-04-11T11:26:18.966Z</time></trkpt><trkpt lat="42.0569884" lon="13.8930759"><ele>365.0</ele><time>2026-04-11T11:26:19.966Z</time></trkpt><trkpt lat="42.0570244" lon="13.8929496"><ele>365.0</ele><time>2026-04-11T11:26:20.966Z</time></trkpt><trkpt lat="42.0570811" lon="13.8928551"><ele>365.0</ele><time>2026-04-11T11:26:21.966Z</time></trkpt><trkpt lat="42.0571511" lon="13.8928034"><ele>365.0</ele><time>2026-04-11T11:26:22.966Z</time></trkpt><trkpt lat="42.0572261" lon="13.8928003"><ele>365.0</ele><time>2026-04-11T11:26:23.966Z</time></trkpt><trkpt lat="42.0573049" lon="13.892844"><ele>365.0</ele><time>2026-04-11T11:26:24.966Z</time></trkpt><trkpt lat="42.0573751" lon="13.8929374"><ele>365.0</ele><time>2026-04-11T11:26:25.966Z</time></trkpt><trkpt lat="42.0574362" lon="13.8930625"><ele>362.5</ele><time>2026-04-11T11:26:26.966Z</time></trkpt><trkpt lat="42.0574944" lon="13.8932095"><ele>360.0</ele><time>2026-04-11T11:26:27.966Z</time></trkpt><trkpt lat="42.0575528" lon="13.89337"><ele>357.5</ele><time>2026-04-11T11:26:28.966Z</time></trkpt><trkpt lat="42.0576165" lon="13.8935447"><ele>355.0</ele><time>2026-04-11T11:26:29.966Z</time></trkpt><trkpt lat="42.0576833" lon="13.8937333"><ele>355.0</ele><time>2026-04-11T11:26:30.966Z</time></trkpt><trkpt lat="42.0577521" lon="13.8939142"><ele>355.0</ele><time>2026-04-11T11:26:31.966Z</time></trkpt><trkpt lat="42.0578164" lon="13.8941086"><ele>355.0</ele><time>2026-04-11T11:26:32.966Z</time></trkpt><trkpt lat="42.0578814" lon="13.8942983"><ele>356.0</ele><time>2026-04-11T11:26:33.966Z</time></trkpt><trkpt lat="42.0579492" lon="13.8944966"><ele>357.0</ele><time>2026-04-11T11:26:34.966Z</time></trkpt><trkpt lat="42.0580222" lon="13.8946872"><ele>358.0</ele><time>2026-04-11T11:26:35.966Z</time></trkpt><trkpt lat="42.0580981" lon="13.8948667"><ele>358.0</ele><time>2026-04-11T11:26:36.966Z</time></trkpt><trkpt lat="42.058187" lon="13.8950224"><ele>358.0</ele><time>2026-04-11T11:26:37.966Z</time></trkpt><trkpt lat="42.0582884" lon="13.8951531"><ele>358.0</ele><time>2026-04-11T11:26:38.965Z</time></trkpt><trkpt lat="42.0584146" lon="13.8952539"><ele>358.0</ele><time>2026-04-11T11:26:39.966Z</time></trkpt><trkpt lat="42.0585567" lon="13.8953257"><ele>355.75</ele><time>2026-04-11T11:26:40.965Z</time></trkpt><trkpt lat="42.0586995" lon="13.895382"><ele>353.5</ele><time>2026-04-11T11:26:41.966Z</time></trkpt><trkpt lat="42.058838" lon="13.8954281"><ele>351.25</ele><time>2026-04-11T11:26:42.966Z</time></trkpt><trkpt lat="42.0589696" lon="13.8954726"><ele>349.0</ele><time>2026-04-11T11:26:43.966Z</time></trkpt><trkpt lat="42.0590946" lon="13.8955205"><ele>347.5</ele><time>2026-04-11T11:26:44.966Z</time></trkpt><trkpt lat="42.0592143" lon="13.8955633"><ele>346.0</ele><time>2026-04-11T11:26:45.965Z</time></trkpt><trkpt lat="42.0593259" lon="13.8956126"><ele>344.5</ele><time>2026-04-11T11:26:46.966Z</time></trkpt><trkpt lat="42.0594277" lon="13.895653"><ele>343.0</ele><time>2026-04-11T11:26:47.966Z</time></trkpt><trkpt lat="42.0595254" lon="13.8956995"><ele>343.0</ele><time>2026-04-11T11:26:48.966Z</time></trkpt><trkpt lat="42.0596146" lon="13.8957437"><ele>343.0</ele><time>2026-04-11T11:26:49.966Z</time></trkpt><trkpt lat="42.0596884" lon="13.8957837"><ele>343.0</ele><time>2026-04-11T11:26:50.966Z</time></trkpt><trkpt lat="42.0597492" lon="13.8958074"><ele>343.0</ele><time>2026-04-11T11:26:51.966Z</time></trkpt><trkpt lat="42.0598373" lon="13.8957671"><ele>343.0</ele><time>2026-04-11T11:26:53.966Z</time></trkpt><trkpt lat="42.059865" lon="13.8956257"><ele>343.0</ele><time>2026-04-11T11:26:55.966Z</time></trkpt><trkpt lat="42.0598561" lon="13.8955171"><ele>343.0</ele><time>2026-04-11T11:26:56.966Z</time></trkpt><trkpt lat="42.0598415" lon="13.8953803"><ele>343.0</ele><time>2026-04-11T11:26:57.966Z</time></trkpt><trkpt lat="42.0598404" lon="13.8952224"><ele>343.0</ele><time>2026-04-11T11:26:58.966Z</time></trkpt><trkpt lat="42.0598737" lon="13.8950466"><ele>343.0</ele><time>2026-04-11T11:26:59.966Z</time></trkpt><trkpt lat="42.0599427" lon="13.8948555"><ele>340.66666666666663</ele><time>2026-04-11T11:27:00.966Z</time></trkpt><trkpt lat="42.0600285" lon="13.8946663"><ele>338.3333333333333</ele><time>2026-04-11T11:27:01.966Z</time></trkpt><trkpt lat="42.060126" lon="13.8944759"><ele>336.0</ele><time>2026-04-11T11:27:02.966Z</time></trkpt><trkpt lat="42.0602312" lon="13.8942843"><ele>336.0</ele><time>2026-04-11T11:27:03.966Z</time></trkpt><trkpt lat="42.060343" lon="13.8940896"><ele>336.0</ele><time>2026-04-11T11:27:04.966Z</time></trkpt><trkpt lat="42.0604542" lon="13.8938885"><ele>336.0</ele><time>2026-04-11T11:27:05.966Z</time></trkpt><trkpt lat="42.0605764" lon="13.8936792"><ele>336.0</ele><time>2026-04-11T11:27:06.965Z</time></trkpt><trkpt lat="42.0606962" lon="13.8934695"><ele>336.0</ele><time>2026-04-11T11:27:07.966Z</time></trkpt><trkpt lat="42.0608196" lon="13.8932523"><ele>336.0</ele><time>2026-04-11T11:27:08.966Z</time></trkpt><trkpt lat="42.0609462" lon="13.8930293"><ele>337.3333333333333</ele><time>2026-04-11T11:27:09.966Z</time></trkpt><trkpt lat="42.061076" lon="13.8927946"><ele>338.66666666666663</ele><time>2026-04-11T11:27:10.965Z</time></trkpt><trkpt lat="42.0612106" lon="13.8925577"><ele>340.0</ele><time>2026-04-11T11:27:11.965Z</time></trkpt><trkpt lat="42.0613527" lon="13.8923282"><ele>340.66666666666663</ele><time>2026-04-11T11:27:12.966Z</time></trkpt><trkpt lat="42.0614902" lon="13.8921146"><ele>341.3333333333333</ele><time>2026-04-11T11:27:13.965Z</time></trkpt><trkpt lat="42.061621" lon="13.8919152"><ele>342.0</ele><time>2026-04-11T11:27:14.966Z</time></trkpt><trkpt lat="42.0617463" lon="13.8917393"><ele>345.6666666666667</ele><time>2026-04-11T11:27:15.966Z</time></trkpt><trkpt lat="42.0618828" lon="13.8915986"><ele>349.33333333333337</ele><time>2026-04-11T11:27:16.966Z</time></trkpt><trkpt lat="42.0620334" lon="13.8915101"><ele>353.0</ele><time>2026-04-11T11:27:17.966Z</time></trkpt><trkpt lat="42.0621821" lon="13.8914851"><ele>353.0</ele><time>2026-04-11T11:27:18.966Z</time></trkpt><trkpt lat="42.0623404" lon="13.8914827"><ele>353.0</ele><time>2026-04-11T11:27:19.966Z</time></trkpt><trkpt lat="42.062505" lon="13.8914869"><ele>353.0</ele><time>2026-04-11T11:27:20.966Z</time></trkpt><trkpt lat="42.0626752" lon="13.891486"><ele>354.33333333333337</ele><time>2026-04-11T11:27:21.966Z</time></trkpt><trkpt lat="42.0628455" lon="13.8914947"><ele>355.6666666666667</ele><time>2026-04-11T11:27:22.966Z</time></trkpt><trkpt lat="42.0630111" lon="13.8914918"><ele>357.0</ele><time>2026-04-11T11:27:23.966Z</time></trkpt><trkpt lat="42.0631702" lon="13.8914689"><ele>357.3333333333333</ele><time>2026-04-11T11:27:24.966Z</time></trkpt><trkpt lat="42.0633233" lon="13.8914078"><ele>357.66666666666663</ele><time>2026-04-11T11:27:25.966Z</time></trkpt><trkpt lat="42.0634716" lon="13.8913028"><ele>358.0</ele><time>2026-04-11T11:27:26.966Z</time></trkpt><trkpt lat="42.0636108" lon="13.8911827"><ele>358.0</ele><time>2026-04-11T11:27:27.966Z</time></trkpt><trkpt lat="42.0637411" lon="13.8910534"><ele>358.0</ele><time>2026-04-11T11:27:28.965Z</time></trkpt><trkpt lat="42.0638716" lon="13.8909192"><ele>358.0</ele><time>2026-04-11T11:27:29.966Z</time></trkpt><trkpt lat="42.0640057" lon="13.8907777"><ele>362.66666666666663</ele><time>2026-04-11T11:27:30.966Z</time></trkpt><trkpt lat="42.0641396" lon="13.8906312"><ele>367.3333333333333</ele><time>2026-04-11T11:27:31.966Z</time></trkpt><trkpt lat="42.0642732" lon="13.8904892"><ele>372.0</ele><time>2026-04-11T11:27:32.966Z</time></trkpt><trkpt lat="42.0644077" lon="13.8903488"><ele>372.0</ele><time>2026-04-11T11:27:33.966Z</time></trkpt><trkpt lat="42.0645374" lon="13.8902084"><ele>372.0</ele><time>2026-04-11T11:27:34.966Z</time></trkpt><trkpt lat="42.0646612" lon="13.8900747"><ele>372.0</ele><time>2026-04-11T11:27:35.966Z</time></trkpt><trkpt lat="42.0647643" lon="13.889964"><ele>373.6</ele><time>2026-04-11T11:27:36.966Z</time></trkpt><trkpt lat="42.0648452" lon="13.8898699"><ele>375.20000000000005</ele><time>2026-04-11T11:27:37.966Z</time></trkpt><trkpt lat="42.0649091" lon="13.8897958"><ele>376.8</ele><time>2026-04-11T11:27:38.966Z</time></trkpt><trkpt lat="42.0649854" lon="13.8897136"><ele>378.4</ele><time>2026-04-11T11:27:40.966Z</time></trkpt><trkpt lat="42.0650899" lon="13.8895996"><ele>380.0</ele><time>2026-04-11T11:27:42.966Z</time></trkpt><trkpt lat="42.065169" lon="13.889519"><ele>380.0</ele><time>2026-04-11T11:27:43.965Z</time></trkpt><trkpt lat="42.0652589" lon="13.8894312"><ele>380.0</ele><time>2026-04-11T11:27:44.965Z</time></trkpt><trkpt lat="42.0653568" lon="13.8893342"><ele>380.0</ele><time>2026-04-11T11:27:45.966Z</time></trkpt><trkpt lat="42.0654566" lon="13.8892323"><ele>380.0</ele><time>2026-04-11T11:27:46.966Z</time></trkpt><trkpt lat="42.0655605" lon="13.889129"><ele>380.0</ele><time>2026-04-11T11:27:47.966Z</time></trkpt><trkpt lat="42.0656634" lon="13.8890239"><ele>380.0</ele><time>2026-04-11T11:27:48.966Z</time></trkpt><trkpt lat="42.0657757" lon="13.8889141"><ele>380.0</ele><time>2026-04-11T11:27:49.965Z</time></trkpt><trkpt lat="42.0658967" lon="13.8888222"><ele>380.0</ele><time>2026-04-11T11:27:50.966Z</time></trkpt><trkpt lat="42.0660285" lon="13.8887479"><ele>380.0</ele><time>2026-04-11T11:27:51.966Z</time></trkpt><trkpt lat="42.0661618" lon="13.8886904"><ele>380.0</ele><time>2026-04-11T11:27:52.966Z</time></trkpt><trkpt lat="42.0663051" lon="13.8886462"><ele>380.0</ele><time>2026-04-11T11:27:53.966Z</time></trkpt><trkpt lat="42.0664576" lon="13.8886257"><ele>380.0</ele><time>2026-04-11T11:27:54.966Z</time></trkpt><trkpt lat="42.0666194" lon="13.888613"><ele>377.6666666666667</ele><time>2026-04-11T11:27:55.966Z</time></trkpt><trkpt lat="42.0667784" lon="13.8886062"><ele>375.3333333333333</ele><time>2026-04-11T11:27:56.966Z</time></trkpt><trkpt lat="42.0669387" lon="13.8886021"><ele>373.0</ele><time>2026-04-11T11:27:57.966Z</time></trkpt><trkpt lat="42.0670953" lon="13.8885951"><ele>373.0</ele><time>2026-04-11T11:27:58.966Z</time></trkpt><trkpt lat="42.0672488" lon="13.8885878"><ele>373.0</ele><time>2026-04-11T11:27:59.966Z</time></trkpt><trkpt lat="42.0674077" lon="13.8885763"><ele>373.0</ele><time>2026-04-11T11:28:00.966Z</time></trkpt><trkpt lat="42.0675651" lon="13.8885689"><ele>371.3333333333333</ele><time>2026-04-11T11:28:01.966Z</time></trkpt><trkpt lat="42.0677192" lon="13.8885622"><ele>369.6666666666667</ele><time>2026-04-11T11:28:02.966Z</time></trkpt><trkpt lat="42.0678729" lon="13.8885558"><ele>368.0</ele><time>2026-04-11T11:28:03.966Z</time></trkpt><trkpt lat="42.068023" lon="13.8885457"><ele>368.0</ele><time>2026-04-11T11:28:04.966Z</time></trkpt><trkpt lat="42.0681739" lon="13.8885427"><ele>368.0</ele><time>2026-04-11T11:28:05.966Z</time></trkpt><trkpt lat="42.0683263" lon="13.8885374"><ele>368.0</ele><time>2026-04-11T11:28:06.966Z</time></trkpt><trkpt lat="42.0684834" lon="13.8885305"><ele>369.0</ele><time>2026-04-11T11:28:07.965Z</time></trkpt><trkpt lat="42.0686458" lon="13.888522"><ele>370.0</ele><time>2026-04-11T11:28:08.966Z</time></trkpt><trkpt lat="42.0688021" lon="13.8885226"><ele>371.0</ele><time>2026-04-11T11:28:09.966Z</time></trkpt><trkpt lat="42.0689525" lon="13.8885228"><ele>371.0</ele><time>2026-04-11T11:28:10.966Z</time></trkpt><trkpt lat="42.0691073" lon="13.8885228"><ele>371.0</ele><time>2026-04-11T11:28:11.966Z</time></trkpt><trkpt lat="42.0692618" lon="13.8885263"><ele>371.0</ele><time>2026-04-11T11:28:12.966Z</time></trkpt><trkpt lat="42.0694213" lon="13.8885268"><ele>370.0</ele><time>2026-04-11T11:28:13.966Z</time></trkpt><trkpt lat="42.0695873" lon="13.8885128"><ele>369.0</ele><time>2026-04-11T11:28:14.966Z</time></trkpt><trkpt lat="42.0697553" lon="13.8884973"><ele>368.0</ele><time>2026-04-11T11:28:15.966Z</time></trkpt><trkpt lat="42.0699239" lon="13.8884701"><ele>371.0</ele><time>2026-04-11T11:28:16.966Z</time></trkpt><trkpt lat="42.0702468" lon="13.8883975"><ele>374.0</ele><time>2026-04-11T11:28:18.966Z</time></trkpt><trkpt lat="42.0703969" lon="13.8883534"><ele>374.0</ele><time>2026-04-11T11:28:19.966Z</time></trkpt><trkpt lat="42.0705428" lon="13.8883221"><ele>374.0</ele><time>2026-04-11T11:28:20.966Z</time></trkpt><trkpt lat="42.0706903" lon="13.8882889"><ele>374.0</ele><time>2026-04-11T11:28:21.966Z</time></trkpt><trkpt lat="42.0708454" lon="13.8882602"><ele>373.0</ele><time>2026-04-11T11:28:22.966Z</time></trkpt><trkpt lat="42.0709977" lon="13.8882428"><ele>372.0</ele><time>2026-04-11T11:28:23.966Z</time></trkpt><trkpt lat="42.0711542" lon="13.8882229"><ele>371.0</ele><time>2026-04-11T11:28:24.966Z</time></trkpt><trkpt lat="42.0713125" lon="13.8882036"><ele>371.0</ele><time>2026-04-11T11:28:25.966Z</time></trkpt><trkpt lat="42.0714768" lon="13.8881861"><ele>371.0</ele><time>2026-04-11T11:28:26.966Z</time></trkpt><trkpt lat="42.0716404" lon="13.8881645"><ele>371.0</ele><time>2026-04-11T11:28:27.966Z</time></trkpt><trkpt lat="42.0718045" lon="13.8881417"><ele>370.6666666666667</ele><time>2026-04-11T11:28:28.965Z</time></trkpt><trkpt lat="42.0719592" lon="13.88812"><ele>370.3333333333333</ele><time>2026-04-11T11:28:29.966Z</time></trkpt><trkpt lat="42.0721206" lon="13.8881011"><ele>370.0</ele><time>2026-04-11T11:28:30.966Z</time></trkpt><trkpt lat="42.0722806" lon="13.8880918"><ele>370.0</ele><time>2026-04-11T11:28:31.965Z</time></trkpt><trkpt lat="42.0724352" lon="13.8880918"><ele>370.0</ele><time>2026-04-11T11:28:32.966Z</time></trkpt><trkpt lat="42.0725858" lon="13.8880888"><ele>370.0</ele><time>2026-04-11T11:28:33.966Z</time></trkpt><trkpt lat="42.0727396" lon="13.8880786"><ele>368.3333333333333</ele><time>2026-04-11T11:28:34.966Z</time></trkpt><trkpt lat="42.0728926" lon="13.8880549"><ele>366.6666666666667</ele><time>2026-04-11T11:28:35.966Z</time></trkpt><trkpt lat="42.0730498" lon="13.888018"><ele>365.0</ele><time>2026-04-11T11:28:36.966Z</time></trkpt><trkpt lat="42.0732081" lon="13.8879758"><ele>363.0</ele><time>2026-04-11T11:28:37.966Z</time></trkpt><trkpt lat="42.0733636" lon="13.8879332"><ele>361.0</ele><time>2026-04-11T11:28:38.966Z</time></trkpt><trkpt lat="42.0735169" lon="13.8878938"><ele>359.0</ele><time>2026-04-11T11:28:39.965Z</time></trkpt><trkpt lat="42.0736707" lon="13.8878481"><ele>359.0</ele><time>2026-04-11T11:28:40.966Z</time></trkpt><trkpt lat="42.07382" lon="13.887805"><ele>359.0</ele><time>2026-04-11T11:28:41.966Z</time></trkpt><trkpt lat="42.0739698" lon="13.8877599"><ele>359.0</ele><time>2026-04-11T11:28:42.966Z</time></trkpt><trkpt lat="42.0741183" lon="13.8877139"><ele>357.6666666666667</ele><time>2026-04-11T11:28:43.966Z</time></trkpt><trkpt lat="42.0742677" lon="13.8876624"><ele>356.3333333333333</ele><time>2026-04-11T11:28:44.966Z</time></trkpt><trkpt lat="42.0744184" lon="13.8876102"><ele>355.0</ele><time>2026-04-11T11:28:45.965Z</time></trkpt><trkpt lat="42.0745653" lon="13.8875639"><ele>359.3333333333333</ele><time>2026-04-11T11:28:46.965Z</time></trkpt><trkpt lat="42.074717" lon="13.8875123"><ele>363.6666666666667</ele><time>2026-04-11T11:28:47.966Z</time></trkpt><trkpt lat="42.0748658" lon="13.887459"><ele>368.0</ele><time>2026-04-11T11:28:48.966Z</time></trkpt><trkpt lat="42.0750128" lon="13.8873887"><ele>368.0</ele><time>2026-04-11T11:28:49.966Z</time></trkpt><trkpt lat="42.0751513" lon="13.8872962"><ele>368.0</ele><time>2026-04-11T11:28:50.966Z</time></trkpt><trkpt lat="42.0752806" lon="13.8871878"><ele>368.0</ele><time>2026-04-11T11:28:51.966Z</time></trkpt><trkpt lat="42.0754058" lon="13.8870705"><ele>368.0</ele><time>2026-04-11T11:28:52.965Z</time></trkpt><trkpt lat="42.0755288" lon="13.886946"><ele>368.0</ele><time>2026-04-11T11:28:53.966Z</time></trkpt><trkpt lat="42.0756526" lon="13.886814"><ele>368.0</ele><time>2026-04-11T11:28:54.965Z</time></trkpt><trkpt lat="42.0757747" lon="13.8866753"><ele>367.5</ele><time>2026-04-11T11:28:55.966Z</time></trkpt><trkpt lat="42.0758922" lon="13.8865385"><ele>367.0</ele><time>2026-04-11T11:28:56.966Z</time></trkpt><trkpt lat="42.0760007" lon="13.8864033"><ele>366.5</ele><time>2026-04-11T11:28:57.966Z</time></trkpt><trkpt lat="42.0761061" lon="13.8862712"><ele>366.0</ele><time>2026-04-11T11:28:58.966Z</time></trkpt><trkpt lat="42.0762114" lon="13.8861304"><ele>366.0</ele><time>2026-04-11T11:28:59.966Z</time></trkpt><trkpt lat="42.0763129" lon="13.8859892"><ele>366.0</ele><time>2026-04-11T11:29:00.966Z</time></trkpt><trkpt lat="42.076417" lon="13.8858379"><ele>366.0</ele><time>2026-04-11T11:29:01.965Z</time></trkpt><trkpt lat="42.0765231" lon="13.885693"><ele>365.6666666666667</ele><time>2026-04-11T11:29:02.966Z</time></trkpt><trkpt lat="42.0766325" lon="13.8855483"><ele>365.33333333333337</ele><time>2026-04-11T11:29:03.966Z</time></trkpt><trkpt lat="42.076748" lon="13.885399"><ele>365.0</ele><time>2026-04-11T11:29:04.965Z</time></trkpt><trkpt lat="42.0768632" lon="13.8852558"><ele>365.0</ele><time>2026-04-11T11:29:05.966Z</time></trkpt><trkpt lat="42.0769837" lon="13.885106"><ele>365.0</ele><time>2026-04-11T11:29:06.966Z</time></trkpt><trkpt lat="42.0770986" lon="13.8849656"><ele>365.0</ele><time>2026-04-11T11:29:07.966Z</time></trkpt><trkpt lat="42.0772217" lon="13.8848278"><ele>365.0</ele><time>2026-04-11T11:29:08.966Z</time></trkpt><trkpt lat="42.0773481" lon="13.8846869"><ele>365.0</ele><time>2026-04-11T11:29:09.966Z</time></trkpt><trkpt lat="42.077481" lon="13.8845501"><ele>365.0</ele><time>2026-04-11T11:29:10.966Z</time></trkpt><trkpt lat="42.0776206" lon="13.8844125"><ele>364.6666666666667</ele><time>2026-04-11T11:29:11.966Z</time></trkpt><trkpt lat="42.0777588" lon="13.8842909"><ele>364.3333333333333</ele><time>2026-04-11T11:29:12.966Z</time></trkpt><trkpt lat="42.0778955" lon="13.8841741"><ele>364.0</ele><time>2026-04-11T11:29:13.965Z</time></trkpt><trkpt lat="42.0780337" lon="13.8840644"><ele>363.75</ele><time>2026-04-11T11:29:14.966Z</time></trkpt><trkpt lat="42.0781674" lon="13.8839553"><ele>363.5</ele><time>2026-04-11T11:29:15.966Z</time></trkpt><trkpt lat="42.0782936" lon="13.8838509"><ele>363.25</ele><time>2026-04-11T11:29:16.966Z</time></trkpt><trkpt lat="42.0784151" lon="13.8837505"><ele>363.0</ele><time>2026-04-11T11:29:17.965Z</time></trkpt><trkpt lat="42.0785296" lon="13.8836483"><ele>362.75</ele><time>2026-04-11T11:29:18.966Z</time></trkpt><trkpt lat="42.0786469" lon="13.8835425"><ele>362.5</ele><time>2026-04-11T11:29:19.966Z</time></trkpt><trkpt lat="42.0787572" lon="13.883437"><ele>362.25</ele><time>2026-04-11T11:29:20.966Z</time></trkpt><trkpt lat="42.0788701" lon="13.8833271"><ele>362.0</ele><time>2026-04-11T11:29:21.966Z</time></trkpt><trkpt lat="42.0789834" lon="13.8832095"><ele>362.0</ele><time>2026-04-11T11:29:22.966Z</time></trkpt><trkpt lat="42.0790989" lon="13.8830919"><ele>362.0</ele><time>2026-04-11T11:29:23.965Z</time></trkpt><trkpt lat="42.0792187" lon="13.8829655"><ele>362.0</ele><time>2026-04-11T11:29:24.966Z</time></trkpt><trkpt lat="42.0793372" lon="13.882841"><ele>362.0</ele><time>2026-04-11T11:29:25.966Z</time></trkpt><trkpt lat="42.0794558" lon="13.8827165"><ele>362.5</ele><time>2026-04-11T11:29:26.966Z</time></trkpt><trkpt lat="42.0795739" lon="13.8825878"><ele>363.0</ele><time>2026-04-11T11:29:27.966Z</time></trkpt><trkpt lat="42.0796903" lon="13.8824634"><ele>363.5</ele><time>2026-04-11T11:29:28.966Z</time></trkpt><trkpt lat="42.079804" lon="13.8823411"><ele>364.0</ele><time>2026-04-11T11:29:29.966Z</time></trkpt><trkpt lat="42.0799143" lon="13.8822189"><ele>363.5</ele><time>2026-04-11T11:29:30.966Z</time></trkpt><trkpt lat="42.080022" lon="13.8821039"><ele>363.0</ele><time>2026-04-11T11:29:31.966Z</time></trkpt><trkpt lat="42.0801238" lon="13.881993"><ele>362.5</ele><time>2026-04-11T11:29:32.966Z</time></trkpt><trkpt lat="42.0802271" lon="13.8818892"><ele>362.0</ele><time>2026-04-11T11:29:33.966Z</time></trkpt><trkpt lat="42.0803266" lon="13.8817864"><ele>362.0</ele><time>2026-04-11T11:29:34.966Z</time></trkpt><trkpt lat="42.0804249" lon="13.8816841"><ele>362.0</ele><time>2026-04-11T11:29:35.966Z</time></trkpt><trkpt lat="42.0805225" lon="13.8815821"><ele>362.0</ele><time>2026-04-11T11:29:36.966Z</time></trkpt><trkpt lat="42.0806177" lon="13.8814876"><ele>362.0</ele><time>2026-04-11T11:29:37.965Z</time></trkpt><trkpt lat="42.0807142" lon="13.8814021"><ele>361.5</ele><time>2026-04-11T11:29:38.966Z</time></trkpt><trkpt lat="42.0808074" lon="13.8813228"><ele>361.0</ele><time>2026-04-11T11:29:39.965Z</time></trkpt><trkpt lat="42.0809024" lon="13.881237"><ele>360.5</ele><time>2026-04-11T11:29:40.966Z</time></trkpt><trkpt lat="42.0810076" lon="13.8811486"><ele>360.0</ele><time>2026-04-11T11:29:41.966Z</time></trkpt><trkpt lat="42.0811037" lon="13.8810663"><ele>360.0</ele><time>2026-04-11T11:29:42.966Z</time></trkpt><trkpt lat="42.0811912" lon="13.8809915"><ele>360.0</ele><time>2026-04-11T11:29:43.966Z</time></trkpt><trkpt lat="42.0812749" lon="13.8809285"><ele>360.0</ele><time>2026-04-11T11:29:44.965Z</time></trkpt><trkpt lat="42.0813478" lon="13.8808754"><ele>360.0</ele><time>2026-04-11T11:29:45.966Z</time></trkpt><trkpt lat="42.081449" lon="13.8808009"><ele>360.0</ele><time>2026-04-11T11:29:47.966Z</time></trkpt><trkpt lat="42.081515" lon="13.8807601"><ele>360.1666666666667</ele><time>2026-04-11T11:29:49.965Z</time></trkpt><trkpt lat="42.0815793" lon="13.8807148"><ele>360.3333333333333</ele><time>2026-04-11T11:29:53.966Z</time></trkpt><trkpt lat="42.0816477" lon="13.8806606"><ele>360.5</ele><time>2026-04-11T11:29:57.966Z</time></trkpt><trkpt lat="42.0817086" lon="13.8806088"><ele>360.66666666666663</ele><time>2026-04-11T11:29:59.966Z</time></trkpt><trkpt lat="42.0818073" lon="13.8805364"><ele>360.8333333333333</ele><time>2026-04-11T11:30:01.966Z</time></trkpt><trkpt lat="42.0818707" lon="13.8804872"><ele>361.0</ele><time>2026-04-11T11:30:02.966Z</time></trkpt><trkpt lat="42.0819404" lon="13.880436"><ele>361.0</ele><time>2026-04-11T11:30:03.966Z</time></trkpt><trkpt lat="42.0820165" lon="13.8803857"><ele>361.0</ele><time>2026-04-11T11:30:04.966Z</time></trkpt><trkpt lat="42.0821014" lon="13.8803407"><ele>361.0</ele><time>2026-04-11T11:30:05.966Z</time></trkpt><trkpt lat="42.0821963" lon="13.8802799"><ele>361.0</ele><time>2026-04-11T11:30:06.965Z</time></trkpt><trkpt lat="42.0822988" lon="13.8802281"><ele>361.0</ele><time>2026-04-11T11:30:07.966Z</time></trkpt><trkpt lat="42.0824126" lon="13.8801698"><ele>360.5</ele><time>2026-04-11T11:30:08.966Z</time></trkpt><trkpt lat="42.0825297" lon="13.8801157"><ele>360.0</ele><time>2026-04-11T11:30:09.966Z</time></trkpt><trkpt lat="42.0826488" lon="13.8800543"><ele>359.5</ele><time>2026-04-11T11:30:10.966Z</time></trkpt><trkpt lat="42.0827742" lon="13.8799945"><ele>359.0</ele><time>2026-04-11T11:30:11.966Z</time></trkpt><trkpt lat="42.0829137" lon="13.8799241"><ele>359.0</ele><time>2026-04-11T11:30:12.966Z</time></trkpt><trkpt lat="42.0830533" lon="13.8798571"><ele>359.0</ele><time>2026-04-11T11:30:13.966Z</time></trkpt><trkpt lat="42.0831871" lon="13.8797924"><ele>359.0</ele><time>2026-04-11T11:30:14.966Z</time></trkpt><trkpt lat="42.0833187" lon="13.8797297"><ele>359.0</ele><time>2026-04-11T11:30:15.966Z</time></trkpt><trkpt lat="42.0834403" lon="13.8796682"><ele>358.75</ele><time>2026-04-11T11:30:16.966Z</time></trkpt><trkpt lat="42.0835604" lon="13.8796093"><ele>358.5</ele><time>2026-04-11T11:30:17.966Z</time></trkpt><trkpt lat="42.0836694" lon="13.8795473"><ele>358.25</ele><time>2026-04-11T11:30:18.966Z</time></trkpt><trkpt lat="42.0837815" lon="13.8794867"><ele>358.0</ele><time>2026-04-11T11:30:19.966Z</time></trkpt><trkpt lat="42.0838972" lon="13.8794215"><ele>358.0</ele><time>2026-04-11T11:30:20.966Z</time></trkpt><trkpt lat="42.0840114" lon="13.8793576"><ele>358.0</ele><time>2026-04-11T11:30:21.966Z</time></trkpt><trkpt lat="42.084134" lon="13.8792856"><ele>358.0</ele><time>2026-04-11T11:30:22.966Z</time></trkpt><trkpt lat="42.0842609" lon="13.8792184"><ele>358.0</ele><time>2026-04-11T11:30:23.966Z</time></trkpt><trkpt lat="42.0843921" lon="13.8791444"><ele>357.75</ele><time>2026-04-11T11:30:24.966Z</time></trkpt><trkpt lat="42.0845237" lon="13.8790624"><ele>357.5</ele><time>2026-04-11T11:30:25.966Z</time></trkpt><trkpt lat="42.0846533" lon="13.8789791"><ele>357.25</ele><time>2026-04-11T11:30:26.966Z</time></trkpt><trkpt lat="42.084786" lon="13.8788945"><ele>357.0</ele><time>2026-04-11T11:30:27.966Z</time></trkpt><trkpt lat="42.0849185" lon="13.8788131"><ele>357.0</ele><time>2026-04-11T11:30:28.966Z</time></trkpt><trkpt lat="42.0850472" lon="13.8787322"><ele>357.0</ele><time>2026-04-11T11:30:29.966Z</time></trkpt><trkpt lat="42.0851678" lon="13.8786606"><ele>357.0</ele><time>2026-04-11T11:30:30.966Z</time></trkpt><trkpt lat="42.0852852" lon="13.8785843"><ele>357.0</ele><time>2026-04-11T11:30:31.966Z</time></trkpt><trkpt lat="42.0854033" lon="13.8785062"><ele>357.0</ele><time>2026-04-11T11:30:32.966Z</time></trkpt><trkpt lat="42.0855231" lon="13.8784293"><ele>357.0</ele><time>2026-04-11T11:30:33.966Z</time></trkpt><trkpt lat="42.0856416" lon="13.8783528"><ele>357.0</ele><time>2026-04-11T11:30:34.966Z</time></trkpt><trkpt lat="42.0857559" lon="13.878279"><ele>357.0</ele><time>2026-04-11T11:30:35.966Z</time></trkpt><trkpt lat="42.0858695" lon="13.8782076"><ele>356.6</ele><time>2026-04-11T11:30:36.966Z</time></trkpt><trkpt lat="42.0859783" lon="13.8781417"><ele>356.20000000000005</ele><time>2026-04-11T11:30:37.966Z</time></trkpt><trkpt lat="42.086081" lon="13.8780742"><ele>355.8</ele><time>2026-04-11T11:30:38.966Z</time></trkpt><trkpt lat="42.0861752" lon="13.8780142"><ele>355.4</ele><time>2026-04-11T11:30:39.966Z</time></trkpt><trkpt lat="42.0862674" lon="13.8779564"><ele>355.0</ele><time>2026-04-11T11:30:40.966Z</time></trkpt><trkpt lat="42.0863535" lon="13.8779025"><ele>355.0</ele><time>2026-04-11T11:30:41.966Z</time></trkpt><trkpt lat="42.086437" lon="13.8778527"><ele>355.0</ele><time>2026-04-11T11:30:42.966Z</time></trkpt><trkpt lat="42.0865134" lon="13.8778087"><ele>355.0</ele><time>2026-04-11T11:30:43.966Z</time></trkpt><trkpt lat="42.0865863" lon="13.8777668"><ele>355.0</ele><time>2026-04-11T11:30:44.965Z</time></trkpt><trkpt lat="42.086651" lon="13.8777231"><ele>355.0</ele><time>2026-04-11T11:30:45.965Z</time></trkpt><trkpt lat="42.0867141" lon="13.8776785"><ele>355.0</ele><time>2026-04-11T11:30:46.966Z</time></trkpt><trkpt lat="42.086783" lon="13.8776322"><ele>354.8333333333333</ele><time>2026-04-11T11:30:47.966Z</time></trkpt><trkpt lat="42.0868588" lon="13.877585"><ele>354.66666666666663</ele><time>2026-04-11T11:30:48.966Z</time></trkpt><trkpt lat="42.0869362" lon="13.877535"><ele>354.5</ele><time>2026-04-11T11:30:49.966Z</time></trkpt><trkpt lat="42.0870138" lon="13.8774897"><ele>354.3333333333333</ele><time>2026-04-11T11:30:50.966Z</time></trkpt><trkpt lat="42.0870929" lon="13.8774477"><ele>354.1666666666667</ele><time>2026-04-11T11:30:51.965Z</time></trkpt><trkpt lat="42.0871778" lon="13.8774117"><ele>354.0</ele><time>2026-04-11T11:30:52.965Z</time></trkpt><trkpt lat="42.0872595" lon="13.8773794"><ele>354.0</ele><time>2026-04-11T11:30:53.966Z</time></trkpt><trkpt lat="42.0873394" lon="13.8773412"><ele>354.0</ele><time>2026-04-11T11:30:54.965Z</time></trkpt><trkpt lat="42.0874168" lon="13.8773006"><ele>354.0</ele><time>2026-04-11T11:30:55.965Z</time></trkpt><trkpt lat="42.0874907" lon="13.877263"><ele>354.0</ele><time>2026-04-11T11:30:56.966Z</time></trkpt><trkpt lat="42.0875688" lon="13.8772215"><ele>354.0</ele><time>2026-04-11T11:30:57.966Z</time></trkpt><trkpt lat="42.0876473" lon="13.8771796"><ele>354.0</ele><time>2026-04-11T11:30:58.966Z</time></trkpt><trkpt lat="42.0877254" lon="13.8771346"><ele>353.6666666666667</ele><time>2026-04-11T11:30:59.966Z</time></trkpt><trkpt lat="42.08781" lon="13.8770841"><ele>353.3333333333333</ele><time>2026-04-11T11:31:00.966Z</time></trkpt><trkpt lat="42.0878943" lon="13.8770356"><ele>353.0</ele><time>2026-04-11T11:31:01.966Z</time></trkpt><trkpt lat="42.087974" lon="13.8769948"><ele>352.66666666666663</ele><time>2026-04-11T11:31:02.966Z</time></trkpt><trkpt lat="42.0880473" lon="13.8769552"><ele>352.3333333333333</ele><time>2026-04-11T11:31:03.966Z</time></trkpt><trkpt lat="42.0881166" lon="13.8769167"><ele>352.0</ele><time>2026-04-11T11:31:04.966Z</time></trkpt><trkpt lat="42.0881861" lon="13.8768801"><ele>351.5</ele><time>2026-04-11T11:31:05.966Z</time></trkpt><trkpt lat="42.0882614" lon="13.8768424"><ele>351.0</ele><time>2026-04-11T11:31:06.966Z</time></trkpt><trkpt lat="42.0883435" lon="13.8768024"><ele>350.5</ele><time>2026-04-11T11:31:07.965Z</time></trkpt><trkpt lat="42.0884223" lon="13.8767624"><ele>350.0</ele><time>2026-04-11T11:31:08.966Z</time></trkpt><trkpt lat="42.0885028" lon="13.8767268"><ele>349.5</ele><time>2026-04-11T11:31:09.966Z</time></trkpt><trkpt lat="42.0885897" lon="13.8766867"><ele>349.0</ele><time>2026-04-11T11:31:10.966Z</time></trkpt><trkpt lat="42.0886833" lon="13.876648"><ele>349.0</ele><time>2026-04-11T11:31:11.966Z</time></trkpt><trkpt lat="42.088776" lon="13.8766098"><ele>349.0</ele><time>2026-04-11T11:31:12.966Z</time></trkpt><trkpt lat="42.0888644" lon="13.8765782"><ele>349.0</ele><time>2026-04-11T11:31:13.966Z</time></trkpt><trkpt lat="42.0889483" lon="13.8765428"><ele>349.0</ele><time>2026-04-11T11:31:14.966Z</time></trkpt><trkpt lat="42.0890252" lon="13.8765139"><ele>349.0</ele><time>2026-04-11T11:31:15.966Z</time></trkpt><trkpt lat="42.0890955" lon="13.8764847"><ele>349.0</ele><time>2026-04-11T11:31:16.966Z</time></trkpt><trkpt lat="42.0891646" lon="13.8764584"><ele>348.3333333333333</ele><time>2026-04-11T11:31:17.966Z</time></trkpt><trkpt lat="42.0892288" lon="13.8764394"><ele>347.66666666666663</ele><time>2026-04-11T11:31:18.966Z</time></trkpt><trkpt lat="42.0892998" lon="13.8764185"><ele>347.0</ele><time>2026-04-11T11:31:19.966Z</time></trkpt><trkpt lat="42.0893807" lon="13.8763875"><ele>346.3333333333333</ele><time>2026-04-11T11:31:20.966Z</time></trkpt><trkpt lat="42.0894732" lon="13.8763614"><ele>345.6666666666667</ele><time>2026-04-11T11:31:21.966Z</time></trkpt><trkpt lat="42.0895707" lon="13.8763399"><ele>345.0</ele><time>2026-04-11T11:31:22.966Z</time></trkpt><trkpt lat="42.0896754" lon="13.8763177"><ele>345.0</ele><time>2026-04-11T11:31:23.966Z</time></trkpt><trkpt lat="42.0897825" lon="13.8762942"><ele>345.0</ele><time>2026-04-11T11:31:24.966Z</time></trkpt><trkpt lat="42.0898853" lon="13.8762811"><ele>345.0</ele><time>2026-04-11T11:31:25.966Z</time></trkpt><trkpt lat="42.0899904" lon="13.8762645"><ele>345.0</ele><time>2026-04-11T11:31:26.966Z</time></trkpt><trkpt lat="42.0900989" lon="13.8762463"><ele>345.0</ele><time>2026-04-11T11:31:27.966Z</time></trkpt><trkpt lat="42.0902058" lon="13.8762249"><ele>344.0</ele><time>2026-04-11T11:31:28.966Z</time></trkpt><trkpt lat="42.0903073" lon="13.8762017"><ele>343.0</ele><time>2026-04-11T11:31:29.966Z</time></trkpt><trkpt lat="42.0904025" lon="13.8761755"><ele>342.0</ele><time>2026-04-11T11:31:30.966Z</time></trkpt><trkpt lat="42.0904954" lon="13.8761518"><ele>341.0</ele><time>2026-04-11T11:31:31.966Z</time></trkpt><trkpt lat="42.0905837" lon="13.8761282"><ele>340.0</ele><time>2026-04-11T11:31:32.966Z</time></trkpt><trkpt lat="42.0906705" lon="13.8761"><ele>340.0</ele><time>2026-04-11T11:31:33.965Z</time></trkpt><trkpt lat="42.090755" lon="13.8760693"><ele>340.0</ele><time>2026-04-11T11:31:34.966Z</time></trkpt><trkpt lat="42.0908358" lon="13.8760414"><ele>340.0</ele><time>2026-04-11T11:31:35.966Z</time></trkpt><trkpt lat="42.0909202" lon="13.8760099"><ele>340.0</ele><time>2026-04-11T11:31:36.966Z</time></trkpt><trkpt lat="42.0910131" lon="13.8759766"><ele>340.0</ele><time>2026-04-11T11:31:37.965Z</time></trkpt><trkpt lat="42.0911021" lon="13.8759423"><ele>340.0</ele><time>2026-04-11T11:31:38.966Z</time></trkpt><trkpt lat="42.0911887" lon="13.8759042"><ele>340.0</ele><time>2026-04-11T11:31:39.966Z</time></trkpt><trkpt lat="42.0912775" lon="13.8758715"><ele>340.0</ele><time>2026-04-11T11:31:40.966Z</time></trkpt><trkpt lat="42.0913668" lon="13.8758451"><ele>340.0</ele><time>2026-04-11T11:31:41.966Z</time></trkpt><trkpt lat="42.0914449" lon="13.8758135"><ele>340.0</ele><time>2026-04-11T11:31:42.966Z</time></trkpt><trkpt lat="42.0915236" lon="13.875782"><ele>340.0</ele><time>2026-04-11T11:31:43.966Z</time></trkpt><trkpt lat="42.0915992" lon="13.8757545"><ele>340.0</ele><time>2026-04-11T11:31:44.966Z</time></trkpt><trkpt lat="42.0916696" lon="13.8757306"><ele>340.0</ele><time>2026-04-11T11:31:45.966Z</time></trkpt><trkpt lat="42.091738" lon="13.8757059"><ele>340.0</ele><time>2026-04-11T11:31:46.966Z</time></trkpt><trkpt lat="42.0917983" lon="13.8756807"><ele>340.0</ele><time>2026-04-11T11:31:47.965Z</time></trkpt><trkpt lat="42.0919138" lon="13.8756457"><ele>340.0</ele><time>2026-04-11T11:31:49.965Z</time></trkpt><trkpt lat="42.0920288" lon="13.875644"><ele>340.0</ele><time>2026-04-11T11:31:51.965Z</time></trkpt><trkpt lat="42.0921355" lon="13.8756909"><ele>340.0</ele><time>2026-04-11T11:31:53.966Z</time></trkpt><trkpt lat="42.0922523" lon="13.8757379"><ele>340.0</ele><time>2026-04-11T11:31:55.966Z</time></trkpt><trkpt lat="42.0923259" lon="13.8757416"><ele>340.0</ele><time>2026-04-11T11:31:56.966Z</time></trkpt><trkpt lat="42.09241" lon="13.8757294"><ele>340.0</ele><time>2026-04-11T11:31:57.966Z</time></trkpt><trkpt lat="42.0924933" lon="13.8757086"><ele>340.0</ele><time>2026-04-11T11:31:58.966Z</time></trkpt><trkpt lat="42.0925785" lon="13.8756907"><ele>339.6</ele><time>2026-04-11T11:31:59.965Z</time></trkpt><trkpt lat="42.0926639" lon="13.8756699"><ele>339.2</ele><time>2026-04-11T11:32:00.966Z</time></trkpt><trkpt lat="42.0927515" lon="13.8756578"><ele>338.79999999999995</ele><time>2026-04-11T11:32:01.966Z</time></trkpt><trkpt lat="42.092846" lon="13.8756393"><ele>338.4</ele><time>2026-04-11T11:32:02.966Z</time></trkpt><trkpt lat="42.0929392" lon="13.8756152"><ele>338.0</ele><time>2026-04-11T11:32:03.966Z</time></trkpt><trkpt lat="42.0930303" lon="13.8755966"><ele>338.0</ele><time>2026-04-11T11:32:04.966Z</time></trkpt><trkpt lat="42.0931192" lon="13.8755771"><ele>338.0</ele><time>2026-04-11T11:32:05.966Z</time></trkpt><trkpt lat="42.0931995" lon="13.8755575"><ele>338.0</ele><time>2026-04-11T11:32:06.966Z</time></trkpt><trkpt lat="42.0932786" lon="13.8755401"><ele>338.0</ele><time>2026-04-11T11:32:07.966Z</time></trkpt><trkpt lat="42.0933541" lon="13.8755197"><ele>338.0</ele><time>2026-04-11T11:32:08.966Z</time></trkpt><trkpt lat="42.0934383" lon="13.8754966"><ele>338.0</ele><time>2026-04-11T11:32:09.966Z</time></trkpt><trkpt lat="42.0935269" lon="13.8754865"><ele>337.33333333333337</ele><time>2026-04-11T11:32:10.966Z</time></trkpt><trkpt lat="42.0936135" lon="13.8754747"><ele>336.6666666666667</ele><time>2026-04-11T11:32:11.966Z</time></trkpt><trkpt lat="42.0936945" lon="13.8754719"><ele>336.0</ele><time>2026-04-11T11:32:12.966Z</time></trkpt><trkpt lat="42.0937727" lon="13.875464"><ele>335.3333333333333</ele><time>2026-04-11T11:32:13.966Z</time></trkpt><trkpt lat="42.0938538" lon="13.8754558"><ele>334.66666666666663</ele><time>2026-04-11T11:32:14.965Z</time></trkpt><trkpt lat="42.0939338" lon="13.8754554"><ele>334.0</ele><time>2026-04-11T11:32:15.966Z</time></trkpt><trkpt lat="42.0940162" lon="13.875463"><ele>333.79999999999995</ele><time>2026-04-11T11:32:16.966Z</time></trkpt><trkpt lat="42.0941011" lon="13.8754703"><ele>333.59999999999997</ele><time>2026-04-11T11:32:17.966Z</time></trkpt><trkpt lat="42.0941889" lon="13.8754868"><ele>333.4</ele><time>2026-04-11T11:32:18.966Z</time></trkpt><trkpt lat="42.0942807" lon="13.8755064"><ele>333.2</ele><time>2026-04-11T11:32:19.966Z</time></trkpt><trkpt lat="42.0943721" lon="13.8755245"><ele>333.0</ele><time>2026-04-11T11:32:20.966Z</time></trkpt><trkpt lat="42.0944634" lon="13.875547"><ele>333.0</ele><time>2026-04-11T11:32:21.966Z</time></trkpt><trkpt lat="42.0945531" lon="13.8755802"><ele>333.0</ele><time>2026-04-11T11:32:22.966Z</time></trkpt><trkpt lat="42.0946402" lon="13.875606"><ele>333.0</ele><time>2026-04-11T11:32:23.966Z</time></trkpt><trkpt lat="42.0947285" lon="13.8756346"><ele>333.0</ele><time>2026-04-11T11:32:24.966Z</time></trkpt><trkpt lat="42.0948042" lon="13.8756739"><ele>333.0</ele><time>2026-04-11T11:32:25.966Z</time></trkpt><trkpt lat="42.094882" lon="13.8756998"><ele>333.0</ele><time>2026-04-11T11:32:26.966Z</time></trkpt><trkpt lat="42.0949587" lon="13.8757292"><ele>332.0</ele><time>2026-04-11T11:32:27.966Z</time></trkpt><trkpt lat="42.0950288" lon="13.8757523"><ele>331.0</ele><time>2026-04-11T11:32:28.966Z</time></trkpt><trkpt lat="42.0951059" lon="13.8757785"><ele>330.0</ele><time>2026-04-11T11:32:29.966Z</time></trkpt><trkpt lat="42.0951879" lon="13.8758013"><ele>329.0</ele><time>2026-04-11T11:32:30.966Z</time></trkpt><trkpt lat="42.0952696" lon="13.875815"><ele>328.0</ele><time>2026-04-11T11:32:31.966Z</time></trkpt><trkpt lat="42.0953502" lon="13.875818"><ele>327.0</ele><time>2026-04-11T11:32:32.966Z</time></trkpt><trkpt lat="42.0954344" lon="13.8758071"><ele>327.0</ele><time>2026-04-11T11:32:33.966Z</time></trkpt><trkpt lat="42.0955224" lon="13.8757965"><ele>327.0</ele><time>2026-04-11T11:32:34.966Z</time></trkpt><trkpt lat="42.0956125" lon="13.8757878"><ele>327.0</ele><time>2026-04-11T11:32:35.965Z</time></trkpt><trkpt lat="42.0957029" lon="13.8757728"><ele>327.0</ele><time>2026-04-11T11:32:36.966Z</time></trkpt><trkpt lat="42.0957983" lon="13.8757604"><ele>327.0</ele><time>2026-04-11T11:32:37.966Z</time></trkpt><trkpt lat="42.0958889" lon="13.8757498"><ele>325.8333333333333</ele><time>2026-04-11T11:32:38.965Z</time></trkpt><trkpt lat="42.0959797" lon="13.8757376"><ele>324.6666666666667</ele><time>2026-04-11T11:32:39.966Z</time></trkpt><trkpt lat="42.0960652" lon="13.8757236"><ele>323.5</ele><time>2026-04-11T11:32:40.966Z</time></trkpt><trkpt lat="42.0961412" lon="13.8757078"><ele>322.33333333333337</ele><time>2026-04-11T11:32:41.965Z</time></trkpt><trkpt lat="42.0962103" lon="13.8756984"><ele>321.1666666666667</ele><time>2026-04-11T11:32:42.966Z</time></trkpt><trkpt lat="42.0962733" lon="13.8756919"><ele>320.0</ele><time>2026-04-11T11:32:43.966Z</time></trkpt><trkpt lat="42.0963532" lon="13.8757012"><ele>320.0</ele><time>2026-04-11T11:32:45.966Z</time></trkpt><trkpt lat="42.0964142" lon="13.8757562"><ele>320.0</ele><time>2026-04-11T11:33:26.965Z</time></trkpt><trkpt lat="42.096491" lon="13.8757548"><ele>320.0</ele><time>2026-04-11T11:33:45.966Z</time></trkpt><trkpt lat="42.0964637" lon="13.8756623"><ele>320.0</ele><time>2026-04-11T11:33:49.966Z</time></trkpt><trkpt lat="42.0963702" lon="13.8756447"><ele>320.0</ele><time>2026-04-11T11:33:52.966Z</time></trkpt><trkpt lat="42.0962489" lon="13.8756274"><ele>320.0</ele><time>2026-04-11T11:33:54.966Z</time></trkpt><trkpt lat="42.0961331" lon="13.8756352"><ele>320.0</ele><time>2026-04-11T11:33:56.966Z</time></trkpt><trkpt lat="42.0959301" lon="13.875661"><ele>320.0</ele><time>2026-04-11T11:33:59.966Z</time></trkpt><trkpt lat="42.095849" lon="13.8756751"><ele>320.0</ele><time>2026-04-11T11:34:00.966Z</time></trkpt><trkpt lat="42.0957626" lon="13.8756938"><ele>320.0</ele><time>2026-04-11T11:34:01.966Z</time></trkpt><trkpt lat="42.0956755" lon="13.8757067"><ele>322.33333333333337</ele><time>2026-04-11T11:34:02.966Z</time></trkpt><trkpt lat="42.0954875" lon="13.8757302"><ele>324.6666666666667</ele><time>2026-04-11T11:34:04.966Z</time></trkpt><trkpt lat="42.0953955" lon="13.8757421"><ele>327.0</ele><time>2026-04-11T11:34:05.966Z</time></trkpt><trkpt lat="42.0952239" lon="13.8757297"><ele>327.0</ele><time>2026-04-11T11:34:07.966Z</time></trkpt><trkpt lat="42.0951347" lon="13.8757129"><ele>327.0</ele><time>2026-04-11T11:34:08.966Z</time></trkpt><trkpt lat="42.0950429" lon="13.875697"><ele>327.0</ele><time>2026-04-11T11:34:09.966Z</time></trkpt><trkpt lat="42.0949489" lon="13.8756697"><ele>327.0</ele><time>2026-04-11T11:34:10.966Z</time></trkpt><trkpt lat="42.0948603" lon="13.8756271"><ele>327.0</ele><time>2026-04-11T11:34:11.965Z</time></trkpt><trkpt lat="42.0947675" lon="13.875595"><ele>329.0</ele><time>2026-04-11T11:34:12.966Z</time></trkpt><trkpt lat="42.0945759" lon="13.8755246"><ele>331.0</ele><time>2026-04-11T11:34:14.966Z</time></trkpt><trkpt lat="42.0943564" lon="13.8754532"><ele>333.0</ele><time>2026-04-11T11:34:16.966Z</time></trkpt><trkpt lat="42.0940731" lon="13.875408"><ele>333.3333333333333</ele><time>2026-04-11T11:34:18.966Z</time></trkpt><trkpt lat="42.0939251" lon="13.8754042"><ele>333.66666666666663</ele><time>2026-04-11T11:34:19.966Z</time></trkpt><trkpt lat="42.0936284" lon="13.8754209"><ele>334.0</ele><time>2026-04-11T11:34:21.966Z</time></trkpt><trkpt lat="42.0933337" lon="13.8754595"><ele>335.0</ele><time>2026-04-11T11:34:23.966Z</time></trkpt><trkpt lat="42.0932017" lon="13.8754954"><ele>336.0</ele><time>2026-04-11T11:34:24.966Z</time></trkpt><trkpt lat="42.0930766" lon="13.8755211"><ele>337.0</ele><time>2026-04-11T11:34:25.966Z</time></trkpt><trkpt lat="42.0929599" lon="13.8755499"><ele>338.0</ele><time>2026-04-11T11:34:26.966Z</time></trkpt><trkpt lat="42.0928472" lon="13.8755737"><ele>338.0</ele><time>2026-04-11T11:34:27.966Z</time></trkpt><trkpt lat="42.0927432" lon="13.8755982"><ele>338.0</ele><time>2026-04-11T11:34:28.966Z</time></trkpt><trkpt lat="42.0926449" lon="13.8756147"><ele>338.0</ele><time>2026-04-11T11:34:29.966Z</time></trkpt><trkpt lat="42.0924517" lon="13.8756492"><ele>338.0</ele><time>2026-04-11T11:34:31.966Z</time></trkpt><trkpt lat="42.0923602" lon="13.8756703"><ele>338.4</ele><time>2026-04-11T11:34:32.966Z</time></trkpt><trkpt lat="42.0922892" lon="13.8756654"><ele>338.79999999999995</ele><time>2026-04-11T11:34:33.966Z</time></trkpt><trkpt lat="42.0921937" lon="13.875617"><ele>339.2</ele><time>2026-04-11T11:34:35.966Z</time></trkpt><trkpt lat="42.0921324" lon="13.8755439"><ele>339.6</ele><time>2026-04-11T11:34:38.966Z</time></trkpt><trkpt lat="42.0919691" lon="13.8755691"><ele>340.0</ele><time>2026-04-11T11:34:41.965Z</time></trkpt><trkpt lat="42.0919005" lon="13.8755966"><ele>340.0</ele><time>2026-04-11T11:34:42.966Z</time></trkpt><trkpt lat="42.0918297" lon="13.8756204"><ele>340.0</ele><time>2026-04-11T11:34:43.966Z</time></trkpt><trkpt lat="42.0917552" lon="13.875641"><ele>340.0</ele><time>2026-04-11T11:34:44.966Z</time></trkpt><trkpt lat="42.0916922" lon="13.8756641"><ele>340.0</ele><time>2026-04-11T11:34:45.966Z</time></trkpt><trkpt lat="42.0915442" lon="13.8756873"><ele>340.0</ele><time>2026-04-11T11:34:48.966Z</time></trkpt><trkpt lat="42.0915235" lon="13.8755411"><ele>340.0</ele><time>2026-04-11T11:34:51.966Z</time></trkpt><trkpt lat="42.0915429" lon="13.8754572"><ele>340.0</ele><time>2026-04-11T11:34:52.966Z</time></trkpt><trkpt lat="42.0915655" lon="13.8753667"><ele>340.0</ele><time>2026-04-11T11:34:53.966Z</time></trkpt><trkpt lat="42.0916027" lon="13.8751821"><ele>340.0</ele><time>2026-04-11T11:34:55.965Z</time></trkpt><trkpt lat="42.0916381" lon="13.8750769"><ele>340.0</ele><time>2026-04-11T11:34:56.966Z</time></trkpt><trkpt lat="42.0916736" lon="13.8749763"><ele>340.0</ele><time>2026-04-11T11:34:57.965Z</time></trkpt><trkpt lat="42.0917425" lon="13.874757"><ele>340.5</ele><time>2026-04-11T11:34:59.966Z</time></trkpt><trkpt lat="42.0917782" lon="13.8746379"><ele>341.0</ele><time>2026-04-11T11:35:00.966Z</time></trkpt><trkpt lat="42.0918151" lon="13.8745073"><ele>341.5</ele><time>2026-04-11T11:35:01.966Z</time></trkpt><trkpt lat="42.0918988" lon="13.8742263"><ele>342.0</ele><time>2026-04-11T11:35:03.966Z</time></trkpt><trkpt lat="42.0919348" lon="13.8740844"><ele>342.0</ele><time>2026-04-11T11:35:04.966Z</time></trkpt><trkpt lat="42.0919696" lon="13.8739583"><ele>342.0</ele><time>2026-04-11T11:35:05.966Z</time></trkpt><trkpt lat="42.0920011" lon="13.8738408"><ele>342.0</ele><time>2026-04-11T11:35:06.966Z</time></trkpt><trkpt lat="42.0920327" lon="13.8737439"><ele>342.0</ele><time>2026-04-11T11:35:07.966Z</time></trkpt><trkpt lat="42.0920754" lon="13.8735982"><ele>342.0</ele><time>2026-04-11T11:35:09.966Z</time></trkpt><trkpt lat="42.0921035" lon="13.8735086"><ele>342.0</ele><time>2026-04-11T11:35:11.966Z</time></trkpt><trkpt lat="42.092134" lon="13.873397"><ele>342.0</ele><time>2026-04-11T11:35:24.966Z</time></trkpt><trkpt lat="42.0921766" lon="13.8732521"><ele>342.0</ele><time>2026-04-11T11:35:26.966Z</time></trkpt><trkpt lat="42.092217" lon="13.8730755"><ele>342.0</ele><time>2026-04-11T11:35:28.966Z</time></trkpt><trkpt lat="42.092244" lon="13.8729632"><ele>342.0</ele><time>2026-04-11T11:35:29.966Z</time></trkpt><trkpt lat="42.0922751" lon="13.8728468"><ele>342.0</ele><time>2026-04-11T11:35:30.966Z</time></trkpt><trkpt lat="42.0923076" lon="13.8727247"><ele>342.0</ele><time>2026-04-11T11:35:31.966Z</time></trkpt><trkpt lat="42.0923432" lon="13.8725978"><ele>342.0</ele><time>2026-04-11T11:35:32.966Z</time></trkpt><trkpt lat="42.0923807" lon="13.8724652"><ele>342.0</ele><time>2026-04-11T11:35:33.966Z</time></trkpt><trkpt lat="42.0924189" lon="13.8723288"><ele>342.0</ele><time>2026-04-11T11:35:34.966Z</time></trkpt><trkpt lat="42.0924552" lon="13.8721965"><ele>341.8</ele><time>2026-04-11T11:35:35.966Z</time></trkpt><trkpt lat="42.0925032" lon="13.8720424"><ele>341.6</ele><time>2026-04-11T11:35:36.966Z</time></trkpt><trkpt lat="42.0925485" lon="13.8719291"><ele>341.40000000000003</ele><time>2026-04-11T11:35:37.966Z</time></trkpt><trkpt lat="42.0925863" lon="13.8718238"><ele>341.20000000000005</ele><time>2026-04-11T11:35:38.966Z</time></trkpt><trkpt lat="42.0926288" lon="13.8717186"><ele>341.0</ele><time>2026-04-11T11:35:39.966Z</time></trkpt><trkpt lat="42.0926616" lon="13.8716391"><ele>340.33333333333337</ele><time>2026-04-11T11:35:40.966Z</time></trkpt><trkpt lat="42.0927003" lon="13.8715433"><ele>339.6666666666667</ele><time>2026-04-11T11:35:41.966Z</time></trkpt><trkpt lat="42.0927328" lon="13.8714573"><ele>339.0</ele><time>2026-04-11T11:35:42.966Z</time></trkpt><trkpt lat="42.0927659" lon="13.871371"><ele>338.3333333333333</ele><time>2026-04-11T11:35:43.966Z</time></trkpt><trkpt lat="42.0928081" lon="13.8712655"><ele>337.66666666666663</ele><time>2026-04-11T11:35:44.966Z</time></trkpt><trkpt lat="42.0928503" lon="13.8711673"><ele>337.0</ele><time>2026-04-11T11:35:45.966Z</time></trkpt><trkpt lat="42.0929059" lon="13.871062"><ele>337.0</ele><time>2026-04-11T11:35:46.966Z</time></trkpt><trkpt lat="42.0929697" lon="13.8709557"><ele>337.0</ele><time>2026-04-11T11:35:47.966Z</time></trkpt><trkpt lat="42.0930252" lon="13.870867"><ele>337.0</ele><time>2026-04-11T11:35:48.966Z</time></trkpt><trkpt lat="42.0930872" lon="13.8707729"><ele>337.0</ele><time>2026-04-11T11:35:49.965Z</time></trkpt><trkpt lat="42.0931481" lon="13.8706874"><ele>337.0</ele><time>2026-04-11T11:35:50.965Z</time></trkpt><trkpt lat="42.0932038" lon="13.8706081"><ele>336.0</ele><time>2026-04-11T11:35:51.966Z</time></trkpt><trkpt lat="42.0932635" lon="13.8705208"><ele>335.0</ele><time>2026-04-11T11:35:52.965Z</time></trkpt><trkpt lat="42.0933184" lon="13.8704504"><ele>334.0</ele><time>2026-04-11T11:35:53.966Z</time></trkpt><trkpt lat="42.0934102" lon="13.8703766"><ele>333.0</ele><time>2026-04-11T11:35:55.966Z</time></trkpt><trkpt lat="42.093516" lon="13.8703851"><ele>332.0</ele><time>2026-04-11T11:35:57.966Z</time></trkpt><trkpt lat="42.093571" lon="13.8704623"><ele>332.0</ele><time>2026-04-11T11:35:58.966Z</time></trkpt><trkpt lat="42.0936292" lon="13.8705283"><ele>332.0</ele><time>2026-04-11T11:35:59.966Z</time></trkpt><trkpt lat="42.0937079" lon="13.8706155"><ele>332.0</ele><time>2026-04-11T11:36:00.966Z</time></trkpt><trkpt lat="42.0937839" lon="13.8706954"><ele>332.0</ele><time>2026-04-11T11:36:01.966Z</time></trkpt><trkpt lat="42.093873" lon="13.8707845"><ele>332.0</ele><time>2026-04-11T11:36:02.966Z</time></trkpt><trkpt lat="42.0939804" lon="13.8708893"><ele>332.6</ele><time>2026-04-11T11:36:03.965Z</time></trkpt><trkpt lat="42.0940699" lon="13.8709745"><ele>333.20000000000005</ele><time>2026-04-11T11:36:04.966Z</time></trkpt><trkpt lat="42.0941606" lon="13.8710592"><ele>333.8</ele><time>2026-04-11T11:36:05.966Z</time></trkpt><trkpt lat="42.0942489" lon="13.8711461"><ele>334.4</ele><time>2026-04-11T11:36:06.966Z</time></trkpt><trkpt lat="42.0943194" lon="13.8712171"><ele>335.0</ele><time>2026-04-11T11:36:07.966Z</time></trkpt><trkpt lat="42.0943951" lon="13.8712939"><ele>335.0</ele><time>2026-04-11T11:36:08.966Z</time></trkpt><trkpt lat="42.0944629" lon="13.871358"><ele>335.0</ele><time>2026-04-11T11:36:09.966Z</time></trkpt><trkpt lat="42.0945212" lon="13.8714115"><ele>335.0</ele><time>2026-04-11T11:36:10.966Z</time></trkpt><trkpt lat="42.0945829" lon="13.8714787"><ele>335.0</ele><time>2026-04-11T11:36:11.966Z</time></trkpt><trkpt lat="42.0946383" lon="13.8715352"><ele>335.0</ele><time>2026-04-11T11:36:12.966Z</time></trkpt><trkpt lat="42.0947041" lon="13.8716003"><ele>335.0</ele><time>2026-04-11T11:36:13.966Z</time></trkpt><trkpt lat="42.0947667" lon="13.8716639"><ele>335.0</ele><time>2026-04-11T11:36:14.966Z</time></trkpt><trkpt lat="42.0948278" lon="13.8717261"><ele>335.0</ele><time>2026-04-11T11:36:15.966Z</time></trkpt><trkpt lat="42.0948931" lon="13.8717901"><ele>335.0</ele><time>2026-04-11T11:36:16.966Z</time></trkpt><trkpt lat="42.0949477" lon="13.871842"><ele>335.0</ele><time>2026-04-11T11:36:17.965Z</time></trkpt><trkpt lat="42.0950021" lon="13.8718899"><ele>335.0</ele><time>2026-04-11T11:36:18.966Z</time></trkpt><trkpt lat="42.0950898" lon="13.8719514"><ele>335.0</ele><time>2026-04-11T11:36:20.966Z</time></trkpt><trkpt lat="42.0951742" lon="13.8719343"><ele>334.6</ele><time>2026-04-11T11:36:22.966Z</time></trkpt><trkpt lat="42.0952421" lon="13.8718249"><ele>334.2</ele><time>2026-04-11T11:36:24.966Z</time></trkpt><trkpt lat="42.0952868" lon="13.8717617"><ele>333.79999999999995</ele><time>2026-04-11T11:36:25.966Z</time></trkpt><trkpt lat="42.0953973" lon="13.8716948"><ele>333.4</ele><time>2026-04-11T11:36:27.966Z</time></trkpt><trkpt lat="42.0955299" lon="13.8717548"><ele>333.0</ele><time>2026-04-11T11:36:29.966Z</time></trkpt><trkpt lat="42.0956185" lon="13.8718072"><ele>333.0</ele><time>2026-04-11T11:36:30.966Z</time></trkpt><trkpt lat="42.0957064" lon="13.8718583"><ele>333.0</ele><time>2026-04-11T11:36:31.966Z</time></trkpt><trkpt lat="42.0958144" lon="13.8719212"><ele>333.0</ele><time>2026-04-11T11:36:32.966Z</time></trkpt><trkpt lat="42.0959089" lon="13.8719898"><ele>333.0</ele><time>2026-04-11T11:36:33.966Z</time></trkpt><trkpt lat="42.0960167" lon="13.872058"><ele>333.0</ele><time>2026-04-11T11:36:34.966Z</time></trkpt><trkpt lat="42.0961338" lon="13.8721301"><ele>331.75</ele><time>2026-04-11T11:36:35.966Z</time></trkpt><trkpt lat="42.096244" lon="13.8721953"><ele>330.5</ele><time>2026-04-11T11:36:36.966Z</time></trkpt><trkpt lat="42.0963673" lon="13.8722673"><ele>329.25</ele><time>2026-04-11T11:36:37.966Z</time></trkpt><trkpt lat="42.0964804" lon="13.8723392"><ele>328.0</ele><time>2026-04-11T11:36:38.966Z</time></trkpt><trkpt lat="42.0965823" lon="13.8723923"><ele>325.79999999999995</ele><time>2026-04-11T11:36:39.966Z</time></trkpt><trkpt lat="42.0966825" lon="13.8724428"><ele>323.59999999999997</ele><time>2026-04-11T11:36:40.966Z</time></trkpt><trkpt lat="42.0967596" lon="13.8724809"><ele>321.4</ele><time>2026-04-11T11:36:41.966Z</time></trkpt><trkpt lat="42.0968851" lon="13.87254"><ele>319.2</ele><time>2026-04-11T11:36:43.966Z</time></trkpt><trkpt lat="42.0969489" lon="13.8725912"><ele>317.0</ele><time>2026-04-11T11:36:44.966Z</time></trkpt><trkpt lat="42.0970902" lon="13.8725639"><ele>317.0</ele><time>2026-04-11T11:36:46.966Z</time></trkpt><trkpt lat="42.0971617" lon="13.8725415"><ele>317.0</ele><time>2026-04-11T11:36:47.966Z</time></trkpt><trkpt lat="42.097247" lon="13.8725107"><ele>317.0</ele><time>2026-04-11T11:36:48.965Z</time></trkpt><trkpt lat="42.0973293" lon="13.8724762"><ele>317.0</ele><time>2026-04-11T11:36:49.966Z</time></trkpt><trkpt lat="42.0974205" lon="13.8724367"><ele>317.0</ele><time>2026-04-11T11:36:50.966Z</time></trkpt><trkpt lat="42.0975232" lon="13.8723907"><ele>315.2</ele><time>2026-04-11T11:36:51.966Z</time></trkpt><trkpt lat="42.0976145" lon="13.8723464"><ele>313.4</ele><time>2026-04-11T11:36:52.966Z</time></trkpt><trkpt lat="42.0977207" lon="13.8722965"><ele>311.6</ele><time>2026-04-11T11:36:53.966Z</time></trkpt><trkpt lat="42.0978249" lon="13.8722504"><ele>309.8</ele><time>2026-04-11T11:36:54.966Z</time></trkpt><trkpt lat="42.0979174" lon="13.872207"><ele>308.0</ele><time>2026-04-11T11:36:55.965Z</time></trkpt><trkpt lat="42.0980137" lon="13.8721612"><ele>308.0</ele><time>2026-04-11T11:36:56.966Z</time></trkpt><trkpt lat="42.0980909" lon="13.8721187"><ele>308.0</ele><time>2026-04-11T11:36:57.966Z</time></trkpt><trkpt lat="42.0981911" lon="13.8720246"><ele>308.0</ele><time>2026-04-11T11:36:59.966Z</time></trkpt><trkpt lat="42.0982236" lon="13.8719453"><ele>308.0</ele><time>2026-04-11T11:37:01.966Z</time></trkpt><trkpt lat="42.0981895" lon="13.8718665"><ele>308.0</ele><time>2026-04-11T11:37:03.966Z</time></trkpt><trkpt lat="42.0981636" lon="13.8717707"><ele>308.0</ele><time>2026-04-11T11:37:05.966Z</time></trkpt><trkpt lat="42.0982063" lon="13.8716798"><ele>306.2</ele><time>2026-04-11T11:37:07.966Z</time></trkpt><trkpt lat="42.098321" lon="13.8716513"><ele>304.4</ele><time>2026-04-11T11:37:09.966Z</time></trkpt><trkpt lat="42.0984071" lon="13.8716588"><ele>302.59999999999997</ele><time>2026-04-11T11:37:10.966Z</time></trkpt><trkpt lat="42.0985071" lon="13.87167"><ele>300.8</ele><time>2026-04-11T11:37:11.966Z</time></trkpt><trkpt lat="42.098622" lon="13.8716816"><ele>299.0</ele><time>2026-04-11T11:37:12.965Z</time></trkpt><trkpt lat="42.0987395" lon="13.8716783"><ele>299.0</ele><time>2026-04-11T11:37:13.966Z</time></trkpt><trkpt lat="42.0988486" lon="13.8716611"><ele>299.0</ele><time>2026-04-11T11:37:14.965Z</time></trkpt><trkpt lat="42.0989633" lon="13.8716345"><ele>299.0</ele><time>2026-04-11T11:37:15.966Z</time></trkpt><trkpt lat="42.0990659" lon="13.8716004"><ele>299.0</ele><time>2026-04-11T11:37:16.966Z</time></trkpt><trkpt lat="42.0991729" lon="13.8715582"><ele>299.0</ele><time>2026-04-11T11:37:17.966Z</time></trkpt><trkpt lat="42.0992442" lon="13.8715218"><ele>298.25</ele><time>2026-04-11T11:37:18.966Z</time></trkpt><trkpt lat="42.099352" lon="13.8714701"><ele>297.5</ele><time>2026-04-11T11:37:19.966Z</time></trkpt><trkpt lat="42.0994718" lon="13.8714268"><ele>296.75</ele><time>2026-04-11T11:37:20.966Z</time></trkpt><trkpt lat="42.0995765" lon="13.8713956"><ele>296.0</ele><time>2026-04-11T11:37:21.966Z</time></trkpt><trkpt lat="42.0996869" lon="13.8713807"><ele>296.0</ele><time>2026-04-11T11:37:22.966Z</time></trkpt><trkpt lat="42.0997974" lon="13.8713862"><ele>296.0</ele><time>2026-04-11T11:37:23.966Z</time></trkpt><trkpt lat="42.0998859" lon="13.8714014"><ele>296.0</ele><time>2026-04-11T11:37:24.966Z</time></trkpt><trkpt lat="42.0999701" lon="13.8714264"><ele>296.0</ele><time>2026-04-11T11:37:25.966Z</time></trkpt><trkpt lat="42.1000511" lon="13.8714566"><ele>296.0</ele><time>2026-04-11T11:37:26.966Z</time></trkpt><trkpt lat="42.1001164" lon="13.8714834"><ele>296.0</ele><time>2026-04-11T11:37:27.966Z</time></trkpt><trkpt lat="42.1001863" lon="13.8715161"><ele>296.0</ele><time>2026-04-11T11:37:28.965Z</time></trkpt><trkpt lat="42.1002474" lon="13.8715423"><ele>296.0</ele><time>2026-04-11T11:37:29.966Z</time></trkpt><trkpt lat="42.1003586" lon="13.8715822"><ele>296.0</ele><time>2026-04-11T11:37:31.966Z</time></trkpt><trkpt lat="42.100452" lon="13.8716151"><ele>296.0</ele><time>2026-04-11T11:37:33.966Z</time></trkpt><trkpt lat="42.10052" lon="13.8716518"><ele>296.0</ele><time>2026-04-11T11:37:35.966Z</time></trkpt><trkpt lat="42.1005833" lon="13.8716767"><ele>296.0</ele><time>2026-04-11T11:37:37.966Z</time></trkpt><trkpt lat="42.1006557" lon="13.871703"><ele>296.0</ele><time>2026-04-11T11:37:41.965Z</time></trkpt><trkpt lat="42.1007388" lon="13.8716474"><ele>296.0</ele><time>2026-04-11T11:37:48.966Z</time></trkpt><trkpt lat="42.1007788" lon="13.8714977"><ele>296.0</ele><time>2026-04-11T11:37:50.966Z</time></trkpt><trkpt lat="42.1008062" lon="13.8713258"><ele>296.0</ele><time>2026-04-11T11:37:52.966Z</time></trkpt><trkpt lat="42.1008221" lon="13.8712395"><ele>296.0</ele><time>2026-04-11T11:37:53.966Z</time></trkpt><trkpt lat="42.1008392" lon="13.8711425"><ele>295.83333333333337</ele><time>2026-04-11T11:37:54.966Z</time></trkpt><trkpt lat="42.1008587" lon="13.8710349"><ele>295.6666666666667</ele><time>2026-04-11T11:37:55.966Z</time></trkpt><trkpt lat="42.1008758" lon="13.8709433"><ele>295.5</ele><time>2026-04-11T11:37:56.966Z</time></trkpt><trkpt lat="42.1008919" lon="13.8708553"><ele>295.3333333333333</ele><time>2026-04-11T11:37:57.966Z</time></trkpt><trkpt lat="42.1009213" lon="13.8707236"><ele>295.16666666666663</ele><time>2026-04-11T11:37:59.966Z</time></trkpt><trkpt lat="42.1009611" lon="13.8706101"><ele>295.0</ele><time>2026-04-11T11:38:01.966Z</time></trkpt><trkpt lat="42.1010284" lon="13.8705208"><ele>295.3333333333333</ele><time>2026-04-11T11:38:03.966Z</time></trkpt><trkpt lat="42.1011342" lon="13.8705033"><ele>295.66666666666663</ele><time>2026-04-11T11:38:05.966Z</time></trkpt><trkpt lat="42.101208" lon="13.8705254"><ele>296.0</ele><time>2026-04-11T11:38:06.966Z</time></trkpt><trkpt lat="42.1012708" lon="13.8705752"><ele>296.3333333333333</ele><time>2026-04-11T11:38:07.966Z</time></trkpt><trkpt lat="42.1013417" lon="13.8706619"><ele>296.6666666666667</ele><time>2026-04-11T11:38:08.966Z</time></trkpt><trkpt lat="42.1014047" lon="13.8707574"><ele>297.0</ele><time>2026-04-11T11:38:09.966Z</time></trkpt><trkpt lat="42.1014755" lon="13.8708652"><ele>296.5</ele><time>2026-04-11T11:38:10.966Z</time></trkpt><trkpt lat="42.101561" lon="13.8709836"><ele>296.0</ele><time>2026-04-11T11:38:11.966Z</time></trkpt><trkpt lat="42.101646" lon="13.8710848"><ele>295.5</ele><time>2026-04-11T11:38:12.966Z</time></trkpt><trkpt lat="42.1017485" lon="13.8711912"><ele>295.0</ele><time>2026-04-11T11:38:13.966Z</time></trkpt><trkpt lat="42.1018518" lon="13.8712857"><ele>295.0</ele><time>2026-04-11T11:38:14.966Z</time></trkpt><trkpt lat="42.1019506" lon="13.8713677"><ele>295.0</ele><time>2026-04-11T11:38:15.966Z</time></trkpt><trkpt lat="42.1020596" lon="13.8714555"><ele>295.0</ele><time>2026-04-11T11:38:16.966Z</time></trkpt><trkpt lat="42.1021588" lon="13.8715352"><ele>295.0</ele><time>2026-04-11T11:38:17.966Z</time></trkpt><trkpt lat="42.1022494" lon="13.871605"><ele>295.0</ele><time>2026-04-11T11:38:18.965Z</time></trkpt><trkpt lat="42.1023503" lon="13.871686"><ele>295.0</ele><time>2026-04-11T11:38:19.966Z</time></trkpt><trkpt lat="42.1024405" lon="13.8717582"><ele>295.0</ele><time>2026-04-11T11:38:20.966Z</time></trkpt><trkpt lat="42.1025392" lon="13.8718372"><ele>295.0</ele><time>2026-04-11T11:38:21.966Z</time></trkpt><trkpt lat="42.1026477" lon="13.871923"><ele>293.75</ele><time>2026-04-11T11:38:22.966Z</time></trkpt><trkpt lat="42.1027427" lon="13.8719994"><ele>292.5</ele><time>2026-04-11T11:38:23.966Z</time></trkpt><trkpt lat="42.1028513" lon="13.8720843"><ele>291.25</ele><time>2026-04-11T11:38:24.966Z</time></trkpt><trkpt lat="42.1029493" lon="13.8721601"><ele>290.0</ele><time>2026-04-11T11:38:25.965Z</time></trkpt><trkpt lat="42.1030554" lon="13.8722417"><ele>290.0</ele><time>2026-04-11T11:38:26.965Z</time></trkpt><trkpt lat="42.1031698" lon="13.8723282"><ele>290.0</ele><time>2026-04-11T11:38:27.965Z</time></trkpt><trkpt lat="42.1032696" lon="13.872406"><ele>290.0</ele><time>2026-04-11T11:38:28.965Z</time></trkpt><trkpt lat="42.1033816" lon="13.8724943"><ele>290.0</ele><time>2026-04-11T11:38:29.965Z</time></trkpt><trkpt lat="42.1034901" lon="13.8725807"><ele>289.25</ele><time>2026-04-11T11:38:30.966Z</time></trkpt><trkpt lat="42.103595" lon="13.8726638"><ele>288.5</ele><time>2026-04-11T11:38:31.966Z</time></trkpt><trkpt lat="42.1037177" lon="13.8727613"><ele>287.75</ele><time>2026-04-11T11:38:32.966Z</time></trkpt><trkpt lat="42.1038384" lon="13.872855"><ele>287.0</ele><time>2026-04-11T11:38:33.965Z</time></trkpt><trkpt lat="42.1039569" lon="13.8729478"><ele>286.5</ele><time>2026-04-11T11:38:34.966Z</time></trkpt><trkpt lat="42.1040819" lon="13.8730443"><ele>286.0</ele><time>2026-04-11T11:38:35.966Z</time></trkpt><trkpt lat="42.1041969" lon="13.873133"><ele>285.5</ele><time>2026-04-11T11:38:36.966Z</time></trkpt><trkpt lat="42.1043199" lon="13.8732298"><ele>285.0</ele><time>2026-04-11T11:38:37.966Z</time></trkpt><trkpt lat="42.1044513" lon="13.8733357"><ele>285.0</ele><time>2026-04-11T11:38:38.966Z</time></trkpt><trkpt lat="42.1045681" lon="13.87343"><ele>285.0</ele><time>2026-04-11T11:38:39.966Z</time></trkpt><trkpt lat="42.1046974" lon="13.8735324"><ele>285.0</ele><time>2026-04-11T11:38:40.966Z</time></trkpt><trkpt lat="42.1048086" lon="13.8736194"><ele>285.0</ele><time>2026-04-11T11:38:41.966Z</time></trkpt><trkpt lat="42.1049217" lon="13.8737074"><ele>285.0</ele><time>2026-04-11T11:38:42.966Z</time></trkpt><trkpt lat="42.1050355" lon="13.8737965"><ele>285.0</ele><time>2026-04-11T11:38:43.966Z</time></trkpt><trkpt lat="42.1051369" lon="13.8738744"><ele>285.0</ele><time>2026-04-11T11:38:44.966Z</time></trkpt><trkpt lat="42.1052319" lon="13.8739474"><ele>285.0</ele><time>2026-04-11T11:38:45.966Z</time></trkpt><trkpt lat="42.1053324" lon="13.8740231"><ele>285.0</ele><time>2026-04-11T11:38:46.966Z</time></trkpt><trkpt lat="42.10542" lon="13.8740911"><ele>285.0</ele><time>2026-04-11T11:38:47.966Z</time></trkpt><trkpt lat="42.1055143" lon="13.8741748"><ele>285.0</ele><time>2026-04-11T11:38:48.966Z</time></trkpt><trkpt lat="42.1055911" lon="13.8742623"><ele>285.0</ele><time>2026-04-11T11:38:49.966Z</time></trkpt><trkpt lat="42.1056591" lon="13.8743436"><ele>285.0</ele><time>2026-04-11T11:38:50.966Z</time></trkpt><trkpt lat="42.1057256" lon="13.8744302"><ele>284.7142857142857</ele><time>2026-04-11T11:38:51.966Z</time></trkpt><trkpt lat="42.1057773" lon="13.8745035"><ele>284.42857142857144</ele><time>2026-04-11T11:38:52.966Z</time></trkpt><trkpt lat="42.1058233" lon="13.8745822"><ele>284.14285714285717</ele><time>2026-04-11T11:38:53.966Z</time></trkpt><trkpt lat="42.1058637" lon="13.8746721"><ele>283.8571428571429</ele><time>2026-04-11T11:38:54.966Z</time></trkpt><trkpt lat="42.1058988" lon="13.8747571"><ele>283.5714285714286</ele><time>2026-04-11T11:38:55.966Z</time></trkpt><trkpt lat="42.1059466" lon="13.8748403"><ele>283.2857142857143</ele><time>2026-04-11T11:38:56.966Z</time></trkpt><trkpt lat="42.1060021" lon="13.8748891"><ele>283.0</ele><time>2026-04-11T11:38:57.966Z</time></trkpt><trkpt lat="42.1060766" lon="13.8749122"><ele>283.0</ele><time>2026-04-11T11:38:58.966Z</time></trkpt><trkpt lat="42.1061678" lon="13.8749133"><ele>283.0</ele><time>2026-04-11T11:38:59.966Z</time></trkpt><trkpt lat="42.1062575" lon="13.8749194"><ele>283.0</ele><time>2026-04-11T11:39:00.966Z</time></trkpt><trkpt lat="42.1063618" lon="13.874945"><ele>283.0</ele><time>2026-04-11T11:39:01.965Z</time></trkpt><trkpt lat="42.1064802" lon="13.874996"><ele>283.0</ele><time>2026-04-11T11:39:02.966Z</time></trkpt><trkpt lat="42.1065921" lon="13.8750598"><ele>282.5</ele><time>2026-04-11T11:39:03.965Z</time></trkpt><trkpt lat="42.1067254" lon="13.875143"><ele>282.0</ele><time>2026-04-11T11:39:04.966Z</time></trkpt><trkpt lat="42.1068475" lon="13.875227"><ele>281.5</ele><time>2026-04-11T11:39:05.966Z</time></trkpt><trkpt lat="42.1069575" lon="13.8753088"><ele>281.0</ele><time>2026-04-11T11:39:06.966Z</time></trkpt><trkpt lat="42.107081" lon="13.8754065"><ele>281.0</ele><time>2026-04-11T11:39:07.966Z</time></trkpt><trkpt lat="42.1071898" lon="13.8754914"><ele>281.0</ele><time>2026-04-11T11:39:08.966Z</time></trkpt><trkpt lat="42.1073059" lon="13.8755821"><ele>281.0</ele><time>2026-04-11T11:39:09.966Z</time></trkpt><trkpt lat="42.1074279" lon="13.8756783"><ele>281.0</ele><time>2026-04-11T11:39:10.966Z</time></trkpt><trkpt lat="42.107536" lon="13.8757636"><ele>281.25</ele><time>2026-04-11T11:39:11.966Z</time></trkpt><trkpt lat="42.1076626" lon="13.8758637"><ele>281.5</ele><time>2026-04-11T11:39:12.966Z</time></trkpt><trkpt lat="42.1077771" lon="13.8759536"><ele>281.75</ele><time>2026-04-11T11:39:13.966Z</time></trkpt><trkpt lat="42.107905" lon="13.876054"><ele>282.0</ele><time>2026-04-11T11:39:14.966Z</time></trkpt><trkpt lat="42.1080448" lon="13.8761638"><ele>282.0</ele><time>2026-04-11T11:39:15.966Z</time></trkpt><trkpt lat="42.10817" lon="13.876261"><ele>282.0</ele><time>2026-04-11T11:39:16.966Z</time></trkpt><trkpt lat="42.1083029" lon="13.8763648"><ele>282.0</ele><time>2026-04-11T11:39:17.966Z</time></trkpt><trkpt lat="42.1084426" lon="13.876476"><ele>282.75</ele><time>2026-04-11T11:39:18.966Z</time></trkpt><trkpt lat="42.1085594" lon="13.8765669"><ele>283.5</ele><time>2026-04-11T11:39:19.966Z</time></trkpt><trkpt lat="42.1086872" lon="13.8766639"><ele>284.25</ele><time>2026-04-11T11:39:20.965Z</time></trkpt><trkpt lat="42.1088006" lon="13.8767538"><ele>285.0</ele><time>2026-04-11T11:39:21.966Z</time></trkpt><trkpt lat="42.1089041" lon="13.8768362"><ele>284.75</ele><time>2026-04-11T11:39:22.965Z</time></trkpt><trkpt lat="42.1090181" lon="13.8769309"><ele>284.5</ele><time>2026-04-11T11:39:23.966Z</time></trkpt><trkpt lat="42.1091169" lon="13.8770142"><ele>284.25</ele><time>2026-04-11T11:39:24.966Z</time></trkpt><trkpt lat="42.1092248" lon="13.8771044"><ele>284.0</ele><time>2026-04-11T11:39:25.965Z</time></trkpt><trkpt lat="42.1093449" lon="13.8771997"><ele>284.0</ele><time>2026-04-11T11:39:26.966Z</time></trkpt><trkpt lat="42.1094532" lon="13.8772844"><ele>284.0</ele><time>2026-04-11T11:39:27.966Z</time></trkpt><trkpt lat="42.1095815" lon="13.8773747"><ele>284.0</ele><time>2026-04-11T11:39:28.966Z</time></trkpt><trkpt lat="42.1096992" lon="13.8774479"><ele>284.0</ele><time>2026-04-11T11:39:29.966Z</time></trkpt><trkpt lat="42.1098284" lon="13.8775175"><ele>284.0</ele><time>2026-04-11T11:39:30.966Z</time></trkpt><trkpt lat="42.109973" lon="13.8775831"><ele>284.0</ele><time>2026-04-11T11:39:31.966Z</time></trkpt><trkpt lat="42.1101048" lon="13.8776325"><ele>284.0</ele><time>2026-04-11T11:39:32.966Z</time></trkpt><trkpt lat="42.1102521" lon="13.877673"><ele>284.0</ele><time>2026-04-11T11:39:33.966Z</time></trkpt><trkpt lat="42.1104171" lon="13.8776986"><ele>284.0</ele><time>2026-04-11T11:39:34.966Z</time></trkpt><trkpt lat="42.1105675" lon="13.8777081"><ele>284.0</ele><time>2026-04-11T11:39:35.966Z</time></trkpt><trkpt lat="42.1107478" lon="13.8777099"><ele>284.0</ele><time>2026-04-11T11:39:36.966Z</time></trkpt><trkpt lat="42.1109247" lon="13.8777056"><ele>285.33333333333337</ele><time>2026-04-11T11:39:37.966Z</time></trkpt><trkpt lat="42.1110939" lon="13.877702"><ele>286.6666666666667</ele><time>2026-04-11T11:39:38.966Z</time></trkpt><trkpt lat="42.1112909" lon="13.8776999"><ele>288.0</ele><time>2026-04-11T11:39:39.966Z</time></trkpt><trkpt lat="42.1114606" lon="13.8776997"><ele>286.6666666666667</ele><time>2026-04-11T11:39:40.966Z</time></trkpt><trkpt lat="42.1116351" lon="13.8777025"><ele>285.33333333333337</ele><time>2026-04-11T11:39:41.966Z</time></trkpt><trkpt lat="42.1118203" lon="13.8777122"><ele>284.0</ele><time>2026-04-11T11:39:42.966Z</time></trkpt><trkpt lat="42.1119824" lon="13.8777369"><ele>284.0</ele><time>2026-04-11T11:39:43.966Z</time></trkpt><trkpt lat="42.1121659" lon="13.8777846"><ele>284.0</ele><time>2026-04-11T11:39:44.966Z</time></trkpt><trkpt lat="42.112326" lon="13.8778468"><ele>284.0</ele><time>2026-04-11T11:39:45.966Z</time></trkpt><trkpt lat="42.1124917" lon="13.8779352"><ele>281.5</ele><time>2026-04-11T11:39:46.966Z</time></trkpt><trkpt lat="42.1128011" lon="13.8781768"><ele>279.0</ele><time>2026-04-11T11:39:48.966Z</time></trkpt><trkpt lat="42.1129333" lon="13.8783268"><ele>279.6666666666667</ele><time>2026-04-11T11:39:49.965Z</time></trkpt><trkpt lat="42.1130396" lon="13.8785025"><ele>280.33333333333337</ele><time>2026-04-11T11:39:50.966Z</time></trkpt><trkpt lat="42.1131037" lon="13.8786703"><ele>281.0</ele><time>2026-04-11T11:39:51.966Z</time></trkpt><trkpt lat="42.1131404" lon="13.8788669"><ele>281.0</ele><time>2026-04-11T11:39:52.966Z</time></trkpt><trkpt lat="42.113141" lon="13.8790554"><ele>281.0</ele><time>2026-04-11T11:39:53.966Z</time></trkpt><trkpt lat="42.1130583" lon="13.8794186"><ele>281.0</ele><time>2026-04-11T11:39:55.966Z</time></trkpt><trkpt lat="42.1129804" lon="13.8795696"><ele>281.25</ele><time>2026-04-11T11:39:56.966Z</time></trkpt><trkpt lat="42.1128742" lon="13.8797064"><ele>281.5</ele><time>2026-04-11T11:39:57.966Z</time></trkpt><trkpt lat="42.1127351" lon="13.8798172"><ele>281.75</ele><time>2026-04-11T11:39:58.966Z</time></trkpt><trkpt lat="42.1126015" lon="13.8798769"><ele>282.0</ele><time>2026-04-11T11:39:59.966Z</time></trkpt><trkpt lat="42.1124439" lon="13.8798989"><ele>282.75</ele><time>2026-04-11T11:40:00.966Z</time></trkpt><trkpt lat="42.1123053" lon="13.8798741"><ele>283.5</ele><time>2026-04-11T11:40:01.966Z</time></trkpt><trkpt lat="42.1121746" lon="13.8798072"><ele>284.25</ele><time>2026-04-11T11:40:02.966Z</time></trkpt><trkpt lat="42.112061" lon="13.8796941"><ele>285.0</ele><time>2026-04-11T11:40:03.965Z</time></trkpt><trkpt lat="42.1119903" lon="13.8795668"><ele>285.0</ele><time>2026-04-11T11:40:04.966Z</time></trkpt><trkpt lat="42.1119477" lon="13.8794119"><ele>285.0</ele><time>2026-04-11T11:40:05.965Z</time></trkpt><trkpt lat="42.1119439" lon="13.879234"><ele>285.0</ele><time>2026-04-11T11:40:06.966Z</time></trkpt><trkpt lat="42.1119779" lon="13.879086"><ele>285.0</ele><time>2026-04-11T11:40:07.966Z</time></trkpt><trkpt lat="42.1120505" lon="13.8789409"><ele>285.75</ele><time>2026-04-11T11:40:08.966Z</time></trkpt><trkpt lat="42.1121498" lon="13.8788408"><ele>286.5</ele><time>2026-04-11T11:40:09.966Z</time></trkpt><trkpt lat="42.1122651" lon="13.8787862"><ele>287.25</ele><time>2026-04-11T11:40:10.965Z</time></trkpt><trkpt lat="42.1124159" lon="13.8787403"><ele>288.0</ele><time>2026-04-11T11:40:11.966Z</time></trkpt><trkpt lat="42.1125677" lon="13.8787075"><ele>285.6666666666667</ele><time>2026-04-11T11:40:12.966Z</time></trkpt><trkpt lat="42.1127398" lon="13.8786692"><ele>283.33333333333337</ele><time>2026-04-11T11:40:13.966Z</time></trkpt><trkpt lat="42.1129251" lon="13.8786315"><ele>281.0</ele><time>2026-04-11T11:40:14.966Z</time></trkpt><trkpt lat="42.1130919" lon="13.8786057"><ele>280.0</ele><time>2026-04-11T11:40:15.966Z</time></trkpt><trkpt lat="42.1132842" lon="13.87858"><ele>279.0</ele><time>2026-04-11T11:40:16.966Z</time></trkpt><trkpt lat="42.1134546" lon="13.878559"><ele>278.0</ele><time>2026-04-11T11:40:17.966Z</time></trkpt><trkpt lat="42.1136365" lon="13.8785385"><ele>278.0</ele><time>2026-04-11T11:40:18.966Z</time></trkpt><trkpt lat="42.113828" lon="13.87851"><ele>278.0</ele><time>2026-04-11T11:40:19.966Z</time></trkpt><trkpt lat="42.1139942" lon="13.8784807"><ele>278.0</ele><time>2026-04-11T11:40:20.965Z</time></trkpt><trkpt lat="42.114164" lon="13.8784468"><ele>277.75</ele><time>2026-04-11T11:40:21.966Z</time></trkpt><trkpt lat="42.1143308" lon="13.8784083"><ele>277.5</ele><time>2026-04-11T11:40:22.965Z</time></trkpt><trkpt lat="42.1144642" lon="13.8783712"><ele>277.25</ele><time>2026-04-11T11:40:23.966Z</time></trkpt><trkpt lat="42.1145936" lon="13.8783331"><ele>277.0</ele><time>2026-04-11T11:40:24.966Z</time></trkpt><trkpt lat="42.1147176" lon="13.878296"><ele>277.0</ele><time>2026-04-11T11:40:25.966Z</time></trkpt><trkpt lat="42.114819" lon="13.8782699"><ele>277.0</ele><time>2026-04-11T11:40:26.966Z</time></trkpt><trkpt lat="42.1149278" lon="13.8782469"><ele>277.0</ele><time>2026-04-11T11:40:27.966Z</time></trkpt><trkpt lat="42.1150189" lon="13.8782428"><ele>277.0</ele><time>2026-04-11T11:40:28.966Z</time></trkpt><trkpt lat="42.1151111" lon="13.8782515"><ele>277.0</ele><time>2026-04-11T11:40:29.965Z</time></trkpt><trkpt lat="42.1152046" lon="13.8782506"><ele>277.2</ele><time>2026-04-11T11:40:30.966Z</time></trkpt><trkpt lat="42.1152785" lon="13.8782193"><ele>277.4</ele><time>2026-04-11T11:40:31.966Z</time></trkpt><trkpt lat="42.1153558" lon="13.8781442"><ele>277.6</ele><time>2026-04-11T11:40:32.966Z</time></trkpt><trkpt lat="42.1154262" lon="13.8780533"><ele>277.8</ele><time>2026-04-11T11:40:33.966Z</time></trkpt><trkpt lat="42.1155154" lon="13.8779504"><ele>278.0</ele><time>2026-04-11T11:40:34.966Z</time></trkpt><trkpt lat="42.1156301" lon="13.8778458"><ele>278.33333333333337</ele><time>2026-04-11T11:40:35.966Z</time></trkpt><trkpt lat="42.115745" lon="13.8777597"><ele>278.6666666666667</ele><time>2026-04-11T11:40:36.965Z</time></trkpt><trkpt lat="42.1158825" lon="13.8776694"><ele>279.0</ele><time>2026-04-11T11:40:37.966Z</time></trkpt><trkpt lat="42.1160419" lon="13.8775741"><ele>279.0</ele><time>2026-04-11T11:40:38.966Z</time></trkpt><trkpt lat="42.1161914" lon="13.8774893"><ele>279.0</ele><time>2026-04-11T11:40:39.966Z</time></trkpt><trkpt lat="42.1163572" lon="13.8773949"><ele>279.0</ele><time>2026-04-11T11:40:40.966Z</time></trkpt><trkpt lat="42.116532" lon="13.8772941"><ele>279.3333333333333</ele><time>2026-04-11T11:40:41.966Z</time></trkpt><trkpt lat="42.1166878" lon="13.8772029"><ele>279.66666666666663</ele><time>2026-04-11T11:40:42.966Z</time></trkpt><trkpt lat="42.1168685" lon="13.8770959"><ele>280.0</ele><time>2026-04-11T11:40:43.966Z</time></trkpt><trkpt lat="42.1170285" lon="13.8769985"><ele>280.0</ele><time>2026-04-11T11:40:44.966Z</time></trkpt><trkpt lat="42.1171998" lon="13.8768938"><ele>280.0</ele><time>2026-04-11T11:40:45.966Z</time></trkpt><trkpt lat="42.1173778" lon="13.8767861"><ele>280.0</ele><time>2026-04-11T11:40:46.966Z</time></trkpt><trkpt lat="42.1175276" lon="13.8766971"><ele>278.66666666666663</ele><time>2026-04-11T11:40:47.966Z</time></trkpt><trkpt lat="42.1176909" lon="13.8765994"><ele>277.3333333333333</ele><time>2026-04-11T11:40:48.966Z</time></trkpt><trkpt lat="42.1178268" lon="13.8765148"><ele>276.0</ele><time>2026-04-11T11:40:49.966Z</time></trkpt><trkpt lat="42.117963" lon="13.8764259"><ele>276.0</ele><time>2026-04-11T11:40:50.966Z</time></trkpt><trkpt lat="42.1180995" lon="13.8763389"><ele>276.0</ele><time>2026-04-11T11:40:51.966Z</time></trkpt><trkpt lat="42.1182082" lon="13.876273"><ele>276.0</ele><time>2026-04-11T11:40:52.966Z</time></trkpt><trkpt lat="42.1183164" lon="13.8762142"><ele>276.0</ele><time>2026-04-11T11:40:53.966Z</time></trkpt><trkpt lat="42.1184233" lon="13.8761764"><ele>275.40000000000003</ele><time>2026-04-11T11:40:54.965Z</time></trkpt><trkpt lat="42.1185141" lon="13.8761735"><ele>274.8</ele><time>2026-04-11T11:40:55.966Z</time></trkpt><trkpt lat="42.1186157" lon="13.8762008"><ele>274.20000000000005</ele><time>2026-04-11T11:40:56.966Z</time></trkpt><trkpt lat="42.118716" lon="13.8762335"><ele>273.6</ele><time>2026-04-11T11:40:57.966Z</time></trkpt><trkpt lat="42.1188111" lon="13.876243"><ele>273.0</ele><time>2026-04-11T11:40:58.966Z</time></trkpt><trkpt lat="42.1189207" lon="13.8762157"><ele>273.0</ele><time>2026-04-11T11:40:59.966Z</time></trkpt><trkpt lat="42.1190097" lon="13.8761529"><ele>273.0</ele><time>2026-04-11T11:41:00.966Z</time></trkpt><trkpt lat="42.1190895" lon="13.8760465"><ele>273.0</ele><time>2026-04-11T11:41:01.966Z</time></trkpt><trkpt lat="42.1191604" lon="13.8759021"><ele>273.0</ele><time>2026-04-11T11:41:02.965Z</time></trkpt><trkpt lat="42.119235" lon="13.875768"><ele>273.3333333333333</ele><time>2026-04-11T11:41:03.966Z</time></trkpt><trkpt lat="42.1193605" lon="13.8756309"><ele>273.66666666666663</ele><time>2026-04-11T11:41:04.966Z</time></trkpt><trkpt lat="42.1194923" lon="13.8755519"><ele>274.0</ele><time>2026-04-11T11:41:05.966Z</time></trkpt><trkpt lat="42.1196657" lon="13.8754596"><ele>274.0</ele><time>2026-04-11T11:41:06.966Z</time></trkpt><trkpt lat="42.1198686" lon="13.8753537"><ele>274.0</ele><time>2026-04-11T11:41:07.966Z</time></trkpt><trkpt lat="42.12005" lon="13.8752587"><ele>274.0</ele><time>2026-04-11T11:41:08.966Z</time></trkpt><trkpt lat="42.1202584" lon="13.875143"><ele>272.66666666666663</ele><time>2026-04-11T11:41:09.966Z</time></trkpt><trkpt lat="42.1204566" lon="13.8750272"><ele>271.3333333333333</ele><time>2026-04-11T11:41:10.966Z</time></trkpt><trkpt lat="42.1206427" lon="13.8749176"><ele>270.0</ele><time>2026-04-11T11:41:11.966Z</time></trkpt><trkpt lat="42.1208555" lon="13.8747936"><ele>270.0</ele><time>2026-04-11T11:41:12.966Z</time></trkpt><trkpt lat="42.1210512" lon="13.8746812"><ele>270.0</ele><time>2026-04-11T11:41:13.966Z</time></trkpt><trkpt lat="42.1212339" lon="13.8745772"><ele>270.0</ele><time>2026-04-11T11:41:14.966Z</time></trkpt><trkpt lat="42.121437" lon="13.8744577"><ele>269.6666666666667</ele><time>2026-04-11T11:41:15.966Z</time></trkpt><trkpt lat="42.1216178" lon="13.8743513"><ele>269.33333333333337</ele><time>2026-04-11T11:41:16.966Z</time></trkpt><trkpt lat="42.1218111" lon="13.8742379"><ele>269.0</ele><time>2026-04-11T11:41:17.966Z</time></trkpt><trkpt lat="42.1220161" lon="13.8741185"><ele>268.5</ele><time>2026-04-11T11:41:18.966Z</time></trkpt><trkpt lat="42.1223904" lon="13.8738998"><ele>268.0</ele><time>2026-04-11T11:41:20.966Z</time></trkpt><trkpt lat="42.1225622" lon="13.8738008"><ele>268.0</ele><time>2026-04-11T11:41:21.966Z</time></trkpt><trkpt lat="42.1227466" lon="13.8736938"><ele>268.0</ele><time>2026-04-11T11:41:22.966Z</time></trkpt><trkpt lat="42.1229485" lon="13.8735767"><ele>268.0</ele><time>2026-04-11T11:41:23.966Z</time></trkpt><trkpt lat="42.1231282" lon="13.8734728"><ele>268.0</ele><time>2026-04-11T11:41:24.966Z</time></trkpt><trkpt lat="42.1233244" lon="13.8733567"><ele>268.0</ele><time>2026-04-11T11:41:25.966Z</time></trkpt><trkpt lat="42.1235357" lon="13.8732317"><ele>268.0</ele><time>2026-04-11T11:41:26.965Z</time></trkpt><trkpt lat="42.1237261" lon="13.8731185"><ele>268.0</ele><time>2026-04-11T11:41:27.966Z</time></trkpt><trkpt lat="42.1239457" lon="13.8729877"><ele>268.0</ele><time>2026-04-11T11:41:28.966Z</time></trkpt><trkpt lat="42.1241527" lon="13.8728606"><ele>268.5</ele><time>2026-04-11T11:41:29.966Z</time></trkpt><trkpt lat="42.1243459" lon="13.8727362"><ele>269.0</ele><time>2026-04-11T11:41:30.966Z</time></trkpt><trkpt lat="42.1245573" lon="13.8725891"><ele>268.6666666666667</ele><time>2026-04-11T11:41:31.966Z</time></trkpt><trkpt lat="42.124742" lon="13.8724466"><ele>268.3333333333333</ele><time>2026-04-11T11:41:32.966Z</time></trkpt><trkpt lat="42.124933" lon="13.8722877"><ele>268.0</ele><time>2026-04-11T11:41:33.966Z</time></trkpt><trkpt lat="42.1251304" lon="13.8721112"><ele>268.0</ele><time>2026-04-11T11:41:34.966Z</time></trkpt><trkpt lat="42.1252993" lon="13.8719481"><ele>268.0</ele><time>2026-04-11T11:41:35.966Z</time></trkpt><trkpt lat="42.1254727" lon="13.8717674"><ele>268.0</ele><time>2026-04-11T11:41:36.966Z</time></trkpt><trkpt lat="42.1256382" lon="13.8715823"><ele>268.3333333333333</ele><time>2026-04-11T11:41:37.966Z</time></trkpt><trkpt lat="42.1257993" lon="13.8713899"><ele>268.6666666666667</ele><time>2026-04-11T11:41:38.966Z</time></trkpt><trkpt lat="42.1259633" lon="13.8711783"><ele>269.0</ele><time>2026-04-11T11:41:39.966Z</time></trkpt><trkpt lat="42.1260979" lon="13.87099"><ele>268.33333333333337</ele><time>2026-04-11T11:41:40.965Z</time></trkpt><trkpt lat="42.1262345" lon="13.8707833"><ele>267.6666666666667</ele><time>2026-04-11T11:41:41.966Z</time></trkpt><trkpt lat="42.1263728" lon="13.8705564"><ele>267.0</ele><time>2026-04-11T11:41:42.966Z</time></trkpt><trkpt lat="42.1264904" lon="13.8703449"><ele>268.6666666666667</ele><time>2026-04-11T11:41:43.966Z</time></trkpt><trkpt lat="42.12662" lon="13.8700936"><ele>270.33333333333337</ele><time>2026-04-11T11:41:44.966Z</time></trkpt><trkpt lat="42.1267356" lon="13.8698464"><ele>272.0</ele><time>2026-04-11T11:41:45.965Z</time></trkpt><trkpt lat="42.1268393" lon="13.8696078"><ele>272.0</ele><time>2026-04-11T11:41:46.966Z</time></trkpt><trkpt lat="42.1269546" lon="13.8693343"><ele>272.0</ele><time>2026-04-11T11:41:47.966Z</time></trkpt><trkpt lat="42.1270529" lon="13.8690935"><ele>272.0</ele><time>2026-04-11T11:41:48.966Z</time></trkpt><trkpt lat="42.12716" lon="13.8688323"><ele>272.0</ele><time>2026-04-11T11:41:49.966Z</time></trkpt><trkpt lat="42.1272751" lon="13.8685512"><ele>272.0</ele><time>2026-04-11T11:41:50.966Z</time></trkpt><trkpt lat="42.127379" lon="13.8683013"><ele>274.0</ele><time>2026-04-11T11:41:51.966Z</time></trkpt><trkpt lat="42.1274953" lon="13.8680132"><ele>276.0</ele><time>2026-04-11T11:41:52.966Z</time></trkpt><trkpt lat="42.1275966" lon="13.8677591"><ele>273.0</ele><time>2026-04-11T11:41:53.966Z</time></trkpt><trkpt lat="42.1277072" lon="13.8674823"><ele>270.0</ele><time>2026-04-11T11:41:54.966Z</time></trkpt><trkpt lat="42.1278311" lon="13.86719"><ele>270.0</ele><time>2026-04-11T11:41:55.966Z</time></trkpt><trkpt lat="42.1279469" lon="13.866936"><ele>270.0</ele><time>2026-04-11T11:41:56.966Z</time></trkpt><trkpt lat="42.1280782" lon="13.8666701"><ele>269.0</ele><time>2026-04-11T11:41:57.965Z</time></trkpt><trkpt lat="42.1282233" lon="13.86639"><ele>268.0</ele><time>2026-04-11T11:41:58.965Z</time></trkpt><trkpt lat="42.1283513" lon="13.8661457"><ele>269.5</ele><time>2026-04-11T11:41:59.966Z</time></trkpt><trkpt lat="42.1284989" lon="13.8658641"><ele>271.0</ele><time>2026-04-11T11:42:00.966Z</time></trkpt><trkpt lat="42.1286391" lon="13.8655992"><ele>271.0</ele><time>2026-04-11T11:42:01.966Z</time></trkpt><trkpt lat="42.1287703" lon="13.8653493"><ele>271.0</ele><time>2026-04-11T11:42:02.966Z</time></trkpt><trkpt lat="42.1289213" lon="13.8650636"><ele>271.5</ele><time>2026-04-11T11:42:03.965Z</time></trkpt><trkpt lat="42.1290567" lon="13.8648137"><ele>272.0</ele><time>2026-04-11T11:42:04.966Z</time></trkpt><trkpt lat="42.1292021" lon="13.8645501"><ele>272.5</ele><time>2026-04-11T11:42:05.966Z</time></trkpt><trkpt lat="42.1293625" lon="13.8642725"><ele>273.0</ele><time>2026-04-11T11:42:06.966Z</time></trkpt><trkpt lat="42.1295067" lon="13.8640361"><ele>273.0</ele><time>2026-04-11T11:42:07.966Z</time></trkpt><trkpt lat="42.1296773" lon="13.8637776"><ele>273.0</ele><time>2026-04-11T11:42:08.965Z</time></trkpt><trkpt lat="42.129835" lon="13.8635636"><ele>272.0</ele><time>2026-04-11T11:42:09.966Z</time></trkpt><trkpt lat="42.1300086" lon="13.8633476"><ele>271.0</ele><time>2026-04-11T11:42:10.965Z</time></trkpt><trkpt lat="42.1301979" lon="13.8631227"><ele>271.0</ele><time>2026-04-11T11:42:11.966Z</time></trkpt><trkpt lat="42.1303597" lon="13.8629325"><ele>271.0</ele><time>2026-04-11T11:42:12.966Z</time></trkpt><trkpt lat="42.1305255" lon="13.8627361"><ele>271.0</ele><time>2026-04-11T11:42:13.966Z</time></trkpt><trkpt lat="42.1306917" lon="13.8625353"><ele>271.3333333333333</ele><time>2026-04-11T11:42:14.966Z</time></trkpt><trkpt lat="42.1308312" lon="13.8623662"><ele>271.6666666666667</ele><time>2026-04-11T11:42:15.966Z</time></trkpt><trkpt lat="42.1309829" lon="13.8621837"><ele>272.0</ele><time>2026-04-11T11:42:16.966Z</time></trkpt><trkpt lat="42.1311224" lon="13.8620195"><ele>272.0</ele><time>2026-04-11T11:42:17.966Z</time></trkpt><trkpt lat="42.131247" lon="13.8618722"><ele>272.0</ele><time>2026-04-11T11:42:18.965Z</time></trkpt><trkpt lat="42.1313828" lon="13.8617117"><ele>272.0</ele><time>2026-04-11T11:42:19.966Z</time></trkpt><trkpt lat="42.1314982" lon="13.8615751"><ele>270.6666666666667</ele><time>2026-04-11T11:42:20.965Z</time></trkpt><trkpt lat="42.1316221" lon="13.8614307"><ele>269.3333333333333</ele><time>2026-04-11T11:42:21.966Z</time></trkpt><trkpt lat="42.1317563" lon="13.8612787"><ele>268.0</ele><time>2026-04-11T11:42:22.966Z</time></trkpt><trkpt lat="42.1318802" lon="13.8611416"><ele>268.0</ele><time>2026-04-11T11:42:23.966Z</time></trkpt><trkpt lat="42.1320265" lon="13.8609856"><ele>268.0</ele><time>2026-04-11T11:42:24.966Z</time></trkpt><trkpt lat="42.1321608" lon="13.8608481"><ele>268.0</ele><time>2026-04-11T11:42:25.966Z</time></trkpt><trkpt lat="42.1323094" lon="13.8607036"><ele>268.3333333333333</ele><time>2026-04-11T11:42:26.966Z</time></trkpt><trkpt lat="42.1324733" lon="13.8605548"><ele>268.6666666666667</ele><time>2026-04-11T11:42:27.966Z</time></trkpt><trkpt lat="42.1326244" lon="13.8604269"><ele>269.0</ele><time>2026-04-11T11:42:28.966Z</time></trkpt><trkpt lat="42.1327845" lon="13.8602996"><ele>269.0</ele><time>2026-04-11T11:42:29.966Z</time></trkpt><trkpt lat="42.1329526" lon="13.8601717"><ele>269.0</ele><time>2026-04-11T11:42:30.966Z</time></trkpt><trkpt lat="42.1331009" lon="13.860062"><ele>269.0</ele><time>2026-04-11T11:42:31.966Z</time></trkpt><trkpt lat="42.133255" lon="13.8599499"><ele>268.33333333333337</ele><time>2026-04-11T11:42:32.966Z</time></trkpt><trkpt lat="42.1334116" lon="13.859837"><ele>267.6666666666667</ele><time>2026-04-11T11:42:33.965Z</time></trkpt><trkpt lat="42.1335464" lon="13.859742"><ele>267.0</ele><time>2026-04-11T11:42:34.966Z</time></trkpt><trkpt lat="42.133695" lon="13.859642"><ele>267.0</ele><time>2026-04-11T11:42:35.966Z</time></trkpt><trkpt lat="42.1338222" lon="13.8595567"><ele>267.0</ele><time>2026-04-11T11:42:36.966Z</time></trkpt><trkpt lat="42.1339571" lon="13.859463"><ele>267.0</ele><time>2026-04-11T11:42:37.965Z</time></trkpt><trkpt lat="42.1340967" lon="13.8593591"><ele>267.0</ele><time>2026-04-11T11:42:38.966Z</time></trkpt><trkpt lat="42.1342161" lon="13.8592646"><ele>267.0</ele><time>2026-04-11T11:42:39.966Z</time></trkpt><trkpt lat="42.1343458" lon="13.8591569"><ele>267.0</ele><time>2026-04-11T11:42:40.966Z</time></trkpt><trkpt lat="42.1344557" lon="13.8590658"><ele>267.0</ele><time>2026-04-11T11:42:41.965Z</time></trkpt><trkpt lat="42.1345654" lon="13.8589759"><ele>267.0</ele><time>2026-04-11T11:42:42.966Z</time></trkpt><trkpt lat="42.1346778" lon="13.8588851"><ele>267.0</ele><time>2026-04-11T11:42:43.966Z</time></trkpt><trkpt lat="42.1347694" lon="13.8588125"><ele>267.0</ele><time>2026-04-11T11:42:44.966Z</time></trkpt><trkpt lat="42.1348601" lon="13.8587432"><ele>267.0</ele><time>2026-04-11T11:42:45.966Z</time></trkpt><trkpt lat="42.134948" lon="13.8586806"><ele>267.0</ele><time>2026-04-11T11:42:46.966Z</time></trkpt><trkpt lat="42.135022" lon="13.8586415"><ele>267.3333333333333</ele><time>2026-04-11T11:42:47.965Z</time></trkpt><trkpt lat="42.1351017" lon="13.8586207"><ele>267.6666666666667</ele><time>2026-04-11T11:42:48.966Z</time></trkpt><trkpt lat="42.1351894" lon="13.8586269"><ele>268.0</ele><time>2026-04-11T11:42:49.966Z</time></trkpt><trkpt lat="42.1352686" lon="13.8586469"><ele>268.33333333333337</ele><time>2026-04-11T11:42:50.966Z</time></trkpt><trkpt lat="42.13536" lon="13.8586695"><ele>268.6666666666667</ele><time>2026-04-11T11:42:51.966Z</time></trkpt><trkpt lat="42.1354457" lon="13.8586727"><ele>269.0</ele><time>2026-04-11T11:42:52.965Z</time></trkpt><trkpt lat="42.1355373" lon="13.85865"><ele>269.0</ele><time>2026-04-11T11:42:53.966Z</time></trkpt><trkpt lat="42.1356242" lon="13.8585927"><ele>269.0</ele><time>2026-04-11T11:42:54.966Z</time></trkpt><trkpt lat="42.1356853" lon="13.8585237"><ele>269.0</ele><time>2026-04-11T11:42:55.966Z</time></trkpt><trkpt lat="42.1357393" lon="13.8584362"><ele>269.0</ele><time>2026-04-11T11:42:56.966Z</time></trkpt><trkpt lat="42.1357833" lon="13.8583542"><ele>269.0</ele><time>2026-04-11T11:42:57.966Z</time></trkpt><trkpt lat="42.1358387" lon="13.858271"><ele>269.0</ele><time>2026-04-11T11:42:58.966Z</time></trkpt><trkpt lat="42.135911" lon="13.8582114"><ele>268.75</ele><time>2026-04-11T11:42:59.966Z</time></trkpt><trkpt lat="42.1359908" lon="13.8581819"><ele>268.5</ele><time>2026-04-11T11:43:00.966Z</time></trkpt><trkpt lat="42.1361003" lon="13.8581579"><ele>268.25</ele><time>2026-04-11T11:43:01.966Z</time></trkpt><trkpt lat="42.1362557" lon="13.8581316"><ele>268.0</ele><time>2026-04-11T11:43:02.966Z</time></trkpt><trkpt lat="42.1364154" lon="13.8580973"><ele>270.0</ele><time>2026-04-11T11:43:03.966Z</time></trkpt><trkpt lat="42.1366106" lon="13.8580453"><ele>272.0</ele><time>2026-04-11T11:43:04.966Z</time></trkpt><trkpt lat="42.1368137" lon="13.8579919"><ele>274.0</ele><time>2026-04-11T11:43:05.966Z</time></trkpt><trkpt lat="42.1370216" lon="13.8579426"><ele>274.0</ele><time>2026-04-11T11:43:06.966Z</time></trkpt><trkpt lat="42.1372682" lon="13.8578939"><ele>274.0</ele><time>2026-04-11T11:43:07.966Z</time></trkpt><trkpt lat="42.1374995" lon="13.8578438"><ele>273.5</ele><time>2026-04-11T11:43:08.966Z</time></trkpt><trkpt lat="42.1377596" lon="13.8577813"><ele>273.0</ele><time>2026-04-11T11:43:09.965Z</time></trkpt><trkpt lat="42.1380459" lon="13.8577092"><ele>271.5</ele><time>2026-04-11T11:43:10.965Z</time></trkpt><trkpt lat="42.1383037" lon="13.8576443"><ele>270.0</ele><time>2026-04-11T11:43:11.966Z</time></trkpt><trkpt lat="42.1385987" lon="13.8575711"><ele>268.0</ele><time>2026-04-11T11:43:12.966Z</time></trkpt><trkpt lat="42.1388628" lon="13.8575028"><ele>266.0</ele><time>2026-04-11T11:43:13.966Z</time></trkpt><trkpt lat="42.1391376" lon="13.8574266"><ele>266.0</ele><time>2026-04-11T11:43:14.966Z</time></trkpt><trkpt lat="42.1394149" lon="13.8573366"><ele>266.0</ele><time>2026-04-11T11:43:15.965Z</time></trkpt><trkpt lat="42.139643" lon="13.8572448"><ele>266.0</ele><time>2026-04-11T11:43:16.966Z</time></trkpt><trkpt lat="42.1398714" lon="13.8571363"><ele>266.0</ele><time>2026-04-11T11:43:17.966Z</time></trkpt><trkpt lat="42.1401028" lon="13.8570072"><ele>264.5</ele><time>2026-04-11T11:43:18.966Z</time></trkpt><trkpt lat="42.1403003" lon="13.8568785"><ele>263.0</ele><time>2026-04-11T11:43:19.966Z</time></trkpt><trkpt lat="42.1405166" lon="13.8567156"><ele>263.0</ele><time>2026-04-11T11:43:20.966Z</time></trkpt><trkpt lat="42.1407127" lon="13.8565464"><ele>263.0</ele><time>2026-04-11T11:43:21.965Z</time></trkpt><trkpt lat="42.1408904" lon="13.8563726"><ele>264.0</ele><time>2026-04-11T11:43:22.966Z</time></trkpt><trkpt lat="42.1410853" lon="13.8561638"><ele>265.0</ele><time>2026-04-11T11:43:23.966Z</time></trkpt><trkpt lat="42.1412504" lon="13.8559746"><ele>266.5</ele><time>2026-04-11T11:43:24.966Z</time></trkpt><trkpt lat="42.1414268" lon="13.8557684"><ele>268.0</ele><time>2026-04-11T11:43:25.966Z</time></trkpt><trkpt lat="42.1416121" lon="13.8555531"><ele>268.0</ele><time>2026-04-11T11:43:26.966Z</time></trkpt><trkpt lat="42.1417731" lon="13.8553645"><ele>268.0</ele><time>2026-04-11T11:43:27.966Z</time></trkpt><trkpt lat="42.1419416" lon="13.8551634"><ele>268.0</ele><time>2026-04-11T11:43:28.966Z</time></trkpt><trkpt lat="42.1421076" lon="13.8549658"><ele>269.5</ele><time>2026-04-11T11:43:29.965Z</time></trkpt><trkpt lat="42.1422765" lon="13.8547689"><ele>271.0</ele><time>2026-04-11T11:43:30.966Z</time></trkpt><trkpt lat="42.1424565" lon="13.8545617"><ele>271.0</ele><time>2026-04-11T11:43:31.965Z</time></trkpt><trkpt lat="42.1426162" lon="13.8543844"><ele>271.0</ele><time>2026-04-11T11:43:32.966Z</time></trkpt><trkpt lat="42.1427897" lon="13.8542042"><ele>271.0</ele><time>2026-04-11T11:43:33.966Z</time></trkpt><trkpt lat="42.142978" lon="13.8540286"><ele>272.66666666666663</ele><time>2026-04-11T11:43:34.966Z</time></trkpt><trkpt lat="42.1431456" lon="13.8538911"><ele>274.3333333333333</ele><time>2026-04-11T11:43:35.966Z</time></trkpt><trkpt lat="42.1433426" lon="13.8537465"><ele>276.0</ele><time>2026-04-11T11:43:36.966Z</time></trkpt><trkpt lat="42.1435302" lon="13.8536203"><ele>276.0</ele><time>2026-04-11T11:43:37.966Z</time></trkpt><trkpt lat="42.1437067" lon="13.8535083"><ele>276.0</ele><time>2026-04-11T11:43:38.966Z</time></trkpt><trkpt lat="42.1439067" lon="13.8533825"><ele>276.0</ele><time>2026-04-11T11:43:39.966Z</time></trkpt><trkpt lat="42.144083" lon="13.8532695"><ele>274.0</ele><time>2026-04-11T11:43:40.966Z</time></trkpt><trkpt lat="42.144268" lon="13.8531448"><ele>272.0</ele><time>2026-04-11T11:43:41.966Z</time></trkpt><trkpt lat="42.1444636" lon="13.8530012"><ele>270.0</ele><time>2026-04-11T11:43:42.966Z</time></trkpt><trkpt lat="42.1446323" lon="13.8528632"><ele>270.0</ele><time>2026-04-11T11:43:43.965Z</time></trkpt><trkpt lat="42.14482" lon="13.8526956"><ele>270.0</ele><time>2026-04-11T11:43:44.966Z</time></trkpt><trkpt lat="42.1449809" lon="13.8525396"><ele>270.0</ele><time>2026-04-11T11:43:45.966Z</time></trkpt><trkpt lat="42.1451475" lon="13.852363"><ele>269.3333333333333</ele><time>2026-04-11T11:43:46.966Z</time></trkpt><trkpt lat="42.1453207" lon="13.8521562"><ele>268.66666666666663</ele><time>2026-04-11T11:43:47.965Z</time></trkpt><trkpt lat="42.1454674" lon="13.8519621"><ele>268.0</ele><time>2026-04-11T11:43:48.966Z</time></trkpt><trkpt lat="42.1456181" lon="13.8517424"><ele>267.66666666666663</ele><time>2026-04-11T11:43:49.966Z</time></trkpt><trkpt lat="42.1457705" lon="13.851496"><ele>267.3333333333333</ele><time>2026-04-11T11:43:50.966Z</time></trkpt><trkpt lat="42.1458989" lon="13.8512717"><ele>267.0</ele><time>2026-04-11T11:43:51.966Z</time></trkpt><trkpt lat="42.1460396" lon="13.8510155"><ele>266.0</ele><time>2026-04-11T11:43:52.966Z</time></trkpt><trkpt lat="42.1461728" lon="13.8507696"><ele>265.0</ele><time>2026-04-11T11:43:53.966Z</time></trkpt><trkpt lat="42.1462976" lon="13.8505376"><ele>264.0</ele><time>2026-04-11T11:43:54.966Z</time></trkpt><trkpt lat="42.1464393" lon="13.8502727"><ele>269.3333333333333</ele><time>2026-04-11T11:43:55.966Z</time></trkpt><trkpt lat="42.1465633" lon="13.8500387"><ele>274.66666666666663</ele><time>2026-04-11T11:43:56.966Z</time></trkpt><trkpt lat="42.1466958" lon="13.8497894"><ele>280.0</ele><time>2026-04-11T11:43:57.966Z</time></trkpt><trkpt lat="42.1468365" lon="13.8495308"><ele>280.0</ele><time>2026-04-11T11:43:58.966Z</time></trkpt><trkpt lat="42.1469692" lon="13.8493131"><ele>280.0</ele><time>2026-04-11T11:43:59.966Z</time></trkpt><trkpt lat="42.1471348" lon="13.8490905"><ele>280.0</ele><time>2026-04-11T11:44:00.966Z</time></trkpt><trkpt lat="42.147297" lon="13.8489262"><ele>282.3333333333333</ele><time>2026-04-11T11:44:01.966Z</time></trkpt><trkpt lat="42.1474845" lon="13.8487832"><ele>284.6666666666667</ele><time>2026-04-11T11:44:02.966Z</time></trkpt><trkpt lat="42.1476908" lon="13.8486604"><ele>287.0</ele><time>2026-04-11T11:44:03.966Z</time></trkpt><trkpt lat="42.1478784" lon="13.848556"><ele>286.0</ele><time>2026-04-11T11:44:04.966Z</time></trkpt><trkpt lat="42.1480771" lon="13.8484374"><ele>285.0</ele><time>2026-04-11T11:44:05.966Z</time></trkpt><trkpt lat="42.148279" lon="13.8482818"><ele>285.0</ele><time>2026-04-11T11:44:06.965Z</time></trkpt><trkpt lat="42.1484419" lon="13.848116"><ele>285.0</ele><time>2026-04-11T11:44:07.966Z</time></trkpt><trkpt lat="42.1485989" lon="13.8479056"><ele>285.0</ele><time>2026-04-11T11:44:08.965Z</time></trkpt><trkpt lat="42.1487523" lon="13.8476535"><ele>283.5</ele><time>2026-04-11T11:44:09.966Z</time></trkpt><trkpt lat="42.1488863" lon="13.8474075"><ele>282.0</ele><time>2026-04-11T11:44:10.966Z</time></trkpt><trkpt lat="42.149041" lon="13.8471113"><ele>282.5</ele><time>2026-04-11T11:44:11.965Z</time></trkpt><trkpt lat="42.1491798" lon="13.8468418"><ele>283.0</ele><time>2026-04-11T11:44:12.965Z</time></trkpt><trkpt lat="42.1493308" lon="13.8465466"><ele>283.0</ele><time>2026-04-11T11:44:13.966Z</time></trkpt><trkpt lat="42.1494946" lon="13.846229"><ele>283.0</ele><time>2026-04-11T11:44:14.966Z</time></trkpt><trkpt lat="42.1496371" lon="13.8459531"><ele>281.5</ele><time>2026-04-11T11:44:15.966Z</time></trkpt><trkpt lat="42.1497985" lon="13.8456395"><ele>280.0</ele><time>2026-04-11T11:44:16.965Z</time></trkpt><trkpt lat="42.1499378" lon="13.845366"><ele>283.5</ele><time>2026-04-11T11:44:17.966Z</time></trkpt><trkpt lat="42.1500828" lon="13.845081"><ele>287.0</ele><time>2026-04-11T11:44:18.966Z</time></trkpt><trkpt lat="42.1502366" lon="13.8447856"><ele>287.0</ele><time>2026-04-11T11:44:19.966Z</time></trkpt><trkpt lat="42.1503753" lon="13.8445284"><ele>287.0</ele><time>2026-04-11T11:44:20.966Z</time></trkpt><trkpt lat="42.1505283" lon="13.8442578"><ele>287.5</ele><time>2026-04-11T11:44:21.965Z</time></trkpt><trkpt lat="42.1507007" lon="13.8439674"><ele>288.0</ele><time>2026-04-11T11:44:22.966Z</time></trkpt><trkpt lat="42.1508593" lon="13.8437139"><ele>283.5</ele><time>2026-04-11T11:44:23.965Z</time></trkpt><trkpt lat="42.1510336" lon="13.8434533"><ele>279.0</ele><time>2026-04-11T11:44:24.966Z</time></trkpt><trkpt lat="42.1512156" lon="13.8431991"><ele>279.0</ele><time>2026-04-11T11:44:25.965Z</time></trkpt><trkpt lat="42.1513734" lon="13.8429902"><ele>279.0</ele><time>2026-04-11T11:44:26.965Z</time></trkpt><trkpt lat="42.151548" lon="13.8427711"><ele>278.3333333333333</ele><time>2026-04-11T11:44:27.965Z</time></trkpt><trkpt lat="42.1516955" lon="13.8425945"><ele>277.66666666666663</ele><time>2026-04-11T11:44:28.966Z</time></trkpt><trkpt lat="42.1518417" lon="13.8424231"><ele>277.0</ele><time>2026-04-11T11:44:29.966Z</time></trkpt><trkpt lat="42.1519819" lon="13.8422597"><ele>277.0</ele><time>2026-04-11T11:44:30.966Z</time></trkpt><trkpt lat="42.1520909" lon="13.8421319"><ele>277.0</ele><time>2026-04-11T11:44:31.966Z</time></trkpt><trkpt lat="42.1522005" lon="13.8420033"><ele>277.0</ele><time>2026-04-11T11:44:32.966Z</time></trkpt><trkpt lat="42.1522865" lon="13.8419072"><ele>277.0</ele><time>2026-04-11T11:44:33.966Z</time></trkpt><trkpt lat="42.1523722" lon="13.8418235"><ele>278.0</ele><time>2026-04-11T11:44:34.966Z</time></trkpt><trkpt lat="42.1524607" lon="13.8417572"><ele>279.0</ele><time>2026-04-11T11:44:35.966Z</time></trkpt><trkpt lat="42.1525353" lon="13.8417208"><ele>280.0</ele><time>2026-04-11T11:44:36.966Z</time></trkpt><trkpt lat="42.1526124" lon="13.8416966"><ele>281.0</ele><time>2026-04-11T11:44:37.966Z</time></trkpt><trkpt lat="42.1526854" lon="13.8416896"><ele>282.0</ele><time>2026-04-11T11:44:38.966Z</time></trkpt><trkpt lat="42.152804" lon="13.8417183"><ele>282.0</ele><time>2026-04-11T11:44:40.966Z</time></trkpt><trkpt lat="42.1528897" lon="13.8418093"><ele>282.0</ele><time>2026-04-11T11:44:42.966Z</time></trkpt><trkpt lat="42.1529565" lon="13.8418663"><ele>282.0</ele><time>2026-04-11T11:44:44.966Z</time></trkpt><trkpt lat="42.1530481" lon="13.841811"><ele>282.0</ele><time>2026-04-11T11:44:46.965Z</time></trkpt><trkpt lat="42.1531076" lon="13.8416711"><ele>282.0</ele><time>2026-04-11T11:44:48.966Z</time></trkpt><trkpt lat="42.1530994" lon="13.8415868"><ele>282.0</ele><time>2026-04-11T11:44:49.966Z</time></trkpt><trkpt lat="42.1530696" lon="13.8415053"><ele>282.0</ele><time>2026-04-11T11:44:50.966Z</time></trkpt><trkpt lat="42.1530344" lon="13.8414209"><ele>282.0</ele><time>2026-04-11T11:44:51.966Z</time></trkpt><trkpt lat="42.1530196" lon="13.8413358"><ele>282.0</ele><time>2026-04-11T11:44:52.966Z</time></trkpt><trkpt lat="42.1530315" lon="13.8412418"><ele>282.0</ele><time>2026-04-11T11:44:53.966Z</time></trkpt><trkpt lat="42.1530781" lon="13.8411466"><ele>282.0</ele><time>2026-04-11T11:44:54.966Z</time></trkpt><trkpt lat="42.1531359" lon="13.8410715"><ele>282.0</ele><time>2026-04-11T11:44:55.966Z</time></trkpt><trkpt lat="42.1532058" lon="13.8409839"><ele>281.6666666666667</ele><time>2026-04-11T11:44:56.966Z</time></trkpt><trkpt lat="42.1532653" lon="13.8409048"><ele>281.3333333333333</ele><time>2026-04-11T11:44:57.966Z</time></trkpt><trkpt lat="42.153313" lon="13.8408432"><ele>281.0</ele><time>2026-04-11T11:44:58.966Z</time></trkpt><trkpt lat="42.1533614" lon="13.8407838"><ele>280.66666666666663</ele><time>2026-04-11T11:44:59.966Z</time></trkpt><trkpt lat="42.1534334" lon="13.8407494"><ele>280.3333333333333</ele><time>2026-04-11T11:45:01.966Z</time></trkpt><trkpt lat="42.1534954" lon="13.8408333"><ele>280.0</ele><time>2026-04-11T11:45:04.966Z</time></trkpt><trkpt lat="42.1535149" lon="13.840927"><ele>280.0</ele><time>2026-04-11T11:45:06.966Z</time></trkpt><trkpt lat="42.1535073" lon="13.8410225"><ele>284.0</ele><time>2026-04-11T11:45:10.965Z</time></trkpt><trkpt lat="42.1534588" lon="13.8410925"><ele>284.0</ele><time>2026-04-11T11:45:38.965Z</time></trkpt><trkpt lat="42.1533943" lon="13.8411133"><ele>284.0</ele><time>2026-04-11T11:45:41.966Z</time></trkpt><trkpt lat="42.1533245" lon="13.8410929"><ele>284.0</ele><time>2026-04-11T11:45:44.966Z</time></trkpt><trkpt lat="42.1532542" lon="13.8411114"><ele>284.0</ele><time>2026-04-11T11:45:47.966Z</time></trkpt><trkpt lat="42.1532012" lon="13.8411697"><ele>282.0</ele><time>2026-04-11T11:46:14.966Z</time></trkpt></trkseg><trkseg><trkpt lat="42.1532575" lon="13.8411334"><ele>284.0</ele><time>2026-04-11T13:00:25.961Z</time></trkpt><trkpt lat="42.1533185" lon="13.8410993"><ele>284.0</ele><time>2026-04-11T13:00:57.962Z</time></trkpt><trkpt lat="42.1534152" lon="13.8411087"><ele>284.0</ele><time>2026-04-11T13:01:48.954Z</time></trkpt><trkpt lat="42.1534857" lon="13.8411177"><ele>284.0</ele><time>2026-04-11T13:01:50.961Z</time></trkpt><trkpt lat="42.1535525" lon="13.8410825"><ele>284.0</ele><time>2026-04-11T13:01:54.958Z</time></trkpt><trkpt lat="42.1535826" lon="13.8409415"><ele>284.0</ele><time>2026-04-11T13:01:57.959Z</time></trkpt><trkpt lat="42.1535447" lon="13.8408337"><ele>283.6666666666667</ele><time>2026-04-11T13:02:00.957Z</time></trkpt><trkpt lat="42.153496" lon="13.8407426"><ele>283.33333333333337</ele><time>2026-04-11T13:02:03.963Z</time></trkpt><trkpt lat="42.1534224" lon="13.840722"><ele>283.0</ele><time>2026-04-11T13:02:06.963Z</time></trkpt><trkpt lat="42.1533579" lon="13.8407841"><ele>282.6666666666667</ele><time>2026-04-11T13:02:09.957Z</time></trkpt><trkpt lat="42.153301" lon="13.8408456"><ele>282.3333333333333</ele><time>2026-04-11T13:02:12.957Z</time></trkpt><trkpt lat="42.1532401" lon="13.8408942"><ele>282.0</ele><time>2026-04-11T13:02:15.96Z</time></trkpt><trkpt lat="42.1531881" lon="13.8409664"><ele>282.0</ele><time>2026-04-11T13:02:28.956Z</time></trkpt><trkpt lat="42.1530927" lon="13.8410815"><ele>282.0</ele><time>2026-04-11T13:02:30.953Z</time></trkpt><trkpt lat="42.1530482" lon="13.8411506"><ele>282.0</ele><time>2026-04-11T13:02:31.958Z</time></trkpt><trkpt lat="42.1530131" lon="13.8412456"><ele>282.0</ele><time>2026-04-11T13:02:32.956Z</time></trkpt><trkpt lat="42.1530109" lon="13.8413408"><ele>282.0</ele><time>2026-04-11T13:02:33.955Z</time></trkpt><trkpt lat="42.1530744" lon="13.8415002"><ele>282.0</ele><time>2026-04-11T13:02:35.956Z</time></trkpt><trkpt lat="42.1531053" lon="13.8415798"><ele>282.0</ele><time>2026-04-11T13:02:36.96Z</time></trkpt><trkpt lat="42.1531086" lon="13.8416655"><ele>282.0</ele><time>2026-04-11T13:02:37.966Z</time></trkpt><trkpt lat="42.1530334" lon="13.8417861"><ele>282.0</ele><time>2026-04-11T13:02:39.958Z</time></trkpt><trkpt lat="42.1529715" lon="13.8418031"><ele>282.0</ele><time>2026-04-11T13:02:40.946Z</time></trkpt><trkpt lat="42.1528761" lon="13.8416967"><ele>282.0</ele><time>2026-04-11T13:02:42.953Z</time></trkpt><trkpt lat="42.1528442" lon="13.8415912"><ele>282.0</ele><time>2026-04-11T13:02:43.952Z</time></trkpt><trkpt lat="42.1528419" lon="13.8414836"><ele>282.0</ele><time>2026-04-11T13:02:44.955Z</time></trkpt><trkpt lat="42.1528631" lon="13.8413594"><ele>282.0</ele><time>2026-04-11T13:02:45.955Z</time></trkpt><trkpt lat="42.1529022" lon="13.8412494"><ele>282.0</ele><time>2026-04-11T13:02:46.953Z</time></trkpt><trkpt lat="42.1529564" lon="13.841153"><ele>282.0</ele><time>2026-04-11T13:02:47.956Z</time></trkpt><trkpt lat="42.1530331" lon="13.8410528"><ele>281.6</ele><time>2026-04-11T13:02:48.953Z</time></trkpt><trkpt lat="42.1531144" lon="13.8409577"><ele>281.2</ele><time>2026-04-11T13:02:49.957Z</time></trkpt><trkpt lat="42.1531932" lon="13.8408672"><ele>280.8</ele><time>2026-04-11T13:02:50.959Z</time></trkpt><trkpt lat="42.1532828" lon="13.8407605"><ele>280.4</ele><time>2026-04-11T13:02:51.957Z</time></trkpt><trkpt lat="42.1533611" lon="13.8406666"><ele>280.0</ele><time>2026-04-11T13:02:52.952Z</time></trkpt><trkpt lat="42.153446" lon="13.8405645"><ele>280.0</ele><time>2026-04-11T13:02:53.958Z</time></trkpt><trkpt lat="42.1535266" lon="13.8404649"><ele>280.0</ele><time>2026-04-11T13:02:54.951Z</time></trkpt><trkpt lat="42.1536061" lon="13.8403704"><ele>280.0</ele><time>2026-04-11T13:02:55.953Z</time></trkpt><trkpt lat="42.1537028" lon="13.8402624"><ele>280.0</ele><time>2026-04-11T13:02:56.956Z</time></trkpt><trkpt lat="42.1537908" lon="13.8401657"><ele>279.75</ele><time>2026-04-11T13:02:57.953Z</time></trkpt><trkpt lat="42.1538872" lon="13.8400672"><ele>279.5</ele><time>2026-04-11T13:02:58.947Z</time></trkpt><trkpt lat="42.1539947" lon="13.8399694"><ele>279.25</ele><time>2026-04-11T13:02:59.956Z</time></trkpt><trkpt lat="42.154092" lon="13.8398924"><ele>279.0</ele><time>2026-04-11T13:03:00.955Z</time></trkpt><trkpt lat="42.1542048" lon="13.8398133"><ele>279.0</ele><time>2026-04-11T13:03:01.952Z</time></trkpt><trkpt lat="42.1543125" lon="13.8397487"><ele>279.0</ele><time>2026-04-11T13:03:02.961Z</time></trkpt><trkpt lat="42.1544168" lon="13.8396955"><ele>279.0</ele><time>2026-04-11T13:03:03.955Z</time></trkpt><trkpt lat="42.1545421" lon="13.8396398"><ele>279.0</ele><time>2026-04-11T13:03:04.963Z</time></trkpt><trkpt lat="42.1546687" lon="13.839593"><ele>279.0</ele><time>2026-04-11T13:03:05.953Z</time></trkpt><trkpt lat="42.1548002" lon="13.8395541"><ele>279.0</ele><time>2026-04-11T13:03:06.956Z</time></trkpt><trkpt lat="42.1549411" lon="13.8395262"><ele>279.0</ele><time>2026-04-11T13:03:07.958Z</time></trkpt><trkpt lat="42.155077" lon="13.8395106"><ele>279.0</ele><time>2026-04-11T13:03:08.953Z</time></trkpt><trkpt lat="42.1552312" lon="13.8394976"><ele>277.5</ele><time>2026-04-11T13:03:09.946Z</time></trkpt><trkpt lat="42.1553755" lon="13.8394862"><ele>276.0</ele><time>2026-04-11T13:03:10.957Z</time></trkpt><trkpt lat="42.1555083" lon="13.8394745"><ele>274.5</ele><time>2026-04-11T13:03:11.953Z</time></trkpt><trkpt lat="42.1556547" lon="13.83946"><ele>273.0</ele><time>2026-04-11T13:03:12.956Z</time></trkpt><trkpt lat="42.155782" lon="13.8394497"><ele>273.0</ele><time>2026-04-11T13:03:13.955Z</time></trkpt><trkpt lat="42.1559218" lon="13.839439"><ele>273.0</ele><time>2026-04-11T13:03:14.953Z</time></trkpt><trkpt lat="42.1560743" lon="13.8394303"><ele>273.0</ele><time>2026-04-11T13:03:15.952Z</time></trkpt><trkpt lat="42.1562139" lon="13.839427"><ele>273.0</ele><time>2026-04-11T13:03:16.961Z</time></trkpt><trkpt lat="42.1563752" lon="13.8394262"><ele>273.0</ele><time>2026-04-11T13:03:17.956Z</time></trkpt><trkpt lat="42.1565247" lon="13.8394298"><ele>273.0</ele><time>2026-04-11T13:03:18.961Z</time></trkpt><trkpt lat="42.1566589" lon="13.839434"><ele>273.0</ele><time>2026-04-11T13:03:19.951Z</time></trkpt><trkpt lat="42.1568087" lon="13.8394378"><ele>273.0</ele><time>2026-04-11T13:03:20.96Z</time></trkpt><trkpt lat="42.1569431" lon="13.8394451"><ele>272.6</ele><time>2026-04-11T13:03:21.953Z</time></trkpt><trkpt lat="42.1570548" lon="13.8394575"><ele>272.20000000000005</ele><time>2026-04-11T13:03:22.955Z</time></trkpt><trkpt lat="42.1571732" lon="13.839473"><ele>271.8</ele><time>2026-04-11T13:03:23.956Z</time></trkpt><trkpt lat="42.1572735" lon="13.8394858"><ele>271.40000000000003</ele><time>2026-04-11T13:03:24.963Z</time></trkpt><trkpt lat="42.157386" lon="13.8395013"><ele>271.0</ele><time>2026-04-11T13:03:25.953Z</time></trkpt><trkpt lat="42.157487" lon="13.8395144"><ele>271.0</ele><time>2026-04-11T13:03:26.959Z</time></trkpt><trkpt lat="42.1575808" lon="13.8395291"><ele>271.0</ele><time>2026-04-11T13:03:27.953Z</time></trkpt><trkpt lat="42.1576838" lon="13.8395431"><ele>271.0</ele><time>2026-04-11T13:03:28.96Z</time></trkpt><trkpt lat="42.1577709" lon="13.8395572"><ele>271.0</ele><time>2026-04-11T13:03:29.954Z</time></trkpt><trkpt lat="42.1578645" lon="13.8395714"><ele>271.0</ele><time>2026-04-11T13:03:30.959Z</time></trkpt><trkpt lat="42.1579665" lon="13.8395882"><ele>271.0</ele><time>2026-04-11T13:03:31.96Z</time></trkpt><trkpt lat="42.1580571" lon="13.8396044"><ele>271.0</ele><time>2026-04-11T13:03:32.96Z</time></trkpt><trkpt lat="42.1581579" lon="13.8396212"><ele>271.0</ele><time>2026-04-11T13:03:33.952Z</time></trkpt><trkpt lat="42.1582522" lon="13.8396379"><ele>271.0</ele><time>2026-04-11T13:03:34.953Z</time></trkpt><trkpt lat="42.1583428" lon="13.8396492"><ele>271.0</ele><time>2026-04-11T13:03:35.966Z</time></trkpt><trkpt lat="42.1584407" lon="13.8396639"><ele>269.0</ele><time>2026-04-11T13:03:36.958Z</time></trkpt><trkpt lat="42.1585351" lon="13.8396787"><ele>267.0</ele><time>2026-04-11T13:03:37.95Z</time></trkpt><trkpt lat="42.1586223" lon="13.8396928"><ele>265.0</ele><time>2026-04-11T13:03:38.953Z</time></trkpt><trkpt lat="42.1587199" lon="13.8397088"><ele>263.0</ele><time>2026-04-11T13:03:39.958Z</time></trkpt><trkpt lat="42.1588075" lon="13.839724"><ele>261.0</ele><time>2026-04-11T13:03:40.959Z</time></trkpt><trkpt lat="42.1589083" lon="13.8397401"><ele>261.0</ele><time>2026-04-11T13:03:41.956Z</time></trkpt><trkpt lat="42.1590032" lon="13.8397542"><ele>261.0</ele><time>2026-04-11T13:03:42.952Z</time></trkpt><trkpt lat="42.1590905" lon="13.8397674"><ele>261.0</ele><time>2026-04-11T13:03:43.949Z</time></trkpt><trkpt lat="42.1591882" lon="13.8397817"><ele>261.0</ele><time>2026-04-11T13:03:44.955Z</time></trkpt><trkpt lat="42.1592732" lon="13.8397935"><ele>261.0</ele><time>2026-04-11T13:03:45.954Z</time></trkpt><trkpt lat="42.1593694" lon="13.839806"><ele>260.2</ele><time>2026-04-11T13:03:46.957Z</time></trkpt><trkpt lat="42.1594615" lon="13.839819"><ele>259.40000000000003</ele><time>2026-04-11T13:03:47.955Z</time></trkpt><trkpt lat="42.1595475" lon="13.8398318"><ele>258.6</ele><time>2026-04-11T13:03:48.963Z</time></trkpt><trkpt lat="42.159647" lon="13.8398455"><ele>257.8</ele><time>2026-04-11T13:03:49.953Z</time></trkpt><trkpt lat="42.159741" lon="13.8398581"><ele>257.0</ele><time>2026-04-11T13:03:50.949Z</time></trkpt><trkpt lat="42.1598304" lon="13.839871"><ele>256.2</ele><time>2026-04-11T13:03:51.955Z</time></trkpt><trkpt lat="42.1599353" lon="13.8398864"><ele>255.39999999999998</ele><time>2026-04-11T13:03:52.963Z</time></trkpt><trkpt lat="42.1600347" lon="13.8399027"><ele>254.60000000000002</ele><time>2026-04-11T13:03:53.954Z</time></trkpt><trkpt lat="42.1601303" lon="13.8399172"><ele>253.8</ele><time>2026-04-11T13:03:54.958Z</time></trkpt><trkpt lat="42.1602388" lon="13.8399345"><ele>253.0</ele><time>2026-04-11T13:03:55.958Z</time></trkpt><trkpt lat="42.1603366" lon="13.8399492"><ele>253.0</ele><time>2026-04-11T13:03:56.96Z</time></trkpt><trkpt lat="42.1604518" lon="13.8399643"><ele>253.0</ele><time>2026-04-11T13:03:57.965Z</time></trkpt><trkpt lat="42.1605559" lon="13.8399749"><ele>253.0</ele><time>2026-04-11T13:03:58.956Z</time></trkpt><trkpt lat="42.1606555" lon="13.839988"><ele>253.0</ele><time>2026-04-11T13:03:59.955Z</time></trkpt><trkpt lat="42.16077" lon="13.8400065"><ele>253.0</ele><time>2026-04-11T13:04:00.96Z</time></trkpt><trkpt lat="42.1608716" lon="13.8400238"><ele>252.5</ele><time>2026-04-11T13:04:01.952Z</time></trkpt><trkpt lat="42.1609839" lon="13.8400415"><ele>252.0</ele><time>2026-04-11T13:04:02.958Z</time></trkpt><trkpt lat="42.1611032" lon="13.8400597"><ele>251.5</ele><time>2026-04-11T13:04:03.955Z</time></trkpt><trkpt lat="42.1612112" lon="13.8400756"><ele>251.0</ele><time>2026-04-11T13:04:04.948Z</time></trkpt><trkpt lat="42.1613377" lon="13.8400947"><ele>251.0</ele><time>2026-04-11T13:04:05.953Z</time></trkpt><trkpt lat="42.16146" lon="13.8401143"><ele>251.0</ele><time>2026-04-11T13:04:06.955Z</time></trkpt><trkpt lat="42.1615798" lon="13.840134"><ele>251.0</ele><time>2026-04-11T13:04:07.956Z</time></trkpt><trkpt lat="42.1617201" lon="13.8401568"><ele>251.0</ele><time>2026-04-11T13:04:08.957Z</time></trkpt><trkpt lat="42.1618558" lon="13.840181"><ele>251.75</ele><time>2026-04-11T13:04:09.957Z</time></trkpt><trkpt lat="42.161989" lon="13.8402015"><ele>252.5</ele><time>2026-04-11T13:04:10.958Z</time></trkpt><trkpt lat="42.1621441" lon="13.8402159"><ele>253.25</ele><time>2026-04-11T13:04:11.959Z</time></trkpt><trkpt lat="42.1622858" lon="13.8402208"><ele>254.0</ele><time>2026-04-11T13:04:12.962Z</time></trkpt><trkpt lat="42.1624509" lon="13.8401997"><ele>254.0</ele><time>2026-04-11T13:04:13.96Z</time></trkpt><trkpt lat="42.1626117" lon="13.8401594"><ele>254.0</ele><time>2026-04-11T13:04:14.952Z</time></trkpt><trkpt lat="42.162764" lon="13.8401021"><ele>254.0</ele><time>2026-04-11T13:04:15.964Z</time></trkpt><trkpt lat="42.1629373" lon="13.840012"><ele>253.66666666666669</ele><time>2026-04-11T13:04:16.955Z</time></trkpt><trkpt lat="42.1630817" lon="13.8399091"><ele>253.33333333333331</ele><time>2026-04-11T13:04:17.96Z</time></trkpt><trkpt lat="42.1632242" lon="13.8397852"><ele>253.0</ele><time>2026-04-11T13:04:18.954Z</time></trkpt><trkpt lat="42.1633638" lon="13.8396415"><ele>253.0</ele><time>2026-04-11T13:04:19.953Z</time></trkpt><trkpt lat="42.1634789" lon="13.8395115"><ele>253.0</ele><time>2026-04-11T13:04:20.954Z</time></trkpt><trkpt lat="42.1636088" lon="13.8393597"><ele>253.0</ele><time>2026-04-11T13:04:21.958Z</time></trkpt><trkpt lat="42.1637298" lon="13.8392164"><ele>252.33333333333331</ele><time>2026-04-11T13:04:22.956Z</time></trkpt><trkpt lat="42.1638414" lon="13.8390834"><ele>251.66666666666669</ele><time>2026-04-11T13:04:23.956Z</time></trkpt><trkpt lat="42.163968" lon="13.8389332"><ele>251.0</ele><time>2026-04-11T13:04:24.956Z</time></trkpt><trkpt lat="42.1640883" lon="13.8387909"><ele>250.5</ele><time>2026-04-11T13:04:25.963Z</time></trkpt><trkpt lat="42.1642013" lon="13.8386581"><ele>250.0</ele><time>2026-04-11T13:04:26.952Z</time></trkpt><trkpt lat="42.1643264" lon="13.8385137"><ele>249.5</ele><time>2026-04-11T13:04:27.957Z</time></trkpt><trkpt lat="42.1644264" lon="13.8383978"><ele>249.0</ele><time>2026-04-11T13:04:28.949Z</time></trkpt><trkpt lat="42.1645373" lon="13.838269"><ele>249.0</ele><time>2026-04-11T13:04:29.955Z</time></trkpt><trkpt lat="42.1646482" lon="13.8381402"><ele>249.0</ele><time>2026-04-11T13:04:30.949Z</time></trkpt><trkpt lat="42.1647463" lon="13.8380218"><ele>249.0</ele><time>2026-04-11T13:04:31.957Z</time></trkpt><trkpt lat="42.1648625" lon="13.8378823"><ele>249.0</ele><time>2026-04-11T13:04:32.956Z</time></trkpt><trkpt lat="42.1649647" lon="13.8377708"><ele>248.75</ele><time>2026-04-11T13:04:33.956Z</time></trkpt><trkpt lat="42.1650733" lon="13.8376461"><ele>248.5</ele><time>2026-04-11T13:04:34.955Z</time></trkpt><trkpt lat="42.1651843" lon="13.8375173"><ele>248.25</ele><time>2026-04-11T13:04:35.951Z</time></trkpt><trkpt lat="42.1652829" lon="13.8374069"><ele>248.0</ele><time>2026-04-11T13:04:36.953Z</time></trkpt><trkpt lat="42.1653913" lon="13.8372827"><ele>248.0</ele><time>2026-04-11T13:04:37.955Z</time></trkpt><trkpt lat="42.1654891" lon="13.8371602"><ele>248.0</ele><time>2026-04-11T13:04:38.957Z</time></trkpt><trkpt lat="42.1655732" lon="13.8370373"><ele>248.0</ele><time>2026-04-11T13:04:39.959Z</time></trkpt><trkpt lat="42.1656485" lon="13.8368889"><ele>248.0</ele><time>2026-04-11T13:04:40.954Z</time></trkpt><trkpt lat="42.165696" lon="13.8367478"><ele>248.66666666666669</ele><time>2026-04-11T13:04:41.956Z</time></trkpt><trkpt lat="42.1657252" lon="13.8366212"><ele>249.33333333333334</ele><time>2026-04-11T13:04:42.955Z</time></trkpt><trkpt lat="42.1657424" lon="13.8364955"><ele>250.0</ele><time>2026-04-11T13:04:43.959Z</time></trkpt><trkpt lat="42.1657514" lon="13.8364019"><ele>250.66666666666669</ele><time>2026-04-11T13:04:44.96Z</time></trkpt><trkpt lat="42.1657574" lon="13.8363076"><ele>251.33333333333334</ele><time>2026-04-11T13:04:45.956Z</time></trkpt><trkpt lat="42.165763" lon="13.8361768"><ele>252.0</ele><time>2026-04-11T13:04:47.958Z</time></trkpt><trkpt lat="42.1657699" lon="13.8360912"><ele>252.0</ele><time>2026-04-11T13:04:49.959Z</time></trkpt><trkpt lat="42.1657781" lon="13.8360024"><ele>252.0</ele><time>2026-04-11T13:04:51.954Z</time></trkpt><trkpt lat="42.1657956" lon="13.8358512"><ele>252.0</ele><time>2026-04-11T13:04:53.959Z</time></trkpt><trkpt lat="42.1658086" lon="13.8357599"><ele>252.0</ele><time>2026-04-11T13:04:54.956Z</time></trkpt><trkpt lat="42.1658193" lon="13.8356643"><ele>252.0</ele><time>2026-04-11T13:04:55.96Z</time></trkpt><trkpt lat="42.1658316" lon="13.8355426"><ele>252.0</ele><time>2026-04-11T13:04:56.954Z</time></trkpt><trkpt lat="42.1658448" lon="13.8354165"><ele>252.39999999999998</ele><time>2026-04-11T13:04:57.956Z</time></trkpt><trkpt lat="42.1658579" lon="13.8352943"><ele>252.79999999999998</ele><time>2026-04-11T13:04:58.956Z</time></trkpt><trkpt lat="42.1658722" lon="13.8351482"><ele>253.2</ele><time>2026-04-11T13:04:59.953Z</time></trkpt><trkpt lat="42.1658844" lon="13.8350104"><ele>253.6</ele><time>2026-04-11T13:05:00.953Z</time></trkpt><trkpt lat="42.1658996" lon="13.8348428"><ele>254.0</ele><time>2026-04-11T13:05:01.954Z</time></trkpt><trkpt lat="42.1659157" lon="13.8346794"><ele>254.0</ele><time>2026-04-11T13:05:02.956Z</time></trkpt><trkpt lat="42.1659307" lon="13.8345239"><ele>254.0</ele><time>2026-04-11T13:05:03.955Z</time></trkpt><trkpt lat="42.1659469" lon="13.8343474"><ele>254.0</ele><time>2026-04-11T13:05:04.955Z</time></trkpt><trkpt lat="42.1659608" lon="13.8341955"><ele>254.0</ele><time>2026-04-11T13:05:05.964Z</time></trkpt><trkpt lat="42.1659754" lon="13.8340383"><ele>253.0</ele><time>2026-04-11T13:05:06.956Z</time></trkpt><trkpt lat="42.1659894" lon="13.8338733"><ele>252.0</ele><time>2026-04-11T13:05:07.954Z</time></trkpt><trkpt lat="42.1660029" lon="13.8337252"><ele>251.0</ele><time>2026-04-11T13:05:08.955Z</time></trkpt><trkpt lat="42.1660182" lon="13.8335618"><ele>250.0</ele><time>2026-04-11T13:05:09.951Z</time></trkpt><trkpt lat="42.1660319" lon="13.8334098"><ele>249.75</ele><time>2026-04-11T13:05:10.951Z</time></trkpt><trkpt lat="42.1660456" lon="13.8332618"><ele>249.5</ele><time>2026-04-11T13:05:11.958Z</time></trkpt><trkpt lat="42.1660586" lon="13.8330952"><ele>249.25</ele><time>2026-04-11T13:05:12.949Z</time></trkpt><trkpt lat="42.1660724" lon="13.8329462"><ele>249.0</ele><time>2026-04-11T13:05:13.961Z</time></trkpt><trkpt lat="42.1660887" lon="13.8328036"><ele>249.0</ele><time>2026-04-11T13:05:14.956Z</time></trkpt><trkpt lat="42.1661181" lon="13.8326594"><ele>249.0</ele><time>2026-04-11T13:05:15.956Z</time></trkpt><trkpt lat="42.1661643" lon="13.8325385"><ele>249.0</ele><time>2026-04-11T13:05:16.953Z</time></trkpt><trkpt lat="42.1662429" lon="13.8324128"><ele>249.0</ele><time>2026-04-11T13:05:17.961Z</time></trkpt><trkpt lat="42.1663348" lon="13.8323012"><ele>248.75</ele><time>2026-04-11T13:05:18.966Z</time></trkpt><trkpt lat="42.1664291" lon="13.8321953"><ele>248.5</ele><time>2026-04-11T13:05:19.958Z</time></trkpt><trkpt lat="42.1665344" lon="13.8320767"><ele>248.25</ele><time>2026-04-11T13:05:20.966Z</time></trkpt><trkpt lat="42.1666267" lon="13.8319703"><ele>248.0</ele><time>2026-04-11T13:05:21.954Z</time></trkpt><trkpt lat="42.1667269" lon="13.8318566"><ele>248.0</ele><time>2026-04-11T13:05:22.958Z</time></trkpt><trkpt lat="42.1668334" lon="13.831736"><ele>248.0</ele><time>2026-04-11T13:05:23.953Z</time></trkpt><trkpt lat="42.1669271" lon="13.8316296"><ele>248.0</ele><time>2026-04-11T13:05:24.963Z</time></trkpt><trkpt lat="42.1670292" lon="13.8315171"><ele>248.0</ele><time>2026-04-11T13:05:25.958Z</time></trkpt><trkpt lat="42.1671406" lon="13.8314046"><ele>248.0</ele><time>2026-04-11T13:05:26.955Z</time></trkpt><trkpt lat="42.1672458" lon="13.8313158"><ele>248.0</ele><time>2026-04-11T13:05:27.956Z</time></trkpt><trkpt lat="42.167377" lon="13.8312232"><ele>248.0</ele><time>2026-04-11T13:05:28.952Z</time></trkpt><trkpt lat="42.1675073" lon="13.8311432"><ele>248.0</ele><time>2026-04-11T13:05:29.958Z</time></trkpt><trkpt lat="42.1676352" lon="13.8310771"><ele>247.66666666666669</ele><time>2026-04-11T13:05:30.954Z</time></trkpt><trkpt lat="42.1677857" lon="13.8310143"><ele>247.33333333333331</ele><time>2026-04-11T13:05:31.955Z</time></trkpt><trkpt lat="42.1679214" lon="13.8309701"><ele>247.0</ele><time>2026-04-11T13:05:32.95Z</time></trkpt><trkpt lat="42.1680778" lon="13.8309326"><ele>246.33333333333331</ele><time>2026-04-11T13:05:33.954Z</time></trkpt><trkpt lat="42.1682289" lon="13.8309106"><ele>245.66666666666669</ele><time>2026-04-11T13:05:34.953Z</time></trkpt><trkpt lat="42.1683723" lon="13.8308961"><ele>245.0</ele><time>2026-04-11T13:05:35.951Z</time></trkpt><trkpt lat="42.1685351" lon="13.8308815"><ele>245.0</ele><time>2026-04-11T13:05:36.952Z</time></trkpt><trkpt lat="42.1686699" lon="13.8308717"><ele>245.0</ele><time>2026-04-11T13:05:37.955Z</time></trkpt><trkpt lat="42.1688046" lon="13.8308489"><ele>245.0</ele><time>2026-04-11T13:05:38.959Z</time></trkpt><trkpt lat="42.1689309" lon="13.8308158"><ele>245.0</ele><time>2026-04-11T13:05:39.955Z</time></trkpt><trkpt lat="42.1690222" lon="13.8307811"><ele>245.0</ele><time>2026-04-11T13:05:40.954Z</time></trkpt><trkpt lat="42.1691093" lon="13.830741"><ele>245.0</ele><time>2026-04-11T13:05:41.964Z</time></trkpt><trkpt lat="42.1691786" lon="13.8307108"><ele>245.0</ele><time>2026-04-11T13:05:42.953Z</time></trkpt><trkpt lat="42.1692972" lon="13.8306499"><ele>245.0</ele><time>2026-04-11T13:05:44.954Z</time></trkpt><trkpt lat="42.169403" lon="13.8305782"><ele>245.0</ele><time>2026-04-11T13:05:46.959Z</time></trkpt><trkpt lat="42.1694598" lon="13.8305218"><ele>245.0</ele><time>2026-04-11T13:05:47.958Z</time></trkpt><trkpt lat="42.1695195" lon="13.8303811"><ele>245.0</ele><time>2026-04-11T13:05:49.957Z</time></trkpt><trkpt lat="42.1695021" lon="13.8302487"><ele>245.0</ele><time>2026-04-11T13:05:51.961Z</time></trkpt><trkpt lat="42.1694429" lon="13.830108"><ele>245.0</ele><time>2026-04-11T13:05:53.953Z</time></trkpt><trkpt lat="42.1694142" lon="13.8300117"><ele>245.0</ele><time>2026-04-11T13:05:54.958Z</time></trkpt><trkpt lat="42.1693908" lon="13.8298764"><ele>245.0</ele><time>2026-04-11T13:05:55.958Z</time></trkpt><trkpt lat="42.1693808" lon="13.8297547"><ele>245.0</ele><time>2026-04-11T13:05:56.961Z</time></trkpt><trkpt lat="42.1693724" lon="13.8296002"><ele>245.0</ele><time>2026-04-11T13:05:57.953Z</time></trkpt><trkpt lat="42.1693649" lon="13.8294433"><ele>245.0</ele><time>2026-04-11T13:05:58.953Z</time></trkpt><trkpt lat="42.1693577" lon="13.8292867"><ele>245.0</ele><time>2026-04-11T13:05:59.95Z</time></trkpt><trkpt lat="42.1693489" lon="13.8291021"><ele>245.0</ele><time>2026-04-11T13:06:00.952Z</time></trkpt><trkpt lat="42.1693375" lon="13.82892"><ele>245.0</ele><time>2026-04-11T13:06:01.955Z</time></trkpt><trkpt lat="42.1693252" lon="13.8287477"><ele>245.0</ele><time>2026-04-11T13:06:02.951Z</time></trkpt><trkpt lat="42.1693251" lon="13.8285572"><ele>245.0</ele><time>2026-04-11T13:06:03.956Z</time></trkpt><trkpt lat="42.1693192" lon="13.8283806"><ele>244.75</ele><time>2026-04-11T13:06:04.958Z</time></trkpt><trkpt lat="42.169312" lon="13.8281988"><ele>244.5</ele><time>2026-04-11T13:06:05.956Z</time></trkpt><trkpt lat="42.1693051" lon="13.8280161"><ele>244.25</ele><time>2026-04-11T13:06:06.958Z</time></trkpt><trkpt lat="42.1692937" lon="13.8278245"><ele>244.0</ele><time>2026-04-11T13:06:07.956Z</time></trkpt><trkpt lat="42.169294" lon="13.8276257"><ele>244.75</ele><time>2026-04-11T13:06:08.95Z</time></trkpt><trkpt lat="42.1693094" lon="13.8274278"><ele>245.5</ele><time>2026-04-11T13:06:09.953Z</time></trkpt><trkpt lat="42.1693361" lon="13.8272373"><ele>246.25</ele><time>2026-04-11T13:06:10.949Z</time></trkpt><trkpt lat="42.1693753" lon="13.8270631"><ele>247.0</ele><time>2026-04-11T13:06:11.958Z</time></trkpt><trkpt lat="42.1694216" lon="13.8269124"><ele>246.66666666666666</ele><time>2026-04-11T13:06:12.949Z</time></trkpt><trkpt lat="42.1694617" lon="13.8267989"><ele>246.33333333333331</ele><time>2026-04-11T13:06:13.95Z</time></trkpt><trkpt lat="42.1695063" lon="13.8266954"><ele>246.0</ele><time>2026-04-11T13:06:14.954Z</time></trkpt><trkpt lat="42.1695539" lon="13.8266032"><ele>245.66666666666669</ele><time>2026-04-11T13:06:15.952Z</time></trkpt><trkpt lat="42.1696039" lon="13.8265199"><ele>245.33333333333334</ele><time>2026-04-11T13:06:16.959Z</time></trkpt><trkpt lat="42.1696506" lon="13.8264376"><ele>245.0</ele><time>2026-04-11T13:06:17.957Z</time></trkpt><trkpt lat="42.1697217" lon="13.8263267"><ele>245.00000000000003</ele><time>2026-04-11T13:06:19.957Z</time></trkpt><trkpt lat="42.169783" lon="13.826261"><ele>245.0</ele><time>2026-04-11T13:06:22.954Z</time></trkpt><trkpt lat="42.1698687" lon="13.8261828"><ele>245.0</ele><time>2026-04-11T13:07:17.963Z</time></trkpt><trkpt lat="42.1699211" lon="13.8261223"><ele>245.0</ele><time>2026-04-11T13:07:18.949Z</time></trkpt><trkpt lat="42.1699738" lon="13.8260605"><ele>245.00000000000003</ele><time>2026-04-11T13:07:19.952Z</time></trkpt><trkpt lat="42.1700308" lon="13.8259869"><ele>245.0</ele><time>2026-04-11T13:07:20.949Z</time></trkpt><trkpt lat="42.1700977" lon="13.8259046"><ele>245.4</ele><time>2026-04-11T13:07:21.95Z</time></trkpt><trkpt lat="42.1701738" lon="13.8258191"><ele>245.8</ele><time>2026-04-11T13:07:22.954Z</time></trkpt><trkpt lat="42.1702525" lon="13.8257304"><ele>246.2</ele><time>2026-04-11T13:07:23.955Z</time></trkpt><trkpt lat="42.1703334" lon="13.8256381"><ele>246.6</ele><time>2026-04-11T13:07:24.956Z</time></trkpt><trkpt lat="42.1704268" lon="13.8255278"><ele>247.0</ele><time>2026-04-11T13:07:25.957Z</time></trkpt><trkpt lat="42.1705266" lon="13.825409"><ele>247.0</ele><time>2026-04-11T13:07:26.957Z</time></trkpt><trkpt lat="42.1706417" lon="13.8252787"><ele>247.0</ele><time>2026-04-11T13:07:27.952Z</time></trkpt><trkpt lat="42.1707581" lon="13.8251374"><ele>247.0</ele><time>2026-04-11T13:07:28.955Z</time></trkpt><trkpt lat="42.1708714" lon="13.82501"><ele>248.0</ele><time>2026-04-11T13:07:29.951Z</time></trkpt><trkpt lat="42.171004" lon="13.8248404"><ele>249.0</ele><time>2026-04-11T13:07:30.958Z</time></trkpt><trkpt lat="42.1711351" lon="13.8246732"><ele>250.0</ele><time>2026-04-11T13:07:31.955Z</time></trkpt><trkpt lat="42.1712683" lon="13.8245229"><ele>250.0</ele><time>2026-04-11T13:07:32.951Z</time></trkpt><trkpt lat="42.1714098" lon="13.8243786"><ele>250.0</ele><time>2026-04-11T13:07:33.954Z</time></trkpt><trkpt lat="42.1715655" lon="13.8242699"><ele>250.0</ele><time>2026-04-11T13:07:34.948Z</time></trkpt><trkpt lat="42.171734" lon="13.8241876"><ele>251.33333333333331</ele><time>2026-04-11T13:07:35.949Z</time></trkpt><trkpt lat="42.1719165" lon="13.824136"><ele>252.66666666666669</ele><time>2026-04-11T13:07:36.949Z</time></trkpt><trkpt lat="42.1721047" lon="13.8241123"><ele>254.0</ele><time>2026-04-11T13:07:37.953Z</time></trkpt><trkpt lat="42.1722991" lon="13.8241323"><ele>255.0</ele><time>2026-04-11T13:07:38.953Z</time></trkpt><trkpt lat="42.1725128" lon="13.8241466"><ele>256.0</ele><time>2026-04-11T13:07:39.95Z</time></trkpt><trkpt lat="42.172729" lon="13.824166"><ele>257.0</ele><time>2026-04-11T13:07:40.951Z</time></trkpt><trkpt lat="42.1729593" lon="13.824187"><ele>256.0</ele><time>2026-04-11T13:07:41.957Z</time></trkpt><trkpt lat="42.1731957" lon="13.8242082"><ele>255.0</ele><time>2026-04-11T13:07:42.951Z</time></trkpt><trkpt lat="42.1734347" lon="13.8242316"><ele>255.0</ele><time>2026-04-11T13:07:43.955Z</time></trkpt><trkpt lat="42.173676" lon="13.8242531"><ele>255.0</ele><time>2026-04-11T13:07:44.948Z</time></trkpt><trkpt lat="42.1739158" lon="13.8242726"><ele>255.5</ele><time>2026-04-11T13:07:45.954Z</time></trkpt><trkpt lat="42.1741548" lon="13.824295"><ele>256.0</ele><time>2026-04-11T13:07:46.955Z</time></trkpt><trkpt lat="42.1744014" lon="13.824313"><ele>255.0</ele><time>2026-04-11T13:07:47.948Z</time></trkpt><trkpt lat="42.1746441" lon="13.8243381"><ele>254.0</ele><time>2026-04-11T13:07:48.948Z</time></trkpt><trkpt lat="42.1748923" lon="13.8243615"><ele>254.0</ele><time>2026-04-11T13:07:49.948Z</time></trkpt><trkpt lat="42.1751437" lon="13.8243829"><ele>254.0</ele><time>2026-04-11T13:07:50.95Z</time></trkpt><trkpt lat="42.1753977" lon="13.8244061"><ele>254.0</ele><time>2026-04-11T13:07:51.944Z</time></trkpt><trkpt lat="42.1756573" lon="13.8244272"><ele>254.0</ele><time>2026-04-11T13:07:52.95Z</time></trkpt><trkpt lat="42.1759227" lon="13.8244481"><ele>256.5</ele><time>2026-04-11T13:07:53.951Z</time></trkpt><trkpt lat="42.1761831" lon="13.8244811"><ele>259.0</ele><time>2026-04-11T13:07:54.946Z</time></trkpt><trkpt lat="42.176419" lon="13.8245059"><ele>261.0</ele><time>2026-04-11T13:07:55.954Z</time></trkpt><trkpt lat="42.1766706" lon="13.8245304"><ele>263.0</ele><time>2026-04-11T13:07:56.956Z</time></trkpt><trkpt lat="42.1769157" lon="13.8245526"><ele>263.0</ele><time>2026-04-11T13:07:57.955Z</time></trkpt><trkpt lat="42.1771544" lon="13.8245726"><ele>263.0</ele><time>2026-04-11T13:07:58.95Z</time></trkpt><trkpt lat="42.1773852" lon="13.8245937"><ele>262.5</ele><time>2026-04-11T13:07:59.95Z</time></trkpt><trkpt lat="42.1776315" lon="13.8246019"><ele>262.0</ele><time>2026-04-11T13:08:00.947Z</time></trkpt><trkpt lat="42.1778518" lon="13.8246281"><ele>262.0</ele><time>2026-04-11T13:08:01.952Z</time></trkpt><trkpt lat="42.1780647" lon="13.8246507"><ele>262.0</ele><time>2026-04-11T13:08:02.953Z</time></trkpt><trkpt lat="42.1782681" lon="13.8246758"><ele>262.0</ele><time>2026-04-11T13:08:03.951Z</time></trkpt><trkpt lat="42.1784557" lon="13.8247021"><ele>263.66666666666663</ele><time>2026-04-11T13:08:04.949Z</time></trkpt><trkpt lat="42.1786328" lon="13.8247317"><ele>265.3333333333333</ele><time>2026-04-11T13:08:05.955Z</time></trkpt><trkpt lat="42.1787708" lon="13.8248187"><ele>267.0</ele><time>2026-04-11T13:08:06.949Z</time></trkpt><trkpt lat="42.1788849" lon="13.8249555"><ele>267.0</ele><time>2026-04-11T13:08:07.957Z</time></trkpt><trkpt lat="42.1789983" lon="13.825076"><ele>267.0</ele><time>2026-04-11T13:08:08.956Z</time></trkpt><trkpt lat="42.1790236" lon="13.8253322"><ele>267.0</ele><time>2026-04-11T13:08:09.952Z</time></trkpt><trkpt lat="42.1790144" lon="13.8255398"><ele>270.3333333333333</ele><time>2026-04-11T13:08:10.956Z</time></trkpt><trkpt lat="42.1789631" lon="13.8257543"><ele>273.66666666666663</ele><time>2026-04-11T13:08:11.949Z</time></trkpt><trkpt lat="42.1788675" lon="13.8259519"><ele>277.0</ele><time>2026-04-11T13:08:12.951Z</time></trkpt><trkpt lat="42.1787716" lon="13.8261393"><ele>282.3333333333333</ele><time>2026-04-11T13:08:13.952Z</time></trkpt><trkpt lat="42.1786427" lon="13.8262898"><ele>287.6666666666667</ele><time>2026-04-11T13:08:14.956Z</time></trkpt><trkpt lat="42.1783963" lon="13.826343"><ele>293.0</ele><time>2026-04-11T13:08:15.95Z</time></trkpt><trkpt lat="42.1782034" lon="13.8264814"><ele>285.5</ele><time>2026-04-11T13:08:16.953Z</time></trkpt><trkpt lat="42.1779876" lon="13.8266172"><ele>278.0</ele><time>2026-04-11T13:08:17.952Z</time></trkpt><trkpt lat="42.1777653" lon="13.8267599"><ele>278.0</ele><time>2026-04-11T13:08:18.952Z</time></trkpt><trkpt lat="42.1775476" lon="13.8269094"><ele>278.0</ele><time>2026-04-11T13:08:19.953Z</time></trkpt><trkpt lat="42.177348" lon="13.8270485"><ele>278.0</ele><time>2026-04-11T13:08:20.95Z</time></trkpt><trkpt lat="42.1771705" lon="13.8271692"><ele>278.0</ele><time>2026-04-11T13:08:21.95Z</time></trkpt><trkpt lat="42.1770324" lon="13.8272681"><ele>278.0</ele><time>2026-04-11T13:08:22.956Z</time></trkpt><trkpt lat="42.176936" lon="13.8273579"><ele>278.0</ele><time>2026-04-11T13:08:23.951Z</time></trkpt><trkpt lat="42.1768904" lon="13.8274613"><ele>278.0</ele><time>2026-04-11T13:08:24.952Z</time></trkpt><trkpt lat="42.1768985" lon="13.8275668"><ele>278.0</ele><time>2026-04-11T13:08:25.956Z</time></trkpt><trkpt lat="42.1769546" lon="13.8276484"><ele>278.0</ele><time>2026-04-11T13:08:26.953Z</time></trkpt><trkpt lat="42.1770478" lon="13.8276691"><ele>278.0</ele><time>2026-04-11T13:08:27.943Z</time></trkpt><trkpt lat="42.177164" lon="13.8276523"><ele>278.0</ele><time>2026-04-11T13:08:28.95Z</time></trkpt><trkpt lat="42.1773291" lon="13.8275716"><ele>278.0</ele><time>2026-04-11T13:08:29.951Z</time></trkpt><trkpt lat="42.1775018" lon="13.8274902"><ele>278.0</ele><time>2026-04-11T13:08:30.954Z</time></trkpt><trkpt lat="42.1776837" lon="13.827404"><ele>289.0</ele><time>2026-04-11T13:08:31.951Z</time></trkpt><trkpt lat="42.1779071" lon="13.8273081"><ele>300.0</ele><time>2026-04-11T13:08:32.951Z</time></trkpt><trkpt lat="42.1781255" lon="13.8272211"><ele>307.0</ele><time>2026-04-11T13:08:33.956Z</time></trkpt><trkpt lat="42.1783394" lon="13.8271611"><ele>314.0</ele><time>2026-04-11T13:08:34.95Z</time></trkpt><trkpt lat="42.178553" lon="13.8271462"><ele>321.0</ele><time>2026-04-11T13:08:35.947Z</time></trkpt><trkpt lat="42.1787694" lon="13.8271671"><ele>321.0</ele><time>2026-04-11T13:08:36.955Z</time></trkpt><trkpt lat="42.1789881" lon="13.8272043"><ele>321.0</ele><time>2026-04-11T13:08:37.949Z</time></trkpt><trkpt lat="42.1791815" lon="13.8272205"><ele>321.0</ele><time>2026-04-11T13:08:38.954Z</time></trkpt><trkpt lat="42.1793683" lon="13.8271986"><ele>324.3333333333333</ele><time>2026-04-11T13:08:39.951Z</time></trkpt><trkpt lat="42.1795447" lon="13.8271004"><ele>327.66666666666663</ele><time>2026-04-11T13:08:40.948Z</time></trkpt><trkpt lat="42.1797102" lon="13.8270074"><ele>331.0</ele><time>2026-04-11T13:08:41.95Z</time></trkpt><trkpt lat="42.1799087" lon="13.8268778"><ele>326.0</ele><time>2026-04-11T13:08:42.949Z</time></trkpt><trkpt lat="42.1801022" lon="13.826723"><ele>321.0</ele><time>2026-04-11T13:08:43.953Z</time></trkpt><trkpt lat="42.1802984" lon="13.8265434"><ele>321.0</ele><time>2026-04-11T13:08:44.953Z</time></trkpt><trkpt lat="42.1804975" lon="13.8263638"><ele>321.0</ele><time>2026-04-11T13:08:45.955Z</time></trkpt><trkpt lat="42.1806963" lon="13.8261864"><ele>321.0</ele><time>2026-04-11T13:08:46.948Z</time></trkpt><trkpt lat="42.1808802" lon="13.8260268"><ele>321.0</ele><time>2026-04-11T13:08:47.949Z</time></trkpt><trkpt lat="42.1810714" lon="13.8258849"><ele>321.0</ele><time>2026-04-11T13:08:48.948Z</time></trkpt><trkpt lat="42.1812624" lon="13.8257816"><ele>321.0</ele><time>2026-04-11T13:08:49.947Z</time></trkpt><trkpt lat="42.1814594" lon="13.8257011"><ele>321.0</ele><time>2026-04-11T13:08:50.952Z</time></trkpt><trkpt lat="42.1816748" lon="13.8256425"><ele>321.0</ele><time>2026-04-11T13:08:51.958Z</time></trkpt><trkpt lat="42.1818981" lon="13.8255809"><ele>329.5</ele><time>2026-04-11T13:08:52.957Z</time></trkpt><trkpt lat="42.1821278" lon="13.8254983"><ele>338.0</ele><time>2026-04-11T13:08:53.952Z</time></trkpt><trkpt lat="42.1823714" lon="13.8253823"><ele>337.5</ele><time>2026-04-11T13:08:54.957Z</time></trkpt><trkpt lat="42.1826108" lon="13.8252551"><ele>337.0</ele><time>2026-04-11T13:08:55.95Z</time></trkpt><trkpt lat="42.182853" lon="13.8251199"><ele>337.0</ele><time>2026-04-11T13:08:56.953Z</time></trkpt><trkpt lat="42.1830943" lon="13.824992"><ele>337.0</ele><time>2026-04-11T13:08:57.952Z</time></trkpt><trkpt lat="42.1832908" lon="13.8248652"><ele>343.66666666666663</ele><time>2026-04-11T13:08:58.956Z</time></trkpt><trkpt lat="42.1834816" lon="13.8247282"><ele>350.3333333333333</ele><time>2026-04-11T13:08:59.95Z</time></trkpt><trkpt lat="42.183647" lon="13.8245703"><ele>357.0</ele><time>2026-04-11T13:09:00.953Z</time></trkpt><trkpt lat="42.1837988" lon="13.8243974"><ele>359.3333333333333</ele><time>2026-04-11T13:09:01.955Z</time></trkpt><trkpt lat="42.1839599" lon="13.8242417"><ele>361.66666666666663</ele><time>2026-04-11T13:09:02.955Z</time></trkpt><trkpt lat="42.1841357" lon="13.8241056"><ele>364.0</ele><time>2026-04-11T13:09:03.956Z</time></trkpt><trkpt lat="42.1843098" lon="13.8239971"><ele>364.0</ele><time>2026-04-11T13:09:04.949Z</time></trkpt><trkpt lat="42.1844868" lon="13.823902"><ele>364.0</ele><time>2026-04-11T13:09:05.949Z</time></trkpt><trkpt lat="42.1846577" lon="13.8238338"><ele>364.0</ele><time>2026-04-11T13:09:06.959Z</time></trkpt><trkpt lat="42.1848276" lon="13.823802"><ele>367.5</ele><time>2026-04-11T13:09:07.951Z</time></trkpt><trkpt lat="42.1849865" lon="13.8238188"><ele>371.0</ele><time>2026-04-11T13:09:08.952Z</time></trkpt><trkpt lat="42.1851243" lon="13.8238925"><ele>374.5</ele><time>2026-04-11T13:09:09.95Z</time></trkpt><trkpt lat="42.1852439" lon="13.8239817"><ele>378.0</ele><time>2026-04-11T13:09:10.953Z</time></trkpt><trkpt lat="42.1853654" lon="13.8240295"><ele>378.0</ele><time>2026-04-11T13:09:11.952Z</time></trkpt><trkpt lat="42.1854911" lon="13.8240056"><ele>378.0</ele><time>2026-04-11T13:09:12.958Z</time></trkpt><trkpt lat="42.185623" lon="13.8239295"><ele>378.0</ele><time>2026-04-11T13:09:13.954Z</time></trkpt><trkpt lat="42.1857771" lon="13.8238164"><ele>378.0</ele><time>2026-04-11T13:09:14.966Z</time></trkpt><trkpt lat="42.185954" lon="13.8236828"><ele>377.3333333333333</ele><time>2026-04-11T13:09:15.953Z</time></trkpt><trkpt lat="42.1861315" lon="13.8235435"><ele>376.66666666666663</ele><time>2026-04-11T13:09:16.957Z</time></trkpt><trkpt lat="42.1863007" lon="13.8234007"><ele>376.0</ele><time>2026-04-11T13:09:17.948Z</time></trkpt><trkpt lat="42.1864469" lon="13.8232789"><ele>379.25</ele><time>2026-04-11T13:09:18.948Z</time></trkpt><trkpt lat="42.1865857" lon="13.8232076"><ele>382.5</ele><time>2026-04-11T13:09:19.948Z</time></trkpt><trkpt lat="42.1867259" lon="13.8231963"><ele>385.75</ele><time>2026-04-11T13:09:20.949Z</time></trkpt><trkpt lat="42.1868698" lon="13.8232442"><ele>389.0</ele><time>2026-04-11T13:09:21.951Z</time></trkpt><trkpt lat="42.187024" lon="13.8233419"><ele>389.0</ele><time>2026-04-11T13:09:22.954Z</time></trkpt><trkpt lat="42.1871877" lon="13.8234541"><ele>389.0</ele><time>2026-04-11T13:09:23.953Z</time></trkpt><trkpt lat="42.187374" lon="13.8235399"><ele>389.0</ele><time>2026-04-11T13:09:24.952Z</time></trkpt><trkpt lat="42.1875701" lon="13.8236125"><ele>392.75</ele><time>2026-04-11T13:09:25.952Z</time></trkpt><trkpt lat="42.1877383" lon="13.8236691"><ele>396.5</ele><time>2026-04-11T13:09:26.951Z</time></trkpt><trkpt lat="42.1878778" lon="13.8237088"><ele>400.25</ele><time>2026-04-11T13:09:27.95Z</time></trkpt><trkpt lat="42.1879862" lon="13.8237356"><ele>404.0</ele><time>2026-04-11T13:09:28.956Z</time></trkpt><trkpt lat="42.1880735" lon="13.8237133"><ele>404.0</ele><time>2026-04-11T13:09:29.953Z</time></trkpt><trkpt lat="42.1881413" lon="13.8236321"><ele>404.0</ele><time>2026-04-11T13:09:30.956Z</time></trkpt><trkpt lat="42.1881976" lon="13.8235311"><ele>404.0</ele><time>2026-04-11T13:09:31.954Z</time></trkpt><trkpt lat="42.1881908" lon="13.8233391"><ele>404.0</ele><time>2026-04-11T13:09:32.949Z</time></trkpt><trkpt lat="42.1881204" lon="13.8230995"><ele>399.66666666666663</ele><time>2026-04-11T13:09:33.95Z</time></trkpt><trkpt lat="42.1880813" lon="13.8228543"><ele>395.33333333333337</ele><time>2026-04-11T13:09:34.95Z</time></trkpt><trkpt lat="42.1880447" lon="13.8225988"><ele>391.0</ele><time>2026-04-11T13:09:35.955Z</time></trkpt><trkpt lat="42.1880231" lon="13.8223536"><ele>387.6666666666667</ele><time>2026-04-11T13:09:36.951Z</time></trkpt><trkpt lat="42.1880291" lon="13.822125"><ele>384.33333333333337</ele><time>2026-04-11T13:09:37.964Z</time></trkpt><trkpt lat="42.1880634" lon="13.821909"><ele>381.0</ele><time>2026-04-11T13:09:38.953Z</time></trkpt><trkpt lat="42.188128" lon="13.8217075"><ele>385.33333333333337</ele><time>2026-04-11T13:09:39.951Z</time></trkpt><trkpt lat="42.188217" lon="13.8215123"><ele>389.6666666666667</ele><time>2026-04-11T13:09:40.955Z</time></trkpt><trkpt lat="42.1883285" lon="13.8213309"><ele>394.0</ele><time>2026-04-11T13:09:41.965Z</time></trkpt><trkpt lat="42.1884561" lon="13.8211608"><ele>394.0</ele><time>2026-04-11T13:09:42.951Z</time></trkpt><trkpt lat="42.1885866" lon="13.8210082"><ele>394.0</ele><time>2026-04-11T13:09:43.953Z</time></trkpt><trkpt lat="42.1887067" lon="13.8208724"><ele>394.0</ele><time>2026-04-11T13:09:44.947Z</time></trkpt><trkpt lat="42.1888186" lon="13.8207404"><ele>393.25</ele><time>2026-04-11T13:09:45.953Z</time></trkpt><trkpt lat="42.1888961" lon="13.8205915"><ele>392.5</ele><time>2026-04-11T13:09:46.953Z</time></trkpt><trkpt lat="42.188937" lon="13.8204239"><ele>391.75</ele><time>2026-04-11T13:09:47.951Z</time></trkpt><trkpt lat="42.1889275" lon="13.820251"><ele>391.0</ele><time>2026-04-11T13:09:48.959Z</time></trkpt><trkpt lat="42.1888601" lon="13.8201112"><ele>391.0</ele><time>2026-04-11T13:09:49.958Z</time></trkpt><trkpt lat="42.1887435" lon="13.8200077"><ele>391.0</ele><time>2026-04-11T13:09:50.954Z</time></trkpt><trkpt lat="42.1885949" lon="13.8199526"><ele>391.0</ele><time>2026-04-11T13:09:51.954Z</time></trkpt><trkpt lat="42.1884325" lon="13.8199149"><ele>391.0</ele><time>2026-04-11T13:09:52.957Z</time></trkpt><trkpt lat="42.1882026" lon="13.8199595"><ele>391.0</ele><time>2026-04-11T13:09:53.964Z</time></trkpt><trkpt lat="42.1880091" lon="13.8200049"><ele>391.0</ele><time>2026-04-11T13:09:54.949Z</time></trkpt><trkpt lat="42.1878305" lon="13.8200517"><ele>390.6666666666667</ele><time>2026-04-11T13:09:55.966Z</time></trkpt><trkpt lat="42.1876642" lon="13.8200791"><ele>390.33333333333337</ele><time>2026-04-11T13:09:56.95Z</time></trkpt><trkpt lat="42.1874889" lon="13.8200795"><ele>390.0</ele><time>2026-04-11T13:09:57.954Z</time></trkpt><trkpt lat="42.187321" lon="13.8200109"><ele>386.3333333333333</ele><time>2026-04-11T13:09:58.951Z</time></trkpt><trkpt lat="42.1871608" lon="13.8199012"><ele>382.66666666666663</ele><time>2026-04-11T13:09:59.955Z</time></trkpt><trkpt lat="42.1870019" lon="13.8197425"><ele>379.0</ele><time>2026-04-11T13:10:00.951Z</time></trkpt><trkpt lat="42.1868591" lon="13.8195573"><ele>379.0</ele><time>2026-04-11T13:10:01.961Z</time></trkpt><trkpt lat="42.1867488" lon="13.8193471"><ele>379.0</ele><time>2026-04-11T13:10:02.953Z</time></trkpt><trkpt lat="42.1866753" lon="13.819104"><ele>379.0</ele><time>2026-04-11T13:10:03.947Z</time></trkpt><trkpt lat="42.186626" lon="13.8188323"><ele>384.66666666666663</ele><time>2026-04-11T13:10:04.953Z</time></trkpt><trkpt lat="42.186584" lon="13.8185487"><ele>390.3333333333333</ele><time>2026-04-11T13:10:05.951Z</time></trkpt><trkpt lat="42.1865606" lon="13.8182529"><ele>396.0</ele><time>2026-04-11T13:10:06.946Z</time></trkpt><trkpt lat="42.1865997" lon="13.817937"><ele>405.5</ele><time>2026-04-11T13:10:07.953Z</time></trkpt><trkpt lat="42.1866454" lon="13.8175994"><ele>415.0</ele><time>2026-04-11T13:10:08.953Z</time></trkpt><trkpt lat="42.1866828" lon="13.8172644"><ele>415.0</ele><time>2026-04-11T13:10:09.951Z</time></trkpt><trkpt lat="42.1867309" lon="13.8169409"><ele>415.0</ele><time>2026-04-11T13:10:10.958Z</time></trkpt><trkpt lat="42.1868172" lon="13.8166137"><ele>415.5</ele><time>2026-04-11T13:10:11.953Z</time></trkpt><trkpt lat="42.1869392" lon="13.8162857"><ele>416.0</ele><time>2026-04-11T13:10:12.965Z</time></trkpt><trkpt lat="42.1870559" lon="13.8159598"><ele>413.5</ele><time>2026-04-11T13:10:13.953Z</time></trkpt><trkpt lat="42.1871623" lon="13.8156223"><ele>411.0</ele><time>2026-04-11T13:10:14.954Z</time></trkpt><trkpt lat="42.1872749" lon="13.8153047"><ele>429.0</ele><time>2026-04-11T13:10:15.953Z</time></trkpt><trkpt lat="42.1873985" lon="13.8150114"><ele>447.0</ele><time>2026-04-11T13:10:16.953Z</time></trkpt><trkpt lat="42.1875179" lon="13.8147464"><ele>447.0</ele><time>2026-04-11T13:10:17.955Z</time></trkpt><trkpt lat="42.1876233" lon="13.8145077"><ele>447.0</ele><time>2026-04-11T13:10:18.949Z</time></trkpt><trkpt lat="42.1877138" lon="13.8142877"><ele>447.0</ele><time>2026-04-11T13:10:19.957Z</time></trkpt><trkpt lat="42.1877931" lon="13.8140935"><ele>445.0</ele><time>2026-04-11T13:10:20.951Z</time></trkpt><trkpt lat="42.1878653" lon="13.8139205"><ele>443.0</ele><time>2026-04-11T13:10:21.949Z</time></trkpt><trkpt lat="42.1879376" lon="13.8137611"><ele>441.0</ele><time>2026-04-11T13:10:22.95Z</time></trkpt><trkpt lat="42.1880051" lon="13.8136053"><ele>439.0</ele><time>2026-04-11T13:10:23.961Z</time></trkpt><trkpt lat="42.1880647" lon="13.8134558"><ele>437.79999999999995</ele><time>2026-04-11T13:10:24.954Z</time></trkpt><trkpt lat="42.1881167" lon="13.8133252"><ele>436.59999999999997</ele><time>2026-04-11T13:10:25.95Z</time></trkpt><trkpt lat="42.188159" lon="13.8132083"><ele>435.4</ele><time>2026-04-11T13:10:26.951Z</time></trkpt><trkpt lat="42.1881963" lon="13.8131023"><ele>434.2</ele><time>2026-04-11T13:10:27.958Z</time></trkpt><trkpt lat="42.1882389" lon="13.8130011"><ele>433.0</ele><time>2026-04-11T13:10:28.955Z</time></trkpt><trkpt lat="42.1882829" lon="13.8128881"><ele>435.4</ele><time>2026-04-11T13:10:29.951Z</time></trkpt><trkpt lat="42.1883007" lon="13.8127618"><ele>437.79999999999995</ele><time>2026-04-11T13:10:30.953Z</time></trkpt><trkpt lat="42.188283" lon="13.8126365"><ele>440.2</ele><time>2026-04-11T13:10:31.951Z</time></trkpt><trkpt lat="42.1882197" lon="13.8125027"><ele>442.6</ele><time>2026-04-11T13:10:32.952Z</time></trkpt><trkpt lat="42.1881345" lon="13.8123705"><ele>445.0</ele><time>2026-04-11T13:10:33.951Z</time></trkpt><trkpt lat="42.1880583" lon="13.8122423"><ele>445.0</ele><time>2026-04-11T13:10:34.955Z</time></trkpt><trkpt lat="42.1879942" lon="13.8121208"><ele>445.0</ele><time>2026-04-11T13:10:35.956Z</time></trkpt><trkpt lat="42.1879341" lon="13.8120094"><ele>445.0</ele><time>2026-04-11T13:10:36.95Z</time></trkpt><trkpt lat="42.1878813" lon="13.8118996"><ele>445.0</ele><time>2026-04-11T13:10:37.95Z</time></trkpt><trkpt lat="42.1878326" lon="13.8117793"><ele>445.0</ele><time>2026-04-11T13:10:38.956Z</time></trkpt><trkpt lat="42.1877888" lon="13.8116484"><ele>449.0</ele><time>2026-04-11T13:10:39.948Z</time></trkpt><trkpt lat="42.1877606" lon="13.811517"><ele>453.0</ele><time>2026-04-11T13:10:40.95Z</time></trkpt><trkpt lat="42.1877473" lon="13.8113751"><ele>457.0</ele><time>2026-04-11T13:10:41.959Z</time></trkpt><trkpt lat="42.187751" lon="13.811196"><ele>461.0</ele><time>2026-04-11T13:10:42.952Z</time></trkpt><trkpt lat="42.1877677" lon="13.81098"><ele>463.3333333333333</ele><time>2026-04-11T13:10:43.955Z</time></trkpt><trkpt lat="42.187788" lon="13.8107355"><ele>465.66666666666663</ele><time>2026-04-11T13:10:44.953Z</time></trkpt><trkpt lat="42.1878135" lon="13.8104769"><ele>468.0</ele><time>2026-04-11T13:10:45.951Z</time></trkpt><trkpt lat="42.1878228" lon="13.8102234"><ele>467.66666666666663</ele><time>2026-04-11T13:10:46.955Z</time></trkpt><trkpt lat="42.1878263" lon="13.8099924"><ele>467.3333333333333</ele><time>2026-04-11T13:10:47.953Z</time></trkpt><trkpt lat="42.1878356" lon="13.809786"><ele>467.0</ele><time>2026-04-11T13:10:48.949Z</time></trkpt><trkpt lat="42.1879113" lon="13.8096092"><ele>467.0</ele><time>2026-04-11T13:10:49.953Z</time></trkpt><trkpt lat="42.1880134" lon="13.8094415"><ele>467.0</ele><time>2026-04-11T13:10:50.951Z</time></trkpt><trkpt lat="42.1881311" lon="13.8092532"><ele>467.0</ele><time>2026-04-11T13:10:51.953Z</time></trkpt><trkpt lat="42.1882493" lon="13.8090604"><ele>475.25</ele><time>2026-04-11T13:10:52.96Z</time></trkpt><trkpt lat="42.1883383" lon="13.8088772"><ele>483.5</ele><time>2026-04-11T13:10:53.958Z</time></trkpt><trkpt lat="42.1883998" lon="13.8087003"><ele>491.75</ele><time>2026-04-11T13:10:54.959Z</time></trkpt><trkpt lat="42.1884172" lon="13.8085348"><ele>500.0</ele><time>2026-04-11T13:10:55.956Z</time></trkpt><trkpt lat="42.1883826" lon="13.8083742"><ele>500.66666666666663</ele><time>2026-04-11T13:10:56.953Z</time></trkpt><trkpt lat="42.1882941" lon="13.8082172"><ele>501.33333333333337</ele><time>2026-04-11T13:10:57.946Z</time></trkpt><trkpt lat="42.1881699" lon="13.8080526"><ele>502.0</ele><time>2026-04-11T13:10:58.948Z</time></trkpt><trkpt lat="42.1880484" lon="13.8078665"><ele>495.6666666666667</ele><time>2026-04-11T13:10:59.949Z</time></trkpt><trkpt lat="42.1879487" lon="13.8076453"><ele>489.33333333333337</ele><time>2026-04-11T13:11:00.943Z</time></trkpt><trkpt lat="42.1878891" lon="13.8074055"><ele>483.0</ele><time>2026-04-11T13:11:01.95Z</time></trkpt><trkpt lat="42.1878678" lon="13.807132"><ele>488.5</ele><time>2026-04-11T13:11:02.948Z</time></trkpt><trkpt lat="42.1878595" lon="13.8068241"><ele>494.0</ele><time>2026-04-11T13:11:03.959Z</time></trkpt><trkpt lat="42.1878544" lon="13.8064961"><ele>494.0</ele><time>2026-04-11T13:11:04.952Z</time></trkpt><trkpt lat="42.1878774" lon="13.8061736"><ele>494.0</ele><time>2026-04-11T13:11:05.95Z</time></trkpt><trkpt lat="42.187926" lon="13.8058932"><ele>495.0</ele><time>2026-04-11T13:11:06.948Z</time></trkpt><trkpt lat="42.1879948" lon="13.8056703"><ele>496.0</ele><time>2026-04-11T13:11:07.95Z</time></trkpt><trkpt lat="42.1880563" lon="13.8055159"><ele>497.0</ele><time>2026-04-11T13:11:08.962Z</time></trkpt><trkpt lat="42.1880781" lon="13.8053619"><ele>498.0</ele><time>2026-04-11T13:11:09.951Z</time></trkpt><trkpt lat="42.1880671" lon="13.8051986"><ele>501.0</ele><time>2026-04-11T13:11:10.96Z</time></trkpt><trkpt lat="42.1880557" lon="13.8050317"><ele>504.0</ele><time>2026-04-11T13:11:11.957Z</time></trkpt><trkpt lat="42.1878917" lon="13.8047948"><ele>507.0</ele><time>2026-04-11T13:11:12.957Z</time></trkpt><trkpt lat="42.1877754" lon="13.8045501"><ele>513.6666666666666</ele><time>2026-04-11T13:11:13.954Z</time></trkpt><trkpt lat="42.1876769" lon="13.8042914"><ele>520.3333333333333</ele><time>2026-04-11T13:11:14.952Z</time></trkpt><trkpt lat="42.1875889" lon="13.8040149"><ele>527.0</ele><time>2026-04-11T13:11:15.952Z</time></trkpt><trkpt lat="42.1875132" lon="13.8036979"><ele>536.0</ele><time>2026-04-11T13:11:16.957Z</time></trkpt><trkpt lat="42.1874492" lon="13.8033553"><ele>545.0</ele><time>2026-04-11T13:11:17.954Z</time></trkpt><trkpt lat="42.1873782" lon="13.8030131"><ele>534.0</ele><time>2026-04-11T13:11:18.956Z</time></trkpt><trkpt lat="42.1873344" lon="13.8027222"><ele>523.0</ele><time>2026-04-11T13:11:19.951Z</time></trkpt><trkpt lat="42.1873136" lon="13.8024565"><ele>512.0</ele><time>2026-04-11T13:11:20.954Z</time></trkpt><trkpt lat="42.1873268" lon="13.8021636"><ele>527.6666666666666</ele><time>2026-04-11T13:11:21.947Z</time></trkpt><trkpt lat="42.1873677" lon="13.801865"><ele>543.3333333333334</ele><time>2026-04-11T13:11:22.951Z</time></trkpt><trkpt lat="42.1874349" lon="13.8015915"><ele>559.0</ele><time>2026-04-11T13:11:23.954Z</time></trkpt><trkpt lat="42.187487" lon="13.8013525"><ele>560.75</ele><time>2026-04-11T13:11:24.948Z</time></trkpt><trkpt lat="42.1875107" lon="13.8011484"><ele>562.5</ele><time>2026-04-11T13:11:25.947Z</time></trkpt><trkpt lat="42.1874927" lon="13.8009577"><ele>564.25</ele><time>2026-04-11T13:11:26.956Z</time></trkpt><trkpt lat="42.1874255" lon="13.800789"><ele>566.0</ele><time>2026-04-11T13:11:27.95Z</time></trkpt><trkpt lat="42.187318" lon="13.8006263"><ele>563.3333333333333</ele><time>2026-04-11T13:11:28.95Z</time></trkpt><trkpt lat="42.1871829" lon="13.8004481"><ele>560.6666666666666</ele><time>2026-04-11T13:11:29.949Z</time></trkpt><trkpt lat="42.1870652" lon="13.8002611"><ele>558.0</ele><time>2026-04-11T13:11:30.947Z</time></trkpt><trkpt lat="42.1869626" lon="13.8000532"><ele>558.0</ele><time>2026-04-11T13:11:31.955Z</time></trkpt><trkpt lat="42.1868711" lon="13.7998432"><ele>558.0</ele><time>2026-04-11T13:11:32.954Z</time></trkpt><trkpt lat="42.18679" lon="13.7996401"><ele>558.0</ele><time>2026-04-11T13:11:33.949Z</time></trkpt><trkpt lat="42.1867198" lon="13.7994436"><ele>564.0</ele><time>2026-04-11T13:11:34.951Z</time></trkpt><trkpt lat="42.1866742" lon="13.7992443"><ele>570.0</ele><time>2026-04-11T13:11:35.96Z</time></trkpt><trkpt lat="42.1866455" lon="13.7990582"><ele>576.0</ele><time>2026-04-11T13:11:36.955Z</time></trkpt><trkpt lat="42.186621" lon="13.7988807"><ele>582.0</ele><time>2026-04-11T13:11:37.954Z</time></trkpt><trkpt lat="42.1866044" lon="13.7987068"><ele>582.0</ele><time>2026-04-11T13:11:38.95Z</time></trkpt><trkpt lat="42.186582" lon="13.7985337"><ele>582.0</ele><time>2026-04-11T13:11:39.955Z</time></trkpt><trkpt lat="42.1865623" lon="13.7983603"><ele>582.0</ele><time>2026-04-11T13:11:40.953Z</time></trkpt><trkpt lat="42.1865447" lon="13.7981938"><ele>582.0</ele><time>2026-04-11T13:11:41.953Z</time></trkpt><trkpt lat="42.1865239" lon="13.7980304"><ele>579.75</ele><time>2026-04-11T13:11:42.95Z</time></trkpt><trkpt lat="42.1865024" lon="13.7978681"><ele>577.5</ele><time>2026-04-11T13:11:43.954Z</time></trkpt><trkpt lat="42.1864765" lon="13.7977093"><ele>575.25</ele><time>2026-04-11T13:11:44.954Z</time></trkpt><trkpt lat="42.186435" lon="13.7975552"><ele>573.0</ele><time>2026-04-11T13:11:45.956Z</time></trkpt><trkpt lat="42.1863584" lon="13.7974208"><ele>573.0</ele><time>2026-04-11T13:11:46.951Z</time></trkpt><trkpt lat="42.1862684" lon="13.7972887"><ele>573.0</ele><time>2026-04-11T13:11:47.951Z</time></trkpt><trkpt lat="42.1861759" lon="13.7971572"><ele>573.0</ele><time>2026-04-11T13:11:48.953Z</time></trkpt><trkpt lat="42.1860908" lon="13.7970213"><ele>573.0</ele><time>2026-04-11T13:11:49.941Z</time></trkpt><trkpt lat="42.1860174" lon="13.7968796"><ele>577.1999999999999</ele><time>2026-04-11T13:11:50.954Z</time></trkpt><trkpt lat="42.1859611" lon="13.7967571"><ele>581.4</ele><time>2026-04-11T13:11:51.951Z</time></trkpt><trkpt lat="42.185909" lon="13.7966487"><ele>585.5999999999999</ele><time>2026-04-11T13:11:52.961Z</time></trkpt><trkpt lat="42.1858658" lon="13.7965538"><ele>589.8</ele><time>2026-04-11T13:11:53.948Z</time></trkpt><trkpt lat="42.1858328" lon="13.7964727"><ele>594.0</ele><time>2026-04-11T13:11:54.95Z</time></trkpt><trkpt lat="42.1858181" lon="13.7963095"><ele>594.0</ele><time>2026-04-11T13:11:56.948Z</time></trkpt><trkpt lat="42.185853" lon="13.7962383"><ele>594.0</ele><time>2026-04-11T13:11:57.953Z</time></trkpt><trkpt lat="42.1859734" lon="13.7962287"><ele>594.0</ele><time>2026-04-11T13:11:59.947Z</time></trkpt><trkpt lat="42.1860282" lon="13.7963102"><ele>594.0</ele><time>2026-04-11T13:12:00.946Z</time></trkpt><trkpt lat="42.1860731" lon="13.7964403"><ele>594.0</ele><time>2026-04-11T13:12:01.949Z</time></trkpt><trkpt lat="42.186127" lon="13.7965959"><ele>594.0</ele><time>2026-04-11T13:12:02.954Z</time></trkpt><trkpt lat="42.1862022" lon="13.7967288"><ele>594.0</ele><time>2026-04-11T13:12:03.955Z</time></trkpt><trkpt lat="42.1862823" lon="13.7968429"><ele>594.0</ele><time>2026-04-11T13:12:04.95Z</time></trkpt><trkpt lat="42.1863708" lon="13.7969367"><ele>594.0</ele><time>2026-04-11T13:12:05.95Z</time></trkpt><trkpt lat="42.1864716" lon="13.7970196"><ele>598.0</ele><time>2026-04-11T13:12:06.954Z</time></trkpt><trkpt lat="42.1865729" lon="13.797109"><ele>602.0</ele><time>2026-04-11T13:12:07.949Z</time></trkpt><trkpt lat="42.1866703" lon="13.7972325"><ele>606.0</ele><time>2026-04-11T13:12:08.948Z</time></trkpt><trkpt lat="42.1867538" lon="13.7973868"><ele>610.0</ele><time>2026-04-11T13:12:09.954Z</time></trkpt><trkpt lat="42.1868163" lon="13.7975745"><ele>605.6666666666667</ele><time>2026-04-11T13:12:10.952Z</time></trkpt><trkpt lat="42.186872" lon="13.7977689"><ele>601.3333333333334</ele><time>2026-04-11T13:12:11.952Z</time></trkpt><trkpt lat="42.1869277" lon="13.7979721"><ele>597.0</ele><time>2026-04-11T13:12:12.948Z</time></trkpt><trkpt lat="42.1869881" lon="13.7981692"><ele>597.0</ele><time>2026-04-11T13:12:13.947Z</time></trkpt><trkpt lat="42.1870574" lon="13.7983586"><ele>597.0</ele><time>2026-04-11T13:12:14.955Z</time></trkpt><trkpt lat="42.1871298" lon="13.7985206"><ele>597.0</ele><time>2026-04-11T13:12:15.952Z</time></trkpt><trkpt lat="42.1872072" lon="13.7986772"><ele>597.0</ele><time>2026-04-11T13:12:16.953Z</time></trkpt><trkpt lat="42.1872957" lon="13.7988239"><ele>606.3333333333334</ele><time>2026-04-11T13:12:17.955Z</time></trkpt><trkpt lat="42.1874015" lon="13.7989654"><ele>615.6666666666667</ele><time>2026-04-11T13:12:18.957Z</time></trkpt><trkpt lat="42.1875231" lon="13.7990999"><ele>625.0</ele><time>2026-04-11T13:12:19.954Z</time></trkpt><trkpt lat="42.1876492" lon="13.7992239"><ele>624.25</ele><time>2026-04-11T13:12:20.95Z</time></trkpt><trkpt lat="42.1877746" lon="13.7993456"><ele>623.5</ele><time>2026-04-11T13:12:21.952Z</time></trkpt><trkpt lat="42.1879009" lon="13.7994458"><ele>622.75</ele><time>2026-04-11T13:12:22.951Z</time></trkpt><trkpt lat="42.1880301" lon="13.7995329"><ele>622.0</ele><time>2026-04-11T13:12:23.953Z</time></trkpt><trkpt lat="42.188181" lon="13.7996001"><ele>622.0</ele><time>2026-04-11T13:12:24.952Z</time></trkpt><trkpt lat="42.1883454" lon="13.7996543"><ele>622.0</ele><time>2026-04-11T13:12:25.958Z</time></trkpt><trkpt lat="42.1885193" lon="13.7996958"><ele>622.0</ele><time>2026-04-11T13:12:26.956Z</time></trkpt><trkpt lat="42.1886851" lon="13.7997462"><ele>622.0</ele><time>2026-04-11T13:12:27.953Z</time></trkpt><trkpt lat="42.1888508" lon="13.7998073"><ele>622.0</ele><time>2026-04-11T13:12:28.952Z</time></trkpt><trkpt lat="42.1890037" lon="13.7999163"><ele>622.0</ele><time>2026-04-11T13:12:29.953Z</time></trkpt><trkpt lat="42.1891419" lon="13.8000316"><ele>626.3333333333334</ele><time>2026-04-11T13:12:30.959Z</time></trkpt><trkpt lat="42.1892771" lon="13.8001468"><ele>630.6666666666666</ele><time>2026-04-11T13:12:31.952Z</time></trkpt><trkpt lat="42.1894083" lon="13.8002561"><ele>635.0</ele><time>2026-04-11T13:12:32.953Z</time></trkpt><trkpt lat="42.1895341" lon="13.8003423"><ele>635.0</ele><time>2026-04-11T13:12:33.95Z</time></trkpt><trkpt lat="42.1896553" lon="13.8004114"><ele>635.0</ele><time>2026-04-11T13:12:34.953Z</time></trkpt><trkpt lat="42.189772" lon="13.8004682"><ele>635.0</ele><time>2026-04-11T13:12:35.964Z</time></trkpt><trkpt lat="42.1898835" lon="13.8005015"><ele>635.0</ele><time>2026-04-11T13:12:36.955Z</time></trkpt><trkpt lat="42.1899875" lon="13.8005207"><ele>637.6</ele><time>2026-04-11T13:12:37.948Z</time></trkpt><trkpt lat="42.1900852" lon="13.800527"><ele>640.2</ele><time>2026-04-11T13:12:38.944Z</time></trkpt><trkpt lat="42.1901707" lon="13.8005094"><ele>642.8</ele><time>2026-04-11T13:12:39.95Z</time></trkpt><trkpt lat="42.1902455" lon="13.8004472"><ele>645.4</ele><time>2026-04-11T13:12:40.95Z</time></trkpt><trkpt lat="42.1903004" lon="13.8003414"><ele>648.0</ele><time>2026-04-11T13:12:41.953Z</time></trkpt><trkpt lat="42.1903542" lon="13.8001897"><ele>649.0</ele><time>2026-04-11T13:12:42.952Z</time></trkpt><trkpt lat="42.1904223" lon="13.8000014"><ele>650.0</ele><time>2026-04-11T13:12:43.951Z</time></trkpt><trkpt lat="42.190506" lon="13.7997902"><ele>651.0</ele><time>2026-04-11T13:12:44.955Z</time></trkpt><trkpt lat="42.1905933" lon="13.7995516"><ele>652.5</ele><time>2026-04-11T13:12:45.948Z</time></trkpt><trkpt lat="42.1906879" lon="13.7992778"><ele>654.0</ele><time>2026-04-11T13:12:46.966Z</time></trkpt><trkpt lat="42.19078" lon="13.7989969"><ele>654.0</ele><time>2026-04-11T13:12:47.95Z</time></trkpt><trkpt lat="42.1908754" lon="13.7986961"><ele>654.0</ele><time>2026-04-11T13:12:48.949Z</time></trkpt><trkpt lat="42.1909593" lon="13.7984098"><ele>657.3333333333334</ele><time>2026-04-11T13:12:49.957Z</time></trkpt><trkpt lat="42.1910237" lon="13.7981344"><ele>660.6666666666667</ele><time>2026-04-11T13:12:50.959Z</time></trkpt><trkpt lat="42.1910631" lon="13.7978737"><ele>664.0</ele><time>2026-04-11T13:12:51.951Z</time></trkpt><trkpt lat="42.1910744" lon="13.79765"><ele>664.0</ele><time>2026-04-11T13:12:52.947Z</time></trkpt><trkpt lat="42.191074" lon="13.7974643"><ele>664.0</ele><time>2026-04-11T13:12:53.955Z</time></trkpt><trkpt lat="42.1911024" lon="13.7973109"><ele>664.0</ele><time>2026-04-11T13:12:54.952Z</time></trkpt><trkpt lat="42.1911469" lon="13.7971646"><ele>664.0</ele><time>2026-04-11T13:12:55.95Z</time></trkpt><trkpt lat="42.191231" lon="13.7970414"><ele>664.0</ele><time>2026-04-11T13:12:56.947Z</time></trkpt><trkpt lat="42.1914296" lon="13.7968973"><ele>664.0</ele><time>2026-04-11T13:12:57.95Z</time></trkpt><trkpt lat="42.1915945" lon="13.7967399"><ele>664.0</ele><time>2026-04-11T13:12:58.96Z</time></trkpt><trkpt lat="42.1917602" lon="13.7965751"><ele>663.3333333333334</ele><time>2026-04-11T13:12:59.95Z</time></trkpt><trkpt lat="42.1919069" lon="13.7964366"><ele>662.6666666666666</ele><time>2026-04-11T13:13:00.961Z</time></trkpt><trkpt lat="42.1920201" lon="13.7962932"><ele>662.0</ele><time>2026-04-11T13:13:01.959Z</time></trkpt><trkpt lat="42.1921012" lon="13.7960938"><ele>666.0</ele><time>2026-04-11T13:13:02.951Z</time></trkpt><trkpt lat="42.192155" lon="13.7958599"><ele>670.0</ele><time>2026-04-11T13:13:03.956Z</time></trkpt><trkpt lat="42.1922033" lon="13.7955971"><ele>674.0</ele><time>2026-04-11T13:13:04.953Z</time></trkpt><trkpt lat="42.192248" lon="13.7953468"><ele>675.0</ele><time>2026-04-11T13:13:05.959Z</time></trkpt><trkpt lat="42.1922631" lon="13.7951179"><ele>676.0</ele><time>2026-04-11T13:13:06.955Z</time></trkpt><trkpt lat="42.1922401" lon="13.7949141"><ele>677.0</ele><time>2026-04-11T13:13:07.955Z</time></trkpt><trkpt lat="42.1921784" lon="13.7947397"><ele>677.0</ele><time>2026-04-11T13:13:08.95Z</time></trkpt><trkpt lat="42.1920685" lon="13.79458"><ele>677.0</ele><time>2026-04-11T13:13:09.953Z</time></trkpt><trkpt lat="42.1919338" lon="13.7944272"><ele>677.0</ele><time>2026-04-11T13:13:10.955Z</time></trkpt><trkpt lat="42.1918039" lon="13.7942672"><ele>675.6666666666666</ele><time>2026-04-11T13:13:11.951Z</time></trkpt><trkpt lat="42.1916802" lon="13.7940891"><ele>674.3333333333334</ele><time>2026-04-11T13:13:12.954Z</time></trkpt><trkpt lat="42.1915745" lon="13.7938906"><ele>673.0</ele><time>2026-04-11T13:13:13.953Z</time></trkpt><trkpt lat="42.1914905" lon="13.7936569"><ele>681.3333333333334</ele><time>2026-04-11T13:13:14.95Z</time></trkpt><trkpt lat="42.1914288" lon="13.7933927"><ele>689.6666666666666</ele><time>2026-04-11T13:13:15.949Z</time></trkpt><trkpt lat="42.1913818" lon="13.7931084"><ele>698.0</ele><time>2026-04-11T13:13:16.954Z</time></trkpt><trkpt lat="42.1913417" lon="13.7928435"><ele>696.25</ele><time>2026-04-11T13:13:17.95Z</time></trkpt><trkpt lat="42.1913206" lon="13.7926217"><ele>694.5</ele><time>2026-04-11T13:13:18.95Z</time></trkpt><trkpt lat="42.1913223" lon="13.7924417"><ele>692.75</ele><time>2026-04-11T13:13:19.948Z</time></trkpt><trkpt lat="42.1913488" lon="13.7922927"><ele>691.0</ele><time>2026-04-11T13:13:20.954Z</time></trkpt><trkpt lat="42.1914397" lon="13.7921861"><ele>684.0</ele><time>2026-04-11T13:13:21.948Z</time></trkpt><trkpt lat="42.1915514" lon="13.7920939"><ele>677.0</ele><time>2026-04-11T13:13:22.952Z</time></trkpt><trkpt lat="42.1917492" lon="13.7920224"><ele>670.0</ele><time>2026-04-11T13:13:23.953Z</time></trkpt><trkpt lat="42.1919309" lon="13.7919359"><ele>670.0</ele><time>2026-04-11T13:13:24.959Z</time></trkpt><trkpt lat="42.1921095" lon="13.7918468"><ele>670.0</ele><time>2026-04-11T13:13:25.957Z</time></trkpt><trkpt lat="42.1922774" lon="13.7917575"><ele>670.0</ele><time>2026-04-11T13:13:26.952Z</time></trkpt><trkpt lat="42.1924043" lon="13.7916748"><ele>672.0</ele><time>2026-04-11T13:13:27.949Z</time></trkpt><trkpt lat="42.1925068" lon="13.7915549"><ele>674.0</ele><time>2026-04-11T13:13:28.955Z</time></trkpt><trkpt lat="42.1925732" lon="13.7913859"><ele>676.0</ele><time>2026-04-11T13:13:29.951Z</time></trkpt><trkpt lat="42.192588" lon="13.7911987"><ele>678.0</ele><time>2026-04-11T13:13:30.954Z</time></trkpt><trkpt lat="42.1925749" lon="13.7909849"><ele>679.6666666666666</ele><time>2026-04-11T13:13:31.944Z</time></trkpt><trkpt lat="42.1925575" lon="13.7907635"><ele>681.3333333333333</ele><time>2026-04-11T13:13:32.946Z</time></trkpt><trkpt lat="42.1925546" lon="13.7905592"><ele>683.0</ele><time>2026-04-11T13:13:33.947Z</time></trkpt><trkpt lat="42.1925533" lon="13.790356"><ele>686.0</ele><time>2026-04-11T13:13:34.946Z</time></trkpt><trkpt lat="42.1925892" lon="13.7901547"><ele>689.0</ele><time>2026-04-11T13:13:35.951Z</time></trkpt><trkpt lat="42.1926659" lon="13.7899673"><ele>692.0</ele><time>2026-04-11T13:13:36.954Z</time></trkpt><trkpt lat="42.1927833" lon="13.7897951"><ele>692.0</ele><time>2026-04-11T13:13:37.952Z</time></trkpt><trkpt lat="42.1930111" lon="13.7896665"><ele>692.0</ele><time>2026-04-11T13:13:38.95Z</time></trkpt><trkpt lat="42.1931614" lon="13.7895211"><ele>692.0</ele><time>2026-04-11T13:13:39.95Z</time></trkpt><trkpt lat="42.1932604" lon="13.789332"><ele>689.0</ele><time>2026-04-11T13:13:40.95Z</time></trkpt><trkpt lat="42.1933299" lon="13.7891131"><ele>686.0</ele><time>2026-04-11T13:13:41.96Z</time></trkpt><trkpt lat="42.1933622" lon="13.7888665"><ele>683.0</ele><time>2026-04-11T13:13:42.95Z</time></trkpt><trkpt lat="42.193372" lon="13.7886236"><ele>684.5</ele><time>2026-04-11T13:13:43.954Z</time></trkpt><trkpt lat="42.1933728" lon="13.7884119"><ele>686.0</ele><time>2026-04-11T13:13:44.955Z</time></trkpt><trkpt lat="42.1933817" lon="13.7882357"><ele>687.5</ele><time>2026-04-11T13:13:45.953Z</time></trkpt><trkpt lat="42.1933974" lon="13.7880696"><ele>689.0</ele><time>2026-04-11T13:13:46.949Z</time></trkpt><trkpt lat="42.1934326" lon="13.7879347"><ele>689.0</ele><time>2026-04-11T13:13:47.952Z</time></trkpt><trkpt lat="42.1935291" lon="13.7878307"><ele>689.0</ele><time>2026-04-11T13:13:48.95Z</time></trkpt><trkpt lat="42.1937472" lon="13.7878255"><ele>689.0</ele><time>2026-04-11T13:13:49.956Z</time></trkpt><trkpt lat="42.1939215" lon="13.7878291"><ele>684.3333333333333</ele><time>2026-04-11T13:13:50.953Z</time></trkpt><trkpt lat="42.1940997" lon="13.7878281"><ele>679.6666666666666</ele><time>2026-04-11T13:13:51.95Z</time></trkpt><trkpt lat="42.1942744" lon="13.7878"><ele>675.0</ele><time>2026-04-11T13:13:52.954Z</time></trkpt><trkpt lat="42.1944311" lon="13.7877283"><ele>684.3333333333334</ele><time>2026-04-11T13:13:53.952Z</time></trkpt><trkpt lat="42.1945623" lon="13.7876132"><ele>693.6666666666667</ele><time>2026-04-11T13:13:54.947Z</time></trkpt><trkpt lat="42.1946841" lon="13.7874348"><ele>703.0</ele><time>2026-04-11T13:13:55.956Z</time></trkpt><trkpt lat="42.1948029" lon="13.7872223"><ele>705.3333333333334</ele><time>2026-04-11T13:13:56.953Z</time></trkpt><trkpt lat="42.1949336" lon="13.787007"><ele>707.6666666666666</ele><time>2026-04-11T13:13:57.954Z</time></trkpt><trkpt lat="42.1950727" lon="13.786791"><ele>710.0</ele><time>2026-04-11T13:13:58.95Z</time></trkpt><trkpt lat="42.1952185" lon="13.7865896"><ele>710.0</ele><time>2026-04-11T13:13:59.949Z</time></trkpt><trkpt lat="42.1953556" lon="13.7864219"><ele>710.0</ele><time>2026-04-11T13:14:00.956Z</time></trkpt><trkpt lat="42.1954885" lon="13.7862872"><ele>710.0</ele><time>2026-04-11T13:14:01.946Z</time></trkpt><trkpt lat="42.1956374" lon="13.7861993"><ele>704.0</ele><time>2026-04-11T13:14:02.948Z</time></trkpt><trkpt lat="42.1957969" lon="13.7861689"><ele>698.0</ele><time>2026-04-11T13:14:03.959Z</time></trkpt><trkpt lat="42.1959775" lon="13.7861905"><ele>692.0</ele><time>2026-04-11T13:14:04.951Z</time></trkpt><trkpt lat="42.1961795" lon="13.7862352"><ele>692.0</ele><time>2026-04-11T13:14:05.955Z</time></trkpt><trkpt lat="42.1963971" lon="13.7863047"><ele>692.0</ele><time>2026-04-11T13:14:06.951Z</time></trkpt><trkpt lat="42.1966281" lon="13.7863723"><ele>698.5</ele><time>2026-04-11T13:14:07.953Z</time></trkpt><trkpt lat="42.1968603" lon="13.7864444"><ele>705.0</ele><time>2026-04-11T13:14:08.951Z</time></trkpt><trkpt lat="42.1970756" lon="13.7865063"><ele>705.0</ele><time>2026-04-11T13:14:09.952Z</time></trkpt><trkpt lat="42.197266" lon="13.7865772"><ele>705.0</ele><time>2026-04-11T13:14:10.952Z</time></trkpt><trkpt lat="42.1974276" lon="13.7866591"><ele>705.0</ele><time>2026-04-11T13:14:11.948Z</time></trkpt><trkpt lat="42.1975625" lon="13.7867806"><ele>705.0</ele><time>2026-04-11T13:14:12.958Z</time></trkpt><trkpt lat="42.1976816" lon="13.7869653"><ele>705.0</ele><time>2026-04-11T13:14:13.949Z</time></trkpt><trkpt lat="42.1978083" lon="13.7871742"><ele>705.0</ele><time>2026-04-11T13:14:14.96Z</time></trkpt><trkpt lat="42.1979667" lon="13.7873746"><ele>705.0</ele><time>2026-04-11T13:14:15.947Z</time></trkpt><trkpt lat="42.19813" lon="13.7875943"><ele>705.0</ele><time>2026-04-11T13:14:16.948Z</time></trkpt><trkpt lat="42.1982682" lon="13.7878522"><ele>705.0</ele><time>2026-04-11T13:14:17.954Z</time></trkpt><trkpt lat="42.1983858" lon="13.7881181"><ele>705.0</ele><time>2026-04-11T13:14:18.951Z</time></trkpt><trkpt lat="42.1984959" lon="13.7883557"><ele>705.0</ele><time>2026-04-11T13:14:19.96Z</time></trkpt><trkpt lat="42.1986041" lon="13.7885577"><ele>705.0</ele><time>2026-04-11T13:14:20.953Z</time></trkpt><trkpt lat="42.1987046" lon="13.7887118"><ele>705.0</ele><time>2026-04-11T13:14:21.949Z</time></trkpt><trkpt lat="42.198796" lon="13.788819"><ele>705.0</ele><time>2026-04-11T13:14:22.966Z</time></trkpt><trkpt lat="42.1988827" lon="13.7888773"><ele>705.0</ele><time>2026-04-11T13:14:23.951Z</time></trkpt><trkpt lat="42.1989508" lon="13.7888637"><ele>705.0</ele><time>2026-04-11T13:14:24.957Z</time></trkpt><trkpt lat="42.1989974" lon="13.7887943"><ele>705.0</ele><time>2026-04-11T13:14:25.948Z</time></trkpt><trkpt lat="42.1989905" lon="13.7886905"><ele>705.0</ele><time>2026-04-11T13:14:26.95Z</time></trkpt><trkpt lat="42.1989363" lon="13.7885714"><ele>705.0</ele><time>2026-04-11T13:14:27.951Z</time></trkpt><trkpt lat="42.1988404" lon="13.7884278"><ele>705.0</ele><time>2026-04-11T13:14:28.95Z</time></trkpt><trkpt lat="42.1987468" lon="13.7882672"><ele>709.3333333333334</ele><time>2026-04-11T13:14:29.952Z</time></trkpt><trkpt lat="42.1986781" lon="13.7880696"><ele>713.6666666666667</ele><time>2026-04-11T13:14:30.966Z</time></trkpt><trkpt lat="42.1986445" lon="13.78784"><ele>718.0</ele><time>2026-04-11T13:14:31.956Z</time></trkpt><trkpt lat="42.198648" lon="13.7875935"><ele>721.3333333333334</ele><time>2026-04-11T13:14:32.95Z</time></trkpt><trkpt lat="42.1986789" lon="13.7873573"><ele>724.6666666666666</ele><time>2026-04-11T13:14:33.95Z</time></trkpt><trkpt lat="42.1987401" lon="13.7871568"><ele>728.0</ele><time>2026-04-11T13:14:34.949Z</time></trkpt><trkpt lat="42.1988342" lon="13.7869887"><ele>730.3333333333333</ele><time>2026-04-11T13:14:35.95Z</time></trkpt><trkpt lat="42.1989484" lon="13.7868421"><ele>732.6666666666666</ele><time>2026-04-11T13:14:36.95Z</time></trkpt><trkpt lat="42.1990825" lon="13.7867127"><ele>735.0</ele><time>2026-04-11T13:14:37.947Z</time></trkpt><trkpt lat="42.1992285" lon="13.786591"><ele>738.3333333333334</ele><time>2026-04-11T13:14:38.956Z</time></trkpt><trkpt lat="42.1993859" lon="13.7864733"><ele>741.6666666666667</ele><time>2026-04-11T13:14:39.953Z</time></trkpt><trkpt lat="42.199545" lon="13.7863464"><ele>745.0</ele><time>2026-04-11T13:14:40.954Z</time></trkpt><trkpt lat="42.1996857" lon="13.7861869"><ele>747.0</ele><time>2026-04-11T13:14:41.957Z</time></trkpt><trkpt lat="42.1998208" lon="13.7859795"><ele>749.0</ele><time>2026-04-11T13:14:42.947Z</time></trkpt><trkpt lat="42.1999453" lon="13.7857647"><ele>751.0</ele><time>2026-04-11T13:14:43.953Z</time></trkpt><trkpt lat="42.2000662" lon="13.7855772"><ele>752.0</ele><time>2026-04-11T13:14:44.949Z</time></trkpt><trkpt lat="42.2001869" lon="13.7854017"><ele>753.0</ele><time>2026-04-11T13:14:45.955Z</time></trkpt><trkpt lat="42.2003122" lon="13.7852201"><ele>754.0</ele><time>2026-04-11T13:14:46.949Z</time></trkpt><trkpt lat="42.2004442" lon="13.7850295"><ele>754.6666666666667</ele><time>2026-04-11T13:14:47.946Z</time></trkpt><trkpt lat="42.2005858" lon="13.7848128"><ele>755.3333333333334</ele><time>2026-04-11T13:14:48.952Z</time></trkpt><trkpt lat="42.2007331" lon="13.7845697"><ele>756.0</ele><time>2026-04-11T13:14:49.948Z</time></trkpt><trkpt lat="42.2008801" lon="13.784293"><ele>751.5</ele><time>2026-04-11T13:14:50.953Z</time></trkpt><trkpt lat="42.2010278" lon="13.7839814"><ele>747.0</ele><time>2026-04-11T13:14:51.949Z</time></trkpt><trkpt lat="42.2011771" lon="13.7836629"><ele>739.5</ele><time>2026-04-11T13:14:52.951Z</time></trkpt><trkpt lat="42.2013175" lon="13.7833424"><ele>732.0</ele><time>2026-04-11T13:14:53.946Z</time></trkpt><trkpt lat="42.2014435" lon="13.7830201"><ele>733.0</ele><time>2026-04-11T13:14:54.949Z</time></trkpt><trkpt lat="42.2015555" lon="13.7827091"><ele>734.0</ele><time>2026-04-11T13:14:55.949Z</time></trkpt><trkpt lat="42.2016464" lon="13.7824404"><ele>734.0</ele><time>2026-04-11T13:14:56.948Z</time></trkpt><trkpt lat="42.2017334" lon="13.7821922"><ele>734.0</ele><time>2026-04-11T13:14:57.949Z</time></trkpt><trkpt lat="42.2017533" lon="13.7819691"><ele>734.0</ele><time>2026-04-11T13:14:58.953Z</time></trkpt><trkpt lat="42.2017601" lon="13.7817168"><ele>731.3333333333333</ele><time>2026-04-11T13:14:59.949Z</time></trkpt><trkpt lat="42.2017403" lon="13.781447"><ele>728.6666666666666</ele><time>2026-04-11T13:15:00.955Z</time></trkpt><trkpt lat="42.2017127" lon="13.7811688"><ele>726.0</ele><time>2026-04-11T13:15:01.951Z</time></trkpt><trkpt lat="42.2017055" lon="13.7808944"><ele>724.6666666666666</ele><time>2026-04-11T13:15:02.953Z</time></trkpt><trkpt lat="42.2017171" lon="13.7806209"><ele>723.3333333333333</ele><time>2026-04-11T13:15:03.955Z</time></trkpt><trkpt lat="42.2017448" lon="13.7803402"><ele>722.0</ele><time>2026-04-11T13:15:04.955Z</time></trkpt><trkpt lat="42.2017843" lon="13.7800554"><ele>720.0</ele><time>2026-04-11T13:15:05.946Z</time></trkpt><trkpt lat="42.2018331" lon="13.7797785"><ele>718.0</ele><time>2026-04-11T13:15:06.952Z</time></trkpt><trkpt lat="42.2018831" lon="13.7795294"><ele>716.0</ele><time>2026-04-11T13:15:07.95Z</time></trkpt><trkpt lat="42.2019306" lon="13.7793039"><ele>713.0</ele><time>2026-04-11T13:15:08.949Z</time></trkpt><trkpt lat="42.2019728" lon="13.7790974"><ele>710.0</ele><time>2026-04-11T13:15:09.952Z</time></trkpt><trkpt lat="42.2020154" lon="13.7788977"><ele>707.0</ele><time>2026-04-11T13:15:10.951Z</time></trkpt><trkpt lat="42.2020536" lon="13.7786945"><ele>705.5</ele><time>2026-04-11T13:15:11.952Z</time></trkpt><trkpt lat="42.2020931" lon="13.7784996"><ele>704.0</ele><time>2026-04-11T13:15:12.952Z</time></trkpt><trkpt lat="42.2021309" lon="13.7783113"><ele>702.5</ele><time>2026-04-11T13:15:13.949Z</time></trkpt><trkpt lat="42.2021707" lon="13.7781304"><ele>701.0</ele><time>2026-04-11T13:15:14.95Z</time></trkpt><trkpt lat="42.2022005" lon="13.777967"><ele>701.0</ele><time>2026-04-11T13:15:15.953Z</time></trkpt><trkpt lat="42.2022304" lon="13.7778202"><ele>701.0</ele><time>2026-04-11T13:15:16.947Z</time></trkpt><trkpt lat="42.2022603" lon="13.7776781"><ele>701.0</ele><time>2026-04-11T13:15:17.953Z</time></trkpt><trkpt lat="42.2022937" lon="13.7775408"><ele>701.0</ele><time>2026-04-11T13:15:18.948Z</time></trkpt><trkpt lat="42.2023339" lon="13.7774016"><ele>701.0</ele><time>2026-04-11T13:15:19.949Z</time></trkpt><trkpt lat="42.2023923" lon="13.7772806"><ele>701.75</ele><time>2026-04-11T13:15:20.956Z</time></trkpt><trkpt lat="42.20248" lon="13.7771851"><ele>702.5</ele><time>2026-04-11T13:15:21.946Z</time></trkpt><trkpt lat="42.2025966" lon="13.7771106"><ele>703.25</ele><time>2026-04-11T13:15:22.948Z</time></trkpt><trkpt lat="42.2027342" lon="13.7770354"><ele>704.0</ele><time>2026-04-11T13:15:23.953Z</time></trkpt><trkpt lat="42.2028961" lon="13.7769515"><ele>701.0</ele><time>2026-04-11T13:15:24.949Z</time></trkpt><trkpt lat="42.2030722" lon="13.7768492"><ele>698.0</ele><time>2026-04-11T13:15:25.95Z</time></trkpt><trkpt lat="42.2032695" lon="13.7767407"><ele>695.0</ele><time>2026-04-11T13:15:26.946Z</time></trkpt><trkpt lat="42.20347" lon="13.7766185"><ele>692.5</ele><time>2026-04-11T13:15:27.946Z</time></trkpt><trkpt lat="42.2036808" lon="13.7765034"><ele>690.0</ele><time>2026-04-11T13:15:28.947Z</time></trkpt><trkpt lat="42.2038988" lon="13.7763831"><ele>687.5</ele><time>2026-04-11T13:15:29.949Z</time></trkpt><trkpt lat="42.204114" lon="13.7762557"><ele>685.0</ele><time>2026-04-11T13:15:30.958Z</time></trkpt><trkpt lat="42.2043369" lon="13.7761301"><ele>685.5</ele><time>2026-04-11T13:15:31.948Z</time></trkpt><trkpt lat="42.2045634" lon="13.7760021"><ele>686.0</ele><time>2026-04-11T13:15:32.954Z</time></trkpt><trkpt lat="42.2047982" lon="13.7758699"><ele>685.0</ele><time>2026-04-11T13:15:33.952Z</time></trkpt><trkpt lat="42.2050404" lon="13.7757379"><ele>684.0</ele><time>2026-04-11T13:15:34.957Z</time></trkpt><trkpt lat="42.2052804" lon="13.7756024"><ele>684.0</ele><time>2026-04-11T13:15:35.953Z</time></trkpt><trkpt lat="42.2055198" lon="13.7754701"><ele>684.0</ele><time>2026-04-11T13:15:36.952Z</time></trkpt><trkpt lat="42.2057558" lon="13.7753396"><ele>682.5</ele><time>2026-04-11T13:15:37.951Z</time></trkpt><trkpt lat="42.2059872" lon="13.7752093"><ele>681.0</ele><time>2026-04-11T13:15:38.952Z</time></trkpt><trkpt lat="42.2062155" lon="13.7750794"><ele>681.0</ele><time>2026-04-11T13:15:39.949Z</time></trkpt><trkpt lat="42.2064438" lon="13.7749523"><ele>681.0</ele><time>2026-04-11T13:15:40.944Z</time></trkpt><trkpt lat="42.2066657" lon="13.7748251"><ele>681.0</ele><time>2026-04-11T13:15:41.948Z</time></trkpt><trkpt lat="42.2068914" lon="13.7746975"><ele>681.0</ele><time>2026-04-11T13:15:42.949Z</time></trkpt><trkpt lat="42.2071193" lon="13.7745673"><ele>680.5</ele><time>2026-04-11T13:15:43.954Z</time></trkpt><trkpt lat="42.2073414" lon="13.7744368"><ele>680.0</ele><time>2026-04-11T13:15:44.949Z</time></trkpt><trkpt lat="42.2075715" lon="13.7743062"><ele>680.0</ele><time>2026-04-11T13:15:45.948Z</time></trkpt><trkpt lat="42.2078016" lon="13.7741762"><ele>680.0</ele><time>2026-04-11T13:15:46.946Z</time></trkpt><trkpt lat="42.2080336" lon="13.7740474"><ele>679.5</ele><time>2026-04-11T13:15:47.946Z</time></trkpt><trkpt lat="42.208268" lon="13.7739147"><ele>679.0</ele><time>2026-04-11T13:15:48.949Z</time></trkpt><trkpt lat="42.2085028" lon="13.7737816"><ele>679.0</ele><time>2026-04-11T13:15:49.951Z</time></trkpt><trkpt lat="42.2087339" lon="13.7736458"><ele>679.0</ele><time>2026-04-11T13:15:50.954Z</time></trkpt><trkpt lat="42.2089634" lon="13.7735087"><ele>679.0</ele><time>2026-04-11T13:15:51.955Z</time></trkpt><trkpt lat="42.2092" lon="13.7733813"><ele>679.0</ele><time>2026-04-11T13:15:52.948Z</time></trkpt><trkpt lat="42.2094393" lon="13.7732466"><ele>679.0</ele><time>2026-04-11T13:15:53.95Z</time></trkpt><trkpt lat="42.20968" lon="13.7731065"><ele>679.0</ele><time>2026-04-11T13:15:54.948Z</time></trkpt><trkpt lat="42.2099213" lon="13.7729671"><ele>679.5</ele><time>2026-04-11T13:15:55.949Z</time></trkpt><trkpt lat="42.2101639" lon="13.7728307"><ele>680.0</ele><time>2026-04-11T13:15:56.957Z</time></trkpt><trkpt lat="42.2104135" lon="13.7726918"><ele>679.0</ele><time>2026-04-11T13:15:57.949Z</time></trkpt><trkpt lat="42.2106658" lon="13.772552"><ele>678.0</ele><time>2026-04-11T13:15:58.957Z</time></trkpt><trkpt lat="42.2109183" lon="13.7724104"><ele>678.0</ele><time>2026-04-11T13:15:59.95Z</time></trkpt><trkpt lat="42.211176" lon="13.7722705"><ele>678.0</ele><time>2026-04-11T13:16:00.952Z</time></trkpt><trkpt lat="42.2114352" lon="13.7721245"><ele>678.0</ele><time>2026-04-11T13:16:01.95Z</time></trkpt><trkpt lat="42.2116956" lon="13.7719794"><ele>678.0</ele><time>2026-04-11T13:16:02.949Z</time></trkpt><trkpt lat="42.2119516" lon="13.7718349"><ele>679.0</ele><time>2026-04-11T13:16:03.951Z</time></trkpt><trkpt lat="42.2122137" lon="13.7716894"><ele>680.0</ele><time>2026-04-11T13:16:04.951Z</time></trkpt><trkpt lat="42.2124754" lon="13.7715395"><ele>680.0</ele><time>2026-04-11T13:16:05.952Z</time></trkpt><trkpt lat="42.2127428" lon="13.7713869"><ele>680.0</ele><time>2026-04-11T13:16:06.95Z</time></trkpt><trkpt lat="42.2130105" lon="13.7712338"><ele>680.0</ele><time>2026-04-11T13:16:07.949Z</time></trkpt><trkpt lat="42.2132838" lon="13.7710826"><ele>680.0</ele><time>2026-04-11T13:16:08.953Z</time></trkpt><trkpt lat="42.2135611" lon="13.7709281"><ele>680.0</ele><time>2026-04-11T13:16:09.947Z</time></trkpt><trkpt lat="42.2138379" lon="13.770773"><ele>680.0</ele><time>2026-04-11T13:16:10.954Z</time></trkpt><trkpt lat="42.2141145" lon="13.7706169"><ele>679.5</ele><time>2026-04-11T13:16:11.955Z</time></trkpt><trkpt lat="42.2143941" lon="13.7704538"><ele>679.0</ele><time>2026-04-11T13:16:12.946Z</time></trkpt><trkpt lat="42.2146768" lon="13.7702942"><ele>679.0</ele><time>2026-04-11T13:16:13.949Z</time></trkpt><trkpt lat="42.2149584" lon="13.7701338"><ele>679.0</ele><time>2026-04-11T13:16:14.951Z</time></trkpt><trkpt lat="42.2152362" lon="13.7699745"><ele>679.0</ele><time>2026-04-11T13:16:15.95Z</time></trkpt><trkpt lat="42.2155154" lon="13.7698163"><ele>679.0</ele><time>2026-04-11T13:16:16.952Z</time></trkpt><trkpt lat="42.2157929" lon="13.7696565"><ele>678.5</ele><time>2026-04-11T13:16:17.954Z</time></trkpt><trkpt lat="42.2160676" lon="13.7695008"><ele>678.0</ele><time>2026-04-11T13:16:18.955Z</time></trkpt><trkpt lat="42.2163422" lon="13.7693467"><ele>677.5</ele><time>2026-04-11T13:16:19.946Z</time></trkpt><trkpt lat="42.2166099" lon="13.7691929"><ele>677.0</ele><time>2026-04-11T13:16:20.948Z</time></trkpt><trkpt lat="42.2168751" lon="13.7690404"><ele>677.0</ele><time>2026-04-11T13:16:21.947Z</time></trkpt><trkpt lat="42.2171427" lon="13.7688856"><ele>677.0</ele><time>2026-04-11T13:16:22.948Z</time></trkpt><trkpt lat="42.2174105" lon="13.7687335"><ele>677.0</ele><time>2026-04-11T13:16:23.958Z</time></trkpt><trkpt lat="42.2176805" lon="13.7685799"><ele>677.0</ele><time>2026-04-11T13:16:24.95Z</time></trkpt><trkpt lat="42.2179564" lon="13.7684308"><ele>679.5</ele><time>2026-04-11T13:16:25.953Z</time></trkpt><trkpt lat="42.2182331" lon="13.7682776"><ele>682.0</ele><time>2026-04-11T13:16:26.948Z</time></trkpt><trkpt lat="42.2185125" lon="13.7681169"><ele>682.0</ele><time>2026-04-11T13:16:27.953Z</time></trkpt><trkpt lat="42.2187924" lon="13.7679585"><ele>682.0</ele><time>2026-04-11T13:16:28.955Z</time></trkpt><trkpt lat="42.2190689" lon="13.7678061"><ele>679.5</ele><time>2026-04-11T13:16:29.95Z</time></trkpt><trkpt lat="42.2193322" lon="13.7676589"><ele>677.0</ele><time>2026-04-11T13:16:30.955Z</time></trkpt><trkpt lat="42.2195774" lon="13.7675031"><ele>677.0</ele><time>2026-04-11T13:16:31.956Z</time></trkpt><trkpt lat="42.219793" lon="13.7673048"><ele>677.0</ele><time>2026-04-11T13:16:32.947Z</time></trkpt><trkpt lat="42.219995" lon="13.7670737"><ele>681.5</ele><time>2026-04-11T13:16:33.95Z</time></trkpt><trkpt lat="42.2201969" lon="13.766809"><ele>686.0</ele><time>2026-04-11T13:16:34.945Z</time></trkpt><trkpt lat="42.220408" lon="13.7665397"><ele>686.0</ele><time>2026-04-11T13:16:35.95Z</time></trkpt><trkpt lat="42.2206224" lon="13.7662576"><ele>686.0</ele><time>2026-04-11T13:16:36.942Z</time></trkpt><trkpt lat="42.2208457" lon="13.7659637"><ele>685.5</ele><time>2026-04-11T13:16:37.95Z</time></trkpt><trkpt lat="42.2210685" lon="13.7656675"><ele>685.0</ele><time>2026-04-11T13:16:38.949Z</time></trkpt><trkpt lat="42.2212947" lon="13.7653613"><ele>682.0</ele><time>2026-04-11T13:16:39.949Z</time></trkpt><trkpt lat="42.2215198" lon="13.7650577"><ele>679.0</ele><time>2026-04-11T13:16:40.945Z</time></trkpt><trkpt lat="42.2217487" lon="13.7647584"><ele>679.0</ele><time>2026-04-11T13:16:41.952Z</time></trkpt><trkpt lat="42.2219761" lon="13.764456"><ele>679.0</ele><time>2026-04-11T13:16:42.95Z</time></trkpt><trkpt lat="42.2222049" lon="13.7641605"><ele>677.0</ele><time>2026-04-11T13:16:43.95Z</time></trkpt><trkpt lat="42.2224263" lon="13.7638703"><ele>675.0</ele><time>2026-04-11T13:16:44.944Z</time></trkpt><trkpt lat="42.2226399" lon="13.7635908"><ele>679.0</ele><time>2026-04-11T13:16:45.95Z</time></trkpt><trkpt lat="42.2228409" lon="13.7633238"><ele>683.0</ele><time>2026-04-11T13:16:46.951Z</time></trkpt><trkpt lat="42.2230337" lon="13.7630676"><ele>681.5</ele><time>2026-04-11T13:16:47.952Z</time></trkpt><trkpt lat="42.2232173" lon="13.7628202"><ele>680.0</ele><time>2026-04-11T13:16:48.953Z</time></trkpt><trkpt lat="42.2233947" lon="13.7625888"><ele>680.0</ele><time>2026-04-11T13:16:49.949Z</time></trkpt><trkpt lat="42.2235707" lon="13.7623642"><ele>680.0</ele><time>2026-04-11T13:16:50.96Z</time></trkpt><trkpt lat="42.2237395" lon="13.7621442"><ele>680.0</ele><time>2026-04-11T13:16:51.95Z</time></trkpt><trkpt lat="42.2239014" lon="13.7619281"><ele>680.0</ele><time>2026-04-11T13:16:52.951Z</time></trkpt><trkpt lat="42.2240558" lon="13.7616984"><ele>678.5</ele><time>2026-04-11T13:16:53.95Z</time></trkpt><trkpt lat="42.2242031" lon="13.7614461"><ele>677.0</ele><time>2026-04-11T13:16:54.955Z</time></trkpt><trkpt lat="42.2243345" lon="13.7611925"><ele>679.3333333333333</ele><time>2026-04-11T13:16:55.954Z</time></trkpt><trkpt lat="42.2244506" lon="13.7609331"><ele>681.6666666666666</ele><time>2026-04-11T13:16:56.949Z</time></trkpt><trkpt lat="42.2245553" lon="13.7606656"><ele>684.0</ele><time>2026-04-11T13:16:57.951Z</time></trkpt><trkpt lat="42.2246478" lon="13.7603792"><ele>686.0</ele><time>2026-04-11T13:16:58.947Z</time></trkpt><trkpt lat="42.2247389" lon="13.7600842"><ele>688.0</ele><time>2026-04-11T13:16:59.95Z</time></trkpt><trkpt lat="42.2248265" lon="13.7597875"><ele>682.5</ele><time>2026-04-11T13:17:00.942Z</time></trkpt><trkpt lat="42.2249181" lon="13.7594882"><ele>677.0</ele><time>2026-04-11T13:17:01.95Z</time></trkpt><trkpt lat="42.2250104" lon="13.7591827"><ele>677.0</ele><time>2026-04-11T13:17:02.948Z</time></trkpt><trkpt lat="42.2250991" lon="13.758885"><ele>677.0</ele><time>2026-04-11T13:17:03.949Z</time></trkpt><trkpt lat="42.225183" lon="13.7585974"><ele>677.5</ele><time>2026-04-11T13:17:04.955Z</time></trkpt><trkpt lat="42.2252697" lon="13.7583046"><ele>678.0</ele><time>2026-04-11T13:17:05.954Z</time></trkpt><trkpt lat="42.2253627" lon="13.7579919"><ele>678.0</ele><time>2026-04-11T13:17:06.952Z</time></trkpt><trkpt lat="42.2254586" lon="13.757661"><ele>678.0</ele><time>2026-04-11T13:17:07.948Z</time></trkpt><trkpt lat="42.2255633" lon="13.7573117"><ele>677.5</ele><time>2026-04-11T13:17:08.948Z</time></trkpt><trkpt lat="42.2256723" lon="13.7569442"><ele>677.0</ele><time>2026-04-11T13:17:09.953Z</time></trkpt><trkpt lat="42.2257874" lon="13.7565627"><ele>677.0</ele><time>2026-04-11T13:17:10.943Z</time></trkpt><trkpt lat="42.225906" lon="13.7561622"><ele>677.0</ele><time>2026-04-11T13:17:11.944Z</time></trkpt><trkpt lat="42.226031" lon="13.7557443"><ele>677.0</ele><time>2026-04-11T13:17:12.956Z</time></trkpt><trkpt lat="42.2261615" lon="13.7553085"><ele>677.0</ele><time>2026-04-11T13:17:13.956Z</time></trkpt><trkpt lat="42.2262977" lon="13.7548558"><ele>677.0</ele><time>2026-04-11T13:17:14.954Z</time></trkpt><trkpt lat="42.2264364" lon="13.7543848"><ele>677.0</ele><time>2026-04-11T13:17:15.952Z</time></trkpt><trkpt lat="42.2265785" lon="13.7539056"><ele>677.5</ele><time>2026-04-11T13:17:16.951Z</time></trkpt><trkpt lat="42.2267265" lon="13.7534086"><ele>678.0</ele><time>2026-04-11T13:17:17.956Z</time></trkpt><trkpt lat="42.2268762" lon="13.7529112"><ele>678.0</ele><time>2026-04-11T13:17:18.947Z</time></trkpt><trkpt lat="42.2270276" lon="13.7524158"><ele>678.0</ele><time>2026-04-11T13:17:19.949Z</time></trkpt><trkpt lat="42.2271765" lon="13.7519276"><ele>678.0</ele><time>2026-04-11T13:17:20.948Z</time></trkpt><trkpt lat="42.2273178" lon="13.7514504"><ele>678.0</ele><time>2026-04-11T13:17:21.947Z</time></trkpt><trkpt lat="42.2274617" lon="13.7509769"><ele>679.0</ele><time>2026-04-11T13:17:22.959Z</time></trkpt><trkpt lat="42.2276012" lon="13.7505077"><ele>680.0</ele><time>2026-04-11T13:17:23.942Z</time></trkpt><trkpt lat="42.2277363" lon="13.7500531"><ele>680.5</ele><time>2026-04-11T13:17:24.948Z</time></trkpt><trkpt lat="42.22787" lon="13.7496161"><ele>681.0</ele><time>2026-04-11T13:17:25.953Z</time></trkpt><trkpt lat="42.2279932" lon="13.7491957"><ele>681.5</ele><time>2026-04-11T13:17:26.952Z</time></trkpt><trkpt lat="42.2281126" lon="13.7487929"><ele>682.0</ele><time>2026-04-11T13:17:27.955Z</time></trkpt><trkpt lat="42.228226" lon="13.7484057"><ele>681.0</ele><time>2026-04-11T13:17:28.956Z</time></trkpt><trkpt lat="42.2283387" lon="13.7480303"><ele>680.0</ele><time>2026-04-11T13:17:29.958Z</time></trkpt><trkpt lat="42.2284476" lon="13.7476651"><ele>679.0</ele><time>2026-04-11T13:17:30.949Z</time></trkpt><trkpt lat="42.2285531" lon="13.747314"><ele>678.0</ele><time>2026-04-11T13:17:31.947Z</time></trkpt><trkpt lat="42.2286583" lon="13.7469641"><ele>679.0</ele><time>2026-04-11T13:17:32.95Z</time></trkpt><trkpt lat="42.228759" lon="13.7466201"><ele>680.0</ele><time>2026-04-11T13:17:33.948Z</time></trkpt><trkpt lat="42.22886" lon="13.74628"><ele>680.5</ele><time>2026-04-11T13:17:34.948Z</time></trkpt><trkpt lat="42.2289633" lon="13.7459407"><ele>681.0</ele><time>2026-04-11T13:17:35.953Z</time></trkpt><trkpt lat="42.2290621" lon="13.7456112"><ele>682.0</ele><time>2026-04-11T13:17:36.95Z</time></trkpt><trkpt lat="42.2291623" lon="13.7452737"><ele>683.0</ele><time>2026-04-11T13:17:37.94Z</time></trkpt><trkpt lat="42.2292614" lon="13.7449347"><ele>683.0</ele><time>2026-04-11T13:17:38.951Z</time></trkpt><trkpt lat="42.2293622" lon="13.7446087"><ele>683.0</ele><time>2026-04-11T13:17:39.949Z</time></trkpt><trkpt lat="42.229463" lon="13.744278"><ele>684.0</ele><time>2026-04-11T13:17:40.955Z</time></trkpt><trkpt lat="42.2295644" lon="13.7439482"><ele>685.0</ele><time>2026-04-11T13:17:41.95Z</time></trkpt><trkpt lat="42.2296658" lon="13.7436156"><ele>684.0</ele><time>2026-04-11T13:17:42.947Z</time></trkpt><trkpt lat="42.2297659" lon="13.7432806"><ele>683.0</ele><time>2026-04-11T13:17:43.953Z</time></trkpt><trkpt lat="42.2298679" lon="13.7429411"><ele>683.5</ele><time>2026-04-11T13:17:44.954Z</time></trkpt><trkpt lat="42.2299689" lon="13.742599"><ele>684.0</ele><time>2026-04-11T13:17:45.947Z</time></trkpt><trkpt lat="42.2300696" lon="13.7422638"><ele>684.0</ele><time>2026-04-11T13:17:46.945Z</time></trkpt><trkpt lat="42.2301715" lon="13.7419235"><ele>684.0</ele><time>2026-04-11T13:17:47.955Z</time></trkpt><trkpt lat="42.2302713" lon="13.7415844"><ele>684.0</ele><time>2026-04-11T13:17:48.95Z</time></trkpt><trkpt lat="42.230376" lon="13.7412406"><ele>684.0</ele><time>2026-04-11T13:17:49.955Z</time></trkpt><trkpt lat="42.230481" lon="13.740892"><ele>684.0</ele><time>2026-04-11T13:17:50.948Z</time></trkpt><trkpt lat="42.2305879" lon="13.7405378"><ele>684.0</ele><time>2026-04-11T13:17:51.951Z</time></trkpt><trkpt lat="42.2306926" lon="13.7401823"><ele>684.0</ele><time>2026-04-11T13:17:52.949Z</time></trkpt><trkpt lat="42.2308016" lon="13.7398214"><ele>684.0</ele><time>2026-04-11T13:17:53.944Z</time></trkpt><trkpt lat="42.2309098" lon="13.7394603"><ele>685.5</ele><time>2026-04-11T13:17:54.952Z</time></trkpt><trkpt lat="42.2310223" lon="13.7390911"><ele>687.0</ele><time>2026-04-11T13:17:55.95Z</time></trkpt><trkpt lat="42.2311321" lon="13.7387201"><ele>687.0</ele><time>2026-04-11T13:17:56.948Z</time></trkpt><trkpt lat="42.2312478" lon="13.7383478"><ele>687.0</ele><time>2026-04-11T13:17:57.956Z</time></trkpt><trkpt lat="42.2313634" lon="13.7379725"><ele>688.0</ele><time>2026-04-11T13:17:58.951Z</time></trkpt><trkpt lat="42.2314783" lon="13.7375958"><ele>689.0</ele><time>2026-04-11T13:17:59.946Z</time></trkpt><trkpt lat="42.2315943" lon="13.7372214"><ele>689.0</ele><time>2026-04-11T13:18:00.947Z</time></trkpt><trkpt lat="42.2317133" lon="13.7368454"><ele>689.0</ele><time>2026-04-11T13:18:01.943Z</time></trkpt><trkpt lat="42.2318309" lon="13.736475"><ele>689.0</ele><time>2026-04-11T13:18:02.947Z</time></trkpt><trkpt lat="42.2319454" lon="13.7361078"><ele>689.0</ele><time>2026-04-11T13:18:03.947Z</time></trkpt><trkpt lat="42.232063" lon="13.7357444"><ele>687.5</ele><time>2026-04-11T13:18:04.949Z</time></trkpt><trkpt lat="42.2321803" lon="13.7353803"><ele>686.0</ele><time>2026-04-11T13:18:05.948Z</time></trkpt><trkpt lat="42.2322934" lon="13.7350266"><ele>686.5</ele><time>2026-04-11T13:18:06.948Z</time></trkpt><trkpt lat="42.2324084" lon="13.7346725"><ele>687.0</ele><time>2026-04-11T13:18:07.949Z</time></trkpt><trkpt lat="42.23252" lon="13.7343272"><ele>686.0</ele><time>2026-04-11T13:18:08.94Z</time></trkpt><trkpt lat="42.2326285" lon="13.7339847"><ele>685.0</ele><time>2026-04-11T13:18:09.948Z</time></trkpt><trkpt lat="42.2327349" lon="13.733648"><ele>684.5</ele><time>2026-04-11T13:18:10.95Z</time></trkpt><trkpt lat="42.2328416" lon="13.7333157"><ele>684.0</ele><time>2026-04-11T13:18:11.952Z</time></trkpt><trkpt lat="42.232948" lon="13.7329814"><ele>683.5</ele><time>2026-04-11T13:18:12.951Z</time></trkpt><trkpt lat="42.2330501" lon="13.7326673"><ele>683.0</ele><time>2026-04-11T13:18:13.948Z</time></trkpt><trkpt lat="42.2331485" lon="13.7323659"><ele>683.5</ele><time>2026-04-11T13:18:14.95Z</time></trkpt><trkpt lat="42.2332424" lon="13.7320767"><ele>684.0</ele><time>2026-04-11T13:18:15.95Z</time></trkpt><trkpt lat="42.2333297" lon="13.7318062"><ele>684.0</ele><time>2026-04-11T13:18:16.95Z</time></trkpt><trkpt lat="42.2334149" lon="13.7315504"><ele>684.0</ele><time>2026-04-11T13:18:17.953Z</time></trkpt><trkpt lat="42.2334943" lon="13.7313006"><ele>684.0</ele><time>2026-04-11T13:18:18.949Z</time></trkpt><trkpt lat="42.2335721" lon="13.7310535"><ele>684.0</ele><time>2026-04-11T13:18:19.95Z</time></trkpt><trkpt lat="42.2336524" lon="13.7308018"><ele>684.0</ele><time>2026-04-11T13:18:20.949Z</time></trkpt><trkpt lat="42.2337276" lon="13.7305654"><ele>684.0</ele><time>2026-04-11T13:18:21.953Z</time></trkpt><trkpt lat="42.2338011" lon="13.7303406"><ele>683.6666666666666</ele><time>2026-04-11T13:18:22.947Z</time></trkpt><trkpt lat="42.2338737" lon="13.7301192"><ele>683.3333333333333</ele><time>2026-04-11T13:18:23.947Z</time></trkpt><trkpt lat="42.2339429" lon="13.7298952"><ele>683.0</ele><time>2026-04-11T13:18:24.952Z</time></trkpt><trkpt lat="42.2340099" lon="13.729674"><ele>682.6666666666666</ele><time>2026-04-11T13:18:25.95Z</time></trkpt><trkpt lat="42.2340806" lon="13.7294414"><ele>682.3333333333334</ele><time>2026-04-11T13:18:26.946Z</time></trkpt><trkpt lat="42.2341506" lon="13.7292037"><ele>682.0</ele><time>2026-04-11T13:18:27.95Z</time></trkpt><trkpt lat="42.2342151" lon="13.728958"><ele>681.6666666666667</ele><time>2026-04-11T13:18:28.946Z</time></trkpt><trkpt lat="42.2342797" lon="13.7286978"><ele>681.3333333333334</ele><time>2026-04-11T13:18:29.951Z</time></trkpt><trkpt lat="42.234339" lon="13.7284327"><ele>681.0</ele><time>2026-04-11T13:18:30.947Z</time></trkpt><trkpt lat="42.2344021" lon="13.7281614"><ele>681.0</ele><time>2026-04-11T13:18:31.95Z</time></trkpt><trkpt lat="42.2344687" lon="13.7278798"><ele>681.0</ele><time>2026-04-11T13:18:32.95Z</time></trkpt><trkpt lat="42.2345374" lon="13.7276074"><ele>681.0</ele><time>2026-04-11T13:18:33.946Z</time></trkpt><trkpt lat="42.2345977" lon="13.7273741"><ele>681.0</ele><time>2026-04-11T13:18:34.948Z</time></trkpt><trkpt lat="42.2346525" lon="13.7271658"><ele>681.0</ele><time>2026-04-11T13:18:35.946Z</time></trkpt><trkpt lat="42.2346991" lon="13.7269883"><ele>681.0</ele><time>2026-04-11T13:18:36.957Z</time></trkpt><trkpt lat="42.2347442" lon="13.7268257"><ele>681.0</ele><time>2026-04-11T13:18:37.95Z</time></trkpt><trkpt lat="42.2347943" lon="13.726651"><ele>682.6666666666666</ele><time>2026-04-11T13:18:38.947Z</time></trkpt><trkpt lat="42.2348482" lon="13.7264554"><ele>684.3333333333333</ele><time>2026-04-11T13:18:39.948Z</time></trkpt><trkpt lat="42.2349078" lon="13.72625"><ele>686.0</ele><time>2026-04-11T13:18:40.942Z</time></trkpt><trkpt lat="42.2349693" lon="13.7260205"><ele>686.0</ele><time>2026-04-11T13:18:41.952Z</time></trkpt><trkpt lat="42.2350366" lon="13.7257739"><ele>686.0</ele><time>2026-04-11T13:18:42.946Z</time></trkpt><trkpt lat="42.2351028" lon="13.7255257"><ele>686.0</ele><time>2026-04-11T13:18:43.951Z</time></trkpt><trkpt lat="42.2351695" lon="13.7252771"><ele>685.6666666666666</ele><time>2026-04-11T13:18:44.947Z</time></trkpt><trkpt lat="42.2352354" lon="13.7250217"><ele>685.3333333333334</ele><time>2026-04-11T13:18:45.948Z</time></trkpt><trkpt lat="42.2353034" lon="13.7247671"><ele>685.0</ele><time>2026-04-11T13:18:46.944Z</time></trkpt><trkpt lat="42.2353695" lon="13.7245097"><ele>685.3333333333334</ele><time>2026-04-11T13:18:47.946Z</time></trkpt><trkpt lat="42.2354306" lon="13.7242467"><ele>685.6666666666666</ele><time>2026-04-11T13:18:48.949Z</time></trkpt><trkpt lat="42.2355008" lon="13.7239856"><ele>686.0</ele><time>2026-04-11T13:18:49.951Z</time></trkpt><trkpt lat="42.2355681" lon="13.72372"><ele>687.3333333333333</ele><time>2026-04-11T13:18:50.952Z</time></trkpt><trkpt lat="42.2356384" lon="13.7234532"><ele>688.6666666666666</ele><time>2026-04-11T13:18:51.945Z</time></trkpt><trkpt lat="42.23571" lon="13.7231828"><ele>690.0</ele><time>2026-04-11T13:18:52.948Z</time></trkpt><trkpt lat="42.2357811" lon="13.7229097"><ele>689.6666666666666</ele><time>2026-04-11T13:18:53.95Z</time></trkpt><trkpt lat="42.2358534" lon="13.72263"><ele>689.3333333333333</ele><time>2026-04-11T13:18:54.949Z</time></trkpt><trkpt lat="42.2359254" lon="13.7223421"><ele>689.0</ele><time>2026-04-11T13:18:55.953Z</time></trkpt><trkpt lat="42.2360026" lon="13.7220545"><ele>687.5</ele><time>2026-04-11T13:18:56.945Z</time></trkpt><trkpt lat="42.2360788" lon="13.7217567"><ele>686.0</ele><time>2026-04-11T13:18:57.952Z</time></trkpt><trkpt lat="42.2361536" lon="13.7214659"><ele>686.0</ele><time>2026-04-11T13:18:58.95Z</time></trkpt><trkpt lat="42.2362284" lon="13.7211674"><ele>686.0</ele><time>2026-04-11T13:18:59.954Z</time></trkpt><trkpt lat="42.2363039" lon="13.7208675"><ele>684.5</ele><time>2026-04-11T13:19:00.947Z</time></trkpt><trkpt lat="42.236386" lon="13.7205601"><ele>683.0</ele><time>2026-04-11T13:19:01.947Z</time></trkpt><trkpt lat="42.2364672" lon="13.720243"><ele>682.0</ele><time>2026-04-11T13:19:02.947Z</time></trkpt><trkpt lat="42.2365519" lon="13.7199312"><ele>681.0</ele><time>2026-04-11T13:19:03.949Z</time></trkpt><trkpt lat="42.2366352" lon="13.7196057"><ele>682.0</ele><time>2026-04-11T13:19:04.947Z</time></trkpt><trkpt lat="42.236721" lon="13.719277"><ele>683.0</ele><time>2026-04-11T13:19:05.949Z</time></trkpt><trkpt lat="42.2368064" lon="13.7189467"><ele>683.0</ele><time>2026-04-11T13:19:06.956Z</time></trkpt><trkpt lat="42.2368893" lon="13.7186183"><ele>683.0</ele><time>2026-04-11T13:19:07.945Z</time></trkpt><trkpt lat="42.2369738" lon="13.7182834"><ele>684.0</ele><time>2026-04-11T13:19:08.952Z</time></trkpt><trkpt lat="42.237058" lon="13.7179566"><ele>685.0</ele><time>2026-04-11T13:19:09.949Z</time></trkpt><trkpt lat="42.2371359" lon="13.7176458"><ele>687.0</ele><time>2026-04-11T13:19:10.949Z</time></trkpt><trkpt lat="42.2372083" lon="13.717342"><ele>689.0</ele><time>2026-04-11T13:19:11.947Z</time></trkpt><trkpt lat="42.2372802" lon="13.7170517"><ele>688.3333333333333</ele><time>2026-04-11T13:19:12.952Z</time></trkpt><trkpt lat="42.2373486" lon="13.7167907"><ele>687.6666666666666</ele><time>2026-04-11T13:19:13.948Z</time></trkpt><trkpt lat="42.237414" lon="13.7165533"><ele>687.0</ele><time>2026-04-11T13:19:14.947Z</time></trkpt><trkpt lat="42.2374706" lon="13.7163309"><ele>687.0</ele><time>2026-04-11T13:19:15.947Z</time></trkpt><trkpt lat="42.2375285" lon="13.7161336"><ele>687.0</ele><time>2026-04-11T13:19:16.947Z</time></trkpt><trkpt lat="42.2375896" lon="13.71595"><ele>687.0</ele><time>2026-04-11T13:19:17.945Z</time></trkpt><trkpt lat="42.23767" lon="13.7157857"><ele>687.0</ele><time>2026-04-11T13:19:18.94Z</time></trkpt><trkpt lat="42.2377754" lon="13.7156377"><ele>687.0</ele><time>2026-04-11T13:19:19.95Z</time></trkpt><trkpt lat="42.2378777" lon="13.7155007"><ele>687.0</ele><time>2026-04-11T13:19:20.948Z</time></trkpt><trkpt lat="42.2379681" lon="13.7153408"><ele>687.0</ele><time>2026-04-11T13:19:21.951Z</time></trkpt><trkpt lat="42.238037" lon="13.7151552"><ele>687.0</ele><time>2026-04-11T13:19:22.948Z</time></trkpt><trkpt lat="42.2380711" lon="13.714933"><ele>687.0</ele><time>2026-04-11T13:19:23.95Z</time></trkpt><trkpt lat="42.2380831" lon="13.7147241"><ele>687.0</ele><time>2026-04-11T13:19:24.946Z</time></trkpt><trkpt lat="42.2380745" lon="13.7144931"><ele>687.6666666666666</ele><time>2026-04-11T13:19:25.949Z</time></trkpt><trkpt lat="42.2380777" lon="13.7142378"><ele>688.3333333333333</ele><time>2026-04-11T13:19:26.95Z</time></trkpt><trkpt lat="42.2381116" lon="13.7139547"><ele>689.0</ele><time>2026-04-11T13:19:27.944Z</time></trkpt><trkpt lat="42.2381767" lon="13.7136534"><ele>689.5</ele><time>2026-04-11T13:19:28.947Z</time></trkpt><trkpt lat="42.2382529" lon="13.7133456"><ele>690.0</ele><time>2026-04-11T13:19:29.948Z</time></trkpt><trkpt lat="42.2383309" lon="13.7130358"><ele>691.5</ele><time>2026-04-11T13:19:30.944Z</time></trkpt><trkpt lat="42.238412" lon="13.7127106"><ele>693.0</ele><time>2026-04-11T13:19:31.948Z</time></trkpt><trkpt lat="42.2384951" lon="13.7123934"><ele>693.0</ele><time>2026-04-11T13:19:32.942Z</time></trkpt><trkpt lat="42.2385756" lon="13.7120732"><ele>693.0</ele><time>2026-04-11T13:19:33.948Z</time></trkpt><trkpt lat="42.2386583" lon="13.7117517"><ele>695.0</ele><time>2026-04-11T13:19:34.95Z</time></trkpt><trkpt lat="42.2387427" lon="13.7114358"><ele>697.0</ele><time>2026-04-11T13:19:35.944Z</time></trkpt><trkpt lat="42.238827" lon="13.7111109"><ele>696.5</ele><time>2026-04-11T13:19:36.946Z</time></trkpt><trkpt lat="42.2389075" lon="13.7107845"><ele>696.0</ele><time>2026-04-11T13:19:37.947Z</time></trkpt><trkpt lat="42.2389901" lon="13.7104647"><ele>697.0</ele><time>2026-04-11T13:19:38.941Z</time></trkpt><trkpt lat="42.2390788" lon="13.7101404"><ele>698.0</ele><time>2026-04-11T13:19:39.945Z</time></trkpt><trkpt lat="42.239165" lon="13.7098117"><ele>698.0</ele><time>2026-04-11T13:19:40.949Z</time></trkpt><trkpt lat="42.2392542" lon="13.7094863"><ele>698.0</ele><time>2026-04-11T13:19:41.95Z</time></trkpt><trkpt lat="42.2393356" lon="13.7091625"><ele>699.5</ele><time>2026-04-11T13:19:42.949Z</time></trkpt><trkpt lat="42.2394172" lon="13.7088419"><ele>701.0</ele><time>2026-04-11T13:19:43.953Z</time></trkpt><trkpt lat="42.2395014" lon="13.7085232"><ele>702.5</ele><time>2026-04-11T13:19:44.948Z</time></trkpt><trkpt lat="42.2395888" lon="13.7082074"><ele>704.0</ele><time>2026-04-11T13:19:45.948Z</time></trkpt><trkpt lat="42.2396796" lon="13.7078928"><ele>705.5</ele><time>2026-04-11T13:19:46.947Z</time></trkpt><trkpt lat="42.2397782" lon="13.7075807"><ele>707.0</ele><time>2026-04-11T13:19:47.949Z</time></trkpt><trkpt lat="42.2398864" lon="13.7072714"><ele>707.5</ele><time>2026-04-11T13:19:48.958Z</time></trkpt><trkpt lat="42.2399996" lon="13.7069708"><ele>708.0</ele><time>2026-04-11T13:19:49.948Z</time></trkpt><trkpt lat="42.2401231" lon="13.7066742"><ele>707.0</ele><time>2026-04-11T13:19:50.946Z</time></trkpt><trkpt lat="42.2402561" lon="13.706379"><ele>706.0</ele><time>2026-04-11T13:19:51.95Z</time></trkpt><trkpt lat="42.2403928" lon="13.706094"><ele>705.0</ele><time>2026-04-11T13:19:52.946Z</time></trkpt><trkpt lat="42.2405353" lon="13.7058133"><ele>704.0</ele><time>2026-04-11T13:19:53.938Z</time></trkpt><trkpt lat="42.2406852" lon="13.7055404"><ele>704.0</ele><time>2026-04-11T13:19:54.938Z</time></trkpt><trkpt lat="42.2408409" lon="13.7052718"><ele>704.0</ele><time>2026-04-11T13:19:55.945Z</time></trkpt><trkpt lat="42.2410024" lon="13.7050135"><ele>704.0</ele><time>2026-04-11T13:19:56.948Z</time></trkpt><trkpt lat="42.24117" lon="13.7047535"><ele>704.0</ele><time>2026-04-11T13:19:57.95Z</time></trkpt><trkpt lat="42.2413483" lon="13.7045039"><ele>707.0</ele><time>2026-04-11T13:19:58.954Z</time></trkpt><trkpt lat="42.2415364" lon="13.7042646"><ele>710.0</ele><time>2026-04-11T13:19:59.944Z</time></trkpt><trkpt lat="42.2417276" lon="13.7040302"><ele>710.0</ele><time>2026-04-11T13:20:00.941Z</time></trkpt><trkpt lat="42.2419212" lon="13.7038035"><ele>710.0</ele><time>2026-04-11T13:20:01.949Z</time></trkpt><trkpt lat="42.2421205" lon="13.70359"><ele>714.0</ele><time>2026-04-11T13:20:02.943Z</time></trkpt><trkpt lat="42.2423224" lon="13.703388"><ele>718.0</ele><time>2026-04-11T13:20:03.949Z</time></trkpt><trkpt lat="42.2425301" lon="13.7032004"><ele>718.0</ele><time>2026-04-11T13:20:04.943Z</time></trkpt><trkpt lat="42.2427375" lon="13.7030194"><ele>718.0</ele><time>2026-04-11T13:20:05.946Z</time></trkpt><trkpt lat="42.2429496" lon="13.7028386"><ele>721.0</ele><time>2026-04-11T13:20:06.952Z</time></trkpt><trkpt lat="42.2431648" lon="13.7026569"><ele>724.0</ele><time>2026-04-11T13:20:07.944Z</time></trkpt><trkpt lat="42.2433819" lon="13.7024762"><ele>724.0</ele><time>2026-04-11T13:20:08.942Z</time></trkpt><trkpt lat="42.2435987" lon="13.7022919"><ele>724.0</ele><time>2026-04-11T13:20:09.948Z</time></trkpt><trkpt lat="42.2438159" lon="13.7021023"><ele>726.0</ele><time>2026-04-11T13:20:10.951Z</time></trkpt><trkpt lat="42.2440396" lon="13.7019112"><ele>728.0</ele><time>2026-04-11T13:20:11.943Z</time></trkpt><trkpt lat="42.2442623" lon="13.7017182"><ele>728.0</ele><time>2026-04-11T13:20:12.95Z</time></trkpt><trkpt lat="42.2444866" lon="13.7015156"><ele>728.0</ele><time>2026-04-11T13:20:13.946Z</time></trkpt><trkpt lat="42.2447097" lon="13.7013087"><ele>726.5</ele><time>2026-04-11T13:20:14.95Z</time></trkpt><trkpt lat="42.2449351" lon="13.7010899"><ele>725.0</ele><time>2026-04-11T13:20:15.948Z</time></trkpt><trkpt lat="42.2451554" lon="13.7008692"><ele>725.0</ele><time>2026-04-11T13:20:16.951Z</time></trkpt><trkpt lat="42.2453707" lon="13.7006475"><ele>725.0</ele><time>2026-04-11T13:20:17.956Z</time></trkpt><trkpt lat="42.2455716" lon="13.7004352"><ele>724.5</ele><time>2026-04-11T13:20:18.946Z</time></trkpt><trkpt lat="42.2457629" lon="13.7002298"><ele>724.0</ele><time>2026-04-11T13:20:19.944Z</time></trkpt><trkpt lat="42.2459433" lon="13.7000357"><ele>724.0</ele><time>2026-04-11T13:20:20.946Z</time></trkpt><trkpt lat="42.2461243" lon="13.6998348"><ele>724.0</ele><time>2026-04-11T13:20:21.946Z</time></trkpt><trkpt lat="42.2463037" lon="13.6996382"><ele>724.3333333333334</ele><time>2026-04-11T13:20:22.955Z</time></trkpt><trkpt lat="42.2464756" lon="13.699447"><ele>724.6666666666666</ele><time>2026-04-11T13:20:23.948Z</time></trkpt><trkpt lat="42.2466377" lon="13.6992621"><ele>725.0</ele><time>2026-04-11T13:20:24.947Z</time></trkpt><trkpt lat="42.2467924" lon="13.6990922"><ele>725.0</ele><time>2026-04-11T13:20:25.946Z</time></trkpt><trkpt lat="42.2469385" lon="13.6989421"><ele>725.0</ele><time>2026-04-11T13:20:26.943Z</time></trkpt><trkpt lat="42.2470853" lon="13.6988316"><ele>725.0</ele><time>2026-04-11T13:20:27.947Z</time></trkpt><trkpt lat="42.2472391" lon="13.6987565"><ele>725.0</ele><time>2026-04-11T13:20:28.944Z</time></trkpt><trkpt lat="42.2473968" lon="13.6987036"><ele>725.0</ele><time>2026-04-11T13:20:29.951Z</time></trkpt><trkpt lat="42.2475463" lon="13.6986286"><ele>725.0</ele><time>2026-04-11T13:20:30.949Z</time></trkpt><trkpt lat="42.2476757" lon="13.6984999"><ele>724.6666666666666</ele><time>2026-04-11T13:20:31.951Z</time></trkpt><trkpt lat="42.2477835" lon="13.6983443"><ele>724.3333333333334</ele><time>2026-04-11T13:20:32.954Z</time></trkpt><trkpt lat="42.2478742" lon="13.6981595"><ele>724.0</ele><time>2026-04-11T13:20:33.943Z</time></trkpt><trkpt lat="42.2479523" lon="13.6979527"><ele>724.0</ele><time>2026-04-11T13:20:34.948Z</time></trkpt><trkpt lat="42.2480387" lon="13.6977391"><ele>724.0</ele><time>2026-04-11T13:20:35.947Z</time></trkpt><trkpt lat="42.2481542" lon="13.6975364"><ele>724.0</ele><time>2026-04-11T13:20:36.949Z</time></trkpt><trkpt lat="42.248295" lon="13.6973572"><ele>724.0</ele><time>2026-04-11T13:20:37.95Z</time></trkpt><trkpt lat="42.2484489" lon="13.6971677"><ele>724.0</ele><time>2026-04-11T13:20:38.945Z</time></trkpt><trkpt lat="42.2486026" lon="13.6969801"><ele>724.0</ele><time>2026-04-11T13:20:39.948Z</time></trkpt><trkpt lat="42.2487655" lon="13.696785"><ele>724.5</ele><time>2026-04-11T13:20:40.946Z</time></trkpt><trkpt lat="42.2489333" lon="13.6965747"><ele>725.0</ele><time>2026-04-11T13:20:41.948Z</time></trkpt><trkpt lat="42.2491029" lon="13.6963535"><ele>725.5</ele><time>2026-04-11T13:20:42.948Z</time></trkpt><trkpt lat="42.2492738" lon="13.6961167"><ele>726.0</ele><time>2026-04-11T13:20:43.948Z</time></trkpt><trkpt lat="42.2494429" lon="13.6958695"><ele>727.0</ele><time>2026-04-11T13:20:44.944Z</time></trkpt><trkpt lat="42.2496089" lon="13.6956252"><ele>728.0</ele><time>2026-04-11T13:20:45.948Z</time></trkpt><trkpt lat="42.2497717" lon="13.6953709"><ele>724.5</ele><time>2026-04-11T13:20:46.951Z</time></trkpt><trkpt lat="42.2499376" lon="13.695111"><ele>721.0</ele><time>2026-04-11T13:20:47.947Z</time></trkpt><trkpt lat="42.2501076" lon="13.6948616"><ele>721.0</ele><time>2026-04-11T13:20:48.945Z</time></trkpt><trkpt lat="42.2502786" lon="13.6946182"><ele>721.0</ele><time>2026-04-11T13:20:49.945Z</time></trkpt><trkpt lat="42.2504543" lon="13.6943839"><ele>721.0</ele><time>2026-04-11T13:20:50.947Z</time></trkpt><trkpt lat="42.2506303" lon="13.6941506"><ele>721.0</ele><time>2026-04-11T13:20:51.947Z</time></trkpt><trkpt lat="42.2508079" lon="13.6939181"><ele>721.0</ele><time>2026-04-11T13:20:52.95Z</time></trkpt><trkpt lat="42.250983" lon="13.69369"><ele>721.0</ele><time>2026-04-11T13:20:53.947Z</time></trkpt><trkpt lat="42.2511568" lon="13.6934586"><ele>722.5</ele><time>2026-04-11T13:20:54.963Z</time></trkpt><trkpt lat="42.2513351" lon="13.6932305"><ele>724.0</ele><time>2026-04-11T13:20:55.947Z</time></trkpt><trkpt lat="42.2515079" lon="13.6929999"><ele>725.0</ele><time>2026-04-11T13:20:56.945Z</time></trkpt><trkpt lat="42.2516857" lon="13.692774"><ele>726.0</ele><time>2026-04-11T13:20:57.95Z</time></trkpt><trkpt lat="42.2518681" lon="13.6925357"><ele>726.5</ele><time>2026-04-11T13:20:58.946Z</time></trkpt><trkpt lat="42.2520534" lon="13.6922962"><ele>727.0</ele><time>2026-04-11T13:20:59.949Z</time></trkpt><trkpt lat="42.2522328" lon="13.6920585"><ele>726.5</ele><time>2026-04-11T13:21:00.951Z</time></trkpt><trkpt lat="42.2524165" lon="13.6918147"><ele>726.0</ele><time>2026-04-11T13:21:01.946Z</time></trkpt><trkpt lat="42.2525989" lon="13.6915711"><ele>726.0</ele><time>2026-04-11T13:21:02.947Z</time></trkpt><trkpt lat="42.2527861" lon="13.6913263"><ele>726.0</ele><time>2026-04-11T13:21:03.949Z</time></trkpt><trkpt lat="42.2529725" lon="13.6910836"><ele>726.0</ele><time>2026-04-11T13:21:04.947Z</time></trkpt><trkpt lat="42.2531525" lon="13.6908433"><ele>726.0</ele><time>2026-04-11T13:21:05.944Z</time></trkpt><trkpt lat="42.2533212" lon="13.6906154"><ele>726.0</ele><time>2026-04-11T13:21:06.944Z</time></trkpt><trkpt lat="42.2534817" lon="13.6903941"><ele>726.0</ele><time>2026-04-11T13:21:07.951Z</time></trkpt><trkpt lat="42.2536424" lon="13.6901886"><ele>726.6666666666666</ele><time>2026-04-11T13:21:08.944Z</time></trkpt><trkpt lat="42.2537998" lon="13.6899817"><ele>727.3333333333333</ele><time>2026-04-11T13:21:09.945Z</time></trkpt><trkpt lat="42.2539613" lon="13.6897718"><ele>728.0</ele><time>2026-04-11T13:21:10.946Z</time></trkpt><trkpt lat="42.2541211" lon="13.689559"><ele>729.0</ele><time>2026-04-11T13:21:11.945Z</time></trkpt><trkpt lat="42.2542867" lon="13.6893465"><ele>730.0</ele><time>2026-04-11T13:21:12.947Z</time></trkpt><trkpt lat="42.2544546" lon="13.6891236"><ele>730.0</ele><time>2026-04-11T13:21:13.946Z</time></trkpt><trkpt lat="42.2546254" lon="13.6888951"><ele>730.0</ele><time>2026-04-11T13:21:14.951Z</time></trkpt><trkpt lat="42.2547979" lon="13.6886665"><ele>730.0</ele><time>2026-04-11T13:21:15.947Z</time></trkpt><trkpt lat="42.2549742" lon="13.688438"><ele>730.0</ele><time>2026-04-11T13:21:16.947Z</time></trkpt><trkpt lat="42.2551532" lon="13.6882051"><ele>730.0</ele><time>2026-04-11T13:21:17.944Z</time></trkpt><trkpt lat="42.2553368" lon="13.6879676"><ele>730.0</ele><time>2026-04-11T13:21:18.95Z</time></trkpt><trkpt lat="42.2555216" lon="13.6877248"><ele>730.5</ele><time>2026-04-11T13:21:19.951Z</time></trkpt><trkpt lat="42.2557021" lon="13.6874882"><ele>731.0</ele><time>2026-04-11T13:21:20.943Z</time></trkpt><trkpt lat="42.2558788" lon="13.6872547"><ele>731.0</ele><time>2026-04-11T13:21:21.946Z</time></trkpt><trkpt lat="42.2560525" lon="13.6870258"><ele>731.0</ele><time>2026-04-11T13:21:22.945Z</time></trkpt><trkpt lat="42.2562219" lon="13.6867935"><ele>731.0</ele><time>2026-04-11T13:21:23.952Z</time></trkpt><trkpt lat="42.2563851" lon="13.6865755"><ele>731.0</ele><time>2026-04-11T13:21:24.957Z</time></trkpt><trkpt lat="42.2565428" lon="13.6863632"><ele>731.0</ele><time>2026-04-11T13:21:25.953Z</time></trkpt><trkpt lat="42.2567004" lon="13.6861551"><ele>731.0</ele><time>2026-04-11T13:21:26.944Z</time></trkpt><trkpt lat="42.2568527" lon="13.6859588"><ele>731.0</ele><time>2026-04-11T13:21:27.95Z</time></trkpt><trkpt lat="42.2570017" lon="13.6857648"><ele>731.3333333333333</ele><time>2026-04-11T13:21:28.946Z</time></trkpt><trkpt lat="42.2571426" lon="13.6855799"><ele>731.6666666666666</ele><time>2026-04-11T13:21:29.953Z</time></trkpt><trkpt lat="42.2572726" lon="13.6854079"><ele>732.0</ele><time>2026-04-11T13:21:30.945Z</time></trkpt><trkpt lat="42.2574052" lon="13.6852548"><ele>733.3333333333334</ele><time>2026-04-11T13:21:31.948Z</time></trkpt><trkpt lat="42.2575438" lon="13.6851463"><ele>734.6666666666667</ele><time>2026-04-11T13:21:32.946Z</time></trkpt><trkpt lat="42.2576939" lon="13.6850733"><ele>736.0</ele><time>2026-04-11T13:21:33.949Z</time></trkpt><trkpt lat="42.2578369" lon="13.6849982"><ele>736.0</ele><time>2026-04-11T13:21:34.944Z</time></trkpt><trkpt lat="42.2579691" lon="13.6848875"><ele>736.0</ele><time>2026-04-11T13:21:35.947Z</time></trkpt><trkpt lat="42.2580898" lon="13.6847415"><ele>736.0</ele><time>2026-04-11T13:21:36.945Z</time></trkpt><trkpt lat="42.2581941" lon="13.6845544"><ele>736.6666666666667</ele><time>2026-04-11T13:21:37.949Z</time></trkpt><trkpt lat="42.2582761" lon="13.6843418"><ele>737.3333333333334</ele><time>2026-04-11T13:21:38.946Z</time></trkpt><trkpt lat="42.2583554" lon="13.68411"><ele>738.0</ele><time>2026-04-11T13:21:39.947Z</time></trkpt><trkpt lat="42.2584585" lon="13.6838801"><ele>738.0</ele><time>2026-04-11T13:21:40.949Z</time></trkpt><trkpt lat="42.2585934" lon="13.6836635"><ele>738.0</ele><time>2026-04-11T13:21:41.952Z</time></trkpt><trkpt lat="42.2587516" lon="13.6834424"><ele>738.0</ele><time>2026-04-11T13:21:42.94Z</time></trkpt><trkpt lat="42.2589241" lon="13.683223"><ele>737.5</ele><time>2026-04-11T13:21:43.947Z</time></trkpt><trkpt lat="42.259108" lon="13.6829828"><ele>737.0</ele><time>2026-04-11T13:21:44.947Z</time></trkpt><trkpt lat="42.2592964" lon="13.682742"><ele>737.0</ele><time>2026-04-11T13:21:45.947Z</time></trkpt><trkpt lat="42.2594818" lon="13.6824928"><ele>737.0</ele><time>2026-04-11T13:21:46.948Z</time></trkpt><trkpt lat="42.2596684" lon="13.6822449"><ele>738.0</ele><time>2026-04-11T13:21:47.949Z</time></trkpt><trkpt lat="42.2598561" lon="13.681999"><ele>739.0</ele><time>2026-04-11T13:21:48.945Z</time></trkpt><trkpt lat="42.2600361" lon="13.6817635"><ele>739.0</ele><time>2026-04-11T13:21:49.948Z</time></trkpt><trkpt lat="42.2602112" lon="13.681532"><ele>739.0</ele><time>2026-04-11T13:21:50.949Z</time></trkpt><trkpt lat="42.2603888" lon="13.6812987"><ele>740.0</ele><time>2026-04-11T13:21:51.942Z</time></trkpt><trkpt lat="42.2605624" lon="13.6810717"><ele>741.0</ele><time>2026-04-11T13:21:52.946Z</time></trkpt><trkpt lat="42.2607341" lon="13.6808419"><ele>741.0</ele><time>2026-04-11T13:21:53.943Z</time></trkpt><trkpt lat="42.2609007" lon="13.6806231"><ele>741.0</ele><time>2026-04-11T13:21:54.945Z</time></trkpt><trkpt lat="42.261067" lon="13.6804067"><ele>742.0</ele><time>2026-04-11T13:21:55.944Z</time></trkpt><trkpt lat="42.2612295" lon="13.6801921"><ele>743.0</ele><time>2026-04-11T13:21:56.946Z</time></trkpt><trkpt lat="42.2613936" lon="13.6799785"><ele>742.3333333333333</ele><time>2026-04-11T13:21:57.951Z</time></trkpt><trkpt lat="42.2615524" lon="13.679764"><ele>741.6666666666666</ele><time>2026-04-11T13:21:58.95Z</time></trkpt><trkpt lat="42.2617116" lon="13.6795506"><ele>741.0</ele><time>2026-04-11T13:21:59.945Z</time></trkpt><trkpt lat="42.2618704" lon="13.6793388"><ele>741.0</ele><time>2026-04-11T13:22:00.946Z</time></trkpt><trkpt lat="42.2620355" lon="13.679125"><ele>741.0</ele><time>2026-04-11T13:22:01.943Z</time></trkpt><trkpt lat="42.2621978" lon="13.6789145"><ele>742.0</ele><time>2026-04-11T13:22:02.958Z</time></trkpt><trkpt lat="42.262362" lon="13.6786989"><ele>743.0</ele><time>2026-04-11T13:22:03.949Z</time></trkpt><trkpt lat="42.2625245" lon="13.6784832"><ele>743.0</ele><time>2026-04-11T13:22:04.951Z</time></trkpt><trkpt lat="42.2626863" lon="13.6782653"><ele>743.0</ele><time>2026-04-11T13:22:05.949Z</time></trkpt><trkpt lat="42.2628441" lon="13.6780487"><ele>743.0</ele><time>2026-04-11T13:22:06.943Z</time></trkpt><trkpt lat="42.2630068" lon="13.677835"><ele>743.0</ele><time>2026-04-11T13:22:07.949Z</time></trkpt><trkpt lat="42.2631688" lon="13.6776195"><ele>743.5</ele><time>2026-04-11T13:22:08.941Z</time></trkpt><trkpt lat="42.2633271" lon="13.6774001"><ele>744.0</ele><time>2026-04-11T13:22:09.938Z</time></trkpt><trkpt lat="42.2634905" lon="13.677192"><ele>744.0</ele><time>2026-04-11T13:22:10.948Z</time></trkpt><trkpt lat="42.2636507" lon="13.6769857"><ele>744.0</ele><time>2026-04-11T13:22:11.947Z</time></trkpt><trkpt lat="42.263813" lon="13.6767793"><ele>744.0</ele><time>2026-04-11T13:22:12.947Z</time></trkpt><trkpt lat="42.2639628" lon="13.6765794"><ele>744.0</ele><time>2026-04-11T13:22:13.942Z</time></trkpt><trkpt lat="42.2641037" lon="13.6763946"><ele>744.0</ele><time>2026-04-11T13:22:14.95Z</time></trkpt><trkpt lat="42.2642385" lon="13.6762189"><ele>744.0</ele><time>2026-04-11T13:22:15.946Z</time></trkpt><trkpt lat="42.2643655" lon="13.6760453"><ele>743.6666666666666</ele><time>2026-04-11T13:22:16.945Z</time></trkpt><trkpt lat="42.2644985" lon="13.6759004"><ele>743.3333333333333</ele><time>2026-04-11T13:22:17.949Z</time></trkpt><trkpt lat="42.264642" lon="13.6757995"><ele>743.0</ele><time>2026-04-11T13:22:18.946Z</time></trkpt><trkpt lat="42.2647898" lon="13.6757382"><ele>742.6666666666666</ele><time>2026-04-11T13:22:19.945Z</time></trkpt><trkpt lat="42.2649345" lon="13.6756646"><ele>742.3333333333334</ele><time>2026-04-11T13:22:20.946Z</time></trkpt><trkpt lat="42.2650678" lon="13.6755535"><ele>742.0</ele><time>2026-04-11T13:22:21.947Z</time></trkpt><trkpt lat="42.2651863" lon="13.6754055"><ele>742.0</ele><time>2026-04-11T13:22:22.953Z</time></trkpt><trkpt lat="42.2652812" lon="13.6752262"><ele>742.0</ele><time>2026-04-11T13:22:23.95Z</time></trkpt><trkpt lat="42.265354" lon="13.6750192"><ele>742.0</ele><time>2026-04-11T13:22:24.947Z</time></trkpt><trkpt lat="42.2654304" lon="13.6747994"><ele>742.0</ele><time>2026-04-11T13:22:25.939Z</time></trkpt><trkpt lat="42.2655367" lon="13.6745793"><ele>742.0</ele><time>2026-04-11T13:22:26.947Z</time></trkpt><trkpt lat="42.2656641" lon="13.6743735"><ele>742.0</ele><time>2026-04-11T13:22:27.955Z</time></trkpt><trkpt lat="42.2658202" lon="13.674167"><ele>742.0</ele><time>2026-04-11T13:22:28.945Z</time></trkpt><trkpt lat="42.2659885" lon="13.6739385"><ele>742.0</ele><time>2026-04-11T13:22:29.948Z</time></trkpt><trkpt lat="42.2661643" lon="13.6737049"><ele>743.0</ele><time>2026-04-11T13:22:30.947Z</time></trkpt><trkpt lat="42.2663511" lon="13.6734588"><ele>744.0</ele><time>2026-04-11T13:22:31.95Z</time></trkpt><trkpt lat="42.2665442" lon="13.6732143"><ele>744.0</ele><time>2026-04-11T13:22:32.946Z</time></trkpt><trkpt lat="42.2667409" lon="13.6729594"><ele>744.0</ele><time>2026-04-11T13:22:33.942Z</time></trkpt><trkpt lat="42.2669386" lon="13.672706"><ele>743.0</ele><time>2026-04-11T13:22:34.945Z</time></trkpt><trkpt lat="42.2671445" lon="13.6724512"><ele>742.0</ele><time>2026-04-11T13:22:35.946Z</time></trkpt><trkpt lat="42.2673582" lon="13.6721989"><ele>742.0</ele><time>2026-04-11T13:22:36.948Z</time></trkpt><trkpt lat="42.267586" lon="13.6719423"><ele>742.0</ele><time>2026-04-11T13:22:37.95Z</time></trkpt><trkpt lat="42.2678236" lon="13.6716934"><ele>742.0</ele><time>2026-04-11T13:22:38.945Z</time></trkpt><trkpt lat="42.2680672" lon="13.6714438"><ele>742.0</ele><time>2026-04-11T13:22:39.944Z</time></trkpt><trkpt lat="42.2683193" lon="13.6712026"><ele>741.0</ele><time>2026-04-11T13:22:40.948Z</time></trkpt><trkpt lat="42.2685748" lon="13.6709686"><ele>740.0</ele><time>2026-04-11T13:22:41.95Z</time></trkpt><trkpt lat="42.2688354" lon="13.6707395"><ele>739.5</ele><time>2026-04-11T13:22:42.946Z</time></trkpt><trkpt lat="42.2690959" lon="13.6705111"><ele>739.0</ele><time>2026-04-11T13:22:43.948Z</time></trkpt><trkpt lat="42.2693485" lon="13.6702771"><ele>740.0</ele><time>2026-04-11T13:22:44.947Z</time></trkpt><trkpt lat="42.2695935" lon="13.6700351"><ele>741.0</ele><time>2026-04-11T13:22:45.946Z</time></trkpt><trkpt lat="42.2698257" lon="13.6697771"><ele>740.5</ele><time>2026-04-11T13:22:46.944Z</time></trkpt><trkpt lat="42.2700503" lon="13.6695135"><ele>740.0</ele><time>2026-04-11T13:22:47.949Z</time></trkpt><trkpt lat="42.2702664" lon="13.6692475"><ele>740.0</ele><time>2026-04-11T13:22:48.944Z</time></trkpt><trkpt lat="42.2704775" lon="13.6689762"><ele>740.0</ele><time>2026-04-11T13:22:49.944Z</time></trkpt><trkpt lat="42.2706786" lon="13.668695"><ele>739.5</ele><time>2026-04-11T13:22:50.948Z</time></trkpt><trkpt lat="42.270873" lon="13.6684051"><ele>739.0</ele><time>2026-04-11T13:22:51.952Z</time></trkpt><trkpt lat="42.271061" lon="13.6681033"><ele>739.0</ele><time>2026-04-11T13:22:52.946Z</time></trkpt><trkpt lat="42.2712383" lon="13.6677936"><ele>739.0</ele><time>2026-04-11T13:22:53.951Z</time></trkpt><trkpt lat="42.2714127" lon="13.6674727"><ele>739.5</ele><time>2026-04-11T13:22:54.937Z</time></trkpt><trkpt lat="42.2715827" lon="13.6671475"><ele>740.0</ele><time>2026-04-11T13:22:55.946Z</time></trkpt><trkpt lat="42.2717457" lon="13.6668098"><ele>740.5</ele><time>2026-04-11T13:22:56.945Z</time></trkpt><trkpt lat="42.2719034" lon="13.6664667"><ele>741.0</ele><time>2026-04-11T13:22:57.947Z</time></trkpt><trkpt lat="42.2720535" lon="13.6661137"><ele>741.0</ele><time>2026-04-11T13:22:58.951Z</time></trkpt><trkpt lat="42.2722038" lon="13.6657652"><ele>741.0</ele><time>2026-04-11T13:22:59.951Z</time></trkpt><trkpt lat="42.2723549" lon="13.6654182"><ele>741.5</ele><time>2026-04-11T13:23:00.953Z</time></trkpt><trkpt lat="42.2725088" lon="13.6650675"><ele>742.0</ele><time>2026-04-11T13:23:01.946Z</time></trkpt><trkpt lat="42.2726675" lon="13.6647247"><ele>741.5</ele><time>2026-04-11T13:23:02.954Z</time></trkpt><trkpt lat="42.2728369" lon="13.6643884"><ele>741.0</ele><time>2026-04-11T13:23:03.945Z</time></trkpt><trkpt lat="42.2730192" lon="13.6640512"><ele>741.5</ele><time>2026-04-11T13:23:04.951Z</time></trkpt><trkpt lat="42.2732069" lon="13.6637268"><ele>742.0</ele><time>2026-04-11T13:23:05.945Z</time></trkpt><trkpt lat="42.2734079" lon="13.6634113"><ele>742.0</ele><time>2026-04-11T13:23:06.946Z</time></trkpt><trkpt lat="42.273617" lon="13.6631005"><ele>742.0</ele><time>2026-04-11T13:23:07.948Z</time></trkpt><trkpt lat="42.2738334" lon="13.6627956"><ele>743.0</ele><time>2026-04-11T13:23:08.952Z</time></trkpt><trkpt lat="42.2740557" lon="13.6625057"><ele>744.0</ele><time>2026-04-11T13:23:09.943Z</time></trkpt><trkpt lat="42.2742888" lon="13.6622244"><ele>744.0</ele><time>2026-04-11T13:23:10.954Z</time></trkpt><trkpt lat="42.2745294" lon="13.6619617"><ele>744.0</ele><time>2026-04-11T13:23:11.946Z</time></trkpt><trkpt lat="42.2747744" lon="13.6617067"><ele>743.0</ele><time>2026-04-11T13:23:12.949Z</time></trkpt><trkpt lat="42.2750199" lon="13.6614647"><ele>742.0</ele><time>2026-04-11T13:23:13.947Z</time></trkpt><trkpt lat="42.2752686" lon="13.6612235"><ele>743.0</ele><time>2026-04-11T13:23:14.946Z</time></trkpt><trkpt lat="42.275516" lon="13.6609743"><ele>744.0</ele><time>2026-04-11T13:23:15.94Z</time></trkpt><trkpt lat="42.2757619" lon="13.6607258"><ele>744.0</ele><time>2026-04-11T13:23:16.949Z</time></trkpt><trkpt lat="42.2760045" lon="13.6604675"><ele>744.0</ele><time>2026-04-11T13:23:17.952Z</time></trkpt><trkpt lat="42.2762388" lon="13.6601987"><ele>744.0</ele><time>2026-04-11T13:23:18.941Z</time></trkpt><trkpt lat="42.2764655" lon="13.6599212"><ele>744.0</ele><time>2026-04-11T13:23:19.949Z</time></trkpt><trkpt lat="42.2766859" lon="13.6596358"><ele>746.0</ele><time>2026-04-11T13:23:20.944Z</time></trkpt><trkpt lat="42.2769046" lon="13.6593464"><ele>748.0</ele><time>2026-04-11T13:23:21.942Z</time></trkpt><trkpt lat="42.2771238" lon="13.659054"><ele>748.0</ele><time>2026-04-11T13:23:22.948Z</time></trkpt><trkpt lat="42.2773441" lon="13.658768"><ele>748.0</ele><time>2026-04-11T13:23:23.948Z</time></trkpt><trkpt lat="42.2775594" lon="13.6584806"><ele>748.0</ele><time>2026-04-11T13:23:24.946Z</time></trkpt><trkpt lat="42.2777762" lon="13.6581927"><ele>748.0</ele><time>2026-04-11T13:23:25.946Z</time></trkpt><trkpt lat="42.2779944" lon="13.6579069"><ele>751.0</ele><time>2026-04-11T13:23:26.938Z</time></trkpt><trkpt lat="42.2782097" lon="13.6576207"><ele>754.0</ele><time>2026-04-11T13:23:27.946Z</time></trkpt><trkpt lat="42.2784247" lon="13.6573387"><ele>754.0</ele><time>2026-04-11T13:23:28.947Z</time></trkpt><trkpt lat="42.278642" lon="13.6570508"><ele>754.0</ele><time>2026-04-11T13:23:29.948Z</time></trkpt><trkpt lat="42.2788567" lon="13.6567638"><ele>751.5</ele><time>2026-04-11T13:23:30.947Z</time></trkpt><trkpt lat="42.2790733" lon="13.6564726"><ele>749.0</ele><time>2026-04-11T13:23:31.945Z</time></trkpt><trkpt lat="42.2792903" lon="13.6561844"><ele>751.0</ele><time>2026-04-11T13:23:32.952Z</time></trkpt><trkpt lat="42.2795039" lon="13.655897"><ele>753.0</ele><time>2026-04-11T13:23:33.948Z</time></trkpt><trkpt lat="42.2797152" lon="13.6556025"><ele>753.0</ele><time>2026-04-11T13:23:34.948Z</time></trkpt><trkpt lat="42.279925" lon="13.6553041"><ele>753.0</ele><time>2026-04-11T13:23:35.944Z</time></trkpt><trkpt lat="42.2801284" lon="13.6550078"><ele>753.0</ele><time>2026-04-11T13:23:36.95Z</time></trkpt><trkpt lat="42.2803347" lon="13.6547034"><ele>753.0</ele><time>2026-04-11T13:23:37.945Z</time></trkpt><trkpt lat="42.280539" lon="13.6544065"><ele>751.0</ele><time>2026-04-11T13:23:38.946Z</time></trkpt><trkpt lat="42.2807489" lon="13.6541224"><ele>749.0</ele><time>2026-04-11T13:23:39.941Z</time></trkpt><trkpt lat="42.280957" lon="13.6538316"><ele>749.5</ele><time>2026-04-11T13:23:40.947Z</time></trkpt><trkpt lat="42.2811697" lon="13.6535473"><ele>750.0</ele><time>2026-04-11T13:23:41.947Z</time></trkpt><trkpt lat="42.2813805" lon="13.6532652"><ele>752.0</ele><time>2026-04-11T13:23:42.944Z</time></trkpt><trkpt lat="42.2815925" lon="13.6529868"><ele>754.0</ele><time>2026-04-11T13:23:43.94Z</time></trkpt><trkpt lat="42.2818087" lon="13.6527131"><ele>754.0</ele><time>2026-04-11T13:23:44.945Z</time></trkpt><trkpt lat="42.2820192" lon="13.652421"><ele>754.0</ele><time>2026-04-11T13:23:45.944Z</time></trkpt><trkpt lat="42.2822307" lon="13.6521305"><ele>754.5</ele><time>2026-04-11T13:23:46.955Z</time></trkpt><trkpt lat="42.2824436" lon="13.6518403"><ele>755.0</ele><time>2026-04-11T13:23:47.952Z</time></trkpt><trkpt lat="42.2826556" lon="13.6515543"><ele>755.0</ele><time>2026-04-11T13:23:48.949Z</time></trkpt><trkpt lat="42.2828669" lon="13.6512712"><ele>755.0</ele><time>2026-04-11T13:23:49.947Z</time></trkpt><trkpt lat="42.2830789" lon="13.6509798"><ele>755.5</ele><time>2026-04-11T13:23:50.946Z</time></trkpt><trkpt lat="42.2832945" lon="13.6506982"><ele>756.0</ele><time>2026-04-11T13:23:51.946Z</time></trkpt><trkpt lat="42.2835089" lon="13.6504208"><ele>756.0</ele><time>2026-04-11T13:23:52.951Z</time></trkpt><trkpt lat="42.2837275" lon="13.6501503"><ele>756.0</ele><time>2026-04-11T13:23:53.945Z</time></trkpt><trkpt lat="42.2839508" lon="13.6498761"><ele>757.5</ele><time>2026-04-11T13:23:54.945Z</time></trkpt><trkpt lat="42.2841785" lon="13.6496014"><ele>759.0</ele><time>2026-04-11T13:23:55.951Z</time></trkpt><trkpt lat="42.2844068" lon="13.6493281"><ele>759.0</ele><time>2026-04-11T13:23:56.947Z</time></trkpt><trkpt lat="42.2846309" lon="13.6490552"><ele>759.0</ele><time>2026-04-11T13:23:57.949Z</time></trkpt><trkpt lat="42.2848477" lon="13.6487755"><ele>759.5</ele><time>2026-04-11T13:23:58.944Z</time></trkpt><trkpt lat="42.2850629" lon="13.6484826"><ele>760.0</ele><time>2026-04-11T13:23:59.944Z</time></trkpt><trkpt lat="42.2852812" lon="13.6481964"><ele>760.0</ele><time>2026-04-11T13:24:00.943Z</time></trkpt><trkpt lat="42.2854971" lon="13.6479092"><ele>760.0</ele><time>2026-04-11T13:24:01.946Z</time></trkpt><trkpt lat="42.2857158" lon="13.6476195"><ele>762.0</ele><time>2026-04-11T13:24:02.955Z</time></trkpt><trkpt lat="42.2859358" lon="13.6473314"><ele>764.0</ele><time>2026-04-11T13:24:03.947Z</time></trkpt><trkpt lat="42.2861559" lon="13.6470389"><ele>764.0</ele><time>2026-04-11T13:24:04.963Z</time></trkpt><trkpt lat="42.2863767" lon="13.6467453"><ele>764.0</ele><time>2026-04-11T13:24:05.945Z</time></trkpt><trkpt lat="42.2865968" lon="13.646454"><ele>766.5</ele><time>2026-04-11T13:24:06.944Z</time></trkpt><trkpt lat="42.2868176" lon="13.6461624"><ele>769.0</ele><time>2026-04-11T13:24:07.945Z</time></trkpt><trkpt lat="42.2870368" lon="13.6458638"><ele>769.0</ele><time>2026-04-11T13:24:08.945Z</time></trkpt><trkpt lat="42.2872576" lon="13.6455651"><ele>769.0</ele><time>2026-04-11T13:24:09.945Z</time></trkpt><trkpt lat="42.2874819" lon="13.6452673"><ele>772.5</ele><time>2026-04-11T13:24:10.944Z</time></trkpt><trkpt lat="42.2877059" lon="13.6449632"><ele>776.0</ele><time>2026-04-11T13:24:11.945Z</time></trkpt><trkpt lat="42.2879343" lon="13.64465"><ele>775.5</ele><time>2026-04-11T13:24:12.946Z</time></trkpt><trkpt lat="42.2881487" lon="13.6443561"><ele>775.0</ele><time>2026-04-11T13:24:13.948Z</time></trkpt><trkpt lat="42.2883704" lon="13.6440485"><ele>775.0</ele><time>2026-04-11T13:24:14.947Z</time></trkpt><trkpt lat="42.2885871" lon="13.6437464"><ele>775.0</ele><time>2026-04-11T13:24:15.947Z</time></trkpt><trkpt lat="42.2888043" lon="13.6434503"><ele>776.0</ele><time>2026-04-11T13:24:16.946Z</time></trkpt><trkpt lat="42.2890287" lon="13.6431442"><ele>777.0</ele><time>2026-04-11T13:24:17.946Z</time></trkpt><trkpt lat="42.2892356" lon="13.6428636"><ele>777.0</ele><time>2026-04-11T13:24:18.949Z</time></trkpt><trkpt lat="42.2894337" lon="13.642588"><ele>777.0</ele><time>2026-04-11T13:24:19.946Z</time></trkpt><trkpt lat="42.2896314" lon="13.6423203"><ele>778.5</ele><time>2026-04-11T13:24:20.945Z</time></trkpt><trkpt lat="42.289827" lon="13.6420515"><ele>780.0</ele><time>2026-04-11T13:24:21.944Z</time></trkpt><trkpt lat="42.2900155" lon="13.641794"><ele>780.0</ele><time>2026-04-11T13:24:22.946Z</time></trkpt><trkpt lat="42.2901987" lon="13.6415242"><ele>780.0</ele><time>2026-04-11T13:24:23.945Z</time></trkpt><trkpt lat="42.2903807" lon="13.6412618"><ele>780.0</ele><time>2026-04-11T13:24:24.942Z</time></trkpt><trkpt lat="42.2905636" lon="13.6410019"><ele>780.0</ele><time>2026-04-11T13:24:25.947Z</time></trkpt><trkpt lat="42.2907456" lon="13.6407454"><ele>780.0</ele><time>2026-04-11T13:24:26.948Z</time></trkpt><trkpt lat="42.2909295" lon="13.6404847"><ele>780.0</ele><time>2026-04-11T13:24:27.944Z</time></trkpt><trkpt lat="42.2911143" lon="13.6402238"><ele>779.0</ele><time>2026-04-11T13:24:28.946Z</time></trkpt><trkpt lat="42.2913011" lon="13.639965"><ele>778.0</ele><time>2026-04-11T13:24:29.946Z</time></trkpt><trkpt lat="42.2914869" lon="13.639693"><ele>778.5</ele><time>2026-04-11T13:24:30.949Z</time></trkpt><trkpt lat="42.2916753" lon="13.6394339"><ele>779.0</ele><time>2026-04-11T13:24:31.946Z</time></trkpt><trkpt lat="42.2918621" lon="13.6391769"><ele>779.0</ele><time>2026-04-11T13:24:32.948Z</time></trkpt><trkpt lat="42.2920491" lon="13.6389139"><ele>779.0</ele><time>2026-04-11T13:24:33.943Z</time></trkpt><trkpt lat="42.2922342" lon="13.6386506"><ele>780.5</ele><time>2026-04-11T13:24:34.947Z</time></trkpt><trkpt lat="42.2924188" lon="13.6383861"><ele>782.0</ele><time>2026-04-11T13:24:35.944Z</time></trkpt><trkpt lat="42.2926051" lon="13.6381291"><ele>782.0</ele><time>2026-04-11T13:24:36.946Z</time></trkpt><trkpt lat="42.2927879" lon="13.637876"><ele>782.0</ele><time>2026-04-11T13:24:37.952Z</time></trkpt><trkpt lat="42.292966" lon="13.6376249"><ele>784.0</ele><time>2026-04-11T13:24:38.945Z</time></trkpt><trkpt lat="42.2931452" lon="13.637371"><ele>786.0</ele><time>2026-04-11T13:24:39.943Z</time></trkpt><trkpt lat="42.293324" lon="13.6371224"><ele>786.0</ele><time>2026-04-11T13:24:40.942Z</time></trkpt><trkpt lat="42.293496" lon="13.6368784"><ele>786.0</ele><time>2026-04-11T13:24:41.946Z</time></trkpt><trkpt lat="42.2936717" lon="13.6366369"><ele>786.0</ele><time>2026-04-11T13:24:42.942Z</time></trkpt><trkpt lat="42.2938501" lon="13.6364018"><ele>786.0</ele><time>2026-04-11T13:24:43.949Z</time></trkpt><trkpt lat="42.2940239" lon="13.6361652"><ele>787.5</ele><time>2026-04-11T13:24:44.944Z</time></trkpt><trkpt lat="42.294195" lon="13.635934"><ele>789.0</ele><time>2026-04-11T13:24:45.946Z</time></trkpt><trkpt lat="42.2943657" lon="13.635706"><ele>789.0</ele><time>2026-04-11T13:24:46.946Z</time></trkpt><trkpt lat="42.2945323" lon="13.6354771"><ele>789.0</ele><time>2026-04-11T13:24:47.954Z</time></trkpt><trkpt lat="42.294695" lon="13.6352597"><ele>790.3333333333333</ele><time>2026-04-11T13:24:48.944Z</time></trkpt><trkpt lat="42.2948472" lon="13.6350526"><ele>791.6666666666666</ele><time>2026-04-11T13:24:49.955Z</time></trkpt><trkpt lat="42.2949916" lon="13.6348507"><ele>793.0</ele><time>2026-04-11T13:24:50.948Z</time></trkpt><trkpt lat="42.2951234" lon="13.6346662"><ele>793.0</ele><time>2026-04-11T13:24:51.951Z</time></trkpt><trkpt lat="42.2952514" lon="13.6344947"><ele>793.0</ele><time>2026-04-11T13:24:52.945Z</time></trkpt><trkpt lat="42.2953742" lon="13.6343254"><ele>793.0</ele><time>2026-04-11T13:24:53.944Z</time></trkpt><trkpt lat="42.2954936" lon="13.634158"><ele>795.0</ele><time>2026-04-11T13:24:54.943Z</time></trkpt><trkpt lat="42.2956111" lon="13.6339957"><ele>797.0</ele><time>2026-04-11T13:24:55.94Z</time></trkpt><trkpt lat="42.2957185" lon="13.6338474"><ele>799.0</ele><time>2026-04-11T13:24:56.952Z</time></trkpt><trkpt lat="42.2958179" lon="13.6337099"><ele>801.25</ele><time>2026-04-11T13:24:57.953Z</time></trkpt><trkpt lat="42.2959034" lon="13.6335824"><ele>803.5</ele><time>2026-04-11T13:24:58.944Z</time></trkpt><trkpt lat="42.2959919" lon="13.6334589"><ele>805.75</ele><time>2026-04-11T13:24:59.942Z</time></trkpt><trkpt lat="42.2960822" lon="13.6333391"><ele>808.0</ele><time>2026-04-11T13:25:00.957Z</time></trkpt><trkpt lat="42.2961749" lon="13.6332097"><ele>808.0</ele><time>2026-04-11T13:25:01.956Z</time></trkpt><trkpt lat="42.2962729" lon="13.6330748"><ele>808.0</ele><time>2026-04-11T13:25:02.947Z</time></trkpt><trkpt lat="42.2963765" lon="13.6329324"><ele>808.0</ele><time>2026-04-11T13:25:03.947Z</time></trkpt><trkpt lat="42.2964834" lon="13.6327814"><ele>808.0</ele><time>2026-04-11T13:25:04.948Z</time></trkpt><trkpt lat="42.2965991" lon="13.6326199"><ele>808.3333333333333</ele><time>2026-04-11T13:25:05.946Z</time></trkpt><trkpt lat="42.2967191" lon="13.6324542"><ele>808.6666666666667</ele><time>2026-04-11T13:25:06.949Z</time></trkpt><trkpt lat="42.2968434" lon="13.6322873"><ele>809.0</ele><time>2026-04-11T13:25:07.945Z</time></trkpt><trkpt lat="42.2969749" lon="13.6321105"><ele>809.3333333333334</ele><time>2026-04-11T13:25:08.95Z</time></trkpt><trkpt lat="42.2971055" lon="13.6319271"><ele>809.6666666666667</ele><time>2026-04-11T13:25:09.947Z</time></trkpt><trkpt lat="42.2972426" lon="13.6317428"><ele>810.0</ele><time>2026-04-11T13:25:10.946Z</time></trkpt><trkpt lat="42.2973739" lon="13.63156"><ele>810.0</ele><time>2026-04-11T13:25:11.948Z</time></trkpt><trkpt lat="42.2975093" lon="13.6313716"><ele>810.0</ele><time>2026-04-11T13:25:12.945Z</time></trkpt><trkpt lat="42.2976516" lon="13.6311728"><ele>810.0</ele><time>2026-04-11T13:25:13.942Z</time></trkpt><trkpt lat="42.297797" lon="13.6309794"><ele>810.6666666666667</ele><time>2026-04-11T13:25:14.95Z</time></trkpt><trkpt lat="42.2979446" lon="13.6307635"><ele>811.3333333333334</ele><time>2026-04-11T13:25:15.949Z</time></trkpt><trkpt lat="42.2980845" lon="13.630529"><ele>812.0</ele><time>2026-04-11T13:25:16.96Z</time></trkpt><trkpt lat="42.2982137" lon="13.630295"><ele>813.0</ele><time>2026-04-11T13:25:17.946Z</time></trkpt><trkpt lat="42.2983346" lon="13.6300404"><ele>814.0</ele><time>2026-04-11T13:25:18.943Z</time></trkpt><trkpt lat="42.2984476" lon="13.6297826"><ele>815.0</ele><time>2026-04-11T13:25:19.945Z</time></trkpt><trkpt lat="42.2985422" lon="13.6295177"><ele>816.0</ele><time>2026-04-11T13:25:20.94Z</time></trkpt><trkpt lat="42.2986285" lon="13.6292427"><ele>817.0</ele><time>2026-04-11T13:25:21.949Z</time></trkpt><trkpt lat="42.2987066" lon="13.6289629"><ele>818.0</ele><time>2026-04-11T13:25:22.947Z</time></trkpt><trkpt lat="42.2987799" lon="13.6286823"><ele>818.0</ele><time>2026-04-11T13:25:23.945Z</time></trkpt><trkpt lat="42.2988531" lon="13.6283936"><ele>818.0</ele><time>2026-04-11T13:25:24.945Z</time></trkpt><trkpt lat="42.2989281" lon="13.6281026"><ele>816.5</ele><time>2026-04-11T13:25:25.951Z</time></trkpt><trkpt lat="42.2990024" lon="13.6278112"><ele>815.0</ele><time>2026-04-11T13:25:26.947Z</time></trkpt><trkpt lat="42.2990727" lon="13.6275246"><ele>815.0</ele><time>2026-04-11T13:25:27.947Z</time></trkpt><trkpt lat="42.2991463" lon="13.6272374"><ele>815.0</ele><time>2026-04-11T13:25:28.944Z</time></trkpt><trkpt lat="42.299219" lon="13.6269504"><ele>815.0</ele><time>2026-04-11T13:25:29.949Z</time></trkpt><trkpt lat="42.2992965" lon="13.6266618"><ele>817.0</ele><time>2026-04-11T13:25:30.955Z</time></trkpt><trkpt lat="42.2993742" lon="13.6263772"><ele>819.0</ele><time>2026-04-11T13:25:31.949Z</time></trkpt><trkpt lat="42.299461" lon="13.6260877"><ele>820.0</ele><time>2026-04-11T13:25:32.948Z</time></trkpt><trkpt lat="42.2995571" lon="13.6257998"><ele>821.0</ele><time>2026-04-11T13:25:33.955Z</time></trkpt><trkpt lat="42.2996598" lon="13.6255087"><ele>820.5</ele><time>2026-04-11T13:25:34.95Z</time></trkpt><trkpt lat="42.2997722" lon="13.6252222"><ele>820.0</ele><time>2026-04-11T13:25:35.938Z</time></trkpt><trkpt lat="42.2998929" lon="13.6249337"><ele>820.0</ele><time>2026-04-11T13:25:36.948Z</time></trkpt><trkpt lat="42.3000224" lon="13.624645"><ele>820.0</ele><time>2026-04-11T13:25:37.952Z</time></trkpt><trkpt lat="42.3001604" lon="13.6243619"><ele>820.5</ele><time>2026-04-11T13:25:38.942Z</time></trkpt><trkpt lat="42.3003003" lon="13.6240855"><ele>821.0</ele><time>2026-04-11T13:25:39.947Z</time></trkpt><trkpt lat="42.3004495" lon="13.623819"><ele>821.5</ele><time>2026-04-11T13:25:40.948Z</time></trkpt><trkpt lat="42.3005987" lon="13.623552"><ele>822.0</ele><time>2026-04-11T13:25:41.943Z</time></trkpt><trkpt lat="42.3007514" lon="13.6232805"><ele>822.0</ele><time>2026-04-11T13:25:42.94Z</time></trkpt><trkpt lat="42.3009008" lon="13.6230138"><ele>822.0</ele><time>2026-04-11T13:25:43.947Z</time></trkpt><trkpt lat="42.3010488" lon="13.6227394"><ele>823.0</ele><time>2026-04-11T13:25:44.944Z</time></trkpt><trkpt lat="42.3012009" lon="13.6224641"><ele>824.0</ele><time>2026-04-11T13:25:45.948Z</time></trkpt><trkpt lat="42.3013491" lon="13.6221916"><ele>826.5</ele><time>2026-04-11T13:25:46.949Z</time></trkpt><trkpt lat="42.3015004" lon="13.6219207"><ele>829.0</ele><time>2026-04-11T13:25:47.943Z</time></trkpt><trkpt lat="42.3016506" lon="13.6216488"><ele>829.0</ele><time>2026-04-11T13:25:48.947Z</time></trkpt><trkpt lat="42.3018" lon="13.6213739"><ele>829.0</ele><time>2026-04-11T13:25:49.95Z</time></trkpt><trkpt lat="42.3019493" lon="13.621103"><ele>829.5</ele><time>2026-04-11T13:25:50.947Z</time></trkpt><trkpt lat="42.302101" lon="13.620828"><ele>830.0</ele><time>2026-04-11T13:25:51.949Z</time></trkpt><trkpt lat="42.3022492" lon="13.6205541"><ele>830.0</ele><time>2026-04-11T13:25:52.947Z</time></trkpt><trkpt lat="42.3023954" lon="13.6202817"><ele>830.0</ele><time>2026-04-11T13:25:53.943Z</time></trkpt><trkpt lat="42.3025436" lon="13.6200065"><ele>830.0</ele><time>2026-04-11T13:25:54.951Z</time></trkpt><trkpt lat="42.3026926" lon="13.6197328"><ele>830.0</ele><time>2026-04-11T13:25:55.942Z</time></trkpt><trkpt lat="42.3028365" lon="13.6194587"><ele>830.0</ele><time>2026-04-11T13:25:56.945Z</time></trkpt><trkpt lat="42.3029831" lon="13.6191826"><ele>830.0</ele><time>2026-04-11T13:25:57.949Z</time></trkpt><trkpt lat="42.3031304" lon="13.61891"><ele>830.5</ele><time>2026-04-11T13:25:58.955Z</time></trkpt><trkpt lat="42.3032812" lon="13.6186314"><ele>831.0</ele><time>2026-04-11T13:25:59.947Z</time></trkpt><trkpt lat="42.3034265" lon="13.618358"><ele>831.0</ele><time>2026-04-11T13:26:00.949Z</time></trkpt><trkpt lat="42.3035738" lon="13.618086"><ele>831.0</ele><time>2026-04-11T13:26:01.943Z</time></trkpt><trkpt lat="42.3037229" lon="13.6178118"><ele>831.5</ele><time>2026-04-11T13:26:02.942Z</time></trkpt><trkpt lat="42.3038706" lon="13.6175418"><ele>832.0</ele><time>2026-04-11T13:26:03.941Z</time></trkpt><trkpt lat="42.3040149" lon="13.6172709"><ele>832.0</ele><time>2026-04-11T13:26:04.947Z</time></trkpt><trkpt lat="42.3041605" lon="13.6169999"><ele>832.0</ele><time>2026-04-11T13:26:05.95Z</time></trkpt><trkpt lat="42.304305" lon="13.6167324"><ele>834.5</ele><time>2026-04-11T13:26:06.944Z</time></trkpt><trkpt lat="42.3044507" lon="13.6164648"><ele>837.0</ele><time>2026-04-11T13:26:07.947Z</time></trkpt><trkpt lat="42.3045943" lon="13.6161985"><ele>835.5</ele><time>2026-04-11T13:26:08.944Z</time></trkpt><trkpt lat="42.3047363" lon="13.615929"><ele>834.0</ele><time>2026-04-11T13:26:09.946Z</time></trkpt><trkpt lat="42.3048804" lon="13.6156641"><ele>834.0</ele><time>2026-04-11T13:26:10.955Z</time></trkpt><trkpt lat="42.3050271" lon="13.6153896"><ele>834.0</ele><time>2026-04-11T13:26:11.944Z</time></trkpt><trkpt lat="42.3051776" lon="13.615115"><ele>835.0</ele><time>2026-04-11T13:26:12.938Z</time></trkpt><trkpt lat="42.3053303" lon="13.6148396"><ele>836.0</ele><time>2026-04-11T13:26:13.947Z</time></trkpt><trkpt lat="42.3054798" lon="13.6145573"><ele>835.0</ele><time>2026-04-11T13:26:14.944Z</time></trkpt><trkpt lat="42.305633" lon="13.6142694"><ele>834.0</ele><time>2026-04-11T13:26:15.947Z</time></trkpt><trkpt lat="42.3057901" lon="13.613983"><ele>834.0</ele><time>2026-04-11T13:26:16.946Z</time></trkpt><trkpt lat="42.3059483" lon="13.6136973"><ele>834.0</ele><time>2026-04-11T13:26:17.947Z</time></trkpt><trkpt lat="42.3061042" lon="13.6134087"><ele>837.5</ele><time>2026-04-11T13:26:18.945Z</time></trkpt><trkpt lat="42.3062588" lon="13.6131173"><ele>841.0</ele><time>2026-04-11T13:26:19.944Z</time></trkpt><trkpt lat="42.306414" lon="13.6128264"><ele>838.5</ele><time>2026-04-11T13:26:20.948Z</time></trkpt><trkpt lat="42.3065691" lon="13.6125387"><ele>836.0</ele><time>2026-04-11T13:26:21.945Z</time></trkpt><trkpt lat="42.3067207" lon="13.6122594"><ele>836.0</ele><time>2026-04-11T13:26:22.944Z</time></trkpt><trkpt lat="42.3068727" lon="13.6119824"><ele>836.0</ele><time>2026-04-11T13:26:23.941Z</time></trkpt><trkpt lat="42.307024" lon="13.6117041"><ele>836.0</ele><time>2026-04-11T13:26:24.947Z</time></trkpt><trkpt lat="42.3071713" lon="13.6114294"><ele>836.0</ele><time>2026-04-11T13:26:25.947Z</time></trkpt><trkpt lat="42.3073151" lon="13.6111614"><ele>837.0</ele><time>2026-04-11T13:26:26.953Z</time></trkpt><trkpt lat="42.3074581" lon="13.6108918"><ele>838.0</ele><time>2026-04-11T13:26:27.945Z</time></trkpt><trkpt lat="42.3075987" lon="13.6106325"><ele>838.0</ele><time>2026-04-11T13:26:28.946Z</time></trkpt><trkpt lat="42.3077372" lon="13.6103694"><ele>838.0</ele><time>2026-04-11T13:26:29.943Z</time></trkpt><trkpt lat="42.3078794" lon="13.6101083"><ele>839.5</ele><time>2026-04-11T13:26:30.941Z</time></trkpt><trkpt lat="42.3080201" lon="13.6098503"><ele>841.0</ele><time>2026-04-11T13:26:31.946Z</time></trkpt><trkpt lat="42.3081632" lon="13.6095843"><ele>842.0</ele><time>2026-04-11T13:26:32.945Z</time></trkpt><trkpt lat="42.3083063" lon="13.6093133"><ele>843.0</ele><time>2026-04-11T13:26:33.943Z</time></trkpt><trkpt lat="42.308452" lon="13.6090444"><ele>843.0</ele><time>2026-04-11T13:26:34.945Z</time></trkpt><trkpt lat="42.3085978" lon="13.6087747"><ele>843.0</ele><time>2026-04-11T13:26:35.943Z</time></trkpt><trkpt lat="42.3087438" lon="13.6084982"><ele>843.0</ele><time>2026-04-11T13:26:36.947Z</time></trkpt><trkpt lat="42.3088933" lon="13.6082202"><ele>843.0</ele><time>2026-04-11T13:26:37.946Z</time></trkpt><trkpt lat="42.3090445" lon="13.6079386"><ele>843.0</ele><time>2026-04-11T13:26:38.944Z</time></trkpt><trkpt lat="42.3091988" lon="13.6076498"><ele>843.0</ele><time>2026-04-11T13:26:39.948Z</time></trkpt><trkpt lat="42.309355" lon="13.6073539"><ele>843.0</ele><time>2026-04-11T13:26:40.947Z</time></trkpt><trkpt lat="42.3095125" lon="13.60706"><ele>843.0</ele><time>2026-04-11T13:26:41.946Z</time></trkpt><trkpt lat="42.309671" lon="13.6067601"><ele>844.5</ele><time>2026-04-11T13:26:42.944Z</time></trkpt><trkpt lat="42.3098297" lon="13.6064671"><ele>846.0</ele><time>2026-04-11T13:26:43.945Z</time></trkpt><trkpt lat="42.3099839" lon="13.6061761"><ele>846.0</ele><time>2026-04-11T13:26:44.943Z</time></trkpt><trkpt lat="42.3101445" lon="13.6058834"><ele>846.0</ele><time>2026-04-11T13:26:45.945Z</time></trkpt><trkpt lat="42.3103041" lon="13.6055897"><ele>846.0</ele><time>2026-04-11T13:26:46.948Z</time></trkpt><trkpt lat="42.3104617" lon="13.6053005"><ele>846.0</ele><time>2026-04-11T13:26:47.946Z</time></trkpt><trkpt lat="42.3106212" lon="13.6050119"><ele>847.0</ele><time>2026-04-11T13:26:48.956Z</time></trkpt><trkpt lat="42.31078" lon="13.6047187"><ele>848.0</ele><time>2026-04-11T13:26:49.945Z</time></trkpt><trkpt lat="42.3109347" lon="13.604437"><ele>848.0</ele><time>2026-04-11T13:26:50.947Z</time></trkpt><trkpt lat="42.3110851" lon="13.6041569"><ele>848.0</ele><time>2026-04-11T13:26:51.947Z</time></trkpt><trkpt lat="42.3112356" lon="13.6038783"><ele>848.0</ele><time>2026-04-11T13:26:52.942Z</time></trkpt><trkpt lat="42.3113845" lon="13.6036046"><ele>848.0</ele><time>2026-04-11T13:26:53.947Z</time></trkpt><trkpt lat="42.3115312" lon="13.6033312"><ele>849.5</ele><time>2026-04-11T13:26:54.939Z</time></trkpt><trkpt lat="42.3116746" lon="13.603063"><ele>851.0</ele><time>2026-04-11T13:26:55.95Z</time></trkpt><trkpt lat="42.3118216" lon="13.6027882"><ele>851.0</ele><time>2026-04-11T13:26:56.944Z</time></trkpt><trkpt lat="42.3119656" lon="13.6025194"><ele>851.0</ele><time>2026-04-11T13:26:57.95Z</time></trkpt><trkpt lat="42.3121104" lon="13.602255"><ele>852.5</ele><time>2026-04-11T13:26:58.944Z</time></trkpt><trkpt lat="42.3122534" lon="13.6019864"><ele>854.0</ele><time>2026-04-11T13:26:59.947Z</time></trkpt><trkpt lat="42.3123967" lon="13.6017149"><ele>854.0</ele><time>2026-04-11T13:27:00.936Z</time></trkpt><trkpt lat="42.312544" lon="13.6014395"><ele>854.0</ele><time>2026-04-11T13:27:01.946Z</time></trkpt><trkpt lat="42.3126897" lon="13.6011714"><ele>853.5</ele><time>2026-04-11T13:27:02.939Z</time></trkpt><trkpt lat="42.3128383" lon="13.6009001"><ele>853.0</ele><time>2026-04-11T13:27:03.941Z</time></trkpt><trkpt lat="42.3129845" lon="13.6006266"><ele>853.0</ele><time>2026-04-11T13:27:04.944Z</time></trkpt><trkpt lat="42.3131326" lon="13.6003537"><ele>853.0</ele><time>2026-04-11T13:27:05.947Z</time></trkpt><trkpt lat="42.3132845" lon="13.6000806"><ele>854.0</ele><time>2026-04-11T13:27:06.941Z</time></trkpt><trkpt lat="42.3134343" lon="13.5998024"><ele>855.0</ele><time>2026-04-11T13:27:07.946Z</time></trkpt><trkpt lat="42.3135799" lon="13.5995271"><ele>855.0</ele><time>2026-04-11T13:27:08.941Z</time></trkpt><trkpt lat="42.3137243" lon="13.5992539"><ele>855.0</ele><time>2026-04-11T13:27:09.941Z</time></trkpt><trkpt lat="42.313867" lon="13.5989737"><ele>856.5</ele><time>2026-04-11T13:27:10.946Z</time></trkpt><trkpt lat="42.3140134" lon="13.5986799"><ele>858.0</ele><time>2026-04-11T13:27:11.947Z</time></trkpt><trkpt lat="42.3141742" lon="13.598378"><ele>858.5</ele><time>2026-04-11T13:27:12.948Z</time></trkpt><trkpt lat="42.3143463" lon="13.5980786"><ele>859.0</ele><time>2026-04-11T13:27:13.947Z</time></trkpt><trkpt lat="42.314516" lon="13.5977815"><ele>860.0</ele><time>2026-04-11T13:27:14.94Z</time></trkpt><trkpt lat="42.3146817" lon="13.5974805"><ele>861.0</ele><time>2026-04-11T13:27:15.946Z</time></trkpt><trkpt lat="42.3148462" lon="13.5971815"><ele>863.0</ele><time>2026-04-11T13:27:16.944Z</time></trkpt><trkpt lat="42.315007" lon="13.5968767"><ele>865.0</ele><time>2026-04-11T13:27:17.946Z</time></trkpt><trkpt lat="42.3151668" lon="13.5965773"><ele>865.0</ele><time>2026-04-11T13:27:18.942Z</time></trkpt><trkpt lat="42.3153271" lon="13.5962768"><ele>865.0</ele><time>2026-04-11T13:27:19.953Z</time></trkpt><trkpt lat="42.3154896" lon="13.5959712"><ele>866.5</ele><time>2026-04-11T13:27:20.946Z</time></trkpt><trkpt lat="42.3156491" lon="13.5956717"><ele>868.0</ele><time>2026-04-11T13:27:21.941Z</time></trkpt><trkpt lat="42.3158105" lon="13.5953713"><ele>870.0</ele><time>2026-04-11T13:27:22.943Z</time></trkpt><trkpt lat="42.3159744" lon="13.5950644"><ele>872.0</ele><time>2026-04-11T13:27:23.944Z</time></trkpt><trkpt lat="42.3161405" lon="13.5947586"><ele>872.5</ele><time>2026-04-11T13:27:24.943Z</time></trkpt><trkpt lat="42.3163019" lon="13.5944565"><ele>873.0</ele><time>2026-04-11T13:27:25.946Z</time></trkpt><trkpt lat="42.3164648" lon="13.5941554"><ele>873.0</ele><time>2026-04-11T13:27:26.942Z</time></trkpt><trkpt lat="42.3166287" lon="13.5938466"><ele>873.0</ele><time>2026-04-11T13:27:27.941Z</time></trkpt><trkpt lat="42.3167945" lon="13.5935423"><ele>873.0</ele><time>2026-04-11T13:27:28.941Z</time></trkpt><trkpt lat="42.3169578" lon="13.5932367"><ele>873.0</ele><time>2026-04-11T13:27:29.95Z</time></trkpt><trkpt lat="42.3171207" lon="13.5929377"><ele>874.0</ele><time>2026-04-11T13:27:30.945Z</time></trkpt><trkpt lat="42.3172833" lon="13.5926352"><ele>875.0</ele><time>2026-04-11T13:27:31.946Z</time></trkpt><trkpt lat="42.3174423" lon="13.592337"><ele>875.0</ele><time>2026-04-11T13:27:32.946Z</time></trkpt><trkpt lat="42.3176033" lon="13.5920412"><ele>875.0</ele><time>2026-04-11T13:27:33.943Z</time></trkpt><trkpt lat="42.3177635" lon="13.5917512"><ele>877.0</ele><time>2026-04-11T13:27:34.943Z</time></trkpt><trkpt lat="42.3179162" lon="13.5914679"><ele>879.0</ele><time>2026-04-11T13:27:35.943Z</time></trkpt><trkpt lat="42.3180704" lon="13.5911839"><ele>881.5</ele><time>2026-04-11T13:27:36.947Z</time></trkpt><trkpt lat="42.3182222" lon="13.590902"><ele>884.0</ele><time>2026-04-11T13:27:37.953Z</time></trkpt><trkpt lat="42.3183731" lon="13.5906258"><ele>884.0</ele><time>2026-04-11T13:27:38.945Z</time></trkpt><trkpt lat="42.3185214" lon="13.5903533"><ele>884.0</ele><time>2026-04-11T13:27:39.951Z</time></trkpt><trkpt lat="42.3186666" lon="13.5900814"><ele>885.5</ele><time>2026-04-11T13:27:40.942Z</time></trkpt><trkpt lat="42.3188074" lon="13.5898152"><ele>887.0</ele><time>2026-04-11T13:27:41.947Z</time></trkpt><trkpt lat="42.3189503" lon="13.589554"><ele>888.5</ele><time>2026-04-11T13:27:42.953Z</time></trkpt><trkpt lat="42.3190874" lon="13.5892988"><ele>890.0</ele><time>2026-04-11T13:27:43.945Z</time></trkpt><trkpt lat="42.3192183" lon="13.5890605"><ele>890.0</ele><time>2026-04-11T13:27:44.945Z</time></trkpt><trkpt lat="42.3193426" lon="13.5888301"><ele>890.0</ele><time>2026-04-11T13:27:45.946Z</time></trkpt><trkpt lat="42.3194604" lon="13.5886081"><ele>890.0</ele><time>2026-04-11T13:27:46.948Z</time></trkpt><trkpt lat="42.3195702" lon="13.5883902"><ele>890.0</ele><time>2026-04-11T13:27:47.948Z</time></trkpt><trkpt lat="42.3196583" lon="13.5881727"><ele>890.0</ele><time>2026-04-11T13:27:48.949Z</time></trkpt><trkpt lat="42.3197227" lon="13.587948"><ele>890.0</ele><time>2026-04-11T13:27:49.943Z</time></trkpt><trkpt lat="42.3197667" lon="13.587703"><ele>891.0</ele><time>2026-04-11T13:27:50.951Z</time></trkpt><trkpt lat="42.3197799" lon="13.5874562"><ele>892.0</ele><time>2026-04-11T13:27:51.941Z</time></trkpt><trkpt lat="42.3197692" lon="13.5871993"><ele>893.0</ele><time>2026-04-11T13:27:52.942Z</time></trkpt><trkpt lat="42.3197393" lon="13.5869414"><ele>891.0</ele><time>2026-04-11T13:27:53.944Z</time></trkpt><trkpt lat="42.3196982" lon="13.5866818"><ele>889.0</ele><time>2026-04-11T13:27:54.941Z</time></trkpt><trkpt lat="42.3196601" lon="13.5864195"><ele>887.0</ele><time>2026-04-11T13:27:55.942Z</time></trkpt><trkpt lat="42.3196194" lon="13.5861679"><ele>886.6666666666667</ele><time>2026-04-11T13:27:56.961Z</time></trkpt><trkpt lat="42.3195532" lon="13.5859386"><ele>886.3333333333333</ele><time>2026-04-11T13:27:57.952Z</time></trkpt><trkpt lat="42.3194419" lon="13.5857449"><ele>886.0</ele><time>2026-04-11T13:27:58.941Z</time></trkpt><trkpt lat="42.3193032" lon="13.5855677"><ele>886.0</ele><time>2026-04-11T13:27:59.953Z</time></trkpt><trkpt lat="42.3191448" lon="13.5854062"><ele>886.0</ele><time>2026-04-11T13:28:00.944Z</time></trkpt><trkpt lat="42.3189784" lon="13.5852413"><ele>886.0</ele><time>2026-04-11T13:28:01.958Z</time></trkpt><trkpt lat="42.3188176" lon="13.5850613"><ele>886.0</ele><time>2026-04-11T13:28:02.949Z</time></trkpt><trkpt lat="42.3186758" lon="13.5848586"><ele>886.0</ele><time>2026-04-11T13:28:03.944Z</time></trkpt><trkpt lat="42.3185492" lon="13.5846222"><ele>886.0</ele><time>2026-04-11T13:28:04.948Z</time></trkpt><trkpt lat="42.3184345" lon="13.5843713"><ele>886.5</ele><time>2026-04-11T13:28:05.945Z</time></trkpt><trkpt lat="42.3183296" lon="13.5841096"><ele>887.0</ele><time>2026-04-11T13:28:06.953Z</time></trkpt><trkpt lat="42.3182187" lon="13.5838329"><ele>888.5</ele><time>2026-04-11T13:28:07.947Z</time></trkpt><trkpt lat="42.318103" lon="13.5835502"><ele>890.0</ele><time>2026-04-11T13:28:08.953Z</time></trkpt><trkpt lat="42.3179846" lon="13.5832542"><ele>886.5</ele><time>2026-04-11T13:28:09.946Z</time></trkpt><trkpt lat="42.3178624" lon="13.5829491"><ele>883.0</ele><time>2026-04-11T13:28:10.949Z</time></trkpt><trkpt lat="42.3177401" lon="13.5826415"><ele>883.0</ele><time>2026-04-11T13:28:11.941Z</time></trkpt><trkpt lat="42.3176141" lon="13.58233"><ele>883.0</ele><time>2026-04-11T13:28:12.951Z</time></trkpt><trkpt lat="42.317491" lon="13.5820203"><ele>884.5</ele><time>2026-04-11T13:28:13.948Z</time></trkpt><trkpt lat="42.3173712" lon="13.5817198"><ele>886.0</ele><time>2026-04-11T13:28:14.945Z</time></trkpt><trkpt lat="42.3172528" lon="13.5814293"><ele>881.0</ele><time>2026-04-11T13:28:15.945Z</time></trkpt><trkpt lat="42.3171407" lon="13.5811453"><ele>876.0</ele><time>2026-04-11T13:28:16.943Z</time></trkpt><trkpt lat="42.3170332" lon="13.5808688"><ele>876.0</ele><time>2026-04-11T13:28:17.946Z</time></trkpt><trkpt lat="42.3169268" lon="13.5806051"><ele>876.0</ele><time>2026-04-11T13:28:18.944Z</time></trkpt><trkpt lat="42.3168163" lon="13.5803444"><ele>876.0</ele><time>2026-04-11T13:28:19.951Z</time></trkpt><trkpt lat="42.3167163" lon="13.5800863"><ele>876.3333333333333</ele><time>2026-04-11T13:28:20.947Z</time></trkpt><trkpt lat="42.3166211" lon="13.5798299"><ele>876.6666666666666</ele><time>2026-04-11T13:28:21.947Z</time></trkpt><trkpt lat="42.3165469" lon="13.5795513"><ele>877.0</ele><time>2026-04-11T13:28:22.949Z</time></trkpt><trkpt lat="42.3164928" lon="13.5792598"><ele>877.0</ele><time>2026-04-11T13:28:23.955Z</time></trkpt><trkpt lat="42.3164496" lon="13.5789506"><ele>877.0</ele><time>2026-04-11T13:28:24.952Z</time></trkpt><trkpt lat="42.3164019" lon="13.5786329"><ele>872.5</ele><time>2026-04-11T13:28:25.941Z</time></trkpt><trkpt lat="42.3163519" lon="13.5783055"><ele>868.0</ele><time>2026-04-11T13:28:26.937Z</time></trkpt><trkpt lat="42.3163022" lon="13.5779735"><ele>868.0</ele><time>2026-04-11T13:28:27.946Z</time></trkpt><trkpt lat="42.3162522" lon="13.5776402"><ele>868.0</ele><time>2026-04-11T13:28:28.942Z</time></trkpt><trkpt lat="42.3162038" lon="13.5773104"><ele>869.0</ele><time>2026-04-11T13:28:29.946Z</time></trkpt><trkpt lat="42.3161548" lon="13.5769836"><ele>870.0</ele><time>2026-04-11T13:28:30.944Z</time></trkpt><trkpt lat="42.3161049" lon="13.5766566"><ele>870.0</ele><time>2026-04-11T13:28:31.943Z</time></trkpt><trkpt lat="42.3160527" lon="13.5763343"><ele>870.0</ele><time>2026-04-11T13:28:32.945Z</time></trkpt><trkpt lat="42.3160036" lon="13.5760161"><ele>870.0</ele><time>2026-04-11T13:28:33.945Z</time></trkpt><trkpt lat="42.3159539" lon="13.5757005"><ele>870.0</ele><time>2026-04-11T13:28:34.946Z</time></trkpt><trkpt lat="42.315905" lon="13.5753917"><ele>869.0</ele><time>2026-04-11T13:28:35.943Z</time></trkpt><trkpt lat="42.3158532" lon="13.5750871"><ele>868.0</ele><time>2026-04-11T13:28:36.945Z</time></trkpt><trkpt lat="42.3158077" lon="13.5747861"><ele>868.5</ele><time>2026-04-11T13:28:37.951Z</time></trkpt><trkpt lat="42.3157589" lon="13.5744834"><ele>869.0</ele><time>2026-04-11T13:28:38.943Z</time></trkpt><trkpt lat="42.3157119" lon="13.5741864"><ele>869.0</ele><time>2026-04-11T13:28:39.943Z</time></trkpt><trkpt lat="42.3156676" lon="13.5738929"><ele>869.0</ele><time>2026-04-11T13:28:40.943Z</time></trkpt><trkpt lat="42.3156273" lon="13.573613"><ele>869.0</ele><time>2026-04-11T13:28:41.945Z</time></trkpt><trkpt lat="42.3155847" lon="13.5733327"><ele>868.0</ele><time>2026-04-11T13:28:42.949Z</time></trkpt><trkpt lat="42.3155415" lon="13.5730481"><ele>867.0</ele><time>2026-04-11T13:28:43.942Z</time></trkpt><trkpt lat="42.3154945" lon="13.5727666"><ele>866.0</ele><time>2026-04-11T13:28:44.952Z</time></trkpt><trkpt lat="42.3154525" lon="13.5724835"><ele>866.0</ele><time>2026-04-11T13:28:45.953Z</time></trkpt><trkpt lat="42.315411" lon="13.5721988"><ele>866.0</ele><time>2026-04-11T13:28:46.948Z</time></trkpt><trkpt lat="42.3153613" lon="13.5719146"><ele>866.0</ele><time>2026-04-11T13:28:47.944Z</time></trkpt><trkpt lat="42.3153183" lon="13.5716227"><ele>866.0</ele><time>2026-04-11T13:28:48.947Z</time></trkpt><trkpt lat="42.3152765" lon="13.5713346"><ele>866.0</ele><time>2026-04-11T13:28:49.949Z</time></trkpt><trkpt lat="42.3152328" lon="13.5710487"><ele>866.0</ele><time>2026-04-11T13:28:50.952Z</time></trkpt><trkpt lat="42.3151824" lon="13.5707693"><ele>866.0</ele><time>2026-04-11T13:28:51.941Z</time></trkpt><trkpt lat="42.315139" lon="13.5704869"><ele>866.0</ele><time>2026-04-11T13:28:52.943Z</time></trkpt><trkpt lat="42.3150978" lon="13.5701988"><ele>866.0</ele><time>2026-04-11T13:28:53.941Z</time></trkpt><trkpt lat="42.315057" lon="13.5699106"><ele>865.0</ele><time>2026-04-11T13:28:54.954Z</time></trkpt><trkpt lat="42.3150123" lon="13.5696145"><ele>864.0</ele><time>2026-04-11T13:28:55.952Z</time></trkpt><trkpt lat="42.3149695" lon="13.56932"><ele>863.0</ele><time>2026-04-11T13:28:56.942Z</time></trkpt><trkpt lat="42.3149257" lon="13.5690252"><ele>863.0</ele><time>2026-04-11T13:28:57.943Z</time></trkpt><trkpt lat="42.3148789" lon="13.5687266"><ele>863.0</ele><time>2026-04-11T13:28:58.944Z</time></trkpt><trkpt lat="42.3148276" lon="13.5684253"><ele>864.0</ele><time>2026-04-11T13:28:59.947Z</time></trkpt><trkpt lat="42.3147806" lon="13.5681229"><ele>865.0</ele><time>2026-04-11T13:29:00.943Z</time></trkpt><trkpt lat="42.3147318" lon="13.567821"><ele>861.0</ele><time>2026-04-11T13:29:01.948Z</time></trkpt><trkpt lat="42.3146855" lon="13.5675155"><ele>857.0</ele><time>2026-04-11T13:29:02.95Z</time></trkpt><trkpt lat="42.3146375" lon="13.5672075"><ele>858.0</ele><time>2026-04-11T13:29:03.947Z</time></trkpt><trkpt lat="42.3145891" lon="13.5668971"><ele>859.0</ele><time>2026-04-11T13:29:04.947Z</time></trkpt><trkpt lat="42.3145421" lon="13.566581"><ele>859.0</ele><time>2026-04-11T13:29:05.944Z</time></trkpt><trkpt lat="42.314491" lon="13.5662681"><ele>859.0</ele><time>2026-04-11T13:29:06.948Z</time></trkpt><trkpt lat="42.3144391" lon="13.5659528"><ele>860.5</ele><time>2026-04-11T13:29:07.947Z</time></trkpt><trkpt lat="42.3143886" lon="13.5656384"><ele>862.0</ele><time>2026-04-11T13:29:08.943Z</time></trkpt><trkpt lat="42.3143417" lon="13.5653194"><ele>862.5</ele><time>2026-04-11T13:29:09.947Z</time></trkpt><trkpt lat="42.3142919" lon="13.5650015"><ele>863.0</ele><time>2026-04-11T13:29:10.943Z</time></trkpt><trkpt lat="42.314242" lon="13.5646815"><ele>864.0</ele><time>2026-04-11T13:29:11.943Z</time></trkpt><trkpt lat="42.3141913" lon="13.5643652"><ele>865.0</ele><time>2026-04-11T13:29:12.947Z</time></trkpt><trkpt lat="42.3141492" lon="13.5640574"><ele>865.0</ele><time>2026-04-11T13:29:13.944Z</time></trkpt><trkpt lat="42.3141105" lon="13.5637596"><ele>865.0</ele><time>2026-04-11T13:29:14.954Z</time></trkpt><trkpt lat="42.3140833" lon="13.5634714"><ele>865.0</ele><time>2026-04-11T13:29:15.954Z</time></trkpt><trkpt lat="42.3140753" lon="13.5631855"><ele>864.6666666666666</ele><time>2026-04-11T13:29:16.945Z</time></trkpt><trkpt lat="42.314089" lon="13.5628918"><ele>864.3333333333333</ele><time>2026-04-11T13:29:17.94Z</time></trkpt><trkpt lat="42.3141251" lon="13.5625958"><ele>864.0</ele><time>2026-04-11T13:29:18.944Z</time></trkpt><trkpt lat="42.3141777" lon="13.5622944"><ele>862.0</ele><time>2026-04-11T13:29:19.944Z</time></trkpt><trkpt lat="42.3142373" lon="13.5619908"><ele>860.0</ele><time>2026-04-11T13:29:20.947Z</time></trkpt><trkpt lat="42.3142957" lon="13.5616844"><ele>860.0</ele><time>2026-04-11T13:29:21.944Z</time></trkpt><trkpt lat="42.3143527" lon="13.5613774"><ele>860.0</ele><time>2026-04-11T13:29:22.942Z</time></trkpt><trkpt lat="42.3144096" lon="13.5610752"><ele>858.0</ele><time>2026-04-11T13:29:23.944Z</time></trkpt><trkpt lat="42.3144614" lon="13.5607923"><ele>856.0</ele><time>2026-04-11T13:29:24.949Z</time></trkpt><trkpt lat="42.3145136" lon="13.5605139"><ele>854.0</ele><time>2026-04-11T13:29:25.944Z</time></trkpt><trkpt lat="42.3145672" lon="13.5602457"><ele>853.6666666666667</ele><time>2026-04-11T13:29:26.945Z</time></trkpt><trkpt lat="42.314633" lon="13.5599898"><ele>853.3333333333333</ele><time>2026-04-11T13:29:27.948Z</time></trkpt><trkpt lat="42.3147158" lon="13.5597423"><ele>853.0</ele><time>2026-04-11T13:29:28.941Z</time></trkpt><trkpt lat="42.3148047" lon="13.5595054"><ele>853.0</ele><time>2026-04-11T13:29:29.95Z</time></trkpt><trkpt lat="42.3148973" lon="13.5592739"><ele>853.0</ele><time>2026-04-11T13:29:30.948Z</time></trkpt><trkpt lat="42.314994" lon="13.5590349"><ele>853.0</ele><time>2026-04-11T13:29:31.945Z</time></trkpt><trkpt lat="42.3150873" lon="13.5587964"><ele>850.3333333333333</ele><time>2026-04-11T13:29:32.941Z</time></trkpt><trkpt lat="42.3151826" lon="13.5585606"><ele>847.6666666666667</ele><time>2026-04-11T13:29:33.951Z</time></trkpt><trkpt lat="42.3152707" lon="13.5583209"><ele>845.0</ele><time>2026-04-11T13:29:34.944Z</time></trkpt><trkpt lat="42.31536" lon="13.5580874"><ele>845.0</ele><time>2026-04-11T13:29:35.948Z</time></trkpt><trkpt lat="42.3154518" lon="13.5578498"><ele>845.0</ele><time>2026-04-11T13:29:36.945Z</time></trkpt><trkpt lat="42.3155476" lon="13.557608"><ele>845.0</ele><time>2026-04-11T13:29:37.946Z</time></trkpt><trkpt lat="42.3156416" lon="13.5573612"><ele>845.0</ele><time>2026-04-11T13:29:38.947Z</time></trkpt><trkpt lat="42.3157421" lon="13.5571112"><ele>845.0</ele><time>2026-04-11T13:29:39.944Z</time></trkpt><trkpt lat="42.315839" lon="13.5568581"><ele>845.0</ele><time>2026-04-11T13:29:40.948Z</time></trkpt><trkpt lat="42.3159412" lon="13.5566021"><ele>842.6666666666667</ele><time>2026-04-11T13:29:41.946Z</time></trkpt><trkpt lat="42.3160471" lon="13.5563458"><ele>840.3333333333333</ele><time>2026-04-11T13:29:42.951Z</time></trkpt><trkpt lat="42.3161548" lon="13.5560987"><ele>838.0</ele><time>2026-04-11T13:29:43.944Z</time></trkpt><trkpt lat="42.3162675" lon="13.5558573"><ele>836.6666666666666</ele><time>2026-04-11T13:29:44.944Z</time></trkpt><trkpt lat="42.3163839" lon="13.5556228"><ele>835.3333333333333</ele><time>2026-04-11T13:29:45.941Z</time></trkpt><trkpt lat="42.3165115" lon="13.5553956"><ele>834.0</ele><time>2026-04-11T13:29:46.946Z</time></trkpt><trkpt lat="42.3166472" lon="13.5551687"><ele>831.3333333333333</ele><time>2026-04-11T13:29:47.948Z</time></trkpt><trkpt lat="42.3167934" lon="13.5549496"><ele>828.6666666666666</ele><time>2026-04-11T13:29:48.945Z</time></trkpt><trkpt lat="42.3169476" lon="13.554724"><ele>826.0</ele><time>2026-04-11T13:29:49.946Z</time></trkpt><trkpt lat="42.3171159" lon="13.5545033"><ele>826.0</ele><time>2026-04-11T13:29:50.941Z</time></trkpt><trkpt lat="42.317288" lon="13.5542848"><ele>826.0</ele><time>2026-04-11T13:29:51.942Z</time></trkpt><trkpt lat="42.3174631" lon="13.5540626"><ele>826.0</ele><time>2026-04-11T13:29:52.944Z</time></trkpt><trkpt lat="42.3176357" lon="13.5538447"><ele>826.0</ele><time>2026-04-11T13:29:53.943Z</time></trkpt><trkpt lat="42.3178106" lon="13.5536268"><ele>827.0</ele><time>2026-04-11T13:29:54.948Z</time></trkpt><trkpt lat="42.317983" lon="13.5534091"><ele>828.0</ele><time>2026-04-11T13:29:55.942Z</time></trkpt><trkpt lat="42.3181536" lon="13.5531954"><ele>828.0</ele><time>2026-04-11T13:29:56.943Z</time></trkpt><trkpt lat="42.3183185" lon="13.5529862"><ele>828.0</ele><time>2026-04-11T13:29:57.943Z</time></trkpt><trkpt lat="42.3184865" lon="13.5527794"><ele>822.5</ele><time>2026-04-11T13:29:58.943Z</time></trkpt><trkpt lat="42.3186599" lon="13.55257"><ele>817.0</ele><time>2026-04-11T13:29:59.948Z</time></trkpt><trkpt lat="42.3188333" lon="13.5523571"><ele>816.5</ele><time>2026-04-11T13:30:00.949Z</time></trkpt><trkpt lat="42.3190026" lon="13.5521466"><ele>816.0</ele><time>2026-04-11T13:30:01.951Z</time></trkpt><trkpt lat="42.3191729" lon="13.5519303"><ele>811.0</ele><time>2026-04-11T13:30:02.944Z</time></trkpt><trkpt lat="42.3193465" lon="13.5517134"><ele>806.0</ele><time>2026-04-11T13:30:03.943Z</time></trkpt><trkpt lat="42.3195251" lon="13.5514831"><ele>806.0</ele><time>2026-04-11T13:30:04.942Z</time></trkpt><trkpt lat="42.3197012" lon="13.5512562"><ele>806.0</ele><time>2026-04-11T13:30:05.944Z</time></trkpt><trkpt lat="42.3198753" lon="13.551025"><ele>803.0</ele><time>2026-04-11T13:30:06.948Z</time></trkpt><trkpt lat="42.3200469" lon="13.5508059"><ele>800.0</ele><time>2026-04-11T13:30:07.944Z</time></trkpt><trkpt lat="42.3202164" lon="13.5505873"><ele>798.0</ele><time>2026-04-11T13:30:08.941Z</time></trkpt><trkpt lat="42.3203831" lon="13.5503742"><ele>796.0</ele><time>2026-04-11T13:30:09.945Z</time></trkpt><trkpt lat="42.3205433" lon="13.5501746"><ele>794.0</ele><time>2026-04-11T13:30:10.954Z</time></trkpt><trkpt lat="42.3206993" lon="13.5499815"><ele>794.0</ele><time>2026-04-11T13:30:11.944Z</time></trkpt><trkpt lat="42.3208567" lon="13.5497904"><ele>794.0</ele><time>2026-04-11T13:30:12.945Z</time></trkpt><trkpt lat="42.3210167" lon="13.5495957"><ele>794.0</ele><time>2026-04-11T13:30:13.953Z</time></trkpt><trkpt lat="42.3211717" lon="13.549401"><ele>794.6666666666667</ele><time>2026-04-11T13:30:14.947Z</time></trkpt><trkpt lat="42.3213313" lon="13.5492001"><ele>795.3333333333333</ele><time>2026-04-11T13:30:15.946Z</time></trkpt><trkpt lat="42.3214896" lon="13.5489913"><ele>796.0</ele><time>2026-04-11T13:30:16.943Z</time></trkpt><trkpt lat="42.3216383" lon="13.5487689"><ele>788.0</ele><time>2026-04-11T13:30:17.94Z</time></trkpt><trkpt lat="42.3217744" lon="13.5485277"><ele>780.0</ele><time>2026-04-11T13:30:18.941Z</time></trkpt><trkpt lat="42.321895" lon="13.548268"><ele>780.0</ele><time>2026-04-11T13:30:19.943Z</time></trkpt><trkpt lat="42.3220028" lon="13.547991"><ele>780.0</ele><time>2026-04-11T13:30:20.951Z</time></trkpt><trkpt lat="42.3220985" lon="13.5477012"><ele>777.5</ele><time>2026-04-11T13:30:21.946Z</time></trkpt><trkpt lat="42.3221759" lon="13.5473964"><ele>775.0</ele><time>2026-04-11T13:30:22.95Z</time></trkpt><trkpt lat="42.3222405" lon="13.5470841"><ele>772.0</ele><time>2026-04-11T13:30:23.95Z</time></trkpt><trkpt lat="42.3222975" lon="13.5467558"><ele>769.0</ele><time>2026-04-11T13:30:24.944Z</time></trkpt><trkpt lat="42.3223466" lon="13.5464212"><ele>769.0</ele><time>2026-04-11T13:30:25.944Z</time></trkpt><trkpt lat="42.3223991" lon="13.5460931"><ele>769.0</ele><time>2026-04-11T13:30:26.943Z</time></trkpt><trkpt lat="42.3224516" lon="13.5457624"><ele>769.0</ele><time>2026-04-11T13:30:27.953Z</time></trkpt><trkpt lat="42.3225057" lon="13.5454347"><ele>769.0</ele><time>2026-04-11T13:30:28.944Z</time></trkpt><trkpt lat="42.3225557" lon="13.545106"><ele>767.5</ele><time>2026-04-11T13:30:29.944Z</time></trkpt><trkpt lat="42.3226039" lon="13.5447824"><ele>766.0</ele><time>2026-04-11T13:30:30.943Z</time></trkpt><trkpt lat="42.3226546" lon="13.5444609"><ele>764.5</ele><time>2026-04-11T13:30:31.942Z</time></trkpt><trkpt lat="42.3227065" lon="13.5441365"><ele>763.0</ele><time>2026-04-11T13:30:32.942Z</time></trkpt><trkpt lat="42.322754" lon="13.5438156"><ele>761.0</ele><time>2026-04-11T13:30:33.956Z</time></trkpt><trkpt lat="42.3227991" lon="13.5435036"><ele>759.0</ele><time>2026-04-11T13:30:34.941Z</time></trkpt><trkpt lat="42.3228417" lon="13.5431958"><ele>759.0</ele><time>2026-04-11T13:30:35.945Z</time></trkpt><trkpt lat="42.3228802" lon="13.5428973"><ele>759.0</ele><time>2026-04-11T13:30:36.944Z</time></trkpt><trkpt lat="42.3229104" lon="13.5425949"><ele>757.0</ele><time>2026-04-11T13:30:37.947Z</time></trkpt><trkpt lat="42.3229382" lon="13.5422852"><ele>755.0</ele><time>2026-04-11T13:30:38.934Z</time></trkpt><trkpt lat="42.3229541" lon="13.5419736"><ele>753.5</ele><time>2026-04-11T13:30:39.943Z</time></trkpt><trkpt lat="42.3229633" lon="13.5416615"><ele>752.0</ele><time>2026-04-11T13:30:40.938Z</time></trkpt><trkpt lat="42.3229613" lon="13.54135"><ele>754.0</ele><time>2026-04-11T13:30:41.945Z</time></trkpt><trkpt lat="42.3229522" lon="13.5410358"><ele>756.0</ele><time>2026-04-11T13:30:42.947Z</time></trkpt><trkpt lat="42.322939" lon="13.5407247"><ele>756.0</ele><time>2026-04-11T13:30:43.95Z</time></trkpt><trkpt lat="42.3229208" lon="13.5404112"><ele>756.0</ele><time>2026-04-11T13:30:44.941Z</time></trkpt><trkpt lat="42.3229033" lon="13.5400979"><ele>756.0</ele><time>2026-04-11T13:30:45.934Z</time></trkpt><trkpt lat="42.3228853" lon="13.5397861"><ele>756.0</ele><time>2026-04-11T13:30:46.943Z</time></trkpt><trkpt lat="42.3228703" lon="13.5394793"><ele>756.0</ele><time>2026-04-11T13:30:47.945Z</time></trkpt><trkpt lat="42.3228553" lon="13.5391679"><ele>756.0</ele><time>2026-04-11T13:30:48.957Z</time></trkpt><trkpt lat="42.322835" lon="13.538854"><ele>754.0</ele><time>2026-04-11T13:30:49.944Z</time></trkpt><trkpt lat="42.3228145" lon="13.5385567"><ele>752.0</ele><time>2026-04-11T13:30:50.949Z</time></trkpt><trkpt lat="42.3227959" lon="13.5382645"><ele>750.0</ele><time>2026-04-11T13:30:51.945Z</time></trkpt><trkpt lat="42.3227776" lon="13.53798"><ele>749.3333333333334</ele><time>2026-04-11T13:30:52.942Z</time></trkpt><trkpt lat="42.3227609" lon="13.5376955"><ele>748.6666666666667</ele><time>2026-04-11T13:30:53.941Z</time></trkpt><trkpt lat="42.3227456" lon="13.5374268"><ele>748.0</ele><time>2026-04-11T13:30:54.942Z</time></trkpt><trkpt lat="42.322733" lon="13.5371544"><ele>746.0</ele><time>2026-04-11T13:30:55.945Z</time></trkpt><trkpt lat="42.322716" lon="13.5368733"><ele>744.0</ele><time>2026-04-11T13:30:56.948Z</time></trkpt><trkpt lat="42.3227003" lon="13.536599"><ele>742.0</ele><time>2026-04-11T13:30:57.943Z</time></trkpt><trkpt lat="42.3226862" lon="13.5363313"><ele>740.6666666666667</ele><time>2026-04-11T13:30:58.949Z</time></trkpt><trkpt lat="42.3226753" lon="13.5360664"><ele>739.3333333333334</ele><time>2026-04-11T13:30:59.945Z</time></trkpt><trkpt lat="42.3226718" lon="13.5358012"><ele>738.0</ele><time>2026-04-11T13:31:00.944Z</time></trkpt><trkpt lat="42.3226804" lon="13.5355339"><ele>736.6666666666666</ele><time>2026-04-11T13:31:01.943Z</time></trkpt><trkpt lat="42.3227091" lon="13.5352708"><ele>735.3333333333333</ele><time>2026-04-11T13:31:02.942Z</time></trkpt><trkpt lat="42.3227494" lon="13.5349997"><ele>734.0</ele><time>2026-04-11T13:31:03.945Z</time></trkpt><trkpt lat="42.3228081" lon="13.5347243"><ele>731.3333333333333</ele><time>2026-04-11T13:31:04.966Z</time></trkpt><trkpt lat="42.3228753" lon="13.534462"><ele>728.6666666666666</ele><time>2026-04-11T13:31:05.945Z</time></trkpt><trkpt lat="42.3229476" lon="13.5341993"><ele>726.0</ele><time>2026-04-11T13:31:06.942Z</time></trkpt><trkpt lat="42.3230313" lon="13.5339333"><ele>729.5</ele><time>2026-04-11T13:31:07.939Z</time></trkpt><trkpt lat="42.3231318" lon="13.533669"><ele>733.0</ele><time>2026-04-11T13:31:08.941Z</time></trkpt><trkpt lat="42.3232441" lon="13.5333955"><ele>733.0</ele><time>2026-04-11T13:31:09.94Z</time></trkpt><trkpt lat="42.3233564" lon="13.5331152"><ele>733.0</ele><time>2026-04-11T13:31:10.948Z</time></trkpt><trkpt lat="42.3234719" lon="13.5328303"><ele>728.0</ele><time>2026-04-11T13:31:11.948Z</time></trkpt><trkpt lat="42.3235873" lon="13.5325382"><ele>723.0</ele><time>2026-04-11T13:31:12.945Z</time></trkpt><trkpt lat="42.323703" lon="13.532252"><ele>721.0</ele><time>2026-04-11T13:31:13.942Z</time></trkpt><trkpt lat="42.3238169" lon="13.5319734"><ele>719.0</ele><time>2026-04-11T13:31:14.941Z</time></trkpt><trkpt lat="42.3239284" lon="13.5316943"><ele>719.0</ele><time>2026-04-11T13:31:15.948Z</time></trkpt><trkpt lat="42.3240417" lon="13.5314146"><ele>719.0</ele><time>2026-04-11T13:31:16.942Z</time></trkpt><trkpt lat="42.3241489" lon="13.5311354"><ele>717.0</ele><time>2026-04-11T13:31:17.943Z</time></trkpt><trkpt lat="42.3242492" lon="13.5308587"><ele>715.0</ele><time>2026-04-11T13:31:18.944Z</time></trkpt><trkpt lat="42.3243361" lon="13.5305896"><ele>713.0</ele><time>2026-04-11T13:31:19.945Z</time></trkpt><trkpt lat="42.3244089" lon="13.5303132"><ele>710.6666666666666</ele><time>2026-04-11T13:31:20.95Z</time></trkpt><trkpt lat="42.3244668" lon="13.5300259"><ele>708.3333333333334</ele><time>2026-04-11T13:31:21.939Z</time></trkpt><trkpt lat="42.3245076" lon="13.5297411"><ele>706.0</ele><time>2026-04-11T13:31:22.943Z</time></trkpt><trkpt lat="42.3245251" lon="13.5294525"><ele>705.0</ele><time>2026-04-11T13:31:23.944Z</time></trkpt><trkpt lat="42.3245298" lon="13.5291677"><ele>704.0</ele><time>2026-04-11T13:31:24.939Z</time></trkpt><trkpt lat="42.3245188" lon="13.5288889"><ele>703.0</ele><time>2026-04-11T13:31:25.942Z</time></trkpt><trkpt lat="42.3244956" lon="13.5286113"><ele>702.3333333333334</ele><time>2026-04-11T13:31:26.949Z</time></trkpt><trkpt lat="42.3244652" lon="13.5283373"><ele>701.6666666666666</ele><time>2026-04-11T13:31:27.955Z</time></trkpt><trkpt lat="42.3244355" lon="13.5280624"><ele>701.0</ele><time>2026-04-11T13:31:28.942Z</time></trkpt><trkpt lat="42.3244051" lon="13.5277812"><ele>699.3333333333333</ele><time>2026-04-11T13:31:29.95Z</time></trkpt><trkpt lat="42.3243781" lon="13.527498"><ele>697.6666666666666</ele><time>2026-04-11T13:31:30.944Z</time></trkpt><trkpt lat="42.3243461" lon="13.5272079"><ele>696.0</ele><time>2026-04-11T13:31:31.945Z</time></trkpt><trkpt lat="42.324307" lon="13.5269117"><ele>695.0</ele><time>2026-04-11T13:31:32.941Z</time></trkpt><trkpt lat="42.3242662" lon="13.526612"><ele>694.0</ele><time>2026-04-11T13:31:33.948Z</time></trkpt><trkpt lat="42.324219" lon="13.5263114"><ele>693.0</ele><time>2026-04-11T13:31:34.946Z</time></trkpt><trkpt lat="42.3241694" lon="13.5260049"><ele>692.0</ele><time>2026-04-11T13:31:35.943Z</time></trkpt><trkpt lat="42.3241169" lon="13.5257015"><ele>692.0</ele><time>2026-04-11T13:31:36.943Z</time></trkpt><trkpt lat="42.3240705" lon="13.525406"><ele>692.0</ele><time>2026-04-11T13:31:37.944Z</time></trkpt><trkpt lat="42.3240196" lon="13.525115"><ele>692.0</ele><time>2026-04-11T13:31:38.943Z</time></trkpt><trkpt lat="42.3239743" lon="13.5248274"><ele>689.3333333333333</ele><time>2026-04-11T13:31:39.948Z</time></trkpt><trkpt lat="42.3239279" lon="13.5245462"><ele>686.6666666666666</ele><time>2026-04-11T13:31:40.944Z</time></trkpt><trkpt lat="42.3238847" lon="13.5242691"><ele>684.0</ele><time>2026-04-11T13:31:41.943Z</time></trkpt><trkpt lat="42.3238443" lon="13.5240038"><ele>681.6666666666666</ele><time>2026-04-11T13:31:42.952Z</time></trkpt><trkpt lat="42.3238043" lon="13.5237456"><ele>679.3333333333333</ele><time>2026-04-11T13:31:43.948Z</time></trkpt><trkpt lat="42.3237597" lon="13.5234926"><ele>677.0</ele><time>2026-04-11T13:31:44.942Z</time></trkpt><trkpt lat="42.3237127" lon="13.523235"><ele>675.6666666666666</ele><time>2026-04-11T13:31:45.948Z</time></trkpt><trkpt lat="42.3236735" lon="13.5229702"><ele>674.3333333333334</ele><time>2026-04-11T13:31:46.944Z</time></trkpt><trkpt lat="42.3236382" lon="13.5226985"><ele>673.0</ele><time>2026-04-11T13:31:47.95Z</time></trkpt><trkpt lat="42.3236209" lon="13.5224169"><ele>672.0</ele><time>2026-04-11T13:31:48.937Z</time></trkpt><trkpt lat="42.3236293" lon="13.5221297"><ele>671.0</ele><time>2026-04-11T13:31:49.947Z</time></trkpt><trkpt lat="42.3236492" lon="13.5218333"><ele>670.0</ele><time>2026-04-11T13:31:50.948Z</time></trkpt><trkpt lat="42.3236755" lon="13.5215411"><ele>668.6666666666667</ele><time>2026-04-11T13:31:51.942Z</time></trkpt><trkpt lat="42.3236989" lon="13.5212463"><ele>667.3333333333334</ele><time>2026-04-11T13:31:52.949Z</time></trkpt><trkpt lat="42.3237223" lon="13.5209561"><ele>666.0</ele><time>2026-04-11T13:31:53.945Z</time></trkpt><trkpt lat="42.3237457" lon="13.5206575"><ele>665.0</ele><time>2026-04-11T13:31:54.953Z</time></trkpt><trkpt lat="42.323771" lon="13.5203588"><ele>664.0</ele><time>2026-04-11T13:31:55.953Z</time></trkpt><trkpt lat="42.3237976" lon="13.5200551"><ele>663.0</ele><time>2026-04-11T13:31:56.95Z</time></trkpt><trkpt lat="42.3238218" lon="13.5197501"><ele>661.5</ele><time>2026-04-11T13:31:57.945Z</time></trkpt><trkpt lat="42.3238473" lon="13.5194445"><ele>660.0</ele><time>2026-04-11T13:31:58.943Z</time></trkpt><trkpt lat="42.3238716" lon="13.51914"><ele>660.0</ele><time>2026-04-11T13:31:59.941Z</time></trkpt><trkpt lat="42.323896" lon="13.5188342"><ele>660.0</ele><time>2026-04-11T13:32:00.945Z</time></trkpt><trkpt lat="42.3239197" lon="13.5185397"><ele>660.0</ele><time>2026-04-11T13:32:01.948Z</time></trkpt><trkpt lat="42.3239436" lon="13.5182439"><ele>660.3333333333334</ele><time>2026-04-11T13:32:02.939Z</time></trkpt><trkpt lat="42.32397" lon="13.5179474"><ele>660.6666666666667</ele><time>2026-04-11T13:32:03.946Z</time></trkpt><trkpt lat="42.3239959" lon="13.5176524"><ele>661.0</ele><time>2026-04-11T13:32:04.94Z</time></trkpt><trkpt lat="42.3240206" lon="13.5173539"><ele>656.0</ele><time>2026-04-11T13:32:05.945Z</time></trkpt><trkpt lat="42.3240424" lon="13.5170534"><ele>651.0</ele><time>2026-04-11T13:32:06.953Z</time></trkpt><trkpt lat="42.324067" lon="13.5167485"><ele>651.0</ele><time>2026-04-11T13:32:07.94Z</time></trkpt><trkpt lat="42.3240943" lon="13.5164497"><ele>651.0</ele><time>2026-04-11T13:32:08.942Z</time></trkpt><trkpt lat="42.3241246" lon="13.5161408"><ele>649.5</ele><time>2026-04-11T13:32:09.954Z</time></trkpt><trkpt lat="42.3241495" lon="13.51583"><ele>648.0</ele><time>2026-04-11T13:32:10.947Z</time></trkpt><trkpt lat="42.3241723" lon="13.5155209"><ele>647.3333333333334</ele><time>2026-04-11T13:32:11.94Z</time></trkpt><trkpt lat="42.3241926" lon="13.5152208"><ele>646.6666666666667</ele><time>2026-04-11T13:32:12.943Z</time></trkpt><trkpt lat="42.3242129" lon="13.5149303"><ele>646.0</ele><time>2026-04-11T13:32:13.943Z</time></trkpt><trkpt lat="42.3242365" lon="13.5146488"><ele>644.6666666666667</ele><time>2026-04-11T13:32:14.956Z</time></trkpt><trkpt lat="42.3242618" lon="13.514377"><ele>643.3333333333334</ele><time>2026-04-11T13:32:15.948Z</time></trkpt><trkpt lat="42.3242857" lon="13.5141144"><ele>642.0</ele><time>2026-04-11T13:32:16.955Z</time></trkpt><trkpt lat="42.324308" lon="13.5138521"><ele>641.3333333333334</ele><time>2026-04-11T13:32:17.946Z</time></trkpt><trkpt lat="42.3243295" lon="13.5135886"><ele>640.6666666666667</ele><time>2026-04-11T13:32:18.947Z</time></trkpt><trkpt lat="42.3243539" lon="13.5133211"><ele>640.0</ele><time>2026-04-11T13:32:19.94Z</time></trkpt><trkpt lat="42.3243749" lon="13.5130485"><ele>639.3333333333334</ele><time>2026-04-11T13:32:20.947Z</time></trkpt><trkpt lat="42.3244017" lon="13.5127697"><ele>638.6666666666666</ele><time>2026-04-11T13:32:21.941Z</time></trkpt><trkpt lat="42.3244255" lon="13.5124914"><ele>638.0</ele><time>2026-04-11T13:32:22.943Z</time></trkpt><trkpt lat="42.3244513" lon="13.5122031"><ele>637.6666666666666</ele><time>2026-04-11T13:32:23.942Z</time></trkpt><trkpt lat="42.3244725" lon="13.5119196"><ele>637.3333333333334</ele><time>2026-04-11T13:32:24.94Z</time></trkpt><trkpt lat="42.3244972" lon="13.5116313"><ele>637.0</ele><time>2026-04-11T13:32:25.944Z</time></trkpt><trkpt lat="42.3245176" lon="13.5113282"><ele>635.6666666666667</ele><time>2026-04-11T13:32:26.944Z</time></trkpt><trkpt lat="42.3245442" lon="13.5110285"><ele>634.3333333333334</ele><time>2026-04-11T13:32:27.957Z</time></trkpt><trkpt lat="42.3245729" lon="13.5107319"><ele>633.0</ele><time>2026-04-11T13:32:28.945Z</time></trkpt><trkpt lat="42.3246021" lon="13.5104334"><ele>632.0</ele><time>2026-04-11T13:32:29.939Z</time></trkpt><trkpt lat="42.324632" lon="13.5101341"><ele>631.0</ele><time>2026-04-11T13:32:30.937Z</time></trkpt><trkpt lat="42.3246584" lon="13.5098389"><ele>630.0</ele><time>2026-04-11T13:32:31.948Z</time></trkpt><trkpt lat="42.3246896" lon="13.5095437"><ele>631.0</ele><time>2026-04-11T13:32:32.942Z</time></trkpt><trkpt lat="42.3247193" lon="13.509241"><ele>632.0</ele><time>2026-04-11T13:32:33.943Z</time></trkpt><trkpt lat="42.3247489" lon="13.5089376"><ele>629.5</ele><time>2026-04-11T13:32:34.943Z</time></trkpt><trkpt lat="42.3247806" lon="13.5086325"><ele>627.0</ele><time>2026-04-11T13:32:35.945Z</time></trkpt><trkpt lat="42.3248104" lon="13.5083252"><ele>627.0</ele><time>2026-04-11T13:32:36.945Z</time></trkpt><trkpt lat="42.3248365" lon="13.5080197"><ele>627.0</ele><time>2026-04-11T13:32:37.944Z</time></trkpt><trkpt lat="42.3248632" lon="13.507714"><ele>625.5</ele><time>2026-04-11T13:32:38.946Z</time></trkpt><trkpt lat="42.3248941" lon="13.5074021"><ele>624.0</ele><time>2026-04-11T13:32:39.944Z</time></trkpt><trkpt lat="42.3249275" lon="13.5070882"><ele>622.0</ele><time>2026-04-11T13:32:40.948Z</time></trkpt><trkpt lat="42.324959" lon="13.5067699"><ele>620.0</ele><time>2026-04-11T13:32:41.944Z</time></trkpt><trkpt lat="42.3249911" lon="13.5064514"><ele>618.0</ele><time>2026-04-11T13:32:42.94Z</time></trkpt><trkpt lat="42.3250237" lon="13.5061361"><ele>616.0</ele><time>2026-04-11T13:32:43.941Z</time></trkpt><trkpt lat="42.3250563" lon="13.5058189"><ele>616.0</ele><time>2026-04-11T13:32:44.938Z</time></trkpt><trkpt lat="42.325087" lon="13.5055021"><ele>616.0</ele><time>2026-04-11T13:32:45.944Z</time></trkpt><trkpt lat="42.3251165" lon="13.5051882"><ele>614.0</ele><time>2026-04-11T13:32:46.944Z</time></trkpt><trkpt lat="42.3251441" lon="13.5048746"><ele>612.0</ele><time>2026-04-11T13:32:47.941Z</time></trkpt><trkpt lat="42.3251751" lon="13.504575"><ele>610.0</ele><time>2026-04-11T13:32:48.942Z</time></trkpt><trkpt lat="42.3252022" lon="13.5042861"><ele>608.0</ele><time>2026-04-11T13:32:49.942Z</time></trkpt><trkpt lat="42.3252236" lon="13.5040011"><ele>606.0</ele><time>2026-04-11T13:32:50.945Z</time></trkpt><trkpt lat="42.3252501" lon="13.5037255"><ele>604.6666666666666</ele><time>2026-04-11T13:32:51.954Z</time></trkpt><trkpt lat="42.325274" lon="13.5034509"><ele>603.3333333333333</ele><time>2026-04-11T13:32:52.94Z</time></trkpt><trkpt lat="42.3253024" lon="13.503177"><ele>602.0</ele><time>2026-04-11T13:32:53.943Z</time></trkpt><trkpt lat="42.3253328" lon="13.5028904"><ele>601.3333333333333</ele><time>2026-04-11T13:32:54.948Z</time></trkpt><trkpt lat="42.3253631" lon="13.5026106"><ele>600.6666666666666</ele><time>2026-04-11T13:32:55.942Z</time></trkpt><trkpt lat="42.3253916" lon="13.5023251"><ele>600.0</ele><time>2026-04-11T13:32:56.942Z</time></trkpt><trkpt lat="42.3254205" lon="13.5020451"><ele>598.6666666666666</ele><time>2026-04-11T13:32:57.944Z</time></trkpt><trkpt lat="42.3254426" lon="13.5017662"><ele>597.3333333333333</ele><time>2026-04-11T13:32:58.944Z</time></trkpt><trkpt lat="42.3254679" lon="13.5015026"><ele>596.0</ele><time>2026-04-11T13:32:59.941Z</time></trkpt><trkpt lat="42.3254934" lon="13.5012443"><ele>595.3333333333333</ele><time>2026-04-11T13:33:00.942Z</time></trkpt><trkpt lat="42.3255199" lon="13.5009838"><ele>594.6666666666666</ele><time>2026-04-11T13:33:01.945Z</time></trkpt><trkpt lat="42.3255514" lon="13.5007206"><ele>594.0</ele><time>2026-04-11T13:33:02.943Z</time></trkpt><trkpt lat="42.3255808" lon="13.5004511"><ele>595.0</ele><time>2026-04-11T13:33:03.943Z</time></trkpt><trkpt lat="42.3256093" lon="13.5001823"><ele>596.0</ele><time>2026-04-11T13:33:04.942Z</time></trkpt><trkpt lat="42.3256394" lon="13.4999157"><ele>597.0</ele><time>2026-04-11T13:33:05.939Z</time></trkpt><trkpt lat="42.3256688" lon="13.4996602"><ele>596.3333333333334</ele><time>2026-04-11T13:33:06.942Z</time></trkpt><trkpt lat="42.3256964" lon="13.4994213"><ele>595.6666666666667</ele><time>2026-04-11T13:33:07.942Z</time></trkpt><trkpt lat="42.3257166" lon="13.4992009"><ele>595.0</ele><time>2026-04-11T13:33:08.954Z</time></trkpt><trkpt lat="42.3257355" lon="13.4989906"><ele>595.0</ele><time>2026-04-11T13:33:09.95Z</time></trkpt><trkpt lat="42.3257539" lon="13.4987931"><ele>595.0</ele><time>2026-04-11T13:33:10.94Z</time></trkpt><trkpt lat="42.325775" lon="13.4986062"><ele>595.0</ele><time>2026-04-11T13:33:11.943Z</time></trkpt><trkpt lat="42.3257955" lon="13.498436"><ele>595.0</ele><time>2026-04-11T13:33:12.944Z</time></trkpt><trkpt lat="42.3258162" lon="13.4982755"><ele>594.1666666666667</ele><time>2026-04-11T13:33:13.937Z</time></trkpt><trkpt lat="42.3258346" lon="13.4981271"><ele>593.3333333333334</ele><time>2026-04-11T13:33:14.943Z</time></trkpt><trkpt lat="42.3258526" lon="13.4979888"><ele>592.5</ele><time>2026-04-11T13:33:15.942Z</time></trkpt><trkpt lat="42.3258665" lon="13.497872"><ele>591.6666666666666</ele><time>2026-04-11T13:33:16.946Z</time></trkpt><trkpt lat="42.3258749" lon="13.4977853"><ele>590.8333333333333</ele><time>2026-04-11T13:33:17.942Z</time></trkpt><trkpt lat="42.3258792" lon="13.4976874"><ele>590.0</ele><time>2026-04-11T13:33:19.939Z</time></trkpt><trkpt lat="42.3258848" lon="13.4975997"><ele>589.3333333333333</ele><time>2026-04-11T13:33:24.943Z</time></trkpt><trkpt lat="42.3258935" lon="13.4974824"><ele>588.6666666666666</ele><time>2026-04-11T13:33:36.947Z</time></trkpt><trkpt lat="42.3259083" lon="13.4973482"><ele>588.0</ele><time>2026-04-11T13:33:38.947Z</time></trkpt><trkpt lat="42.3259181" lon="13.4972583"><ele>587.3333333333334</ele><time>2026-04-11T13:33:39.942Z</time></trkpt><trkpt lat="42.3259297" lon="13.497165"><ele>586.6666666666667</ele><time>2026-04-11T13:33:40.943Z</time></trkpt><trkpt lat="42.3259449" lon="13.4970572"><ele>586.0</ele><time>2026-04-11T13:33:41.944Z</time></trkpt><trkpt lat="42.3259604" lon="13.4969488"><ele>584.8</ele><time>2026-04-11T13:33:42.941Z</time></trkpt><trkpt lat="42.3259721" lon="13.4968267"><ele>583.6</ele><time>2026-04-11T13:33:43.94Z</time></trkpt><trkpt lat="42.3259967" lon="13.4966959"><ele>582.4</ele><time>2026-04-11T13:33:44.941Z</time></trkpt><trkpt lat="42.3260231" lon="13.4965624"><ele>581.2</ele><time>2026-04-11T13:33:45.947Z</time></trkpt><trkpt lat="42.3260541" lon="13.4964131"><ele>580.0</ele><time>2026-04-11T13:33:46.942Z</time></trkpt><trkpt lat="42.3260842" lon="13.4962582"><ele>579.5</ele><time>2026-04-11T13:33:47.946Z</time></trkpt><trkpt lat="42.3261235" lon="13.4960836"><ele>579.0</ele><time>2026-04-11T13:33:48.939Z</time></trkpt><trkpt lat="42.3261686" lon="13.4959019"><ele>578.5</ele><time>2026-04-11T13:33:49.941Z</time></trkpt><trkpt lat="42.3262142" lon="13.4957185"><ele>578.0</ele><time>2026-04-11T13:33:50.944Z</time></trkpt><trkpt lat="42.3262649" lon="13.4955437"><ele>577.25</ele><time>2026-04-11T13:33:51.94Z</time></trkpt><trkpt lat="42.3263151" lon="13.4953697"><ele>576.5</ele><time>2026-04-11T13:33:52.944Z</time></trkpt><trkpt lat="42.3263682" lon="13.4951906"><ele>575.75</ele><time>2026-04-11T13:33:53.945Z</time></trkpt><trkpt lat="42.326421" lon="13.4950293"><ele>575.0</ele><time>2026-04-11T13:33:54.943Z</time></trkpt><trkpt lat="42.3264684" lon="13.4948734"><ele>575.5</ele><time>2026-04-11T13:33:55.947Z</time></trkpt><trkpt lat="42.3265177" lon="13.4947165"><ele>576.0</ele><time>2026-04-11T13:33:56.944Z</time></trkpt><trkpt lat="42.3265661" lon="13.4945489"><ele>576.5</ele><time>2026-04-11T13:33:57.943Z</time></trkpt><trkpt lat="42.3266178" lon="13.4943781"><ele>577.0</ele><time>2026-04-11T13:33:58.943Z</time></trkpt><trkpt lat="42.3266702" lon="13.4942013"><ele>577.0</ele><time>2026-04-11T13:33:59.945Z</time></trkpt><trkpt lat="42.3267242" lon="13.4940158"><ele>577.0</ele><time>2026-04-11T13:34:00.943Z</time></trkpt><trkpt lat="42.326783" lon="13.4938269"><ele>577.0</ele><time>2026-04-11T13:34:01.941Z</time></trkpt><trkpt lat="42.3268469" lon="13.4936291"><ele>576.3333333333334</ele><time>2026-04-11T13:34:02.952Z</time></trkpt><trkpt lat="42.3269111" lon="13.4934334"><ele>575.6666666666666</ele><time>2026-04-11T13:34:03.942Z</time></trkpt><trkpt lat="42.32697" lon="13.4932335"><ele>575.0</ele><time>2026-04-11T13:34:04.94Z</time></trkpt><trkpt lat="42.3270274" lon="13.4930376"><ele>575.3333333333333</ele><time>2026-04-11T13:34:05.942Z</time></trkpt><trkpt lat="42.3270835" lon="13.4928432"><ele>575.6666666666666</ele><time>2026-04-11T13:34:06.951Z</time></trkpt><trkpt lat="42.3271378" lon="13.4926497"><ele>576.0</ele><time>2026-04-11T13:34:07.938Z</time></trkpt><trkpt lat="42.3271937" lon="13.4924518"><ele>576.0</ele><time>2026-04-11T13:34:08.941Z</time></trkpt><trkpt lat="42.3272511" lon="13.4922463"><ele>576.0</ele><time>2026-04-11T13:34:09.94Z</time></trkpt><trkpt lat="42.3273143" lon="13.4920344"><ele>576.0</ele><time>2026-04-11T13:34:10.939Z</time></trkpt><trkpt lat="42.3273786" lon="13.4918191"><ele>576.3333333333334</ele><time>2026-04-11T13:34:11.944Z</time></trkpt><trkpt lat="42.3274467" lon="13.4916037"><ele>576.6666666666667</ele><time>2026-04-11T13:34:12.942Z</time></trkpt><trkpt lat="42.3275173" lon="13.4913848"><ele>577.0</ele><time>2026-04-11T13:34:13.942Z</time></trkpt><trkpt lat="42.3275881" lon="13.49116"><ele>577.0</ele><time>2026-04-11T13:34:14.941Z</time></trkpt><trkpt lat="42.3276533" lon="13.4909322"><ele>577.0</ele><time>2026-04-11T13:34:15.943Z</time></trkpt><trkpt lat="42.3277192" lon="13.4907147"><ele>577.0</ele><time>2026-04-11T13:34:16.943Z</time></trkpt><trkpt lat="42.3277822" lon="13.4904975"><ele>576.6666666666667</ele><time>2026-04-11T13:34:17.946Z</time></trkpt><trkpt lat="42.3278472" lon="13.4902811"><ele>576.3333333333334</ele><time>2026-04-11T13:34:18.942Z</time></trkpt><trkpt lat="42.3279129" lon="13.4900636"><ele>576.0</ele><time>2026-04-11T13:34:19.945Z</time></trkpt><trkpt lat="42.3279811" lon="13.4898449"><ele>576.0</ele><time>2026-04-11T13:34:20.941Z</time></trkpt><trkpt lat="42.328049" lon="13.4896147"><ele>576.0</ele><time>2026-04-11T13:34:21.942Z</time></trkpt><trkpt lat="42.3281156" lon="13.4893825"><ele>576.0</ele><time>2026-04-11T13:34:22.944Z</time></trkpt><trkpt lat="42.328185" lon="13.489144"><ele>576.3333333333334</ele><time>2026-04-11T13:34:23.941Z</time></trkpt><trkpt lat="42.3282583" lon="13.4889035"><ele>576.6666666666667</ele><time>2026-04-11T13:34:24.944Z</time></trkpt><trkpt lat="42.3283336" lon="13.4886621"><ele>577.0</ele><time>2026-04-11T13:34:25.941Z</time></trkpt><trkpt lat="42.3284071" lon="13.4884134"><ele>577.3333333333334</ele><time>2026-04-11T13:34:26.941Z</time></trkpt><trkpt lat="42.3284803" lon="13.4881654"><ele>577.6666666666666</ele><time>2026-04-11T13:34:27.936Z</time></trkpt><trkpt lat="42.3285496" lon="13.4879203"><ele>578.0</ele><time>2026-04-11T13:34:28.943Z</time></trkpt><trkpt lat="42.3286194" lon="13.487676"><ele>578.0</ele><time>2026-04-11T13:34:29.944Z</time></trkpt><trkpt lat="42.3286889" lon="13.487435"><ele>578.0</ele><time>2026-04-11T13:34:30.944Z</time></trkpt><trkpt lat="42.3287615" lon="13.4871944"><ele>578.0</ele><time>2026-04-11T13:34:31.947Z</time></trkpt><trkpt lat="42.3288334" lon="13.4869506"><ele>578.3333333333333</ele><time>2026-04-11T13:34:32.94Z</time></trkpt><trkpt lat="42.3289072" lon="13.4867066"><ele>578.6666666666666</ele><time>2026-04-11T13:34:33.943Z</time></trkpt><trkpt lat="42.3289821" lon="13.4864552"><ele>579.0</ele><time>2026-04-11T13:34:34.938Z</time></trkpt><trkpt lat="42.3290578" lon="13.4861982"><ele>579.3333333333334</ele><time>2026-04-11T13:34:35.945Z</time></trkpt><trkpt lat="42.3291339" lon="13.4859422"><ele>579.6666666666667</ele><time>2026-04-11T13:34:36.947Z</time></trkpt><trkpt lat="42.3292111" lon="13.4856811"><ele>580.0</ele><time>2026-04-11T13:34:37.94Z</time></trkpt><trkpt lat="42.3292854" lon="13.4854248"><ele>580.0</ele><time>2026-04-11T13:34:38.941Z</time></trkpt><trkpt lat="42.3293578" lon="13.4851771"><ele>580.0</ele><time>2026-04-11T13:34:39.945Z</time></trkpt><trkpt lat="42.3294264" lon="13.4849431"><ele>580.0</ele><time>2026-04-11T13:34:40.944Z</time></trkpt><trkpt lat="42.3294891" lon="13.4847198"><ele>580.3333333333334</ele><time>2026-04-11T13:34:41.941Z</time></trkpt><trkpt lat="42.3295518" lon="13.4845075"><ele>580.6666666666666</ele><time>2026-04-11T13:34:42.945Z</time></trkpt><trkpt lat="42.3296168" lon="13.484301"><ele>581.0</ele><time>2026-04-11T13:34:43.937Z</time></trkpt><trkpt lat="42.3296851" lon="13.4840898"><ele>581.6666666666666</ele><time>2026-04-11T13:34:44.939Z</time></trkpt><trkpt lat="42.3297532" lon="13.4838685"><ele>582.3333333333334</ele><time>2026-04-11T13:34:45.943Z</time></trkpt><trkpt lat="42.3298207" lon="13.4836502"><ele>583.0</ele><time>2026-04-11T13:34:46.942Z</time></trkpt><trkpt lat="42.3298886" lon="13.4834249"><ele>583.0</ele><time>2026-04-11T13:34:47.941Z</time></trkpt><trkpt lat="42.3299549" lon="13.4831965"><ele>583.0</ele><time>2026-04-11T13:34:48.943Z</time></trkpt><trkpt lat="42.3300199" lon="13.482982"><ele>583.0</ele><time>2026-04-11T13:34:49.947Z</time></trkpt><trkpt lat="42.3300807" lon="13.4827808"><ele>583.0</ele><time>2026-04-11T13:34:50.94Z</time></trkpt><trkpt lat="42.3301372" lon="13.4825877"><ele>583.0</ele><time>2026-04-11T13:34:51.946Z</time></trkpt><trkpt lat="42.3301922" lon="13.4824074"><ele>583.0</ele><time>2026-04-11T13:34:52.943Z</time></trkpt><trkpt lat="42.3302438" lon="13.4822325"><ele>583.0</ele><time>2026-04-11T13:34:53.943Z</time></trkpt><trkpt lat="42.3302916" lon="13.4820721"><ele>583.0</ele><time>2026-04-11T13:34:54.945Z</time></trkpt><trkpt lat="42.3303398" lon="13.4819096"><ele>583.0</ele><time>2026-04-11T13:34:55.938Z</time></trkpt><trkpt lat="42.3303891" lon="13.4817412"><ele>583.0</ele><time>2026-04-11T13:34:56.944Z</time></trkpt><trkpt lat="42.3304394" lon="13.481575"><ele>583.0</ele><time>2026-04-11T13:34:57.941Z</time></trkpt><trkpt lat="42.3304907" lon="13.4814117"><ele>583.5</ele><time>2026-04-11T13:34:58.943Z</time></trkpt><trkpt lat="42.3305427" lon="13.4812428"><ele>584.0</ele><time>2026-04-11T13:34:59.943Z</time></trkpt><trkpt lat="42.3305916" lon="13.4810764"><ele>584.5</ele><time>2026-04-11T13:35:00.943Z</time></trkpt><trkpt lat="42.3306381" lon="13.4809118"><ele>585.0</ele><time>2026-04-11T13:35:01.942Z</time></trkpt><trkpt lat="42.3306851" lon="13.4807569"><ele>585.5</ele><time>2026-04-11T13:35:02.942Z</time></trkpt><trkpt lat="42.3307316" lon="13.4806024"><ele>586.0</ele><time>2026-04-11T13:35:03.946Z</time></trkpt><trkpt lat="42.3307722" lon="13.4804601"><ele>586.5</ele><time>2026-04-11T13:35:04.948Z</time></trkpt><trkpt lat="42.330817" lon="13.4803238"><ele>587.0</ele><time>2026-04-11T13:35:05.941Z</time></trkpt><trkpt lat="42.3308583" lon="13.4801934"><ele>587.2</ele><time>2026-04-11T13:35:06.941Z</time></trkpt><trkpt lat="42.3308915" lon="13.4800707"><ele>587.4000000000001</ele><time>2026-04-11T13:35:07.944Z</time></trkpt><trkpt lat="42.3309267" lon="13.4799531"><ele>587.5999999999999</ele><time>2026-04-11T13:35:08.951Z</time></trkpt><trkpt lat="42.3309601" lon="13.4798474"><ele>587.8</ele><time>2026-04-11T13:35:09.94Z</time></trkpt><trkpt lat="42.3309919" lon="13.4797371"><ele>588.0</ele><time>2026-04-11T13:35:10.952Z</time></trkpt><trkpt lat="42.3310252" lon="13.4796225"><ele>588.1666666666666</ele><time>2026-04-11T13:35:11.951Z</time></trkpt><trkpt lat="42.3310588" lon="13.4795023"><ele>588.3333333333334</ele><time>2026-04-11T13:35:12.947Z</time></trkpt><trkpt lat="42.3310946" lon="13.4793836"><ele>588.5</ele><time>2026-04-11T13:35:13.947Z</time></trkpt><trkpt lat="42.3311276" lon="13.4792762"><ele>588.6666666666667</ele><time>2026-04-11T13:35:14.948Z</time></trkpt><trkpt lat="42.3311579" lon="13.4791727"><ele>588.8333333333334</ele><time>2026-04-11T13:35:15.945Z</time></trkpt><trkpt lat="42.3311885" lon="13.4790741"><ele>589.0</ele><time>2026-04-11T13:35:16.955Z</time></trkpt><trkpt lat="42.3312163" lon="13.4789726"><ele>589.0</ele><time>2026-04-11T13:35:17.956Z</time></trkpt><trkpt lat="42.3312507" lon="13.4788597"><ele>589.0</ele><time>2026-04-11T13:35:18.942Z</time></trkpt><trkpt lat="42.331285" lon="13.4787331"><ele>589.0</ele><time>2026-04-11T13:35:19.939Z</time></trkpt><trkpt lat="42.331326" lon="13.4785991"><ele>589.0</ele><time>2026-04-11T13:35:20.94Z</time></trkpt><trkpt lat="42.3313651" lon="13.4784623"><ele>589.0</ele><time>2026-04-11T13:35:21.943Z</time></trkpt><trkpt lat="42.3314003" lon="13.4783341"><ele>589.2</ele><time>2026-04-11T13:35:22.941Z</time></trkpt><trkpt lat="42.3314357" lon="13.4782061"><ele>589.4</ele><time>2026-04-11T13:35:23.944Z</time></trkpt><trkpt lat="42.3314733" lon="13.4780707"><ele>589.6</ele><time>2026-04-11T13:35:24.941Z</time></trkpt><trkpt lat="42.3315134" lon="13.4779263"><ele>589.8</ele><time>2026-04-11T13:35:25.942Z</time></trkpt><trkpt lat="42.3315629" lon="13.4777725"><ele>590.0</ele><time>2026-04-11T13:35:26.943Z</time></trkpt><trkpt lat="42.3316169" lon="13.4776092"><ele>590.5</ele><time>2026-04-11T13:35:27.941Z</time></trkpt><trkpt lat="42.3316695" lon="13.4774466"><ele>591.0</ele><time>2026-04-11T13:35:28.945Z</time></trkpt><trkpt lat="42.3317198" lon="13.4772858"><ele>591.5</ele><time>2026-04-11T13:35:29.946Z</time></trkpt><trkpt lat="42.3317649" lon="13.4771358"><ele>592.0</ele><time>2026-04-11T13:35:30.943Z</time></trkpt><trkpt lat="42.3318059" lon="13.4769936"><ele>592.0</ele><time>2026-04-11T13:35:31.944Z</time></trkpt><trkpt lat="42.3318447" lon="13.4768519"><ele>592.0</ele><time>2026-04-11T13:35:32.946Z</time></trkpt><trkpt lat="42.3318804" lon="13.476709"><ele>592.0</ele><time>2026-04-11T13:35:33.939Z</time></trkpt><trkpt lat="42.3319187" lon="13.4765547"><ele>592.0</ele><time>2026-04-11T13:35:34.94Z</time></trkpt><trkpt lat="42.3319602" lon="13.4763949"><ele>592.0</ele><time>2026-04-11T13:35:35.94Z</time></trkpt><trkpt lat="42.3320055" lon="13.4762318"><ele>592.0</ele><time>2026-04-11T13:35:36.941Z</time></trkpt><trkpt lat="42.3320482" lon="13.4760687"><ele>592.0</ele><time>2026-04-11T13:35:37.944Z</time></trkpt><trkpt lat="42.3320973" lon="13.4759004"><ele>592.0</ele><time>2026-04-11T13:35:38.943Z</time></trkpt><trkpt lat="42.3321449" lon="13.4757341"><ele>592.0</ele><time>2026-04-11T13:35:39.941Z</time></trkpt><trkpt lat="42.3321889" lon="13.4755696"><ele>592.0</ele><time>2026-04-11T13:35:40.941Z</time></trkpt><trkpt lat="42.3322249" lon="13.475407"><ele>592.0</ele><time>2026-04-11T13:35:41.939Z</time></trkpt><trkpt lat="42.332267" lon="13.4752495"><ele>592.0</ele><time>2026-04-11T13:35:42.94Z</time></trkpt><trkpt lat="42.3323112" lon="13.4750848"><ele>592.0</ele><time>2026-04-11T13:35:43.948Z</time></trkpt><trkpt lat="42.3323546" lon="13.4749171"><ele>592.0</ele><time>2026-04-11T13:35:44.941Z</time></trkpt><trkpt lat="42.3323999" lon="13.4747436"><ele>592.0</ele><time>2026-04-11T13:35:45.949Z</time></trkpt><trkpt lat="42.3324471" lon="13.4745628"><ele>592.0</ele><time>2026-04-11T13:35:46.943Z</time></trkpt><trkpt lat="42.3324943" lon="13.4743821"><ele>592.25</ele><time>2026-04-11T13:35:47.941Z</time></trkpt><trkpt lat="42.332543" lon="13.4741973"><ele>592.5</ele><time>2026-04-11T13:35:48.941Z</time></trkpt><trkpt lat="42.3325934" lon="13.4740117"><ele>592.75</ele><time>2026-04-11T13:35:49.944Z</time></trkpt><trkpt lat="42.3326421" lon="13.4738202"><ele>593.0</ele><time>2026-04-11T13:35:50.948Z</time></trkpt><trkpt lat="42.3326934" lon="13.4736288"><ele>593.0</ele><time>2026-04-11T13:35:51.94Z</time></trkpt><trkpt lat="42.3327431" lon="13.4734364"><ele>593.0</ele><time>2026-04-11T13:35:52.942Z</time></trkpt><trkpt lat="42.3327909" lon="13.4732475"><ele>593.0</ele><time>2026-04-11T13:35:53.948Z</time></trkpt><trkpt lat="42.3328389" lon="13.4730582"><ele>593.0</ele><time>2026-04-11T13:35:54.939Z</time></trkpt><trkpt lat="42.3328891" lon="13.4728778"><ele>593.0</ele><time>2026-04-11T13:35:55.951Z</time></trkpt><trkpt lat="42.3329332" lon="13.4726964"><ele>593.0</ele><time>2026-04-11T13:35:56.942Z</time></trkpt><trkpt lat="42.332984" lon="13.4725201"><ele>593.0</ele><time>2026-04-11T13:35:57.944Z</time></trkpt><trkpt lat="42.3330302" lon="13.472349"><ele>593.0</ele><time>2026-04-11T13:35:58.945Z</time></trkpt><trkpt lat="42.3330761" lon="13.4721854"><ele>593.1999999999999</ele><time>2026-04-11T13:35:59.939Z</time></trkpt><trkpt lat="42.3331195" lon="13.4720357"><ele>593.4</ele><time>2026-04-11T13:36:00.939Z</time></trkpt><trkpt lat="42.3331628" lon="13.4718976"><ele>593.5999999999999</ele><time>2026-04-11T13:36:01.945Z</time></trkpt><trkpt lat="42.3332057" lon="13.4717696"><ele>593.8</ele><time>2026-04-11T13:36:02.94Z</time></trkpt><trkpt lat="42.3332527" lon="13.4716508"><ele>594.0</ele><time>2026-04-11T13:36:03.942Z</time></trkpt><trkpt lat="42.3333054" lon="13.4715456"><ele>594.0</ele><time>2026-04-11T13:36:04.941Z</time></trkpt><trkpt lat="42.333356" lon="13.4714648"><ele>594.0</ele><time>2026-04-11T13:36:05.94Z</time></trkpt><trkpt lat="42.3334389" lon="13.4713906"><ele>594.0</ele><time>2026-04-11T13:36:07.939Z</time></trkpt><trkpt lat="42.3335098" lon="13.4713448"><ele>594.0</ele><time>2026-04-11T13:36:09.949Z</time></trkpt><trkpt lat="42.3336211" lon="13.4712393"><ele>594.0</ele><time>2026-04-11T13:36:11.94Z</time></trkpt><trkpt lat="42.3336535" lon="13.471139"><ele>593.6</ele><time>2026-04-11T13:36:12.939Z</time></trkpt><trkpt lat="42.3336507" lon="13.4710233"><ele>593.2</ele><time>2026-04-11T13:36:13.948Z</time></trkpt><trkpt lat="42.3336138" lon="13.4708961"><ele>592.8000000000001</ele><time>2026-04-11T13:36:14.941Z</time></trkpt><trkpt lat="42.3335696" lon="13.4707427"><ele>592.4</ele><time>2026-04-11T13:36:15.94Z</time></trkpt><trkpt lat="42.3335484" lon="13.4705699"><ele>592.0</ele><time>2026-04-11T13:36:16.942Z</time></trkpt><trkpt lat="42.3335535" lon="13.4703822"><ele>591.75</ele><time>2026-04-11T13:36:17.938Z</time></trkpt><trkpt lat="42.3335815" lon="13.4701984"><ele>591.5</ele><time>2026-04-11T13:36:18.943Z</time></trkpt><trkpt lat="42.3336115" lon="13.4700311"><ele>591.25</ele><time>2026-04-11T13:36:19.942Z</time></trkpt><trkpt lat="42.3336496" lon="13.4698778"><ele>591.0</ele><time>2026-04-11T13:36:20.944Z</time></trkpt><trkpt lat="42.3336893" lon="13.4697348"><ele>591.0</ele><time>2026-04-11T13:36:21.94Z</time></trkpt><trkpt lat="42.3337253" lon="13.4696048"><ele>591.0</ele><time>2026-04-11T13:36:22.95Z</time></trkpt><trkpt lat="42.3337595" lon="13.4694839"><ele>591.0</ele><time>2026-04-11T13:36:23.936Z</time></trkpt><trkpt lat="42.333796" lon="13.4693658"><ele>591.0</ele><time>2026-04-11T13:36:24.939Z</time></trkpt><trkpt lat="42.3338291" lon="13.4692496"><ele>591.0</ele><time>2026-04-11T13:36:25.942Z</time></trkpt><trkpt lat="42.3338607" lon="13.4691304"><ele>591.4</ele><time>2026-04-11T13:36:26.938Z</time></trkpt><trkpt lat="42.3338948" lon="13.469015"><ele>591.8</ele><time>2026-04-11T13:36:27.943Z</time></trkpt><trkpt lat="42.3339283" lon="13.4688989"><ele>592.1999999999999</ele><time>2026-04-11T13:36:28.937Z</time></trkpt><trkpt lat="42.3339645" lon="13.4687676"><ele>592.6</ele><time>2026-04-11T13:36:29.942Z</time></trkpt><trkpt lat="42.3339993" lon="13.4686325"><ele>593.0</ele><time>2026-04-11T13:36:30.944Z</time></trkpt><trkpt lat="42.3340336" lon="13.4685079"><ele>593.0</ele><time>2026-04-11T13:36:31.944Z</time></trkpt><trkpt lat="42.3340674" lon="13.4683875"><ele>593.0</ele><time>2026-04-11T13:36:32.937Z</time></trkpt><trkpt lat="42.334101" lon="13.4682508"><ele>593.0</ele><time>2026-04-11T13:36:33.941Z</time></trkpt><trkpt lat="42.3341385" lon="13.4681138"><ele>593.0</ele><time>2026-04-11T13:36:34.945Z</time></trkpt><trkpt lat="42.3341793" lon="13.4679854"><ele>593.0</ele><time>2026-04-11T13:36:35.94Z</time></trkpt><trkpt lat="42.334216" lon="13.4678673"><ele>592.6</ele><time>2026-04-11T13:36:36.945Z</time></trkpt><trkpt lat="42.3342518" lon="13.4677369"><ele>592.1999999999999</ele><time>2026-04-11T13:36:37.943Z</time></trkpt><trkpt lat="42.3342932" lon="13.4675965"><ele>591.8</ele><time>2026-04-11T13:36:38.94Z</time></trkpt><trkpt lat="42.33433" lon="13.467453"><ele>591.4</ele><time>2026-04-11T13:36:39.941Z</time></trkpt><trkpt lat="42.3343662" lon="13.4673101"><ele>591.0</ele><time>2026-04-11T13:36:40.941Z</time></trkpt><trkpt lat="42.3344077" lon="13.4671745"><ele>591.2</ele><time>2026-04-11T13:36:41.942Z</time></trkpt><trkpt lat="42.3344458" lon="13.4670405"><ele>591.4000000000001</ele><time>2026-04-11T13:36:42.959Z</time></trkpt><trkpt lat="42.3344878" lon="13.4669009"><ele>591.6</ele><time>2026-04-11T13:36:43.943Z</time></trkpt><trkpt lat="42.3345288" lon="13.4667702"><ele>591.8000000000001</ele><time>2026-04-11T13:36:44.939Z</time></trkpt><trkpt lat="42.3345648" lon="13.4666414"><ele>592.0</ele><time>2026-04-11T13:36:45.944Z</time></trkpt><trkpt lat="42.334599" lon="13.4665201"><ele>592.0</ele><time>2026-04-11T13:36:46.939Z</time></trkpt><trkpt lat="42.3346349" lon="13.4663984"><ele>592.0</ele><time>2026-04-11T13:36:47.941Z</time></trkpt><trkpt lat="42.3346716" lon="13.4662795"><ele>592.0</ele><time>2026-04-11T13:36:48.947Z</time></trkpt><trkpt lat="42.3347094" lon="13.4661549"><ele>592.0</ele><time>2026-04-11T13:36:49.938Z</time></trkpt><trkpt lat="42.3347504" lon="13.4660247"><ele>592.0</ele><time>2026-04-11T13:36:50.939Z</time></trkpt><trkpt lat="42.3347866" lon="13.4658912"><ele>592.5</ele><time>2026-04-11T13:36:51.943Z</time></trkpt><trkpt lat="42.3348203" lon="13.4657473"><ele>593.0</ele><time>2026-04-11T13:36:52.942Z</time></trkpt><trkpt lat="42.3348596" lon="13.4655991"><ele>593.5</ele><time>2026-04-11T13:36:53.944Z</time></trkpt><trkpt lat="42.3348974" lon="13.4654491"><ele>594.0</ele><time>2026-04-11T13:36:54.939Z</time></trkpt><trkpt lat="42.3349372" lon="13.4653065"><ele>594.0</ele><time>2026-04-11T13:36:55.942Z</time></trkpt><trkpt lat="42.3349743" lon="13.4651625"><ele>594.0</ele><time>2026-04-11T13:36:56.94Z</time></trkpt><trkpt lat="42.3350095" lon="13.4650275"><ele>594.0</ele><time>2026-04-11T13:36:57.945Z</time></trkpt><trkpt lat="42.3350429" lon="13.464908"><ele>594.0</ele><time>2026-04-11T13:36:58.939Z</time></trkpt><trkpt lat="42.3350772" lon="13.4647929"><ele>594.0</ele><time>2026-04-11T13:36:59.943Z</time></trkpt><trkpt lat="42.3351066" lon="13.464679"><ele>594.1666666666666</ele><time>2026-04-11T13:37:00.941Z</time></trkpt><trkpt lat="42.3351344" lon="13.4645765"><ele>594.3333333333334</ele><time>2026-04-11T13:37:01.944Z</time></trkpt><trkpt lat="42.3351659" lon="13.4644653"><ele>594.5</ele><time>2026-04-11T13:37:02.939Z</time></trkpt><trkpt lat="42.3351952" lon="13.4643643"><ele>594.6666666666667</ele><time>2026-04-11T13:37:03.943Z</time></trkpt><trkpt lat="42.3352277" lon="13.4642643"><ele>594.8333333333334</ele><time>2026-04-11T13:37:04.943Z</time></trkpt><trkpt lat="42.3352589" lon="13.4641641"><ele>595.0</ele><time>2026-04-11T13:37:05.94Z</time></trkpt><trkpt lat="42.3352886" lon="13.4640574"><ele>595.0</ele><time>2026-04-11T13:37:06.942Z</time></trkpt><trkpt lat="42.3353205" lon="13.4639464"><ele>595.0</ele><time>2026-04-11T13:37:07.94Z</time></trkpt><trkpt lat="42.3353537" lon="13.4638398"><ele>595.0</ele><time>2026-04-11T13:37:08.948Z</time></trkpt><trkpt lat="42.3353785" lon="13.4637407"><ele>595.0</ele><time>2026-04-11T13:37:09.943Z</time></trkpt><trkpt lat="42.3354097" lon="13.4636378"><ele>595.0</ele><time>2026-04-11T13:37:10.941Z</time></trkpt><trkpt lat="42.3354387" lon="13.4635306"><ele>595.0</ele><time>2026-04-11T13:37:11.943Z</time></trkpt><trkpt lat="42.335472" lon="13.4634105"><ele>594.8</ele><time>2026-04-11T13:37:12.944Z</time></trkpt><trkpt lat="42.3355097" lon="13.4632785"><ele>594.6</ele><time>2026-04-11T13:37:13.946Z</time></trkpt><trkpt lat="42.3355482" lon="13.4631404"><ele>594.4</ele><time>2026-04-11T13:37:14.948Z</time></trkpt><trkpt lat="42.3355868" lon="13.4629967"><ele>594.2</ele><time>2026-04-11T13:37:15.942Z</time></trkpt><trkpt lat="42.3356235" lon="13.4628483"><ele>594.0</ele><time>2026-04-11T13:37:16.94Z</time></trkpt><trkpt lat="42.3356656" lon="13.4627023"><ele>594.0</ele><time>2026-04-11T13:37:17.942Z</time></trkpt><trkpt lat="42.3357117" lon="13.4625498"><ele>594.0</ele><time>2026-04-11T13:37:18.942Z</time></trkpt><trkpt lat="42.335753" lon="13.4623938"><ele>594.0</ele><time>2026-04-11T13:37:19.943Z</time></trkpt><trkpt lat="42.3357946" lon="13.4622503"><ele>594.0</ele><time>2026-04-11T13:37:20.944Z</time></trkpt><trkpt lat="42.3358338" lon="13.4621034"><ele>594.0</ele><time>2026-04-11T13:37:21.941Z</time></trkpt><trkpt lat="42.3358709" lon="13.4619565"><ele>594.0</ele><time>2026-04-11T13:37:22.941Z</time></trkpt><trkpt lat="42.3359119" lon="13.4618098"><ele>594.0</ele><time>2026-04-11T13:37:23.945Z</time></trkpt><trkpt lat="42.3359518" lon="13.4616626"><ele>594.0</ele><time>2026-04-11T13:37:24.943Z</time></trkpt><trkpt lat="42.335995" lon="13.4615091"><ele>594.0</ele><time>2026-04-11T13:37:25.942Z</time></trkpt><trkpt lat="42.3360384" lon="13.4613475"><ele>594.0</ele><time>2026-04-11T13:37:26.942Z</time></trkpt><trkpt lat="42.3360814" lon="13.4611796"><ele>594.0</ele><time>2026-04-11T13:37:27.944Z</time></trkpt><trkpt lat="42.3361255" lon="13.4610124"><ele>594.0</ele><time>2026-04-11T13:37:28.944Z</time></trkpt><trkpt lat="42.3361735" lon="13.4608463"><ele>594.0</ele><time>2026-04-11T13:37:29.942Z</time></trkpt><trkpt lat="42.3362228" lon="13.4606772"><ele>594.0</ele><time>2026-04-11T13:37:30.939Z</time></trkpt><trkpt lat="42.3362707" lon="13.4605067"><ele>594.0</ele><time>2026-04-11T13:37:31.939Z</time></trkpt><trkpt lat="42.3363147" lon="13.4603376"><ele>594.0</ele><time>2026-04-11T13:37:32.946Z</time></trkpt><trkpt lat="42.3363592" lon="13.4601736"><ele>594.25</ele><time>2026-04-11T13:37:33.941Z</time></trkpt><trkpt lat="42.3364025" lon="13.4600149"><ele>594.5</ele><time>2026-04-11T13:37:34.942Z</time></trkpt><trkpt lat="42.3364452" lon="13.4598597"><ele>594.75</ele><time>2026-04-11T13:37:35.943Z</time></trkpt><trkpt lat="42.3364913" lon="13.4597082"><ele>595.0</ele><time>2026-04-11T13:37:36.946Z</time></trkpt><trkpt lat="42.3365353" lon="13.4595549"><ele>595.0</ele><time>2026-04-11T13:37:37.94Z</time></trkpt><trkpt lat="42.3365787" lon="13.4594048"><ele>595.0</ele><time>2026-04-11T13:37:38.94Z</time></trkpt><trkpt lat="42.3366188" lon="13.4592513"><ele>595.0</ele><time>2026-04-11T13:37:39.949Z</time></trkpt><trkpt lat="42.336658" lon="13.4591016"><ele>595.0</ele><time>2026-04-11T13:37:40.944Z</time></trkpt><trkpt lat="42.3366979" lon="13.458952"><ele>595.0</ele><time>2026-04-11T13:37:41.941Z</time></trkpt><trkpt lat="42.3367412" lon="13.4588042"><ele>595.0</ele><time>2026-04-11T13:37:42.946Z</time></trkpt><trkpt lat="42.3367827" lon="13.4586602"><ele>595.0</ele><time>2026-04-11T13:37:43.932Z</time></trkpt><trkpt lat="42.3368238" lon="13.458516"><ele>595.0</ele><time>2026-04-11T13:37:44.942Z</time></trkpt><trkpt lat="42.3368562" lon="13.458391"><ele>595.0</ele><time>2026-04-11T13:37:45.941Z</time></trkpt><trkpt lat="42.3368839" lon="13.4582964"><ele>595.0</ele><time>2026-04-11T13:37:46.946Z</time></trkpt><trkpt lat="42.3369215" lon="13.4581599"><ele>595.0</ele><time>2026-04-11T13:37:48.948Z</time></trkpt><trkpt lat="42.3369446" lon="13.4580764"><ele>595.0</ele><time>2026-04-11T13:37:52.937Z</time></trkpt><trkpt lat="42.3369867" lon="13.457963"><ele>595.0</ele><time>2026-04-11T13:37:57.957Z</time></trkpt><trkpt lat="42.3370367" lon="13.457885"><ele>595.0</ele><time>2026-04-11T13:37:59.948Z</time></trkpt><trkpt lat="42.3370878" lon="13.4578222"><ele>595.0</ele><time>2026-04-11T13:38:02.947Z</time></trkpt><trkpt lat="42.337172" lon="13.4577229"><ele>595.2</ele><time>2026-04-11T13:38:04.948Z</time></trkpt><trkpt lat="42.3372162" lon="13.4576456"><ele>595.4</ele><time>2026-04-11T13:38:05.943Z</time></trkpt><trkpt lat="42.3372368" lon="13.4575438"><ele>595.6</ele><time>2026-04-11T13:38:06.939Z</time></trkpt><trkpt lat="42.3372297" lon="13.457428"><ele>595.8</ele><time>2026-04-11T13:38:07.944Z</time></trkpt><trkpt lat="42.3372109" lon="13.4572844"><ele>596.0</ele><time>2026-04-11T13:38:08.942Z</time></trkpt><trkpt lat="42.3372104" lon="13.4571333"><ele>596.0</ele><time>2026-04-11T13:38:09.945Z</time></trkpt><trkpt lat="42.3372292" lon="13.456988"><ele>596.0</ele><time>2026-04-11T13:38:10.952Z</time></trkpt><trkpt lat="42.3372575" lon="13.4568291"><ele>596.0</ele><time>2026-04-11T13:38:11.943Z</time></trkpt><trkpt lat="42.3372881" lon="13.4566584"><ele>596.0</ele><time>2026-04-11T13:38:12.94Z</time></trkpt><trkpt lat="42.3373111" lon="13.4564816"><ele>596.0</ele><time>2026-04-11T13:38:13.943Z</time></trkpt><trkpt lat="42.3373312" lon="13.4563071"><ele>596.0</ele><time>2026-04-11T13:38:14.945Z</time></trkpt><trkpt lat="42.3373456" lon="13.4561347"><ele>596.0</ele><time>2026-04-11T13:38:15.951Z</time></trkpt><trkpt lat="42.3373482" lon="13.4559784"><ele>596.0</ele><time>2026-04-11T13:38:16.938Z</time></trkpt><trkpt lat="42.3373455" lon="13.4558247"><ele>597.0</ele><time>2026-04-11T13:38:17.943Z</time></trkpt><trkpt lat="42.3373309" lon="13.4556713"><ele>598.0</ele><time>2026-04-11T13:38:18.945Z</time></trkpt><trkpt lat="42.3373115" lon="13.4555087"><ele>599.0</ele><time>2026-04-11T13:38:19.941Z</time></trkpt><trkpt lat="42.337283" lon="13.4553465"><ele>600.0</ele><time>2026-04-11T13:38:20.936Z</time></trkpt><trkpt lat="42.3372598" lon="13.4551871"><ele>599.75</ele><time>2026-04-11T13:38:21.947Z</time></trkpt><trkpt lat="42.3372308" lon="13.4550267"><ele>599.5</ele><time>2026-04-11T13:38:22.94Z</time></trkpt><trkpt lat="42.3372025" lon="13.4548629"><ele>599.25</ele><time>2026-04-11T13:38:23.948Z</time></trkpt><trkpt lat="42.3371689" lon="13.4547062"><ele>599.0</ele><time>2026-04-11T13:38:24.946Z</time></trkpt><trkpt lat="42.3371393" lon="13.4545524"><ele>599.0</ele><time>2026-04-11T13:38:25.954Z</time></trkpt><trkpt lat="42.3371066" lon="13.4543942"><ele>599.0</ele><time>2026-04-11T13:38:26.946Z</time></trkpt><trkpt lat="42.3370734" lon="13.4542434"><ele>599.0</ele><time>2026-04-11T13:38:27.943Z</time></trkpt><trkpt lat="42.3370423" lon="13.4540917"><ele>599.0</ele><time>2026-04-11T13:38:28.941Z</time></trkpt><trkpt lat="42.3370087" lon="13.4539336"><ele>599.5</ele><time>2026-04-11T13:38:29.944Z</time></trkpt><trkpt lat="42.3369726" lon="13.453774"><ele>600.0</ele><time>2026-04-11T13:38:30.941Z</time></trkpt><trkpt lat="42.3369321" lon="13.4536115"><ele>600.5</ele><time>2026-04-11T13:38:31.947Z</time></trkpt><trkpt lat="42.3368951" lon="13.4534569"><ele>601.0</ele><time>2026-04-11T13:38:32.943Z</time></trkpt><trkpt lat="42.3368606" lon="13.4533044"><ele>601.0</ele><time>2026-04-11T13:38:33.949Z</time></trkpt><trkpt lat="42.3368258" lon="13.4531592"><ele>601.0</ele><time>2026-04-11T13:38:34.938Z</time></trkpt><trkpt lat="42.3367934" lon="13.4530145"><ele>601.0</ele><time>2026-04-11T13:38:35.943Z</time></trkpt><trkpt lat="42.3367645" lon="13.4528604"><ele>601.0</ele><time>2026-04-11T13:38:36.941Z</time></trkpt><trkpt lat="42.3367363" lon="13.4527076"><ele>601.5</ele><time>2026-04-11T13:38:37.946Z</time></trkpt><trkpt lat="42.3367106" lon="13.4525644"><ele>602.0</ele><time>2026-04-11T13:38:38.944Z</time></trkpt><trkpt lat="42.336687" lon="13.4524162"><ele>602.5</ele><time>2026-04-11T13:38:39.941Z</time></trkpt><trkpt lat="42.3366607" lon="13.4522618"><ele>603.0</ele><time>2026-04-11T13:38:40.952Z</time></trkpt><trkpt lat="42.3366323" lon="13.4521117"><ele>603.0</ele><time>2026-04-11T13:38:41.944Z</time></trkpt><trkpt lat="42.3366106" lon="13.4519751"><ele>603.0</ele><time>2026-04-11T13:38:42.942Z</time></trkpt><trkpt lat="42.3365904" lon="13.4518463"><ele>603.0</ele><time>2026-04-11T13:38:43.947Z</time></trkpt><trkpt lat="42.3365786" lon="13.4517288"><ele>603.0</ele><time>2026-04-11T13:38:44.942Z</time></trkpt><trkpt lat="42.336593" lon="13.4516229"><ele>603.0</ele><time>2026-04-11T13:38:45.948Z</time></trkpt><trkpt lat="42.3366308" lon="13.4515204"><ele>603.0</ele><time>2026-04-11T13:38:46.941Z</time></trkpt><trkpt lat="42.3366679" lon="13.4514107"><ele>603.0</ele><time>2026-04-11T13:38:47.944Z</time></trkpt><trkpt lat="42.3366921" lon="13.4512834"><ele>603.0</ele><time>2026-04-11T13:38:48.941Z</time></trkpt><trkpt lat="42.3367141" lon="13.4511483"><ele>603.0</ele><time>2026-04-11T13:38:49.944Z</time></trkpt><trkpt lat="42.3367432" lon="13.450991"><ele>603.0</ele><time>2026-04-11T13:38:50.942Z</time></trkpt><trkpt lat="42.3367817" lon="13.4508271"><ele>603.5</ele><time>2026-04-11T13:38:51.942Z</time></trkpt><trkpt lat="42.3368226" lon="13.4506388"><ele>604.0</ele><time>2026-04-11T13:38:52.94Z</time></trkpt><trkpt lat="42.336865" lon="13.450444"><ele>604.5</ele><time>2026-04-11T13:38:53.939Z</time></trkpt><trkpt lat="42.3369078" lon="13.4502452"><ele>605.0</ele><time>2026-04-11T13:38:54.944Z</time></trkpt><trkpt lat="42.3369549" lon="13.4500358"><ele>605.6666666666666</ele><time>2026-04-11T13:38:55.94Z</time></trkpt><trkpt lat="42.3370005" lon="13.4498214"><ele>606.3333333333334</ele><time>2026-04-11T13:38:56.942Z</time></trkpt><trkpt lat="42.3370513" lon="13.4495949"><ele>607.0</ele><time>2026-04-11T13:38:57.939Z</time></trkpt><trkpt lat="42.3371041" lon="13.4493488"><ele>607.0</ele><time>2026-04-11T13:38:58.938Z</time></trkpt><trkpt lat="42.3371563" lon="13.4491074"><ele>607.0</ele><time>2026-04-11T13:38:59.938Z</time></trkpt><trkpt lat="42.337207" lon="13.4488748"><ele>607.0</ele><time>2026-04-11T13:39:00.941Z</time></trkpt><trkpt lat="42.3372555" lon="13.4486592"><ele>611.0</ele><time>2026-04-11T13:39:01.94Z</time></trkpt><trkpt lat="42.3372977" lon="13.4484617"><ele>615.0</ele><time>2026-04-11T13:39:02.941Z</time></trkpt><trkpt lat="42.3373458" lon="13.4482865"><ele>619.0</ele><time>2026-04-11T13:39:03.941Z</time></trkpt><trkpt lat="42.3374062" lon="13.4481426"><ele>623.0</ele><time>2026-04-11T13:39:04.941Z</time></trkpt><trkpt lat="42.3374776" lon="13.4480358"><ele>623.0</ele><time>2026-04-11T13:39:05.941Z</time></trkpt><trkpt lat="42.3375467" lon="13.4479504"><ele>623.0</ele><time>2026-04-11T13:39:06.941Z</time></trkpt><trkpt lat="42.3376023" lon="13.4478546"><ele>623.0</ele><time>2026-04-11T13:39:07.94Z</time></trkpt><trkpt lat="42.3376245" lon="13.4477441"><ele>623.0</ele><time>2026-04-11T13:39:08.945Z</time></trkpt><trkpt lat="42.337628" lon="13.4476127"><ele>623.0</ele><time>2026-04-11T13:39:09.941Z</time></trkpt><trkpt lat="42.3376306" lon="13.4474632"><ele>623.0</ele><time>2026-04-11T13:39:10.942Z</time></trkpt><trkpt lat="42.337651" lon="13.4473118"><ele>623.0</ele><time>2026-04-11T13:39:11.94Z</time></trkpt><trkpt lat="42.3376834" lon="13.4471538"><ele>623.0</ele><time>2026-04-11T13:39:12.944Z</time></trkpt><trkpt lat="42.3377196" lon="13.4469719"><ele>623.0</ele><time>2026-04-11T13:39:13.938Z</time></trkpt><trkpt lat="42.3377583" lon="13.4467791"><ele>623.0</ele><time>2026-04-11T13:39:14.94Z</time></trkpt><trkpt lat="42.3377989" lon="13.4465819"><ele>623.0</ele><time>2026-04-11T13:39:15.942Z</time></trkpt><trkpt lat="42.3378401" lon="13.4463844"><ele>623.0</ele><time>2026-04-11T13:39:16.941Z</time></trkpt><trkpt lat="42.3378786" lon="13.4461776"><ele>623.3333333333333</ele><time>2026-04-11T13:39:17.947Z</time></trkpt><trkpt lat="42.3379176" lon="13.4459704"><ele>623.6666666666666</ele><time>2026-04-11T13:39:18.943Z</time></trkpt><trkpt lat="42.3379549" lon="13.4457489"><ele>624.0</ele><time>2026-04-11T13:39:19.942Z</time></trkpt><trkpt lat="42.3379944" lon="13.4455164"><ele>625.0</ele><time>2026-04-11T13:39:20.939Z</time></trkpt><trkpt lat="42.3380343" lon="13.4452841"><ele>626.0</ele><time>2026-04-11T13:39:21.938Z</time></trkpt><trkpt lat="42.3380755" lon="13.445035"><ele>627.0</ele><time>2026-04-11T13:39:22.945Z</time></trkpt><trkpt lat="42.3381315" lon="13.444762"><ele>634.0</ele><time>2026-04-11T13:39:23.941Z</time></trkpt><trkpt lat="42.3382022" lon="13.4444707"><ele>641.0</ele><time>2026-04-11T13:39:24.941Z</time></trkpt><trkpt lat="42.3382893" lon="13.4441621"><ele>641.0</ele><time>2026-04-11T13:39:25.943Z</time></trkpt><trkpt lat="42.3383903" lon="13.4438203"><ele>641.0</ele><time>2026-04-11T13:39:26.943Z</time></trkpt><trkpt lat="42.3384969" lon="13.4434489"><ele>639.0</ele><time>2026-04-11T13:39:27.949Z</time></trkpt><trkpt lat="42.3386116" lon="13.443062"><ele>637.0</ele><time>2026-04-11T13:39:28.943Z</time></trkpt><trkpt lat="42.3387291" lon="13.4426672"><ele>637.0</ele><time>2026-04-11T13:39:29.942Z</time></trkpt><trkpt lat="42.3388532" lon="13.4422589"><ele>637.0</ele><time>2026-04-11T13:39:30.942Z</time></trkpt><trkpt lat="42.3389788" lon="13.4418523"><ele>643.5</ele><time>2026-04-11T13:39:31.943Z</time></trkpt><trkpt lat="42.3390983" lon="13.44146"><ele>650.0</ele><time>2026-04-11T13:39:32.939Z</time></trkpt><trkpt lat="42.339216" lon="13.4410817"><ele>649.0</ele><time>2026-04-11T13:39:33.942Z</time></trkpt><trkpt lat="42.3393371" lon="13.4407213"><ele>648.0</ele><time>2026-04-11T13:39:34.942Z</time></trkpt><trkpt lat="42.3394778" lon="13.4403799"><ele>648.0</ele><time>2026-04-11T13:39:35.94Z</time></trkpt><trkpt lat="42.3396411" lon="13.4400591"><ele>648.0</ele><time>2026-04-11T13:39:36.938Z</time></trkpt><trkpt lat="42.3398247" lon="13.4397726"><ele>651.5</ele><time>2026-04-11T13:39:37.94Z</time></trkpt><trkpt lat="42.3400306" lon="13.4395123"><ele>655.0</ele><time>2026-04-11T13:39:38.943Z</time></trkpt><trkpt lat="42.3402552" lon="13.4393002"><ele>655.0</ele><time>2026-04-11T13:39:39.94Z</time></trkpt><trkpt lat="42.3404978" lon="13.4391217"><ele>655.0</ele><time>2026-04-11T13:39:40.936Z</time></trkpt><trkpt lat="42.3407538" lon="13.4389786"><ele>655.0</ele><time>2026-04-11T13:39:41.943Z</time></trkpt><trkpt lat="42.3410169" lon="13.4388642"><ele>655.0</ele><time>2026-04-11T13:39:42.943Z</time></trkpt><trkpt lat="42.3412853" lon="13.4387831"><ele>660.0</ele><time>2026-04-11T13:39:43.942Z</time></trkpt><trkpt lat="42.341561" lon="13.43871"><ele>665.0</ele><time>2026-04-11T13:39:44.947Z</time></trkpt><trkpt lat="42.3418444" lon="13.4386291"><ele>665.0</ele><time>2026-04-11T13:39:45.941Z</time></trkpt><trkpt lat="42.3421202" lon="13.4385494"><ele>665.0</ele><time>2026-04-11T13:39:46.943Z</time></trkpt><trkpt lat="42.3423919" lon="13.4384662"><ele>668.5</ele><time>2026-04-11T13:39:47.957Z</time></trkpt><trkpt lat="42.3426447" lon="13.4383443"><ele>672.0</ele><time>2026-04-11T13:39:48.944Z</time></trkpt><trkpt lat="42.3428877" lon="13.4381824"><ele>673.5</ele><time>2026-04-11T13:39:49.944Z</time></trkpt><trkpt lat="42.3431173" lon="13.4379863"><ele>675.0</ele><time>2026-04-11T13:39:50.941Z</time></trkpt><trkpt lat="42.3433283" lon="13.4377514"><ele>675.0</ele><time>2026-04-11T13:39:51.94Z</time></trkpt><trkpt lat="42.3435153" lon="13.4374867"><ele>675.0</ele><time>2026-04-11T13:39:52.942Z</time></trkpt><trkpt lat="42.3436738" lon="13.4371893"><ele>673.0</ele><time>2026-04-11T13:39:53.939Z</time></trkpt><trkpt lat="42.3438068" lon="13.4368743"><ele>671.0</ele><time>2026-04-11T13:39:54.939Z</time></trkpt><trkpt lat="42.3439128" lon="13.4365315"><ele>684.0</ele><time>2026-04-11T13:39:55.94Z</time></trkpt><trkpt lat="42.3439868" lon="13.4361737"><ele>697.0</ele><time>2026-04-11T13:39:56.941Z</time></trkpt><trkpt lat="42.3440349" lon="13.4358081"><ele>695.5</ele><time>2026-04-11T13:39:57.942Z</time></trkpt><trkpt lat="42.344083" lon="13.4354227"><ele>694.0</ele><time>2026-04-11T13:39:58.948Z</time></trkpt><trkpt lat="42.3441315" lon="13.4350252"><ele>693.0</ele><time>2026-04-11T13:39:59.944Z</time></trkpt><trkpt lat="42.3441872" lon="13.4346233"><ele>692.0</ele><time>2026-04-11T13:40:00.943Z</time></trkpt><trkpt lat="42.3442907" lon="13.4342361"><ele>692.0</ele><time>2026-04-11T13:40:01.94Z</time></trkpt><trkpt lat="42.3444186" lon="13.4338751"><ele>692.0</ele><time>2026-04-11T13:40:02.941Z</time></trkpt><trkpt lat="42.3445766" lon="13.4335408"><ele>696.5</ele><time>2026-04-11T13:40:03.941Z</time></trkpt><trkpt lat="42.3447495" lon="13.433229"><ele>701.0</ele><time>2026-04-11T13:40:04.942Z</time></trkpt><trkpt lat="42.34497" lon="13.432981"><ele>700.0</ele><time>2026-04-11T13:40:05.939Z</time></trkpt><trkpt lat="42.3452208" lon="13.4327604"><ele>699.0</ele><time>2026-04-11T13:40:06.942Z</time></trkpt><trkpt lat="42.345473" lon="13.4325765"><ele>703.5</ele><time>2026-04-11T13:40:07.946Z</time></trkpt><trkpt lat="42.3457594" lon="13.4324356"><ele>708.0</ele><time>2026-04-11T13:40:08.941Z</time></trkpt><trkpt lat="42.34606" lon="13.4323138"><ele>708.0</ele><time>2026-04-11T13:40:09.94Z</time></trkpt><trkpt lat="42.3463581" lon="13.4321942"><ele>708.0</ele><time>2026-04-11T13:40:10.945Z</time></trkpt><trkpt lat="42.3466459" lon="13.4320705"><ele>706.0</ele><time>2026-04-11T13:40:11.943Z</time></trkpt><trkpt lat="42.3469304" lon="13.4319471"><ele>704.0</ele><time>2026-04-11T13:40:12.934Z</time></trkpt><trkpt lat="42.3472047" lon="13.4318238"><ele>707.5</ele><time>2026-04-11T13:40:13.949Z</time></trkpt><trkpt lat="42.3474735" lon="13.4317042"><ele>711.0</ele><time>2026-04-11T13:40:14.945Z</time></trkpt><trkpt lat="42.3477361" lon="13.4315957"><ele>711.0</ele><time>2026-04-11T13:40:15.949Z</time></trkpt><trkpt lat="42.3479979" lon="13.4314767"><ele>711.0</ele><time>2026-04-11T13:40:16.944Z</time></trkpt><trkpt lat="42.3482609" lon="13.4313641"><ele>712.0</ele><time>2026-04-11T13:40:17.942Z</time></trkpt><trkpt lat="42.3485213" lon="13.4312499"><ele>713.0</ele><time>2026-04-11T13:40:18.936Z</time></trkpt><trkpt lat="42.3487667" lon="13.4311483"><ele>717.0</ele><time>2026-04-11T13:40:19.937Z</time></trkpt><trkpt lat="42.3489963" lon="13.4310524"><ele>721.0</ele><time>2026-04-11T13:40:20.945Z</time></trkpt><trkpt lat="42.3492318" lon="13.4309509"><ele>721.0</ele><time>2026-04-11T13:40:21.952Z</time></trkpt><trkpt lat="42.349473" lon="13.4308357"><ele>721.0</ele><time>2026-04-11T13:40:22.942Z</time></trkpt><trkpt lat="42.349711" lon="13.4306982"><ele>720.0</ele><time>2026-04-11T13:40:23.947Z</time></trkpt><trkpt lat="42.3499492" lon="13.430543"><ele>719.0</ele><time>2026-04-11T13:40:24.942Z</time></trkpt><trkpt lat="42.3501858" lon="13.4303709"><ele>719.0</ele><time>2026-04-11T13:40:25.939Z</time></trkpt><trkpt lat="42.350418" lon="13.4301905"><ele>719.0</ele><time>2026-04-11T13:40:26.942Z</time></trkpt><trkpt lat="42.3506552" lon="13.4300121"><ele>725.5</ele><time>2026-04-11T13:40:27.943Z</time></trkpt><trkpt lat="42.3508899" lon="13.4298384"><ele>732.0</ele><time>2026-04-11T13:40:28.939Z</time></trkpt><trkpt lat="42.3511249" lon="13.4296582"><ele>730.0</ele><time>2026-04-11T13:40:29.944Z</time></trkpt><trkpt lat="42.3513601" lon="13.4294718"><ele>728.0</ele><time>2026-04-11T13:40:30.94Z</time></trkpt><trkpt lat="42.3515904" lon="13.4292772"><ele>735.0</ele><time>2026-04-11T13:40:31.941Z</time></trkpt><trkpt lat="42.3518184" lon="13.4290767"><ele>742.0</ele><time>2026-04-11T13:40:32.943Z</time></trkpt><trkpt lat="42.3520347" lon="13.4288703"><ele>742.0</ele><time>2026-04-11T13:40:33.941Z</time></trkpt><trkpt lat="42.3522644" lon="13.4286561"><ele>742.0</ele><time>2026-04-11T13:40:34.945Z</time></trkpt><trkpt lat="42.352483" lon="13.4284336"><ele>742.0</ele><time>2026-04-11T13:40:35.942Z</time></trkpt><trkpt lat="42.3526992" lon="13.4282038"><ele>742.0</ele><time>2026-04-11T13:40:36.944Z</time></trkpt><trkpt lat="42.352898" lon="13.4279487"><ele>734.5</ele><time>2026-04-11T13:40:37.939Z</time></trkpt><trkpt lat="42.3530763" lon="13.4276685"><ele>727.0</ele><time>2026-04-11T13:40:38.938Z</time></trkpt><trkpt lat="42.3532331" lon="13.4273706"><ele>727.5</ele><time>2026-04-11T13:40:39.937Z</time></trkpt><trkpt lat="42.3533585" lon="13.4270571"><ele>728.0</ele><time>2026-04-11T13:40:40.942Z</time></trkpt><trkpt lat="42.3534585" lon="13.426734"><ele>728.0</ele><time>2026-04-11T13:40:41.942Z</time></trkpt><trkpt lat="42.3535329" lon="13.426402"><ele>728.0</ele><time>2026-04-11T13:40:42.945Z</time></trkpt><trkpt lat="42.3535809" lon="13.4260636"><ele>729.5</ele><time>2026-04-11T13:40:43.943Z</time></trkpt><trkpt lat="42.3536018" lon="13.4257203"><ele>731.0</ele><time>2026-04-11T13:40:44.936Z</time></trkpt><trkpt lat="42.3535963" lon="13.425379"><ele>732.5</ele><time>2026-04-11T13:40:45.94Z</time></trkpt><trkpt lat="42.353567" lon="13.4250405"><ele>734.0</ele><time>2026-04-11T13:40:46.943Z</time></trkpt><trkpt lat="42.3535117" lon="13.4247126"><ele>737.0</ele><time>2026-04-11T13:40:47.943Z</time></trkpt><trkpt lat="42.3534335" lon="13.4243864"><ele>740.0</ele><time>2026-04-11T13:40:48.937Z</time></trkpt><trkpt lat="42.3533462" lon="13.4240635"><ele>744.0</ele><time>2026-04-11T13:40:49.943Z</time></trkpt><trkpt lat="42.3532573" lon="13.4237358"><ele>748.0</ele><time>2026-04-11T13:40:50.947Z</time></trkpt><trkpt lat="42.353165" lon="13.4234112"><ele>748.0</ele><time>2026-04-11T13:40:51.941Z</time></trkpt><trkpt lat="42.3530793" lon="13.4230929"><ele>748.0</ele><time>2026-04-11T13:40:52.939Z</time></trkpt><trkpt lat="42.3529987" lon="13.4227882"><ele>746.6666666666667</ele><time>2026-04-11T13:40:53.942Z</time></trkpt><trkpt lat="42.352921" lon="13.422503"><ele>745.3333333333334</ele><time>2026-04-11T13:40:54.939Z</time></trkpt><trkpt lat="42.3528487" lon="13.4222338"><ele>744.0</ele><time>2026-04-11T13:40:55.939Z</time></trkpt><trkpt lat="42.3527804" lon="13.4219829"><ele>744.0</ele><time>2026-04-11T13:40:56.94Z</time></trkpt><trkpt lat="42.3527166" lon="13.4217413"><ele>744.0</ele><time>2026-04-11T13:40:57.94Z</time></trkpt><trkpt lat="42.3526582" lon="13.4215037"><ele>744.0</ele><time>2026-04-11T13:40:58.941Z</time></trkpt><trkpt lat="42.3526264" lon="13.4212643"><ele>743.0</ele><time>2026-04-11T13:40:59.943Z</time></trkpt><trkpt lat="42.3526125" lon="13.4210266"><ele>742.0</ele><time>2026-04-11T13:41:00.933Z</time></trkpt><trkpt lat="42.3526192" lon="13.4207891"><ele>741.0</ele><time>2026-04-11T13:41:01.942Z</time></trkpt><trkpt lat="42.3526318" lon="13.4205614"><ele>740.6666666666666</ele><time>2026-04-11T13:41:02.941Z</time></trkpt><trkpt lat="42.3526281" lon="13.4203367"><ele>740.3333333333333</ele><time>2026-04-11T13:41:03.939Z</time></trkpt><trkpt lat="42.3525917" lon="13.4201247"><ele>740.0</ele><time>2026-04-11T13:41:04.945Z</time></trkpt><trkpt lat="42.3525372" lon="13.4199301"><ele>740.0</ele><time>2026-04-11T13:41:05.939Z</time></trkpt><trkpt lat="42.3524654" lon="13.4197587"><ele>740.0</ele><time>2026-04-11T13:41:06.94Z</time></trkpt><trkpt lat="42.3523968" lon="13.4195987"><ele>740.0</ele><time>2026-04-11T13:41:07.941Z</time></trkpt><trkpt lat="42.3523464" lon="13.4194521"><ele>740.0</ele><time>2026-04-11T13:41:08.943Z</time></trkpt><trkpt lat="42.3523155" lon="13.419332"><ele>740.0</ele><time>2026-04-11T13:41:09.941Z</time></trkpt><trkpt lat="42.3523091" lon="13.4192377"><ele>740.0</ele><time>2026-04-11T13:41:10.94Z</time></trkpt><trkpt lat="42.3523176" lon="13.4191471"><ele>740.0</ele><time>2026-04-11T13:41:11.939Z</time></trkpt><trkpt lat="42.3523314" lon="13.419037"><ele>740.0</ele><time>2026-04-11T13:41:12.945Z</time></trkpt><trkpt lat="42.3523551" lon="13.4189183"><ele>740.0</ele><time>2026-04-11T13:41:13.94Z</time></trkpt><trkpt lat="42.3523927" lon="13.4188062"><ele>740.0</ele><time>2026-04-11T13:41:14.943Z</time></trkpt><trkpt lat="42.3524541" lon="13.418699"><ele>740.0</ele><time>2026-04-11T13:41:15.943Z</time></trkpt><trkpt lat="42.3525348" lon="13.4185991"><ele>740.0</ele><time>2026-04-11T13:41:16.943Z</time></trkpt><trkpt lat="42.3526287" lon="13.418509"><ele>740.0</ele><time>2026-04-11T13:41:17.939Z</time></trkpt><trkpt lat="42.3527288" lon="13.4184313"><ele>740.0</ele><time>2026-04-11T13:41:18.943Z</time></trkpt><trkpt lat="42.3528264" lon="13.4183594"><ele>740.0</ele><time>2026-04-11T13:41:19.945Z</time></trkpt><trkpt lat="42.3529193" lon="13.4182925"><ele>740.0</ele><time>2026-04-11T13:41:20.939Z</time></trkpt><trkpt lat="42.3530171" lon="13.418223"><ele>740.0</ele><time>2026-04-11T13:41:21.94Z</time></trkpt><trkpt lat="42.3531161" lon="13.4181481"><ele>740.0</ele><time>2026-04-11T13:41:22.945Z</time></trkpt><trkpt lat="42.3532132" lon="13.4180697"><ele>740.0</ele><time>2026-04-11T13:41:23.941Z</time></trkpt><trkpt lat="42.3533116" lon="13.4179851"><ele>741.75</ele><time>2026-04-11T13:41:24.948Z</time></trkpt><trkpt lat="42.3534079" lon="13.4178985"><ele>743.5</ele><time>2026-04-11T13:41:25.94Z</time></trkpt><trkpt lat="42.3535055" lon="13.4177975"><ele>745.25</ele><time>2026-04-11T13:41:26.941Z</time></trkpt><trkpt lat="42.3535922" lon="13.4176932"><ele>747.0</ele><time>2026-04-11T13:41:27.946Z</time></trkpt><trkpt lat="42.3536631" lon="13.4175841"><ele>747.0</ele><time>2026-04-11T13:41:28.943Z</time></trkpt><trkpt lat="42.3537275" lon="13.4174584"><ele>747.0</ele><time>2026-04-11T13:41:29.941Z</time></trkpt><trkpt lat="42.3537839" lon="13.4173267"><ele>747.0</ele><time>2026-04-11T13:41:30.942Z</time></trkpt><trkpt lat="42.3538335" lon="13.4171849"><ele>747.0</ele><time>2026-04-11T13:41:31.943Z</time></trkpt><trkpt lat="42.3538778" lon="13.4170406"><ele>747.0</ele><time>2026-04-11T13:41:32.943Z</time></trkpt><trkpt lat="42.3539249" lon="13.4168767"><ele>747.0</ele><time>2026-04-11T13:41:33.946Z</time></trkpt><trkpt lat="42.3539732" lon="13.4167117"><ele>747.0</ele><time>2026-04-11T13:41:34.947Z</time></trkpt><trkpt lat="42.3540252" lon="13.4165514"><ele>747.0</ele><time>2026-04-11T13:41:35.941Z</time></trkpt><trkpt lat="42.3540777" lon="13.4163958"><ele>745.75</ele><time>2026-04-11T13:41:36.945Z</time></trkpt><trkpt lat="42.3541321" lon="13.4162457"><ele>744.5</ele><time>2026-04-11T13:41:37.939Z</time></trkpt><trkpt lat="42.3541905" lon="13.4160997"><ele>743.25</ele><time>2026-04-11T13:41:38.943Z</time></trkpt><trkpt lat="42.3542582" lon="13.4159603"><ele>742.0</ele><time>2026-04-11T13:41:39.943Z</time></trkpt><trkpt lat="42.3543543" lon="13.4158412"><ele>742.0</ele><time>2026-04-11T13:41:40.94Z</time></trkpt><trkpt lat="42.3544642" lon="13.4157615"><ele>742.0</ele><time>2026-04-11T13:41:41.942Z</time></trkpt><trkpt lat="42.3545936" lon="13.4157193"><ele>742.0</ele><time>2026-04-11T13:41:42.942Z</time></trkpt><trkpt lat="42.354736" lon="13.4157202"><ele>742.0</ele><time>2026-04-11T13:41:43.939Z</time></trkpt><trkpt lat="42.3548739" lon="13.4157368"><ele>743.0</ele><time>2026-04-11T13:41:44.946Z</time></trkpt><trkpt lat="42.3550034" lon="13.415756"><ele>744.0</ele><time>2026-04-11T13:41:45.935Z</time></trkpt><trkpt lat="42.355119" lon="13.4157682"><ele>745.0</ele><time>2026-04-11T13:41:46.946Z</time></trkpt><trkpt lat="42.3552346" lon="13.4157904"><ele>746.0</ele><time>2026-04-11T13:41:47.944Z</time></trkpt><trkpt lat="42.3553466" lon="13.4158057"><ele>746.0</ele><time>2026-04-11T13:41:48.942Z</time></trkpt><trkpt lat="42.3554541" lon="13.4158179"><ele>746.0</ele><time>2026-04-11T13:41:49.942Z</time></trkpt><trkpt lat="42.3555687" lon="13.4158165"><ele>746.0</ele><time>2026-04-11T13:41:50.944Z</time></trkpt><trkpt lat="42.3557036" lon="13.4158076"><ele>746.0</ele><time>2026-04-11T13:41:51.941Z</time></trkpt><trkpt lat="42.3558502" lon="13.415783"><ele>746.25</ele><time>2026-04-11T13:41:52.938Z</time></trkpt><trkpt lat="42.355984" lon="13.4157461"><ele>746.5</ele><time>2026-04-11T13:41:53.944Z</time></trkpt><trkpt lat="42.3561019" lon="13.4156862"><ele>746.75</ele><time>2026-04-11T13:41:54.943Z</time></trkpt><trkpt lat="42.3562161" lon="13.4156095"><ele>747.0</ele><time>2026-04-11T13:41:55.94Z</time></trkpt><trkpt lat="42.35633" lon="13.4155358"><ele>748.25</ele><time>2026-04-11T13:41:56.942Z</time></trkpt><trkpt lat="42.3564767" lon="13.4155341"><ele>749.5</ele><time>2026-04-11T13:41:57.942Z</time></trkpt><trkpt lat="42.3566058" lon="13.4155318"><ele>750.75</ele><time>2026-04-11T13:41:58.941Z</time></trkpt><trkpt lat="42.3567522" lon="13.4155512"><ele>752.0</ele><time>2026-04-11T13:41:59.944Z</time></trkpt><trkpt lat="42.3569021" lon="13.4155922"><ele>752.0</ele><time>2026-04-11T13:42:00.937Z</time></trkpt><trkpt lat="42.357048" lon="13.4156428"><ele>752.0</ele><time>2026-04-11T13:42:01.938Z</time></trkpt><trkpt lat="42.3571965" lon="13.4156761"><ele>752.0</ele><time>2026-04-11T13:42:02.945Z</time></trkpt><trkpt lat="42.3573398" lon="13.4156878"><ele>752.0</ele><time>2026-04-11T13:42:03.946Z</time></trkpt><trkpt lat="42.3574782" lon="13.415666"><ele>752.25</ele><time>2026-04-11T13:42:04.947Z</time></trkpt><trkpt lat="42.3576098" lon="13.4156118"><ele>752.5</ele><time>2026-04-11T13:42:05.939Z</time></trkpt><trkpt lat="42.3577366" lon="13.4155215"><ele>752.75</ele><time>2026-04-11T13:42:06.946Z</time></trkpt><trkpt lat="42.3578437" lon="13.4154085"><ele>753.0</ele><time>2026-04-11T13:42:07.94Z</time></trkpt><trkpt lat="42.3579273" lon="13.4152785"><ele>753.0</ele><time>2026-04-11T13:42:08.941Z</time></trkpt><trkpt lat="42.3579982" lon="13.4151424"><ele>753.0</ele><time>2026-04-11T13:42:09.935Z</time></trkpt><trkpt lat="42.3580454" lon="13.4149784"><ele>753.0</ele><time>2026-04-11T13:42:10.944Z</time></trkpt><trkpt lat="42.3581219" lon="13.4147671"><ele>753.0</ele><time>2026-04-11T13:42:11.941Z</time></trkpt><trkpt lat="42.3581334" lon="13.4145414"><ele>753.0</ele><time>2026-04-11T13:42:12.936Z</time></trkpt><trkpt lat="42.3581864" lon="13.4143659"><ele>753.0</ele><time>2026-04-11T13:42:13.946Z</time></trkpt><trkpt lat="42.3582969" lon="13.4141871"><ele>753.0</ele><time>2026-04-11T13:42:14.942Z</time></trkpt><trkpt lat="42.3584106" lon="13.4139939"><ele>750.6666666666666</ele><time>2026-04-11T13:42:15.94Z</time></trkpt><trkpt lat="42.3585061" lon="13.413802"><ele>748.3333333333333</ele><time>2026-04-11T13:42:16.94Z</time></trkpt><trkpt lat="42.3585935" lon="13.4136189"><ele>746.0</ele><time>2026-04-11T13:42:17.941Z</time></trkpt><trkpt lat="42.3586747" lon="13.4134367"><ele>746.0</ele><time>2026-04-11T13:42:18.938Z</time></trkpt><trkpt lat="42.3587446" lon="13.4132647"><ele>746.0</ele><time>2026-04-11T13:42:19.942Z</time></trkpt><trkpt lat="42.3588028" lon="13.413094"><ele>746.0</ele><time>2026-04-11T13:42:20.938Z</time></trkpt><trkpt lat="42.3588652" lon="13.4129399"><ele>746.0</ele><time>2026-04-11T13:42:21.942Z</time></trkpt><trkpt lat="42.3589338" lon="13.4128058"><ele>747.1999999999999</ele><time>2026-04-11T13:42:22.943Z</time></trkpt><trkpt lat="42.3589965" lon="13.4126972"><ele>748.4</ele><time>2026-04-11T13:42:23.943Z</time></trkpt><trkpt lat="42.3590498" lon="13.4126171"><ele>749.6</ele><time>2026-04-11T13:42:24.941Z</time></trkpt><trkpt lat="42.3591058" lon="13.4125413"><ele>750.8</ele><time>2026-04-11T13:42:25.953Z</time></trkpt><trkpt lat="42.3591588" lon="13.4124403"><ele>752.0</ele><time>2026-04-11T13:42:26.938Z</time></trkpt><trkpt lat="42.359202" lon="13.4123132"><ele>752.0</ele><time>2026-04-11T13:42:27.945Z</time></trkpt><trkpt lat="42.3592469" lon="13.4121706"><ele>752.0</ele><time>2026-04-11T13:42:28.951Z</time></trkpt><trkpt lat="42.3592817" lon="13.4120191"><ele>752.0</ele><time>2026-04-11T13:42:29.943Z</time></trkpt><trkpt lat="42.3593305" lon="13.4118831"><ele>752.0</ele><time>2026-04-11T13:42:30.943Z</time></trkpt><trkpt lat="42.3593789" lon="13.4117304"><ele>750.75</ele><time>2026-04-11T13:42:31.937Z</time></trkpt><trkpt lat="42.3594329" lon="13.4115839"><ele>749.5</ele><time>2026-04-11T13:42:32.942Z</time></trkpt><trkpt lat="42.3594833" lon="13.4114341"><ele>748.25</ele><time>2026-04-11T13:42:33.943Z</time></trkpt><trkpt lat="42.3595301" lon="13.4112892"><ele>747.0</ele><time>2026-04-11T13:42:34.948Z</time></trkpt><trkpt lat="42.3595713" lon="13.4111502"><ele>745.4000000000001</ele><time>2026-04-11T13:42:35.942Z</time></trkpt><trkpt lat="42.3596056" lon="13.4110372"><ele>743.8000000000001</ele><time>2026-04-11T13:42:36.944Z</time></trkpt><trkpt lat="42.3596303" lon="13.4109297"><ele>742.2</ele><time>2026-04-11T13:42:37.942Z</time></trkpt><trkpt lat="42.3596594" lon="13.4108252"><ele>740.6</ele><time>2026-04-11T13:42:38.939Z</time></trkpt><trkpt lat="42.3596998" lon="13.4107075"><ele>739.0</ele><time>2026-04-11T13:42:39.944Z</time></trkpt><trkpt lat="42.359753" lon="13.4105918"><ele>737.6</ele><time>2026-04-11T13:42:40.943Z</time></trkpt><trkpt lat="42.359813" lon="13.4104733"><ele>736.2</ele><time>2026-04-11T13:42:41.942Z</time></trkpt><trkpt lat="42.3598731" lon="13.4103521"><ele>734.8000000000001</ele><time>2026-04-11T13:42:42.944Z</time></trkpt><trkpt lat="42.3599296" lon="13.4102333"><ele>733.4000000000001</ele><time>2026-04-11T13:42:43.946Z</time></trkpt><trkpt lat="42.3599832" lon="13.4101108"><ele>732.0</ele><time>2026-04-11T13:42:44.945Z</time></trkpt><trkpt lat="42.3600278" lon="13.4099739"><ele>732.0</ele><time>2026-04-11T13:42:45.946Z</time></trkpt><trkpt lat="42.3600683" lon="13.4098139"><ele>732.0</ele><time>2026-04-11T13:42:46.942Z</time></trkpt><trkpt lat="42.3601126" lon="13.4096523"><ele>732.0</ele><time>2026-04-11T13:42:47.941Z</time></trkpt><trkpt lat="42.3601624" lon="13.409465"><ele>732.0</ele><time>2026-04-11T13:42:48.948Z</time></trkpt><trkpt lat="42.3602145" lon="13.4092636"><ele>731.0</ele><time>2026-04-11T13:42:49.937Z</time></trkpt><trkpt lat="42.360268" lon="13.4090709"><ele>730.0</ele><time>2026-04-11T13:42:50.946Z</time></trkpt><trkpt lat="42.3603229" lon="13.4088913"><ele>729.0</ele><time>2026-04-11T13:42:51.942Z</time></trkpt><trkpt lat="42.3603715" lon="13.4087167"><ele>728.0</ele><time>2026-04-11T13:42:52.942Z</time></trkpt><trkpt lat="42.360412" lon="13.4085775"><ele>727.3333333333333</ele><time>2026-04-11T13:42:53.942Z</time></trkpt><trkpt lat="42.3604409" lon="13.408464"><ele>726.6666666666666</ele><time>2026-04-11T13:42:54.94Z</time></trkpt><trkpt lat="42.3604954" lon="13.4083354"><ele>726.0</ele><time>2026-04-11T13:42:56.943Z</time></trkpt><trkpt lat="42.3605151" lon="13.4082475"><ele>725.3333333333334</ele><time>2026-04-11T13:42:58.939Z</time></trkpt><trkpt lat="42.3604481" lon="13.4081927"><ele>724.6666666666667</ele><time>2026-04-11T13:43:00.946Z</time></trkpt><trkpt lat="42.3603818" lon="13.4081638"><ele>724.0</ele><time>2026-04-11T13:43:01.938Z</time></trkpt><trkpt lat="42.3602868" lon="13.4081616"><ele>724.0</ele><time>2026-04-11T13:43:02.943Z</time></trkpt><trkpt lat="42.360186" lon="13.4081508"><ele>724.0</ele><time>2026-04-11T13:43:03.941Z</time></trkpt><trkpt lat="42.3600764" lon="13.4081352"><ele>724.0</ele><time>2026-04-11T13:43:04.937Z</time></trkpt><trkpt lat="42.3599599" lon="13.408099"><ele>724.0</ele><time>2026-04-11T13:43:05.937Z</time></trkpt><trkpt lat="42.3598391" lon="13.4080544"><ele>724.0</ele><time>2026-04-11T13:43:06.941Z</time></trkpt><trkpt lat="42.3597254" lon="13.408006"><ele>724.0</ele><time>2026-04-11T13:43:07.942Z</time></trkpt><trkpt lat="42.3596093" lon="13.407952"><ele>724.0</ele><time>2026-04-11T13:43:08.941Z</time></trkpt><trkpt lat="42.3594899" lon="13.4078957"><ele>724.0</ele><time>2026-04-11T13:43:09.945Z</time></trkpt><trkpt lat="42.3593707" lon="13.4078339"><ele>723.0</ele><time>2026-04-11T13:43:10.941Z</time></trkpt><trkpt lat="42.3592412" lon="13.4077708"><ele>722.0</ele><time>2026-04-11T13:43:11.938Z</time></trkpt><trkpt lat="42.3591139" lon="13.4077023"><ele>721.0</ele><time>2026-04-11T13:43:12.943Z</time></trkpt><trkpt lat="42.3589864" lon="13.4076412"><ele>720.0</ele><time>2026-04-11T13:43:13.947Z</time></trkpt><trkpt lat="42.3588751" lon="13.4075854"><ele>720.0</ele><time>2026-04-11T13:43:14.941Z</time></trkpt><trkpt lat="42.3587794" lon="13.4075335"><ele>720.0</ele><time>2026-04-11T13:43:15.943Z</time></trkpt><trkpt lat="42.3587055" lon="13.4074834"><ele>720.0</ele><time>2026-04-11T13:43:16.941Z</time></trkpt><trkpt lat="42.3586473" lon="13.4074385"><ele>720.0</ele><time>2026-04-11T13:43:17.942Z</time></trkpt><trkpt lat="42.3586198" lon="13.4072772"><ele>720.0</ele><time>2026-04-11T13:43:19.941Z</time></trkpt><trkpt lat="42.3586343" lon="13.4071745"><ele>719.25</ele><time>2026-04-11T13:43:20.936Z</time></trkpt><trkpt lat="42.3586578" lon="13.4070488"><ele>718.5</ele><time>2026-04-11T13:43:21.94Z</time></trkpt><trkpt lat="42.3586912" lon="13.4068998"><ele>717.75</ele><time>2026-04-11T13:43:22.945Z</time></trkpt><trkpt lat="42.3587226" lon="13.406737"><ele>717.0</ele><time>2026-04-11T13:43:23.942Z</time></trkpt><trkpt lat="42.3587662" lon="13.4065614"><ele>717.0</ele><time>2026-04-11T13:43:24.94Z</time></trkpt><trkpt lat="42.358792" lon="13.4063814"><ele>717.0</ele><time>2026-04-11T13:43:25.939Z</time></trkpt><trkpt lat="42.358805" lon="13.4062146"><ele>717.0</ele><time>2026-04-11T13:43:26.94Z</time></trkpt><trkpt lat="42.3587974" lon="13.406052"><ele>717.0</ele><time>2026-04-11T13:43:27.938Z</time></trkpt><trkpt lat="42.3587739" lon="13.4058974"><ele>716.25</ele><time>2026-04-11T13:43:28.944Z</time></trkpt><trkpt lat="42.3587264" lon="13.4057437"><ele>715.5</ele><time>2026-04-11T13:43:29.938Z</time></trkpt><trkpt lat="42.3586691" lon="13.4056023"><ele>714.75</ele><time>2026-04-11T13:43:30.939Z</time></trkpt><trkpt lat="42.3585839" lon="13.4054729"><ele>714.0</ele><time>2026-04-11T13:43:31.943Z</time></trkpt><trkpt lat="42.3585113" lon="13.4053446"><ele>713.6666666666666</ele><time>2026-04-11T13:43:32.943Z</time></trkpt><trkpt lat="42.3584417" lon="13.4052258"><ele>713.3333333333334</ele><time>2026-04-11T13:43:33.944Z</time></trkpt><trkpt lat="42.3583864" lon="13.4051101"><ele>713.0</ele><time>2026-04-11T13:43:34.946Z</time></trkpt><trkpt lat="42.3583505" lon="13.4050099"><ele>712.6666666666667</ele><time>2026-04-11T13:43:35.94Z</time></trkpt><trkpt lat="42.358331" lon="13.4049267"><ele>712.3333333333334</ele><time>2026-04-11T13:43:36.942Z</time></trkpt><trkpt lat="42.3583378" lon="13.4048239"><ele>712.0</ele><time>2026-04-11T13:43:37.943Z</time></trkpt><trkpt lat="42.3583526" lon="13.4046856"><ele>711.6</ele><time>2026-04-11T13:43:38.941Z</time></trkpt><trkpt lat="42.358376" lon="13.4045369"><ele>711.2</ele><time>2026-04-11T13:43:39.944Z</time></trkpt><trkpt lat="42.3583923" lon="13.404397"><ele>710.8</ele><time>2026-04-11T13:43:40.937Z</time></trkpt><trkpt lat="42.3583683" lon="13.4042734"><ele>710.4</ele><time>2026-04-11T13:43:41.94Z</time></trkpt><trkpt lat="42.3583211" lon="13.4041668"><ele>710.0</ele><time>2026-04-11T13:43:42.943Z</time></trkpt><trkpt lat="42.358261" lon="13.4040517"><ele>710.0</ele><time>2026-04-11T13:43:43.943Z</time></trkpt><trkpt lat="42.3582424" lon="13.403929"><ele>710.0</ele><time>2026-04-11T13:43:44.934Z</time></trkpt><trkpt lat="42.3582594" lon="13.4037959"><ele>710.0</ele><time>2026-04-11T13:43:45.943Z</time></trkpt><trkpt lat="42.3583024" lon="13.4036618"><ele>710.0</ele><time>2026-04-11T13:43:46.942Z</time></trkpt><trkpt lat="42.3583725" lon="13.4035292"><ele>710.0</ele><time>2026-04-11T13:43:47.946Z</time></trkpt><trkpt lat="42.3584655" lon="13.4034016"><ele>711.75</ele><time>2026-04-11T13:43:48.938Z</time></trkpt><trkpt lat="42.3585607" lon="13.4032721"><ele>713.5</ele><time>2026-04-11T13:43:49.946Z</time></trkpt><trkpt lat="42.3586797" lon="13.4031715"><ele>715.25</ele><time>2026-04-11T13:43:50.946Z</time></trkpt><trkpt lat="42.3587922" lon="13.4030808"><ele>717.0</ele><time>2026-04-11T13:43:51.937Z</time></trkpt><trkpt lat="42.3589005" lon="13.4030033"><ele>717.6666666666666</ele><time>2026-04-11T13:43:52.946Z</time></trkpt><trkpt lat="42.3590069" lon="13.4029402"><ele>718.3333333333334</ele><time>2026-04-11T13:43:53.941Z</time></trkpt><trkpt lat="42.3590991" lon="13.4028922"><ele>719.0</ele><time>2026-04-11T13:43:54.94Z</time></trkpt><trkpt lat="42.3591787" lon="13.4028509"><ele>719.6666666666667</ele><time>2026-04-11T13:43:55.942Z</time></trkpt><trkpt lat="42.3592486" lon="13.4028262"><ele>720.3333333333334</ele><time>2026-04-11T13:43:56.943Z</time></trkpt><trkpt lat="42.3593097" lon="13.4027977"><ele>721.0</ele><time>2026-04-11T13:43:57.936Z</time></trkpt><trkpt lat="42.3593948" lon="13.4027766"><ele>721.0</ele><time>2026-04-11T13:43:58.945Z</time></trkpt><trkpt lat="42.3595134" lon="13.4027722"><ele>721.0</ele><time>2026-04-11T13:43:59.943Z</time></trkpt><trkpt lat="42.3596328" lon="13.4027655"><ele>721.0</ele><time>2026-04-11T13:44:00.94Z</time></trkpt><trkpt lat="42.3597559" lon="13.402748"><ele>721.0</ele><time>2026-04-11T13:44:01.936Z</time></trkpt><trkpt lat="42.3598746" lon="13.4027147"><ele>721.25</ele><time>2026-04-11T13:44:02.941Z</time></trkpt><trkpt lat="42.3599748" lon="13.4026184"><ele>721.5</ele><time>2026-04-11T13:44:03.939Z</time></trkpt><trkpt lat="42.3600503" lon="13.4024858"><ele>721.75</ele><time>2026-04-11T13:44:04.942Z</time></trkpt><trkpt lat="42.3600956" lon="13.4023199"><ele>722.0</ele><time>2026-04-11T13:44:05.937Z</time></trkpt><trkpt lat="42.360119" lon="13.402139"><ele>721.25</ele><time>2026-04-11T13:44:06.937Z</time></trkpt><trkpt lat="42.3601376" lon="13.4019484"><ele>720.5</ele><time>2026-04-11T13:44:07.943Z</time></trkpt><trkpt lat="42.3601411" lon="13.4017489"><ele>719.75</ele><time>2026-04-11T13:44:08.94Z</time></trkpt><trkpt lat="42.3601302" lon="13.4015509"><ele>719.0</ele><time>2026-04-11T13:44:09.941Z</time></trkpt><trkpt lat="42.3601221" lon="13.4013467"><ele>719.0</ele><time>2026-04-11T13:44:10.941Z</time></trkpt><trkpt lat="42.3601127" lon="13.4011456"><ele>725.0</ele><time>2026-04-11T13:44:11.94Z</time></trkpt><trkpt lat="42.3601032" lon="13.4009465"><ele>725.0</ele><time>2026-04-11T13:44:12.943Z</time></trkpt></trkseg></trk></gpx>